<?xml version="1.0" encoding="UTF-8"?>
<gpx version="1.1" creator="https://www.youtrack.es" xsi:schemaLocation="http://www.topografix.com/GPX/1/1 http://www.topografix.com/GPX/1/1/gpx.xsd http://www.garmin.com/xmlschemas/GpxExtensions/v3 http://www.garmin.com/xmlschemas/GpxExtensionsv3.xsd http://www.garmin.com/xmlschemas/TrackPointExtension/v1 http://www.garmin.com/xmlschemas/TrackPointExtensionv1.xsd" xmlns:gpxtpx="http://www.garmin.com/xmlschemas/TrackPointExtension/v1" xmlns:gpxx="http://www.garmin.com/xmlschemas/GpxExtensions/v3" xmlns:xsi="http://www.w3.org/2001/XMLSchema-instance">
  <metadata>
    <link href="https://www.youtrack.es">
      <text>YouTrack.es</text>
    </link>
    <time>2026-05-10T12:17:53Z</time>
  </metadata>
  <trk>
    <src>https://www.youtrack.es</src>
    <link href="https://www.youtrack.es/ruta/14084-canvinyalsguanta">
      <text>YouTrack.es</text>
    </link>
    <trkseg>
      <trkpt lat="41.6225320" lon="2.1215580">
        <ele>253.4</ele>
        <time>2020-07-09T11:17:28Z</time>
      </trkpt>
      <trkpt lat="41.6225510" lon="2.1215450">
        <ele>253.3</ele>
        <time>2020-07-09T11:17:29Z</time>
      </trkpt>
      <trkpt lat="41.6225620" lon="2.1215420">
        <ele>253.3</ele>
        <time>2020-07-09T11:17:30Z</time>
      </trkpt>
      <trkpt lat="41.6225740" lon="2.1215400">
        <ele>253.2</ele>
        <time>2020-07-09T11:17:31Z</time>
      </trkpt>
      <trkpt lat="41.6225850" lon="2.1215370">
        <ele>253.2</ele>
        <time>2020-07-09T11:17:32Z</time>
      </trkpt>
      <trkpt lat="41.6225970" lon="2.1215350">
        <ele>253.1</ele>
        <time>2020-07-09T11:17:33Z</time>
      </trkpt>
      <trkpt lat="41.6226090" lon="2.1215330">
        <ele>253.1</ele>
        <time>2020-07-09T11:17:34Z</time>
      </trkpt>
      <trkpt lat="41.6226200" lon="2.1215300">
        <ele>253.1</ele>
        <time>2020-07-09T11:17:35Z</time>
      </trkpt>
      <trkpt lat="41.6226320" lon="2.1215280">
        <ele>253.0</ele>
        <time>2020-07-09T11:17:36Z</time>
      </trkpt>
      <trkpt lat="41.6226430" lon="2.1215250">
        <ele>253.0</ele>
        <time>2020-07-09T11:17:37Z</time>
      </trkpt>
      <trkpt lat="41.6226550" lon="2.1215230">
        <ele>252.9</ele>
        <time>2020-07-09T11:17:38Z</time>
      </trkpt>
      <trkpt lat="41.6226670" lon="2.1215210">
        <ele>252.9</ele>
        <time>2020-07-09T11:17:39Z</time>
      </trkpt>
      <trkpt lat="41.6226780" lon="2.1215180">
        <ele>252.9</ele>
        <time>2020-07-09T11:17:40Z</time>
      </trkpt>
      <trkpt lat="41.6226900" lon="2.1215160">
        <ele>252.8</ele>
        <time>2020-07-09T11:17:41Z</time>
      </trkpt>
      <trkpt lat="41.6227010" lon="2.1215130">
        <ele>252.8</ele>
        <time>2020-07-09T11:17:42Z</time>
      </trkpt>
      <trkpt lat="41.6227130" lon="2.1215110">
        <ele>252.7</ele>
        <time>2020-07-09T11:17:43Z</time>
      </trkpt>
      <trkpt lat="41.6227250" lon="2.1215090">
        <ele>252.7</ele>
        <time>2020-07-09T11:17:44Z</time>
      </trkpt>
      <trkpt lat="41.6227360" lon="2.1215060">
        <ele>252.7</ele>
        <time>2020-07-09T11:17:45Z</time>
      </trkpt>
      <trkpt lat="41.6227480" lon="2.1215040">
        <ele>252.6</ele>
        <time>2020-07-09T11:17:46Z</time>
      </trkpt>
      <trkpt lat="41.6227590" lon="2.1215010">
        <ele>252.6</ele>
        <time>2020-07-09T11:17:47Z</time>
      </trkpt>
      <trkpt lat="41.6227710" lon="2.1214990">
        <ele>252.6</ele>
        <time>2020-07-09T11:17:48Z</time>
      </trkpt>
      <trkpt lat="41.6227830" lon="2.1214970">
        <ele>252.5</ele>
        <time>2020-07-09T11:17:49Z</time>
      </trkpt>
      <trkpt lat="41.6227940" lon="2.1214940">
        <ele>252.5</ele>
        <time>2020-07-09T11:17:50Z</time>
      </trkpt>
      <trkpt lat="41.6228060" lon="2.1214920">
        <ele>252.5</ele>
        <time>2020-07-09T11:17:51Z</time>
      </trkpt>
      <trkpt lat="41.6228170" lon="2.1214890">
        <ele>252.5</ele>
        <time>2020-07-09T11:17:52Z</time>
      </trkpt>
      <trkpt lat="41.6228290" lon="2.1214870">
        <ele>252.4</ele>
        <time>2020-07-09T11:17:53Z</time>
      </trkpt>
      <trkpt lat="41.6228410" lon="2.1214850">
        <ele>252.4</ele>
        <time>2020-07-09T11:17:54Z</time>
      </trkpt>
      <trkpt lat="41.6228520" lon="2.1214820">
        <ele>252.4</ele>
        <time>2020-07-09T11:17:55Z</time>
      </trkpt>
      <trkpt lat="41.6228640" lon="2.1214800">
        <ele>252.4</ele>
        <time>2020-07-09T11:17:56Z</time>
      </trkpt>
      <trkpt lat="41.6228750" lon="2.1214770">
        <ele>252.4</ele>
        <time>2020-07-09T11:17:57Z</time>
      </trkpt>
      <trkpt lat="41.6228870" lon="2.1214750">
        <ele>252.4</ele>
        <time>2020-07-09T11:17:58Z</time>
      </trkpt>
      <trkpt lat="41.6228990" lon="2.1214730">
        <ele>252.4</ele>
        <time>2020-07-09T11:17:59Z</time>
      </trkpt>
      <trkpt lat="41.6229100" lon="2.1214700">
        <ele>252.4</ele>
        <time>2020-07-09T11:18:00Z</time>
      </trkpt>
      <trkpt lat="41.6229220" lon="2.1214680">
        <ele>252.4</ele>
        <time>2020-07-09T11:18:01Z</time>
      </trkpt>
      <trkpt lat="41.6229330" lon="2.1214650">
        <ele>252.4</ele>
        <time>2020-07-09T11:18:02Z</time>
      </trkpt>
      <trkpt lat="41.6229450" lon="2.1214630">
        <ele>252.4</ele>
        <time>2020-07-09T11:18:03Z</time>
      </trkpt>
      <trkpt lat="41.6229560" lon="2.1214600">
        <ele>252.4</ele>
        <time>2020-07-09T11:18:04Z</time>
      </trkpt>
      <trkpt lat="41.6229680" lon="2.1214580">
        <ele>252.4</ele>
        <time>2020-07-09T11:18:05Z</time>
      </trkpt>
      <trkpt lat="41.6229800" lon="2.1214560">
        <ele>252.5</ele>
        <time>2020-07-09T11:18:06Z</time>
      </trkpt>
      <trkpt lat="41.6229910" lon="2.1214530">
        <ele>252.5</ele>
        <time>2020-07-09T11:18:07Z</time>
      </trkpt>
      <trkpt lat="41.6230030" lon="2.1214510">
        <ele>252.5</ele>
        <time>2020-07-09T11:18:08Z</time>
      </trkpt>
      <trkpt lat="41.6230140" lon="2.1214480">
        <ele>252.6</ele>
        <time>2020-07-09T11:18:09Z</time>
      </trkpt>
      <trkpt lat="41.6230260" lon="2.1214460">
        <ele>252.6</ele>
        <time>2020-07-09T11:18:10Z</time>
      </trkpt>
      <trkpt lat="41.6230380" lon="2.1214440">
        <ele>252.7</ele>
        <time>2020-07-09T11:18:11Z</time>
      </trkpt>
      <trkpt lat="41.6230490" lon="2.1214410">
        <ele>252.7</ele>
        <time>2020-07-09T11:18:12Z</time>
      </trkpt>
      <trkpt lat="41.6230610" lon="2.1214390">
        <ele>252.8</ele>
        <time>2020-07-09T11:18:13Z</time>
      </trkpt>
      <trkpt lat="41.6230720" lon="2.1214360">
        <ele>252.8</ele>
        <time>2020-07-09T11:18:14Z</time>
      </trkpt>
      <trkpt lat="41.6230840" lon="2.1214340">
        <ele>252.9</ele>
        <time>2020-07-09T11:18:15Z</time>
      </trkpt>
      <trkpt lat="41.6230960" lon="2.1214320">
        <ele>253.0</ele>
        <time>2020-07-09T11:18:16Z</time>
      </trkpt>
      <trkpt lat="41.6231070" lon="2.1214290">
        <ele>253.0</ele>
        <time>2020-07-09T11:18:17Z</time>
      </trkpt>
      <trkpt lat="41.6231190" lon="2.1214270">
        <ele>253.1</ele>
        <time>2020-07-09T11:18:18Z</time>
      </trkpt>
      <trkpt lat="41.6231300" lon="2.1214240">
        <ele>253.2</ele>
        <time>2020-07-09T11:18:19Z</time>
      </trkpt>
      <trkpt lat="41.6231420" lon="2.1214220">
        <ele>253.3</ele>
        <time>2020-07-09T11:18:20Z</time>
      </trkpt>
      <trkpt lat="41.6231540" lon="2.1214200">
        <ele>253.3</ele>
        <time>2020-07-09T11:18:21Z</time>
      </trkpt>
      <trkpt lat="41.6231650" lon="2.1214170">
        <ele>253.4</ele>
        <time>2020-07-09T11:18:22Z</time>
      </trkpt>
      <trkpt lat="41.6231770" lon="2.1214150">
        <ele>253.5</ele>
        <time>2020-07-09T11:18:23Z</time>
      </trkpt>
      <trkpt lat="41.6231880" lon="2.1214120">
        <ele>253.6</ele>
        <time>2020-07-09T11:18:24Z</time>
      </trkpt>
      <trkpt lat="41.6232000" lon="2.1214100">
        <ele>253.7</ele>
        <time>2020-07-09T11:18:25Z</time>
      </trkpt>
      <trkpt lat="41.6232120" lon="2.1214080">
        <ele>253.8</ele>
        <time>2020-07-09T11:18:26Z</time>
      </trkpt>
      <trkpt lat="41.6232230" lon="2.1214050">
        <ele>253.9</ele>
        <time>2020-07-09T11:18:27Z</time>
      </trkpt>
      <trkpt lat="41.6232350" lon="2.1214030">
        <ele>254.0</ele>
        <time>2020-07-09T11:18:28Z</time>
      </trkpt>
      <trkpt lat="41.6232460" lon="2.1214000">
        <ele>254.1</ele>
        <time>2020-07-09T11:18:29Z</time>
      </trkpt>
      <trkpt lat="41.6232580" lon="2.1213980">
        <ele>254.2</ele>
        <time>2020-07-09T11:18:30Z</time>
      </trkpt>
      <trkpt lat="41.6232700" lon="2.1213980">
        <ele>254.4</ele>
        <time>2020-07-09T11:18:31Z</time>
      </trkpt>
      <trkpt lat="41.6232810" lon="2.1213990">
        <ele>254.5</ele>
        <time>2020-07-09T11:18:32Z</time>
      </trkpt>
      <trkpt lat="41.6232920" lon="2.1214000">
        <ele>254.6</ele>
        <time>2020-07-09T11:18:33Z</time>
      </trkpt>
      <trkpt lat="41.6233030" lon="2.1214010">
        <ele>254.7</ele>
        <time>2020-07-09T11:18:34Z</time>
      </trkpt>
      <trkpt lat="41.6233140" lon="2.1214020">
        <ele>254.8</ele>
        <time>2020-07-09T11:18:35Z</time>
      </trkpt>
      <trkpt lat="41.6233250" lon="2.1214040">
        <ele>254.9</ele>
        <time>2020-07-09T11:18:36Z</time>
      </trkpt>
      <trkpt lat="41.6233360" lon="2.1214060">
        <ele>255.0</ele>
        <time>2020-07-09T11:18:37Z</time>
      </trkpt>
      <trkpt lat="41.6233470" lon="2.1214070">
        <ele>255.2</ele>
        <time>2020-07-09T11:18:38Z</time>
      </trkpt>
      <trkpt lat="41.6233580" lon="2.1214100">
        <ele>255.3</ele>
        <time>2020-07-09T11:18:39Z</time>
      </trkpt>
      <trkpt lat="41.6233680" lon="2.1214120">
        <ele>255.4</ele>
        <time>2020-07-09T11:18:40Z</time>
      </trkpt>
      <trkpt lat="41.6233790" lon="2.1214150">
        <ele>255.5</ele>
        <time>2020-07-09T11:18:41Z</time>
      </trkpt>
      <trkpt lat="41.6233890" lon="2.1214180">
        <ele>255.6</ele>
        <time>2020-07-09T11:18:42Z</time>
      </trkpt>
      <trkpt lat="41.6234000" lon="2.1214210">
        <ele>255.7</ele>
        <time>2020-07-09T11:18:43Z</time>
      </trkpt>
      <trkpt lat="41.6234100" lon="2.1214240">
        <ele>255.8</ele>
        <time>2020-07-09T11:18:44Z</time>
      </trkpt>
      <trkpt lat="41.6234210" lon="2.1214280">
        <ele>256.0</ele>
        <time>2020-07-09T11:18:45Z</time>
      </trkpt>
      <trkpt lat="41.6234320" lon="2.1214310">
        <ele>256.1</ele>
        <time>2020-07-09T11:18:46Z</time>
      </trkpt>
      <trkpt lat="41.6234420" lon="2.1214340">
        <ele>256.2</ele>
        <time>2020-07-09T11:18:47Z</time>
      </trkpt>
      <trkpt lat="41.6234530" lon="2.1214370">
        <ele>256.3</ele>
        <time>2020-07-09T11:18:48Z</time>
      </trkpt>
      <trkpt lat="41.6234640" lon="2.1214400">
        <ele>256.5</ele>
        <time>2020-07-09T11:18:49Z</time>
      </trkpt>
      <trkpt lat="41.6234750" lon="2.1214430">
        <ele>256.6</ele>
        <time>2020-07-09T11:18:50Z</time>
      </trkpt>
      <trkpt lat="41.6234860" lon="2.1214450">
        <ele>256.7</ele>
        <time>2020-07-09T11:18:51Z</time>
      </trkpt>
      <trkpt lat="41.6234970" lon="2.1214470">
        <ele>256.8</ele>
        <time>2020-07-09T11:18:52Z</time>
      </trkpt>
      <trkpt lat="41.6235090" lon="2.1214490">
        <ele>257.0</ele>
        <time>2020-07-09T11:18:53Z</time>
      </trkpt>
      <trkpt lat="41.6235200" lon="2.1214500">
        <ele>257.1</ele>
        <time>2020-07-09T11:18:54Z</time>
      </trkpt>
      <trkpt lat="41.6235320" lon="2.1214510">
        <ele>257.2</ele>
        <time>2020-07-09T11:18:55Z</time>
      </trkpt>
      <trkpt lat="41.6235440" lon="2.1214510">
        <ele>257.4</ele>
        <time>2020-07-09T11:18:56Z</time>
      </trkpt>
      <trkpt lat="41.6235560" lon="2.1214500">
        <ele>257.5</ele>
        <time>2020-07-09T11:18:57Z</time>
      </trkpt>
      <trkpt lat="41.6235680" lon="2.1214490">
        <ele>257.6</ele>
        <time>2020-07-09T11:18:58Z</time>
      </trkpt>
      <trkpt lat="41.6235800" lon="2.1214470">
        <ele>257.7</ele>
        <time>2020-07-09T11:18:59Z</time>
      </trkpt>
      <trkpt lat="41.6235930" lon="2.1214450">
        <ele>257.9</ele>
        <time>2020-07-09T11:19:00Z</time>
      </trkpt>
      <trkpt lat="41.6236170" lon="2.1214380">
        <ele>258.1</ele>
        <time>2020-07-09T11:19:01Z</time>
      </trkpt>
      <trkpt lat="41.6236280" lon="2.1214340">
        <ele>258.2</ele>
        <time>2020-07-09T11:19:02Z</time>
      </trkpt>
      <trkpt lat="41.6236390" lon="2.1214290">
        <ele>258.3</ele>
        <time>2020-07-09T11:19:03Z</time>
      </trkpt>
      <trkpt lat="41.6236500" lon="2.1214240">
        <ele>258.5</ele>
        <time>2020-07-09T11:19:04Z</time>
      </trkpt>
      <trkpt lat="41.6236610" lon="2.1214200">
        <ele>258.6</ele>
        <time>2020-07-09T11:19:05Z</time>
      </trkpt>
      <trkpt lat="41.6236710" lon="2.1214150">
        <ele>258.7</ele>
        <time>2020-07-09T11:19:06Z</time>
      </trkpt>
      <trkpt lat="41.6236820" lon="2.1214100">
        <ele>258.8</ele>
        <time>2020-07-09T11:19:07Z</time>
      </trkpt>
      <trkpt lat="41.6236930" lon="2.1214060">
        <ele>258.9</ele>
        <time>2020-07-09T11:19:08Z</time>
      </trkpt>
      <trkpt lat="41.6237040" lon="2.1214010">
        <ele>259.0</ele>
        <time>2020-07-09T11:19:09Z</time>
      </trkpt>
      <trkpt lat="41.6237150" lon="2.1213960">
        <ele>259.1</ele>
        <time>2020-07-09T11:19:10Z</time>
      </trkpt>
      <trkpt lat="41.6237260" lon="2.1213920">
        <ele>259.2</ele>
        <time>2020-07-09T11:19:11Z</time>
      </trkpt>
      <trkpt lat="41.6237370" lon="2.1213870">
        <ele>259.3</ele>
        <time>2020-07-09T11:19:12Z</time>
      </trkpt>
      <trkpt lat="41.6237480" lon="2.1213820">
        <ele>259.3</ele>
        <time>2020-07-09T11:19:13Z</time>
      </trkpt>
      <trkpt lat="41.6237590" lon="2.1213780">
        <ele>259.4</ele>
        <time>2020-07-09T11:19:14Z</time>
      </trkpt>
      <trkpt lat="41.6237700" lon="2.1213730">
        <ele>259.5</ele>
        <time>2020-07-09T11:19:15Z</time>
      </trkpt>
      <trkpt lat="41.6237800" lon="2.1213680">
        <ele>259.6</ele>
        <time>2020-07-09T11:19:16Z</time>
      </trkpt>
      <trkpt lat="41.6237910" lon="2.1213640">
        <ele>259.7</ele>
        <time>2020-07-09T11:19:17Z</time>
      </trkpt>
      <trkpt lat="41.6238020" lon="2.1213590">
        <ele>259.7</ele>
        <time>2020-07-09T11:19:18Z</time>
      </trkpt>
      <trkpt lat="41.6238130" lon="2.1213540">
        <ele>259.8</ele>
        <time>2020-07-09T11:19:19Z</time>
      </trkpt>
      <trkpt lat="41.6238240" lon="2.1213500">
        <ele>259.9</ele>
        <time>2020-07-09T11:19:20Z</time>
      </trkpt>
      <trkpt lat="41.6238350" lon="2.1213450">
        <ele>259.9</ele>
        <time>2020-07-09T11:19:21Z</time>
      </trkpt>
      <trkpt lat="41.6238460" lon="2.1213400">
        <ele>260.0</ele>
        <time>2020-07-09T11:19:22Z</time>
      </trkpt>
      <trkpt lat="41.6238570" lon="2.1213350">
        <ele>260.1</ele>
        <time>2020-07-09T11:19:23Z</time>
      </trkpt>
      <trkpt lat="41.6238680" lon="2.1213310">
        <ele>260.1</ele>
        <time>2020-07-09T11:19:24Z</time>
      </trkpt>
      <trkpt lat="41.6238790" lon="2.1213260">
        <ele>260.2</ele>
        <time>2020-07-09T11:19:25Z</time>
      </trkpt>
      <trkpt lat="41.6238890" lon="2.1213210">
        <ele>260.2</ele>
        <time>2020-07-09T11:19:26Z</time>
      </trkpt>
      <trkpt lat="41.6239000" lon="2.1213170">
        <ele>260.3</ele>
        <time>2020-07-09T11:19:27Z</time>
      </trkpt>
      <trkpt lat="41.6239110" lon="2.1213120">
        <ele>260.3</ele>
        <time>2020-07-09T11:19:28Z</time>
      </trkpt>
      <trkpt lat="41.6239220" lon="2.1213070">
        <ele>260.4</ele>
        <time>2020-07-09T11:19:29Z</time>
      </trkpt>
      <trkpt lat="41.6239330" lon="2.1213030">
        <ele>260.4</ele>
        <time>2020-07-09T11:19:30Z</time>
      </trkpt>
      <trkpt lat="41.6239440" lon="2.1212980">
        <ele>260.4</ele>
        <time>2020-07-09T11:19:31Z</time>
      </trkpt>
      <trkpt lat="41.6239550" lon="2.1212930">
        <ele>260.6</ele>
        <time>2020-07-09T11:19:32Z</time>
      </trkpt>
      <trkpt lat="41.6239660" lon="2.1212890">
        <ele>260.7</ele>
        <time>2020-07-09T11:19:33Z</time>
      </trkpt>
      <trkpt lat="41.6239770" lon="2.1212840">
        <ele>260.7</ele>
        <time>2020-07-09T11:19:34Z</time>
      </trkpt>
      <trkpt lat="41.6239880" lon="2.1212790">
        <ele>260.8</ele>
        <time>2020-07-09T11:19:35Z</time>
      </trkpt>
      <trkpt lat="41.6239980" lon="2.1212750">
        <ele>260.9</ele>
        <time>2020-07-09T11:19:36Z</time>
      </trkpt>
      <trkpt lat="41.6240090" lon="2.1212700">
        <ele>260.9</ele>
        <time>2020-07-09T11:19:37Z</time>
      </trkpt>
      <trkpt lat="41.6240200" lon="2.1212650">
        <ele>261.0</ele>
        <time>2020-07-09T11:19:38Z</time>
      </trkpt>
      <trkpt lat="41.6240310" lon="2.1212610">
        <ele>261.0</ele>
        <time>2020-07-09T11:19:39Z</time>
      </trkpt>
      <trkpt lat="41.6240420" lon="2.1212560">
        <ele>261.1</ele>
        <time>2020-07-09T11:19:40Z</time>
      </trkpt>
      <trkpt lat="41.6240510" lon="2.1212570">
        <ele>261.1</ele>
        <time>2020-07-09T11:19:41Z</time>
      </trkpt>
      <trkpt lat="41.6240610" lon="2.1212560">
        <ele>261.2</ele>
        <time>2020-07-09T11:19:42Z</time>
      </trkpt>
      <trkpt lat="41.6240710" lon="2.1212540">
        <ele>261.2</ele>
        <time>2020-07-09T11:19:43Z</time>
      </trkpt>
      <trkpt lat="41.6240820" lon="2.1212520">
        <ele>261.3</ele>
        <time>2020-07-09T11:19:44Z</time>
      </trkpt>
      <trkpt lat="41.6240930" lon="2.1212480">
        <ele>261.3</ele>
        <time>2020-07-09T11:19:45Z</time>
      </trkpt>
      <trkpt lat="41.6241040" lon="2.1212440">
        <ele>261.4</ele>
        <time>2020-07-09T11:19:46Z</time>
      </trkpt>
      <trkpt lat="41.6241160" lon="2.1212390">
        <ele>261.4</ele>
        <time>2020-07-09T11:19:47Z</time>
      </trkpt>
      <trkpt lat="41.6241290" lon="2.1212350">
        <ele>261.5</ele>
        <time>2020-07-09T11:19:48Z</time>
      </trkpt>
      <trkpt lat="41.6241410" lon="2.1212300">
        <ele>261.5</ele>
        <time>2020-07-09T11:19:49Z</time>
      </trkpt>
      <trkpt lat="41.6241540" lon="2.1212250">
        <ele>261.6</ele>
        <time>2020-07-09T11:19:50Z</time>
      </trkpt>
      <trkpt lat="41.6241680" lon="2.1212210">
        <ele>261.7</ele>
        <time>2020-07-09T11:19:51Z</time>
      </trkpt>
      <trkpt lat="41.6241820" lon="2.1212170">
        <ele>261.7</ele>
        <time>2020-07-09T11:19:52Z</time>
      </trkpt>
      <trkpt lat="41.6241960" lon="2.1212140">
        <ele>261.8</ele>
        <time>2020-07-09T11:19:53Z</time>
      </trkpt>
      <trkpt lat="41.6242100" lon="2.1212100">
        <ele>261.8</ele>
        <time>2020-07-09T11:19:54Z</time>
      </trkpt>
      <trkpt lat="41.6242250" lon="2.1212070">
        <ele>261.9</ele>
        <time>2020-07-09T11:19:55Z</time>
      </trkpt>
      <trkpt lat="41.6242400" lon="2.1212050">
        <ele>261.9</ele>
        <time>2020-07-09T11:19:56Z</time>
      </trkpt>
      <trkpt lat="41.6242550" lon="2.1212020">
        <ele>262.0</ele>
        <time>2020-07-09T11:19:57Z</time>
      </trkpt>
      <trkpt lat="41.6242700" lon="2.1212000">
        <ele>262.1</ele>
        <time>2020-07-09T11:19:58Z</time>
      </trkpt>
      <trkpt lat="41.6242850" lon="2.1211980">
        <ele>262.1</ele>
        <time>2020-07-09T11:19:59Z</time>
      </trkpt>
      <trkpt lat="41.6243000" lon="2.1211950">
        <ele>262.2</ele>
        <time>2020-07-09T11:20:00Z</time>
      </trkpt>
      <trkpt lat="41.6243160" lon="2.1211930">
        <ele>262.2</ele>
        <time>2020-07-09T11:20:01Z</time>
      </trkpt>
      <trkpt lat="41.6243310" lon="2.1211920">
        <ele>262.3</ele>
        <time>2020-07-09T11:20:02Z</time>
      </trkpt>
      <trkpt lat="41.6243470" lon="2.1211900">
        <ele>262.4</ele>
        <time>2020-07-09T11:20:03Z</time>
      </trkpt>
      <trkpt lat="41.6243620" lon="2.1211880">
        <ele>262.4</ele>
        <time>2020-07-09T11:20:04Z</time>
      </trkpt>
      <trkpt lat="41.6243770" lon="2.1211860">
        <ele>262.5</ele>
        <time>2020-07-09T11:20:05Z</time>
      </trkpt>
      <trkpt lat="41.6243920" lon="2.1211840">
        <ele>262.5</ele>
        <time>2020-07-09T11:20:06Z</time>
      </trkpt>
      <trkpt lat="41.6244070" lon="2.1211820">
        <ele>262.6</ele>
        <time>2020-07-09T11:20:07Z</time>
      </trkpt>
      <trkpt lat="41.6244220" lon="2.1211800">
        <ele>262.6</ele>
        <time>2020-07-09T11:20:08Z</time>
      </trkpt>
      <trkpt lat="41.6244360" lon="2.1211780">
        <ele>262.7</ele>
        <time>2020-07-09T11:20:09Z</time>
      </trkpt>
      <trkpt lat="41.6244510" lon="2.1211760">
        <ele>262.7</ele>
        <time>2020-07-09T11:20:10Z</time>
      </trkpt>
      <trkpt lat="41.6244650" lon="2.1211740">
        <ele>262.8</ele>
        <time>2020-07-09T11:20:11Z</time>
      </trkpt>
      <trkpt lat="41.6244790" lon="2.1211720">
        <ele>262.8</ele>
        <time>2020-07-09T11:20:12Z</time>
      </trkpt>
      <trkpt lat="41.6244930" lon="2.1211700">
        <ele>262.9</ele>
        <time>2020-07-09T11:20:13Z</time>
      </trkpt>
      <trkpt lat="41.6245060" lon="2.1211680">
        <ele>262.9</ele>
        <time>2020-07-09T11:20:14Z</time>
      </trkpt>
      <trkpt lat="41.6245200" lon="2.1211650">
        <ele>263.0</ele>
        <time>2020-07-09T11:20:15Z</time>
      </trkpt>
      <trkpt lat="41.6245340" lon="2.1211630">
        <ele>263.1</ele>
        <time>2020-07-09T11:20:16Z</time>
      </trkpt>
      <trkpt lat="41.6245470" lon="2.1211610">
        <ele>263.1</ele>
        <time>2020-07-09T11:20:17Z</time>
      </trkpt>
      <trkpt lat="41.6245610" lon="2.1211600">
        <ele>263.2</ele>
        <time>2020-07-09T11:20:18Z</time>
      </trkpt>
      <trkpt lat="41.6245740" lon="2.1211580">
        <ele>263.2</ele>
        <time>2020-07-09T11:20:19Z</time>
      </trkpt>
      <trkpt lat="41.6245880" lon="2.1211570">
        <ele>263.3</ele>
        <time>2020-07-09T11:20:20Z</time>
      </trkpt>
      <trkpt lat="41.6246020" lon="2.1211550">
        <ele>263.3</ele>
        <time>2020-07-09T11:20:21Z</time>
      </trkpt>
      <trkpt lat="41.6246160" lon="2.1211540">
        <ele>263.4</ele>
        <time>2020-07-09T11:20:22Z</time>
      </trkpt>
      <trkpt lat="41.6246300" lon="2.1211540">
        <ele>263.4</ele>
        <time>2020-07-09T11:20:23Z</time>
      </trkpt>
      <trkpt lat="41.6246440" lon="2.1211530">
        <ele>263.5</ele>
        <time>2020-07-09T11:20:24Z</time>
      </trkpt>
      <trkpt lat="41.6246580" lon="2.1211530">
        <ele>263.5</ele>
        <time>2020-07-09T11:20:25Z</time>
      </trkpt>
      <trkpt lat="41.6246730" lon="2.1211530">
        <ele>263.6</ele>
        <time>2020-07-09T11:20:26Z</time>
      </trkpt>
      <trkpt lat="41.6246880" lon="2.1211540">
        <ele>263.7</ele>
        <time>2020-07-09T11:20:27Z</time>
      </trkpt>
      <trkpt lat="41.6247020" lon="2.1211550">
        <ele>263.7</ele>
        <time>2020-07-09T11:20:28Z</time>
      </trkpt>
      <trkpt lat="41.6247180" lon="2.1211560">
        <ele>263.8</ele>
        <time>2020-07-09T11:20:29Z</time>
      </trkpt>
      <trkpt lat="41.6247330" lon="2.1211570">
        <ele>263.9</ele>
        <time>2020-07-09T11:20:30Z</time>
      </trkpt>
      <trkpt lat="41.6247470" lon="2.1211590">
        <ele>264.0</ele>
        <time>2020-07-09T11:20:31Z</time>
      </trkpt>
      <trkpt lat="41.6247620" lon="2.1211600">
        <ele>264.0</ele>
        <time>2020-07-09T11:20:32Z</time>
      </trkpt>
      <trkpt lat="41.6247760" lon="2.1211610">
        <ele>264.1</ele>
        <time>2020-07-09T11:20:33Z</time>
      </trkpt>
      <trkpt lat="41.6247900" lon="2.1211620">
        <ele>264.2</ele>
        <time>2020-07-09T11:20:34Z</time>
      </trkpt>
      <trkpt lat="41.6248040" lon="2.1211630">
        <ele>264.2</ele>
        <time>2020-07-09T11:20:35Z</time>
      </trkpt>
      <trkpt lat="41.6248160" lon="2.1211640">
        <ele>264.3</ele>
        <time>2020-07-09T11:20:36Z</time>
      </trkpt>
      <trkpt lat="41.6248290" lon="2.1211640">
        <ele>264.4</ele>
        <time>2020-07-09T11:20:37Z</time>
      </trkpt>
      <trkpt lat="41.6248410" lon="2.1211640">
        <ele>264.4</ele>
        <time>2020-07-09T11:20:38Z</time>
      </trkpt>
      <trkpt lat="41.6248520" lon="2.1211640">
        <ele>264.5</ele>
        <time>2020-07-09T11:20:39Z</time>
      </trkpt>
      <trkpt lat="41.6248640" lon="2.1211640">
        <ele>264.5</ele>
        <time>2020-07-09T11:20:40Z</time>
      </trkpt>
      <trkpt lat="41.6248750" lon="2.1211640">
        <ele>264.6</ele>
        <time>2020-07-09T11:20:41Z</time>
      </trkpt>
      <trkpt lat="41.6248870" lon="2.1211630">
        <ele>264.6</ele>
        <time>2020-07-09T11:20:42Z</time>
      </trkpt>
      <trkpt lat="41.6248980" lon="2.1211630">
        <ele>264.7</ele>
        <time>2020-07-09T11:20:43Z</time>
      </trkpt>
      <trkpt lat="41.6249100" lon="2.1211620">
        <ele>264.7</ele>
        <time>2020-07-09T11:20:44Z</time>
      </trkpt>
      <trkpt lat="41.6249220" lon="2.1211610">
        <ele>264.8</ele>
        <time>2020-07-09T11:20:45Z</time>
      </trkpt>
      <trkpt lat="41.6249350" lon="2.1211600">
        <ele>265.0</ele>
        <time>2020-07-09T11:20:46Z</time>
      </trkpt>
      <trkpt lat="41.6249580" lon="2.1211590">
        <ele>265.1</ele>
        <time>2020-07-09T11:20:47Z</time>
      </trkpt>
      <trkpt lat="41.6249690" lon="2.1211580">
        <ele>265.1</ele>
        <time>2020-07-09T11:20:48Z</time>
      </trkpt>
      <trkpt lat="41.6249800" lon="2.1211570">
        <ele>265.1</ele>
        <time>2020-07-09T11:20:49Z</time>
      </trkpt>
      <trkpt lat="41.6249910" lon="2.1211550">
        <ele>265.2</ele>
        <time>2020-07-09T11:20:50Z</time>
      </trkpt>
      <trkpt lat="41.6250020" lon="2.1211540">
        <ele>265.2</ele>
        <time>2020-07-09T11:20:51Z</time>
      </trkpt>
      <trkpt lat="41.6250130" lon="2.1211530">
        <ele>265.3</ele>
        <time>2020-07-09T11:20:52Z</time>
      </trkpt>
      <trkpt lat="41.6250240" lon="2.1211520">
        <ele>265.3</ele>
        <time>2020-07-09T11:20:53Z</time>
      </trkpt>
      <trkpt lat="41.6250360" lon="2.1211500">
        <ele>265.4</ele>
        <time>2020-07-09T11:20:54Z</time>
      </trkpt>
      <trkpt lat="41.6250470" lon="2.1211480">
        <ele>265.4</ele>
        <time>2020-07-09T11:20:55Z</time>
      </trkpt>
      <trkpt lat="41.6250580" lon="2.1211470">
        <ele>265.4</ele>
        <time>2020-07-09T11:20:56Z</time>
      </trkpt>
      <trkpt lat="41.6250680" lon="2.1211460">
        <ele>265.5</ele>
        <time>2020-07-09T11:20:57Z</time>
      </trkpt>
      <trkpt lat="41.6250760" lon="2.1211450">
        <ele>265.5</ele>
        <time>2020-07-09T11:20:58Z</time>
      </trkpt>
      <trkpt lat="41.6250840" lon="2.1211450">
        <ele>265.5</ele>
        <time>2020-07-09T11:20:59Z</time>
      </trkpt>
      <trkpt lat="41.6250900" lon="2.1211470">
        <ele>265.6</ele>
        <time>2020-07-09T11:21:00Z</time>
      </trkpt>
      <trkpt lat="41.6250940" lon="2.1211490">
        <ele>265.6</ele>
        <time>2020-07-09T11:21:01Z</time>
      </trkpt>
      <trkpt lat="41.6250960" lon="2.1211530">
        <ele>265.6</ele>
        <time>2020-07-09T11:21:02Z</time>
      </trkpt>
      <trkpt lat="41.6250970" lon="2.1211570">
        <ele>265.6</ele>
        <time>2020-07-09T11:21:03Z</time>
      </trkpt>
      <trkpt lat="41.6250950" lon="2.1211630">
        <ele>265.6</ele>
        <time>2020-07-09T11:21:04Z</time>
      </trkpt>
      <trkpt lat="41.6250930" lon="2.1211690">
        <ele>265.6</ele>
        <time>2020-07-09T11:21:05Z</time>
      </trkpt>
      <trkpt lat="41.6250880" lon="2.1211750">
        <ele>265.7</ele>
        <time>2020-07-09T11:21:06Z</time>
      </trkpt>
      <trkpt lat="41.6250830" lon="2.1211810">
        <ele>265.7</ele>
        <time>2020-07-09T11:21:07Z</time>
      </trkpt>
      <trkpt lat="41.6250760" lon="2.1211860">
        <ele>265.7</ele>
        <time>2020-07-09T11:21:08Z</time>
      </trkpt>
      <trkpt lat="41.6250670" lon="2.1211910">
        <ele>265.7</ele>
        <time>2020-07-09T11:21:09Z</time>
      </trkpt>
      <trkpt lat="41.6250580" lon="2.1211940">
        <ele>265.8</ele>
        <time>2020-07-09T11:21:10Z</time>
      </trkpt>
      <trkpt lat="41.6250480" lon="2.1211960">
        <ele>265.8</ele>
        <time>2020-07-09T11:21:11Z</time>
      </trkpt>
      <trkpt lat="41.6250370" lon="2.1211970">
        <ele>265.8</ele>
        <time>2020-07-09T11:21:12Z</time>
      </trkpt>
      <trkpt lat="41.6250250" lon="2.1211970">
        <ele>265.9</ele>
        <time>2020-07-09T11:21:13Z</time>
      </trkpt>
      <trkpt lat="41.6250130" lon="2.1211960">
        <ele>265.9</ele>
        <time>2020-07-09T11:21:14Z</time>
      </trkpt>
      <trkpt lat="41.6250000" lon="2.1211940">
        <ele>266.0</ele>
        <time>2020-07-09T11:21:15Z</time>
      </trkpt>
      <trkpt lat="41.6249880" lon="2.1211920">
        <ele>266.0</ele>
        <time>2020-07-09T11:21:16Z</time>
      </trkpt>
      <trkpt lat="41.6249750" lon="2.1211900">
        <ele>266.0</ele>
        <time>2020-07-09T11:21:17Z</time>
      </trkpt>
      <trkpt lat="41.6249610" lon="2.1211880">
        <ele>266.1</ele>
        <time>2020-07-09T11:21:18Z</time>
      </trkpt>
      <trkpt lat="41.6249490" lon="2.1211870">
        <ele>266.1</ele>
        <time>2020-07-09T11:21:19Z</time>
      </trkpt>
      <trkpt lat="41.6249360" lon="2.1211860">
        <ele>266.2</ele>
        <time>2020-07-09T11:21:20Z</time>
      </trkpt>
      <trkpt lat="41.6249250" lon="2.1211850">
        <ele>266.2</ele>
        <time>2020-07-09T11:21:21Z</time>
      </trkpt>
      <trkpt lat="41.6249150" lon="2.1211840">
        <ele>266.2</ele>
        <time>2020-07-09T11:21:22Z</time>
      </trkpt>
      <trkpt lat="41.6249090" lon="2.1211830">
        <ele>266.3</ele>
        <time>2020-07-09T11:21:23Z</time>
      </trkpt>
      <trkpt lat="41.6249070" lon="2.1211800">
        <ele>266.3</ele>
        <time>2020-07-09T11:21:24Z</time>
      </trkpt>
      <trkpt lat="41.6249090" lon="2.1211760">
        <ele>266.3</ele>
        <time>2020-07-09T11:21:25Z</time>
      </trkpt>
      <trkpt lat="41.6249150" lon="2.1211710">
        <ele>266.3</ele>
        <time>2020-07-09T11:21:26Z</time>
      </trkpt>
      <trkpt lat="41.6249230" lon="2.1211670">
        <ele>266.3</ele>
        <time>2020-07-09T11:21:27Z</time>
      </trkpt>
      <trkpt lat="41.6249330" lon="2.1211640">
        <ele>266.4</ele>
        <time>2020-07-09T11:21:28Z</time>
      </trkpt>
      <trkpt lat="41.6249440" lon="2.1211620">
        <ele>266.4</ele>
        <time>2020-07-09T11:21:29Z</time>
      </trkpt>
      <trkpt lat="41.6249560" lon="2.1211620">
        <ele>266.4</ele>
        <time>2020-07-09T11:21:30Z</time>
      </trkpt>
      <trkpt lat="41.6249670" lon="2.1211630">
        <ele>266.5</ele>
        <time>2020-07-09T11:21:31Z</time>
      </trkpt>
      <trkpt lat="41.6249800" lon="2.1211650">
        <ele>266.5</ele>
        <time>2020-07-09T11:21:32Z</time>
      </trkpt>
      <trkpt lat="41.6249920" lon="2.1211680">
        <ele>266.5</ele>
        <time>2020-07-09T11:21:33Z</time>
      </trkpt>
      <trkpt lat="41.6250050" lon="2.1211710">
        <ele>266.6</ele>
        <time>2020-07-09T11:21:34Z</time>
      </trkpt>
      <trkpt lat="41.6250180" lon="2.1211740">
        <ele>266.6</ele>
        <time>2020-07-09T11:21:35Z</time>
      </trkpt>
      <trkpt lat="41.6250310" lon="2.1211770">
        <ele>266.7</ele>
        <time>2020-07-09T11:21:36Z</time>
      </trkpt>
      <trkpt lat="41.6250440" lon="2.1211790">
        <ele>266.7</ele>
        <time>2020-07-09T11:21:37Z</time>
      </trkpt>
      <trkpt lat="41.6250570" lon="2.1211800">
        <ele>266.8</ele>
        <time>2020-07-09T11:21:38Z</time>
      </trkpt>
      <trkpt lat="41.6250700" lon="2.1211810">
        <ele>266.8</ele>
        <time>2020-07-09T11:21:39Z</time>
      </trkpt>
      <trkpt lat="41.6250830" lon="2.1211810">
        <ele>266.8</ele>
        <time>2020-07-09T11:21:40Z</time>
      </trkpt>
      <trkpt lat="41.6250960" lon="2.1211800">
        <ele>266.9</ele>
        <time>2020-07-09T11:21:41Z</time>
      </trkpt>
      <trkpt lat="41.6251090" lon="2.1211780">
        <ele>266.9</ele>
        <time>2020-07-09T11:21:42Z</time>
      </trkpt>
      <trkpt lat="41.6251220" lon="2.1211760">
        <ele>267.0</ele>
        <time>2020-07-09T11:21:43Z</time>
      </trkpt>
      <trkpt lat="41.6251350" lon="2.1211740">
        <ele>267.0</ele>
        <time>2020-07-09T11:21:44Z</time>
      </trkpt>
      <trkpt lat="41.6251480" lon="2.1211720">
        <ele>267.0</ele>
        <time>2020-07-09T11:21:45Z</time>
      </trkpt>
      <trkpt lat="41.6251610" lon="2.1211690">
        <ele>267.1</ele>
        <time>2020-07-09T11:21:46Z</time>
      </trkpt>
      <trkpt lat="41.6251740" lon="2.1211660">
        <ele>267.1</ele>
        <time>2020-07-09T11:21:47Z</time>
      </trkpt>
      <trkpt lat="41.6251880" lon="2.1211640">
        <ele>267.2</ele>
        <time>2020-07-09T11:21:48Z</time>
      </trkpt>
      <trkpt lat="41.6252010" lon="2.1211610">
        <ele>267.2</ele>
        <time>2020-07-09T11:21:49Z</time>
      </trkpt>
      <trkpt lat="41.6252140" lon="2.1211580">
        <ele>267.3</ele>
        <time>2020-07-09T11:21:50Z</time>
      </trkpt>
      <trkpt lat="41.6252270" lon="2.1211560">
        <ele>267.3</ele>
        <time>2020-07-09T11:21:51Z</time>
      </trkpt>
      <trkpt lat="41.6252410" lon="2.1211540">
        <ele>267.3</ele>
        <time>2020-07-09T11:21:52Z</time>
      </trkpt>
      <trkpt lat="41.6252540" lon="2.1211530">
        <ele>267.4</ele>
        <time>2020-07-09T11:21:53Z</time>
      </trkpt>
      <trkpt lat="41.6252680" lon="2.1211520">
        <ele>267.4</ele>
        <time>2020-07-09T11:21:54Z</time>
      </trkpt>
      <trkpt lat="41.6252810" lon="2.1211520">
        <ele>267.5</ele>
        <time>2020-07-09T11:21:55Z</time>
      </trkpt>
      <trkpt lat="41.6252950" lon="2.1211520">
        <ele>267.5</ele>
        <time>2020-07-09T11:21:56Z</time>
      </trkpt>
      <trkpt lat="41.6253090" lon="2.1211530">
        <ele>267.6</ele>
        <time>2020-07-09T11:21:57Z</time>
      </trkpt>
      <trkpt lat="41.6253230" lon="2.1211550">
        <ele>267.6</ele>
        <time>2020-07-09T11:21:58Z</time>
      </trkpt>
      <trkpt lat="41.6253370" lon="2.1211570">
        <ele>267.6</ele>
        <time>2020-07-09T11:21:59Z</time>
      </trkpt>
      <trkpt lat="41.6253510" lon="2.1211590">
        <ele>267.7</ele>
        <time>2020-07-09T11:22:00Z</time>
      </trkpt>
      <trkpt lat="41.6253650" lon="2.1211620">
        <ele>267.7</ele>
        <time>2020-07-09T11:22:01Z</time>
      </trkpt>
      <trkpt lat="41.6253790" lon="2.1211640">
        <ele>267.8</ele>
        <time>2020-07-09T11:22:02Z</time>
      </trkpt>
      <trkpt lat="41.6253930" lon="2.1211670">
        <ele>267.8</ele>
        <time>2020-07-09T11:22:03Z</time>
      </trkpt>
      <trkpt lat="41.6254070" lon="2.1211690">
        <ele>267.9</ele>
        <time>2020-07-09T11:22:04Z</time>
      </trkpt>
      <trkpt lat="41.6254210" lon="2.1211720">
        <ele>267.9</ele>
        <time>2020-07-09T11:22:05Z</time>
      </trkpt>
      <trkpt lat="41.6254350" lon="2.1211740">
        <ele>268.0</ele>
        <time>2020-07-09T11:22:06Z</time>
      </trkpt>
      <trkpt lat="41.6254490" lon="2.1211750">
        <ele>268.0</ele>
        <time>2020-07-09T11:22:07Z</time>
      </trkpt>
      <trkpt lat="41.6254630" lon="2.1211760">
        <ele>268.1</ele>
        <time>2020-07-09T11:22:08Z</time>
      </trkpt>
      <trkpt lat="41.6254770" lon="2.1211770">
        <ele>268.1</ele>
        <time>2020-07-09T11:22:09Z</time>
      </trkpt>
      <trkpt lat="41.6254900" lon="2.1211760">
        <ele>268.2</ele>
        <time>2020-07-09T11:22:10Z</time>
      </trkpt>
      <trkpt lat="41.6255040" lon="2.1211750">
        <ele>268.2</ele>
        <time>2020-07-09T11:22:11Z</time>
      </trkpt>
      <trkpt lat="41.6255180" lon="2.1211730">
        <ele>268.3</ele>
        <time>2020-07-09T11:22:12Z</time>
      </trkpt>
      <trkpt lat="41.6255310" lon="2.1211700">
        <ele>268.3</ele>
        <time>2020-07-09T11:22:13Z</time>
      </trkpt>
      <trkpt lat="41.6255450" lon="2.1211660">
        <ele>268.4</ele>
        <time>2020-07-09T11:22:14Z</time>
      </trkpt>
      <trkpt lat="41.6255580" lon="2.1211610">
        <ele>268.4</ele>
        <time>2020-07-09T11:22:15Z</time>
      </trkpt>
      <trkpt lat="41.6255710" lon="2.1211550">
        <ele>268.5</ele>
        <time>2020-07-09T11:22:16Z</time>
      </trkpt>
      <trkpt lat="41.6255840" lon="2.1211480">
        <ele>268.5</ele>
        <time>2020-07-09T11:22:17Z</time>
      </trkpt>
      <trkpt lat="41.6255960" lon="2.1211410">
        <ele>268.6</ele>
        <time>2020-07-09T11:22:18Z</time>
      </trkpt>
      <trkpt lat="41.6256090" lon="2.1211330">
        <ele>268.6</ele>
        <time>2020-07-09T11:22:19Z</time>
      </trkpt>
      <trkpt lat="41.6256210" lon="2.1211240">
        <ele>268.7</ele>
        <time>2020-07-09T11:22:20Z</time>
      </trkpt>
      <trkpt lat="41.6256320" lon="2.1211140">
        <ele>268.7</ele>
        <time>2020-07-09T11:22:21Z</time>
      </trkpt>
      <trkpt lat="41.6256440" lon="2.1211040">
        <ele>268.8</ele>
        <time>2020-07-09T11:22:22Z</time>
      </trkpt>
      <trkpt lat="41.6256540" lon="2.1210930">
        <ele>268.8</ele>
        <time>2020-07-09T11:22:23Z</time>
      </trkpt>
      <trkpt lat="41.6256650" lon="2.1210820">
        <ele>268.8</ele>
        <time>2020-07-09T11:22:24Z</time>
      </trkpt>
      <trkpt lat="41.6256750" lon="2.1210700">
        <ele>268.9</ele>
        <time>2020-07-09T11:22:25Z</time>
      </trkpt>
      <trkpt lat="41.6256840" lon="2.1210580">
        <ele>268.9</ele>
        <time>2020-07-09T11:22:26Z</time>
      </trkpt>
      <trkpt lat="41.6256930" lon="2.1210460">
        <ele>269.0</ele>
        <time>2020-07-09T11:22:27Z</time>
      </trkpt>
      <trkpt lat="41.6257020" lon="2.1210330">
        <ele>269.0</ele>
        <time>2020-07-09T11:22:28Z</time>
      </trkpt>
      <trkpt lat="41.6257100" lon="2.1210200">
        <ele>269.1</ele>
        <time>2020-07-09T11:22:29Z</time>
      </trkpt>
      <trkpt lat="41.6257170" lon="2.1210070">
        <ele>269.1</ele>
        <time>2020-07-09T11:22:30Z</time>
      </trkpt>
      <trkpt lat="41.6257240" lon="2.1209940">
        <ele>269.1</ele>
        <time>2020-07-09T11:22:31Z</time>
      </trkpt>
      <trkpt lat="41.6257300" lon="2.1209800">
        <ele>269.3</ele>
        <time>2020-07-09T11:22:32Z</time>
      </trkpt>
      <trkpt lat="41.6257370" lon="2.1209670">
        <ele>269.3</ele>
        <time>2020-07-09T11:22:33Z</time>
      </trkpt>
      <trkpt lat="41.6257430" lon="2.1209550">
        <ele>269.4</ele>
        <time>2020-07-09T11:22:34Z</time>
      </trkpt>
      <trkpt lat="41.6257510" lon="2.1209430">
        <ele>269.4</ele>
        <time>2020-07-09T11:22:35Z</time>
      </trkpt>
      <trkpt lat="41.6257580" lon="2.1209320">
        <ele>269.5</ele>
        <time>2020-07-09T11:22:36Z</time>
      </trkpt>
      <trkpt lat="41.6257660" lon="2.1209210">
        <ele>269.5</ele>
        <time>2020-07-09T11:22:37Z</time>
      </trkpt>
      <trkpt lat="41.6257740" lon="2.1209130">
        <ele>269.5</ele>
        <time>2020-07-09T11:22:38Z</time>
      </trkpt>
      <trkpt lat="41.6257800" lon="2.1209050">
        <ele>269.6</ele>
        <time>2020-07-09T11:22:39Z</time>
      </trkpt>
      <trkpt lat="41.6257840" lon="2.1209000">
        <ele>269.6</ele>
        <time>2020-07-09T11:22:40Z</time>
      </trkpt>
      <trkpt lat="41.6257860" lon="2.1208960">
        <ele>269.6</ele>
        <time>2020-07-09T11:22:41Z</time>
      </trkpt>
      <trkpt lat="41.6257860" lon="2.1208930">
        <ele>269.6</ele>
        <time>2020-07-09T11:22:42Z</time>
      </trkpt>
      <trkpt lat="41.6257860" lon="2.1208920">
        <ele>269.6</ele>
        <time>2020-07-09T11:22:43Z</time>
      </trkpt>
      <trkpt lat="41.6257860" lon="2.1208920">
        <ele>269.6</ele>
        <time>2020-07-09T11:22:44Z</time>
      </trkpt>
      <trkpt lat="41.6257850" lon="2.1208930">
        <ele>269.6</ele>
        <time>2020-07-09T11:22:45Z</time>
      </trkpt>
      <trkpt lat="41.6257850" lon="2.1208940">
        <ele>269.6</ele>
        <time>2020-07-09T11:22:46Z</time>
      </trkpt>
      <trkpt lat="41.6257860" lon="2.1208960">
        <ele>269.6</ele>
        <time>2020-07-09T11:22:47Z</time>
      </trkpt>
      <trkpt lat="41.6257880" lon="2.1208990">
        <ele>269.6</ele>
        <time>2020-07-09T11:22:48Z</time>
      </trkpt>
      <trkpt lat="41.6257910" lon="2.1209010">
        <ele>269.7</ele>
        <time>2020-07-09T11:22:49Z</time>
      </trkpt>
      <trkpt lat="41.6257970" lon="2.1209040">
        <ele>269.7</ele>
        <time>2020-07-09T11:22:50Z</time>
      </trkpt>
      <trkpt lat="41.6258030" lon="2.1209070">
        <ele>269.7</ele>
        <time>2020-07-09T11:22:51Z</time>
      </trkpt>
      <trkpt lat="41.6258110" lon="2.1209100">
        <ele>269.7</ele>
        <time>2020-07-09T11:22:52Z</time>
      </trkpt>
      <trkpt lat="41.6258200" lon="2.1209120">
        <ele>269.8</ele>
        <time>2020-07-09T11:22:53Z</time>
      </trkpt>
      <trkpt lat="41.6258300" lon="2.1209150">
        <ele>269.8</ele>
        <time>2020-07-09T11:22:54Z</time>
      </trkpt>
      <trkpt lat="41.6258400" lon="2.1209180">
        <ele>269.9</ele>
        <time>2020-07-09T11:22:55Z</time>
      </trkpt>
      <trkpt lat="41.6258510" lon="2.1209220">
        <ele>269.9</ele>
        <time>2020-07-09T11:22:56Z</time>
      </trkpt>
      <trkpt lat="41.6258620" lon="2.1209250">
        <ele>270.0</ele>
        <time>2020-07-09T11:22:57Z</time>
      </trkpt>
      <trkpt lat="41.6258730" lon="2.1209280">
        <ele>270.0</ele>
        <time>2020-07-09T11:22:58Z</time>
      </trkpt>
      <trkpt lat="41.6258840" lon="2.1209310">
        <ele>270.1</ele>
        <time>2020-07-09T11:22:59Z</time>
      </trkpt>
      <trkpt lat="41.6258960" lon="2.1209340">
        <ele>270.2</ele>
        <time>2020-07-09T11:23:00Z</time>
      </trkpt>
      <trkpt lat="41.6259070" lon="2.1209370">
        <ele>270.2</ele>
        <time>2020-07-09T11:23:01Z</time>
      </trkpt>
      <trkpt lat="41.6259190" lon="2.1209400">
        <ele>270.3</ele>
        <time>2020-07-09T11:23:02Z</time>
      </trkpt>
      <trkpt lat="41.6259310" lon="2.1209440">
        <ele>270.4</ele>
        <time>2020-07-09T11:23:03Z</time>
      </trkpt>
      <trkpt lat="41.6259420" lon="2.1209470">
        <ele>270.5</ele>
        <time>2020-07-09T11:23:04Z</time>
      </trkpt>
      <trkpt lat="41.6259540" lon="2.1209510">
        <ele>270.6</ele>
        <time>2020-07-09T11:23:05Z</time>
      </trkpt>
      <trkpt lat="41.6259660" lon="2.1209540">
        <ele>270.6</ele>
        <time>2020-07-09T11:23:06Z</time>
      </trkpt>
      <trkpt lat="41.6259790" lon="2.1209580">
        <ele>270.7</ele>
        <time>2020-07-09T11:23:07Z</time>
      </trkpt>
      <trkpt lat="41.6259910" lon="2.1209620">
        <ele>270.8</ele>
        <time>2020-07-09T11:23:08Z</time>
      </trkpt>
      <trkpt lat="41.6260030" lon="2.1209650">
        <ele>270.9</ele>
        <time>2020-07-09T11:23:09Z</time>
      </trkpt>
      <trkpt lat="41.6260150" lon="2.1209690">
        <ele>271.0</ele>
        <time>2020-07-09T11:23:10Z</time>
      </trkpt>
      <trkpt lat="41.6260280" lon="2.1209730">
        <ele>271.1</ele>
        <time>2020-07-09T11:23:11Z</time>
      </trkpt>
      <trkpt lat="41.6260400" lon="2.1209770">
        <ele>271.2</ele>
        <time>2020-07-09T11:23:12Z</time>
      </trkpt>
      <trkpt lat="41.6260530" lon="2.1209800">
        <ele>271.4</ele>
        <time>2020-07-09T11:23:13Z</time>
      </trkpt>
      <trkpt lat="41.6260650" lon="2.1209840">
        <ele>271.5</ele>
        <time>2020-07-09T11:23:14Z</time>
      </trkpt>
      <trkpt lat="41.6260780" lon="2.1209870">
        <ele>271.6</ele>
        <time>2020-07-09T11:23:15Z</time>
      </trkpt>
      <trkpt lat="41.6260910" lon="2.1209900">
        <ele>271.7</ele>
        <time>2020-07-09T11:23:16Z</time>
      </trkpt>
      <trkpt lat="41.6261040" lon="2.1209930">
        <ele>271.8</ele>
        <time>2020-07-09T11:23:17Z</time>
      </trkpt>
      <trkpt lat="41.6261170" lon="2.1209960">
        <ele>271.9</ele>
        <time>2020-07-09T11:23:18Z</time>
      </trkpt>
      <trkpt lat="41.6261300" lon="2.1209980">
        <ele>272.0</ele>
        <time>2020-07-09T11:23:19Z</time>
      </trkpt>
      <trkpt lat="41.6261420" lon="2.1210000">
        <ele>272.1</ele>
        <time>2020-07-09T11:23:20Z</time>
      </trkpt>
      <trkpt lat="41.6261550" lon="2.1210010">
        <ele>272.2</ele>
        <time>2020-07-09T11:23:21Z</time>
      </trkpt>
      <trkpt lat="41.6261690" lon="2.1210020">
        <ele>272.3</ele>
        <time>2020-07-09T11:23:22Z</time>
      </trkpt>
      <trkpt lat="41.6261820" lon="2.1210030">
        <ele>272.4</ele>
        <time>2020-07-09T11:23:23Z</time>
      </trkpt>
      <trkpt lat="41.6261950" lon="2.1210030">
        <ele>272.5</ele>
        <time>2020-07-09T11:23:24Z</time>
      </trkpt>
      <trkpt lat="41.6262080" lon="2.1210020">
        <ele>272.6</ele>
        <time>2020-07-09T11:23:25Z</time>
      </trkpt>
      <trkpt lat="41.6262210" lon="2.1210010">
        <ele>272.7</ele>
        <time>2020-07-09T11:23:26Z</time>
      </trkpt>
      <trkpt lat="41.6262340" lon="2.1210000">
        <ele>272.8</ele>
        <time>2020-07-09T11:23:27Z</time>
      </trkpt>
      <trkpt lat="41.6262470" lon="2.1209980">
        <ele>272.9</ele>
        <time>2020-07-09T11:23:28Z</time>
      </trkpt>
      <trkpt lat="41.6262600" lon="2.1209960">
        <ele>273.0</ele>
        <time>2020-07-09T11:23:29Z</time>
      </trkpt>
      <trkpt lat="41.6262740" lon="2.1209930">
        <ele>273.1</ele>
        <time>2020-07-09T11:23:30Z</time>
      </trkpt>
      <trkpt lat="41.6262870" lon="2.1209900">
        <ele>273.1</ele>
        <time>2020-07-09T11:23:31Z</time>
      </trkpt>
      <trkpt lat="41.6263000" lon="2.1209860">
        <ele>273.2</ele>
        <time>2020-07-09T11:23:32Z</time>
      </trkpt>
      <trkpt lat="41.6263130" lon="2.1209820">
        <ele>273.3</ele>
        <time>2020-07-09T11:23:33Z</time>
      </trkpt>
      <trkpt lat="41.6263260" lon="2.1209780">
        <ele>273.3</ele>
        <time>2020-07-09T11:23:34Z</time>
      </trkpt>
      <trkpt lat="41.6263400" lon="2.1209730">
        <ele>273.4</ele>
        <time>2020-07-09T11:23:35Z</time>
      </trkpt>
      <trkpt lat="41.6263530" lon="2.1209670">
        <ele>273.4</ele>
        <time>2020-07-09T11:23:36Z</time>
      </trkpt>
      <trkpt lat="41.6263660" lon="2.1209620">
        <ele>273.5</ele>
        <time>2020-07-09T11:23:37Z</time>
      </trkpt>
      <trkpt lat="41.6263790" lon="2.1209560">
        <ele>273.5</ele>
        <time>2020-07-09T11:23:38Z</time>
      </trkpt>
      <trkpt lat="41.6263920" lon="2.1209500">
        <ele>273.6</ele>
        <time>2020-07-09T11:23:39Z</time>
      </trkpt>
      <trkpt lat="41.6264050" lon="2.1209430">
        <ele>273.6</ele>
        <time>2020-07-09T11:23:40Z</time>
      </trkpt>
      <trkpt lat="41.6264180" lon="2.1209360">
        <ele>273.6</ele>
        <time>2020-07-09T11:23:41Z</time>
      </trkpt>
      <trkpt lat="41.6264310" lon="2.1209290">
        <ele>273.7</ele>
        <time>2020-07-09T11:23:42Z</time>
      </trkpt>
      <trkpt lat="41.6264440" lon="2.1209210">
        <ele>273.7</ele>
        <time>2020-07-09T11:23:43Z</time>
      </trkpt>
      <trkpt lat="41.6264570" lon="2.1209130">
        <ele>273.7</ele>
        <time>2020-07-09T11:23:44Z</time>
      </trkpt>
      <trkpt lat="41.6264690" lon="2.1209050">
        <ele>273.7</ele>
        <time>2020-07-09T11:23:45Z</time>
      </trkpt>
      <trkpt lat="41.6264820" lon="2.1208970">
        <ele>273.7</ele>
        <time>2020-07-09T11:23:46Z</time>
      </trkpt>
      <trkpt lat="41.6264950" lon="2.1208880">
        <ele>273.7</ele>
        <time>2020-07-09T11:23:47Z</time>
      </trkpt>
      <trkpt lat="41.6265070" lon="2.1208790">
        <ele>273.7</ele>
        <time>2020-07-09T11:23:48Z</time>
      </trkpt>
      <trkpt lat="41.6265200" lon="2.1208700">
        <ele>273.7</ele>
        <time>2020-07-09T11:23:49Z</time>
      </trkpt>
      <trkpt lat="41.6265320" lon="2.1208610">
        <ele>273.7</ele>
        <time>2020-07-09T11:23:50Z</time>
      </trkpt>
      <trkpt lat="41.6265450" lon="2.1208510">
        <ele>273.7</ele>
        <time>2020-07-09T11:23:51Z</time>
      </trkpt>
      <trkpt lat="41.6265570" lon="2.1208410">
        <ele>273.7</ele>
        <time>2020-07-09T11:23:52Z</time>
      </trkpt>
      <trkpt lat="41.6265690" lon="2.1208310">
        <ele>273.6</ele>
        <time>2020-07-09T11:23:53Z</time>
      </trkpt>
      <trkpt lat="41.6265810" lon="2.1208210">
        <ele>273.6</ele>
        <time>2020-07-09T11:23:54Z</time>
      </trkpt>
      <trkpt lat="41.6265930" lon="2.1208110">
        <ele>273.6</ele>
        <time>2020-07-09T11:23:55Z</time>
      </trkpt>
      <trkpt lat="41.6266050" lon="2.1208000">
        <ele>273.6</ele>
        <time>2020-07-09T11:23:56Z</time>
      </trkpt>
      <trkpt lat="41.6266170" lon="2.1207900">
        <ele>273.5</ele>
        <time>2020-07-09T11:23:57Z</time>
      </trkpt>
      <trkpt lat="41.6266290" lon="2.1207790">
        <ele>273.5</ele>
        <time>2020-07-09T11:23:58Z</time>
      </trkpt>
      <trkpt lat="41.6266400" lon="2.1207680">
        <ele>273.5</ele>
        <time>2020-07-09T11:23:59Z</time>
      </trkpt>
      <trkpt lat="41.6266520" lon="2.1207570">
        <ele>273.4</ele>
        <time>2020-07-09T11:24:00Z</time>
      </trkpt>
      <trkpt lat="41.6266630" lon="2.1207460">
        <ele>273.4</ele>
        <time>2020-07-09T11:24:01Z</time>
      </trkpt>
      <trkpt lat="41.6266750" lon="2.1207350">
        <ele>273.3</ele>
        <time>2020-07-09T11:24:02Z</time>
      </trkpt>
      <trkpt lat="41.6266870" lon="2.1207250">
        <ele>273.3</ele>
        <time>2020-07-09T11:24:03Z</time>
      </trkpt>
      <trkpt lat="41.6266990" lon="2.1207160">
        <ele>273.3</ele>
        <time>2020-07-09T11:24:04Z</time>
      </trkpt>
      <trkpt lat="41.6267110" lon="2.1207080">
        <ele>273.2</ele>
        <time>2020-07-09T11:24:05Z</time>
      </trkpt>
      <trkpt lat="41.6267250" lon="2.1207020">
        <ele>273.2</ele>
        <time>2020-07-09T11:24:06Z</time>
      </trkpt>
      <trkpt lat="41.6267380" lon="2.1206960">
        <ele>273.1</ele>
        <time>2020-07-09T11:24:07Z</time>
      </trkpt>
      <trkpt lat="41.6267530" lon="2.1206930">
        <ele>273.1</ele>
        <time>2020-07-09T11:24:08Z</time>
      </trkpt>
      <trkpt lat="41.6267680" lon="2.1206920">
        <ele>273.0</ele>
        <time>2020-07-09T11:24:09Z</time>
      </trkpt>
      <trkpt lat="41.6267840" lon="2.1206920">
        <ele>273.0</ele>
        <time>2020-07-09T11:24:10Z</time>
      </trkpt>
      <trkpt lat="41.6268000" lon="2.1206940">
        <ele>272.9</ele>
        <time>2020-07-09T11:24:11Z</time>
      </trkpt>
      <trkpt lat="41.6268160" lon="2.1206970">
        <ele>272.9</ele>
        <time>2020-07-09T11:24:12Z</time>
      </trkpt>
      <trkpt lat="41.6268330" lon="2.1207010">
        <ele>273.0</ele>
        <time>2020-07-09T11:24:13Z</time>
      </trkpt>
      <trkpt lat="41.6268490" lon="2.1207070">
        <ele>273.1</ele>
        <time>2020-07-09T11:24:14Z</time>
      </trkpt>
      <trkpt lat="41.6268640" lon="2.1207120">
        <ele>273.2</ele>
        <time>2020-07-09T11:24:15Z</time>
      </trkpt>
      <trkpt lat="41.6268790" lon="2.1207180">
        <ele>273.3</ele>
        <time>2020-07-09T11:24:16Z</time>
      </trkpt>
      <trkpt lat="41.6268930" lon="2.1207240">
        <ele>273.4</ele>
        <time>2020-07-09T11:24:17Z</time>
      </trkpt>
      <trkpt lat="41.6269060" lon="2.1207300">
        <ele>273.5</ele>
        <time>2020-07-09T11:24:18Z</time>
      </trkpt>
      <trkpt lat="41.6269180" lon="2.1207360">
        <ele>273.6</ele>
        <time>2020-07-09T11:24:19Z</time>
      </trkpt>
      <trkpt lat="41.6269300" lon="2.1207420">
        <ele>273.7</ele>
        <time>2020-07-09T11:24:20Z</time>
      </trkpt>
      <trkpt lat="41.6269410" lon="2.1207470">
        <ele>273.7</ele>
        <time>2020-07-09T11:24:21Z</time>
      </trkpt>
      <trkpt lat="41.6269510" lon="2.1207530">
        <ele>273.8</ele>
        <time>2020-07-09T11:24:22Z</time>
      </trkpt>
      <trkpt lat="41.6269610" lon="2.1207580">
        <ele>273.9</ele>
        <time>2020-07-09T11:24:23Z</time>
      </trkpt>
      <trkpt lat="41.6269720" lon="2.1207640">
        <ele>273.9</ele>
        <time>2020-07-09T11:24:24Z</time>
      </trkpt>
      <trkpt lat="41.6269830" lon="2.1207690">
        <ele>274.0</ele>
        <time>2020-07-09T11:24:25Z</time>
      </trkpt>
      <trkpt lat="41.6269940" lon="2.1207740">
        <ele>274.0</ele>
        <time>2020-07-09T11:24:26Z</time>
      </trkpt>
      <trkpt lat="41.6270060" lon="2.1207800">
        <ele>274.1</ele>
        <time>2020-07-09T11:24:27Z</time>
      </trkpt>
      <trkpt lat="41.6270180" lon="2.1207850">
        <ele>274.1</ele>
        <time>2020-07-09T11:24:28Z</time>
      </trkpt>
      <trkpt lat="41.6270310" lon="2.1207910">
        <ele>274.2</ele>
        <time>2020-07-09T11:24:29Z</time>
      </trkpt>
      <trkpt lat="41.6270440" lon="2.1207960">
        <ele>274.3</ele>
        <time>2020-07-09T11:24:30Z</time>
      </trkpt>
      <trkpt lat="41.6270570" lon="2.1208020">
        <ele>274.3</ele>
        <time>2020-07-09T11:24:31Z</time>
      </trkpt>
      <trkpt lat="41.6270710" lon="2.1208080">
        <ele>274.4</ele>
        <time>2020-07-09T11:24:32Z</time>
      </trkpt>
      <trkpt lat="41.6270840" lon="2.1208140">
        <ele>274.4</ele>
        <time>2020-07-09T11:24:33Z</time>
      </trkpt>
      <trkpt lat="41.6270970" lon="2.1208200">
        <ele>274.4</ele>
        <time>2020-07-09T11:24:34Z</time>
      </trkpt>
      <trkpt lat="41.6271100" lon="2.1208260">
        <ele>274.5</ele>
        <time>2020-07-09T11:24:35Z</time>
      </trkpt>
      <trkpt lat="41.6271230" lon="2.1208320">
        <ele>274.5</ele>
        <time>2020-07-09T11:24:36Z</time>
      </trkpt>
      <trkpt lat="41.6271360" lon="2.1208380">
        <ele>274.5</ele>
        <time>2020-07-09T11:24:37Z</time>
      </trkpt>
      <trkpt lat="41.6271480" lon="2.1208440">
        <ele>274.5</ele>
        <time>2020-07-09T11:24:38Z</time>
      </trkpt>
      <trkpt lat="41.6271610" lon="2.1208500">
        <ele>274.6</ele>
        <time>2020-07-09T11:24:39Z</time>
      </trkpt>
      <trkpt lat="41.6271740" lon="2.1208550">
        <ele>274.6</ele>
        <time>2020-07-09T11:24:40Z</time>
      </trkpt>
      <trkpt lat="41.6271880" lon="2.1208610">
        <ele>274.6</ele>
        <time>2020-07-09T11:24:41Z</time>
      </trkpt>
      <trkpt lat="41.6272020" lon="2.1208660">
        <ele>274.7</ele>
        <time>2020-07-09T11:24:42Z</time>
      </trkpt>
      <trkpt lat="41.6272170" lon="2.1208700">
        <ele>274.7</ele>
        <time>2020-07-09T11:24:43Z</time>
      </trkpt>
      <trkpt lat="41.6272330" lon="2.1208750">
        <ele>274.7</ele>
        <time>2020-07-09T11:24:44Z</time>
      </trkpt>
      <trkpt lat="41.6272490" lon="2.1208780">
        <ele>274.7</ele>
        <time>2020-07-09T11:24:45Z</time>
      </trkpt>
      <trkpt lat="41.6272660" lon="2.1208820">
        <ele>274.8</ele>
        <time>2020-07-09T11:24:46Z</time>
      </trkpt>
      <trkpt lat="41.6272830" lon="2.1208860">
        <ele>274.8</ele>
        <time>2020-07-09T11:24:47Z</time>
      </trkpt>
      <trkpt lat="41.6273010" lon="2.1208900">
        <ele>274.8</ele>
        <time>2020-07-09T11:24:48Z</time>
      </trkpt>
      <trkpt lat="41.6273180" lon="2.1208950">
        <ele>274.9</ele>
        <time>2020-07-09T11:24:49Z</time>
      </trkpt>
      <trkpt lat="41.6273350" lon="2.1209000">
        <ele>274.9</ele>
        <time>2020-07-09T11:24:50Z</time>
      </trkpt>
      <trkpt lat="41.6273520" lon="2.1209050">
        <ele>274.9</ele>
        <time>2020-07-09T11:24:51Z</time>
      </trkpt>
      <trkpt lat="41.6273680" lon="2.1209120">
        <ele>274.9</ele>
        <time>2020-07-09T11:24:52Z</time>
      </trkpt>
      <trkpt lat="41.6273840" lon="2.1209200">
        <ele>275.0</ele>
        <time>2020-07-09T11:24:53Z</time>
      </trkpt>
      <trkpt lat="41.6273990" lon="2.1209290">
        <ele>275.0</ele>
        <time>2020-07-09T11:24:54Z</time>
      </trkpt>
      <trkpt lat="41.6274140" lon="2.1209380">
        <ele>275.0</ele>
        <time>2020-07-09T11:24:55Z</time>
      </trkpt>
      <trkpt lat="41.6274290" lon="2.1209480">
        <ele>275.1</ele>
        <time>2020-07-09T11:24:56Z</time>
      </trkpt>
      <trkpt lat="41.6274430" lon="2.1209590">
        <ele>275.1</ele>
        <time>2020-07-09T11:24:57Z</time>
      </trkpt>
      <trkpt lat="41.6274560" lon="2.1209700">
        <ele>275.1</ele>
        <time>2020-07-09T11:24:58Z</time>
      </trkpt>
      <trkpt lat="41.6274700" lon="2.1209800">
        <ele>275.2</ele>
        <time>2020-07-09T11:24:59Z</time>
      </trkpt>
      <trkpt lat="41.6274830" lon="2.1209910">
        <ele>275.2</ele>
        <time>2020-07-09T11:25:00Z</time>
      </trkpt>
      <trkpt lat="41.6274960" lon="2.1210010">
        <ele>275.2</ele>
        <time>2020-07-09T11:25:01Z</time>
      </trkpt>
      <trkpt lat="41.6275100" lon="2.1210110">
        <ele>275.2</ele>
        <time>2020-07-09T11:25:02Z</time>
      </trkpt>
      <trkpt lat="41.6275230" lon="2.1210210">
        <ele>275.2</ele>
        <time>2020-07-09T11:25:03Z</time>
      </trkpt>
      <trkpt lat="41.6275360" lon="2.1210290">
        <ele>275.3</ele>
        <time>2020-07-09T11:25:04Z</time>
      </trkpt>
      <trkpt lat="41.6275490" lon="2.1210380">
        <ele>275.3</ele>
        <time>2020-07-09T11:25:05Z</time>
      </trkpt>
      <trkpt lat="41.6275610" lon="2.1210460">
        <ele>275.3</ele>
        <time>2020-07-09T11:25:06Z</time>
      </trkpt>
      <trkpt lat="41.6275740" lon="2.1210530">
        <ele>275.3</ele>
        <time>2020-07-09T11:25:07Z</time>
      </trkpt>
      <trkpt lat="41.6275860" lon="2.1210590">
        <ele>275.3</ele>
        <time>2020-07-09T11:25:08Z</time>
      </trkpt>
      <trkpt lat="41.6275980" lon="2.1210650">
        <ele>275.3</ele>
        <time>2020-07-09T11:25:09Z</time>
      </trkpt>
      <trkpt lat="41.6276100" lon="2.1210710">
        <ele>275.3</ele>
        <time>2020-07-09T11:25:10Z</time>
      </trkpt>
      <trkpt lat="41.6276210" lon="2.1210760">
        <ele>275.3</ele>
        <time>2020-07-09T11:25:11Z</time>
      </trkpt>
      <trkpt lat="41.6276320" lon="2.1210800">
        <ele>275.3</ele>
        <time>2020-07-09T11:25:12Z</time>
      </trkpt>
      <trkpt lat="41.6276430" lon="2.1210840">
        <ele>275.3</ele>
        <time>2020-07-09T11:25:13Z</time>
      </trkpt>
      <trkpt lat="41.6276540" lon="2.1210880">
        <ele>275.3</ele>
        <time>2020-07-09T11:25:14Z</time>
      </trkpt>
      <trkpt lat="41.6276650" lon="2.1210910">
        <ele>275.3</ele>
        <time>2020-07-09T11:25:15Z</time>
      </trkpt>
      <trkpt lat="41.6276770" lon="2.1210950">
        <ele>275.3</ele>
        <time>2020-07-09T11:25:16Z</time>
      </trkpt>
      <trkpt lat="41.6276890" lon="2.1210990">
        <ele>275.3</ele>
        <time>2020-07-09T11:25:17Z</time>
      </trkpt>
      <trkpt lat="41.6277010" lon="2.1211040">
        <ele>275.3</ele>
        <time>2020-07-09T11:25:18Z</time>
      </trkpt>
      <trkpt lat="41.6277140" lon="2.1211090">
        <ele>275.3</ele>
        <time>2020-07-09T11:25:19Z</time>
      </trkpt>
      <trkpt lat="41.6277280" lon="2.1211150">
        <ele>275.3</ele>
        <time>2020-07-09T11:25:20Z</time>
      </trkpt>
      <trkpt lat="41.6277430" lon="2.1211210">
        <ele>275.2</ele>
        <time>2020-07-09T11:25:21Z</time>
      </trkpt>
      <trkpt lat="41.6277580" lon="2.1211280">
        <ele>275.2</ele>
        <time>2020-07-09T11:25:22Z</time>
      </trkpt>
      <trkpt lat="41.6277740" lon="2.1211360">
        <ele>275.2</ele>
        <time>2020-07-09T11:25:23Z</time>
      </trkpt>
      <trkpt lat="41.6277900" lon="2.1211440">
        <ele>275.1</ele>
        <time>2020-07-09T11:25:24Z</time>
      </trkpt>
      <trkpt lat="41.6278060" lon="2.1211520">
        <ele>275.1</ele>
        <time>2020-07-09T11:25:25Z</time>
      </trkpt>
      <trkpt lat="41.6278230" lon="2.1211600">
        <ele>275.0</ele>
        <time>2020-07-09T11:25:26Z</time>
      </trkpt>
      <trkpt lat="41.6278390" lon="2.1211680">
        <ele>275.0</ele>
        <time>2020-07-09T11:25:27Z</time>
      </trkpt>
      <trkpt lat="41.6278560" lon="2.1211760">
        <ele>274.9</ele>
        <time>2020-07-09T11:25:28Z</time>
      </trkpt>
      <trkpt lat="41.6278720" lon="2.1211850">
        <ele>274.9</ele>
        <time>2020-07-09T11:25:29Z</time>
      </trkpt>
      <trkpt lat="41.6278880" lon="2.1211930">
        <ele>274.8</ele>
        <time>2020-07-09T11:25:30Z</time>
      </trkpt>
      <trkpt lat="41.6279040" lon="2.1212010">
        <ele>274.7</ele>
        <time>2020-07-09T11:25:31Z</time>
      </trkpt>
      <trkpt lat="41.6279200" lon="2.1212100">
        <ele>274.7</ele>
        <time>2020-07-09T11:25:32Z</time>
      </trkpt>
      <trkpt lat="41.6279350" lon="2.1212190">
        <ele>274.6</ele>
        <time>2020-07-09T11:25:33Z</time>
      </trkpt>
      <trkpt lat="41.6279510" lon="2.1212290">
        <ele>274.6</ele>
        <time>2020-07-09T11:25:34Z</time>
      </trkpt>
      <trkpt lat="41.6279660" lon="2.1212390">
        <ele>274.5</ele>
        <time>2020-07-09T11:25:35Z</time>
      </trkpt>
      <trkpt lat="41.6279800" lon="2.1212510">
        <ele>274.5</ele>
        <time>2020-07-09T11:25:36Z</time>
      </trkpt>
      <trkpt lat="41.6279950" lon="2.1212630">
        <ele>274.4</ele>
        <time>2020-07-09T11:25:37Z</time>
      </trkpt>
      <trkpt lat="41.6280090" lon="2.1212760">
        <ele>274.3</ele>
        <time>2020-07-09T11:25:38Z</time>
      </trkpt>
      <trkpt lat="41.6280220" lon="2.1212900">
        <ele>274.3</ele>
        <time>2020-07-09T11:25:39Z</time>
      </trkpt>
      <trkpt lat="41.6280350" lon="2.1213050">
        <ele>274.2</ele>
        <time>2020-07-09T11:25:40Z</time>
      </trkpt>
      <trkpt lat="41.6280480" lon="2.1213190">
        <ele>274.1</ele>
        <time>2020-07-09T11:25:41Z</time>
      </trkpt>
      <trkpt lat="41.6280600" lon="2.1213340">
        <ele>274.1</ele>
        <time>2020-07-09T11:25:42Z</time>
      </trkpt>
      <trkpt lat="41.6280710" lon="2.1213480">
        <ele>274.0</ele>
        <time>2020-07-09T11:25:43Z</time>
      </trkpt>
      <trkpt lat="41.6280830" lon="2.1213610">
        <ele>274.0</ele>
        <time>2020-07-09T11:25:44Z</time>
      </trkpt>
      <trkpt lat="41.6280930" lon="2.1213740">
        <ele>273.9</ele>
        <time>2020-07-09T11:25:45Z</time>
      </trkpt>
      <trkpt lat="41.6281030" lon="2.1213850">
        <ele>273.8</ele>
        <time>2020-07-09T11:25:46Z</time>
      </trkpt>
      <trkpt lat="41.6281120" lon="2.1213940">
        <ele>273.8</ele>
        <time>2020-07-09T11:25:47Z</time>
      </trkpt>
      <trkpt lat="41.6281210" lon="2.1214030">
        <ele>273.7</ele>
        <time>2020-07-09T11:25:48Z</time>
      </trkpt>
      <trkpt lat="41.6281300" lon="2.1214110">
        <ele>273.7</ele>
        <time>2020-07-09T11:25:49Z</time>
      </trkpt>
      <trkpt lat="41.6281380" lon="2.1214180">
        <ele>273.6</ele>
        <time>2020-07-09T11:25:50Z</time>
      </trkpt>
      <trkpt lat="41.6281470" lon="2.1214250">
        <ele>273.6</ele>
        <time>2020-07-09T11:25:51Z</time>
      </trkpt>
      <trkpt lat="41.6281560" lon="2.1214310">
        <ele>273.5</ele>
        <time>2020-07-09T11:25:52Z</time>
      </trkpt>
      <trkpt lat="41.6281650" lon="2.1214370">
        <ele>273.5</ele>
        <time>2020-07-09T11:25:53Z</time>
      </trkpt>
      <trkpt lat="41.6281750" lon="2.1214440">
        <ele>273.4</ele>
        <time>2020-07-09T11:25:54Z</time>
      </trkpt>
      <trkpt lat="41.6281860" lon="2.1214500">
        <ele>273.4</ele>
        <time>2020-07-09T11:25:55Z</time>
      </trkpt>
      <trkpt lat="41.6281970" lon="2.1214560">
        <ele>273.3</ele>
        <time>2020-07-09T11:25:56Z</time>
      </trkpt>
      <trkpt lat="41.6282080" lon="2.1214630">
        <ele>273.2</ele>
        <time>2020-07-09T11:25:57Z</time>
      </trkpt>
      <trkpt lat="41.6282210" lon="2.1214700">
        <ele>273.2</ele>
        <time>2020-07-09T11:25:58Z</time>
      </trkpt>
      <trkpt lat="41.6282340" lon="2.1214770">
        <ele>273.1</ele>
        <time>2020-07-09T11:25:59Z</time>
      </trkpt>
      <trkpt lat="41.6282480" lon="2.1214850">
        <ele>273.0</ele>
        <time>2020-07-09T11:26:00Z</time>
      </trkpt>
      <trkpt lat="41.6282630" lon="2.1214930">
        <ele>272.9</ele>
        <time>2020-07-09T11:26:01Z</time>
      </trkpt>
      <trkpt lat="41.6282780" lon="2.1215010">
        <ele>272.9</ele>
        <time>2020-07-09T11:26:02Z</time>
      </trkpt>
      <trkpt lat="41.6282940" lon="2.1215100">
        <ele>272.8</ele>
        <time>2020-07-09T11:26:03Z</time>
      </trkpt>
      <trkpt lat="41.6283120" lon="2.1215200">
        <ele>272.7</ele>
        <time>2020-07-09T11:26:04Z</time>
      </trkpt>
      <trkpt lat="41.6283290" lon="2.1215290">
        <ele>272.6</ele>
        <time>2020-07-09T11:26:05Z</time>
      </trkpt>
      <trkpt lat="41.6283470" lon="2.1215380">
        <ele>272.5</ele>
        <time>2020-07-09T11:26:06Z</time>
      </trkpt>
      <trkpt lat="41.6283640" lon="2.1215470">
        <ele>272.4</ele>
        <time>2020-07-09T11:26:07Z</time>
      </trkpt>
      <trkpt lat="41.6283800" lon="2.1215540">
        <ele>272.3</ele>
        <time>2020-07-09T11:26:08Z</time>
      </trkpt>
      <trkpt lat="41.6284050" lon="2.1215610">
        <ele>272.1</ele>
        <time>2020-07-09T11:26:09Z</time>
      </trkpt>
      <trkpt lat="41.6284160" lon="2.1215630">
        <ele>272.1</ele>
        <time>2020-07-09T11:26:10Z</time>
      </trkpt>
      <trkpt lat="41.6284270" lon="2.1215640">
        <ele>272.0</ele>
        <time>2020-07-09T11:26:11Z</time>
      </trkpt>
      <trkpt lat="41.6284380" lon="2.1215650">
        <ele>271.9</ele>
        <time>2020-07-09T11:26:12Z</time>
      </trkpt>
      <trkpt lat="41.6284490" lon="2.1215660">
        <ele>271.9</ele>
        <time>2020-07-09T11:26:13Z</time>
      </trkpt>
      <trkpt lat="41.6284600" lon="2.1215680">
        <ele>271.8</ele>
        <time>2020-07-09T11:26:14Z</time>
      </trkpt>
      <trkpt lat="41.6284710" lon="2.1215690">
        <ele>271.7</ele>
        <time>2020-07-09T11:26:15Z</time>
      </trkpt>
      <trkpt lat="41.6284820" lon="2.1215700">
        <ele>271.6</ele>
        <time>2020-07-09T11:26:16Z</time>
      </trkpt>
      <trkpt lat="41.6284930" lon="2.1215710">
        <ele>271.6</ele>
        <time>2020-07-09T11:26:17Z</time>
      </trkpt>
      <trkpt lat="41.6285040" lon="2.1215730">
        <ele>271.5</ele>
        <time>2020-07-09T11:26:18Z</time>
      </trkpt>
      <trkpt lat="41.6285150" lon="2.1215740">
        <ele>271.4</ele>
        <time>2020-07-09T11:26:19Z</time>
      </trkpt>
      <trkpt lat="41.6285270" lon="2.1215740">
        <ele>271.3</ele>
        <time>2020-07-09T11:26:20Z</time>
      </trkpt>
      <trkpt lat="41.6285390" lon="2.1215740">
        <ele>271.2</ele>
        <time>2020-07-09T11:26:21Z</time>
      </trkpt>
      <trkpt lat="41.6285520" lon="2.1215740">
        <ele>271.1</ele>
        <time>2020-07-09T11:26:22Z</time>
      </trkpt>
      <trkpt lat="41.6285640" lon="2.1215730">
        <ele>270.9</ele>
        <time>2020-07-09T11:26:23Z</time>
      </trkpt>
      <trkpt lat="41.6285770" lon="2.1215730">
        <ele>270.8</ele>
        <time>2020-07-09T11:26:24Z</time>
      </trkpt>
      <trkpt lat="41.6285910" lon="2.1215730">
        <ele>270.7</ele>
        <time>2020-07-09T11:26:25Z</time>
      </trkpt>
      <trkpt lat="41.6286040" lon="2.1215730">
        <ele>270.5</ele>
        <time>2020-07-09T11:26:26Z</time>
      </trkpt>
      <trkpt lat="41.6286170" lon="2.1215730">
        <ele>269.9</ele>
        <time>2020-07-09T11:26:27Z</time>
      </trkpt>
      <trkpt lat="41.6286310" lon="2.1215720">
        <ele>269.9</ele>
        <time>2020-07-09T11:26:28Z</time>
      </trkpt>
      <trkpt lat="41.6286450" lon="2.1215720">
        <ele>270.0</ele>
        <time>2020-07-09T11:26:29Z</time>
      </trkpt>
      <trkpt lat="41.6286590" lon="2.1215720">
        <ele>270.0</ele>
        <time>2020-07-09T11:26:30Z</time>
      </trkpt>
      <trkpt lat="41.6286730" lon="2.1215720">
        <ele>270.0</ele>
        <time>2020-07-09T11:26:31Z</time>
      </trkpt>
      <trkpt lat="41.6286870" lon="2.1215710">
        <ele>270.1</ele>
        <time>2020-07-09T11:26:32Z</time>
      </trkpt>
      <trkpt lat="41.6287010" lon="2.1215710">
        <ele>270.1</ele>
        <time>2020-07-09T11:26:33Z</time>
      </trkpt>
      <trkpt lat="41.6287160" lon="2.1215700">
        <ele>270.2</ele>
        <time>2020-07-09T11:26:34Z</time>
      </trkpt>
      <trkpt lat="41.6287300" lon="2.1215700">
        <ele>270.2</ele>
        <time>2020-07-09T11:26:35Z</time>
      </trkpt>
      <trkpt lat="41.6287440" lon="2.1215690">
        <ele>270.2</ele>
        <time>2020-07-09T11:26:36Z</time>
      </trkpt>
      <trkpt lat="41.6287590" lon="2.1215690">
        <ele>270.2</ele>
        <time>2020-07-09T11:26:37Z</time>
      </trkpt>
      <trkpt lat="41.6287730" lon="2.1215680">
        <ele>270.3</ele>
        <time>2020-07-09T11:26:38Z</time>
      </trkpt>
      <trkpt lat="41.6287880" lon="2.1215680">
        <ele>270.3</ele>
        <time>2020-07-09T11:26:39Z</time>
      </trkpt>
      <trkpt lat="41.6288030" lon="2.1215670">
        <ele>270.3</ele>
        <time>2020-07-09T11:26:40Z</time>
      </trkpt>
      <trkpt lat="41.6288170" lon="2.1215660">
        <ele>270.3</ele>
        <time>2020-07-09T11:26:41Z</time>
      </trkpt>
      <trkpt lat="41.6288320" lon="2.1215650">
        <ele>270.3</ele>
        <time>2020-07-09T11:26:42Z</time>
      </trkpt>
      <trkpt lat="41.6288470" lon="2.1215640">
        <ele>270.4</ele>
        <time>2020-07-09T11:26:43Z</time>
      </trkpt>
      <trkpt lat="41.6288610" lon="2.1215630">
        <ele>270.4</ele>
        <time>2020-07-09T11:26:44Z</time>
      </trkpt>
      <trkpt lat="41.6288760" lon="2.1215630">
        <ele>270.4</ele>
        <time>2020-07-09T11:26:45Z</time>
      </trkpt>
      <trkpt lat="41.6288910" lon="2.1215620">
        <ele>270.4</ele>
        <time>2020-07-09T11:26:46Z</time>
      </trkpt>
      <trkpt lat="41.6289050" lon="2.1215610">
        <ele>270.4</ele>
        <time>2020-07-09T11:26:47Z</time>
      </trkpt>
      <trkpt lat="41.6289200" lon="2.1215600">
        <ele>270.4</ele>
        <time>2020-07-09T11:26:48Z</time>
      </trkpt>
      <trkpt lat="41.6289350" lon="2.1215600">
        <ele>270.4</ele>
        <time>2020-07-09T11:26:49Z</time>
      </trkpt>
      <trkpt lat="41.6289500" lon="2.1215590">
        <ele>270.4</ele>
        <time>2020-07-09T11:26:50Z</time>
      </trkpt>
      <trkpt lat="41.6289650" lon="2.1215590">
        <ele>270.5</ele>
        <time>2020-07-09T11:26:51Z</time>
      </trkpt>
      <trkpt lat="41.6289800" lon="2.1215580">
        <ele>270.5</ele>
        <time>2020-07-09T11:26:52Z</time>
      </trkpt>
      <trkpt lat="41.6289940" lon="2.1215580">
        <ele>270.5</ele>
        <time>2020-07-09T11:26:53Z</time>
      </trkpt>
      <trkpt lat="41.6290090" lon="2.1215580">
        <ele>270.5</ele>
        <time>2020-07-09T11:26:54Z</time>
      </trkpt>
      <trkpt lat="41.6290240" lon="2.1215580">
        <ele>270.5</ele>
        <time>2020-07-09T11:26:55Z</time>
      </trkpt>
      <trkpt lat="41.6290390" lon="2.1215580">
        <ele>270.5</ele>
        <time>2020-07-09T11:26:56Z</time>
      </trkpt>
      <trkpt lat="41.6290540" lon="2.1215580">
        <ele>270.5</ele>
        <time>2020-07-09T11:26:57Z</time>
      </trkpt>
      <trkpt lat="41.6290690" lon="2.1215580">
        <ele>270.6</ele>
        <time>2020-07-09T11:26:58Z</time>
      </trkpt>
      <trkpt lat="41.6290840" lon="2.1215580">
        <ele>270.6</ele>
        <time>2020-07-09T11:26:59Z</time>
      </trkpt>
      <trkpt lat="41.6290990" lon="2.1215580">
        <ele>270.6</ele>
        <time>2020-07-09T11:27:00Z</time>
      </trkpt>
      <trkpt lat="41.6291140" lon="2.1215570">
        <ele>270.6</ele>
        <time>2020-07-09T11:27:01Z</time>
      </trkpt>
      <trkpt lat="41.6291290" lon="2.1215560">
        <ele>270.6</ele>
        <time>2020-07-09T11:27:02Z</time>
      </trkpt>
      <trkpt lat="41.6291440" lon="2.1215540">
        <ele>270.7</ele>
        <time>2020-07-09T11:27:03Z</time>
      </trkpt>
      <trkpt lat="41.6291580" lon="2.1215510">
        <ele>270.7</ele>
        <time>2020-07-09T11:27:04Z</time>
      </trkpt>
      <trkpt lat="41.6291720" lon="2.1215470">
        <ele>270.7</ele>
        <time>2020-07-09T11:27:05Z</time>
      </trkpt>
      <trkpt lat="41.6291870" lon="2.1215420">
        <ele>270.7</ele>
        <time>2020-07-09T11:27:06Z</time>
      </trkpt>
      <trkpt lat="41.6292010" lon="2.1215380">
        <ele>270.7</ele>
        <time>2020-07-09T11:27:07Z</time>
      </trkpt>
      <trkpt lat="41.6292150" lon="2.1215330">
        <ele>270.8</ele>
        <time>2020-07-09T11:27:08Z</time>
      </trkpt>
      <trkpt lat="41.6292290" lon="2.1215280">
        <ele>270.8</ele>
        <time>2020-07-09T11:27:09Z</time>
      </trkpt>
      <trkpt lat="41.6292430" lon="2.1215250">
        <ele>270.8</ele>
        <time>2020-07-09T11:27:10Z</time>
      </trkpt>
      <trkpt lat="41.6292560" lon="2.1215220">
        <ele>270.8</ele>
        <time>2020-07-09T11:27:11Z</time>
      </trkpt>
      <trkpt lat="41.6292700" lon="2.1215200">
        <ele>270.8</ele>
        <time>2020-07-09T11:27:12Z</time>
      </trkpt>
      <trkpt lat="41.6292840" lon="2.1215200">
        <ele>270.9</ele>
        <time>2020-07-09T11:27:13Z</time>
      </trkpt>
      <trkpt lat="41.6292980" lon="2.1215220">
        <ele>270.9</ele>
        <time>2020-07-09T11:27:14Z</time>
      </trkpt>
      <trkpt lat="41.6293110" lon="2.1215250">
        <ele>270.9</ele>
        <time>2020-07-09T11:27:15Z</time>
      </trkpt>
      <trkpt lat="41.6293250" lon="2.1215290">
        <ele>270.9</ele>
        <time>2020-07-09T11:27:16Z</time>
      </trkpt>
      <trkpt lat="41.6293380" lon="2.1215330">
        <ele>271.0</ele>
        <time>2020-07-09T11:27:17Z</time>
      </trkpt>
      <trkpt lat="41.6293520" lon="2.1215360">
        <ele>271.0</ele>
        <time>2020-07-09T11:27:18Z</time>
      </trkpt>
      <trkpt lat="41.6293650" lon="2.1215380">
        <ele>271.0</ele>
        <time>2020-07-09T11:27:19Z</time>
      </trkpt>
      <trkpt lat="41.6293780" lon="2.1215390">
        <ele>271.0</ele>
        <time>2020-07-09T11:27:20Z</time>
      </trkpt>
      <trkpt lat="41.6293910" lon="2.1215400">
        <ele>271.0</ele>
        <time>2020-07-09T11:27:21Z</time>
      </trkpt>
      <trkpt lat="41.6294050" lon="2.1215410">
        <ele>271.1</ele>
        <time>2020-07-09T11:27:22Z</time>
      </trkpt>
      <trkpt lat="41.6294200" lon="2.1215410">
        <ele>271.1</ele>
        <time>2020-07-09T11:27:23Z</time>
      </trkpt>
      <trkpt lat="41.6294360" lon="2.1215420">
        <ele>271.1</ele>
        <time>2020-07-09T11:27:24Z</time>
      </trkpt>
      <trkpt lat="41.6294520" lon="2.1215440">
        <ele>271.2</ele>
        <time>2020-07-09T11:27:25Z</time>
      </trkpt>
      <trkpt lat="41.6294690" lon="2.1215450">
        <ele>271.2</ele>
        <time>2020-07-09T11:27:26Z</time>
      </trkpt>
      <trkpt lat="41.6294870" lon="2.1215460">
        <ele>271.2</ele>
        <time>2020-07-09T11:27:27Z</time>
      </trkpt>
      <trkpt lat="41.6295040" lon="2.1215480">
        <ele>271.3</ele>
        <time>2020-07-09T11:27:28Z</time>
      </trkpt>
      <trkpt lat="41.6295220" lon="2.1215490">
        <ele>271.3</ele>
        <time>2020-07-09T11:27:29Z</time>
      </trkpt>
      <trkpt lat="41.6295390" lon="2.1215510">
        <ele>271.3</ele>
        <time>2020-07-09T11:27:30Z</time>
      </trkpt>
      <trkpt lat="41.6295570" lon="2.1215520">
        <ele>271.4</ele>
        <time>2020-07-09T11:27:31Z</time>
      </trkpt>
      <trkpt lat="41.6295740" lon="2.1215540">
        <ele>271.4</ele>
        <time>2020-07-09T11:27:32Z</time>
      </trkpt>
      <trkpt lat="41.6295900" lon="2.1215550">
        <ele>271.5</ele>
        <time>2020-07-09T11:27:33Z</time>
      </trkpt>
      <trkpt lat="41.6296060" lon="2.1215560">
        <ele>271.5</ele>
        <time>2020-07-09T11:27:34Z</time>
      </trkpt>
      <trkpt lat="41.6296220" lon="2.1215570">
        <ele>271.5</ele>
        <time>2020-07-09T11:27:35Z</time>
      </trkpt>
      <trkpt lat="41.6296380" lon="2.1215580">
        <ele>271.6</ele>
        <time>2020-07-09T11:27:36Z</time>
      </trkpt>
      <trkpt lat="41.6296530" lon="2.1215590">
        <ele>271.6</ele>
        <time>2020-07-09T11:27:37Z</time>
      </trkpt>
      <trkpt lat="41.6296680" lon="2.1215600">
        <ele>271.7</ele>
        <time>2020-07-09T11:27:38Z</time>
      </trkpt>
      <trkpt lat="41.6296830" lon="2.1215610">
        <ele>271.7</ele>
        <time>2020-07-09T11:27:39Z</time>
      </trkpt>
      <trkpt lat="41.6296970" lon="2.1215620">
        <ele>271.7</ele>
        <time>2020-07-09T11:27:40Z</time>
      </trkpt>
      <trkpt lat="41.6297120" lon="2.1215620">
        <ele>271.8</ele>
        <time>2020-07-09T11:27:41Z</time>
      </trkpt>
      <trkpt lat="41.6297260" lon="2.1215620">
        <ele>271.8</ele>
        <time>2020-07-09T11:27:42Z</time>
      </trkpt>
      <trkpt lat="41.6297390" lon="2.1215620">
        <ele>271.9</ele>
        <time>2020-07-09T11:27:43Z</time>
      </trkpt>
      <trkpt lat="41.6297530" lon="2.1215620">
        <ele>271.9</ele>
        <time>2020-07-09T11:27:44Z</time>
      </trkpt>
      <trkpt lat="41.6297670" lon="2.1215620">
        <ele>271.9</ele>
        <time>2020-07-09T11:27:45Z</time>
      </trkpt>
      <trkpt lat="41.6297800" lon="2.1215620">
        <ele>272.0</ele>
        <time>2020-07-09T11:27:46Z</time>
      </trkpt>
      <trkpt lat="41.6297940" lon="2.1215610">
        <ele>272.0</ele>
        <time>2020-07-09T11:27:47Z</time>
      </trkpt>
      <trkpt lat="41.6298070" lon="2.1215600">
        <ele>272.1</ele>
        <time>2020-07-09T11:27:48Z</time>
      </trkpt>
      <trkpt lat="41.6298200" lon="2.1215590">
        <ele>272.1</ele>
        <time>2020-07-09T11:27:49Z</time>
      </trkpt>
      <trkpt lat="41.6298330" lon="2.1215580">
        <ele>272.1</ele>
        <time>2020-07-09T11:27:50Z</time>
      </trkpt>
      <trkpt lat="41.6298460" lon="2.1215570">
        <ele>272.2</ele>
        <time>2020-07-09T11:27:51Z</time>
      </trkpt>
      <trkpt lat="41.6298590" lon="2.1215550">
        <ele>272.2</ele>
        <time>2020-07-09T11:27:52Z</time>
      </trkpt>
      <trkpt lat="41.6298720" lon="2.1215530">
        <ele>272.3</ele>
        <time>2020-07-09T11:27:53Z</time>
      </trkpt>
      <trkpt lat="41.6298850" lon="2.1215510">
        <ele>272.3</ele>
        <time>2020-07-09T11:27:54Z</time>
      </trkpt>
      <trkpt lat="41.6298980" lon="2.1215490">
        <ele>272.4</ele>
        <time>2020-07-09T11:27:55Z</time>
      </trkpt>
      <trkpt lat="41.6299110" lon="2.1215460">
        <ele>272.4</ele>
        <time>2020-07-09T11:27:56Z</time>
      </trkpt>
      <trkpt lat="41.6299240" lon="2.1215440">
        <ele>272.5</ele>
        <time>2020-07-09T11:27:57Z</time>
      </trkpt>
      <trkpt lat="41.6299370" lon="2.1215410">
        <ele>272.5</ele>
        <time>2020-07-09T11:27:58Z</time>
      </trkpt>
      <trkpt lat="41.6299510" lon="2.1215380">
        <ele>272.6</ele>
        <time>2020-07-09T11:27:59Z</time>
      </trkpt>
      <trkpt lat="41.6299640" lon="2.1215350">
        <ele>272.6</ele>
        <time>2020-07-09T11:28:00Z</time>
      </trkpt>
      <trkpt lat="41.6299780" lon="2.1215320">
        <ele>272.7</ele>
        <time>2020-07-09T11:28:01Z</time>
      </trkpt>
      <trkpt lat="41.6299910" lon="2.1215280">
        <ele>272.7</ele>
        <time>2020-07-09T11:28:02Z</time>
      </trkpt>
      <trkpt lat="41.6300050" lon="2.1215250">
        <ele>272.8</ele>
        <time>2020-07-09T11:28:03Z</time>
      </trkpt>
      <trkpt lat="41.6300190" lon="2.1215210">
        <ele>272.8</ele>
        <time>2020-07-09T11:28:04Z</time>
      </trkpt>
      <trkpt lat="41.6300330" lon="2.1215180">
        <ele>272.9</ele>
        <time>2020-07-09T11:28:05Z</time>
      </trkpt>
      <trkpt lat="41.6300480" lon="2.1215140">
        <ele>272.9</ele>
        <time>2020-07-09T11:28:06Z</time>
      </trkpt>
      <trkpt lat="41.6300620" lon="2.1215100">
        <ele>273.0</ele>
        <time>2020-07-09T11:28:07Z</time>
      </trkpt>
      <trkpt lat="41.6300770" lon="2.1215060">
        <ele>273.1</ele>
        <time>2020-07-09T11:28:08Z</time>
      </trkpt>
      <trkpt lat="41.6300920" lon="2.1215020">
        <ele>273.1</ele>
        <time>2020-07-09T11:28:09Z</time>
      </trkpt>
      <trkpt lat="41.6301070" lon="2.1214980">
        <ele>273.2</ele>
        <time>2020-07-09T11:28:10Z</time>
      </trkpt>
      <trkpt lat="41.6301220" lon="2.1214940">
        <ele>273.3</ele>
        <time>2020-07-09T11:28:11Z</time>
      </trkpt>
      <trkpt lat="41.6301370" lon="2.1214900">
        <ele>273.3</ele>
        <time>2020-07-09T11:28:12Z</time>
      </trkpt>
      <trkpt lat="41.6301520" lon="2.1214860">
        <ele>273.4</ele>
        <time>2020-07-09T11:28:13Z</time>
      </trkpt>
      <trkpt lat="41.6301660" lon="2.1214820">
        <ele>273.5</ele>
        <time>2020-07-09T11:28:14Z</time>
      </trkpt>
      <trkpt lat="41.6301810" lon="2.1214770">
        <ele>273.5</ele>
        <time>2020-07-09T11:28:15Z</time>
      </trkpt>
      <trkpt lat="41.6301950" lon="2.1214730">
        <ele>273.6</ele>
        <time>2020-07-09T11:28:16Z</time>
      </trkpt>
      <trkpt lat="41.6302090" lon="2.1214690">
        <ele>273.7</ele>
        <time>2020-07-09T11:28:17Z</time>
      </trkpt>
      <trkpt lat="41.6302230" lon="2.1214650">
        <ele>273.8</ele>
        <time>2020-07-09T11:28:18Z</time>
      </trkpt>
      <trkpt lat="41.6302370" lon="2.1214610">
        <ele>273.9</ele>
        <time>2020-07-09T11:28:19Z</time>
      </trkpt>
      <trkpt lat="41.6302500" lon="2.1214570">
        <ele>274.0</ele>
        <time>2020-07-09T11:28:20Z</time>
      </trkpt>
      <trkpt lat="41.6302640" lon="2.1214530">
        <ele>274.1</ele>
        <time>2020-07-09T11:28:21Z</time>
      </trkpt>
      <trkpt lat="41.6302780" lon="2.1214490">
        <ele>274.2</ele>
        <time>2020-07-09T11:28:22Z</time>
      </trkpt>
      <trkpt lat="41.6302910" lon="2.1214450">
        <ele>274.3</ele>
        <time>2020-07-09T11:28:23Z</time>
      </trkpt>
      <trkpt lat="41.6303050" lon="2.1214410">
        <ele>274.4</ele>
        <time>2020-07-09T11:28:24Z</time>
      </trkpt>
      <trkpt lat="41.6303190" lon="2.1214370">
        <ele>274.5</ele>
        <time>2020-07-09T11:28:25Z</time>
      </trkpt>
      <trkpt lat="41.6303320" lon="2.1214330">
        <ele>274.6</ele>
        <time>2020-07-09T11:28:26Z</time>
      </trkpt>
      <trkpt lat="41.6303460" lon="2.1214290">
        <ele>274.7</ele>
        <time>2020-07-09T11:28:27Z</time>
      </trkpt>
      <trkpt lat="41.6303600" lon="2.1214250">
        <ele>274.8</ele>
        <time>2020-07-09T11:28:28Z</time>
      </trkpt>
      <trkpt lat="41.6303740" lon="2.1214210">
        <ele>274.9</ele>
        <time>2020-07-09T11:28:29Z</time>
      </trkpt>
      <trkpt lat="41.6303880" lon="2.1214170">
        <ele>275.1</ele>
        <time>2020-07-09T11:28:30Z</time>
      </trkpt>
      <trkpt lat="41.6304020" lon="2.1214130">
        <ele>275.2</ele>
        <time>2020-07-09T11:28:31Z</time>
      </trkpt>
      <trkpt lat="41.6304160" lon="2.1214090">
        <ele>275.3</ele>
        <time>2020-07-09T11:28:32Z</time>
      </trkpt>
      <trkpt lat="41.6304300" lon="2.1214050">
        <ele>275.4</ele>
        <time>2020-07-09T11:28:33Z</time>
      </trkpt>
      <trkpt lat="41.6304440" lon="2.1214010">
        <ele>275.6</ele>
        <time>2020-07-09T11:28:34Z</time>
      </trkpt>
      <trkpt lat="41.6304580" lon="2.1213960">
        <ele>275.7</ele>
        <time>2020-07-09T11:28:35Z</time>
      </trkpt>
      <trkpt lat="41.6304720" lon="2.1213920">
        <ele>275.8</ele>
        <time>2020-07-09T11:28:36Z</time>
      </trkpt>
      <trkpt lat="41.6304850" lon="2.1213870">
        <ele>275.9</ele>
        <time>2020-07-09T11:28:37Z</time>
      </trkpt>
      <trkpt lat="41.6304990" lon="2.1213830">
        <ele>276.1</ele>
        <time>2020-07-09T11:28:38Z</time>
      </trkpt>
      <trkpt lat="41.6305130" lon="2.1213780">
        <ele>276.2</ele>
        <time>2020-07-09T11:28:39Z</time>
      </trkpt>
      <trkpt lat="41.6305270" lon="2.1213730">
        <ele>276.3</ele>
        <time>2020-07-09T11:28:40Z</time>
      </trkpt>
      <trkpt lat="41.6305400" lon="2.1213670">
        <ele>276.4</ele>
        <time>2020-07-09T11:28:41Z</time>
      </trkpt>
      <trkpt lat="41.6305540" lon="2.1213620">
        <ele>276.6</ele>
        <time>2020-07-09T11:28:42Z</time>
      </trkpt>
      <trkpt lat="41.6305670" lon="2.1213560">
        <ele>276.7</ele>
        <time>2020-07-09T11:28:43Z</time>
      </trkpt>
      <trkpt lat="41.6305800" lon="2.1213510">
        <ele>276.8</ele>
        <time>2020-07-09T11:28:44Z</time>
      </trkpt>
      <trkpt lat="41.6305930" lon="2.1213450">
        <ele>276.9</ele>
        <time>2020-07-09T11:28:45Z</time>
      </trkpt>
      <trkpt lat="41.6306060" lon="2.1213390">
        <ele>277.0</ele>
        <time>2020-07-09T11:28:46Z</time>
      </trkpt>
      <trkpt lat="41.6306190" lon="2.1213330">
        <ele>277.1</ele>
        <time>2020-07-09T11:28:47Z</time>
      </trkpt>
      <trkpt lat="41.6306320" lon="2.1213270">
        <ele>277.2</ele>
        <time>2020-07-09T11:28:48Z</time>
      </trkpt>
      <trkpt lat="41.6306450" lon="2.1213200">
        <ele>277.3</ele>
        <time>2020-07-09T11:28:49Z</time>
      </trkpt>
      <trkpt lat="41.6306580" lon="2.1213140">
        <ele>277.3</ele>
        <time>2020-07-09T11:28:50Z</time>
      </trkpt>
      <trkpt lat="41.6306700" lon="2.1213080">
        <ele>277.4</ele>
        <time>2020-07-09T11:28:51Z</time>
      </trkpt>
      <trkpt lat="41.6306830" lon="2.1213020">
        <ele>277.5</ele>
        <time>2020-07-09T11:28:52Z</time>
      </trkpt>
      <trkpt lat="41.6306960" lon="2.1212970">
        <ele>277.6</ele>
        <time>2020-07-09T11:28:53Z</time>
      </trkpt>
      <trkpt lat="41.6307080" lon="2.1212910">
        <ele>277.6</ele>
        <time>2020-07-09T11:28:54Z</time>
      </trkpt>
      <trkpt lat="41.6307200" lon="2.1212860">
        <ele>277.7</ele>
        <time>2020-07-09T11:28:55Z</time>
      </trkpt>
      <trkpt lat="41.6307330" lon="2.1212810">
        <ele>277.7</ele>
        <time>2020-07-09T11:28:56Z</time>
      </trkpt>
      <trkpt lat="41.6307450" lon="2.1212760">
        <ele>277.7</ele>
        <time>2020-07-09T11:28:57Z</time>
      </trkpt>
      <trkpt lat="41.6307580" lon="2.1212720">
        <ele>277.8</ele>
        <time>2020-07-09T11:28:58Z</time>
      </trkpt>
      <trkpt lat="41.6307700" lon="2.1212670">
        <ele>277.8</ele>
        <time>2020-07-09T11:28:59Z</time>
      </trkpt>
      <trkpt lat="41.6307820" lon="2.1212640">
        <ele>277.8</ele>
        <time>2020-07-09T11:29:00Z</time>
      </trkpt>
      <trkpt lat="41.6307940" lon="2.1212600">
        <ele>277.9</ele>
        <time>2020-07-09T11:29:01Z</time>
      </trkpt>
      <trkpt lat="41.6308070" lon="2.1212580">
        <ele>277.9</ele>
        <time>2020-07-09T11:29:02Z</time>
      </trkpt>
      <trkpt lat="41.6308190" lon="2.1212550">
        <ele>277.9</ele>
        <time>2020-07-09T11:29:03Z</time>
      </trkpt>
      <trkpt lat="41.6308310" lon="2.1212530">
        <ele>277.9</ele>
        <time>2020-07-09T11:29:04Z</time>
      </trkpt>
      <trkpt lat="41.6308440" lon="2.1212500">
        <ele>277.9</ele>
        <time>2020-07-09T11:29:05Z</time>
      </trkpt>
      <trkpt lat="41.6308560" lon="2.1212480">
        <ele>277.9</ele>
        <time>2020-07-09T11:29:06Z</time>
      </trkpt>
      <trkpt lat="41.6308690" lon="2.1212460">
        <ele>277.9</ele>
        <time>2020-07-09T11:29:07Z</time>
      </trkpt>
      <trkpt lat="41.6308820" lon="2.1212440">
        <ele>277.9</ele>
        <time>2020-07-09T11:29:08Z</time>
      </trkpt>
      <trkpt lat="41.6308950" lon="2.1212420">
        <ele>277.9</ele>
        <time>2020-07-09T11:29:09Z</time>
      </trkpt>
      <trkpt lat="41.6309090" lon="2.1212390">
        <ele>277.9</ele>
        <time>2020-07-09T11:29:10Z</time>
      </trkpt>
      <trkpt lat="41.6309220" lon="2.1212370">
        <ele>277.9</ele>
        <time>2020-07-09T11:29:11Z</time>
      </trkpt>
      <trkpt lat="41.6309360" lon="2.1212340">
        <ele>277.9</ele>
        <time>2020-07-09T11:29:12Z</time>
      </trkpt>
      <trkpt lat="41.6309500" lon="2.1212310">
        <ele>277.9</ele>
        <time>2020-07-09T11:29:13Z</time>
      </trkpt>
      <trkpt lat="41.6309630" lon="2.1212270">
        <ele>277.8</ele>
        <time>2020-07-09T11:29:14Z</time>
      </trkpt>
      <trkpt lat="41.6309760" lon="2.1212240">
        <ele>277.8</ele>
        <time>2020-07-09T11:29:15Z</time>
      </trkpt>
      <trkpt lat="41.6309890" lon="2.1212200">
        <ele>277.8</ele>
        <time>2020-07-09T11:29:16Z</time>
      </trkpt>
      <trkpt lat="41.6310020" lon="2.1212160">
        <ele>277.8</ele>
        <time>2020-07-09T11:29:17Z</time>
      </trkpt>
      <trkpt lat="41.6310130" lon="2.1212120">
        <ele>277.7</ele>
        <time>2020-07-09T11:29:18Z</time>
      </trkpt>
      <trkpt lat="41.6310250" lon="2.1212070">
        <ele>277.7</ele>
        <time>2020-07-09T11:29:19Z</time>
      </trkpt>
      <trkpt lat="41.6310360" lon="2.1212020">
        <ele>277.7</ele>
        <time>2020-07-09T11:29:20Z</time>
      </trkpt>
      <trkpt lat="41.6310470" lon="2.1211970">
        <ele>277.6</ele>
        <time>2020-07-09T11:29:21Z</time>
      </trkpt>
      <trkpt lat="41.6310580" lon="2.1211920">
        <ele>277.6</ele>
        <time>2020-07-09T11:29:22Z</time>
      </trkpt>
      <trkpt lat="41.6310690" lon="2.1211860">
        <ele>277.6</ele>
        <time>2020-07-09T11:29:23Z</time>
      </trkpt>
      <trkpt lat="41.6310800" lon="2.1211800">
        <ele>277.6</ele>
        <time>2020-07-09T11:29:24Z</time>
      </trkpt>
      <trkpt lat="41.6310910" lon="2.1211740">
        <ele>277.5</ele>
        <time>2020-07-09T11:29:25Z</time>
      </trkpt>
      <trkpt lat="41.6311020" lon="2.1211670">
        <ele>277.5</ele>
        <time>2020-07-09T11:29:26Z</time>
      </trkpt>
      <trkpt lat="41.6311140" lon="2.1211610">
        <ele>277.5</ele>
        <time>2020-07-09T11:29:27Z</time>
      </trkpt>
      <trkpt lat="41.6311260" lon="2.1211540">
        <ele>277.4</ele>
        <time>2020-07-09T11:29:28Z</time>
      </trkpt>
      <trkpt lat="41.6311380" lon="2.1211470">
        <ele>277.4</ele>
        <time>2020-07-09T11:29:29Z</time>
      </trkpt>
      <trkpt lat="41.6311510" lon="2.1211400">
        <ele>277.3</ele>
        <time>2020-07-09T11:29:30Z</time>
      </trkpt>
      <trkpt lat="41.6311630" lon="2.1211320">
        <ele>277.3</ele>
        <time>2020-07-09T11:29:31Z</time>
      </trkpt>
      <trkpt lat="41.6311760" lon="2.1211240">
        <ele>277.3</ele>
        <time>2020-07-09T11:29:32Z</time>
      </trkpt>
      <trkpt lat="41.6311880" lon="2.1211150">
        <ele>277.2</ele>
        <time>2020-07-09T11:29:33Z</time>
      </trkpt>
      <trkpt lat="41.6312000" lon="2.1211070">
        <ele>277.2</ele>
        <time>2020-07-09T11:29:34Z</time>
      </trkpt>
      <trkpt lat="41.6312120" lon="2.1210980">
        <ele>277.2</ele>
        <time>2020-07-09T11:29:35Z</time>
      </trkpt>
      <trkpt lat="41.6312240" lon="2.1210880">
        <ele>277.2</ele>
        <time>2020-07-09T11:29:36Z</time>
      </trkpt>
      <trkpt lat="41.6312350" lon="2.1210790">
        <ele>277.1</ele>
        <time>2020-07-09T11:29:37Z</time>
      </trkpt>
      <trkpt lat="41.6312470" lon="2.1210690">
        <ele>277.1</ele>
        <time>2020-07-09T11:29:38Z</time>
      </trkpt>
      <trkpt lat="41.6312580" lon="2.1210590">
        <ele>277.1</ele>
        <time>2020-07-09T11:29:39Z</time>
      </trkpt>
      <trkpt lat="41.6312700" lon="2.1210500">
        <ele>277.1</ele>
        <time>2020-07-09T11:29:40Z</time>
      </trkpt>
      <trkpt lat="41.6312820" lon="2.1210420">
        <ele>277.0</ele>
        <time>2020-07-09T11:29:41Z</time>
      </trkpt>
      <trkpt lat="41.6312950" lon="2.1210340">
        <ele>277.0</ele>
        <time>2020-07-09T11:29:42Z</time>
      </trkpt>
      <trkpt lat="41.6313090" lon="2.1210270">
        <ele>277.0</ele>
        <time>2020-07-09T11:29:43Z</time>
      </trkpt>
      <trkpt lat="41.6313250" lon="2.1210210">
        <ele>277.0</ele>
        <time>2020-07-09T11:29:44Z</time>
      </trkpt>
      <trkpt lat="41.6313410" lon="2.1210160">
        <ele>277.0</ele>
        <time>2020-07-09T11:29:45Z</time>
      </trkpt>
      <trkpt lat="41.6313580" lon="2.1210120">
        <ele>276.9</ele>
        <time>2020-07-09T11:29:46Z</time>
      </trkpt>
      <trkpt lat="41.6313760" lon="2.1210100">
        <ele>276.9</ele>
        <time>2020-07-09T11:29:47Z</time>
      </trkpt>
      <trkpt lat="41.6313940" lon="2.1210080">
        <ele>276.9</ele>
        <time>2020-07-09T11:29:48Z</time>
      </trkpt>
      <trkpt lat="41.6314120" lon="2.1210060">
        <ele>276.9</ele>
        <time>2020-07-09T11:29:49Z</time>
      </trkpt>
      <trkpt lat="41.6314300" lon="2.1210050">
        <ele>276.9</ele>
        <time>2020-07-09T11:29:50Z</time>
      </trkpt>
      <trkpt lat="41.6314480" lon="2.1210030">
        <ele>276.9</ele>
        <time>2020-07-09T11:29:51Z</time>
      </trkpt>
      <trkpt lat="41.6314640" lon="2.1210020">
        <ele>276.9</ele>
        <time>2020-07-09T11:29:52Z</time>
      </trkpt>
      <trkpt lat="41.6314800" lon="2.1210000">
        <ele>276.9</ele>
        <time>2020-07-09T11:29:53Z</time>
      </trkpt>
      <trkpt lat="41.6314940" lon="2.1209970">
        <ele>276.9</ele>
        <time>2020-07-09T11:29:54Z</time>
      </trkpt>
      <trkpt lat="41.6315080" lon="2.1209940">
        <ele>276.9</ele>
        <time>2020-07-09T11:29:55Z</time>
      </trkpt>
      <trkpt lat="41.6315200" lon="2.1209920">
        <ele>276.9</ele>
        <time>2020-07-09T11:29:56Z</time>
      </trkpt>
      <trkpt lat="41.6315330" lon="2.1209900">
        <ele>276.9</ele>
        <time>2020-07-09T11:29:57Z</time>
      </trkpt>
      <trkpt lat="41.6315470" lon="2.1209890">
        <ele>276.9</ele>
        <time>2020-07-09T11:29:58Z</time>
      </trkpt>
      <trkpt lat="41.6315610" lon="2.1209900">
        <ele>277.0</ele>
        <time>2020-07-09T11:29:59Z</time>
      </trkpt>
      <trkpt lat="41.6315750" lon="2.1209920">
        <ele>277.0</ele>
        <time>2020-07-09T11:30:00Z</time>
      </trkpt>
      <trkpt lat="41.6315910" lon="2.1209950">
        <ele>277.0</ele>
        <time>2020-07-09T11:30:01Z</time>
      </trkpt>
      <trkpt lat="41.6316070" lon="2.1209980">
        <ele>277.1</ele>
        <time>2020-07-09T11:30:02Z</time>
      </trkpt>
      <trkpt lat="41.6316230" lon="2.1210010">
        <ele>277.1</ele>
        <time>2020-07-09T11:30:03Z</time>
      </trkpt>
      <trkpt lat="41.6316390" lon="2.1210050">
        <ele>277.2</ele>
        <time>2020-07-09T11:30:04Z</time>
      </trkpt>
      <trkpt lat="41.6316560" lon="2.1210090">
        <ele>277.2</ele>
        <time>2020-07-09T11:30:05Z</time>
      </trkpt>
      <trkpt lat="41.6316720" lon="2.1210130">
        <ele>277.3</ele>
        <time>2020-07-09T11:30:06Z</time>
      </trkpt>
      <trkpt lat="41.6316890" lon="2.1210180">
        <ele>277.3</ele>
        <time>2020-07-09T11:30:07Z</time>
      </trkpt>
      <trkpt lat="41.6317050" lon="2.1210230">
        <ele>277.4</ele>
        <time>2020-07-09T11:30:08Z</time>
      </trkpt>
      <trkpt lat="41.6317210" lon="2.1210290">
        <ele>277.4</ele>
        <time>2020-07-09T11:30:09Z</time>
      </trkpt>
      <trkpt lat="41.6317360" lon="2.1210360">
        <ele>277.5</ele>
        <time>2020-07-09T11:30:10Z</time>
      </trkpt>
      <trkpt lat="41.6317520" lon="2.1210440">
        <ele>277.6</ele>
        <time>2020-07-09T11:30:11Z</time>
      </trkpt>
      <trkpt lat="41.6317660" lon="2.1210530">
        <ele>277.6</ele>
        <time>2020-07-09T11:30:12Z</time>
      </trkpt>
      <trkpt lat="41.6317800" lon="2.1210620">
        <ele>277.7</ele>
        <time>2020-07-09T11:30:13Z</time>
      </trkpt>
      <trkpt lat="41.6317940" lon="2.1210720">
        <ele>277.7</ele>
        <time>2020-07-09T11:30:14Z</time>
      </trkpt>
      <trkpt lat="41.6318070" lon="2.1210830">
        <ele>277.8</ele>
        <time>2020-07-09T11:30:15Z</time>
      </trkpt>
      <trkpt lat="41.6318190" lon="2.1210950">
        <ele>277.8</ele>
        <time>2020-07-09T11:30:16Z</time>
      </trkpt>
      <trkpt lat="41.6318310" lon="2.1211060">
        <ele>277.9</ele>
        <time>2020-07-09T11:30:17Z</time>
      </trkpt>
      <trkpt lat="41.6318430" lon="2.1211180">
        <ele>277.9</ele>
        <time>2020-07-09T11:30:18Z</time>
      </trkpt>
      <trkpt lat="41.6318540" lon="2.1211300">
        <ele>278.0</ele>
        <time>2020-07-09T11:30:19Z</time>
      </trkpt>
      <trkpt lat="41.6318650" lon="2.1211410">
        <ele>278.1</ele>
        <time>2020-07-09T11:30:20Z</time>
      </trkpt>
      <trkpt lat="41.6318750" lon="2.1211530">
        <ele>278.1</ele>
        <time>2020-07-09T11:30:21Z</time>
      </trkpt>
      <trkpt lat="41.6318860" lon="2.1211640">
        <ele>278.2</ele>
        <time>2020-07-09T11:30:22Z</time>
      </trkpt>
      <trkpt lat="41.6318960" lon="2.1211760">
        <ele>278.2</ele>
        <time>2020-07-09T11:30:23Z</time>
      </trkpt>
      <trkpt lat="41.6319070" lon="2.1211880">
        <ele>278.3</ele>
        <time>2020-07-09T11:30:24Z</time>
      </trkpt>
      <trkpt lat="41.6319180" lon="2.1212010">
        <ele>278.4</ele>
        <time>2020-07-09T11:30:25Z</time>
      </trkpt>
      <trkpt lat="41.6319290" lon="2.1212150">
        <ele>278.4</ele>
        <time>2020-07-09T11:30:26Z</time>
      </trkpt>
      <trkpt lat="41.6319420" lon="2.1212290">
        <ele>278.5</ele>
        <time>2020-07-09T11:30:27Z</time>
      </trkpt>
      <trkpt lat="41.6319560" lon="2.1212450">
        <ele>278.6</ele>
        <time>2020-07-09T11:30:28Z</time>
      </trkpt>
      <trkpt lat="41.6319710" lon="2.1212620">
        <ele>278.7</ele>
        <time>2020-07-09T11:30:29Z</time>
      </trkpt>
      <trkpt lat="41.6319860" lon="2.1212800">
        <ele>278.8</ele>
        <time>2020-07-09T11:30:30Z</time>
      </trkpt>
      <trkpt lat="41.6320000" lon="2.1212960">
        <ele>279.4</ele>
        <time>2020-07-09T11:30:31Z</time>
      </trkpt>
      <trkpt lat="41.6320130" lon="2.1213110">
        <ele>279.8</ele>
        <time>2020-07-09T11:30:32Z</time>
      </trkpt>
      <trkpt lat="41.6320240" lon="2.1213230">
        <ele>280.0</ele>
        <time>2020-07-09T11:30:33Z</time>
      </trkpt>
      <trkpt lat="41.6320310" lon="2.1213310">
        <ele>280.2</ele>
        <time>2020-07-09T11:30:34Z</time>
      </trkpt>
      <trkpt lat="41.6320350" lon="2.1213360">
        <ele>280.3</ele>
        <time>2020-07-09T11:30:35Z</time>
      </trkpt>
      <trkpt lat="41.6320370" lon="2.1213390">
        <ele>280.3</ele>
        <time>2020-07-09T11:30:36Z</time>
      </trkpt>
      <trkpt lat="41.6320390" lon="2.1213400">
        <ele>280.4</ele>
        <time>2020-07-09T11:30:37Z</time>
      </trkpt>
      <trkpt lat="41.6320390" lon="2.1213410">
        <ele>280.4</ele>
        <time>2020-07-09T11:30:38Z</time>
      </trkpt>
      <trkpt lat="41.6320390" lon="2.1213410">
        <ele>280.4</ele>
        <time>2020-07-09T11:30:39Z</time>
      </trkpt>
      <trkpt lat="41.6320390" lon="2.1213410">
        <ele>280.4</ele>
        <time>2020-07-09T11:30:40Z</time>
      </trkpt>
      <trkpt lat="41.6320390" lon="2.1213410">
        <ele>280.4</ele>
        <time>2020-07-09T11:30:41Z</time>
      </trkpt>
      <trkpt lat="41.6320390" lon="2.1213410">
        <ele>280.4</ele>
        <time>2020-07-09T11:30:42Z</time>
      </trkpt>
      <trkpt lat="41.6320390" lon="2.1213410">
        <ele>280.4</ele>
        <time>2020-07-09T11:30:43Z</time>
      </trkpt>
      <trkpt lat="41.6320390" lon="2.1213410">
        <ele>280.4</ele>
        <time>2020-07-09T11:30:44Z</time>
      </trkpt>
      <trkpt lat="41.6320390" lon="2.1213410">
        <ele>280.4</ele>
        <time>2020-07-09T11:30:45Z</time>
      </trkpt>
      <trkpt lat="41.6320390" lon="2.1213410">
        <ele>280.4</ele>
        <time>2020-07-09T11:30:46Z</time>
      </trkpt>
      <trkpt lat="41.6320390" lon="2.1213410">
        <ele>280.4</ele>
        <time>2020-07-09T11:30:47Z</time>
      </trkpt>
      <trkpt lat="41.6320390" lon="2.1213410">
        <ele>280.4</ele>
        <time>2020-07-09T11:30:48Z</time>
      </trkpt>
      <trkpt lat="41.6320390" lon="2.1213410">
        <ele>280.4</ele>
        <time>2020-07-09T11:30:49Z</time>
      </trkpt>
      <trkpt lat="41.6320390" lon="2.1213410">
        <ele>280.4</ele>
        <time>2020-07-09T11:30:50Z</time>
      </trkpt>
      <trkpt lat="41.6320390" lon="2.1213410">
        <ele>280.4</ele>
        <time>2020-07-09T11:30:51Z</time>
      </trkpt>
      <trkpt lat="41.6320390" lon="2.1213410">
        <ele>280.4</ele>
        <time>2020-07-09T11:30:52Z</time>
      </trkpt>
      <trkpt lat="41.6320390" lon="2.1213400">
        <ele>280.4</ele>
        <time>2020-07-09T11:30:53Z</time>
      </trkpt>
      <trkpt lat="41.6320400" lon="2.1213380">
        <ele>280.5</ele>
        <time>2020-07-09T11:30:54Z</time>
      </trkpt>
      <trkpt lat="41.6320410" lon="2.1213360">
        <ele>280.5</ele>
        <time>2020-07-09T11:30:55Z</time>
      </trkpt>
      <trkpt lat="41.6320420" lon="2.1213310">
        <ele>280.6</ele>
        <time>2020-07-09T11:30:56Z</time>
      </trkpt>
      <trkpt lat="41.6320440" lon="2.1213250">
        <ele>280.6</ele>
        <time>2020-07-09T11:30:57Z</time>
      </trkpt>
      <trkpt lat="41.6320470" lon="2.1213190">
        <ele>280.7</ele>
        <time>2020-07-09T11:30:58Z</time>
      </trkpt>
      <trkpt lat="41.6320500" lon="2.1213110">
        <ele>280.9</ele>
        <time>2020-07-09T11:30:59Z</time>
      </trkpt>
      <trkpt lat="41.6320540" lon="2.1213040">
        <ele>281.0</ele>
        <time>2020-07-09T11:31:00Z</time>
      </trkpt>
      <trkpt lat="41.6320590" lon="2.1212960">
        <ele>281.1</ele>
        <time>2020-07-09T11:31:01Z</time>
      </trkpt>
      <trkpt lat="41.6320650" lon="2.1212890">
        <ele>281.3</ele>
        <time>2020-07-09T11:31:02Z</time>
      </trkpt>
      <trkpt lat="41.6320710" lon="2.1212830">
        <ele>281.4</ele>
        <time>2020-07-09T11:31:03Z</time>
      </trkpt>
      <trkpt lat="41.6320790" lon="2.1212780">
        <ele>281.5</ele>
        <time>2020-07-09T11:31:04Z</time>
      </trkpt>
      <trkpt lat="41.6320870" lon="2.1212750">
        <ele>281.7</ele>
        <time>2020-07-09T11:31:05Z</time>
      </trkpt>
      <trkpt lat="41.6320960" lon="2.1212720">
        <ele>281.8</ele>
        <time>2020-07-09T11:31:06Z</time>
      </trkpt>
      <trkpt lat="41.6321060" lon="2.1212700">
        <ele>282.0</ele>
        <time>2020-07-09T11:31:07Z</time>
      </trkpt>
      <trkpt lat="41.6321170" lon="2.1212690">
        <ele>282.2</ele>
        <time>2020-07-09T11:31:08Z</time>
      </trkpt>
      <trkpt lat="41.6321270" lon="2.1212680">
        <ele>282.3</ele>
        <time>2020-07-09T11:31:09Z</time>
      </trkpt>
      <trkpt lat="41.6321380" lon="2.1212680">
        <ele>282.5</ele>
        <time>2020-07-09T11:31:10Z</time>
      </trkpt>
      <trkpt lat="41.6321500" lon="2.1212680">
        <ele>282.7</ele>
        <time>2020-07-09T11:31:11Z</time>
      </trkpt>
      <trkpt lat="41.6321610" lon="2.1212680">
        <ele>282.9</ele>
        <time>2020-07-09T11:31:12Z</time>
      </trkpt>
      <trkpt lat="41.6321730" lon="2.1212690">
        <ele>283.1</ele>
        <time>2020-07-09T11:31:13Z</time>
      </trkpt>
      <trkpt lat="41.6321840" lon="2.1212690">
        <ele>283.2</ele>
        <time>2020-07-09T11:31:14Z</time>
      </trkpt>
      <trkpt lat="41.6321950" lon="2.1212680">
        <ele>283.4</ele>
        <time>2020-07-09T11:31:15Z</time>
      </trkpt>
      <trkpt lat="41.6322060" lon="2.1212680">
        <ele>283.5</ele>
        <time>2020-07-09T11:31:16Z</time>
      </trkpt>
      <trkpt lat="41.6322160" lon="2.1212660">
        <ele>283.7</ele>
        <time>2020-07-09T11:31:17Z</time>
      </trkpt>
      <trkpt lat="41.6322260" lon="2.1212640">
        <ele>283.8</ele>
        <time>2020-07-09T11:31:18Z</time>
      </trkpt>
      <trkpt lat="41.6322350" lon="2.1212610">
        <ele>284.0</ele>
        <time>2020-07-09T11:31:19Z</time>
      </trkpt>
      <trkpt lat="41.6322430" lon="2.1212570">
        <ele>284.1</ele>
        <time>2020-07-09T11:31:20Z</time>
      </trkpt>
      <trkpt lat="41.6322510" lon="2.1212520">
        <ele>284.2</ele>
        <time>2020-07-09T11:31:21Z</time>
      </trkpt>
      <trkpt lat="41.6322570" lon="2.1212450">
        <ele>284.3</ele>
        <time>2020-07-09T11:31:22Z</time>
      </trkpt>
      <trkpt lat="41.6322630" lon="2.1212380">
        <ele>284.7</ele>
        <time>2020-07-09T11:31:23Z</time>
      </trkpt>
      <trkpt lat="41.6322670" lon="2.1212290">
        <ele>284.8</ele>
        <time>2020-07-09T11:31:24Z</time>
      </trkpt>
      <trkpt lat="41.6322710" lon="2.1212190">
        <ele>284.9</ele>
        <time>2020-07-09T11:31:25Z</time>
      </trkpt>
      <trkpt lat="41.6322730" lon="2.1212090">
        <ele>285.0</ele>
        <time>2020-07-09T11:31:26Z</time>
      </trkpt>
      <trkpt lat="41.6322750" lon="2.1211980">
        <ele>285.0</ele>
        <time>2020-07-09T11:31:27Z</time>
      </trkpt>
      <trkpt lat="41.6322750" lon="2.1211860">
        <ele>285.1</ele>
        <time>2020-07-09T11:31:28Z</time>
      </trkpt>
      <trkpt lat="41.6322740" lon="2.1211750">
        <ele>285.2</ele>
        <time>2020-07-09T11:31:29Z</time>
      </trkpt>
      <trkpt lat="41.6322730" lon="2.1211630">
        <ele>285.3</ele>
        <time>2020-07-09T11:31:30Z</time>
      </trkpt>
      <trkpt lat="41.6322700" lon="2.1211510">
        <ele>285.3</ele>
        <time>2020-07-09T11:31:31Z</time>
      </trkpt>
      <trkpt lat="41.6322670" lon="2.1211390">
        <ele>285.4</ele>
        <time>2020-07-09T11:31:32Z</time>
      </trkpt>
      <trkpt lat="41.6322640" lon="2.1211260">
        <ele>285.5</ele>
        <time>2020-07-09T11:31:33Z</time>
      </trkpt>
      <trkpt lat="41.6322610" lon="2.1211140">
        <ele>285.5</ele>
        <time>2020-07-09T11:31:34Z</time>
      </trkpt>
      <trkpt lat="41.6322600" lon="2.1211000">
        <ele>285.6</ele>
        <time>2020-07-09T11:31:35Z</time>
      </trkpt>
      <trkpt lat="41.6322610" lon="2.1210860">
        <ele>285.7</ele>
        <time>2020-07-09T11:31:36Z</time>
      </trkpt>
      <trkpt lat="41.6322640" lon="2.1210710">
        <ele>285.8</ele>
        <time>2020-07-09T11:31:37Z</time>
      </trkpt>
      <trkpt lat="41.6322710" lon="2.1210550">
        <ele>285.8</ele>
        <time>2020-07-09T11:31:38Z</time>
      </trkpt>
      <trkpt lat="41.6322800" lon="2.1210380">
        <ele>285.9</ele>
        <time>2020-07-09T11:31:39Z</time>
      </trkpt>
      <trkpt lat="41.6322920" lon="2.1210200">
        <ele>286.0</ele>
        <time>2020-07-09T11:31:40Z</time>
      </trkpt>
      <trkpt lat="41.6323040" lon="2.1210030">
        <ele>286.1</ele>
        <time>2020-07-09T11:31:41Z</time>
      </trkpt>
      <trkpt lat="41.6323150" lon="2.1209880">
        <ele>286.1</ele>
        <time>2020-07-09T11:31:42Z</time>
      </trkpt>
      <trkpt lat="41.6323240" lon="2.1209750">
        <ele>286.2</ele>
        <time>2020-07-09T11:31:43Z</time>
      </trkpt>
      <trkpt lat="41.6323290" lon="2.1209660">
        <ele>286.2</ele>
        <time>2020-07-09T11:31:44Z</time>
      </trkpt>
      <trkpt lat="41.6323310" lon="2.1209580">
        <ele>286.2</ele>
        <time>2020-07-09T11:31:45Z</time>
      </trkpt>
      <trkpt lat="41.6323330" lon="2.1209510">
        <ele>286.2</ele>
        <time>2020-07-09T11:31:46Z</time>
      </trkpt>
      <trkpt lat="41.6323360" lon="2.1209440">
        <ele>286.2</ele>
        <time>2020-07-09T11:31:47Z</time>
      </trkpt>
      <trkpt lat="41.6323420" lon="2.1209340">
        <ele>286.3</ele>
        <time>2020-07-09T11:31:48Z</time>
      </trkpt>
      <trkpt lat="41.6323510" lon="2.1209230">
        <ele>286.3</ele>
        <time>2020-07-09T11:31:49Z</time>
      </trkpt>
      <trkpt lat="41.6323620" lon="2.1209110">
        <ele>286.3</ele>
        <time>2020-07-09T11:31:50Z</time>
      </trkpt>
      <trkpt lat="41.6323740" lon="2.1208970">
        <ele>286.3</ele>
        <time>2020-07-09T11:31:51Z</time>
      </trkpt>
      <trkpt lat="41.6323870" lon="2.1208830">
        <ele>286.3</ele>
        <time>2020-07-09T11:31:52Z</time>
      </trkpt>
      <trkpt lat="41.6324010" lon="2.1208680">
        <ele>286.3</ele>
        <time>2020-07-09T11:31:53Z</time>
      </trkpt>
      <trkpt lat="41.6324150" lon="2.1208530">
        <ele>286.3</ele>
        <time>2020-07-09T11:31:54Z</time>
      </trkpt>
      <trkpt lat="41.6324290" lon="2.1208380">
        <ele>286.3</ele>
        <time>2020-07-09T11:31:55Z</time>
      </trkpt>
      <trkpt lat="41.6324420" lon="2.1208240">
        <ele>286.3</ele>
        <time>2020-07-09T11:31:56Z</time>
      </trkpt>
      <trkpt lat="41.6324530" lon="2.1208110">
        <ele>286.3</ele>
        <time>2020-07-09T11:31:57Z</time>
      </trkpt>
      <trkpt lat="41.6324630" lon="2.1207990">
        <ele>286.3</ele>
        <time>2020-07-09T11:31:58Z</time>
      </trkpt>
      <trkpt lat="41.6324730" lon="2.1207880">
        <ele>286.2</ele>
        <time>2020-07-09T11:31:59Z</time>
      </trkpt>
      <trkpt lat="41.6324820" lon="2.1207770">
        <ele>286.2</ele>
        <time>2020-07-09T11:32:00Z</time>
      </trkpt>
      <trkpt lat="41.6324900" lon="2.1207670">
        <ele>286.2</ele>
        <time>2020-07-09T11:32:01Z</time>
      </trkpt>
      <trkpt lat="41.6324990" lon="2.1207570">
        <ele>286.2</ele>
        <time>2020-07-09T11:32:02Z</time>
      </trkpt>
      <trkpt lat="41.6325070" lon="2.1207470">
        <ele>286.2</ele>
        <time>2020-07-09T11:32:03Z</time>
      </trkpt>
      <trkpt lat="41.6325160" lon="2.1207380">
        <ele>286.2</ele>
        <time>2020-07-09T11:32:04Z</time>
      </trkpt>
      <trkpt lat="41.6325260" lon="2.1207280">
        <ele>286.1</ele>
        <time>2020-07-09T11:32:05Z</time>
      </trkpt>
      <trkpt lat="41.6325370" lon="2.1207180">
        <ele>286.1</ele>
        <time>2020-07-09T11:32:06Z</time>
      </trkpt>
      <trkpt lat="41.6325490" lon="2.1207080">
        <ele>286.1</ele>
        <time>2020-07-09T11:32:07Z</time>
      </trkpt>
      <trkpt lat="41.6325620" lon="2.1206990">
        <ele>286.1</ele>
        <time>2020-07-09T11:32:08Z</time>
      </trkpt>
      <trkpt lat="41.6325750" lon="2.1206890">
        <ele>286.0</ele>
        <time>2020-07-09T11:32:09Z</time>
      </trkpt>
      <trkpt lat="41.6325890" lon="2.1206790">
        <ele>286.0</ele>
        <time>2020-07-09T11:32:10Z</time>
      </trkpt>
      <trkpt lat="41.6326030" lon="2.1206690">
        <ele>286.0</ele>
        <time>2020-07-09T11:32:11Z</time>
      </trkpt>
      <trkpt lat="41.6326170" lon="2.1206590">
        <ele>286.0</ele>
        <time>2020-07-09T11:32:12Z</time>
      </trkpt>
      <trkpt lat="41.6326310" lon="2.1206490">
        <ele>286.0</ele>
        <time>2020-07-09T11:32:13Z</time>
      </trkpt>
      <trkpt lat="41.6326450" lon="2.1206400">
        <ele>285.9</ele>
        <time>2020-07-09T11:32:14Z</time>
      </trkpt>
      <trkpt lat="41.6326580" lon="2.1206310">
        <ele>285.9</ele>
        <time>2020-07-09T11:32:15Z</time>
      </trkpt>
      <trkpt lat="41.6326710" lon="2.1206220">
        <ele>285.9</ele>
        <time>2020-07-09T11:32:16Z</time>
      </trkpt>
      <trkpt lat="41.6326840" lon="2.1206130">
        <ele>285.9</ele>
        <time>2020-07-09T11:32:17Z</time>
      </trkpt>
      <trkpt lat="41.6326960" lon="2.1206040">
        <ele>285.9</ele>
        <time>2020-07-09T11:32:18Z</time>
      </trkpt>
      <trkpt lat="41.6327080" lon="2.1205960">
        <ele>285.9</ele>
        <time>2020-07-09T11:32:19Z</time>
      </trkpt>
      <trkpt lat="41.6327190" lon="2.1205870">
        <ele>285.9</ele>
        <time>2020-07-09T11:32:20Z</time>
      </trkpt>
      <trkpt lat="41.6327300" lon="2.1205780">
        <ele>285.9</ele>
        <time>2020-07-09T11:32:21Z</time>
      </trkpt>
      <trkpt lat="41.6327410" lon="2.1205690">
        <ele>285.9</ele>
        <time>2020-07-09T11:32:22Z</time>
      </trkpt>
      <trkpt lat="41.6327510" lon="2.1205600">
        <ele>285.9</ele>
        <time>2020-07-09T11:32:23Z</time>
      </trkpt>
      <trkpt lat="41.6327610" lon="2.1205510">
        <ele>285.9</ele>
        <time>2020-07-09T11:32:24Z</time>
      </trkpt>
      <trkpt lat="41.6327700" lon="2.1205420">
        <ele>285.9</ele>
        <time>2020-07-09T11:32:25Z</time>
      </trkpt>
      <trkpt lat="41.6327790" lon="2.1205320">
        <ele>285.9</ele>
        <time>2020-07-09T11:32:26Z</time>
      </trkpt>
      <trkpt lat="41.6327880" lon="2.1205230">
        <ele>285.9</ele>
        <time>2020-07-09T11:32:27Z</time>
      </trkpt>
      <trkpt lat="41.6327970" lon="2.1205130">
        <ele>285.9</ele>
        <time>2020-07-09T11:32:28Z</time>
      </trkpt>
      <trkpt lat="41.6328070" lon="2.1205040">
        <ele>285.9</ele>
        <time>2020-07-09T11:32:29Z</time>
      </trkpt>
      <trkpt lat="41.6328170" lon="2.1204940">
        <ele>285.9</ele>
        <time>2020-07-09T11:32:30Z</time>
      </trkpt>
      <trkpt lat="41.6328270" lon="2.1204850">
        <ele>285.9</ele>
        <time>2020-07-09T11:32:31Z</time>
      </trkpt>
      <trkpt lat="41.6328370" lon="2.1204770">
        <ele>285.9</ele>
        <time>2020-07-09T11:32:32Z</time>
      </trkpt>
      <trkpt lat="41.6328490" lon="2.1204690">
        <ele>285.9</ele>
        <time>2020-07-09T11:32:33Z</time>
      </trkpt>
      <trkpt lat="41.6328610" lon="2.1204610">
        <ele>285.9</ele>
        <time>2020-07-09T11:32:34Z</time>
      </trkpt>
      <trkpt lat="41.6328740" lon="2.1204530">
        <ele>285.9</ele>
        <time>2020-07-09T11:32:35Z</time>
      </trkpt>
      <trkpt lat="41.6328870" lon="2.1204470">
        <ele>285.9</ele>
        <time>2020-07-09T11:32:36Z</time>
      </trkpt>
      <trkpt lat="41.6329000" lon="2.1204400">
        <ele>285.8</ele>
        <time>2020-07-09T11:32:37Z</time>
      </trkpt>
      <trkpt lat="41.6329140" lon="2.1204350">
        <ele>285.8</ele>
        <time>2020-07-09T11:32:38Z</time>
      </trkpt>
      <trkpt lat="41.6329350" lon="2.1204290">
        <ele>285.8</ele>
        <time>2020-07-09T11:32:39Z</time>
      </trkpt>
      <trkpt lat="41.6329420" lon="2.1204270">
        <ele>285.8</ele>
        <time>2020-07-09T11:32:40Z</time>
      </trkpt>
      <trkpt lat="41.6329560" lon="2.1204240">
        <ele>285.8</ele>
        <time>2020-07-09T11:32:41Z</time>
      </trkpt>
      <trkpt lat="41.6329700" lon="2.1204220">
        <ele>285.8</ele>
        <time>2020-07-09T11:32:42Z</time>
      </trkpt>
      <trkpt lat="41.6329840" lon="2.1204200">
        <ele>285.8</ele>
        <time>2020-07-09T11:32:43Z</time>
      </trkpt>
      <trkpt lat="41.6329980" lon="2.1204200">
        <ele>285.8</ele>
        <time>2020-07-09T11:32:44Z</time>
      </trkpt>
      <trkpt lat="41.6330120" lon="2.1204190">
        <ele>285.8</ele>
        <time>2020-07-09T11:32:45Z</time>
      </trkpt>
      <trkpt lat="41.6330250" lon="2.1204180">
        <ele>285.8</ele>
        <time>2020-07-09T11:32:46Z</time>
      </trkpt>
      <trkpt lat="41.6330390" lon="2.1204170">
        <ele>285.8</ele>
        <time>2020-07-09T11:32:47Z</time>
      </trkpt>
      <trkpt lat="41.6330520" lon="2.1204160">
        <ele>285.8</ele>
        <time>2020-07-09T11:32:48Z</time>
      </trkpt>
      <trkpt lat="41.6330650" lon="2.1204130">
        <ele>285.8</ele>
        <time>2020-07-09T11:32:49Z</time>
      </trkpt>
      <trkpt lat="41.6330780" lon="2.1204100">
        <ele>285.9</ele>
        <time>2020-07-09T11:32:50Z</time>
      </trkpt>
      <trkpt lat="41.6330910" lon="2.1204060">
        <ele>285.9</ele>
        <time>2020-07-09T11:32:51Z</time>
      </trkpt>
      <trkpt lat="41.6331040" lon="2.1204040">
        <ele>285.9</ele>
        <time>2020-07-09T11:32:52Z</time>
      </trkpt>
      <trkpt lat="41.6331170" lon="2.1204030">
        <ele>285.9</ele>
        <time>2020-07-09T11:32:53Z</time>
      </trkpt>
      <trkpt lat="41.6331300" lon="2.1204060">
        <ele>285.9</ele>
        <time>2020-07-09T11:32:54Z</time>
      </trkpt>
      <trkpt lat="41.6331440" lon="2.1204110">
        <ele>285.9</ele>
        <time>2020-07-09T11:32:55Z</time>
      </trkpt>
      <trkpt lat="41.6331580" lon="2.1204200">
        <ele>286.0</ele>
        <time>2020-07-09T11:32:56Z</time>
      </trkpt>
      <trkpt lat="41.6331720" lon="2.1204310">
        <ele>286.0</ele>
        <time>2020-07-09T11:32:57Z</time>
      </trkpt>
      <trkpt lat="41.6331860" lon="2.1204420">
        <ele>286.1</ele>
        <time>2020-07-09T11:32:58Z</time>
      </trkpt>
      <trkpt lat="41.6332000" lon="2.1204520">
        <ele>286.1</ele>
        <time>2020-07-09T11:32:59Z</time>
      </trkpt>
      <trkpt lat="41.6332150" lon="2.1204630">
        <ele>286.2</ele>
        <time>2020-07-09T11:33:00Z</time>
      </trkpt>
      <trkpt lat="41.6332290" lon="2.1204730">
        <ele>286.2</ele>
        <time>2020-07-09T11:33:01Z</time>
      </trkpt>
      <trkpt lat="41.6332430" lon="2.1204820">
        <ele>286.3</ele>
        <time>2020-07-09T11:33:02Z</time>
      </trkpt>
      <trkpt lat="41.6332570" lon="2.1204900">
        <ele>286.3</ele>
        <time>2020-07-09T11:33:03Z</time>
      </trkpt>
      <trkpt lat="41.6332700" lon="2.1204980">
        <ele>286.3</ele>
        <time>2020-07-09T11:33:04Z</time>
      </trkpt>
      <trkpt lat="41.6332840" lon="2.1205050">
        <ele>286.4</ele>
        <time>2020-07-09T11:33:05Z</time>
      </trkpt>
      <trkpt lat="41.6332970" lon="2.1205110">
        <ele>286.5</ele>
        <time>2020-07-09T11:33:06Z</time>
      </trkpt>
      <trkpt lat="41.6333100" lon="2.1205150">
        <ele>286.5</ele>
        <time>2020-07-09T11:33:07Z</time>
      </trkpt>
      <trkpt lat="41.6333220" lon="2.1205190">
        <ele>286.5</ele>
        <time>2020-07-09T11:33:08Z</time>
      </trkpt>
      <trkpt lat="41.6333340" lon="2.1205220">
        <ele>286.6</ele>
        <time>2020-07-09T11:33:09Z</time>
      </trkpt>
      <trkpt lat="41.6333460" lon="2.1205250">
        <ele>286.7</ele>
        <time>2020-07-09T11:33:10Z</time>
      </trkpt>
      <trkpt lat="41.6333570" lon="2.1205270">
        <ele>286.7</ele>
        <time>2020-07-09T11:33:11Z</time>
      </trkpt>
      <trkpt lat="41.6333690" lon="2.1205290">
        <ele>286.8</ele>
        <time>2020-07-09T11:33:12Z</time>
      </trkpt>
      <trkpt lat="41.6333800" lon="2.1205310">
        <ele>286.8</ele>
        <time>2020-07-09T11:33:13Z</time>
      </trkpt>
      <trkpt lat="41.6333920" lon="2.1205330">
        <ele>286.9</ele>
        <time>2020-07-09T11:33:14Z</time>
      </trkpt>
      <trkpt lat="41.6334040" lon="2.1205360">
        <ele>287.0</ele>
        <time>2020-07-09T11:33:15Z</time>
      </trkpt>
      <trkpt lat="41.6334160" lon="2.1205400">
        <ele>287.1</ele>
        <time>2020-07-09T11:33:16Z</time>
      </trkpt>
      <trkpt lat="41.6334280" lon="2.1205450">
        <ele>287.2</ele>
        <time>2020-07-09T11:33:17Z</time>
      </trkpt>
      <trkpt lat="41.6334410" lon="2.1205510">
        <ele>287.3</ele>
        <time>2020-07-09T11:33:18Z</time>
      </trkpt>
      <trkpt lat="41.6334530" lon="2.1205570">
        <ele>287.4</ele>
        <time>2020-07-09T11:33:19Z</time>
      </trkpt>
      <trkpt lat="41.6334660" lon="2.1205630">
        <ele>287.5</ele>
        <time>2020-07-09T11:33:20Z</time>
      </trkpt>
      <trkpt lat="41.6334800" lon="2.1205690">
        <ele>287.6</ele>
        <time>2020-07-09T11:33:21Z</time>
      </trkpt>
      <trkpt lat="41.6334930" lon="2.1205740">
        <ele>287.8</ele>
        <time>2020-07-09T11:33:22Z</time>
      </trkpt>
      <trkpt lat="41.6335070" lon="2.1205780">
        <ele>287.9</ele>
        <time>2020-07-09T11:33:23Z</time>
      </trkpt>
      <trkpt lat="41.6335200" lon="2.1205810">
        <ele>288.0</ele>
        <time>2020-07-09T11:33:24Z</time>
      </trkpt>
      <trkpt lat="41.6335340" lon="2.1205820">
        <ele>288.2</ele>
        <time>2020-07-09T11:33:25Z</time>
      </trkpt>
      <trkpt lat="41.6335470" lon="2.1205820">
        <ele>288.3</ele>
        <time>2020-07-09T11:33:26Z</time>
      </trkpt>
      <trkpt lat="41.6335610" lon="2.1205790">
        <ele>288.5</ele>
        <time>2020-07-09T11:33:27Z</time>
      </trkpt>
      <trkpt lat="41.6335740" lon="2.1205750">
        <ele>288.7</ele>
        <time>2020-07-09T11:33:28Z</time>
      </trkpt>
      <trkpt lat="41.6335870" lon="2.1205700">
        <ele>288.9</ele>
        <time>2020-07-09T11:33:29Z</time>
      </trkpt>
      <trkpt lat="41.6335990" lon="2.1205630">
        <ele>289.0</ele>
        <time>2020-07-09T11:33:30Z</time>
      </trkpt>
      <trkpt lat="41.6336110" lon="2.1205560">
        <ele>289.2</ele>
        <time>2020-07-09T11:33:31Z</time>
      </trkpt>
      <trkpt lat="41.6336220" lon="2.1205470">
        <ele>289.4</ele>
        <time>2020-07-09T11:33:32Z</time>
      </trkpt>
      <trkpt lat="41.6336330" lon="2.1205380">
        <ele>289.6</ele>
        <time>2020-07-09T11:33:33Z</time>
      </trkpt>
      <trkpt lat="41.6336430" lon="2.1205280">
        <ele>289.8</ele>
        <time>2020-07-09T11:33:34Z</time>
      </trkpt>
      <trkpt lat="41.6336520" lon="2.1205180">
        <ele>289.9</ele>
        <time>2020-07-09T11:33:35Z</time>
      </trkpt>
      <trkpt lat="41.6336610" lon="2.1205080">
        <ele>290.1</ele>
        <time>2020-07-09T11:33:36Z</time>
      </trkpt>
      <trkpt lat="41.6336690" lon="2.1204980">
        <ele>290.3</ele>
        <time>2020-07-09T11:33:37Z</time>
      </trkpt>
      <trkpt lat="41.6336770" lon="2.1204880">
        <ele>290.4</ele>
        <time>2020-07-09T11:33:38Z</time>
      </trkpt>
      <trkpt lat="41.6336840" lon="2.1204780">
        <ele>290.6</ele>
        <time>2020-07-09T11:33:39Z</time>
      </trkpt>
      <trkpt lat="41.6336920" lon="2.1204680">
        <ele>290.8</ele>
        <time>2020-07-09T11:33:40Z</time>
      </trkpt>
      <trkpt lat="41.6336990" lon="2.1204580">
        <ele>290.9</ele>
        <time>2020-07-09T11:33:41Z</time>
      </trkpt>
      <trkpt lat="41.6337070" lon="2.1204490">
        <ele>291.1</ele>
        <time>2020-07-09T11:33:42Z</time>
      </trkpt>
      <trkpt lat="41.6337150" lon="2.1204410">
        <ele>291.3</ele>
        <time>2020-07-09T11:33:43Z</time>
      </trkpt>
      <trkpt lat="41.6337240" lon="2.1204320">
        <ele>291.4</ele>
        <time>2020-07-09T11:33:44Z</time>
      </trkpt>
      <trkpt lat="41.6337330" lon="2.1204250">
        <ele>291.6</ele>
        <time>2020-07-09T11:33:45Z</time>
      </trkpt>
      <trkpt lat="41.6337420" lon="2.1204170">
        <ele>291.8</ele>
        <time>2020-07-09T11:33:46Z</time>
      </trkpt>
      <trkpt lat="41.6337520" lon="2.1204100">
        <ele>292.0</ele>
        <time>2020-07-09T11:33:47Z</time>
      </trkpt>
      <trkpt lat="41.6337630" lon="2.1204040">
        <ele>292.2</ele>
        <time>2020-07-09T11:33:48Z</time>
      </trkpt>
      <trkpt lat="41.6337730" lon="2.1203970">
        <ele>292.3</ele>
        <time>2020-07-09T11:33:49Z</time>
      </trkpt>
      <trkpt lat="41.6337840" lon="2.1203910">
        <ele>292.5</ele>
        <time>2020-07-09T11:33:50Z</time>
      </trkpt>
      <trkpt lat="41.6337950" lon="2.1203840">
        <ele>292.7</ele>
        <time>2020-07-09T11:33:51Z</time>
      </trkpt>
      <trkpt lat="41.6338060" lon="2.1203780">
        <ele>292.9</ele>
        <time>2020-07-09T11:33:52Z</time>
      </trkpt>
      <trkpt lat="41.6338170" lon="2.1203710">
        <ele>293.0</ele>
        <time>2020-07-09T11:33:53Z</time>
      </trkpt>
      <trkpt lat="41.6338280" lon="2.1203640">
        <ele>293.2</ele>
        <time>2020-07-09T11:33:54Z</time>
      </trkpt>
      <trkpt lat="41.6338390" lon="2.1203570">
        <ele>293.4</ele>
        <time>2020-07-09T11:33:55Z</time>
      </trkpt>
      <trkpt lat="41.6338500" lon="2.1203500">
        <ele>293.6</ele>
        <time>2020-07-09T11:33:56Z</time>
      </trkpt>
      <trkpt lat="41.6338600" lon="2.1203420">
        <ele>293.7</ele>
        <time>2020-07-09T11:33:57Z</time>
      </trkpt>
      <trkpt lat="41.6338710" lon="2.1203340">
        <ele>293.9</ele>
        <time>2020-07-09T11:33:58Z</time>
      </trkpt>
      <trkpt lat="41.6338810" lon="2.1203250">
        <ele>294.0</ele>
        <time>2020-07-09T11:33:59Z</time>
      </trkpt>
      <trkpt lat="41.6338910" lon="2.1203150">
        <ele>294.2</ele>
        <time>2020-07-09T11:34:00Z</time>
      </trkpt>
      <trkpt lat="41.6339010" lon="2.1203050">
        <ele>294.3</ele>
        <time>2020-07-09T11:34:01Z</time>
      </trkpt>
      <trkpt lat="41.6339100" lon="2.1202940">
        <ele>294.5</ele>
        <time>2020-07-09T11:34:02Z</time>
      </trkpt>
      <trkpt lat="41.6339190" lon="2.1202820">
        <ele>294.7</ele>
        <time>2020-07-09T11:34:03Z</time>
      </trkpt>
      <trkpt lat="41.6339280" lon="2.1202700">
        <ele>294.8</ele>
        <time>2020-07-09T11:34:04Z</time>
      </trkpt>
      <trkpt lat="41.6339360" lon="2.1202580">
        <ele>294.9</ele>
        <time>2020-07-09T11:34:05Z</time>
      </trkpt>
      <trkpt lat="41.6339450" lon="2.1202450">
        <ele>295.1</ele>
        <time>2020-07-09T11:34:06Z</time>
      </trkpt>
      <trkpt lat="41.6339530" lon="2.1202320">
        <ele>295.2</ele>
        <time>2020-07-09T11:34:07Z</time>
      </trkpt>
      <trkpt lat="41.6339610" lon="2.1202190">
        <ele>295.4</ele>
        <time>2020-07-09T11:34:08Z</time>
      </trkpt>
      <trkpt lat="41.6339690" lon="2.1202060">
        <ele>295.5</ele>
        <time>2020-07-09T11:34:09Z</time>
      </trkpt>
      <trkpt lat="41.6339770" lon="2.1201930">
        <ele>295.6</ele>
        <time>2020-07-09T11:34:10Z</time>
      </trkpt>
      <trkpt lat="41.6339850" lon="2.1201810">
        <ele>295.8</ele>
        <time>2020-07-09T11:34:11Z</time>
      </trkpt>
      <trkpt lat="41.6339930" lon="2.1201680">
        <ele>295.9</ele>
        <time>2020-07-09T11:34:12Z</time>
      </trkpt>
      <trkpt lat="41.6340010" lon="2.1201570">
        <ele>296.0</ele>
        <time>2020-07-09T11:34:13Z</time>
      </trkpt>
      <trkpt lat="41.6340100" lon="2.1201450">
        <ele>296.1</ele>
        <time>2020-07-09T11:34:14Z</time>
      </trkpt>
      <trkpt lat="41.6340180" lon="2.1201340">
        <ele>296.2</ele>
        <time>2020-07-09T11:34:15Z</time>
      </trkpt>
      <trkpt lat="41.6340270" lon="2.1201240">
        <ele>296.3</ele>
        <time>2020-07-09T11:34:16Z</time>
      </trkpt>
      <trkpt lat="41.6340360" lon="2.1201140">
        <ele>296.4</ele>
        <time>2020-07-09T11:34:17Z</time>
      </trkpt>
      <trkpt lat="41.6340450" lon="2.1201060">
        <ele>296.5</ele>
        <time>2020-07-09T11:34:18Z</time>
      </trkpt>
      <trkpt lat="41.6340540" lon="2.1200980">
        <ele>296.6</ele>
        <time>2020-07-09T11:34:19Z</time>
      </trkpt>
      <trkpt lat="41.6340640" lon="2.1200910">
        <ele>296.7</ele>
        <time>2020-07-09T11:34:20Z</time>
      </trkpt>
      <trkpt lat="41.6340740" lon="2.1200850">
        <ele>296.7</ele>
        <time>2020-07-09T11:34:21Z</time>
      </trkpt>
      <trkpt lat="41.6340850" lon="2.1200800">
        <ele>296.8</ele>
        <time>2020-07-09T11:34:22Z</time>
      </trkpt>
      <trkpt lat="41.6340960" lon="2.1200750">
        <ele>296.9</ele>
        <time>2020-07-09T11:34:23Z</time>
      </trkpt>
      <trkpt lat="41.6341060" lon="2.1200700">
        <ele>297.0</ele>
        <time>2020-07-09T11:34:24Z</time>
      </trkpt>
      <trkpt lat="41.6341180" lon="2.1200660">
        <ele>297.0</ele>
        <time>2020-07-09T11:34:25Z</time>
      </trkpt>
      <trkpt lat="41.6341290" lon="2.1200620">
        <ele>297.1</ele>
        <time>2020-07-09T11:34:26Z</time>
      </trkpt>
      <trkpt lat="41.6341410" lon="2.1200580">
        <ele>297.2</ele>
        <time>2020-07-09T11:34:27Z</time>
      </trkpt>
      <trkpt lat="41.6341520" lon="2.1200550">
        <ele>297.3</ele>
        <time>2020-07-09T11:34:28Z</time>
      </trkpt>
      <trkpt lat="41.6341640" lon="2.1200510">
        <ele>297.4</ele>
        <time>2020-07-09T11:34:29Z</time>
      </trkpt>
      <trkpt lat="41.6341760" lon="2.1200470">
        <ele>297.4</ele>
        <time>2020-07-09T11:34:30Z</time>
      </trkpt>
      <trkpt lat="41.6341890" lon="2.1200430">
        <ele>297.5</ele>
        <time>2020-07-09T11:34:31Z</time>
      </trkpt>
      <trkpt lat="41.6342010" lon="2.1200380">
        <ele>297.6</ele>
        <time>2020-07-09T11:34:32Z</time>
      </trkpt>
      <trkpt lat="41.6342130" lon="2.1200330">
        <ele>297.7</ele>
        <time>2020-07-09T11:34:33Z</time>
      </trkpt>
      <trkpt lat="41.6342260" lon="2.1200280">
        <ele>297.7</ele>
        <time>2020-07-09T11:34:34Z</time>
      </trkpt>
      <trkpt lat="41.6342390" lon="2.1200220">
        <ele>297.8</ele>
        <time>2020-07-09T11:34:35Z</time>
      </trkpt>
      <trkpt lat="41.6342510" lon="2.1200150">
        <ele>297.9</ele>
        <time>2020-07-09T11:34:36Z</time>
      </trkpt>
      <trkpt lat="41.6342640" lon="2.1200070">
        <ele>298.0</ele>
        <time>2020-07-09T11:34:37Z</time>
      </trkpt>
      <trkpt lat="41.6342770" lon="2.1199990">
        <ele>298.1</ele>
        <time>2020-07-09T11:34:38Z</time>
      </trkpt>
      <trkpt lat="41.6342890" lon="2.1199920">
        <ele>298.2</ele>
        <time>2020-07-09T11:34:39Z</time>
      </trkpt>
      <trkpt lat="41.6343020" lon="2.1199860">
        <ele>298.3</ele>
        <time>2020-07-09T11:34:40Z</time>
      </trkpt>
      <trkpt lat="41.6343140" lon="2.1199810">
        <ele>298.3</ele>
        <time>2020-07-09T11:34:41Z</time>
      </trkpt>
      <trkpt lat="41.6343260" lon="2.1199780">
        <ele>298.4</ele>
        <time>2020-07-09T11:34:42Z</time>
      </trkpt>
      <trkpt lat="41.6343370" lon="2.1199770">
        <ele>298.5</ele>
        <time>2020-07-09T11:34:43Z</time>
      </trkpt>
      <trkpt lat="41.6343490" lon="2.1199760">
        <ele>298.6</ele>
        <time>2020-07-09T11:34:44Z</time>
      </trkpt>
      <trkpt lat="41.6343600" lon="2.1199740">
        <ele>298.7</ele>
        <time>2020-07-09T11:34:45Z</time>
      </trkpt>
      <trkpt lat="41.6343720" lon="2.1199710">
        <ele>298.8</ele>
        <time>2020-07-09T11:34:46Z</time>
      </trkpt>
      <trkpt lat="41.6343840" lon="2.1199670">
        <ele>298.9</ele>
        <time>2020-07-09T11:34:47Z</time>
      </trkpt>
      <trkpt lat="41.6343970" lon="2.1199620">
        <ele>299.0</ele>
        <time>2020-07-09T11:34:48Z</time>
      </trkpt>
      <trkpt lat="41.6344100" lon="2.1199560">
        <ele>299.1</ele>
        <time>2020-07-09T11:34:49Z</time>
      </trkpt>
      <trkpt lat="41.6344230" lon="2.1199490">
        <ele>299.2</ele>
        <time>2020-07-09T11:34:50Z</time>
      </trkpt>
      <trkpt lat="41.6344360" lon="2.1199420">
        <ele>299.4</ele>
        <time>2020-07-09T11:34:51Z</time>
      </trkpt>
      <trkpt lat="41.6344490" lon="2.1199340">
        <ele>299.5</ele>
        <time>2020-07-09T11:34:52Z</time>
      </trkpt>
      <trkpt lat="41.6344620" lon="2.1199260">
        <ele>299.6</ele>
        <time>2020-07-09T11:34:53Z</time>
      </trkpt>
      <trkpt lat="41.6344750" lon="2.1199190">
        <ele>299.8</ele>
        <time>2020-07-09T11:34:54Z</time>
      </trkpt>
      <trkpt lat="41.6344880" lon="2.1199120">
        <ele>300.0</ele>
        <time>2020-07-09T11:34:55Z</time>
      </trkpt>
      <trkpt lat="41.6345000" lon="2.1199050">
        <ele>300.1</ele>
        <time>2020-07-09T11:34:56Z</time>
      </trkpt>
      <trkpt lat="41.6345130" lon="2.1198990">
        <ele>300.3</ele>
        <time>2020-07-09T11:34:57Z</time>
      </trkpt>
      <trkpt lat="41.6345250" lon="2.1198920">
        <ele>300.4</ele>
        <time>2020-07-09T11:34:58Z</time>
      </trkpt>
      <trkpt lat="41.6345370" lon="2.1198860">
        <ele>300.6</ele>
        <time>2020-07-09T11:34:59Z</time>
      </trkpt>
      <trkpt lat="41.6345480" lon="2.1198800">
        <ele>300.7</ele>
        <time>2020-07-09T11:35:00Z</time>
      </trkpt>
      <trkpt lat="41.6345590" lon="2.1198730">
        <ele>300.8</ele>
        <time>2020-07-09T11:35:01Z</time>
      </trkpt>
      <trkpt lat="41.6345700" lon="2.1198670">
        <ele>301.0</ele>
        <time>2020-07-09T11:35:02Z</time>
      </trkpt>
      <trkpt lat="41.6345810" lon="2.1198600">
        <ele>301.1</ele>
        <time>2020-07-09T11:35:03Z</time>
      </trkpt>
      <trkpt lat="41.6345910" lon="2.1198530">
        <ele>301.2</ele>
        <time>2020-07-09T11:35:04Z</time>
      </trkpt>
      <trkpt lat="41.6346000" lon="2.1198460">
        <ele>301.4</ele>
        <time>2020-07-09T11:35:05Z</time>
      </trkpt>
      <trkpt lat="41.6346090" lon="2.1198380">
        <ele>301.5</ele>
        <time>2020-07-09T11:35:06Z</time>
      </trkpt>
      <trkpt lat="41.6346170" lon="2.1198290">
        <ele>301.6</ele>
        <time>2020-07-09T11:35:07Z</time>
      </trkpt>
      <trkpt lat="41.6346250" lon="2.1198200">
        <ele>301.7</ele>
        <time>2020-07-09T11:35:08Z</time>
      </trkpt>
      <trkpt lat="41.6346320" lon="2.1198100">
        <ele>301.8</ele>
        <time>2020-07-09T11:35:09Z</time>
      </trkpt>
      <trkpt lat="41.6346380" lon="2.1198000">
        <ele>301.9</ele>
        <time>2020-07-09T11:35:10Z</time>
      </trkpt>
      <trkpt lat="41.6346440" lon="2.1197880">
        <ele>302.0</ele>
        <time>2020-07-09T11:35:11Z</time>
      </trkpt>
      <trkpt lat="41.6346490" lon="2.1197760">
        <ele>302.2</ele>
        <time>2020-07-09T11:35:12Z</time>
      </trkpt>
      <trkpt lat="41.6346530" lon="2.1197640">
        <ele>302.2</ele>
        <time>2020-07-09T11:35:13Z</time>
      </trkpt>
      <trkpt lat="41.6346580" lon="2.1197520">
        <ele>302.3</ele>
        <time>2020-07-09T11:35:14Z</time>
      </trkpt>
      <trkpt lat="41.6346640" lon="2.1197430">
        <ele>302.4</ele>
        <time>2020-07-09T11:35:15Z</time>
      </trkpt>
      <trkpt lat="41.6346720" lon="2.1197360">
        <ele>302.5</ele>
        <time>2020-07-09T11:35:16Z</time>
      </trkpt>
      <trkpt lat="41.6346810" lon="2.1197320">
        <ele>302.6</ele>
        <time>2020-07-09T11:35:17Z</time>
      </trkpt>
      <trkpt lat="41.6346920" lon="2.1197310">
        <ele>302.7</ele>
        <time>2020-07-09T11:35:18Z</time>
      </trkpt>
      <trkpt lat="41.6347040" lon="2.1197310">
        <ele>302.7</ele>
        <time>2020-07-09T11:35:19Z</time>
      </trkpt>
      <trkpt lat="41.6347170" lon="2.1197310">
        <ele>302.8</ele>
        <time>2020-07-09T11:35:20Z</time>
      </trkpt>
      <trkpt lat="41.6347290" lon="2.1197300">
        <ele>302.9</ele>
        <time>2020-07-09T11:35:21Z</time>
      </trkpt>
      <trkpt lat="41.6347430" lon="2.1197290">
        <ele>303.0</ele>
        <time>2020-07-09T11:35:22Z</time>
      </trkpt>
      <trkpt lat="41.6347560" lon="2.1197260">
        <ele>303.0</ele>
        <time>2020-07-09T11:35:23Z</time>
      </trkpt>
      <trkpt lat="41.6347690" lon="2.1197230">
        <ele>303.1</ele>
        <time>2020-07-09T11:35:24Z</time>
      </trkpt>
      <trkpt lat="41.6347820" lon="2.1197190">
        <ele>303.1</ele>
        <time>2020-07-09T11:35:25Z</time>
      </trkpt>
      <trkpt lat="41.6347960" lon="2.1197140">
        <ele>303.2</ele>
        <time>2020-07-09T11:35:26Z</time>
      </trkpt>
      <trkpt lat="41.6348090" lon="2.1197090">
        <ele>303.2</ele>
        <time>2020-07-09T11:35:27Z</time>
      </trkpt>
      <trkpt lat="41.6348220" lon="2.1197040">
        <ele>303.3</ele>
        <time>2020-07-09T11:35:28Z</time>
      </trkpt>
      <trkpt lat="41.6348340" lon="2.1196970">
        <ele>303.3</ele>
        <time>2020-07-09T11:35:29Z</time>
      </trkpt>
      <trkpt lat="41.6348470" lon="2.1196910">
        <ele>303.3</ele>
        <time>2020-07-09T11:35:30Z</time>
      </trkpt>
      <trkpt lat="41.6348590" lon="2.1196840">
        <ele>303.4</ele>
        <time>2020-07-09T11:35:31Z</time>
      </trkpt>
      <trkpt lat="41.6348710" lon="2.1196770">
        <ele>303.4</ele>
        <time>2020-07-09T11:35:32Z</time>
      </trkpt>
      <trkpt lat="41.6348830" lon="2.1196700">
        <ele>303.4</ele>
        <time>2020-07-09T11:35:33Z</time>
      </trkpt>
      <trkpt lat="41.6348940" lon="2.1196620">
        <ele>303.5</ele>
        <time>2020-07-09T11:35:34Z</time>
      </trkpt>
      <trkpt lat="41.6349050" lon="2.1196540">
        <ele>303.5</ele>
        <time>2020-07-09T11:35:35Z</time>
      </trkpt>
      <trkpt lat="41.6349160" lon="2.1196450">
        <ele>303.5</ele>
        <time>2020-07-09T11:35:36Z</time>
      </trkpt>
      <trkpt lat="41.6349270" lon="2.1196360">
        <ele>303.5</ele>
        <time>2020-07-09T11:35:37Z</time>
      </trkpt>
      <trkpt lat="41.6349370" lon="2.1196260">
        <ele>303.6</ele>
        <time>2020-07-09T11:35:38Z</time>
      </trkpt>
      <trkpt lat="41.6349480" lon="2.1196160">
        <ele>303.6</ele>
        <time>2020-07-09T11:35:39Z</time>
      </trkpt>
      <trkpt lat="41.6349580" lon="2.1196050">
        <ele>303.6</ele>
        <time>2020-07-09T11:35:40Z</time>
      </trkpt>
      <trkpt lat="41.6349680" lon="2.1195940">
        <ele>303.6</ele>
        <time>2020-07-09T11:35:41Z</time>
      </trkpt>
      <trkpt lat="41.6349780" lon="2.1195830">
        <ele>303.6</ele>
        <time>2020-07-09T11:35:42Z</time>
      </trkpt>
      <trkpt lat="41.6349880" lon="2.1195700">
        <ele>303.7</ele>
        <time>2020-07-09T11:35:43Z</time>
      </trkpt>
      <trkpt lat="41.6349980" lon="2.1195580">
        <ele>303.7</ele>
        <time>2020-07-09T11:35:44Z</time>
      </trkpt>
      <trkpt lat="41.6350070" lon="2.1195440">
        <ele>303.7</ele>
        <time>2020-07-09T11:35:45Z</time>
      </trkpt>
      <trkpt lat="41.6350170" lon="2.1195300">
        <ele>303.7</ele>
        <time>2020-07-09T11:35:46Z</time>
      </trkpt>
      <trkpt lat="41.6350260" lon="2.1195160">
        <ele>303.7</ele>
        <time>2020-07-09T11:35:47Z</time>
      </trkpt>
      <trkpt lat="41.6350350" lon="2.1195010">
        <ele>303.7</ele>
        <time>2020-07-09T11:35:48Z</time>
      </trkpt>
      <trkpt lat="41.6350450" lon="2.1194860">
        <ele>303.7</ele>
        <time>2020-07-09T11:35:49Z</time>
      </trkpt>
      <trkpt lat="41.6350530" lon="2.1194710">
        <ele>303.7</ele>
        <time>2020-07-09T11:35:50Z</time>
      </trkpt>
      <trkpt lat="41.6350620" lon="2.1194560">
        <ele>303.6</ele>
        <time>2020-07-09T11:35:51Z</time>
      </trkpt>
      <trkpt lat="41.6350700" lon="2.1194420">
        <ele>303.6</ele>
        <time>2020-07-09T11:35:52Z</time>
      </trkpt>
      <trkpt lat="41.6350780" lon="2.1194280">
        <ele>303.6</ele>
        <time>2020-07-09T11:35:53Z</time>
      </trkpt>
      <trkpt lat="41.6350850" lon="2.1194150">
        <ele>303.6</ele>
        <time>2020-07-09T11:35:54Z</time>
      </trkpt>
      <trkpt lat="41.6350920" lon="2.1194040">
        <ele>303.5</ele>
        <time>2020-07-09T11:35:55Z</time>
      </trkpt>
      <trkpt lat="41.6350980" lon="2.1193930">
        <ele>303.5</ele>
        <time>2020-07-09T11:35:56Z</time>
      </trkpt>
      <trkpt lat="41.6351040" lon="2.1193830">
        <ele>303.4</ele>
        <time>2020-07-09T11:35:57Z</time>
      </trkpt>
      <trkpt lat="41.6351100" lon="2.1193710">
        <ele>303.4</ele>
        <time>2020-07-09T11:35:58Z</time>
      </trkpt>
      <trkpt lat="41.6351170" lon="2.1193570">
        <ele>303.3</ele>
        <time>2020-07-09T11:35:59Z</time>
      </trkpt>
      <trkpt lat="41.6351240" lon="2.1193400">
        <ele>303.2</ele>
        <time>2020-07-09T11:36:00Z</time>
      </trkpt>
      <trkpt lat="41.6351320" lon="2.1193180">
        <ele>303.1</ele>
        <time>2020-07-09T11:36:01Z</time>
      </trkpt>
      <trkpt lat="41.6351420" lon="2.1192940">
        <ele>303.0</ele>
        <time>2020-07-09T11:36:02Z</time>
      </trkpt>
      <trkpt lat="41.6351520" lon="2.1192710">
        <ele>302.8</ele>
        <time>2020-07-09T11:36:03Z</time>
      </trkpt>
      <trkpt lat="41.6351640" lon="2.1192500">
        <ele>302.6</ele>
        <time>2020-07-09T11:36:04Z</time>
      </trkpt>
      <trkpt lat="41.6351760" lon="2.1192330">
        <ele>302.5</ele>
        <time>2020-07-09T11:36:05Z</time>
      </trkpt>
      <trkpt lat="41.6351880" lon="2.1192210">
        <ele>302.3</ele>
        <time>2020-07-09T11:36:06Z</time>
      </trkpt>
      <trkpt lat="41.6352010" lon="2.1192130">
        <ele>302.2</ele>
        <time>2020-07-09T11:36:07Z</time>
      </trkpt>
      <trkpt lat="41.6352140" lon="2.1192080">
        <ele>302.1</ele>
        <time>2020-07-09T11:36:08Z</time>
      </trkpt>
      <trkpt lat="41.6352280" lon="2.1192060">
        <ele>302.0</ele>
        <time>2020-07-09T11:36:09Z</time>
      </trkpt>
      <trkpt lat="41.6352410" lon="2.1192060">
        <ele>301.8</ele>
        <time>2020-07-09T11:36:10Z</time>
      </trkpt>
      <trkpt lat="41.6352550" lon="2.1192070">
        <ele>301.7</ele>
        <time>2020-07-09T11:36:11Z</time>
      </trkpt>
      <trkpt lat="41.6352680" lon="2.1192090">
        <ele>301.6</ele>
        <time>2020-07-09T11:36:12Z</time>
      </trkpt>
      <trkpt lat="41.6352810" lon="2.1192120">
        <ele>301.5</ele>
        <time>2020-07-09T11:36:13Z</time>
      </trkpt>
      <trkpt lat="41.6352940" lon="2.1192140">
        <ele>301.4</ele>
        <time>2020-07-09T11:36:14Z</time>
      </trkpt>
      <trkpt lat="41.6353060" lon="2.1192160">
        <ele>301.3</ele>
        <time>2020-07-09T11:36:15Z</time>
      </trkpt>
      <trkpt lat="41.6353180" lon="2.1192170">
        <ele>301.2</ele>
        <time>2020-07-09T11:36:16Z</time>
      </trkpt>
      <trkpt lat="41.6353300" lon="2.1192180">
        <ele>301.1</ele>
        <time>2020-07-09T11:36:17Z</time>
      </trkpt>
      <trkpt lat="41.6353410" lon="2.1192180">
        <ele>301.0</ele>
        <time>2020-07-09T11:36:18Z</time>
      </trkpt>
      <trkpt lat="41.6353530" lon="2.1192170">
        <ele>300.9</ele>
        <time>2020-07-09T11:36:19Z</time>
      </trkpt>
      <trkpt lat="41.6353640" lon="2.1192150">
        <ele>300.8</ele>
        <time>2020-07-09T11:36:20Z</time>
      </trkpt>
      <trkpt lat="41.6353750" lon="2.1192120">
        <ele>300.8</ele>
        <time>2020-07-09T11:36:21Z</time>
      </trkpt>
      <trkpt lat="41.6353860" lon="2.1192080">
        <ele>300.7</ele>
        <time>2020-07-09T11:36:22Z</time>
      </trkpt>
      <trkpt lat="41.6353980" lon="2.1192030">
        <ele>300.6</ele>
        <time>2020-07-09T11:36:23Z</time>
      </trkpt>
      <trkpt lat="41.6354090" lon="2.1191970">
        <ele>300.5</ele>
        <time>2020-07-09T11:36:24Z</time>
      </trkpt>
      <trkpt lat="41.6354200" lon="2.1191900">
        <ele>300.5</ele>
        <time>2020-07-09T11:36:25Z</time>
      </trkpt>
      <trkpt lat="41.6354310" lon="2.1191820">
        <ele>300.4</ele>
        <time>2020-07-09T11:36:26Z</time>
      </trkpt>
      <trkpt lat="41.6354420" lon="2.1191730">
        <ele>300.3</ele>
        <time>2020-07-09T11:36:27Z</time>
      </trkpt>
      <trkpt lat="41.6354540" lon="2.1191640">
        <ele>300.3</ele>
        <time>2020-07-09T11:36:28Z</time>
      </trkpt>
      <trkpt lat="41.6354650" lon="2.1191530">
        <ele>300.2</ele>
        <time>2020-07-09T11:36:29Z</time>
      </trkpt>
      <trkpt lat="41.6354760" lon="2.1191430">
        <ele>300.2</ele>
        <time>2020-07-09T11:36:30Z</time>
      </trkpt>
      <trkpt lat="41.6354870" lon="2.1191320">
        <ele>300.1</ele>
        <time>2020-07-09T11:36:31Z</time>
      </trkpt>
      <trkpt lat="41.6354980" lon="2.1191200">
        <ele>300.1</ele>
        <time>2020-07-09T11:36:32Z</time>
      </trkpt>
      <trkpt lat="41.6355090" lon="2.1191090">
        <ele>300.0</ele>
        <time>2020-07-09T11:36:33Z</time>
      </trkpt>
      <trkpt lat="41.6355210" lon="2.1190970">
        <ele>300.0</ele>
        <time>2020-07-09T11:36:34Z</time>
      </trkpt>
      <trkpt lat="41.6355320" lon="2.1190850">
        <ele>300.0</ele>
        <time>2020-07-09T11:36:35Z</time>
      </trkpt>
      <trkpt lat="41.6355430" lon="2.1190730">
        <ele>299.9</ele>
        <time>2020-07-09T11:36:36Z</time>
      </trkpt>
      <trkpt lat="41.6355550" lon="2.1190610">
        <ele>299.9</ele>
        <time>2020-07-09T11:36:37Z</time>
      </trkpt>
      <trkpt lat="41.6355660" lon="2.1190490">
        <ele>299.9</ele>
        <time>2020-07-09T11:36:38Z</time>
      </trkpt>
      <trkpt lat="41.6355770" lon="2.1190370">
        <ele>299.9</ele>
        <time>2020-07-09T11:36:39Z</time>
      </trkpt>
      <trkpt lat="41.6355890" lon="2.1190260">
        <ele>299.9</ele>
        <time>2020-07-09T11:36:40Z</time>
      </trkpt>
      <trkpt lat="41.6356000" lon="2.1190150">
        <ele>299.9</ele>
        <time>2020-07-09T11:36:41Z</time>
      </trkpt>
      <trkpt lat="41.6356120" lon="2.1190040">
        <ele>299.9</ele>
        <time>2020-07-09T11:36:42Z</time>
      </trkpt>
      <trkpt lat="41.6356240" lon="2.1189940">
        <ele>299.9</ele>
        <time>2020-07-09T11:36:43Z</time>
      </trkpt>
      <trkpt lat="41.6356350" lon="2.1189830">
        <ele>299.9</ele>
        <time>2020-07-09T11:36:44Z</time>
      </trkpt>
      <trkpt lat="41.6356470" lon="2.1189730">
        <ele>299.9</ele>
        <time>2020-07-09T11:36:45Z</time>
      </trkpt>
      <trkpt lat="41.6356590" lon="2.1189640">
        <ele>299.9</ele>
        <time>2020-07-09T11:36:46Z</time>
      </trkpt>
      <trkpt lat="41.6356710" lon="2.1189540">
        <ele>299.9</ele>
        <time>2020-07-09T11:36:47Z</time>
      </trkpt>
      <trkpt lat="41.6356830" lon="2.1189450">
        <ele>299.9</ele>
        <time>2020-07-09T11:36:48Z</time>
      </trkpt>
      <trkpt lat="41.6356950" lon="2.1189360">
        <ele>299.9</ele>
        <time>2020-07-09T11:36:49Z</time>
      </trkpt>
      <trkpt lat="41.6357070" lon="2.1189280">
        <ele>299.9</ele>
        <time>2020-07-09T11:36:50Z</time>
      </trkpt>
      <trkpt lat="41.6357190" lon="2.1189200">
        <ele>299.9</ele>
        <time>2020-07-09T11:36:51Z</time>
      </trkpt>
      <trkpt lat="41.6357320" lon="2.1189110">
        <ele>299.9</ele>
        <time>2020-07-09T11:36:52Z</time>
      </trkpt>
      <trkpt lat="41.6357440" lon="2.1189040">
        <ele>299.9</ele>
        <time>2020-07-09T11:36:53Z</time>
      </trkpt>
      <trkpt lat="41.6357570" lon="2.1188960">
        <ele>299.9</ele>
        <time>2020-07-09T11:36:54Z</time>
      </trkpt>
      <trkpt lat="41.6357700" lon="2.1188890">
        <ele>299.9</ele>
        <time>2020-07-09T11:36:55Z</time>
      </trkpt>
      <trkpt lat="41.6357830" lon="2.1188820">
        <ele>299.9</ele>
        <time>2020-07-09T11:36:56Z</time>
      </trkpt>
      <trkpt lat="41.6357960" lon="2.1188750">
        <ele>300.0</ele>
        <time>2020-07-09T11:36:57Z</time>
      </trkpt>
      <trkpt lat="41.6358090" lon="2.1188680">
        <ele>300.0</ele>
        <time>2020-07-09T11:36:58Z</time>
      </trkpt>
      <trkpt lat="41.6358230" lon="2.1188620">
        <ele>300.0</ele>
        <time>2020-07-09T11:36:59Z</time>
      </trkpt>
      <trkpt lat="41.6358360" lon="2.1188560">
        <ele>300.0</ele>
        <time>2020-07-09T11:37:00Z</time>
      </trkpt>
      <trkpt lat="41.6358500" lon="2.1188500">
        <ele>300.0</ele>
        <time>2020-07-09T11:37:01Z</time>
      </trkpt>
      <trkpt lat="41.6358640" lon="2.1188440">
        <ele>300.0</ele>
        <time>2020-07-09T11:37:02Z</time>
      </trkpt>
      <trkpt lat="41.6358770" lon="2.1188380">
        <ele>300.0</ele>
        <time>2020-07-09T11:37:03Z</time>
      </trkpt>
      <trkpt lat="41.6358910" lon="2.1188320">
        <ele>300.0</ele>
        <time>2020-07-09T11:37:04Z</time>
      </trkpt>
      <trkpt lat="41.6359050" lon="2.1188270">
        <ele>300.0</ele>
        <time>2020-07-09T11:37:05Z</time>
      </trkpt>
      <trkpt lat="41.6359190" lon="2.1188210">
        <ele>300.0</ele>
        <time>2020-07-09T11:37:06Z</time>
      </trkpt>
      <trkpt lat="41.6359330" lon="2.1188150">
        <ele>300.1</ele>
        <time>2020-07-09T11:37:07Z</time>
      </trkpt>
      <trkpt lat="41.6359470" lon="2.1188090">
        <ele>300.1</ele>
        <time>2020-07-09T11:37:08Z</time>
      </trkpt>
      <trkpt lat="41.6359600" lon="2.1188030">
        <ele>300.1</ele>
        <time>2020-07-09T11:37:09Z</time>
      </trkpt>
      <trkpt lat="41.6359740" lon="2.1187960">
        <ele>300.1</ele>
        <time>2020-07-09T11:37:10Z</time>
      </trkpt>
      <trkpt lat="41.6359880" lon="2.1187900">
        <ele>300.1</ele>
        <time>2020-07-09T11:37:11Z</time>
      </trkpt>
      <trkpt lat="41.6360010" lon="2.1187830">
        <ele>300.1</ele>
        <time>2020-07-09T11:37:12Z</time>
      </trkpt>
      <trkpt lat="41.6360140" lon="2.1187760">
        <ele>300.1</ele>
        <time>2020-07-09T11:37:13Z</time>
      </trkpt>
      <trkpt lat="41.6360280" lon="2.1187690">
        <ele>300.1</ele>
        <time>2020-07-09T11:37:14Z</time>
      </trkpt>
      <trkpt lat="41.6360410" lon="2.1187610">
        <ele>300.1</ele>
        <time>2020-07-09T11:37:15Z</time>
      </trkpt>
      <trkpt lat="41.6360540" lon="2.1187530">
        <ele>300.1</ele>
        <time>2020-07-09T11:37:16Z</time>
      </trkpt>
      <trkpt lat="41.6360660" lon="2.1187450">
        <ele>300.2</ele>
        <time>2020-07-09T11:37:17Z</time>
      </trkpt>
      <trkpt lat="41.6360790" lon="2.1187370">
        <ele>300.2</ele>
        <time>2020-07-09T11:37:18Z</time>
      </trkpt>
      <trkpt lat="41.6360910" lon="2.1187290">
        <ele>300.2</ele>
        <time>2020-07-09T11:37:19Z</time>
      </trkpt>
      <trkpt lat="41.6361040" lon="2.1187210">
        <ele>300.2</ele>
        <time>2020-07-09T11:37:20Z</time>
      </trkpt>
      <trkpt lat="41.6361160" lon="2.1187130">
        <ele>300.2</ele>
        <time>2020-07-09T11:37:21Z</time>
      </trkpt>
      <trkpt lat="41.6361280" lon="2.1187060">
        <ele>300.2</ele>
        <time>2020-07-09T11:37:22Z</time>
      </trkpt>
      <trkpt lat="41.6361400" lon="2.1187000">
        <ele>300.2</ele>
        <time>2020-07-09T11:37:23Z</time>
      </trkpt>
      <trkpt lat="41.6361520" lon="2.1186950">
        <ele>300.2</ele>
        <time>2020-07-09T11:37:24Z</time>
      </trkpt>
      <trkpt lat="41.6361630" lon="2.1186900">
        <ele>300.2</ele>
        <time>2020-07-09T11:37:25Z</time>
      </trkpt>
      <trkpt lat="41.6361750" lon="2.1186870">
        <ele>300.3</ele>
        <time>2020-07-09T11:37:26Z</time>
      </trkpt>
      <trkpt lat="41.6361870" lon="2.1186840">
        <ele>300.3</ele>
        <time>2020-07-09T11:37:27Z</time>
      </trkpt>
      <trkpt lat="41.6361990" lon="2.1186810">
        <ele>300.3</ele>
        <time>2020-07-09T11:37:28Z</time>
      </trkpt>
      <trkpt lat="41.6362110" lon="2.1186790">
        <ele>300.3</ele>
        <time>2020-07-09T11:37:29Z</time>
      </trkpt>
      <trkpt lat="41.6362230" lon="2.1186770">
        <ele>300.3</ele>
        <time>2020-07-09T11:37:30Z</time>
      </trkpt>
      <trkpt lat="41.6362350" lon="2.1186740">
        <ele>300.3</ele>
        <time>2020-07-09T11:37:31Z</time>
      </trkpt>
      <trkpt lat="41.6362480" lon="2.1186720">
        <ele>300.3</ele>
        <time>2020-07-09T11:37:32Z</time>
      </trkpt>
      <trkpt lat="41.6362610" lon="2.1186680">
        <ele>300.3</ele>
        <time>2020-07-09T11:37:33Z</time>
      </trkpt>
      <trkpt lat="41.6362750" lon="2.1186650">
        <ele>300.3</ele>
        <time>2020-07-09T11:37:34Z</time>
      </trkpt>
      <trkpt lat="41.6362880" lon="2.1186600">
        <ele>300.3</ele>
        <time>2020-07-09T11:37:35Z</time>
      </trkpt>
      <trkpt lat="41.6363020" lon="2.1186550">
        <ele>300.3</ele>
        <time>2020-07-09T11:37:36Z</time>
      </trkpt>
      <trkpt lat="41.6363170" lon="2.1186500">
        <ele>300.4</ele>
        <time>2020-07-09T11:37:37Z</time>
      </trkpt>
      <trkpt lat="41.6363310" lon="2.1186450">
        <ele>300.4</ele>
        <time>2020-07-09T11:37:38Z</time>
      </trkpt>
      <trkpt lat="41.6363460" lon="2.1186390">
        <ele>300.4</ele>
        <time>2020-07-09T11:37:39Z</time>
      </trkpt>
      <trkpt lat="41.6363600" lon="2.1186330">
        <ele>300.4</ele>
        <time>2020-07-09T11:37:40Z</time>
      </trkpt>
      <trkpt lat="41.6363750" lon="2.1186260">
        <ele>300.4</ele>
        <time>2020-07-09T11:37:41Z</time>
      </trkpt>
      <trkpt lat="41.6363900" lon="2.1186190">
        <ele>300.4</ele>
        <time>2020-07-09T11:37:42Z</time>
      </trkpt>
      <trkpt lat="41.6364050" lon="2.1186130">
        <ele>300.4</ele>
        <time>2020-07-09T11:37:43Z</time>
      </trkpt>
      <trkpt lat="41.6364190" lon="2.1186060">
        <ele>300.4</ele>
        <time>2020-07-09T11:37:44Z</time>
      </trkpt>
      <trkpt lat="41.6364340" lon="2.1185990">
        <ele>300.4</ele>
        <time>2020-07-09T11:37:45Z</time>
      </trkpt>
      <trkpt lat="41.6364490" lon="2.1185920">
        <ele>300.4</ele>
        <time>2020-07-09T11:37:46Z</time>
      </trkpt>
      <trkpt lat="41.6364630" lon="2.1185850">
        <ele>300.4</ele>
        <time>2020-07-09T11:37:47Z</time>
      </trkpt>
      <trkpt lat="41.6364770" lon="2.1185780">
        <ele>300.4</ele>
        <time>2020-07-09T11:37:48Z</time>
      </trkpt>
      <trkpt lat="41.6364910" lon="2.1185710">
        <ele>300.4</ele>
        <time>2020-07-09T11:37:49Z</time>
      </trkpt>
      <trkpt lat="41.6365050" lon="2.1185640">
        <ele>300.4</ele>
        <time>2020-07-09T11:37:50Z</time>
      </trkpt>
      <trkpt lat="41.6365190" lon="2.1185570">
        <ele>300.4</ele>
        <time>2020-07-09T11:37:51Z</time>
      </trkpt>
      <trkpt lat="41.6365320" lon="2.1185510">
        <ele>300.4</ele>
        <time>2020-07-09T11:37:52Z</time>
      </trkpt>
      <trkpt lat="41.6365550" lon="2.1185350">
        <ele>300.5</ele>
        <time>2020-07-09T11:37:53Z</time>
      </trkpt>
      <trkpt lat="41.6365650" lon="2.1185260">
        <ele>300.5</ele>
        <time>2020-07-09T11:37:54Z</time>
      </trkpt>
      <trkpt lat="41.6365760" lon="2.1185170">
        <ele>300.5</ele>
        <time>2020-07-09T11:37:55Z</time>
      </trkpt>
      <trkpt lat="41.6365860" lon="2.1185080">
        <ele>300.5</ele>
        <time>2020-07-09T11:37:56Z</time>
      </trkpt>
      <trkpt lat="41.6365960" lon="2.1184990">
        <ele>300.5</ele>
        <time>2020-07-09T11:37:57Z</time>
      </trkpt>
      <trkpt lat="41.6366060" lon="2.1184910">
        <ele>300.5</ele>
        <time>2020-07-09T11:37:58Z</time>
      </trkpt>
      <trkpt lat="41.6366160" lon="2.1184820">
        <ele>300.5</ele>
        <time>2020-07-09T11:37:59Z</time>
      </trkpt>
      <trkpt lat="41.6366260" lon="2.1184730">
        <ele>300.5</ele>
        <time>2020-07-09T11:38:00Z</time>
      </trkpt>
      <trkpt lat="41.6366370" lon="2.1184640">
        <ele>300.6</ele>
        <time>2020-07-09T11:38:01Z</time>
      </trkpt>
      <trkpt lat="41.6366470" lon="2.1184550">
        <ele>300.6</ele>
        <time>2020-07-09T11:38:02Z</time>
      </trkpt>
      <trkpt lat="41.6366570" lon="2.1184460">
        <ele>300.6</ele>
        <time>2020-07-09T11:38:03Z</time>
      </trkpt>
      <trkpt lat="41.6366670" lon="2.1184370">
        <ele>300.6</ele>
        <time>2020-07-09T11:38:04Z</time>
      </trkpt>
      <trkpt lat="41.6366770" lon="2.1184280">
        <ele>300.7</ele>
        <time>2020-07-09T11:38:05Z</time>
      </trkpt>
      <trkpt lat="41.6366880" lon="2.1184190">
        <ele>300.7</ele>
        <time>2020-07-09T11:38:06Z</time>
      </trkpt>
      <trkpt lat="41.6366980" lon="2.1184100">
        <ele>300.7</ele>
        <time>2020-07-09T11:38:07Z</time>
      </trkpt>
      <trkpt lat="41.6367080" lon="2.1184010">
        <ele>300.8</ele>
        <time>2020-07-09T11:38:08Z</time>
      </trkpt>
      <trkpt lat="41.6367180" lon="2.1183930">
        <ele>300.8</ele>
        <time>2020-07-09T11:38:09Z</time>
      </trkpt>
      <trkpt lat="41.6367280" lon="2.1183840">
        <ele>300.9</ele>
        <time>2020-07-09T11:38:10Z</time>
      </trkpt>
      <trkpt lat="41.6367380" lon="2.1183750">
        <ele>301.0</ele>
        <time>2020-07-09T11:38:11Z</time>
      </trkpt>
      <trkpt lat="41.6367490" lon="2.1183660">
        <ele>301.0</ele>
        <time>2020-07-09T11:38:12Z</time>
      </trkpt>
      <trkpt lat="41.6367590" lon="2.1183570">
        <ele>301.1</ele>
        <time>2020-07-09T11:38:13Z</time>
      </trkpt>
      <trkpt lat="41.6367690" lon="2.1183480">
        <ele>301.2</ele>
        <time>2020-07-09T11:38:14Z</time>
      </trkpt>
      <trkpt lat="41.6367800" lon="2.1183520">
        <ele>301.3</ele>
        <time>2020-07-09T11:38:15Z</time>
      </trkpt>
      <trkpt lat="41.6367900" lon="2.1183580">
        <ele>301.4</ele>
        <time>2020-07-09T11:38:16Z</time>
      </trkpt>
      <trkpt lat="41.6368000" lon="2.1183650">
        <ele>301.5</ele>
        <time>2020-07-09T11:38:17Z</time>
      </trkpt>
      <trkpt lat="41.6368080" lon="2.1183730">
        <ele>301.6</ele>
        <time>2020-07-09T11:38:18Z</time>
      </trkpt>
      <trkpt lat="41.6368160" lon="2.1183810">
        <ele>301.7</ele>
        <time>2020-07-09T11:38:19Z</time>
      </trkpt>
      <trkpt lat="41.6368230" lon="2.1183890">
        <ele>301.8</ele>
        <time>2020-07-09T11:38:20Z</time>
      </trkpt>
      <trkpt lat="41.6368300" lon="2.1183960">
        <ele>302.0</ele>
        <time>2020-07-09T11:38:21Z</time>
      </trkpt>
      <trkpt lat="41.6368360" lon="2.1184040">
        <ele>302.1</ele>
        <time>2020-07-09T11:38:22Z</time>
      </trkpt>
      <trkpt lat="41.6368430" lon="2.1184100">
        <ele>302.2</ele>
        <time>2020-07-09T11:38:23Z</time>
      </trkpt>
      <trkpt lat="41.6368490" lon="2.1184150">
        <ele>302.3</ele>
        <time>2020-07-09T11:38:24Z</time>
      </trkpt>
      <trkpt lat="41.6368550" lon="2.1184190">
        <ele>302.4</ele>
        <time>2020-07-09T11:38:25Z</time>
      </trkpt>
      <trkpt lat="41.6368620" lon="2.1184220">
        <ele>302.5</ele>
        <time>2020-07-09T11:38:26Z</time>
      </trkpt>
      <trkpt lat="41.6368690" lon="2.1184230">
        <ele>302.6</ele>
        <time>2020-07-09T11:38:27Z</time>
      </trkpt>
      <trkpt lat="41.6368760" lon="2.1184230">
        <ele>302.7</ele>
        <time>2020-07-09T11:38:28Z</time>
      </trkpt>
      <trkpt lat="41.6368830" lon="2.1184210">
        <ele>305.2</ele>
        <time>2020-07-09T11:38:29Z</time>
      </trkpt>
      <trkpt lat="41.6368910" lon="2.1184180">
        <ele>305.3</ele>
        <time>2020-07-09T11:38:30Z</time>
      </trkpt>
      <trkpt lat="41.6368990" lon="2.1184140">
        <ele>305.4</ele>
        <time>2020-07-09T11:38:31Z</time>
      </trkpt>
      <trkpt lat="41.6369080" lon="2.1184100">
        <ele>305.5</ele>
        <time>2020-07-09T11:38:32Z</time>
      </trkpt>
      <trkpt lat="41.6369160" lon="2.1184050">
        <ele>305.6</ele>
        <time>2020-07-09T11:38:33Z</time>
      </trkpt>
      <trkpt lat="41.6369250" lon="2.1183990">
        <ele>305.7</ele>
        <time>2020-07-09T11:38:34Z</time>
      </trkpt>
      <trkpt lat="41.6369340" lon="2.1183930">
        <ele>305.8</ele>
        <time>2020-07-09T11:38:35Z</time>
      </trkpt>
      <trkpt lat="41.6369430" lon="2.1183870">
        <ele>305.9</ele>
        <time>2020-07-09T11:38:36Z</time>
      </trkpt>
      <trkpt lat="41.6369530" lon="2.1183820">
        <ele>306.0</ele>
        <time>2020-07-09T11:38:37Z</time>
      </trkpt>
      <trkpt lat="41.6369630" lon="2.1183760">
        <ele>306.1</ele>
        <time>2020-07-09T11:38:38Z</time>
      </trkpt>
      <trkpt lat="41.6369730" lon="2.1183700">
        <ele>306.2</ele>
        <time>2020-07-09T11:38:39Z</time>
      </trkpt>
      <trkpt lat="41.6369830" lon="2.1183650">
        <ele>306.4</ele>
        <time>2020-07-09T11:38:40Z</time>
      </trkpt>
      <trkpt lat="41.6369940" lon="2.1183600">
        <ele>306.5</ele>
        <time>2020-07-09T11:38:41Z</time>
      </trkpt>
      <trkpt lat="41.6370050" lon="2.1183560">
        <ele>306.6</ele>
        <time>2020-07-09T11:38:42Z</time>
      </trkpt>
      <trkpt lat="41.6370170" lon="2.1183520">
        <ele>306.7</ele>
        <time>2020-07-09T11:38:43Z</time>
      </trkpt>
      <trkpt lat="41.6370290" lon="2.1183500">
        <ele>306.8</ele>
        <time>2020-07-09T11:38:44Z</time>
      </trkpt>
      <trkpt lat="41.6370410" lon="2.1183470">
        <ele>307.0</ele>
        <time>2020-07-09T11:38:45Z</time>
      </trkpt>
      <trkpt lat="41.6370540" lon="2.1183450">
        <ele>307.1</ele>
        <time>2020-07-09T11:38:46Z</time>
      </trkpt>
      <trkpt lat="41.6370670" lon="2.1183440">
        <ele>307.2</ele>
        <time>2020-07-09T11:38:47Z</time>
      </trkpt>
      <trkpt lat="41.6370800" lon="2.1183430">
        <ele>307.4</ele>
        <time>2020-07-09T11:38:48Z</time>
      </trkpt>
      <trkpt lat="41.6370920" lon="2.1183430">
        <ele>307.5</ele>
        <time>2020-07-09T11:38:49Z</time>
      </trkpt>
      <trkpt lat="41.6371050" lon="2.1183430">
        <ele>307.6</ele>
        <time>2020-07-09T11:38:50Z</time>
      </trkpt>
      <trkpt lat="41.6371170" lon="2.1183420">
        <ele>307.7</ele>
        <time>2020-07-09T11:38:51Z</time>
      </trkpt>
      <trkpt lat="41.6371290" lon="2.1183420">
        <ele>307.8</ele>
        <time>2020-07-09T11:38:52Z</time>
      </trkpt>
      <trkpt lat="41.6371400" lon="2.1183430">
        <ele>307.9</ele>
        <time>2020-07-09T11:38:53Z</time>
      </trkpt>
      <trkpt lat="41.6371510" lon="2.1183430">
        <ele>308.0</ele>
        <time>2020-07-09T11:38:54Z</time>
      </trkpt>
      <trkpt lat="41.6371620" lon="2.1183430">
        <ele>308.1</ele>
        <time>2020-07-09T11:38:55Z</time>
      </trkpt>
      <trkpt lat="41.6371720" lon="2.1183430">
        <ele>308.2</ele>
        <time>2020-07-09T11:38:56Z</time>
      </trkpt>
      <trkpt lat="41.6371830" lon="2.1183440">
        <ele>308.3</ele>
        <time>2020-07-09T11:38:57Z</time>
      </trkpt>
      <trkpt lat="41.6371930" lon="2.1183450">
        <ele>308.4</ele>
        <time>2020-07-09T11:38:58Z</time>
      </trkpt>
      <trkpt lat="41.6372040" lon="2.1183460">
        <ele>308.5</ele>
        <time>2020-07-09T11:38:59Z</time>
      </trkpt>
      <trkpt lat="41.6372150" lon="2.1183480">
        <ele>308.6</ele>
        <time>2020-07-09T11:39:00Z</time>
      </trkpt>
      <trkpt lat="41.6372260" lon="2.1183500">
        <ele>308.7</ele>
        <time>2020-07-09T11:39:01Z</time>
      </trkpt>
      <trkpt lat="41.6372380" lon="2.1183530">
        <ele>308.9</ele>
        <time>2020-07-09T11:39:02Z</time>
      </trkpt>
      <trkpt lat="41.6372500" lon="2.1183560">
        <ele>309.0</ele>
        <time>2020-07-09T11:39:03Z</time>
      </trkpt>
      <trkpt lat="41.6372630" lon="2.1183600">
        <ele>309.1</ele>
        <time>2020-07-09T11:39:04Z</time>
      </trkpt>
      <trkpt lat="41.6372770" lon="2.1183640">
        <ele>309.2</ele>
        <time>2020-07-09T11:39:05Z</time>
      </trkpt>
      <trkpt lat="41.6372910" lon="2.1183680">
        <ele>309.3</ele>
        <time>2020-07-09T11:39:06Z</time>
      </trkpt>
      <trkpt lat="41.6373050" lon="2.1183710">
        <ele>309.4</ele>
        <time>2020-07-09T11:39:07Z</time>
      </trkpt>
      <trkpt lat="41.6373200" lon="2.1183750">
        <ele>309.6</ele>
        <time>2020-07-09T11:39:08Z</time>
      </trkpt>
      <trkpt lat="41.6373350" lon="2.1183790">
        <ele>309.7</ele>
        <time>2020-07-09T11:39:09Z</time>
      </trkpt>
      <trkpt lat="41.6373510" lon="2.1183820">
        <ele>309.8</ele>
        <time>2020-07-09T11:39:10Z</time>
      </trkpt>
      <trkpt lat="41.6373670" lon="2.1183840">
        <ele>309.9</ele>
        <time>2020-07-09T11:39:11Z</time>
      </trkpt>
      <trkpt lat="41.6373830" lon="2.1183870">
        <ele>310.0</ele>
        <time>2020-07-09T11:39:12Z</time>
      </trkpt>
      <trkpt lat="41.6373990" lon="2.1183890">
        <ele>310.2</ele>
        <time>2020-07-09T11:39:13Z</time>
      </trkpt>
      <trkpt lat="41.6374160" lon="2.1183900">
        <ele>310.3</ele>
        <time>2020-07-09T11:39:14Z</time>
      </trkpt>
      <trkpt lat="41.6374320" lon="2.1183910">
        <ele>310.4</ele>
        <time>2020-07-09T11:39:15Z</time>
      </trkpt>
      <trkpt lat="41.6374490" lon="2.1183920">
        <ele>310.6</ele>
        <time>2020-07-09T11:39:16Z</time>
      </trkpt>
      <trkpt lat="41.6374650" lon="2.1183930">
        <ele>310.7</ele>
        <time>2020-07-09T11:39:17Z</time>
      </trkpt>
      <trkpt lat="41.6374820" lon="2.1183930">
        <ele>310.8</ele>
        <time>2020-07-09T11:39:18Z</time>
      </trkpt>
      <trkpt lat="41.6374980" lon="2.1183930">
        <ele>310.9</ele>
        <time>2020-07-09T11:39:19Z</time>
      </trkpt>
      <trkpt lat="41.6375130" lon="2.1183930">
        <ele>311.0</ele>
        <time>2020-07-09T11:39:20Z</time>
      </trkpt>
      <trkpt lat="41.6375290" lon="2.1183920">
        <ele>311.2</ele>
        <time>2020-07-09T11:39:21Z</time>
      </trkpt>
      <trkpt lat="41.6375440" lon="2.1183920">
        <ele>311.3</ele>
        <time>2020-07-09T11:39:22Z</time>
      </trkpt>
      <trkpt lat="41.6375590" lon="2.1183910">
        <ele>311.4</ele>
        <time>2020-07-09T11:39:23Z</time>
      </trkpt>
      <trkpt lat="41.6375740" lon="2.1183900">
        <ele>311.5</ele>
        <time>2020-07-09T11:39:24Z</time>
      </trkpt>
      <trkpt lat="41.6375880" lon="2.1183890">
        <ele>311.6</ele>
        <time>2020-07-09T11:39:25Z</time>
      </trkpt>
      <trkpt lat="41.6376030" lon="2.1183880">
        <ele>311.7</ele>
        <time>2020-07-09T11:39:26Z</time>
      </trkpt>
      <trkpt lat="41.6376170" lon="2.1183860">
        <ele>311.8</ele>
        <time>2020-07-09T11:39:27Z</time>
      </trkpt>
      <trkpt lat="41.6376320" lon="2.1183850">
        <ele>311.9</ele>
        <time>2020-07-09T11:39:28Z</time>
      </trkpt>
      <trkpt lat="41.6376460" lon="2.1183830">
        <ele>312.0</ele>
        <time>2020-07-09T11:39:29Z</time>
      </trkpt>
      <trkpt lat="41.6376600" lon="2.1183810">
        <ele>312.1</ele>
        <time>2020-07-09T11:39:30Z</time>
      </trkpt>
      <trkpt lat="41.6376740" lon="2.1183780">
        <ele>312.2</ele>
        <time>2020-07-09T11:39:31Z</time>
      </trkpt>
      <trkpt lat="41.6376880" lon="2.1183760">
        <ele>312.4</ele>
        <time>2020-07-09T11:39:32Z</time>
      </trkpt>
      <trkpt lat="41.6377010" lon="2.1183720">
        <ele>312.5</ele>
        <time>2020-07-09T11:39:33Z</time>
      </trkpt>
      <trkpt lat="41.6377140" lon="2.1183680">
        <ele>312.6</ele>
        <time>2020-07-09T11:39:34Z</time>
      </trkpt>
      <trkpt lat="41.6377270" lon="2.1183630">
        <ele>312.7</ele>
        <time>2020-07-09T11:39:35Z</time>
      </trkpt>
      <trkpt lat="41.6377400" lon="2.1183570">
        <ele>312.8</ele>
        <time>2020-07-09T11:39:36Z</time>
      </trkpt>
      <trkpt lat="41.6377520" lon="2.1183500">
        <ele>312.9</ele>
        <time>2020-07-09T11:39:37Z</time>
      </trkpt>
      <trkpt lat="41.6377630" lon="2.1183420">
        <ele>313.0</ele>
        <time>2020-07-09T11:39:38Z</time>
      </trkpt>
      <trkpt lat="41.6377740" lon="2.1183330">
        <ele>313.1</ele>
        <time>2020-07-09T11:39:39Z</time>
      </trkpt>
      <trkpt lat="41.6377850" lon="2.1183230">
        <ele>313.2</ele>
        <time>2020-07-09T11:39:40Z</time>
      </trkpt>
      <trkpt lat="41.6377950" lon="2.1183120">
        <ele>313.3</ele>
        <time>2020-07-09T11:39:41Z</time>
      </trkpt>
      <trkpt lat="41.6378050" lon="2.1183000">
        <ele>313.4</ele>
        <time>2020-07-09T11:39:42Z</time>
      </trkpt>
      <trkpt lat="41.6378140" lon="2.1182870">
        <ele>313.5</ele>
        <time>2020-07-09T11:39:43Z</time>
      </trkpt>
      <trkpt lat="41.6378230" lon="2.1182740">
        <ele>313.6</ele>
        <time>2020-07-09T11:39:44Z</time>
      </trkpt>
      <trkpt lat="41.6378320" lon="2.1182600">
        <ele>313.7</ele>
        <time>2020-07-09T11:39:45Z</time>
      </trkpt>
      <trkpt lat="41.6378410" lon="2.1182450">
        <ele>313.8</ele>
        <time>2020-07-09T11:39:46Z</time>
      </trkpt>
      <trkpt lat="41.6378490" lon="2.1182300">
        <ele>313.9</ele>
        <time>2020-07-09T11:39:47Z</time>
      </trkpt>
      <trkpt lat="41.6378570" lon="2.1182150">
        <ele>314.0</ele>
        <time>2020-07-09T11:39:48Z</time>
      </trkpt>
      <trkpt lat="41.6378650" lon="2.1181990">
        <ele>314.1</ele>
        <time>2020-07-09T11:39:49Z</time>
      </trkpt>
      <trkpt lat="41.6378730" lon="2.1181830">
        <ele>314.2</ele>
        <time>2020-07-09T11:39:50Z</time>
      </trkpt>
      <trkpt lat="41.6378800" lon="2.1181670">
        <ele>314.3</ele>
        <time>2020-07-09T11:39:51Z</time>
      </trkpt>
      <trkpt lat="41.6378880" lon="2.1181510">
        <ele>314.4</ele>
        <time>2020-07-09T11:39:52Z</time>
      </trkpt>
      <trkpt lat="41.6378960" lon="2.1181340">
        <ele>314.6</ele>
        <time>2020-07-09T11:39:53Z</time>
      </trkpt>
      <trkpt lat="41.6379030" lon="2.1181180">
        <ele>314.7</ele>
        <time>2020-07-09T11:39:54Z</time>
      </trkpt>
      <trkpt lat="41.6379110" lon="2.1181020">
        <ele>314.8</ele>
        <time>2020-07-09T11:39:55Z</time>
      </trkpt>
      <trkpt lat="41.6379180" lon="2.1180860">
        <ele>314.9</ele>
        <time>2020-07-09T11:39:56Z</time>
      </trkpt>
      <trkpt lat="41.6379260" lon="2.1180700">
        <ele>315.0</ele>
        <time>2020-07-09T11:39:57Z</time>
      </trkpt>
      <trkpt lat="41.6379340" lon="2.1180550">
        <ele>315.1</ele>
        <time>2020-07-09T11:39:58Z</time>
      </trkpt>
      <trkpt lat="41.6379410" lon="2.1180400">
        <ele>315.3</ele>
        <time>2020-07-09T11:39:59Z</time>
      </trkpt>
      <trkpt lat="41.6379480" lon="2.1180250">
        <ele>315.4</ele>
        <time>2020-07-09T11:40:00Z</time>
      </trkpt>
      <trkpt lat="41.6379560" lon="2.1180100">
        <ele>315.5</ele>
        <time>2020-07-09T11:40:01Z</time>
      </trkpt>
      <trkpt lat="41.6379630" lon="2.1179960">
        <ele>315.6</ele>
        <time>2020-07-09T11:40:02Z</time>
      </trkpt>
      <trkpt lat="41.6379700" lon="2.1179830">
        <ele>315.7</ele>
        <time>2020-07-09T11:40:03Z</time>
      </trkpt>
      <trkpt lat="41.6379770" lon="2.1179700">
        <ele>315.8</ele>
        <time>2020-07-09T11:40:04Z</time>
      </trkpt>
      <trkpt lat="41.6379830" lon="2.1179570">
        <ele>315.9</ele>
        <time>2020-07-09T11:40:05Z</time>
      </trkpt>
      <trkpt lat="41.6379900" lon="2.1179440">
        <ele>316.0</ele>
        <time>2020-07-09T11:40:06Z</time>
      </trkpt>
      <trkpt lat="41.6379960" lon="2.1179320">
        <ele>316.1</ele>
        <time>2020-07-09T11:40:07Z</time>
      </trkpt>
      <trkpt lat="41.6380030" lon="2.1179200">
        <ele>316.2</ele>
        <time>2020-07-09T11:40:08Z</time>
      </trkpt>
      <trkpt lat="41.6380090" lon="2.1179080">
        <ele>316.3</ele>
        <time>2020-07-09T11:40:09Z</time>
      </trkpt>
      <trkpt lat="41.6380160" lon="2.1178960">
        <ele>316.4</ele>
        <time>2020-07-09T11:40:10Z</time>
      </trkpt>
      <trkpt lat="41.6380220" lon="2.1178840">
        <ele>316.5</ele>
        <time>2020-07-09T11:40:11Z</time>
      </trkpt>
      <trkpt lat="41.6380290" lon="2.1178710">
        <ele>316.6</ele>
        <time>2020-07-09T11:40:12Z</time>
      </trkpt>
      <trkpt lat="41.6380360" lon="2.1178580">
        <ele>316.8</ele>
        <time>2020-07-09T11:40:13Z</time>
      </trkpt>
      <trkpt lat="41.6380430" lon="2.1178450">
        <ele>316.9</ele>
        <time>2020-07-09T11:40:14Z</time>
      </trkpt>
      <trkpt lat="41.6380500" lon="2.1178320">
        <ele>317.0</ele>
        <time>2020-07-09T11:40:15Z</time>
      </trkpt>
      <trkpt lat="41.6380570" lon="2.1178190">
        <ele>317.1</ele>
        <time>2020-07-09T11:40:16Z</time>
      </trkpt>
      <trkpt lat="41.6380650" lon="2.1178060">
        <ele>317.3</ele>
        <time>2020-07-09T11:40:17Z</time>
      </trkpt>
      <trkpt lat="41.6380730" lon="2.1177930">
        <ele>317.4</ele>
        <time>2020-07-09T11:40:18Z</time>
      </trkpt>
      <trkpt lat="41.6380810" lon="2.1177800">
        <ele>317.5</ele>
        <time>2020-07-09T11:40:19Z</time>
      </trkpt>
      <trkpt lat="41.6380890" lon="2.1177680">
        <ele>317.7</ele>
        <time>2020-07-09T11:40:20Z</time>
      </trkpt>
      <trkpt lat="41.6380980" lon="2.1177560">
        <ele>317.8</ele>
        <time>2020-07-09T11:40:21Z</time>
      </trkpt>
      <trkpt lat="41.6381070" lon="2.1177450">
        <ele>318.0</ele>
        <time>2020-07-09T11:40:22Z</time>
      </trkpt>
      <trkpt lat="41.6381160" lon="2.1177340">
        <ele>318.1</ele>
        <time>2020-07-09T11:40:23Z</time>
      </trkpt>
      <trkpt lat="41.6381250" lon="2.1177230">
        <ele>318.2</ele>
        <time>2020-07-09T11:40:24Z</time>
      </trkpt>
      <trkpt lat="41.6381330" lon="2.1177130">
        <ele>318.4</ele>
        <time>2020-07-09T11:40:25Z</time>
      </trkpt>
      <trkpt lat="41.6381430" lon="2.1176910">
        <ele>318.6</ele>
        <time>2020-07-09T11:40:26Z</time>
      </trkpt>
      <trkpt lat="41.6381450" lon="2.1176790">
        <ele>318.7</ele>
        <time>2020-07-09T11:40:27Z</time>
      </trkpt>
      <trkpt lat="41.6381460" lon="2.1176660">
        <ele>318.8</ele>
        <time>2020-07-09T11:40:28Z</time>
      </trkpt>
      <trkpt lat="41.6381470" lon="2.1176540">
        <ele>319.0</ele>
        <time>2020-07-09T11:40:29Z</time>
      </trkpt>
      <trkpt lat="41.6381490" lon="2.1176420">
        <ele>319.1</ele>
        <time>2020-07-09T11:40:30Z</time>
      </trkpt>
      <trkpt lat="41.6381500" lon="2.1176300">
        <ele>319.2</ele>
        <time>2020-07-09T11:40:31Z</time>
      </trkpt>
      <trkpt lat="41.6381510" lon="2.1176180">
        <ele>319.3</ele>
        <time>2020-07-09T11:40:32Z</time>
      </trkpt>
      <trkpt lat="41.6381530" lon="2.1176050">
        <ele>319.4</ele>
        <time>2020-07-09T11:40:33Z</time>
      </trkpt>
      <trkpt lat="41.6381540" lon="2.1175930">
        <ele>319.6</ele>
        <time>2020-07-09T11:40:34Z</time>
      </trkpt>
      <trkpt lat="41.6381550" lon="2.1175810">
        <ele>319.7</ele>
        <time>2020-07-09T11:40:35Z</time>
      </trkpt>
      <trkpt lat="41.6381570" lon="2.1175690">
        <ele>319.8</ele>
        <time>2020-07-09T11:40:36Z</time>
      </trkpt>
      <trkpt lat="41.6381580" lon="2.1175570">
        <ele>319.9</ele>
        <time>2020-07-09T11:40:37Z</time>
      </trkpt>
      <trkpt lat="41.6381590" lon="2.1175440">
        <ele>320.0</ele>
        <time>2020-07-09T11:40:38Z</time>
      </trkpt>
      <trkpt lat="41.6381610" lon="2.1175320">
        <ele>320.1</ele>
        <time>2020-07-09T11:40:39Z</time>
      </trkpt>
      <trkpt lat="41.6381620" lon="2.1175200">
        <ele>320.3</ele>
        <time>2020-07-09T11:40:40Z</time>
      </trkpt>
      <trkpt lat="41.6381590" lon="2.1175040">
        <ele>320.4</ele>
        <time>2020-07-09T11:40:41Z</time>
      </trkpt>
      <trkpt lat="41.6381550" lon="2.1174880">
        <ele>320.6</ele>
        <time>2020-07-09T11:40:42Z</time>
      </trkpt>
      <trkpt lat="41.6381510" lon="2.1174720">
        <ele>320.8</ele>
        <time>2020-07-09T11:40:43Z</time>
      </trkpt>
      <trkpt lat="41.6381470" lon="2.1174560">
        <ele>320.9</ele>
        <time>2020-07-09T11:40:44Z</time>
      </trkpt>
      <trkpt lat="41.6381430" lon="2.1174390">
        <ele>321.1</ele>
        <time>2020-07-09T11:40:45Z</time>
      </trkpt>
      <trkpt lat="41.6381390" lon="2.1174230">
        <ele>321.3</ele>
        <time>2020-07-09T11:40:46Z</time>
      </trkpt>
      <trkpt lat="41.6381360" lon="2.1174060">
        <ele>321.4</ele>
        <time>2020-07-09T11:40:47Z</time>
      </trkpt>
      <trkpt lat="41.6381320" lon="2.1173890">
        <ele>321.6</ele>
        <time>2020-07-09T11:40:48Z</time>
      </trkpt>
      <trkpt lat="41.6381290" lon="2.1173720">
        <ele>321.8</ele>
        <time>2020-07-09T11:40:49Z</time>
      </trkpt>
      <trkpt lat="41.6381260" lon="2.1173550">
        <ele>321.9</ele>
        <time>2020-07-09T11:40:50Z</time>
      </trkpt>
      <trkpt lat="41.6381240" lon="2.1173380">
        <ele>322.1</ele>
        <time>2020-07-09T11:40:51Z</time>
      </trkpt>
      <trkpt lat="41.6381210" lon="2.1173210">
        <ele>322.2</ele>
        <time>2020-07-09T11:40:52Z</time>
      </trkpt>
      <trkpt lat="41.6381190" lon="2.1173040">
        <ele>322.4</ele>
        <time>2020-07-09T11:40:53Z</time>
      </trkpt>
      <trkpt lat="41.6381170" lon="2.1172870">
        <ele>322.6</ele>
        <time>2020-07-09T11:40:54Z</time>
      </trkpt>
      <trkpt lat="41.6381160" lon="2.1172700">
        <ele>322.7</ele>
        <time>2020-07-09T11:40:55Z</time>
      </trkpt>
      <trkpt lat="41.6381150" lon="2.1172520">
        <ele>322.9</ele>
        <time>2020-07-09T11:40:56Z</time>
      </trkpt>
      <trkpt lat="41.6381140" lon="2.1172350">
        <ele>323.1</ele>
        <time>2020-07-09T11:40:57Z</time>
      </trkpt>
      <trkpt lat="41.6381130" lon="2.1172170">
        <ele>323.2</ele>
        <time>2020-07-09T11:40:58Z</time>
      </trkpt>
      <trkpt lat="41.6381120" lon="2.1172000">
        <ele>323.4</ele>
        <time>2020-07-09T11:40:59Z</time>
      </trkpt>
      <trkpt lat="41.6381120" lon="2.1171820">
        <ele>323.6</ele>
        <time>2020-07-09T11:41:00Z</time>
      </trkpt>
      <trkpt lat="41.6381120" lon="2.1171650">
        <ele>323.7</ele>
        <time>2020-07-09T11:41:01Z</time>
      </trkpt>
      <trkpt lat="41.6381130" lon="2.1171470">
        <ele>323.9</ele>
        <time>2020-07-09T11:41:02Z</time>
      </trkpt>
      <trkpt lat="41.6381130" lon="2.1171290">
        <ele>324.0</ele>
        <time>2020-07-09T11:41:03Z</time>
      </trkpt>
      <trkpt lat="41.6381140" lon="2.1171110">
        <ele>324.2</ele>
        <time>2020-07-09T11:41:04Z</time>
      </trkpt>
      <trkpt lat="41.6381150" lon="2.1170930">
        <ele>324.4</ele>
        <time>2020-07-09T11:41:05Z</time>
      </trkpt>
      <trkpt lat="41.6381160" lon="2.1170750">
        <ele>324.6</ele>
        <time>2020-07-09T11:41:06Z</time>
      </trkpt>
      <trkpt lat="41.6381180" lon="2.1170570">
        <ele>324.7</ele>
        <time>2020-07-09T11:41:07Z</time>
      </trkpt>
      <trkpt lat="41.6381190" lon="2.1170390">
        <ele>324.9</ele>
        <time>2020-07-09T11:41:08Z</time>
      </trkpt>
      <trkpt lat="41.6381200" lon="2.1170210">
        <ele>325.1</ele>
        <time>2020-07-09T11:41:09Z</time>
      </trkpt>
      <trkpt lat="41.6381200" lon="2.1170030">
        <ele>325.3</ele>
        <time>2020-07-09T11:41:10Z</time>
      </trkpt>
      <trkpt lat="41.6381200" lon="2.1169850">
        <ele>325.4</ele>
        <time>2020-07-09T11:41:11Z</time>
      </trkpt>
      <trkpt lat="41.6381200" lon="2.1169670">
        <ele>325.6</ele>
        <time>2020-07-09T11:41:12Z</time>
      </trkpt>
      <trkpt lat="41.6381180" lon="2.1169490">
        <ele>325.8</ele>
        <time>2020-07-09T11:41:13Z</time>
      </trkpt>
      <trkpt lat="41.6381160" lon="2.1169310">
        <ele>325.9</ele>
        <time>2020-07-09T11:41:14Z</time>
      </trkpt>
      <trkpt lat="41.6381130" lon="2.1169130">
        <ele>326.1</ele>
        <time>2020-07-09T11:41:15Z</time>
      </trkpt>
      <trkpt lat="41.6381100" lon="2.1168950">
        <ele>326.3</ele>
        <time>2020-07-09T11:41:16Z</time>
      </trkpt>
      <trkpt lat="41.6381060" lon="2.1168770">
        <ele>326.5</ele>
        <time>2020-07-09T11:41:17Z</time>
      </trkpt>
      <trkpt lat="41.6381020" lon="2.1168590">
        <ele>326.7</ele>
        <time>2020-07-09T11:41:18Z</time>
      </trkpt>
      <trkpt lat="41.6380970" lon="2.1168420">
        <ele>326.8</ele>
        <time>2020-07-09T11:41:19Z</time>
      </trkpt>
      <trkpt lat="41.6380930" lon="2.1168240">
        <ele>327.0</ele>
        <time>2020-07-09T11:41:20Z</time>
      </trkpt>
      <trkpt lat="41.6380880" lon="2.1168080">
        <ele>327.2</ele>
        <time>2020-07-09T11:41:21Z</time>
      </trkpt>
      <trkpt lat="41.6380840" lon="2.1167910">
        <ele>327.4</ele>
        <time>2020-07-09T11:41:22Z</time>
      </trkpt>
      <trkpt lat="41.6380810" lon="2.1167750">
        <ele>327.5</ele>
        <time>2020-07-09T11:41:23Z</time>
      </trkpt>
      <trkpt lat="41.6380770" lon="2.1167590">
        <ele>327.7</ele>
        <time>2020-07-09T11:41:24Z</time>
      </trkpt>
      <trkpt lat="41.6380740" lon="2.1167430">
        <ele>327.8</ele>
        <time>2020-07-09T11:41:25Z</time>
      </trkpt>
      <trkpt lat="41.6380720" lon="2.1167280">
        <ele>328.0</ele>
        <time>2020-07-09T11:41:26Z</time>
      </trkpt>
      <trkpt lat="41.6380690" lon="2.1167130">
        <ele>328.1</ele>
        <time>2020-07-09T11:41:27Z</time>
      </trkpt>
      <trkpt lat="41.6380670" lon="2.1166980">
        <ele>328.3</ele>
        <time>2020-07-09T11:41:28Z</time>
      </trkpt>
      <trkpt lat="41.6380650" lon="2.1166840">
        <ele>328.4</ele>
        <time>2020-07-09T11:41:29Z</time>
      </trkpt>
      <trkpt lat="41.6380640" lon="2.1166690">
        <ele>328.5</ele>
        <time>2020-07-09T11:41:30Z</time>
      </trkpt>
      <trkpt lat="41.6380620" lon="2.1166560">
        <ele>328.7</ele>
        <time>2020-07-09T11:41:31Z</time>
      </trkpt>
      <trkpt lat="41.6380610" lon="2.1166420">
        <ele>328.8</ele>
        <time>2020-07-09T11:41:32Z</time>
      </trkpt>
      <trkpt lat="41.6380590" lon="2.1166280">
        <ele>328.9</ele>
        <time>2020-07-09T11:41:33Z</time>
      </trkpt>
      <trkpt lat="41.6380580" lon="2.1166150">
        <ele>329.0</ele>
        <time>2020-07-09T11:41:34Z</time>
      </trkpt>
      <trkpt lat="41.6380570" lon="2.1166020">
        <ele>329.2</ele>
        <time>2020-07-09T11:41:35Z</time>
      </trkpt>
      <trkpt lat="41.6380560" lon="2.1165890">
        <ele>329.3</ele>
        <time>2020-07-09T11:41:36Z</time>
      </trkpt>
      <trkpt lat="41.6380550" lon="2.1165770">
        <ele>329.4</ele>
        <time>2020-07-09T11:41:37Z</time>
      </trkpt>
      <trkpt lat="41.6380540" lon="2.1165640">
        <ele>329.5</ele>
        <time>2020-07-09T11:41:38Z</time>
      </trkpt>
      <trkpt lat="41.6380520" lon="2.1165520">
        <ele>329.6</ele>
        <time>2020-07-09T11:41:39Z</time>
      </trkpt>
      <trkpt lat="41.6380510" lon="2.1165390">
        <ele>329.7</ele>
        <time>2020-07-09T11:41:40Z</time>
      </trkpt>
      <trkpt lat="41.6380500" lon="2.1165270">
        <ele>329.9</ele>
        <time>2020-07-09T11:41:41Z</time>
      </trkpt>
      <trkpt lat="41.6380480" lon="2.1165150">
        <ele>330.0</ele>
        <time>2020-07-09T11:41:42Z</time>
      </trkpt>
      <trkpt lat="41.6380460" lon="2.1165020">
        <ele>330.1</ele>
        <time>2020-07-09T11:41:43Z</time>
      </trkpt>
      <trkpt lat="41.6380430" lon="2.1164890">
        <ele>330.2</ele>
        <time>2020-07-09T11:41:44Z</time>
      </trkpt>
      <trkpt lat="41.6380400" lon="2.1164750">
        <ele>330.3</ele>
        <time>2020-07-09T11:41:45Z</time>
      </trkpt>
      <trkpt lat="41.6380370" lon="2.1164610">
        <ele>330.5</ele>
        <time>2020-07-09T11:41:46Z</time>
      </trkpt>
      <trkpt lat="41.6380320" lon="2.1164450">
        <ele>330.6</ele>
        <time>2020-07-09T11:41:47Z</time>
      </trkpt>
      <trkpt lat="41.6380270" lon="2.1164270">
        <ele>330.8</ele>
        <time>2020-07-09T11:41:48Z</time>
      </trkpt>
      <trkpt lat="41.6380200" lon="2.1164080">
        <ele>331.0</ele>
        <time>2020-07-09T11:41:49Z</time>
      </trkpt>
      <trkpt lat="41.6380130" lon="2.1163870">
        <ele>331.2</ele>
        <time>2020-07-09T11:41:50Z</time>
      </trkpt>
      <trkpt lat="41.6380050" lon="2.1163660">
        <ele>331.4</ele>
        <time>2020-07-09T11:41:51Z</time>
      </trkpt>
      <trkpt lat="41.6379970" lon="2.1163440">
        <ele>331.6</ele>
        <time>2020-07-09T11:41:52Z</time>
      </trkpt>
      <trkpt lat="41.6379900" lon="2.1163240">
        <ele>331.8</ele>
        <time>2020-07-09T11:41:53Z</time>
      </trkpt>
      <trkpt lat="41.6379840" lon="2.1163060">
        <ele>332.0</ele>
        <time>2020-07-09T11:41:54Z</time>
      </trkpt>
      <trkpt lat="41.6379800" lon="2.1162900">
        <ele>332.1</ele>
        <time>2020-07-09T11:41:55Z</time>
      </trkpt>
      <trkpt lat="41.6379770" lon="2.1162760">
        <ele>332.2</ele>
        <time>2020-07-09T11:41:56Z</time>
      </trkpt>
      <trkpt lat="41.6379750" lon="2.1162630">
        <ele>332.3</ele>
        <time>2020-07-09T11:41:57Z</time>
      </trkpt>
      <trkpt lat="41.6379730" lon="2.1162480">
        <ele>332.5</ele>
        <time>2020-07-09T11:41:58Z</time>
      </trkpt>
      <trkpt lat="41.6379710" lon="2.1162330">
        <ele>332.6</ele>
        <time>2020-07-09T11:41:59Z</time>
      </trkpt>
      <trkpt lat="41.6379690" lon="2.1162150">
        <ele>332.8</ele>
        <time>2020-07-09T11:42:00Z</time>
      </trkpt>
      <trkpt lat="41.6379670" lon="2.1161970">
        <ele>332.9</ele>
        <time>2020-07-09T11:42:01Z</time>
      </trkpt>
      <trkpt lat="41.6379650" lon="2.1161770">
        <ele>333.1</ele>
        <time>2020-07-09T11:42:02Z</time>
      </trkpt>
      <trkpt lat="41.6379650" lon="2.1161580">
        <ele>333.2</ele>
        <time>2020-07-09T11:42:03Z</time>
      </trkpt>
      <trkpt lat="41.6379650" lon="2.1161380">
        <ele>333.4</ele>
        <time>2020-07-09T11:42:04Z</time>
      </trkpt>
      <trkpt lat="41.6379670" lon="2.1161180">
        <ele>333.5</ele>
        <time>2020-07-09T11:42:05Z</time>
      </trkpt>
      <trkpt lat="41.6379700" lon="2.1160990">
        <ele>333.7</ele>
        <time>2020-07-09T11:42:06Z</time>
      </trkpt>
      <trkpt lat="41.6379750" lon="2.1160810">
        <ele>333.8</ele>
        <time>2020-07-09T11:42:07Z</time>
      </trkpt>
      <trkpt lat="41.6379820" lon="2.1160640">
        <ele>334.0</ele>
        <time>2020-07-09T11:42:08Z</time>
      </trkpt>
      <trkpt lat="41.6379900" lon="2.1160480">
        <ele>334.1</ele>
        <time>2020-07-09T11:42:09Z</time>
      </trkpt>
      <trkpt lat="41.6379990" lon="2.1160330">
        <ele>334.2</ele>
        <time>2020-07-09T11:42:10Z</time>
      </trkpt>
      <trkpt lat="41.6380080" lon="2.1160190">
        <ele>334.4</ele>
        <time>2020-07-09T11:42:11Z</time>
      </trkpt>
      <trkpt lat="41.6380160" lon="2.1160050">
        <ele>334.5</ele>
        <time>2020-07-09T11:42:12Z</time>
      </trkpt>
      <trkpt lat="41.6380220" lon="2.1159910">
        <ele>334.6</ele>
        <time>2020-07-09T11:42:13Z</time>
      </trkpt>
      <trkpt lat="41.6380270" lon="2.1159760">
        <ele>334.7</ele>
        <time>2020-07-09T11:42:14Z</time>
      </trkpt>
      <trkpt lat="41.6380300" lon="2.1159580">
        <ele>334.8</ele>
        <time>2020-07-09T11:42:15Z</time>
      </trkpt>
      <trkpt lat="41.6380310" lon="2.1159390">
        <ele>334.9</ele>
        <time>2020-07-09T11:42:16Z</time>
      </trkpt>
      <trkpt lat="41.6380320" lon="2.1159180">
        <ele>335.0</ele>
        <time>2020-07-09T11:42:17Z</time>
      </trkpt>
      <trkpt lat="41.6380370" lon="2.1158820">
        <ele>335.2</ele>
        <time>2020-07-09T11:42:18Z</time>
      </trkpt>
      <trkpt lat="41.6380430" lon="2.1158690">
        <ele>335.2</ele>
        <time>2020-07-09T11:42:19Z</time>
      </trkpt>
      <trkpt lat="41.6380480" lon="2.1158550">
        <ele>335.3</ele>
        <time>2020-07-09T11:42:20Z</time>
      </trkpt>
      <trkpt lat="41.6380530" lon="2.1158410">
        <ele>335.4</ele>
        <time>2020-07-09T11:42:21Z</time>
      </trkpt>
      <trkpt lat="41.6380590" lon="2.1158280">
        <ele>335.4</ele>
        <time>2020-07-09T11:42:22Z</time>
      </trkpt>
      <trkpt lat="41.6380640" lon="2.1158140">
        <ele>335.5</ele>
        <time>2020-07-09T11:42:23Z</time>
      </trkpt>
      <trkpt lat="41.6380750" lon="2.1158020">
        <ele>335.5</ele>
        <time>2020-07-09T11:42:24Z</time>
      </trkpt>
      <trkpt lat="41.6380860" lon="2.1157900">
        <ele>335.6</ele>
        <time>2020-07-09T11:42:25Z</time>
      </trkpt>
      <trkpt lat="41.6380970" lon="2.1157770">
        <ele>335.6</ele>
        <time>2020-07-09T11:42:26Z</time>
      </trkpt>
      <trkpt lat="41.6381070" lon="2.1157650">
        <ele>335.7</ele>
        <time>2020-07-09T11:42:27Z</time>
      </trkpt>
      <trkpt lat="41.6381160" lon="2.1157530">
        <ele>335.7</ele>
        <time>2020-07-09T11:42:28Z</time>
      </trkpt>
      <trkpt lat="41.6381250" lon="2.1157410">
        <ele>335.8</ele>
        <time>2020-07-09T11:42:29Z</time>
      </trkpt>
      <trkpt lat="41.6381330" lon="2.1157310">
        <ele>335.8</ele>
        <time>2020-07-09T11:42:30Z</time>
      </trkpt>
      <trkpt lat="41.6381400" lon="2.1157220">
        <ele>335.9</ele>
        <time>2020-07-09T11:42:31Z</time>
      </trkpt>
      <trkpt lat="41.6381460" lon="2.1157150">
        <ele>335.9</ele>
        <time>2020-07-09T11:42:32Z</time>
      </trkpt>
      <trkpt lat="41.6381500" lon="2.1157100">
        <ele>335.9</ele>
        <time>2020-07-09T11:42:33Z</time>
      </trkpt>
      <trkpt lat="41.6381530" lon="2.1157060">
        <ele>335.9</ele>
        <time>2020-07-09T11:42:34Z</time>
      </trkpt>
      <trkpt lat="41.6381560" lon="2.1157040">
        <ele>335.9</ele>
        <time>2020-07-09T11:42:35Z</time>
      </trkpt>
      <trkpt lat="41.6381580" lon="2.1157030">
        <ele>335.9</ele>
        <time>2020-07-09T11:42:36Z</time>
      </trkpt>
      <trkpt lat="41.6381620" lon="2.1157020">
        <ele>335.9</ele>
        <time>2020-07-09T11:42:37Z</time>
      </trkpt>
      <trkpt lat="41.6381660" lon="2.1157000">
        <ele>336.0</ele>
        <time>2020-07-09T11:42:38Z</time>
      </trkpt>
      <trkpt lat="41.6381730" lon="2.1156960">
        <ele>336.0</ele>
        <time>2020-07-09T11:42:39Z</time>
      </trkpt>
      <trkpt lat="41.6381810" lon="2.1156920">
        <ele>336.0</ele>
        <time>2020-07-09T11:42:40Z</time>
      </trkpt>
      <trkpt lat="41.6381890" lon="2.1156870">
        <ele>336.1</ele>
        <time>2020-07-09T11:42:41Z</time>
      </trkpt>
      <trkpt lat="41.6381970" lon="2.1156840">
        <ele>336.1</ele>
        <time>2020-07-09T11:42:42Z</time>
      </trkpt>
      <trkpt lat="41.6382040" lon="2.1156820">
        <ele>336.1</ele>
        <time>2020-07-09T11:42:43Z</time>
      </trkpt>
      <trkpt lat="41.6382100" lon="2.1156810">
        <ele>336.1</ele>
        <time>2020-07-09T11:42:44Z</time>
      </trkpt>
      <trkpt lat="41.6382160" lon="2.1156810">
        <ele>336.2</ele>
        <time>2020-07-09T11:42:45Z</time>
      </trkpt>
      <trkpt lat="41.6382200" lon="2.1156820">
        <ele>336.2</ele>
        <time>2020-07-09T11:42:46Z</time>
      </trkpt>
      <trkpt lat="41.6382250" lon="2.1156830">
        <ele>336.2</ele>
        <time>2020-07-09T11:42:47Z</time>
      </trkpt>
      <trkpt lat="41.6382280" lon="2.1156850">
        <ele>336.2</ele>
        <time>2020-07-09T11:42:48Z</time>
      </trkpt>
      <trkpt lat="41.6382320" lon="2.1156860">
        <ele>336.2</ele>
        <time>2020-07-09T11:42:49Z</time>
      </trkpt>
      <trkpt lat="41.6382360" lon="2.1156860">
        <ele>336.3</ele>
        <time>2020-07-09T11:42:50Z</time>
      </trkpt>
      <trkpt lat="41.6382400" lon="2.1156860">
        <ele>336.3</ele>
        <time>2020-07-09T11:42:51Z</time>
      </trkpt>
      <trkpt lat="41.6382450" lon="2.1156850">
        <ele>336.3</ele>
        <time>2020-07-09T11:42:52Z</time>
      </trkpt>
      <trkpt lat="41.6382500" lon="2.1156820">
        <ele>336.3</ele>
        <time>2020-07-09T11:42:53Z</time>
      </trkpt>
      <trkpt lat="41.6382550" lon="2.1156790">
        <ele>336.4</ele>
        <time>2020-07-09T11:42:54Z</time>
      </trkpt>
      <trkpt lat="41.6382600" lon="2.1156750">
        <ele>336.4</ele>
        <time>2020-07-09T11:42:55Z</time>
      </trkpt>
      <trkpt lat="41.6382660" lon="2.1156700">
        <ele>336.4</ele>
        <time>2020-07-09T11:42:56Z</time>
      </trkpt>
      <trkpt lat="41.6382720" lon="2.1156650">
        <ele>336.5</ele>
        <time>2020-07-09T11:42:57Z</time>
      </trkpt>
      <trkpt lat="41.6382780" lon="2.1156590">
        <ele>336.5</ele>
        <time>2020-07-09T11:42:58Z</time>
      </trkpt>
      <trkpt lat="41.6382840" lon="2.1156530">
        <ele>336.5</ele>
        <time>2020-07-09T11:42:59Z</time>
      </trkpt>
      <trkpt lat="41.6382910" lon="2.1156470">
        <ele>336.6</ele>
        <time>2020-07-09T11:43:00Z</time>
      </trkpt>
      <trkpt lat="41.6382970" lon="2.1156400">
        <ele>336.7</ele>
        <time>2020-07-09T11:43:01Z</time>
      </trkpt>
      <trkpt lat="41.6383030" lon="2.1156330">
        <ele>336.7</ele>
        <time>2020-07-09T11:43:02Z</time>
      </trkpt>
      <trkpt lat="41.6383100" lon="2.1156270">
        <ele>336.8</ele>
        <time>2020-07-09T11:43:03Z</time>
      </trkpt>
      <trkpt lat="41.6383160" lon="2.1156200">
        <ele>336.8</ele>
        <time>2020-07-09T11:43:04Z</time>
      </trkpt>
      <trkpt lat="41.6383220" lon="2.1156130">
        <ele>336.9</ele>
        <time>2020-07-09T11:43:05Z</time>
      </trkpt>
      <trkpt lat="41.6383280" lon="2.1156060">
        <ele>336.9</ele>
        <time>2020-07-09T11:43:06Z</time>
      </trkpt>
      <trkpt lat="41.6383330" lon="2.1155990">
        <ele>337.0</ele>
        <time>2020-07-09T11:43:07Z</time>
      </trkpt>
      <trkpt lat="41.6383390" lon="2.1155920">
        <ele>337.0</ele>
        <time>2020-07-09T11:43:08Z</time>
      </trkpt>
      <trkpt lat="41.6383440" lon="2.1155860">
        <ele>337.1</ele>
        <time>2020-07-09T11:43:09Z</time>
      </trkpt>
      <trkpt lat="41.6383480" lon="2.1155790">
        <ele>337.1</ele>
        <time>2020-07-09T11:43:10Z</time>
      </trkpt>
      <trkpt lat="41.6383520" lon="2.1155720">
        <ele>337.2</ele>
        <time>2020-07-09T11:43:11Z</time>
      </trkpt>
      <trkpt lat="41.6383560" lon="2.1155650">
        <ele>337.3</ele>
        <time>2020-07-09T11:43:12Z</time>
      </trkpt>
      <trkpt lat="41.6383600" lon="2.1155580">
        <ele>337.3</ele>
        <time>2020-07-09T11:43:13Z</time>
      </trkpt>
      <trkpt lat="41.6383630" lon="2.1155510">
        <ele>337.4</ele>
        <time>2020-07-09T11:43:14Z</time>
      </trkpt>
      <trkpt lat="41.6383660" lon="2.1155440">
        <ele>337.4</ele>
        <time>2020-07-09T11:43:15Z</time>
      </trkpt>
      <trkpt lat="41.6383700" lon="2.1155380">
        <ele>337.5</ele>
        <time>2020-07-09T11:43:16Z</time>
      </trkpt>
      <trkpt lat="41.6383730" lon="2.1155310">
        <ele>337.5</ele>
        <time>2020-07-09T11:43:17Z</time>
      </trkpt>
      <trkpt lat="41.6383770" lon="2.1155240">
        <ele>337.6</ele>
        <time>2020-07-09T11:43:18Z</time>
      </trkpt>
      <trkpt lat="41.6383800" lon="2.1155170">
        <ele>337.6</ele>
        <time>2020-07-09T11:43:19Z</time>
      </trkpt>
      <trkpt lat="41.6383840" lon="2.1155100">
        <ele>337.7</ele>
        <time>2020-07-09T11:43:20Z</time>
      </trkpt>
      <trkpt lat="41.6383880" lon="2.1155040">
        <ele>337.7</ele>
        <time>2020-07-09T11:43:21Z</time>
      </trkpt>
      <trkpt lat="41.6383920" lon="2.1154970">
        <ele>337.8</ele>
        <time>2020-07-09T11:43:22Z</time>
      </trkpt>
      <trkpt lat="41.6383970" lon="2.1154900">
        <ele>337.9</ele>
        <time>2020-07-09T11:43:23Z</time>
      </trkpt>
      <trkpt lat="41.6384010" lon="2.1154830">
        <ele>337.9</ele>
        <time>2020-07-09T11:43:24Z</time>
      </trkpt>
      <trkpt lat="41.6384060" lon="2.1154760">
        <ele>338.0</ele>
        <time>2020-07-09T11:43:25Z</time>
      </trkpt>
      <trkpt lat="41.6384100" lon="2.1154690">
        <ele>338.1</ele>
        <time>2020-07-09T11:43:26Z</time>
      </trkpt>
      <trkpt lat="41.6384150" lon="2.1154610">
        <ele>338.1</ele>
        <time>2020-07-09T11:43:27Z</time>
      </trkpt>
      <trkpt lat="41.6384200" lon="2.1154540">
        <ele>338.2</ele>
        <time>2020-07-09T11:43:28Z</time>
      </trkpt>
      <trkpt lat="41.6384250" lon="2.1154470">
        <ele>338.3</ele>
        <time>2020-07-09T11:43:29Z</time>
      </trkpt>
      <trkpt lat="41.6384300" lon="2.1154390">
        <ele>338.4</ele>
        <time>2020-07-09T11:43:30Z</time>
      </trkpt>
      <trkpt lat="41.6384350" lon="2.1154320">
        <ele>338.4</ele>
        <time>2020-07-09T11:43:31Z</time>
      </trkpt>
      <trkpt lat="41.6384400" lon="2.1154240">
        <ele>338.5</ele>
        <time>2020-07-09T11:43:32Z</time>
      </trkpt>
      <trkpt lat="41.6384450" lon="2.1154170">
        <ele>338.6</ele>
        <time>2020-07-09T11:43:33Z</time>
      </trkpt>
      <trkpt lat="41.6384500" lon="2.1154090">
        <ele>338.7</ele>
        <time>2020-07-09T11:43:34Z</time>
      </trkpt>
      <trkpt lat="41.6384550" lon="2.1154020">
        <ele>338.7</ele>
        <time>2020-07-09T11:43:35Z</time>
      </trkpt>
      <trkpt lat="41.6384590" lon="2.1153940">
        <ele>338.8</ele>
        <time>2020-07-09T11:43:36Z</time>
      </trkpt>
      <trkpt lat="41.6384640" lon="2.1153870">
        <ele>338.9</ele>
        <time>2020-07-09T11:43:37Z</time>
      </trkpt>
      <trkpt lat="41.6384690" lon="2.1153790">
        <ele>339.0</ele>
        <time>2020-07-09T11:43:38Z</time>
      </trkpt>
      <trkpt lat="41.6384730" lon="2.1153720">
        <ele>339.0</ele>
        <time>2020-07-09T11:43:39Z</time>
      </trkpt>
      <trkpt lat="41.6384770" lon="2.1153650">
        <ele>339.1</ele>
        <time>2020-07-09T11:43:40Z</time>
      </trkpt>
      <trkpt lat="41.6384820" lon="2.1153570">
        <ele>339.2</ele>
        <time>2020-07-09T11:43:41Z</time>
      </trkpt>
      <trkpt lat="41.6384850" lon="2.1153500">
        <ele>339.3</ele>
        <time>2020-07-09T11:43:42Z</time>
      </trkpt>
      <trkpt lat="41.6384890" lon="2.1153430">
        <ele>339.3</ele>
        <time>2020-07-09T11:43:43Z</time>
      </trkpt>
      <trkpt lat="41.6384930" lon="2.1153370">
        <ele>339.4</ele>
        <time>2020-07-09T11:43:44Z</time>
      </trkpt>
      <trkpt lat="41.6384960" lon="2.1153300">
        <ele>339.5</ele>
        <time>2020-07-09T11:43:45Z</time>
      </trkpt>
      <trkpt lat="41.6384990" lon="2.1153230">
        <ele>339.5</ele>
        <time>2020-07-09T11:43:46Z</time>
      </trkpt>
      <trkpt lat="41.6385020" lon="2.1153170">
        <ele>339.6</ele>
        <time>2020-07-09T11:43:47Z</time>
      </trkpt>
      <trkpt lat="41.6385050" lon="2.1153110">
        <ele>339.6</ele>
        <time>2020-07-09T11:43:48Z</time>
      </trkpt>
      <trkpt lat="41.6385070" lon="2.1153040">
        <ele>339.7</ele>
        <time>2020-07-09T11:43:49Z</time>
      </trkpt>
      <trkpt lat="41.6385100" lon="2.1152980">
        <ele>339.8</ele>
        <time>2020-07-09T11:43:50Z</time>
      </trkpt>
      <trkpt lat="41.6385120" lon="2.1152910">
        <ele>339.8</ele>
        <time>2020-07-09T11:43:51Z</time>
      </trkpt>
      <trkpt lat="41.6385150" lon="2.1152850">
        <ele>339.9</ele>
        <time>2020-07-09T11:43:52Z</time>
      </trkpt>
      <trkpt lat="41.6385170" lon="2.1152780">
        <ele>339.9</ele>
        <time>2020-07-09T11:43:53Z</time>
      </trkpt>
      <trkpt lat="41.6385190" lon="2.1152720">
        <ele>340.0</ele>
        <time>2020-07-09T11:43:54Z</time>
      </trkpt>
      <trkpt lat="41.6385210" lon="2.1152650">
        <ele>340.0</ele>
        <time>2020-07-09T11:43:55Z</time>
      </trkpt>
      <trkpt lat="41.6385240" lon="2.1152570">
        <ele>340.1</ele>
        <time>2020-07-09T11:43:56Z</time>
      </trkpt>
      <trkpt lat="41.6385260" lon="2.1152500">
        <ele>340.2</ele>
        <time>2020-07-09T11:43:57Z</time>
      </trkpt>
      <trkpt lat="41.6385280" lon="2.1152420">
        <ele>340.3</ele>
        <time>2020-07-09T11:43:58Z</time>
      </trkpt>
      <trkpt lat="41.6385310" lon="2.1152350">
        <ele>340.3</ele>
        <time>2020-07-09T11:43:59Z</time>
      </trkpt>
      <trkpt lat="41.6385330" lon="2.1152260">
        <ele>340.4</ele>
        <time>2020-07-09T11:44:00Z</time>
      </trkpt>
      <trkpt lat="41.6385360" lon="2.1152180">
        <ele>340.5</ele>
        <time>2020-07-09T11:44:01Z</time>
      </trkpt>
      <trkpt lat="41.6385390" lon="2.1152090">
        <ele>340.6</ele>
        <time>2020-07-09T11:44:02Z</time>
      </trkpt>
      <trkpt lat="41.6385420" lon="2.1151990">
        <ele>340.7</ele>
        <time>2020-07-09T11:44:03Z</time>
      </trkpt>
      <trkpt lat="41.6385460" lon="2.1151890">
        <ele>340.7</ele>
        <time>2020-07-09T11:44:04Z</time>
      </trkpt>
      <trkpt lat="41.6385490" lon="2.1151800">
        <ele>340.8</ele>
        <time>2020-07-09T11:44:05Z</time>
      </trkpt>
      <trkpt lat="41.6385530" lon="2.1151700">
        <ele>340.9</ele>
        <time>2020-07-09T11:44:06Z</time>
      </trkpt>
      <trkpt lat="41.6385560" lon="2.1151600">
        <ele>341.0</ele>
        <time>2020-07-09T11:44:07Z</time>
      </trkpt>
      <trkpt lat="41.6385600" lon="2.1151510">
        <ele>341.1</ele>
        <time>2020-07-09T11:44:08Z</time>
      </trkpt>
      <trkpt lat="41.6385640" lon="2.1151420">
        <ele>341.2</ele>
        <time>2020-07-09T11:44:09Z</time>
      </trkpt>
      <trkpt lat="41.6385680" lon="2.1151340">
        <ele>341.3</ele>
        <time>2020-07-09T11:44:10Z</time>
      </trkpt>
      <trkpt lat="41.6385720" lon="2.1151260">
        <ele>341.4</ele>
        <time>2020-07-09T11:44:11Z</time>
      </trkpt>
      <trkpt lat="41.6385760" lon="2.1151200">
        <ele>341.4</ele>
        <time>2020-07-09T11:44:12Z</time>
      </trkpt>
      <trkpt lat="41.6385800" lon="2.1151140">
        <ele>341.5</ele>
        <time>2020-07-09T11:44:13Z</time>
      </trkpt>
      <trkpt lat="41.6385840" lon="2.1151100">
        <ele>341.6</ele>
        <time>2020-07-09T11:44:14Z</time>
      </trkpt>
      <trkpt lat="41.6385880" lon="2.1151050">
        <ele>341.6</ele>
        <time>2020-07-09T11:44:15Z</time>
      </trkpt>
      <trkpt lat="41.6385920" lon="2.1151020">
        <ele>341.7</ele>
        <time>2020-07-09T11:44:16Z</time>
      </trkpt>
      <trkpt lat="41.6385960" lon="2.1150990">
        <ele>341.7</ele>
        <time>2020-07-09T11:44:17Z</time>
      </trkpt>
      <trkpt lat="41.6386000" lon="2.1150960">
        <ele>341.8</ele>
        <time>2020-07-09T11:44:18Z</time>
      </trkpt>
      <trkpt lat="41.6386050" lon="2.1150930">
        <ele>341.9</ele>
        <time>2020-07-09T11:44:19Z</time>
      </trkpt>
      <trkpt lat="41.6386090" lon="2.1150910">
        <ele>341.9</ele>
        <time>2020-07-09T11:44:20Z</time>
      </trkpt>
      <trkpt lat="41.6386140" lon="2.1150890">
        <ele>342.0</ele>
        <time>2020-07-09T11:44:21Z</time>
      </trkpt>
      <trkpt lat="41.6386180" lon="2.1150870">
        <ele>342.0</ele>
        <time>2020-07-09T11:44:22Z</time>
      </trkpt>
      <trkpt lat="41.6386230" lon="2.1150840">
        <ele>342.1</ele>
        <time>2020-07-09T11:44:23Z</time>
      </trkpt>
      <trkpt lat="41.6386280" lon="2.1150810">
        <ele>342.1</ele>
        <time>2020-07-09T11:44:24Z</time>
      </trkpt>
      <trkpt lat="41.6386320" lon="2.1150780">
        <ele>342.2</ele>
        <time>2020-07-09T11:44:25Z</time>
      </trkpt>
      <trkpt lat="41.6386370" lon="2.1150750">
        <ele>342.3</ele>
        <time>2020-07-09T11:44:26Z</time>
      </trkpt>
      <trkpt lat="41.6386410" lon="2.1150700">
        <ele>342.3</ele>
        <time>2020-07-09T11:44:27Z</time>
      </trkpt>
      <trkpt lat="41.6386440" lon="2.1150650">
        <ele>342.4</ele>
        <time>2020-07-09T11:44:28Z</time>
      </trkpt>
      <trkpt lat="41.6386480" lon="2.1150600">
        <ele>342.4</ele>
        <time>2020-07-09T11:44:29Z</time>
      </trkpt>
      <trkpt lat="41.6386510" lon="2.1150530">
        <ele>342.5</ele>
        <time>2020-07-09T11:44:30Z</time>
      </trkpt>
      <trkpt lat="41.6386530" lon="2.1150460">
        <ele>342.6</ele>
        <time>2020-07-09T11:44:31Z</time>
      </trkpt>
      <trkpt lat="41.6386560" lon="2.1150380">
        <ele>342.7</ele>
        <time>2020-07-09T11:44:32Z</time>
      </trkpt>
      <trkpt lat="41.6386580" lon="2.1150290">
        <ele>342.7</ele>
        <time>2020-07-09T11:44:33Z</time>
      </trkpt>
      <trkpt lat="41.6386600" lon="2.1150210">
        <ele>342.8</ele>
        <time>2020-07-09T11:44:34Z</time>
      </trkpt>
      <trkpt lat="41.6386620" lon="2.1150120">
        <ele>342.9</ele>
        <time>2020-07-09T11:44:35Z</time>
      </trkpt>
      <trkpt lat="41.6386640" lon="2.1150030">
        <ele>343.0</ele>
        <time>2020-07-09T11:44:36Z</time>
      </trkpt>
      <trkpt lat="41.6386660" lon="2.1149950">
        <ele>343.1</ele>
        <time>2020-07-09T11:44:37Z</time>
      </trkpt>
      <trkpt lat="41.6386690" lon="2.1149870">
        <ele>343.2</ele>
        <time>2020-07-09T11:44:38Z</time>
      </trkpt>
      <trkpt lat="41.6386720" lon="2.1149790">
        <ele>343.2</ele>
        <time>2020-07-09T11:44:39Z</time>
      </trkpt>
      <trkpt lat="41.6386740" lon="2.1149700">
        <ele>343.3</ele>
        <time>2020-07-09T11:44:40Z</time>
      </trkpt>
      <trkpt lat="41.6386760" lon="2.1149590">
        <ele>343.4</ele>
        <time>2020-07-09T11:44:41Z</time>
      </trkpt>
      <trkpt lat="41.6386770" lon="2.1149460">
        <ele>343.5</ele>
        <time>2020-07-09T11:44:42Z</time>
      </trkpt>
      <trkpt lat="41.6386770" lon="2.1149300">
        <ele>343.7</ele>
        <time>2020-07-09T11:44:43Z</time>
      </trkpt>
      <trkpt lat="41.6386760" lon="2.1149110">
        <ele>343.9</ele>
        <time>2020-07-09T11:44:44Z</time>
      </trkpt>
      <trkpt lat="41.6386760" lon="2.1148910">
        <ele>344.1</ele>
        <time>2020-07-09T11:44:45Z</time>
      </trkpt>
      <trkpt lat="41.6386770" lon="2.1148720">
        <ele>344.3</ele>
        <time>2020-07-09T11:44:46Z</time>
      </trkpt>
      <trkpt lat="41.6386800" lon="2.1148530">
        <ele>344.5</ele>
        <time>2020-07-09T11:44:47Z</time>
      </trkpt>
      <trkpt lat="41.6386840" lon="2.1148350">
        <ele>344.7</ele>
        <time>2020-07-09T11:44:48Z</time>
      </trkpt>
      <trkpt lat="41.6386900" lon="2.1148190">
        <ele>344.9</ele>
        <time>2020-07-09T11:44:49Z</time>
      </trkpt>
      <trkpt lat="41.6386970" lon="2.1148040">
        <ele>345.1</ele>
        <time>2020-07-09T11:44:50Z</time>
      </trkpt>
      <trkpt lat="41.6387040" lon="2.1147910">
        <ele>345.3</ele>
        <time>2020-07-09T11:44:51Z</time>
      </trkpt>
      <trkpt lat="41.6387120" lon="2.1147790">
        <ele>345.4</ele>
        <time>2020-07-09T11:44:52Z</time>
      </trkpt>
      <trkpt lat="41.6387210" lon="2.1147690">
        <ele>345.6</ele>
        <time>2020-07-09T11:44:53Z</time>
      </trkpt>
      <trkpt lat="41.6387290" lon="2.1147600">
        <ele>345.8</ele>
        <time>2020-07-09T11:44:54Z</time>
      </trkpt>
      <trkpt lat="41.6387380" lon="2.1147530">
        <ele>346.0</ele>
        <time>2020-07-09T11:44:55Z</time>
      </trkpt>
      <trkpt lat="41.6387460" lon="2.1147480">
        <ele>346.1</ele>
        <time>2020-07-09T11:44:56Z</time>
      </trkpt>
      <trkpt lat="41.6387530" lon="2.1147440">
        <ele>346.3</ele>
        <time>2020-07-09T11:44:57Z</time>
      </trkpt>
      <trkpt lat="41.6387610" lon="2.1147410">
        <ele>346.4</ele>
        <time>2020-07-09T11:44:58Z</time>
      </trkpt>
      <trkpt lat="41.6387700" lon="2.1147390">
        <ele>346.6</ele>
        <time>2020-07-09T11:44:59Z</time>
      </trkpt>
      <trkpt lat="41.6387790" lon="2.1147370">
        <ele>346.8</ele>
        <time>2020-07-09T11:45:00Z</time>
      </trkpt>
      <trkpt lat="41.6387890" lon="2.1147350">
        <ele>347.0</ele>
        <time>2020-07-09T11:45:01Z</time>
      </trkpt>
      <trkpt lat="41.6388000" lon="2.1147320">
        <ele>347.2</ele>
        <time>2020-07-09T11:45:02Z</time>
      </trkpt>
      <trkpt lat="41.6388120" lon="2.1147280">
        <ele>347.4</ele>
        <time>2020-07-09T11:45:03Z</time>
      </trkpt>
      <trkpt lat="41.6388260" lon="2.1147220">
        <ele>347.7</ele>
        <time>2020-07-09T11:45:04Z</time>
      </trkpt>
      <trkpt lat="41.6388420" lon="2.1147150">
        <ele>348.1</ele>
        <time>2020-07-09T11:45:05Z</time>
      </trkpt>
      <trkpt lat="41.6388580" lon="2.1147080">
        <ele>348.5</ele>
        <time>2020-07-09T11:45:06Z</time>
      </trkpt>
      <trkpt lat="41.6388730" lon="2.1147000">
        <ele>348.8</ele>
        <time>2020-07-09T11:45:07Z</time>
      </trkpt>
      <trkpt lat="41.6388840" lon="2.1146940">
        <ele>349.1</ele>
        <time>2020-07-09T11:45:08Z</time>
      </trkpt>
      <trkpt lat="41.6388920" lon="2.1146890">
        <ele>349.3</ele>
        <time>2020-07-09T11:45:09Z</time>
      </trkpt>
      <trkpt lat="41.6388960" lon="2.1146870">
        <ele>349.5</ele>
        <time>2020-07-09T11:45:10Z</time>
      </trkpt>
      <trkpt lat="41.6388980" lon="2.1146870">
        <ele>349.5</ele>
        <time>2020-07-09T11:45:11Z</time>
      </trkpt>
      <trkpt lat="41.6388990" lon="2.1146880">
        <ele>349.5</ele>
        <time>2020-07-09T11:45:12Z</time>
      </trkpt>
      <trkpt lat="41.6388990" lon="2.1146900">
        <ele>349.6</ele>
        <time>2020-07-09T11:45:13Z</time>
      </trkpt>
      <trkpt lat="41.6389000" lon="2.1146910">
        <ele>349.6</ele>
        <time>2020-07-09T11:45:14Z</time>
      </trkpt>
      <trkpt lat="41.6389010" lon="2.1146930">
        <ele>349.7</ele>
        <time>2020-07-09T11:45:15Z</time>
      </trkpt>
      <trkpt lat="41.6389020" lon="2.1146940">
        <ele>349.7</ele>
        <time>2020-07-09T11:45:16Z</time>
      </trkpt>
      <trkpt lat="41.6389030" lon="2.1146960">
        <ele>349.7</ele>
        <time>2020-07-09T11:45:17Z</time>
      </trkpt>
      <trkpt lat="41.6389030" lon="2.1146970">
        <ele>349.8</ele>
        <time>2020-07-09T11:45:18Z</time>
      </trkpt>
      <trkpt lat="41.6389040" lon="2.1146990">
        <ele>349.8</ele>
        <time>2020-07-09T11:45:19Z</time>
      </trkpt>
      <trkpt lat="41.6389050" lon="2.1147000">
        <ele>349.8</ele>
        <time>2020-07-09T11:45:20Z</time>
      </trkpt>
      <trkpt lat="41.6389060" lon="2.1147020">
        <ele>349.9</ele>
        <time>2020-07-09T11:45:21Z</time>
      </trkpt>
      <trkpt lat="41.6389070" lon="2.1147030">
        <ele>349.9</ele>
        <time>2020-07-09T11:45:22Z</time>
      </trkpt>
      <trkpt lat="41.6389080" lon="2.1147050">
        <ele>350.0</ele>
        <time>2020-07-09T11:45:23Z</time>
      </trkpt>
      <trkpt lat="41.6389080" lon="2.1147060">
        <ele>350.0</ele>
        <time>2020-07-09T11:45:24Z</time>
      </trkpt>
      <trkpt lat="41.6389090" lon="2.1147080">
        <ele>350.0</ele>
        <time>2020-07-09T11:45:25Z</time>
      </trkpt>
      <trkpt lat="41.6389100" lon="2.1147090">
        <ele>350.1</ele>
        <time>2020-07-09T11:45:26Z</time>
      </trkpt>
      <trkpt lat="41.6389110" lon="2.1147110">
        <ele>350.1</ele>
        <time>2020-07-09T11:45:27Z</time>
      </trkpt>
      <trkpt lat="41.6389120" lon="2.1147130">
        <ele>350.2</ele>
        <time>2020-07-09T11:45:28Z</time>
      </trkpt>
      <trkpt lat="41.6389120" lon="2.1147140">
        <ele>350.2</ele>
        <time>2020-07-09T11:45:29Z</time>
      </trkpt>
      <trkpt lat="41.6389130" lon="2.1147160">
        <ele>350.2</ele>
        <time>2020-07-09T11:45:30Z</time>
      </trkpt>
      <trkpt lat="41.6389140" lon="2.1147170">
        <ele>350.2</ele>
        <time>2020-07-09T11:45:31Z</time>
      </trkpt>
      <trkpt lat="41.6389150" lon="2.1147190">
        <ele>350.3</ele>
        <time>2020-07-09T11:45:32Z</time>
      </trkpt>
      <trkpt lat="41.6389160" lon="2.1147200">
        <ele>350.3</ele>
        <time>2020-07-09T11:45:33Z</time>
      </trkpt>
      <trkpt lat="41.6389160" lon="2.1147220">
        <ele>350.4</ele>
        <time>2020-07-09T11:45:34Z</time>
      </trkpt>
      <trkpt lat="41.6389170" lon="2.1147230">
        <ele>350.4</ele>
        <time>2020-07-09T11:45:35Z</time>
      </trkpt>
      <trkpt lat="41.6389180" lon="2.1147250">
        <ele>350.4</ele>
        <time>2020-07-09T11:45:36Z</time>
      </trkpt>
      <trkpt lat="41.6389190" lon="2.1147260">
        <ele>350.5</ele>
        <time>2020-07-09T11:45:37Z</time>
      </trkpt>
      <trkpt lat="41.6389200" lon="2.1147280">
        <ele>350.5</ele>
        <time>2020-07-09T11:45:38Z</time>
      </trkpt>
      <trkpt lat="41.6389200" lon="2.1147290">
        <ele>350.5</ele>
        <time>2020-07-09T11:45:39Z</time>
      </trkpt>
      <trkpt lat="41.6389210" lon="2.1147310">
        <ele>350.6</ele>
        <time>2020-07-09T11:45:40Z</time>
      </trkpt>
      <trkpt lat="41.6389220" lon="2.1147320">
        <ele>350.6</ele>
        <time>2020-07-09T11:45:41Z</time>
      </trkpt>
      <trkpt lat="41.6389230" lon="2.1147340">
        <ele>350.7</ele>
        <time>2020-07-09T11:45:42Z</time>
      </trkpt>
      <trkpt lat="41.6389240" lon="2.1147350">
        <ele>350.7</ele>
        <time>2020-07-09T11:45:43Z</time>
      </trkpt>
      <trkpt lat="41.6389240" lon="2.1147370">
        <ele>350.7</ele>
        <time>2020-07-09T11:45:44Z</time>
      </trkpt>
      <trkpt lat="41.6389250" lon="2.1147380">
        <ele>350.8</ele>
        <time>2020-07-09T11:45:45Z</time>
      </trkpt>
      <trkpt lat="41.6389260" lon="2.1147400">
        <ele>350.8</ele>
        <time>2020-07-09T11:45:46Z</time>
      </trkpt>
      <trkpt lat="41.6389270" lon="2.1147420">
        <ele>350.9</ele>
        <time>2020-07-09T11:45:47Z</time>
      </trkpt>
      <trkpt lat="41.6389280" lon="2.1147430">
        <ele>350.9</ele>
        <time>2020-07-09T11:45:48Z</time>
      </trkpt>
      <trkpt lat="41.6389290" lon="2.1147450">
        <ele>351.0</ele>
        <time>2020-07-09T11:45:49Z</time>
      </trkpt>
      <trkpt lat="41.6389290" lon="2.1147460">
        <ele>351.0</ele>
        <time>2020-07-09T11:45:50Z</time>
      </trkpt>
      <trkpt lat="41.6389300" lon="2.1147480">
        <ele>351.0</ele>
        <time>2020-07-09T11:45:51Z</time>
      </trkpt>
      <trkpt lat="41.6389310" lon="2.1147490">
        <ele>351.1</ele>
        <time>2020-07-09T11:45:52Z</time>
      </trkpt>
      <trkpt lat="41.6389320" lon="2.1147510">
        <ele>351.1</ele>
        <time>2020-07-09T11:45:53Z</time>
      </trkpt>
      <trkpt lat="41.6389330" lon="2.1147520">
        <ele>351.1</ele>
        <time>2020-07-09T11:45:54Z</time>
      </trkpt>
      <trkpt lat="41.6389330" lon="2.1147540">
        <ele>351.2</ele>
        <time>2020-07-09T11:45:55Z</time>
      </trkpt>
      <trkpt lat="41.6389340" lon="2.1147550">
        <ele>351.2</ele>
        <time>2020-07-09T11:45:56Z</time>
      </trkpt>
      <trkpt lat="41.6389350" lon="2.1147570">
        <ele>351.3</ele>
        <time>2020-07-09T11:45:57Z</time>
      </trkpt>
      <trkpt lat="41.6389360" lon="2.1147580">
        <ele>351.3</ele>
        <time>2020-07-09T11:45:58Z</time>
      </trkpt>
      <trkpt lat="41.6389370" lon="2.1147600">
        <ele>351.4</ele>
        <time>2020-07-09T11:45:59Z</time>
      </trkpt>
      <trkpt lat="41.6389370" lon="2.1147610">
        <ele>351.4</ele>
        <time>2020-07-09T11:46:00Z</time>
      </trkpt>
      <trkpt lat="41.6389380" lon="2.1147630">
        <ele>351.4</ele>
        <time>2020-07-09T11:46:01Z</time>
      </trkpt>
      <trkpt lat="41.6389390" lon="2.1147640">
        <ele>351.5</ele>
        <time>2020-07-09T11:46:02Z</time>
      </trkpt>
      <trkpt lat="41.6389400" lon="2.1147660">
        <ele>351.5</ele>
        <time>2020-07-09T11:46:03Z</time>
      </trkpt>
      <trkpt lat="41.6389410" lon="2.1147680">
        <ele>351.6</ele>
        <time>2020-07-09T11:46:04Z</time>
      </trkpt>
      <trkpt lat="41.6389410" lon="2.1147690">
        <ele>351.6</ele>
        <time>2020-07-09T11:46:05Z</time>
      </trkpt>
      <trkpt lat="41.6389420" lon="2.1147710">
        <ele>351.6</ele>
        <time>2020-07-09T11:46:06Z</time>
      </trkpt>
      <trkpt lat="41.6389430" lon="2.1147720">
        <ele>351.7</ele>
        <time>2020-07-09T11:46:07Z</time>
      </trkpt>
      <trkpt lat="41.6389440" lon="2.1147740">
        <ele>351.7</ele>
        <time>2020-07-09T11:46:08Z</time>
      </trkpt>
      <trkpt lat="41.6389450" lon="2.1147750">
        <ele>351.7</ele>
        <time>2020-07-09T11:46:09Z</time>
      </trkpt>
      <trkpt lat="41.6389450" lon="2.1147770">
        <ele>351.8</ele>
        <time>2020-07-09T11:46:10Z</time>
      </trkpt>
      <trkpt lat="41.6389460" lon="2.1147780">
        <ele>351.8</ele>
        <time>2020-07-09T11:46:11Z</time>
      </trkpt>
      <trkpt lat="41.6389470" lon="2.1147800">
        <ele>351.9</ele>
        <time>2020-07-09T11:46:12Z</time>
      </trkpt>
      <trkpt lat="41.6389480" lon="2.1147810">
        <ele>351.9</ele>
        <time>2020-07-09T11:46:13Z</time>
      </trkpt>
      <trkpt lat="41.6389490" lon="2.1147830">
        <ele>351.9</ele>
        <time>2020-07-09T11:46:14Z</time>
      </trkpt>
      <trkpt lat="41.6389500" lon="2.1147840">
        <ele>352.0</ele>
        <time>2020-07-09T11:46:15Z</time>
      </trkpt>
      <trkpt lat="41.6389500" lon="2.1147860">
        <ele>352.0</ele>
        <time>2020-07-09T11:46:16Z</time>
      </trkpt>
      <trkpt lat="41.6389510" lon="2.1147870">
        <ele>352.1</ele>
        <time>2020-07-09T11:46:17Z</time>
      </trkpt>
      <trkpt lat="41.6389520" lon="2.1147890">
        <ele>352.1</ele>
        <time>2020-07-09T11:46:18Z</time>
      </trkpt>
      <trkpt lat="41.6389530" lon="2.1147900">
        <ele>352.1</ele>
        <time>2020-07-09T11:46:19Z</time>
      </trkpt>
      <trkpt lat="41.6389540" lon="2.1147920">
        <ele>352.2</ele>
        <time>2020-07-09T11:46:20Z</time>
      </trkpt>
      <trkpt lat="41.6389540" lon="2.1147930">
        <ele>352.2</ele>
        <time>2020-07-09T11:46:21Z</time>
      </trkpt>
      <trkpt lat="41.6389550" lon="2.1147950">
        <ele>352.3</ele>
        <time>2020-07-09T11:46:22Z</time>
      </trkpt>
      <trkpt lat="41.6389560" lon="2.1147970">
        <ele>352.3</ele>
        <time>2020-07-09T11:46:23Z</time>
      </trkpt>
      <trkpt lat="41.6389570" lon="2.1147980">
        <ele>352.3</ele>
        <time>2020-07-09T11:46:24Z</time>
      </trkpt>
      <trkpt lat="41.6389580" lon="2.1148000">
        <ele>352.4</ele>
        <time>2020-07-09T11:46:25Z</time>
      </trkpt>
      <trkpt lat="41.6389580" lon="2.1148010">
        <ele>352.4</ele>
        <time>2020-07-09T11:46:26Z</time>
      </trkpt>
      <trkpt lat="41.6389590" lon="2.1148030">
        <ele>352.5</ele>
        <time>2020-07-09T11:46:27Z</time>
      </trkpt>
      <trkpt lat="41.6389600" lon="2.1148040">
        <ele>352.5</ele>
        <time>2020-07-09T11:46:28Z</time>
      </trkpt>
      <trkpt lat="41.6389610" lon="2.1148060">
        <ele>352.5</ele>
        <time>2020-07-09T11:46:29Z</time>
      </trkpt>
      <trkpt lat="41.6389620" lon="2.1148070">
        <ele>352.6</ele>
        <time>2020-07-09T11:46:30Z</time>
      </trkpt>
      <trkpt lat="41.6389620" lon="2.1148090">
        <ele>352.6</ele>
        <time>2020-07-09T11:46:31Z</time>
      </trkpt>
      <trkpt lat="41.6389630" lon="2.1148100">
        <ele>352.7</ele>
        <time>2020-07-09T11:46:32Z</time>
      </trkpt>
      <trkpt lat="41.6389640" lon="2.1148120">
        <ele>352.7</ele>
        <time>2020-07-09T11:46:33Z</time>
      </trkpt>
      <trkpt lat="41.6389650" lon="2.1148130">
        <ele>352.8</ele>
        <time>2020-07-09T11:46:34Z</time>
      </trkpt>
      <trkpt lat="41.6389660" lon="2.1148150">
        <ele>352.8</ele>
        <time>2020-07-09T11:46:35Z</time>
      </trkpt>
      <trkpt lat="41.6389660" lon="2.1148160">
        <ele>352.8</ele>
        <time>2020-07-09T11:46:36Z</time>
      </trkpt>
      <trkpt lat="41.6389670" lon="2.1148180">
        <ele>352.9</ele>
        <time>2020-07-09T11:46:37Z</time>
      </trkpt>
      <trkpt lat="41.6389680" lon="2.1148190">
        <ele>352.9</ele>
        <time>2020-07-09T11:46:38Z</time>
      </trkpt>
      <trkpt lat="41.6389690" lon="2.1148210">
        <ele>353.0</ele>
        <time>2020-07-09T11:46:39Z</time>
      </trkpt>
      <trkpt lat="41.6389700" lon="2.1148230">
        <ele>353.0</ele>
        <time>2020-07-09T11:46:40Z</time>
      </trkpt>
      <trkpt lat="41.6389710" lon="2.1148240">
        <ele>353.1</ele>
        <time>2020-07-09T11:46:41Z</time>
      </trkpt>
      <trkpt lat="41.6389710" lon="2.1148260">
        <ele>353.1</ele>
        <time>2020-07-09T11:46:42Z</time>
      </trkpt>
      <trkpt lat="41.6389720" lon="2.1148270">
        <ele>353.1</ele>
        <time>2020-07-09T11:46:43Z</time>
      </trkpt>
      <trkpt lat="41.6389730" lon="2.1148290">
        <ele>353.2</ele>
        <time>2020-07-09T11:46:44Z</time>
      </trkpt>
      <trkpt lat="41.6389740" lon="2.1148300">
        <ele>353.2</ele>
        <time>2020-07-09T11:46:45Z</time>
      </trkpt>
      <trkpt lat="41.6389750" lon="2.1148320">
        <ele>353.3</ele>
        <time>2020-07-09T11:46:46Z</time>
      </trkpt>
      <trkpt lat="41.6389750" lon="2.1148330">
        <ele>353.3</ele>
        <time>2020-07-09T11:46:47Z</time>
      </trkpt>
      <trkpt lat="41.6389760" lon="2.1148350">
        <ele>353.3</ele>
        <time>2020-07-09T11:46:48Z</time>
      </trkpt>
      <trkpt lat="41.6389770" lon="2.1148360">
        <ele>353.4</ele>
        <time>2020-07-09T11:46:49Z</time>
      </trkpt>
      <trkpt lat="41.6389780" lon="2.1148380">
        <ele>353.4</ele>
        <time>2020-07-09T11:46:50Z</time>
      </trkpt>
      <trkpt lat="41.6389790" lon="2.1148390">
        <ele>353.5</ele>
        <time>2020-07-09T11:46:51Z</time>
      </trkpt>
      <trkpt lat="41.6389790" lon="2.1148410">
        <ele>353.5</ele>
        <time>2020-07-09T11:46:52Z</time>
      </trkpt>
      <trkpt lat="41.6389800" lon="2.1148420">
        <ele>353.5</ele>
        <time>2020-07-09T11:46:53Z</time>
      </trkpt>
      <trkpt lat="41.6389810" lon="2.1148440">
        <ele>353.6</ele>
        <time>2020-07-09T11:46:54Z</time>
      </trkpt>
      <trkpt lat="41.6389820" lon="2.1148450">
        <ele>353.6</ele>
        <time>2020-07-09T11:46:55Z</time>
      </trkpt>
      <trkpt lat="41.6389830" lon="2.1148470">
        <ele>353.7</ele>
        <time>2020-07-09T11:46:56Z</time>
      </trkpt>
      <trkpt lat="41.6389830" lon="2.1148480">
        <ele>353.7</ele>
        <time>2020-07-09T11:46:57Z</time>
      </trkpt>
      <trkpt lat="41.6389840" lon="2.1148500">
        <ele>353.8</ele>
        <time>2020-07-09T11:46:58Z</time>
      </trkpt>
      <trkpt lat="41.6389850" lon="2.1148520">
        <ele>353.8</ele>
        <time>2020-07-09T11:46:59Z</time>
      </trkpt>
      <trkpt lat="41.6389860" lon="2.1148530">
        <ele>353.9</ele>
        <time>2020-07-09T11:47:00Z</time>
      </trkpt>
      <trkpt lat="41.6389870" lon="2.1148550">
        <ele>353.9</ele>
        <time>2020-07-09T11:47:01Z</time>
      </trkpt>
      <trkpt lat="41.6389870" lon="2.1148560">
        <ele>353.9</ele>
        <time>2020-07-09T11:47:02Z</time>
      </trkpt>
      <trkpt lat="41.6389880" lon="2.1148580">
        <ele>354.0</ele>
        <time>2020-07-09T11:47:03Z</time>
      </trkpt>
      <trkpt lat="41.6389890" lon="2.1148590">
        <ele>354.0</ele>
        <time>2020-07-09T11:47:04Z</time>
      </trkpt>
      <trkpt lat="41.6389900" lon="2.1148610">
        <ele>354.1</ele>
        <time>2020-07-09T11:47:05Z</time>
      </trkpt>
      <trkpt lat="41.6389910" lon="2.1148620">
        <ele>354.1</ele>
        <time>2020-07-09T11:47:06Z</time>
      </trkpt>
      <trkpt lat="41.6389920" lon="2.1148640">
        <ele>354.2</ele>
        <time>2020-07-09T11:47:07Z</time>
      </trkpt>
      <trkpt lat="41.6389920" lon="2.1148650">
        <ele>354.2</ele>
        <time>2020-07-09T11:47:08Z</time>
      </trkpt>
      <trkpt lat="41.6389930" lon="2.1148670">
        <ele>354.2</ele>
        <time>2020-07-09T11:47:09Z</time>
      </trkpt>
      <trkpt lat="41.6389940" lon="2.1148680">
        <ele>354.3</ele>
        <time>2020-07-09T11:47:10Z</time>
      </trkpt>
      <trkpt lat="41.6389950" lon="2.1148700">
        <ele>354.3</ele>
        <time>2020-07-09T11:47:11Z</time>
      </trkpt>
      <trkpt lat="41.6389960" lon="2.1148710">
        <ele>354.4</ele>
        <time>2020-07-09T11:47:12Z</time>
      </trkpt>
      <trkpt lat="41.6389960" lon="2.1148730">
        <ele>354.4</ele>
        <time>2020-07-09T11:47:13Z</time>
      </trkpt>
      <trkpt lat="41.6389970" lon="2.1148740">
        <ele>354.4</ele>
        <time>2020-07-09T11:47:14Z</time>
      </trkpt>
      <trkpt lat="41.6389980" lon="2.1148760">
        <ele>354.5</ele>
        <time>2020-07-09T11:47:15Z</time>
      </trkpt>
      <trkpt lat="41.6390000" lon="2.1148780">
        <ele>354.6</ele>
        <time>2020-07-09T11:47:16Z</time>
      </trkpt>
      <trkpt lat="41.6390030" lon="2.1148810">
        <ele>354.7</ele>
        <time>2020-07-09T11:47:17Z</time>
      </trkpt>
      <trkpt lat="41.6390070" lon="2.1148840">
        <ele>354.8</ele>
        <time>2020-07-09T11:47:18Z</time>
      </trkpt>
      <trkpt lat="41.6390120" lon="2.1148870">
        <ele>355.0</ele>
        <time>2020-07-09T11:47:19Z</time>
      </trkpt>
      <trkpt lat="41.6390180" lon="2.1148900">
        <ele>355.2</ele>
        <time>2020-07-09T11:47:20Z</time>
      </trkpt>
      <trkpt lat="41.6390230" lon="2.1148930">
        <ele>355.3</ele>
        <time>2020-07-09T11:47:21Z</time>
      </trkpt>
      <trkpt lat="41.6390290" lon="2.1148960">
        <ele>355.5</ele>
        <time>2020-07-09T11:47:22Z</time>
      </trkpt>
      <trkpt lat="41.6390350" lon="2.1148980">
        <ele>355.7</ele>
        <time>2020-07-09T11:47:23Z</time>
      </trkpt>
      <trkpt lat="41.6390400" lon="2.1149010">
        <ele>355.9</ele>
        <time>2020-07-09T11:47:24Z</time>
      </trkpt>
      <trkpt lat="41.6390450" lon="2.1149030">
        <ele>356.0</ele>
        <time>2020-07-09T11:47:25Z</time>
      </trkpt>
      <trkpt lat="41.6390490" lon="2.1149050">
        <ele>356.2</ele>
        <time>2020-07-09T11:47:26Z</time>
      </trkpt>
      <trkpt lat="41.6390530" lon="2.1149070">
        <ele>356.3</ele>
        <time>2020-07-09T11:47:27Z</time>
      </trkpt>
      <trkpt lat="41.6390560" lon="2.1149080">
        <ele>356.4</ele>
        <time>2020-07-09T11:47:28Z</time>
      </trkpt>
      <trkpt lat="41.6390580" lon="2.1149090">
        <ele>356.5</ele>
        <time>2020-07-09T11:47:29Z</time>
      </trkpt>
      <trkpt lat="41.6390600" lon="2.1149100">
        <ele>356.5</ele>
        <time>2020-07-09T11:47:30Z</time>
      </trkpt>
      <trkpt lat="41.6390620" lon="2.1149100">
        <ele>356.6</ele>
        <time>2020-07-09T11:47:31Z</time>
      </trkpt>
      <trkpt lat="41.6390640" lon="2.1149110">
        <ele>356.7</ele>
        <time>2020-07-09T11:47:32Z</time>
      </trkpt>
      <trkpt lat="41.6390650" lon="2.1149100">
        <ele>356.7</ele>
        <time>2020-07-09T11:47:33Z</time>
      </trkpt>
      <trkpt lat="41.6390660" lon="2.1149100">
        <ele>356.7</ele>
        <time>2020-07-09T11:47:34Z</time>
      </trkpt>
      <trkpt lat="41.6390670" lon="2.1149090">
        <ele>356.8</ele>
        <time>2020-07-09T11:47:35Z</time>
      </trkpt>
      <trkpt lat="41.6390680" lon="2.1149090">
        <ele>356.8</ele>
        <time>2020-07-09T11:47:36Z</time>
      </trkpt>
      <trkpt lat="41.6390690" lon="2.1149080">
        <ele>356.8</ele>
        <time>2020-07-09T11:47:37Z</time>
      </trkpt>
      <trkpt lat="41.6390700" lon="2.1149080">
        <ele>356.9</ele>
        <time>2020-07-09T11:47:38Z</time>
      </trkpt>
      <trkpt lat="41.6390710" lon="2.1149070">
        <ele>356.9</ele>
        <time>2020-07-09T11:47:39Z</time>
      </trkpt>
      <trkpt lat="41.6390720" lon="2.1149070">
        <ele>356.9</ele>
        <time>2020-07-09T11:47:40Z</time>
      </trkpt>
      <trkpt lat="41.6390730" lon="2.1149060">
        <ele>357.0</ele>
        <time>2020-07-09T11:47:41Z</time>
      </trkpt>
      <trkpt lat="41.6390740" lon="2.1149060">
        <ele>357.0</ele>
        <time>2020-07-09T11:47:42Z</time>
      </trkpt>
      <trkpt lat="41.6390750" lon="2.1149050">
        <ele>357.0</ele>
        <time>2020-07-09T11:47:43Z</time>
      </trkpt>
      <trkpt lat="41.6390770" lon="2.1149050">
        <ele>357.1</ele>
        <time>2020-07-09T11:47:44Z</time>
      </trkpt>
      <trkpt lat="41.6390780" lon="2.1149040">
        <ele>357.1</ele>
        <time>2020-07-09T11:47:45Z</time>
      </trkpt>
      <trkpt lat="41.6390790" lon="2.1149040">
        <ele>357.2</ele>
        <time>2020-07-09T11:47:46Z</time>
      </trkpt>
      <trkpt lat="41.6390800" lon="2.1149030">
        <ele>357.2</ele>
        <time>2020-07-09T11:47:47Z</time>
      </trkpt>
      <trkpt lat="41.6390810" lon="2.1149030">
        <ele>357.2</ele>
        <time>2020-07-09T11:47:48Z</time>
      </trkpt>
      <trkpt lat="41.6390820" lon="2.1149020">
        <ele>357.3</ele>
        <time>2020-07-09T11:47:49Z</time>
      </trkpt>
      <trkpt lat="41.6390830" lon="2.1149020">
        <ele>357.3</ele>
        <time>2020-07-09T11:47:50Z</time>
      </trkpt>
      <trkpt lat="41.6390840" lon="2.1149010">
        <ele>357.3</ele>
        <time>2020-07-09T11:47:51Z</time>
      </trkpt>
      <trkpt lat="41.6390850" lon="2.1149010">
        <ele>357.4</ele>
        <time>2020-07-09T11:47:52Z</time>
      </trkpt>
      <trkpt lat="41.6390860" lon="2.1149000">
        <ele>357.4</ele>
        <time>2020-07-09T11:47:53Z</time>
      </trkpt>
      <trkpt lat="41.6390870" lon="2.1149000">
        <ele>357.4</ele>
        <time>2020-07-09T11:47:54Z</time>
      </trkpt>
      <trkpt lat="41.6390880" lon="2.1148990">
        <ele>357.5</ele>
        <time>2020-07-09T11:47:55Z</time>
      </trkpt>
      <trkpt lat="41.6390890" lon="2.1148990">
        <ele>357.5</ele>
        <time>2020-07-09T11:47:56Z</time>
      </trkpt>
      <trkpt lat="41.6390900" lon="2.1148990">
        <ele>357.5</ele>
        <time>2020-07-09T11:47:57Z</time>
      </trkpt>
      <trkpt lat="41.6390910" lon="2.1148980">
        <ele>357.6</ele>
        <time>2020-07-09T11:47:58Z</time>
      </trkpt>
      <trkpt lat="41.6390920" lon="2.1148980">
        <ele>357.6</ele>
        <time>2020-07-09T11:47:59Z</time>
      </trkpt>
      <trkpt lat="41.6390930" lon="2.1148970">
        <ele>357.6</ele>
        <time>2020-07-09T11:48:00Z</time>
      </trkpt>
      <trkpt lat="41.6390940" lon="2.1148970">
        <ele>357.7</ele>
        <time>2020-07-09T11:48:01Z</time>
      </trkpt>
      <trkpt lat="41.6390950" lon="2.1148960">
        <ele>357.7</ele>
        <time>2020-07-09T11:48:02Z</time>
      </trkpt>
      <trkpt lat="41.6390960" lon="2.1148960">
        <ele>357.7</ele>
        <time>2020-07-09T11:48:03Z</time>
      </trkpt>
      <trkpt lat="41.6390970" lon="2.1148950">
        <ele>357.8</ele>
        <time>2020-07-09T11:48:04Z</time>
      </trkpt>
      <trkpt lat="41.6390980" lon="2.1148950">
        <ele>357.8</ele>
        <time>2020-07-09T11:48:05Z</time>
      </trkpt>
      <trkpt lat="41.6390990" lon="2.1148940">
        <ele>357.8</ele>
        <time>2020-07-09T11:48:06Z</time>
      </trkpt>
      <trkpt lat="41.6391000" lon="2.1148940">
        <ele>357.9</ele>
        <time>2020-07-09T11:48:07Z</time>
      </trkpt>
      <trkpt lat="41.6391010" lon="2.1148930">
        <ele>357.9</ele>
        <time>2020-07-09T11:48:08Z</time>
      </trkpt>
      <trkpt lat="41.6391020" lon="2.1148930">
        <ele>357.9</ele>
        <time>2020-07-09T11:48:09Z</time>
      </trkpt>
      <trkpt lat="41.6391040" lon="2.1148920">
        <ele>358.0</ele>
        <time>2020-07-09T11:48:10Z</time>
      </trkpt>
      <trkpt lat="41.6391050" lon="2.1148920">
        <ele>358.0</ele>
        <time>2020-07-09T11:48:11Z</time>
      </trkpt>
      <trkpt lat="41.6391060" lon="2.1148910">
        <ele>358.1</ele>
        <time>2020-07-09T11:48:12Z</time>
      </trkpt>
      <trkpt lat="41.6391070" lon="2.1148910">
        <ele>358.1</ele>
        <time>2020-07-09T11:48:13Z</time>
      </trkpt>
      <trkpt lat="41.6391080" lon="2.1148900">
        <ele>358.1</ele>
        <time>2020-07-09T11:48:14Z</time>
      </trkpt>
      <trkpt lat="41.6391090" lon="2.1148900">
        <ele>358.2</ele>
        <time>2020-07-09T11:48:15Z</time>
      </trkpt>
      <trkpt lat="41.6391100" lon="2.1148890">
        <ele>358.2</ele>
        <time>2020-07-09T11:48:16Z</time>
      </trkpt>
      <trkpt lat="41.6391110" lon="2.1148890">
        <ele>358.2</ele>
        <time>2020-07-09T11:48:17Z</time>
      </trkpt>
      <trkpt lat="41.6391120" lon="2.1148880">
        <ele>358.3</ele>
        <time>2020-07-09T11:48:18Z</time>
      </trkpt>
      <trkpt lat="41.6391130" lon="2.1148880">
        <ele>358.3</ele>
        <time>2020-07-09T11:48:19Z</time>
      </trkpt>
      <trkpt lat="41.6391140" lon="2.1148870">
        <ele>358.3</ele>
        <time>2020-07-09T11:48:20Z</time>
      </trkpt>
      <trkpt lat="41.6391150" lon="2.1148870">
        <ele>358.4</ele>
        <time>2020-07-09T11:48:21Z</time>
      </trkpt>
      <trkpt lat="41.6391160" lon="2.1148860">
        <ele>358.4</ele>
        <time>2020-07-09T11:48:22Z</time>
      </trkpt>
      <trkpt lat="41.6391170" lon="2.1148860">
        <ele>358.4</ele>
        <time>2020-07-09T11:48:23Z</time>
      </trkpt>
      <trkpt lat="41.6391260" lon="2.1148820">
        <ele>358.7</ele>
        <time>2020-07-09T11:48:24Z</time>
      </trkpt>
      <trkpt lat="41.6391350" lon="2.1148780">
        <ele>359.0</ele>
        <time>2020-07-09T11:48:25Z</time>
      </trkpt>
      <trkpt lat="41.6391430" lon="2.1148740">
        <ele>359.3</ele>
        <time>2020-07-09T11:48:26Z</time>
      </trkpt>
      <trkpt lat="41.6391500" lon="2.1148710">
        <ele>359.5</ele>
        <time>2020-07-09T11:48:27Z</time>
      </trkpt>
      <trkpt lat="41.6391550" lon="2.1148670">
        <ele>359.7</ele>
        <time>2020-07-09T11:48:28Z</time>
      </trkpt>
      <trkpt lat="41.6391590" lon="2.1148640">
        <ele>359.8</ele>
        <time>2020-07-09T11:48:29Z</time>
      </trkpt>
      <trkpt lat="41.6391620" lon="2.1148600">
        <ele>359.9</ele>
        <time>2020-07-09T11:48:30Z</time>
      </trkpt>
      <trkpt lat="41.6391630" lon="2.1148560">
        <ele>360.0</ele>
        <time>2020-07-09T11:48:31Z</time>
      </trkpt>
      <trkpt lat="41.6391650" lon="2.1148520">
        <ele>360.1</ele>
        <time>2020-07-09T11:48:32Z</time>
      </trkpt>
      <trkpt lat="41.6391660" lon="2.1148470">
        <ele>360.3</ele>
        <time>2020-07-09T11:48:33Z</time>
      </trkpt>
      <trkpt lat="41.6391670" lon="2.1148410">
        <ele>360.4</ele>
        <time>2020-07-09T11:48:34Z</time>
      </trkpt>
      <trkpt lat="41.6391680" lon="2.1148340">
        <ele>360.6</ele>
        <time>2020-07-09T11:48:35Z</time>
      </trkpt>
      <trkpt lat="41.6391700" lon="2.1148250">
        <ele>360.8</ele>
        <time>2020-07-09T11:48:36Z</time>
      </trkpt>
      <trkpt lat="41.6391740" lon="2.1148160">
        <ele>361.0</ele>
        <time>2020-07-09T11:48:37Z</time>
      </trkpt>
      <trkpt lat="41.6391780" lon="2.1148060">
        <ele>361.3</ele>
        <time>2020-07-09T11:48:38Z</time>
      </trkpt>
      <trkpt lat="41.6391820" lon="2.1147950">
        <ele>361.5</ele>
        <time>2020-07-09T11:48:39Z</time>
      </trkpt>
      <trkpt lat="41.6391870" lon="2.1147830">
        <ele>361.8</ele>
        <time>2020-07-09T11:48:40Z</time>
      </trkpt>
      <trkpt lat="41.6391930" lon="2.1147720">
        <ele>362.1</ele>
        <time>2020-07-09T11:48:41Z</time>
      </trkpt>
      <trkpt lat="41.6391980" lon="2.1147600">
        <ele>362.4</ele>
        <time>2020-07-09T11:48:42Z</time>
      </trkpt>
      <trkpt lat="41.6392030" lon="2.1147500">
        <ele>362.7</ele>
        <time>2020-07-09T11:48:43Z</time>
      </trkpt>
      <trkpt lat="41.6392080" lon="2.1147400">
        <ele>362.9</ele>
        <time>2020-07-09T11:48:44Z</time>
      </trkpt>
      <trkpt lat="41.6392130" lon="2.1147320">
        <ele>363.2</ele>
        <time>2020-07-09T11:48:45Z</time>
      </trkpt>
      <trkpt lat="41.6392170" lon="2.1147250">
        <ele>363.4</ele>
        <time>2020-07-09T11:48:46Z</time>
      </trkpt>
      <trkpt lat="41.6392200" lon="2.1147190">
        <ele>363.5</ele>
        <time>2020-07-09T11:48:47Z</time>
      </trkpt>
      <trkpt lat="41.6392220" lon="2.1147150">
        <ele>363.6</ele>
        <time>2020-07-09T11:48:48Z</time>
      </trkpt>
      <trkpt lat="41.6392250" lon="2.1147120">
        <ele>363.7</ele>
        <time>2020-07-09T11:48:49Z</time>
      </trkpt>
      <trkpt lat="41.6392260" lon="2.1147090">
        <ele>363.8</ele>
        <time>2020-07-09T11:48:50Z</time>
      </trkpt>
      <trkpt lat="41.6392270" lon="2.1147080">
        <ele>363.8</ele>
        <time>2020-07-09T11:48:51Z</time>
      </trkpt>
      <trkpt lat="41.6392280" lon="2.1147070">
        <ele>363.9</ele>
        <time>2020-07-09T11:48:52Z</time>
      </trkpt>
      <trkpt lat="41.6392290" lon="2.1147060">
        <ele>363.9</ele>
        <time>2020-07-09T11:48:53Z</time>
      </trkpt>
      <trkpt lat="41.6392300" lon="2.1147060">
        <ele>363.9</ele>
        <time>2020-07-09T11:48:54Z</time>
      </trkpt>
      <trkpt lat="41.6392300" lon="2.1147050">
        <ele>363.9</ele>
        <time>2020-07-09T11:48:55Z</time>
      </trkpt>
      <trkpt lat="41.6392300" lon="2.1147050">
        <ele>363.9</ele>
        <time>2020-07-09T11:48:56Z</time>
      </trkpt>
      <trkpt lat="41.6392310" lon="2.1147050">
        <ele>364.0</ele>
        <time>2020-07-09T11:48:57Z</time>
      </trkpt>
      <trkpt lat="41.6392310" lon="2.1147050">
        <ele>364.0</ele>
        <time>2020-07-09T11:48:58Z</time>
      </trkpt>
      <trkpt lat="41.6392310" lon="2.1147050">
        <ele>364.0</ele>
        <time>2020-07-09T11:48:59Z</time>
      </trkpt>
      <trkpt lat="41.6392310" lon="2.1147050">
        <ele>364.0</ele>
        <time>2020-07-09T11:49:00Z</time>
      </trkpt>
      <trkpt lat="41.6392310" lon="2.1147050">
        <ele>364.0</ele>
        <time>2020-07-09T11:49:01Z</time>
      </trkpt>
      <trkpt lat="41.6392310" lon="2.1147050">
        <ele>364.0</ele>
        <time>2020-07-09T11:49:02Z</time>
      </trkpt>
      <trkpt lat="41.6392310" lon="2.1147050">
        <ele>364.0</ele>
        <time>2020-07-09T11:49:03Z</time>
      </trkpt>
      <trkpt lat="41.6392310" lon="2.1147050">
        <ele>364.0</ele>
        <time>2020-07-09T11:49:04Z</time>
      </trkpt>
      <trkpt lat="41.6392310" lon="2.1147050">
        <ele>364.0</ele>
        <time>2020-07-09T11:49:05Z</time>
      </trkpt>
      <trkpt lat="41.6392310" lon="2.1147050">
        <ele>364.0</ele>
        <time>2020-07-09T11:49:06Z</time>
      </trkpt>
      <trkpt lat="41.6392310" lon="2.1147050">
        <ele>364.0</ele>
        <time>2020-07-09T11:49:07Z</time>
      </trkpt>
      <trkpt lat="41.6392310" lon="2.1147050">
        <ele>364.0</ele>
        <time>2020-07-09T11:49:08Z</time>
      </trkpt>
      <trkpt lat="41.6392310" lon="2.1147050">
        <ele>364.0</ele>
        <time>2020-07-09T11:49:09Z</time>
      </trkpt>
      <trkpt lat="41.6392310" lon="2.1147050">
        <ele>364.0</ele>
        <time>2020-07-09T11:49:10Z</time>
      </trkpt>
      <trkpt lat="41.6392310" lon="2.1147050">
        <ele>364.0</ele>
        <time>2020-07-09T11:49:11Z</time>
      </trkpt>
      <trkpt lat="41.6392310" lon="2.1147050">
        <ele>364.0</ele>
        <time>2020-07-09T11:49:12Z</time>
      </trkpt>
      <trkpt lat="41.6392310" lon="2.1147050">
        <ele>364.0</ele>
        <time>2020-07-09T11:49:13Z</time>
      </trkpt>
      <trkpt lat="41.6392310" lon="2.1147050">
        <ele>364.0</ele>
        <time>2020-07-09T11:49:14Z</time>
      </trkpt>
      <trkpt lat="41.6392310" lon="2.1147050">
        <ele>364.0</ele>
        <time>2020-07-09T11:49:15Z</time>
      </trkpt>
      <trkpt lat="41.6392310" lon="2.1147050">
        <ele>364.0</ele>
        <time>2020-07-09T11:49:16Z</time>
      </trkpt>
      <trkpt lat="41.6392310" lon="2.1147050">
        <ele>364.0</ele>
        <time>2020-07-09T11:49:17Z</time>
      </trkpt>
      <trkpt lat="41.6392310" lon="2.1147050">
        <ele>364.0</ele>
        <time>2020-07-09T11:49:18Z</time>
      </trkpt>
      <trkpt lat="41.6392310" lon="2.1147050">
        <ele>364.0</ele>
        <time>2020-07-09T11:49:19Z</time>
      </trkpt>
      <trkpt lat="41.6392310" lon="2.1147050">
        <ele>364.0</ele>
        <time>2020-07-09T11:49:20Z</time>
      </trkpt>
      <trkpt lat="41.6392310" lon="2.1147050">
        <ele>364.0</ele>
        <time>2020-07-09T11:49:21Z</time>
      </trkpt>
      <trkpt lat="41.6392310" lon="2.1147050">
        <ele>364.0</ele>
        <time>2020-07-09T11:49:22Z</time>
      </trkpt>
      <trkpt lat="41.6392310" lon="2.1147050">
        <ele>364.0</ele>
        <time>2020-07-09T11:49:23Z</time>
      </trkpt>
      <trkpt lat="41.6392310" lon="2.1147050">
        <ele>364.0</ele>
        <time>2020-07-09T11:49:24Z</time>
      </trkpt>
      <trkpt lat="41.6392310" lon="2.1147050">
        <ele>364.0</ele>
        <time>2020-07-09T11:49:25Z</time>
      </trkpt>
      <trkpt lat="41.6392310" lon="2.1147050">
        <ele>364.0</ele>
        <time>2020-07-09T11:49:26Z</time>
      </trkpt>
      <trkpt lat="41.6392310" lon="2.1147050">
        <ele>364.0</ele>
        <time>2020-07-09T11:49:27Z</time>
      </trkpt>
      <trkpt lat="41.6392310" lon="2.1147050">
        <ele>364.0</ele>
        <time>2020-07-09T11:49:28Z</time>
      </trkpt>
      <trkpt lat="41.6392310" lon="2.1147050">
        <ele>364.0</ele>
        <time>2020-07-09T11:49:29Z</time>
      </trkpt>
      <trkpt lat="41.6392310" lon="2.1147050">
        <ele>364.0</ele>
        <time>2020-07-09T11:49:30Z</time>
      </trkpt>
      <trkpt lat="41.6392310" lon="2.1147050">
        <ele>364.0</ele>
        <time>2020-07-09T11:49:31Z</time>
      </trkpt>
      <trkpt lat="41.6392310" lon="2.1147050">
        <ele>364.0</ele>
        <time>2020-07-09T11:49:32Z</time>
      </trkpt>
      <trkpt lat="41.6392310" lon="2.1147050">
        <ele>364.0</ele>
        <time>2020-07-09T11:49:33Z</time>
      </trkpt>
      <trkpt lat="41.6392310" lon="2.1147050">
        <ele>364.0</ele>
        <time>2020-07-09T11:49:34Z</time>
      </trkpt>
      <trkpt lat="41.6392310" lon="2.1147050">
        <ele>364.0</ele>
        <time>2020-07-09T11:49:35Z</time>
      </trkpt>
      <trkpt lat="41.6392310" lon="2.1147050">
        <ele>364.0</ele>
        <time>2020-07-09T11:49:36Z</time>
      </trkpt>
      <trkpt lat="41.6392310" lon="2.1147050">
        <ele>364.0</ele>
        <time>2020-07-09T11:49:37Z</time>
      </trkpt>
      <trkpt lat="41.6392310" lon="2.1147050">
        <ele>364.0</ele>
        <time>2020-07-09T11:49:38Z</time>
      </trkpt>
      <trkpt lat="41.6392310" lon="2.1147050">
        <ele>364.0</ele>
        <time>2020-07-09T11:49:39Z</time>
      </trkpt>
      <trkpt lat="41.6392310" lon="2.1147050">
        <ele>364.0</ele>
        <time>2020-07-09T11:49:40Z</time>
      </trkpt>
      <trkpt lat="41.6392310" lon="2.1147050">
        <ele>364.0</ele>
        <time>2020-07-09T11:49:41Z</time>
      </trkpt>
      <trkpt lat="41.6392310" lon="2.1147050">
        <ele>364.0</ele>
        <time>2020-07-09T11:49:42Z</time>
      </trkpt>
      <trkpt lat="41.6392310" lon="2.1147050">
        <ele>364.0</ele>
        <time>2020-07-09T11:49:43Z</time>
      </trkpt>
      <trkpt lat="41.6392310" lon="2.1147050">
        <ele>364.0</ele>
        <time>2020-07-09T11:49:44Z</time>
      </trkpt>
      <trkpt lat="41.6392310" lon="2.1147050">
        <ele>364.0</ele>
        <time>2020-07-09T11:49:45Z</time>
      </trkpt>
      <trkpt lat="41.6392310" lon="2.1147050">
        <ele>364.0</ele>
        <time>2020-07-09T11:49:46Z</time>
      </trkpt>
      <trkpt lat="41.6392310" lon="2.1147050">
        <ele>364.0</ele>
        <time>2020-07-09T11:49:47Z</time>
      </trkpt>
      <trkpt lat="41.6392310" lon="2.1147050">
        <ele>364.0</ele>
        <time>2020-07-09T11:49:48Z</time>
      </trkpt>
      <trkpt lat="41.6392310" lon="2.1147050">
        <ele>364.0</ele>
        <time>2020-07-09T11:49:49Z</time>
      </trkpt>
      <trkpt lat="41.6392310" lon="2.1147050">
        <ele>364.0</ele>
        <time>2020-07-09T11:49:50Z</time>
      </trkpt>
      <trkpt lat="41.6392310" lon="2.1147060">
        <ele>364.0</ele>
        <time>2020-07-09T11:49:51Z</time>
      </trkpt>
      <trkpt lat="41.6392310" lon="2.1147060">
        <ele>364.0</ele>
        <time>2020-07-09T11:49:52Z</time>
      </trkpt>
      <trkpt lat="41.6392310" lon="2.1147060">
        <ele>364.0</ele>
        <time>2020-07-09T11:49:53Z</time>
      </trkpt>
      <trkpt lat="41.6392310" lon="2.1147060">
        <ele>364.0</ele>
        <time>2020-07-09T11:49:54Z</time>
      </trkpt>
      <trkpt lat="41.6392310" lon="2.1147060">
        <ele>364.0</ele>
        <time>2020-07-09T11:49:55Z</time>
      </trkpt>
      <trkpt lat="41.6392310" lon="2.1147090">
        <ele>364.0</ele>
        <time>2020-07-09T11:49:56Z</time>
      </trkpt>
      <trkpt lat="41.6392340" lon="2.1147270">
        <ele>364.4</ele>
        <time>2020-07-09T11:49:57Z</time>
      </trkpt>
      <trkpt lat="41.6392400" lon="2.1147610">
        <ele>365.1</ele>
        <time>2020-07-09T11:49:58Z</time>
      </trkpt>
      <trkpt lat="41.6392420" lon="2.1147790">
        <ele>365.5</ele>
        <time>2020-07-09T11:49:59Z</time>
      </trkpt>
      <trkpt lat="41.6392430" lon="2.1147810">
        <ele>365.5</ele>
        <time>2020-07-09T11:50:00Z</time>
      </trkpt>
      <trkpt lat="41.6392430" lon="2.1147810">
        <ele>365.5</ele>
        <time>2020-07-09T11:50:01Z</time>
      </trkpt>
      <trkpt lat="41.6392430" lon="2.1147810">
        <ele>365.5</ele>
        <time>2020-07-09T11:50:02Z</time>
      </trkpt>
      <trkpt lat="41.6392430" lon="2.1147810">
        <ele>365.5</ele>
        <time>2020-07-09T11:50:03Z</time>
      </trkpt>
      <trkpt lat="41.6392430" lon="2.1147810">
        <ele>365.5</ele>
        <time>2020-07-09T11:50:04Z</time>
      </trkpt>
      <trkpt lat="41.6392430" lon="2.1147810">
        <ele>365.5</ele>
        <time>2020-07-09T11:50:05Z</time>
      </trkpt>
      <trkpt lat="41.6392430" lon="2.1147810">
        <ele>365.5</ele>
        <time>2020-07-09T11:50:06Z</time>
      </trkpt>
      <trkpt lat="41.6392430" lon="2.1147810">
        <ele>365.5</ele>
        <time>2020-07-09T11:50:07Z</time>
      </trkpt>
      <trkpt lat="41.6392430" lon="2.1147810">
        <ele>365.5</ele>
        <time>2020-07-09T11:50:08Z</time>
      </trkpt>
      <trkpt lat="41.6392430" lon="2.1147810">
        <ele>365.5</ele>
        <time>2020-07-09T11:50:09Z</time>
      </trkpt>
      <trkpt lat="41.6392430" lon="2.1147810">
        <ele>365.5</ele>
        <time>2020-07-09T11:50:10Z</time>
      </trkpt>
      <trkpt lat="41.6392430" lon="2.1147810">
        <ele>365.5</ele>
        <time>2020-07-09T11:50:11Z</time>
      </trkpt>
      <trkpt lat="41.6392430" lon="2.1147810">
        <ele>365.5</ele>
        <time>2020-07-09T11:50:12Z</time>
      </trkpt>
      <trkpt lat="41.6392430" lon="2.1147810">
        <ele>365.5</ele>
        <time>2020-07-09T11:50:13Z</time>
      </trkpt>
      <trkpt lat="41.6392430" lon="2.1147810">
        <ele>365.5</ele>
        <time>2020-07-09T11:50:14Z</time>
      </trkpt>
      <trkpt lat="41.6392430" lon="2.1147810">
        <ele>365.5</ele>
        <time>2020-07-09T11:50:15Z</time>
      </trkpt>
      <trkpt lat="41.6392430" lon="2.1147810">
        <ele>365.5</ele>
        <time>2020-07-09T11:50:16Z</time>
      </trkpt>
      <trkpt lat="41.6392430" lon="2.1147810">
        <ele>365.5</ele>
        <time>2020-07-09T11:50:17Z</time>
      </trkpt>
      <trkpt lat="41.6392430" lon="2.1147810">
        <ele>365.5</ele>
        <time>2020-07-09T11:50:18Z</time>
      </trkpt>
      <trkpt lat="41.6392430" lon="2.1147810">
        <ele>365.5</ele>
        <time>2020-07-09T11:50:19Z</time>
      </trkpt>
      <trkpt lat="41.6392430" lon="2.1147810">
        <ele>365.5</ele>
        <time>2020-07-09T11:50:20Z</time>
      </trkpt>
      <trkpt lat="41.6392430" lon="2.1147810">
        <ele>365.5</ele>
        <time>2020-07-09T11:50:21Z</time>
      </trkpt>
      <trkpt lat="41.6392430" lon="2.1147810">
        <ele>365.5</ele>
        <time>2020-07-09T11:50:22Z</time>
      </trkpt>
      <trkpt lat="41.6392430" lon="2.1147810">
        <ele>365.5</ele>
        <time>2020-07-09T11:50:23Z</time>
      </trkpt>
      <trkpt lat="41.6392430" lon="2.1147810">
        <ele>365.5</ele>
        <time>2020-07-09T11:50:24Z</time>
      </trkpt>
      <trkpt lat="41.6392430" lon="2.1147810">
        <ele>365.5</ele>
        <time>2020-07-09T11:50:25Z</time>
      </trkpt>
      <trkpt lat="41.6392430" lon="2.1147810">
        <ele>365.5</ele>
        <time>2020-07-09T11:50:26Z</time>
      </trkpt>
      <trkpt lat="41.6392430" lon="2.1147810">
        <ele>365.5</ele>
        <time>2020-07-09T11:50:27Z</time>
      </trkpt>
      <trkpt lat="41.6392430" lon="2.1147810">
        <ele>365.5</ele>
        <time>2020-07-09T11:50:28Z</time>
      </trkpt>
      <trkpt lat="41.6392430" lon="2.1147810">
        <ele>365.5</ele>
        <time>2020-07-09T11:50:29Z</time>
      </trkpt>
      <trkpt lat="41.6392430" lon="2.1147810">
        <ele>365.5</ele>
        <time>2020-07-09T11:50:30Z</time>
      </trkpt>
      <trkpt lat="41.6392430" lon="2.1147810">
        <ele>365.5</ele>
        <time>2020-07-09T11:50:31Z</time>
      </trkpt>
      <trkpt lat="41.6392430" lon="2.1147810">
        <ele>365.5</ele>
        <time>2020-07-09T11:50:32Z</time>
      </trkpt>
      <trkpt lat="41.6392430" lon="2.1147810">
        <ele>365.5</ele>
        <time>2020-07-09T11:50:33Z</time>
      </trkpt>
      <trkpt lat="41.6392430" lon="2.1147810">
        <ele>365.5</ele>
        <time>2020-07-09T11:50:34Z</time>
      </trkpt>
      <trkpt lat="41.6392430" lon="2.1147810">
        <ele>365.5</ele>
        <time>2020-07-09T11:50:35Z</time>
      </trkpt>
      <trkpt lat="41.6392430" lon="2.1147810">
        <ele>365.5</ele>
        <time>2020-07-09T11:50:36Z</time>
      </trkpt>
      <trkpt lat="41.6392430" lon="2.1147810">
        <ele>365.5</ele>
        <time>2020-07-09T11:50:37Z</time>
      </trkpt>
      <trkpt lat="41.6392430" lon="2.1147810">
        <ele>365.5</ele>
        <time>2020-07-09T11:50:38Z</time>
      </trkpt>
      <trkpt lat="41.6392430" lon="2.1147810">
        <ele>365.5</ele>
        <time>2020-07-09T11:50:39Z</time>
      </trkpt>
      <trkpt lat="41.6392430" lon="2.1147810">
        <ele>365.5</ele>
        <time>2020-07-09T11:50:40Z</time>
      </trkpt>
      <trkpt lat="41.6392430" lon="2.1147810">
        <ele>365.5</ele>
        <time>2020-07-09T11:50:41Z</time>
      </trkpt>
      <trkpt lat="41.6392430" lon="2.1147810">
        <ele>365.5</ele>
        <time>2020-07-09T11:50:42Z</time>
      </trkpt>
      <trkpt lat="41.6392430" lon="2.1147810">
        <ele>365.5</ele>
        <time>2020-07-09T11:50:43Z</time>
      </trkpt>
      <trkpt lat="41.6392430" lon="2.1147810">
        <ele>365.5</ele>
        <time>2020-07-09T11:50:44Z</time>
      </trkpt>
      <trkpt lat="41.6392430" lon="2.1147810">
        <ele>365.5</ele>
        <time>2020-07-09T11:50:45Z</time>
      </trkpt>
      <trkpt lat="41.6392430" lon="2.1147810">
        <ele>365.5</ele>
        <time>2020-07-09T11:50:46Z</time>
      </trkpt>
      <trkpt lat="41.6392430" lon="2.1147810">
        <ele>365.5</ele>
        <time>2020-07-09T11:50:47Z</time>
      </trkpt>
      <trkpt lat="41.6392430" lon="2.1147810">
        <ele>365.5</ele>
        <time>2020-07-09T11:50:48Z</time>
      </trkpt>
      <trkpt lat="41.6392430" lon="2.1147810">
        <ele>365.5</ele>
        <time>2020-07-09T11:50:49Z</time>
      </trkpt>
      <trkpt lat="41.6392430" lon="2.1147810">
        <ele>365.5</ele>
        <time>2020-07-09T11:50:50Z</time>
      </trkpt>
      <trkpt lat="41.6392430" lon="2.1147810">
        <ele>365.5</ele>
        <time>2020-07-09T11:50:51Z</time>
      </trkpt>
      <trkpt lat="41.6392430" lon="2.1147810">
        <ele>365.5</ele>
        <time>2020-07-09T11:50:52Z</time>
      </trkpt>
      <trkpt lat="41.6392430" lon="2.1147810">
        <ele>365.5</ele>
        <time>2020-07-09T11:50:53Z</time>
      </trkpt>
      <trkpt lat="41.6392430" lon="2.1147810">
        <ele>365.5</ele>
        <time>2020-07-09T11:50:54Z</time>
      </trkpt>
      <trkpt lat="41.6392430" lon="2.1147810">
        <ele>365.5</ele>
        <time>2020-07-09T11:50:55Z</time>
      </trkpt>
      <trkpt lat="41.6392430" lon="2.1147810">
        <ele>365.5</ele>
        <time>2020-07-09T11:50:56Z</time>
      </trkpt>
      <trkpt lat="41.6392430" lon="2.1147810">
        <ele>365.5</ele>
        <time>2020-07-09T11:50:57Z</time>
      </trkpt>
      <trkpt lat="41.6392430" lon="2.1147810">
        <ele>365.5</ele>
        <time>2020-07-09T11:50:58Z</time>
      </trkpt>
      <trkpt lat="41.6392430" lon="2.1147810">
        <ele>365.5</ele>
        <time>2020-07-09T11:50:59Z</time>
      </trkpt>
      <trkpt lat="41.6392430" lon="2.1147810">
        <ele>365.5</ele>
        <time>2020-07-09T11:51:00Z</time>
      </trkpt>
      <trkpt lat="41.6392430" lon="2.1147810">
        <ele>365.5</ele>
        <time>2020-07-09T11:51:01Z</time>
      </trkpt>
      <trkpt lat="41.6392430" lon="2.1147810">
        <ele>365.5</ele>
        <time>2020-07-09T11:51:02Z</time>
      </trkpt>
      <trkpt lat="41.6392430" lon="2.1147810">
        <ele>365.5</ele>
        <time>2020-07-09T11:51:03Z</time>
      </trkpt>
      <trkpt lat="41.6392430" lon="2.1147810">
        <ele>365.5</ele>
        <time>2020-07-09T11:51:04Z</time>
      </trkpt>
      <trkpt lat="41.6392430" lon="2.1147810">
        <ele>365.5</ele>
        <time>2020-07-09T11:51:05Z</time>
      </trkpt>
      <trkpt lat="41.6392430" lon="2.1147810">
        <ele>365.5</ele>
        <time>2020-07-09T11:51:06Z</time>
      </trkpt>
      <trkpt lat="41.6392430" lon="2.1147810">
        <ele>365.5</ele>
        <time>2020-07-09T11:51:07Z</time>
      </trkpt>
      <trkpt lat="41.6392430" lon="2.1147810">
        <ele>365.5</ele>
        <time>2020-07-09T11:51:08Z</time>
      </trkpt>
      <trkpt lat="41.6392430" lon="2.1147810">
        <ele>365.5</ele>
        <time>2020-07-09T11:51:09Z</time>
      </trkpt>
      <trkpt lat="41.6392430" lon="2.1147810">
        <ele>365.5</ele>
        <time>2020-07-09T11:51:10Z</time>
      </trkpt>
      <trkpt lat="41.6392430" lon="2.1147810">
        <ele>365.5</ele>
        <time>2020-07-09T11:51:11Z</time>
      </trkpt>
      <trkpt lat="41.6392430" lon="2.1147810">
        <ele>365.5</ele>
        <time>2020-07-09T11:51:12Z</time>
      </trkpt>
      <trkpt lat="41.6392430" lon="2.1147810">
        <ele>365.5</ele>
        <time>2020-07-09T11:51:13Z</time>
      </trkpt>
      <trkpt lat="41.6392430" lon="2.1147810">
        <ele>365.5</ele>
        <time>2020-07-09T11:51:14Z</time>
      </trkpt>
      <trkpt lat="41.6392430" lon="2.1147810">
        <ele>365.5</ele>
        <time>2020-07-09T11:51:15Z</time>
      </trkpt>
      <trkpt lat="41.6392430" lon="2.1147810">
        <ele>365.5</ele>
        <time>2020-07-09T11:51:16Z</time>
      </trkpt>
      <trkpt lat="41.6392430" lon="2.1147810">
        <ele>365.5</ele>
        <time>2020-07-09T11:51:17Z</time>
      </trkpt>
      <trkpt lat="41.6392430" lon="2.1147810">
        <ele>365.5</ele>
        <time>2020-07-09T11:51:18Z</time>
      </trkpt>
      <trkpt lat="41.6392430" lon="2.1147810">
        <ele>365.5</ele>
        <time>2020-07-09T11:51:19Z</time>
      </trkpt>
      <trkpt lat="41.6392430" lon="2.1147810">
        <ele>365.5</ele>
        <time>2020-07-09T11:51:20Z</time>
      </trkpt>
      <trkpt lat="41.6392430" lon="2.1147810">
        <ele>365.5</ele>
        <time>2020-07-09T11:51:21Z</time>
      </trkpt>
      <trkpt lat="41.6392430" lon="2.1147810">
        <ele>365.5</ele>
        <time>2020-07-09T11:51:22Z</time>
      </trkpt>
      <trkpt lat="41.6392430" lon="2.1147810">
        <ele>365.5</ele>
        <time>2020-07-09T11:51:23Z</time>
      </trkpt>
      <trkpt lat="41.6392430" lon="2.1147810">
        <ele>365.5</ele>
        <time>2020-07-09T11:51:24Z</time>
      </trkpt>
      <trkpt lat="41.6392430" lon="2.1147810">
        <ele>365.5</ele>
        <time>2020-07-09T11:51:25Z</time>
      </trkpt>
      <trkpt lat="41.6392430" lon="2.1147810">
        <ele>365.5</ele>
        <time>2020-07-09T11:51:26Z</time>
      </trkpt>
      <trkpt lat="41.6392430" lon="2.1147810">
        <ele>365.5</ele>
        <time>2020-07-09T11:51:27Z</time>
      </trkpt>
      <trkpt lat="41.6392430" lon="2.1147810">
        <ele>365.5</ele>
        <time>2020-07-09T11:51:28Z</time>
      </trkpt>
      <trkpt lat="41.6392430" lon="2.1147820">
        <ele>365.6</ele>
        <time>2020-07-09T11:51:29Z</time>
      </trkpt>
      <trkpt lat="41.6392430" lon="2.1147820">
        <ele>365.6</ele>
        <time>2020-07-09T11:51:30Z</time>
      </trkpt>
      <trkpt lat="41.6392430" lon="2.1147830">
        <ele>365.6</ele>
        <time>2020-07-09T11:51:31Z</time>
      </trkpt>
      <trkpt lat="41.6392440" lon="2.1147840">
        <ele>365.6</ele>
        <time>2020-07-09T11:51:32Z</time>
      </trkpt>
      <trkpt lat="41.6392440" lon="2.1147860">
        <ele>365.6</ele>
        <time>2020-07-09T11:51:33Z</time>
      </trkpt>
      <trkpt lat="41.6392450" lon="2.1147880">
        <ele>365.7</ele>
        <time>2020-07-09T11:51:34Z</time>
      </trkpt>
      <trkpt lat="41.6392450" lon="2.1147910">
        <ele>365.7</ele>
        <time>2020-07-09T11:51:35Z</time>
      </trkpt>
      <trkpt lat="41.6392440" lon="2.1147940">
        <ele>365.8</ele>
        <time>2020-07-09T11:51:36Z</time>
      </trkpt>
      <trkpt lat="41.6392430" lon="2.1147990">
        <ele>365.9</ele>
        <time>2020-07-09T11:51:37Z</time>
      </trkpt>
      <trkpt lat="41.6392400" lon="2.1148050">
        <ele>366.0</ele>
        <time>2020-07-09T11:51:38Z</time>
      </trkpt>
      <trkpt lat="41.6392360" lon="2.1148120">
        <ele>366.2</ele>
        <time>2020-07-09T11:51:39Z</time>
      </trkpt>
      <trkpt lat="41.6392330" lon="2.1148180">
        <ele>366.3</ele>
        <time>2020-07-09T11:51:40Z</time>
      </trkpt>
      <trkpt lat="41.6392300" lon="2.1148240">
        <ele>366.5</ele>
        <time>2020-07-09T11:51:41Z</time>
      </trkpt>
      <trkpt lat="41.6392270" lon="2.1148290">
        <ele>366.6</ele>
        <time>2020-07-09T11:51:42Z</time>
      </trkpt>
      <trkpt lat="41.6392260" lon="2.1148330">
        <ele>366.6</ele>
        <time>2020-07-09T11:51:43Z</time>
      </trkpt>
      <trkpt lat="41.6392250" lon="2.1148360">
        <ele>366.7</ele>
        <time>2020-07-09T11:51:44Z</time>
      </trkpt>
      <trkpt lat="41.6392250" lon="2.1148380">
        <ele>366.7</ele>
        <time>2020-07-09T11:51:45Z</time>
      </trkpt>
      <trkpt lat="41.6392250" lon="2.1148400">
        <ele>366.8</ele>
        <time>2020-07-09T11:51:46Z</time>
      </trkpt>
      <trkpt lat="41.6392250" lon="2.1148410">
        <ele>366.8</ele>
        <time>2020-07-09T11:51:47Z</time>
      </trkpt>
      <trkpt lat="41.6392240" lon="2.1148430">
        <ele>366.8</ele>
        <time>2020-07-09T11:51:48Z</time>
      </trkpt>
      <trkpt lat="41.6392240" lon="2.1148450">
        <ele>366.9</ele>
        <time>2020-07-09T11:51:49Z</time>
      </trkpt>
      <trkpt lat="41.6392220" lon="2.1148470">
        <ele>366.9</ele>
        <time>2020-07-09T11:51:50Z</time>
      </trkpt>
      <trkpt lat="41.6392200" lon="2.1148510">
        <ele>367.0</ele>
        <time>2020-07-09T11:51:51Z</time>
      </trkpt>
      <trkpt lat="41.6392170" lon="2.1148540">
        <ele>367.1</ele>
        <time>2020-07-09T11:51:52Z</time>
      </trkpt>
      <trkpt lat="41.6392130" lon="2.1148590">
        <ele>367.2</ele>
        <time>2020-07-09T11:51:53Z</time>
      </trkpt>
      <trkpt lat="41.6392080" lon="2.1148640">
        <ele>367.3</ele>
        <time>2020-07-09T11:51:54Z</time>
      </trkpt>
      <trkpt lat="41.6392030" lon="2.1148690">
        <ele>367.5</ele>
        <time>2020-07-09T11:51:55Z</time>
      </trkpt>
      <trkpt lat="41.6391970" lon="2.1148750">
        <ele>367.6</ele>
        <time>2020-07-09T11:51:56Z</time>
      </trkpt>
      <trkpt lat="41.6391910" lon="2.1148810">
        <ele>367.8</ele>
        <time>2020-07-09T11:51:57Z</time>
      </trkpt>
      <trkpt lat="41.6391840" lon="2.1148870">
        <ele>367.9</ele>
        <time>2020-07-09T11:51:58Z</time>
      </trkpt>
      <trkpt lat="41.6391770" lon="2.1148940">
        <ele>368.1</ele>
        <time>2020-07-09T11:51:59Z</time>
      </trkpt>
      <trkpt lat="41.6391700" lon="2.1149010">
        <ele>368.3</ele>
        <time>2020-07-09T11:52:00Z</time>
      </trkpt>
      <trkpt lat="41.6391630" lon="2.1149070">
        <ele>368.4</ele>
        <time>2020-07-09T11:52:01Z</time>
      </trkpt>
      <trkpt lat="41.6391550" lon="2.1149140">
        <ele>368.6</ele>
        <time>2020-07-09T11:52:02Z</time>
      </trkpt>
      <trkpt lat="41.6391480" lon="2.1149210">
        <ele>368.7</ele>
        <time>2020-07-09T11:52:03Z</time>
      </trkpt>
      <trkpt lat="41.6391400" lon="2.1149270">
        <ele>368.9</ele>
        <time>2020-07-09T11:52:04Z</time>
      </trkpt>
      <trkpt lat="41.6391330" lon="2.1149320">
        <ele>369.0</ele>
        <time>2020-07-09T11:52:05Z</time>
      </trkpt>
      <trkpt lat="41.6391250" lon="2.1149380">
        <ele>369.2</ele>
        <time>2020-07-09T11:52:06Z</time>
      </trkpt>
      <trkpt lat="41.6391170" lon="2.1149420">
        <ele>369.3</ele>
        <time>2020-07-09T11:52:07Z</time>
      </trkpt>
      <trkpt lat="41.6391090" lon="2.1149460">
        <ele>369.4</ele>
        <time>2020-07-09T11:52:08Z</time>
      </trkpt>
      <trkpt lat="41.6391010" lon="2.1149480">
        <ele>369.5</ele>
        <time>2020-07-09T11:52:09Z</time>
      </trkpt>
      <trkpt lat="41.6390940" lon="2.1149500">
        <ele>369.6</ele>
        <time>2020-07-09T11:52:10Z</time>
      </trkpt>
      <trkpt lat="41.6390860" lon="2.1149510">
        <ele>369.7</ele>
        <time>2020-07-09T11:52:11Z</time>
      </trkpt>
      <trkpt lat="41.6390790" lon="2.1149520">
        <ele>369.8</ele>
        <time>2020-07-09T11:52:12Z</time>
      </trkpt>
      <trkpt lat="41.6390720" lon="2.1149520">
        <ele>369.9</ele>
        <time>2020-07-09T11:52:13Z</time>
      </trkpt>
      <trkpt lat="41.6390660" lon="2.1149520">
        <ele>369.9</ele>
        <time>2020-07-09T11:52:14Z</time>
      </trkpt>
      <trkpt lat="41.6390600" lon="2.1149520">
        <ele>370.0</ele>
        <time>2020-07-09T11:52:15Z</time>
      </trkpt>
      <trkpt lat="41.6390550" lon="2.1149520">
        <ele>370.0</ele>
        <time>2020-07-09T11:52:16Z</time>
      </trkpt>
      <trkpt lat="41.6390500" lon="2.1149520">
        <ele>370.1</ele>
        <time>2020-07-09T11:52:17Z</time>
      </trkpt>
      <trkpt lat="41.6390470" lon="2.1149520">
        <ele>370.1</ele>
        <time>2020-07-09T11:52:18Z</time>
      </trkpt>
      <trkpt lat="41.6390440" lon="2.1149520">
        <ele>370.1</ele>
        <time>2020-07-09T11:52:19Z</time>
      </trkpt>
      <trkpt lat="41.6390410" lon="2.1149530">
        <ele>370.2</ele>
        <time>2020-07-09T11:52:20Z</time>
      </trkpt>
      <trkpt lat="41.6390390" lon="2.1149540">
        <ele>370.2</ele>
        <time>2020-07-09T11:52:21Z</time>
      </trkpt>
      <trkpt lat="41.6390380" lon="2.1149540">
        <ele>370.2</ele>
        <time>2020-07-09T11:52:22Z</time>
      </trkpt>
      <trkpt lat="41.6390370" lon="2.1149550">
        <ele>370.2</ele>
        <time>2020-07-09T11:52:23Z</time>
      </trkpt>
      <trkpt lat="41.6390360" lon="2.1149560">
        <ele>370.2</ele>
        <time>2020-07-09T11:52:24Z</time>
      </trkpt>
      <trkpt lat="41.6390360" lon="2.1149570">
        <ele>370.2</ele>
        <time>2020-07-09T11:52:25Z</time>
      </trkpt>
      <trkpt lat="41.6390360" lon="2.1149570">
        <ele>370.2</ele>
        <time>2020-07-09T11:52:26Z</time>
      </trkpt>
      <trkpt lat="41.6390350" lon="2.1149580">
        <ele>370.2</ele>
        <time>2020-07-09T11:52:27Z</time>
      </trkpt>
      <trkpt lat="41.6390350" lon="2.1149580">
        <ele>370.2</ele>
        <time>2020-07-09T11:52:28Z</time>
      </trkpt>
      <trkpt lat="41.6390350" lon="2.1149580">
        <ele>370.2</ele>
        <time>2020-07-09T11:52:29Z</time>
      </trkpt>
      <trkpt lat="41.6390340" lon="2.1149580">
        <ele>370.2</ele>
        <time>2020-07-09T11:52:30Z</time>
      </trkpt>
      <trkpt lat="41.6390330" lon="2.1149570">
        <ele>370.2</ele>
        <time>2020-07-09T11:52:31Z</time>
      </trkpt>
      <trkpt lat="41.6390320" lon="2.1149560">
        <ele>370.2</ele>
        <time>2020-07-09T11:52:32Z</time>
      </trkpt>
      <trkpt lat="41.6390310" lon="2.1149540">
        <ele>370.3</ele>
        <time>2020-07-09T11:52:33Z</time>
      </trkpt>
      <trkpt lat="41.6390280" lon="2.1149520">
        <ele>370.3</ele>
        <time>2020-07-09T11:52:34Z</time>
      </trkpt>
      <trkpt lat="41.6390260" lon="2.1149490">
        <ele>370.3</ele>
        <time>2020-07-09T11:52:35Z</time>
      </trkpt>
      <trkpt lat="41.6390220" lon="2.1149460">
        <ele>370.4</ele>
        <time>2020-07-09T11:52:36Z</time>
      </trkpt>
      <trkpt lat="41.6390180" lon="2.1149420">
        <ele>370.4</ele>
        <time>2020-07-09T11:52:37Z</time>
      </trkpt>
      <trkpt lat="41.6390130" lon="2.1149380">
        <ele>370.4</ele>
        <time>2020-07-09T11:52:38Z</time>
      </trkpt>
      <trkpt lat="41.6390080" lon="2.1149340">
        <ele>370.5</ele>
        <time>2020-07-09T11:52:39Z</time>
      </trkpt>
      <trkpt lat="41.6390020" lon="2.1149290">
        <ele>370.5</ele>
        <time>2020-07-09T11:52:40Z</time>
      </trkpt>
      <trkpt lat="41.6389960" lon="2.1149230">
        <ele>370.6</ele>
        <time>2020-07-09T11:52:41Z</time>
      </trkpt>
      <trkpt lat="41.6389900" lon="2.1149180">
        <ele>370.6</ele>
        <time>2020-07-09T11:52:42Z</time>
      </trkpt>
      <trkpt lat="41.6389830" lon="2.1149120">
        <ele>370.6</ele>
        <time>2020-07-09T11:52:43Z</time>
      </trkpt>
      <trkpt lat="41.6389760" lon="2.1149070">
        <ele>370.7</ele>
        <time>2020-07-09T11:52:44Z</time>
      </trkpt>
      <trkpt lat="41.6389680" lon="2.1149010">
        <ele>370.7</ele>
        <time>2020-07-09T11:52:45Z</time>
      </trkpt>
      <trkpt lat="41.6389610" lon="2.1148950">
        <ele>370.8</ele>
        <time>2020-07-09T11:52:46Z</time>
      </trkpt>
      <trkpt lat="41.6389530" lon="2.1148900">
        <ele>370.8</ele>
        <time>2020-07-09T11:52:47Z</time>
      </trkpt>
      <trkpt lat="41.6389460" lon="2.1148850">
        <ele>370.8</ele>
        <time>2020-07-09T11:52:48Z</time>
      </trkpt>
      <trkpt lat="41.6389390" lon="2.1148800">
        <ele>370.9</ele>
        <time>2020-07-09T11:52:49Z</time>
      </trkpt>
      <trkpt lat="41.6389330" lon="2.1148750">
        <ele>370.9</ele>
        <time>2020-07-09T11:52:50Z</time>
      </trkpt>
      <trkpt lat="41.6389270" lon="2.1148710">
        <ele>370.9</ele>
        <time>2020-07-09T11:52:51Z</time>
      </trkpt>
      <trkpt lat="41.6389220" lon="2.1148670">
        <ele>370.9</ele>
        <time>2020-07-09T11:52:52Z</time>
      </trkpt>
      <trkpt lat="41.6389180" lon="2.1148640">
        <ele>370.9</ele>
        <time>2020-07-09T11:52:53Z</time>
      </trkpt>
      <trkpt lat="41.6389140" lon="2.1148610">
        <ele>371.0</ele>
        <time>2020-07-09T11:52:54Z</time>
      </trkpt>
      <trkpt lat="41.6389120" lon="2.1148590">
        <ele>371.0</ele>
        <time>2020-07-09T11:52:55Z</time>
      </trkpt>
      <trkpt lat="41.6389100" lon="2.1148570">
        <ele>371.0</ele>
        <time>2020-07-09T11:52:56Z</time>
      </trkpt>
      <trkpt lat="41.6389080" lon="2.1148560">
        <ele>371.0</ele>
        <time>2020-07-09T11:52:57Z</time>
      </trkpt>
      <trkpt lat="41.6389070" lon="2.1148550">
        <ele>371.0</ele>
        <time>2020-07-09T11:52:58Z</time>
      </trkpt>
      <trkpt lat="41.6389070" lon="2.1148540">
        <ele>371.0</ele>
        <time>2020-07-09T11:52:59Z</time>
      </trkpt>
      <trkpt lat="41.6389060" lon="2.1148530">
        <ele>371.0</ele>
        <time>2020-07-09T11:53:00Z</time>
      </trkpt>
      <trkpt lat="41.6389060" lon="2.1148530">
        <ele>371.0</ele>
        <time>2020-07-09T11:53:01Z</time>
      </trkpt>
      <trkpt lat="41.6389060" lon="2.1148520">
        <ele>371.0</ele>
        <time>2020-07-09T11:53:02Z</time>
      </trkpt>
      <trkpt lat="41.6389060" lon="2.1148520">
        <ele>371.0</ele>
        <time>2020-07-09T11:53:03Z</time>
      </trkpt>
      <trkpt lat="41.6389060" lon="2.1148510">
        <ele>371.0</ele>
        <time>2020-07-09T11:53:04Z</time>
      </trkpt>
      <trkpt lat="41.6389050" lon="2.1148500">
        <ele>371.0</ele>
        <time>2020-07-09T11:53:05Z</time>
      </trkpt>
      <trkpt lat="41.6389050" lon="2.1148480">
        <ele>371.0</ele>
        <time>2020-07-09T11:53:06Z</time>
      </trkpt>
      <trkpt lat="41.6389040" lon="2.1148460">
        <ele>371.0</ele>
        <time>2020-07-09T11:53:07Z</time>
      </trkpt>
      <trkpt lat="41.6389030" lon="2.1148420">
        <ele>371.0</ele>
        <time>2020-07-09T11:53:08Z</time>
      </trkpt>
      <trkpt lat="41.6389020" lon="2.1148380">
        <ele>371.0</ele>
        <time>2020-07-09T11:53:09Z</time>
      </trkpt>
      <trkpt lat="41.6389000" lon="2.1148330">
        <ele>371.0</ele>
        <time>2020-07-09T11:53:10Z</time>
      </trkpt>
      <trkpt lat="41.6388980" lon="2.1148270">
        <ele>371.0</ele>
        <time>2020-07-09T11:53:11Z</time>
      </trkpt>
      <trkpt lat="41.6388960" lon="2.1148190">
        <ele>371.1</ele>
        <time>2020-07-09T11:53:12Z</time>
      </trkpt>
      <trkpt lat="41.6388930" lon="2.1148110">
        <ele>371.1</ele>
        <time>2020-07-09T11:53:13Z</time>
      </trkpt>
      <trkpt lat="41.6388900" lon="2.1148030">
        <ele>371.1</ele>
        <time>2020-07-09T11:53:14Z</time>
      </trkpt>
      <trkpt lat="41.6388870" lon="2.1147950">
        <ele>371.1</ele>
        <time>2020-07-09T11:53:15Z</time>
      </trkpt>
      <trkpt lat="41.6388840" lon="2.1147870">
        <ele>371.1</ele>
        <time>2020-07-09T11:53:16Z</time>
      </trkpt>
      <trkpt lat="41.6388810" lon="2.1147800">
        <ele>371.1</ele>
        <time>2020-07-09T11:53:17Z</time>
      </trkpt>
      <trkpt lat="41.6388800" lon="2.1147720">
        <ele>371.2</ele>
        <time>2020-07-09T11:53:18Z</time>
      </trkpt>
      <trkpt lat="41.6388800" lon="2.1147640">
        <ele>371.2</ele>
        <time>2020-07-09T11:53:19Z</time>
      </trkpt>
      <trkpt lat="41.6388820" lon="2.1147560">
        <ele>371.2</ele>
        <time>2020-07-09T11:53:20Z</time>
      </trkpt>
      <trkpt lat="41.6388870" lon="2.1147480">
        <ele>371.2</ele>
        <time>2020-07-09T11:53:21Z</time>
      </trkpt>
      <trkpt lat="41.6388920" lon="2.1147400">
        <ele>371.2</ele>
        <time>2020-07-09T11:53:22Z</time>
      </trkpt>
      <trkpt lat="41.6388980" lon="2.1147340">
        <ele>371.2</ele>
        <time>2020-07-09T11:53:23Z</time>
      </trkpt>
      <trkpt lat="41.6389040" lon="2.1147290">
        <ele>371.3</ele>
        <time>2020-07-09T11:53:24Z</time>
      </trkpt>
      <trkpt lat="41.6389090" lon="2.1147270">
        <ele>371.3</ele>
        <time>2020-07-09T11:53:25Z</time>
      </trkpt>
      <trkpt lat="41.6389130" lon="2.1147260">
        <ele>371.3</ele>
        <time>2020-07-09T11:53:26Z</time>
      </trkpt>
      <trkpt lat="41.6389160" lon="2.1147260">
        <ele>371.3</ele>
        <time>2020-07-09T11:53:27Z</time>
      </trkpt>
      <trkpt lat="41.6389190" lon="2.1147260">
        <ele>371.3</ele>
        <time>2020-07-09T11:53:28Z</time>
      </trkpt>
      <trkpt lat="41.6389210" lon="2.1147260">
        <ele>371.3</ele>
        <time>2020-07-09T11:53:29Z</time>
      </trkpt>
      <trkpt lat="41.6389230" lon="2.1147250">
        <ele>371.3</ele>
        <time>2020-07-09T11:53:30Z</time>
      </trkpt>
      <trkpt lat="41.6389230" lon="2.1147230">
        <ele>371.3</ele>
        <time>2020-07-09T11:53:31Z</time>
      </trkpt>
      <trkpt lat="41.6389230" lon="2.1147210">
        <ele>371.3</ele>
        <time>2020-07-09T11:53:32Z</time>
      </trkpt>
      <trkpt lat="41.6389230" lon="2.1147190">
        <ele>371.3</ele>
        <time>2020-07-09T11:53:33Z</time>
      </trkpt>
      <trkpt lat="41.6389220" lon="2.1147160">
        <ele>371.3</ele>
        <time>2020-07-09T11:53:34Z</time>
      </trkpt>
      <trkpt lat="41.6389200" lon="2.1147120">
        <ele>371.3</ele>
        <time>2020-07-09T11:53:35Z</time>
      </trkpt>
      <trkpt lat="41.6389170" lon="2.1147080">
        <ele>371.3</ele>
        <time>2020-07-09T11:53:36Z</time>
      </trkpt>
      <trkpt lat="41.6389130" lon="2.1147040">
        <ele>371.4</ele>
        <time>2020-07-09T11:53:37Z</time>
      </trkpt>
      <trkpt lat="41.6389090" lon="2.1146990">
        <ele>371.4</ele>
        <time>2020-07-09T11:53:38Z</time>
      </trkpt>
      <trkpt lat="41.6389050" lon="2.1146940">
        <ele>371.4</ele>
        <time>2020-07-09T11:53:39Z</time>
      </trkpt>
      <trkpt lat="41.6388990" lon="2.1146890">
        <ele>371.4</ele>
        <time>2020-07-09T11:53:40Z</time>
      </trkpt>
      <trkpt lat="41.6388940" lon="2.1146840">
        <ele>371.4</ele>
        <time>2020-07-09T11:53:41Z</time>
      </trkpt>
      <trkpt lat="41.6388880" lon="2.1146790">
        <ele>371.4</ele>
        <time>2020-07-09T11:53:42Z</time>
      </trkpt>
      <trkpt lat="41.6388820" lon="2.1146740">
        <ele>371.5</ele>
        <time>2020-07-09T11:53:43Z</time>
      </trkpt>
      <trkpt lat="41.6388770" lon="2.1146700">
        <ele>371.5</ele>
        <time>2020-07-09T11:53:44Z</time>
      </trkpt>
      <trkpt lat="41.6388720" lon="2.1146660">
        <ele>371.5</ele>
        <time>2020-07-09T11:53:45Z</time>
      </trkpt>
      <trkpt lat="41.6388670" lon="2.1146620">
        <ele>371.5</ele>
        <time>2020-07-09T11:53:46Z</time>
      </trkpt>
      <trkpt lat="41.6388620" lon="2.1146600">
        <ele>371.5</ele>
        <time>2020-07-09T11:53:47Z</time>
      </trkpt>
      <trkpt lat="41.6388590" lon="2.1146580">
        <ele>371.5</ele>
        <time>2020-07-09T11:53:48Z</time>
      </trkpt>
      <trkpt lat="41.6388550" lon="2.1146560">
        <ele>371.6</ele>
        <time>2020-07-09T11:53:49Z</time>
      </trkpt>
      <trkpt lat="41.6388530" lon="2.1146540">
        <ele>371.6</ele>
        <time>2020-07-09T11:53:50Z</time>
      </trkpt>
      <trkpt lat="41.6388510" lon="2.1146520">
        <ele>371.6</ele>
        <time>2020-07-09T11:53:51Z</time>
      </trkpt>
      <trkpt lat="41.6388500" lon="2.1146500">
        <ele>371.6</ele>
        <time>2020-07-09T11:53:52Z</time>
      </trkpt>
      <trkpt lat="41.6388490" lon="2.1146480">
        <ele>371.6</ele>
        <time>2020-07-09T11:53:53Z</time>
      </trkpt>
      <trkpt lat="41.6388490" lon="2.1146450">
        <ele>371.6</ele>
        <time>2020-07-09T11:53:54Z</time>
      </trkpt>
      <trkpt lat="41.6388500" lon="2.1146400">
        <ele>371.6</ele>
        <time>2020-07-09T11:53:55Z</time>
      </trkpt>
      <trkpt lat="41.6388510" lon="2.1146350">
        <ele>371.6</ele>
        <time>2020-07-09T11:53:56Z</time>
      </trkpt>
      <trkpt lat="41.6388530" lon="2.1146300">
        <ele>371.6</ele>
        <time>2020-07-09T11:53:57Z</time>
      </trkpt>
      <trkpt lat="41.6388560" lon="2.1146230">
        <ele>371.7</ele>
        <time>2020-07-09T11:53:58Z</time>
      </trkpt>
      <trkpt lat="41.6388590" lon="2.1146170">
        <ele>371.7</ele>
        <time>2020-07-09T11:53:59Z</time>
      </trkpt>
      <trkpt lat="41.6388630" lon="2.1146110">
        <ele>371.7</ele>
        <time>2020-07-09T11:54:00Z</time>
      </trkpt>
      <trkpt lat="41.6388670" lon="2.1146050">
        <ele>371.7</ele>
        <time>2020-07-09T11:54:01Z</time>
      </trkpt>
      <trkpt lat="41.6388710" lon="2.1146000">
        <ele>371.7</ele>
        <time>2020-07-09T11:54:02Z</time>
      </trkpt>
      <trkpt lat="41.6388760" lon="2.1145960">
        <ele>371.8</ele>
        <time>2020-07-09T11:54:03Z</time>
      </trkpt>
      <trkpt lat="41.6388800" lon="2.1145930">
        <ele>371.8</ele>
        <time>2020-07-09T11:54:04Z</time>
      </trkpt>
      <trkpt lat="41.6388850" lon="2.1145920">
        <ele>371.8</ele>
        <time>2020-07-09T11:54:05Z</time>
      </trkpt>
      <trkpt lat="41.6388890" lon="2.1145910">
        <ele>371.8</ele>
        <time>2020-07-09T11:54:06Z</time>
      </trkpt>
      <trkpt lat="41.6388940" lon="2.1145900">
        <ele>371.8</ele>
        <time>2020-07-09T11:54:07Z</time>
      </trkpt>
      <trkpt lat="41.6388980" lon="2.1145900">
        <ele>371.8</ele>
        <time>2020-07-09T11:54:08Z</time>
      </trkpt>
      <trkpt lat="41.6389020" lon="2.1145890">
        <ele>371.8</ele>
        <time>2020-07-09T11:54:09Z</time>
      </trkpt>
      <trkpt lat="41.6389050" lon="2.1145880">
        <ele>371.9</ele>
        <time>2020-07-09T11:54:10Z</time>
      </trkpt>
      <trkpt lat="41.6389080" lon="2.1145860">
        <ele>371.9</ele>
        <time>2020-07-09T11:54:11Z</time>
      </trkpt>
      <trkpt lat="41.6389100" lon="2.1145830">
        <ele>371.9</ele>
        <time>2020-07-09T11:54:12Z</time>
      </trkpt>
      <trkpt lat="41.6389120" lon="2.1145780">
        <ele>372.2</ele>
        <time>2020-07-09T11:54:13Z</time>
      </trkpt>
      <trkpt lat="41.6389130" lon="2.1145720">
        <ele>372.2</ele>
        <time>2020-07-09T11:54:14Z</time>
      </trkpt>
      <trkpt lat="41.6389130" lon="2.1145660">
        <ele>372.3</ele>
        <time>2020-07-09T11:54:15Z</time>
      </trkpt>
      <trkpt lat="41.6389130" lon="2.1145580">
        <ele>372.3</ele>
        <time>2020-07-09T11:54:16Z</time>
      </trkpt>
      <trkpt lat="41.6389130" lon="2.1145510">
        <ele>372.4</ele>
        <time>2020-07-09T11:54:17Z</time>
      </trkpt>
      <trkpt lat="41.6389120" lon="2.1145430">
        <ele>372.4</ele>
        <time>2020-07-09T11:54:18Z</time>
      </trkpt>
      <trkpt lat="41.6389110" lon="2.1145360">
        <ele>372.5</ele>
        <time>2020-07-09T11:54:19Z</time>
      </trkpt>
      <trkpt lat="41.6389100" lon="2.1145300">
        <ele>372.5</ele>
        <time>2020-07-09T11:54:20Z</time>
      </trkpt>
      <trkpt lat="41.6389090" lon="2.1145240">
        <ele>372.6</ele>
        <time>2020-07-09T11:54:21Z</time>
      </trkpt>
      <trkpt lat="41.6389080" lon="2.1145200">
        <ele>372.6</ele>
        <time>2020-07-09T11:54:22Z</time>
      </trkpt>
      <trkpt lat="41.6389070" lon="2.1145160">
        <ele>372.6</ele>
        <time>2020-07-09T11:54:23Z</time>
      </trkpt>
      <trkpt lat="41.6389060" lon="2.1145130">
        <ele>372.6</ele>
        <time>2020-07-09T11:54:24Z</time>
      </trkpt>
      <trkpt lat="41.6389050" lon="2.1145100">
        <ele>372.7</ele>
        <time>2020-07-09T11:54:25Z</time>
      </trkpt>
      <trkpt lat="41.6389040" lon="2.1145080">
        <ele>372.7</ele>
        <time>2020-07-09T11:54:26Z</time>
      </trkpt>
      <trkpt lat="41.6389020" lon="2.1145050">
        <ele>372.7</ele>
        <time>2020-07-09T11:54:27Z</time>
      </trkpt>
      <trkpt lat="41.6389010" lon="2.1145020">
        <ele>372.7</ele>
        <time>2020-07-09T11:54:28Z</time>
      </trkpt>
      <trkpt lat="41.6388990" lon="2.1144990">
        <ele>372.8</ele>
        <time>2020-07-09T11:54:29Z</time>
      </trkpt>
      <trkpt lat="41.6388970" lon="2.1144940">
        <ele>372.8</ele>
        <time>2020-07-09T11:54:30Z</time>
      </trkpt>
      <trkpt lat="41.6388940" lon="2.1144880">
        <ele>372.8</ele>
        <time>2020-07-09T11:54:31Z</time>
      </trkpt>
      <trkpt lat="41.6388920" lon="2.1144810">
        <ele>372.9</ele>
        <time>2020-07-09T11:54:32Z</time>
      </trkpt>
      <trkpt lat="41.6388890" lon="2.1144740">
        <ele>372.9</ele>
        <time>2020-07-09T11:54:33Z</time>
      </trkpt>
      <trkpt lat="41.6388860" lon="2.1144660">
        <ele>373.0</ele>
        <time>2020-07-09T11:54:34Z</time>
      </trkpt>
      <trkpt lat="41.6388830" lon="2.1144580">
        <ele>373.0</ele>
        <time>2020-07-09T11:54:35Z</time>
      </trkpt>
      <trkpt lat="41.6388810" lon="2.1144510">
        <ele>373.1</ele>
        <time>2020-07-09T11:54:36Z</time>
      </trkpt>
      <trkpt lat="41.6388790" lon="2.1144440">
        <ele>373.1</ele>
        <time>2020-07-09T11:54:37Z</time>
      </trkpt>
      <trkpt lat="41.6388770" lon="2.1144380">
        <ele>373.1</ele>
        <time>2020-07-09T11:54:38Z</time>
      </trkpt>
      <trkpt lat="41.6388760" lon="2.1144340">
        <ele>373.2</ele>
        <time>2020-07-09T11:54:39Z</time>
      </trkpt>
      <trkpt lat="41.6388750" lon="2.1144310">
        <ele>373.2</ele>
        <time>2020-07-09T11:54:40Z</time>
      </trkpt>
      <trkpt lat="41.6388750" lon="2.1144280">
        <ele>373.2</ele>
        <time>2020-07-09T11:54:41Z</time>
      </trkpt>
      <trkpt lat="41.6388740" lon="2.1144270">
        <ele>373.2</ele>
        <time>2020-07-09T11:54:42Z</time>
      </trkpt>
      <trkpt lat="41.6388730" lon="2.1144250">
        <ele>373.2</ele>
        <time>2020-07-09T11:54:43Z</time>
      </trkpt>
      <trkpt lat="41.6388720" lon="2.1144240">
        <ele>373.2</ele>
        <time>2020-07-09T11:54:44Z</time>
      </trkpt>
      <trkpt lat="41.6388700" lon="2.1144230">
        <ele>373.2</ele>
        <time>2020-07-09T11:54:45Z</time>
      </trkpt>
      <trkpt lat="41.6388680" lon="2.1144220">
        <ele>373.2</ele>
        <time>2020-07-09T11:54:46Z</time>
      </trkpt>
      <trkpt lat="41.6388650" lon="2.1144200">
        <ele>373.3</ele>
        <time>2020-07-09T11:54:47Z</time>
      </trkpt>
      <trkpt lat="41.6388600" lon="2.1144170">
        <ele>373.3</ele>
        <time>2020-07-09T11:54:48Z</time>
      </trkpt>
      <trkpt lat="41.6388550" lon="2.1144140">
        <ele>373.3</ele>
        <time>2020-07-09T11:54:49Z</time>
      </trkpt>
      <trkpt lat="41.6388490" lon="2.1144100">
        <ele>373.3</ele>
        <time>2020-07-09T11:54:50Z</time>
      </trkpt>
      <trkpt lat="41.6388420" lon="2.1144060">
        <ele>373.4</ele>
        <time>2020-07-09T11:54:51Z</time>
      </trkpt>
      <trkpt lat="41.6388350" lon="2.1144010">
        <ele>373.4</ele>
        <time>2020-07-09T11:54:52Z</time>
      </trkpt>
      <trkpt lat="41.6388280" lon="2.1143950">
        <ele>373.5</ele>
        <time>2020-07-09T11:54:53Z</time>
      </trkpt>
      <trkpt lat="41.6388210" lon="2.1143890">
        <ele>373.5</ele>
        <time>2020-07-09T11:54:54Z</time>
      </trkpt>
      <trkpt lat="41.6388150" lon="2.1143820">
        <ele>373.5</ele>
        <time>2020-07-09T11:54:55Z</time>
      </trkpt>
      <trkpt lat="41.6388040" lon="2.1143710">
        <ele>373.6</ele>
        <time>2020-07-09T11:54:56Z</time>
      </trkpt>
      <trkpt lat="41.6388010" lon="2.1143680">
        <ele>373.6</ele>
        <time>2020-07-09T11:54:57Z</time>
      </trkpt>
      <trkpt lat="41.6387970" lon="2.1143660">
        <ele>373.6</ele>
        <time>2020-07-09T11:54:58Z</time>
      </trkpt>
      <trkpt lat="41.6387940" lon="2.1143630">
        <ele>373.7</ele>
        <time>2020-07-09T11:54:59Z</time>
      </trkpt>
      <trkpt lat="41.6387900" lon="2.1143600">
        <ele>373.7</ele>
        <time>2020-07-09T11:55:00Z</time>
      </trkpt>
      <trkpt lat="41.6387860" lon="2.1143570">
        <ele>373.7</ele>
        <time>2020-07-09T11:55:01Z</time>
      </trkpt>
      <trkpt lat="41.6387830" lon="2.1143540">
        <ele>373.7</ele>
        <time>2020-07-09T11:55:02Z</time>
      </trkpt>
      <trkpt lat="41.6387790" lon="2.1143520">
        <ele>373.7</ele>
        <time>2020-07-09T11:55:03Z</time>
      </trkpt>
      <trkpt lat="41.6387760" lon="2.1143490">
        <ele>373.7</ele>
        <time>2020-07-09T11:55:04Z</time>
      </trkpt>
      <trkpt lat="41.6387720" lon="2.1143460">
        <ele>373.7</ele>
        <time>2020-07-09T11:55:05Z</time>
      </trkpt>
      <trkpt lat="41.6387680" lon="2.1143430">
        <ele>373.7</ele>
        <time>2020-07-09T11:55:06Z</time>
      </trkpt>
      <trkpt lat="41.6387650" lon="2.1143400">
        <ele>373.8</ele>
        <time>2020-07-09T11:55:07Z</time>
      </trkpt>
      <trkpt lat="41.6387610" lon="2.1143370">
        <ele>373.8</ele>
        <time>2020-07-09T11:55:08Z</time>
      </trkpt>
      <trkpt lat="41.6387570" lon="2.1143350">
        <ele>373.8</ele>
        <time>2020-07-09T11:55:09Z</time>
      </trkpt>
      <trkpt lat="41.6387540" lon="2.1143320">
        <ele>373.8</ele>
        <time>2020-07-09T11:55:10Z</time>
      </trkpt>
      <trkpt lat="41.6387500" lon="2.1143290">
        <ele>373.8</ele>
        <time>2020-07-09T11:55:11Z</time>
      </trkpt>
      <trkpt lat="41.6387470" lon="2.1143260">
        <ele>373.8</ele>
        <time>2020-07-09T11:55:12Z</time>
      </trkpt>
      <trkpt lat="41.6387430" lon="2.1143230">
        <ele>373.7</ele>
        <time>2020-07-09T11:55:13Z</time>
      </trkpt>
      <trkpt lat="41.6387390" lon="2.1143210">
        <ele>373.6</ele>
        <time>2020-07-09T11:55:14Z</time>
      </trkpt>
      <trkpt lat="41.6387360" lon="2.1143180">
        <ele>373.5</ele>
        <time>2020-07-09T11:55:15Z</time>
      </trkpt>
      <trkpt lat="41.6387320" lon="2.1143150">
        <ele>373.5</ele>
        <time>2020-07-09T11:55:16Z</time>
      </trkpt>
      <trkpt lat="41.6387290" lon="2.1143120">
        <ele>373.3</ele>
        <time>2020-07-09T11:55:17Z</time>
      </trkpt>
      <trkpt lat="41.6387250" lon="2.1143090">
        <ele>373.3</ele>
        <time>2020-07-09T11:55:18Z</time>
      </trkpt>
      <trkpt lat="41.6387210" lon="2.1143070">
        <ele>373.2</ele>
        <time>2020-07-09T11:55:19Z</time>
      </trkpt>
      <trkpt lat="41.6387180" lon="2.1143040">
        <ele>373.1</ele>
        <time>2020-07-09T11:55:20Z</time>
      </trkpt>
      <trkpt lat="41.6387140" lon="2.1143010">
        <ele>373.0</ele>
        <time>2020-07-09T11:55:21Z</time>
      </trkpt>
      <trkpt lat="41.6387110" lon="2.1142980">
        <ele>372.9</ele>
        <time>2020-07-09T11:55:22Z</time>
      </trkpt>
      <trkpt lat="41.6387070" lon="2.1142950">
        <ele>372.8</ele>
        <time>2020-07-09T11:55:23Z</time>
      </trkpt>
      <trkpt lat="41.6387030" lon="2.1142920">
        <ele>372.7</ele>
        <time>2020-07-09T11:55:24Z</time>
      </trkpt>
      <trkpt lat="41.6387000" lon="2.1142900">
        <ele>372.5</ele>
        <time>2020-07-09T11:55:25Z</time>
      </trkpt>
      <trkpt lat="41.6386960" lon="2.1142870">
        <ele>372.5</ele>
        <time>2020-07-09T11:55:26Z</time>
      </trkpt>
      <trkpt lat="41.6386920" lon="2.1142840">
        <ele>372.3</ele>
        <time>2020-07-09T11:55:27Z</time>
      </trkpt>
      <trkpt lat="41.6386890" lon="2.1142810">
        <ele>372.2</ele>
        <time>2020-07-09T11:55:28Z</time>
      </trkpt>
      <trkpt lat="41.6386850" lon="2.1142780">
        <ele>372.1</ele>
        <time>2020-07-09T11:55:29Z</time>
      </trkpt>
      <trkpt lat="41.6386820" lon="2.1142760">
        <ele>372.0</ele>
        <time>2020-07-09T11:55:30Z</time>
      </trkpt>
      <trkpt lat="41.6386780" lon="2.1142730">
        <ele>371.9</ele>
        <time>2020-07-09T11:55:31Z</time>
      </trkpt>
      <trkpt lat="41.6386740" lon="2.1142700">
        <ele>371.8</ele>
        <time>2020-07-09T11:55:32Z</time>
      </trkpt>
      <trkpt lat="41.6386710" lon="2.1142670">
        <ele>372.0</ele>
        <time>2020-07-09T11:55:33Z</time>
      </trkpt>
      <trkpt lat="41.6386670" lon="2.1142640">
        <ele>371.9</ele>
        <time>2020-07-09T11:55:34Z</time>
      </trkpt>
      <trkpt lat="41.6386640" lon="2.1142620">
        <ele>371.8</ele>
        <time>2020-07-09T11:55:35Z</time>
      </trkpt>
      <trkpt lat="41.6386600" lon="2.1142590">
        <ele>371.7</ele>
        <time>2020-07-09T11:55:36Z</time>
      </trkpt>
      <trkpt lat="41.6386560" lon="2.1142560">
        <ele>371.6</ele>
        <time>2020-07-09T11:55:37Z</time>
      </trkpt>
      <trkpt lat="41.6386530" lon="2.1142530">
        <ele>371.5</ele>
        <time>2020-07-09T11:55:38Z</time>
      </trkpt>
      <trkpt lat="41.6386490" lon="2.1142500">
        <ele>371.4</ele>
        <time>2020-07-09T11:55:39Z</time>
      </trkpt>
      <trkpt lat="41.6386460" lon="2.1142480">
        <ele>371.3</ele>
        <time>2020-07-09T11:55:40Z</time>
      </trkpt>
      <trkpt lat="41.6386420" lon="2.1142450">
        <ele>371.2</ele>
        <time>2020-07-09T11:55:41Z</time>
      </trkpt>
      <trkpt lat="41.6386380" lon="2.1142420">
        <ele>371.2</ele>
        <time>2020-07-09T11:55:42Z</time>
      </trkpt>
      <trkpt lat="41.6386350" lon="2.1142390">
        <ele>371.0</ele>
        <time>2020-07-09T11:55:43Z</time>
      </trkpt>
      <trkpt lat="41.6386310" lon="2.1142360">
        <ele>370.9</ele>
        <time>2020-07-09T11:55:44Z</time>
      </trkpt>
      <trkpt lat="41.6386270" lon="2.1142330">
        <ele>370.8</ele>
        <time>2020-07-09T11:55:45Z</time>
      </trkpt>
      <trkpt lat="41.6386240" lon="2.1142310">
        <ele>370.7</ele>
        <time>2020-07-09T11:55:46Z</time>
      </trkpt>
      <trkpt lat="41.6386200" lon="2.1142280">
        <ele>370.6</ele>
        <time>2020-07-09T11:55:47Z</time>
      </trkpt>
      <trkpt lat="41.6386170" lon="2.1142250">
        <ele>370.6</ele>
        <time>2020-07-09T11:55:48Z</time>
      </trkpt>
      <trkpt lat="41.6386130" lon="2.1142220">
        <ele>371.0</ele>
        <time>2020-07-09T11:55:49Z</time>
      </trkpt>
      <trkpt lat="41.6386090" lon="2.1142190">
        <ele>371.0</ele>
        <time>2020-07-09T11:55:50Z</time>
      </trkpt>
      <trkpt lat="41.6386060" lon="2.1142170">
        <ele>370.9</ele>
        <time>2020-07-09T11:55:51Z</time>
      </trkpt>
      <trkpt lat="41.6386020" lon="2.1142140">
        <ele>370.7</ele>
        <time>2020-07-09T11:55:52Z</time>
      </trkpt>
      <trkpt lat="41.6385990" lon="2.1142110">
        <ele>370.7</ele>
        <time>2020-07-09T11:55:53Z</time>
      </trkpt>
      <trkpt lat="41.6385950" lon="2.1142080">
        <ele>370.6</ele>
        <time>2020-07-09T11:55:54Z</time>
      </trkpt>
      <trkpt lat="41.6385910" lon="2.1142050">
        <ele>370.5</ele>
        <time>2020-07-09T11:55:55Z</time>
      </trkpt>
      <trkpt lat="41.6385880" lon="2.1142030">
        <ele>370.4</ele>
        <time>2020-07-09T11:55:56Z</time>
      </trkpt>
      <trkpt lat="41.6385840" lon="2.1142000">
        <ele>370.4</ele>
        <time>2020-07-09T11:55:57Z</time>
      </trkpt>
      <trkpt lat="41.6385810" lon="2.1141970">
        <ele>370.3</ele>
        <time>2020-07-09T11:55:58Z</time>
      </trkpt>
      <trkpt lat="41.6385770" lon="2.1141940">
        <ele>370.3</ele>
        <time>2020-07-09T11:55:59Z</time>
      </trkpt>
      <trkpt lat="41.6385730" lon="2.1141910">
        <ele>370.2</ele>
        <time>2020-07-09T11:56:00Z</time>
      </trkpt>
      <trkpt lat="41.6385700" lon="2.1141890">
        <ele>370.0</ele>
        <time>2020-07-09T11:56:01Z</time>
      </trkpt>
      <trkpt lat="41.6385660" lon="2.1141860">
        <ele>370.0</ele>
        <time>2020-07-09T11:56:02Z</time>
      </trkpt>
      <trkpt lat="41.6385620" lon="2.1141830">
        <ele>369.8</ele>
        <time>2020-07-09T11:56:03Z</time>
      </trkpt>
      <trkpt lat="41.6385590" lon="2.1141800">
        <ele>370.7</ele>
        <time>2020-07-09T11:56:04Z</time>
      </trkpt>
      <trkpt lat="41.6385550" lon="2.1141770">
        <ele>370.6</ele>
        <time>2020-07-09T11:56:05Z</time>
      </trkpt>
      <trkpt lat="41.6385520" lon="2.1141740">
        <ele>370.5</ele>
        <time>2020-07-09T11:56:06Z</time>
      </trkpt>
      <trkpt lat="41.6385480" lon="2.1141720">
        <ele>370.5</ele>
        <time>2020-07-09T11:56:07Z</time>
      </trkpt>
      <trkpt lat="41.6385440" lon="2.1141690">
        <ele>370.4</ele>
        <time>2020-07-09T11:56:08Z</time>
      </trkpt>
      <trkpt lat="41.6385410" lon="2.1141660">
        <ele>370.4</ele>
        <time>2020-07-09T11:56:09Z</time>
      </trkpt>
      <trkpt lat="41.6385370" lon="2.1141630">
        <ele>370.3</ele>
        <time>2020-07-09T11:56:10Z</time>
      </trkpt>
      <trkpt lat="41.6385340" lon="2.1141600">
        <ele>370.3</ele>
        <time>2020-07-09T11:56:11Z</time>
      </trkpt>
      <trkpt lat="41.6385300" lon="2.1141580">
        <ele>370.2</ele>
        <time>2020-07-09T11:56:12Z</time>
      </trkpt>
      <trkpt lat="41.6385260" lon="2.1141550">
        <ele>370.1</ele>
        <time>2020-07-09T11:56:13Z</time>
      </trkpt>
      <trkpt lat="41.6385230" lon="2.1141520">
        <ele>370.0</ele>
        <time>2020-07-09T11:56:14Z</time>
      </trkpt>
      <trkpt lat="41.6385190" lon="2.1141490">
        <ele>370.0</ele>
        <time>2020-07-09T11:56:15Z</time>
      </trkpt>
      <trkpt lat="41.6385160" lon="2.1141460">
        <ele>369.9</ele>
        <time>2020-07-09T11:56:16Z</time>
      </trkpt>
      <trkpt lat="41.6385120" lon="2.1141440">
        <ele>369.8</ele>
        <time>2020-07-09T11:56:17Z</time>
      </trkpt>
      <trkpt lat="41.6385080" lon="2.1141410">
        <ele>369.8</ele>
        <time>2020-07-09T11:56:18Z</time>
      </trkpt>
      <trkpt lat="41.6385050" lon="2.1141380">
        <ele>370.9</ele>
        <time>2020-07-09T11:56:19Z</time>
      </trkpt>
      <trkpt lat="41.6385010" lon="2.1141350">
        <ele>370.8</ele>
        <time>2020-07-09T11:56:20Z</time>
      </trkpt>
      <trkpt lat="41.6384970" lon="2.1141320">
        <ele>370.8</ele>
        <time>2020-07-09T11:56:21Z</time>
      </trkpt>
      <trkpt lat="41.6384940" lon="2.1141290">
        <ele>370.7</ele>
        <time>2020-07-09T11:56:22Z</time>
      </trkpt>
      <trkpt lat="41.6384900" lon="2.1141270">
        <ele>370.6</ele>
        <time>2020-07-09T11:56:23Z</time>
      </trkpt>
      <trkpt lat="41.6384870" lon="2.1141240">
        <ele>370.6</ele>
        <time>2020-07-09T11:56:24Z</time>
      </trkpt>
      <trkpt lat="41.6384830" lon="2.1141210">
        <ele>370.5</ele>
        <time>2020-07-09T11:56:25Z</time>
      </trkpt>
      <trkpt lat="41.6384790" lon="2.1141180">
        <ele>370.4</ele>
        <time>2020-07-09T11:56:26Z</time>
      </trkpt>
      <trkpt lat="41.6384760" lon="2.1141150">
        <ele>370.3</ele>
        <time>2020-07-09T11:56:27Z</time>
      </trkpt>
      <trkpt lat="41.6384720" lon="2.1141130">
        <ele>370.4</ele>
        <time>2020-07-09T11:56:28Z</time>
      </trkpt>
      <trkpt lat="41.6384690" lon="2.1141100">
        <ele>370.3</ele>
        <time>2020-07-09T11:56:29Z</time>
      </trkpt>
      <trkpt lat="41.6384650" lon="2.1141070">
        <ele>370.2</ele>
        <time>2020-07-09T11:56:30Z</time>
      </trkpt>
      <trkpt lat="41.6384570" lon="2.1141130">
        <ele>370.1</ele>
        <time>2020-07-09T11:56:31Z</time>
      </trkpt>
      <trkpt lat="41.6384490" lon="2.1141190">
        <ele>370.1</ele>
        <time>2020-07-09T11:56:32Z</time>
      </trkpt>
      <trkpt lat="41.6384410" lon="2.1141250">
        <ele>370.1</ele>
        <time>2020-07-09T11:56:33Z</time>
      </trkpt>
      <trkpt lat="41.6384320" lon="2.1141310">
        <ele>370.0</ele>
        <time>2020-07-09T11:56:34Z</time>
      </trkpt>
      <trkpt lat="41.6384220" lon="2.1141360">
        <ele>369.9</ele>
        <time>2020-07-09T11:56:35Z</time>
      </trkpt>
      <trkpt lat="41.6384130" lon="2.1141420">
        <ele>368.0</ele>
        <time>2020-07-09T11:56:36Z</time>
      </trkpt>
      <trkpt lat="41.6384040" lon="2.1141470">
        <ele>368.1</ele>
        <time>2020-07-09T11:56:37Z</time>
      </trkpt>
      <trkpt lat="41.6383950" lon="2.1141520">
        <ele>368.0</ele>
        <time>2020-07-09T11:56:38Z</time>
      </trkpt>
      <trkpt lat="41.6383860" lon="2.1141580">
        <ele>367.9</ele>
        <time>2020-07-09T11:56:39Z</time>
      </trkpt>
      <trkpt lat="41.6383770" lon="2.1141650">
        <ele>368.0</ele>
        <time>2020-07-09T11:56:40Z</time>
      </trkpt>
      <trkpt lat="41.6383700" lon="2.1141720">
        <ele>367.9</ele>
        <time>2020-07-09T11:56:41Z</time>
      </trkpt>
      <trkpt lat="41.6383630" lon="2.1141790">
        <ele>367.8</ele>
        <time>2020-07-09T11:56:42Z</time>
      </trkpt>
      <trkpt lat="41.6383570" lon="2.1141880">
        <ele>365.9</ele>
        <time>2020-07-09T11:56:43Z</time>
      </trkpt>
      <trkpt lat="41.6383510" lon="2.1141970">
        <ele>365.8</ele>
        <time>2020-07-09T11:56:44Z</time>
      </trkpt>
      <trkpt lat="41.6383460" lon="2.1142070">
        <ele>365.9</ele>
        <time>2020-07-09T11:56:45Z</time>
      </trkpt>
      <trkpt lat="41.6383420" lon="2.1142180">
        <ele>365.8</ele>
        <time>2020-07-09T11:56:46Z</time>
      </trkpt>
      <trkpt lat="41.6383380" lon="2.1142300">
        <ele>363.9</ele>
        <time>2020-07-09T11:56:47Z</time>
      </trkpt>
      <trkpt lat="41.6383340" lon="2.1142420">
        <ele>363.9</ele>
        <time>2020-07-09T11:56:48Z</time>
      </trkpt>
      <trkpt lat="41.6383290" lon="2.1142540">
        <ele>363.8</ele>
        <time>2020-07-09T11:56:49Z</time>
      </trkpt>
      <trkpt lat="41.6383250" lon="2.1142670">
        <ele>363.7</ele>
        <time>2020-07-09T11:56:50Z</time>
      </trkpt>
      <trkpt lat="41.6383200" lon="2.1142810">
        <ele>361.8</ele>
        <time>2020-07-09T11:56:51Z</time>
      </trkpt>
      <trkpt lat="41.6383140" lon="2.1142950">
        <ele>362.0</ele>
        <time>2020-07-09T11:56:52Z</time>
      </trkpt>
      <trkpt lat="41.6383090" lon="2.1143090">
        <ele>362.0</ele>
        <time>2020-07-09T11:56:53Z</time>
      </trkpt>
      <trkpt lat="41.6383020" lon="2.1143240">
        <ele>360.4</ele>
        <time>2020-07-09T11:56:54Z</time>
      </trkpt>
      <trkpt lat="41.6382960" lon="2.1143380">
        <ele>360.4</ele>
        <time>2020-07-09T11:56:55Z</time>
      </trkpt>
      <trkpt lat="41.6382900" lon="2.1143520">
        <ele>360.4</ele>
        <time>2020-07-09T11:56:56Z</time>
      </trkpt>
      <trkpt lat="41.6382840" lon="2.1143670">
        <ele>358.8</ele>
        <time>2020-07-09T11:56:57Z</time>
      </trkpt>
      <trkpt lat="41.6382790" lon="2.1143810">
        <ele>359.1</ele>
        <time>2020-07-09T11:56:58Z</time>
      </trkpt>
      <trkpt lat="41.6382750" lon="2.1143940">
        <ele>359.1</ele>
        <time>2020-07-09T11:56:59Z</time>
      </trkpt>
      <trkpt lat="41.6382710" lon="2.1144080">
        <ele>357.6</ele>
        <time>2020-07-09T11:57:00Z</time>
      </trkpt>
      <trkpt lat="41.6382690" lon="2.1144200">
        <ele>357.6</ele>
        <time>2020-07-09T11:57:01Z</time>
      </trkpt>
      <trkpt lat="41.6382670" lon="2.1144320">
        <ele>357.6</ele>
        <time>2020-07-09T11:57:02Z</time>
      </trkpt>
      <trkpt lat="41.6382660" lon="2.1144440">
        <ele>356.1</ele>
        <time>2020-07-09T11:57:03Z</time>
      </trkpt>
      <trkpt lat="41.6382650" lon="2.1144560">
        <ele>356.1</ele>
        <time>2020-07-09T11:57:04Z</time>
      </trkpt>
      <trkpt lat="41.6382650" lon="2.1144670">
        <ele>356.1</ele>
        <time>2020-07-09T11:57:05Z</time>
      </trkpt>
      <trkpt lat="41.6382640" lon="2.1144780">
        <ele>356.1</ele>
        <time>2020-07-09T11:57:06Z</time>
      </trkpt>
      <trkpt lat="41.6382640" lon="2.1144890">
        <ele>354.6</ele>
        <time>2020-07-09T11:57:07Z</time>
      </trkpt>
      <trkpt lat="41.6382620" lon="2.1144990">
        <ele>354.6</ele>
        <time>2020-07-09T11:57:08Z</time>
      </trkpt>
      <trkpt lat="41.6382600" lon="2.1145100">
        <ele>354.6</ele>
        <time>2020-07-09T11:57:09Z</time>
      </trkpt>
      <trkpt lat="41.6382570" lon="2.1145210">
        <ele>354.6</ele>
        <time>2020-07-09T11:57:10Z</time>
      </trkpt>
      <trkpt lat="41.6382530" lon="2.1145320">
        <ele>353.2</ele>
        <time>2020-07-09T11:57:11Z</time>
      </trkpt>
      <trkpt lat="41.6382480" lon="2.1145420">
        <ele>353.5</ele>
        <time>2020-07-09T11:57:12Z</time>
      </trkpt>
      <trkpt lat="41.6382410" lon="2.1145530">
        <ele>353.5</ele>
        <time>2020-07-09T11:57:13Z</time>
      </trkpt>
      <trkpt lat="41.6382340" lon="2.1145640">
        <ele>353.5</ele>
        <time>2020-07-09T11:57:14Z</time>
      </trkpt>
      <trkpt lat="41.6382260" lon="2.1145740">
        <ele>352.0</ele>
        <time>2020-07-09T11:57:15Z</time>
      </trkpt>
      <trkpt lat="41.6382170" lon="2.1145830">
        <ele>352.3</ele>
        <time>2020-07-09T11:57:16Z</time>
      </trkpt>
      <trkpt lat="41.6382070" lon="2.1145930">
        <ele>352.3</ele>
        <time>2020-07-09T11:57:17Z</time>
      </trkpt>
      <trkpt lat="41.6381960" lon="2.1146020">
        <ele>352.3</ele>
        <time>2020-07-09T11:57:18Z</time>
      </trkpt>
      <trkpt lat="41.6381840" lon="2.1146100">
        <ele>352.7</ele>
        <time>2020-07-09T11:57:19Z</time>
      </trkpt>
      <trkpt lat="41.6381710" lon="2.1146180">
        <ele>351.2</ele>
        <time>2020-07-09T11:57:20Z</time>
      </trkpt>
      <trkpt lat="41.6381580" lon="2.1146250">
        <ele>351.2</ele>
        <time>2020-07-09T11:57:21Z</time>
      </trkpt>
      <trkpt lat="41.6381440" lon="2.1146320">
        <ele>351.7</ele>
        <time>2020-07-09T11:57:22Z</time>
      </trkpt>
      <trkpt lat="41.6381310" lon="2.1146390">
        <ele>351.7</ele>
        <time>2020-07-09T11:57:23Z</time>
      </trkpt>
      <trkpt lat="41.6381170" lon="2.1146460">
        <ele>352.2</ele>
        <time>2020-07-09T11:57:24Z</time>
      </trkpt>
      <trkpt lat="41.6381040" lon="2.1146520">
        <ele>352.2</ele>
        <time>2020-07-09T11:57:25Z</time>
      </trkpt>
      <trkpt lat="41.6380920" lon="2.1146590">
        <ele>350.7</ele>
        <time>2020-07-09T11:57:26Z</time>
      </trkpt>
      <trkpt lat="41.6380800" lon="2.1146660">
        <ele>351.4</ele>
        <time>2020-07-09T11:57:27Z</time>
      </trkpt>
      <trkpt lat="41.6380700" lon="2.1146720">
        <ele>351.4</ele>
        <time>2020-07-09T11:57:28Z</time>
      </trkpt>
      <trkpt lat="41.6380600" lon="2.1146790">
        <ele>351.4</ele>
        <time>2020-07-09T11:57:29Z</time>
      </trkpt>
      <trkpt lat="41.6380500" lon="2.1146860">
        <ele>352.1</ele>
        <time>2020-07-09T11:57:30Z</time>
      </trkpt>
      <trkpt lat="41.6380420" lon="2.1146940">
        <ele>352.1</ele>
        <time>2020-07-09T11:57:31Z</time>
      </trkpt>
      <trkpt lat="41.6380330" lon="2.1147010">
        <ele>350.6</ele>
        <time>2020-07-09T11:57:32Z</time>
      </trkpt>
      <trkpt lat="41.6380250" lon="2.1147080">
        <ele>351.4</ele>
        <time>2020-07-09T11:57:33Z</time>
      </trkpt>
      <trkpt lat="41.6380170" lon="2.1147160">
        <ele>351.4</ele>
        <time>2020-07-09T11:57:34Z</time>
      </trkpt>
      <trkpt lat="41.6380080" lon="2.1147230">
        <ele>351.4</ele>
        <time>2020-07-09T11:57:35Z</time>
      </trkpt>
      <trkpt lat="41.6379990" lon="2.1147310">
        <ele>351.4</ele>
        <time>2020-07-09T11:57:36Z</time>
      </trkpt>
      <trkpt lat="41.6379890" lon="2.1147390">
        <ele>352.2</ele>
        <time>2020-07-09T11:57:37Z</time>
      </trkpt>
      <trkpt lat="41.6379800" lon="2.1147460">
        <ele>350.8</ele>
        <time>2020-07-09T11:57:38Z</time>
      </trkpt>
      <trkpt lat="41.6379700" lon="2.1147540">
        <ele>350.8</ele>
        <time>2020-07-09T11:57:39Z</time>
      </trkpt>
      <trkpt lat="41.6379600" lon="2.1147620">
        <ele>351.6</ele>
        <time>2020-07-09T11:57:40Z</time>
      </trkpt>
      <trkpt lat="41.6379500" lon="2.1147700">
        <ele>351.6</ele>
        <time>2020-07-09T11:57:41Z</time>
      </trkpt>
      <trkpt lat="41.6379400" lon="2.1147780">
        <ele>351.6</ele>
        <time>2020-07-09T11:57:42Z</time>
      </trkpt>
      <trkpt lat="41.6379310" lon="2.1147860">
        <ele>350.3</ele>
        <time>2020-07-09T11:57:43Z</time>
      </trkpt>
      <trkpt lat="41.6379220" lon="2.1147930">
        <ele>351.1</ele>
        <time>2020-07-09T11:57:44Z</time>
      </trkpt>
      <trkpt lat="41.6379130" lon="2.1148010">
        <ele>351.1</ele>
        <time>2020-07-09T11:57:45Z</time>
      </trkpt>
      <trkpt lat="41.6379050" lon="2.1148090">
        <ele>351.1</ele>
        <time>2020-07-09T11:57:46Z</time>
      </trkpt>
      <trkpt lat="41.6378970" lon="2.1148160">
        <ele>352.0</ele>
        <time>2020-07-09T11:57:47Z</time>
      </trkpt>
      <trkpt lat="41.6378890" lon="2.1148230">
        <ele>352.0</ele>
        <time>2020-07-09T11:57:48Z</time>
      </trkpt>
      <trkpt lat="41.6378810" lon="2.1148300">
        <ele>350.7</ele>
        <time>2020-07-09T11:57:49Z</time>
      </trkpt>
      <trkpt lat="41.6378730" lon="2.1148370">
        <ele>350.7</ele>
        <time>2020-07-09T11:57:50Z</time>
      </trkpt>
      <trkpt lat="41.6378640" lon="2.1148430">
        <ele>351.6</ele>
        <time>2020-07-09T11:57:51Z</time>
      </trkpt>
      <trkpt lat="41.6378550" lon="2.1148490">
        <ele>351.6</ele>
        <time>2020-07-09T11:57:52Z</time>
      </trkpt>
      <trkpt lat="41.6378450" lon="2.1148540">
        <ele>351.6</ele>
        <time>2020-07-09T11:57:53Z</time>
      </trkpt>
      <trkpt lat="41.6378350" lon="2.1148590">
        <ele>351.6</ele>
        <time>2020-07-09T11:57:54Z</time>
      </trkpt>
      <trkpt lat="41.6378230" lon="2.1148640">
        <ele>352.6</ele>
        <time>2020-07-09T11:57:55Z</time>
      </trkpt>
      <trkpt lat="41.6378120" lon="2.1148670">
        <ele>352.6</ele>
        <time>2020-07-09T11:57:56Z</time>
      </trkpt>
      <trkpt lat="41.6377990" lon="2.1148710">
        <ele>352.5</ele>
        <time>2020-07-09T11:57:57Z</time>
      </trkpt>
      <trkpt lat="41.6377870" lon="2.1148730">
        <ele>352.5</ele>
        <time>2020-07-09T11:57:58Z</time>
      </trkpt>
      <trkpt lat="41.6377740" lon="2.1148750">
        <ele>352.5</ele>
        <time>2020-07-09T11:57:59Z</time>
      </trkpt>
      <trkpt lat="41.6377610" lon="2.1148770">
        <ele>353.6</ele>
        <time>2020-07-09T11:58:00Z</time>
      </trkpt>
      <trkpt lat="41.6377480" lon="2.1148780">
        <ele>353.6</ele>
        <time>2020-07-09T11:58:01Z</time>
      </trkpt>
      <trkpt lat="41.6377350" lon="2.1148780">
        <ele>354.6</ele>
        <time>2020-07-09T11:58:02Z</time>
      </trkpt>
      <trkpt lat="41.6377220" lon="2.1148780">
        <ele>354.6</ele>
        <time>2020-07-09T11:58:03Z</time>
      </trkpt>
      <trkpt lat="41.6377090" lon="2.1148770">
        <ele>354.6</ele>
        <time>2020-07-09T11:58:04Z</time>
      </trkpt>
      <trkpt lat="41.6376970" lon="2.1148760">
        <ele>355.6</ele>
        <time>2020-07-09T11:58:05Z</time>
      </trkpt>
      <trkpt lat="41.6376860" lon="2.1148740">
        <ele>355.6</ele>
        <time>2020-07-09T11:58:06Z</time>
      </trkpt>
      <trkpt lat="41.6376750" lon="2.1148720">
        <ele>355.6</ele>
        <time>2020-07-09T11:58:07Z</time>
      </trkpt>
      <trkpt lat="41.6376640" lon="2.1148690">
        <ele>356.6</ele>
        <time>2020-07-09T11:58:08Z</time>
      </trkpt>
      <trkpt lat="41.6376550" lon="2.1148650">
        <ele>357.8</ele>
        <time>2020-07-09T11:58:09Z</time>
      </trkpt>
      <trkpt lat="41.6376460" lon="2.1148610">
        <ele>357.8</ele>
        <time>2020-07-09T11:58:10Z</time>
      </trkpt>
      <trkpt lat="41.6376380" lon="2.1148560">
        <ele>358.8</ele>
        <time>2020-07-09T11:58:11Z</time>
      </trkpt>
      <trkpt lat="41.6376320" lon="2.1148500">
        <ele>358.8</ele>
        <time>2020-07-09T11:58:12Z</time>
      </trkpt>
      <trkpt lat="41.6376260" lon="2.1148450">
        <ele>358.8</ele>
        <time>2020-07-09T11:58:13Z</time>
      </trkpt>
      <trkpt lat="41.6376220" lon="2.1148390">
        <ele>358.8</ele>
        <time>2020-07-09T11:58:14Z</time>
      </trkpt>
      <trkpt lat="41.6376190" lon="2.1148320">
        <ele>358.8</ele>
        <time>2020-07-09T11:58:15Z</time>
      </trkpt>
      <trkpt lat="41.6376170" lon="2.1148260">
        <ele>358.8</ele>
        <time>2020-07-09T11:58:16Z</time>
      </trkpt>
      <trkpt lat="41.6376160" lon="2.1148210">
        <ele>359.9</ele>
        <time>2020-07-09T11:58:17Z</time>
      </trkpt>
      <trkpt lat="41.6376150" lon="2.1148150">
        <ele>359.9</ele>
        <time>2020-07-09T11:58:18Z</time>
      </trkpt>
      <trkpt lat="41.6376140" lon="2.1148100">
        <ele>359.9</ele>
        <time>2020-07-09T11:58:19Z</time>
      </trkpt>
      <trkpt lat="41.6376110" lon="2.1148050">
        <ele>359.9</ele>
        <time>2020-07-09T11:58:20Z</time>
      </trkpt>
      <trkpt lat="41.6376080" lon="2.1148010">
        <ele>360.9</ele>
        <time>2020-07-09T11:58:21Z</time>
      </trkpt>
      <trkpt lat="41.6376020" lon="2.1147960">
        <ele>360.9</ele>
        <time>2020-07-09T11:58:22Z</time>
      </trkpt>
      <trkpt lat="41.6375960" lon="2.1147920">
        <ele>360.9</ele>
        <time>2020-07-09T11:58:23Z</time>
      </trkpt>
      <trkpt lat="41.6375880" lon="2.1147880">
        <ele>360.9</ele>
        <time>2020-07-09T11:58:24Z</time>
      </trkpt>
      <trkpt lat="41.6375790" lon="2.1147830">
        <ele>360.9</ele>
        <time>2020-07-09T11:58:25Z</time>
      </trkpt>
      <trkpt lat="41.6375700" lon="2.1147790">
        <ele>363.3</ele>
        <time>2020-07-09T11:58:26Z</time>
      </trkpt>
      <trkpt lat="41.6375600" lon="2.1147740">
        <ele>363.3</ele>
        <time>2020-07-09T11:58:27Z</time>
      </trkpt>
      <trkpt lat="41.6375510" lon="2.1147700">
        <ele>363.3</ele>
        <time>2020-07-09T11:58:28Z</time>
      </trkpt>
      <trkpt lat="41.6375410" lon="2.1147650">
        <ele>363.0</ele>
        <time>2020-07-09T11:58:29Z</time>
      </trkpt>
      <trkpt lat="41.6375310" lon="2.1147600">
        <ele>362.8</ele>
        <time>2020-07-09T11:58:30Z</time>
      </trkpt>
      <trkpt lat="41.6375220" lon="2.1147540">
        <ele>362.6</ele>
        <time>2020-07-09T11:58:31Z</time>
      </trkpt>
      <trkpt lat="41.6375130" lon="2.1147490">
        <ele>362.4</ele>
        <time>2020-07-09T11:58:32Z</time>
      </trkpt>
      <trkpt lat="41.6375040" lon="2.1147450">
        <ele>362.1</ele>
        <time>2020-07-09T11:58:33Z</time>
      </trkpt>
      <trkpt lat="41.6374950" lon="2.1147410">
        <ele>361.9</ele>
        <time>2020-07-09T11:58:34Z</time>
      </trkpt>
      <trkpt lat="41.6374860" lon="2.1147390">
        <ele>361.7</ele>
        <time>2020-07-09T11:58:35Z</time>
      </trkpt>
      <trkpt lat="41.6374770" lon="2.1147380">
        <ele>361.5</ele>
        <time>2020-07-09T11:58:36Z</time>
      </trkpt>
      <trkpt lat="41.6374690" lon="2.1147390">
        <ele>361.4</ele>
        <time>2020-07-09T11:58:37Z</time>
      </trkpt>
      <trkpt lat="41.6374610" lon="2.1147410">
        <ele>361.2</ele>
        <time>2020-07-09T11:58:38Z</time>
      </trkpt>
      <trkpt lat="41.6374520" lon="2.1147460">
        <ele>361.0</ele>
        <time>2020-07-09T11:58:39Z</time>
      </trkpt>
      <trkpt lat="41.6374440" lon="2.1147530">
        <ele>360.9</ele>
        <time>2020-07-09T11:58:40Z</time>
      </trkpt>
      <trkpt lat="41.6374360" lon="2.1147620">
        <ele>360.7</ele>
        <time>2020-07-09T11:58:41Z</time>
      </trkpt>
      <trkpt lat="41.6374280" lon="2.1147720">
        <ele>360.5</ele>
        <time>2020-07-09T11:58:42Z</time>
      </trkpt>
      <trkpt lat="41.6374200" lon="2.1147830">
        <ele>360.2</ele>
        <time>2020-07-09T11:58:43Z</time>
      </trkpt>
      <trkpt lat="41.6374130" lon="2.1147940">
        <ele>360.0</ele>
        <time>2020-07-09T11:58:44Z</time>
      </trkpt>
      <trkpt lat="41.6374060" lon="2.1148060">
        <ele>359.8</ele>
        <time>2020-07-09T11:58:45Z</time>
      </trkpt>
      <trkpt lat="41.6373990" lon="2.1148190">
        <ele>359.6</ele>
        <time>2020-07-09T11:58:46Z</time>
      </trkpt>
      <trkpt lat="41.6373930" lon="2.1148310">
        <ele>359.4</ele>
        <time>2020-07-09T11:58:47Z</time>
      </trkpt>
      <trkpt lat="41.6373870" lon="2.1148430">
        <ele>359.2</ele>
        <time>2020-07-09T11:58:48Z</time>
      </trkpt>
      <trkpt lat="41.6373820" lon="2.1148550">
        <ele>359.1</ele>
        <time>2020-07-09T11:58:49Z</time>
      </trkpt>
      <trkpt lat="41.6373770" lon="2.1148670">
        <ele>358.9</ele>
        <time>2020-07-09T11:58:50Z</time>
      </trkpt>
      <trkpt lat="41.6373720" lon="2.1148780">
        <ele>358.7</ele>
        <time>2020-07-09T11:58:51Z</time>
      </trkpt>
      <trkpt lat="41.6373680" lon="2.1148900">
        <ele>358.6</ele>
        <time>2020-07-09T11:58:52Z</time>
      </trkpt>
      <trkpt lat="41.6373640" lon="2.1149010">
        <ele>358.4</ele>
        <time>2020-07-09T11:58:53Z</time>
      </trkpt>
      <trkpt lat="41.6373610" lon="2.1149120">
        <ele>358.3</ele>
        <time>2020-07-09T11:58:54Z</time>
      </trkpt>
      <trkpt lat="41.6373580" lon="2.1149240">
        <ele>358.1</ele>
        <time>2020-07-09T11:58:55Z</time>
      </trkpt>
      <trkpt lat="41.6373550" lon="2.1149350">
        <ele>358.0</ele>
        <time>2020-07-09T11:58:56Z</time>
      </trkpt>
      <trkpt lat="41.6373530" lon="2.1149460">
        <ele>357.8</ele>
        <time>2020-07-09T11:58:57Z</time>
      </trkpt>
      <trkpt lat="41.6373510" lon="2.1149570">
        <ele>357.7</ele>
        <time>2020-07-09T11:58:58Z</time>
      </trkpt>
      <trkpt lat="41.6373500" lon="2.1149680">
        <ele>357.6</ele>
        <time>2020-07-09T11:58:59Z</time>
      </trkpt>
      <trkpt lat="41.6373490" lon="2.1149800">
        <ele>357.4</ele>
        <time>2020-07-09T11:59:00Z</time>
      </trkpt>
      <trkpt lat="41.6373480" lon="2.1149910">
        <ele>357.3</ele>
        <time>2020-07-09T11:59:01Z</time>
      </trkpt>
      <trkpt lat="41.6373480" lon="2.1150020">
        <ele>357.2</ele>
        <time>2020-07-09T11:59:02Z</time>
      </trkpt>
      <trkpt lat="41.6373480" lon="2.1150130">
        <ele>357.0</ele>
        <time>2020-07-09T11:59:03Z</time>
      </trkpt>
      <trkpt lat="41.6373480" lon="2.1150250">
        <ele>356.9</ele>
        <time>2020-07-09T11:59:04Z</time>
      </trkpt>
      <trkpt lat="41.6373490" lon="2.1150360">
        <ele>356.8</ele>
        <time>2020-07-09T11:59:05Z</time>
      </trkpt>
      <trkpt lat="41.6373500" lon="2.1150470">
        <ele>356.7</ele>
        <time>2020-07-09T11:59:06Z</time>
      </trkpt>
      <trkpt lat="41.6373510" lon="2.1150590">
        <ele>356.5</ele>
        <time>2020-07-09T11:59:07Z</time>
      </trkpt>
      <trkpt lat="41.6373530" lon="2.1150700">
        <ele>356.4</ele>
        <time>2020-07-09T11:59:08Z</time>
      </trkpt>
      <trkpt lat="41.6373540" lon="2.1150820">
        <ele>356.3</ele>
        <time>2020-07-09T11:59:09Z</time>
      </trkpt>
      <trkpt lat="41.6373560" lon="2.1150940">
        <ele>356.2</ele>
        <time>2020-07-09T11:59:10Z</time>
      </trkpt>
      <trkpt lat="41.6373580" lon="2.1151060">
        <ele>356.1</ele>
        <time>2020-07-09T11:59:11Z</time>
      </trkpt>
      <trkpt lat="41.6373610" lon="2.1151180">
        <ele>356.0</ele>
        <time>2020-07-09T11:59:12Z</time>
      </trkpt>
      <trkpt lat="41.6373630" lon="2.1151300">
        <ele>355.9</ele>
        <time>2020-07-09T11:59:13Z</time>
      </trkpt>
      <trkpt lat="41.6373650" lon="2.1151420">
        <ele>355.8</ele>
        <time>2020-07-09T11:59:14Z</time>
      </trkpt>
      <trkpt lat="41.6373680" lon="2.1151540">
        <ele>355.7</ele>
        <time>2020-07-09T11:59:15Z</time>
      </trkpt>
      <trkpt lat="41.6373700" lon="2.1151660">
        <ele>355.6</ele>
        <time>2020-07-09T11:59:16Z</time>
      </trkpt>
      <trkpt lat="41.6373720" lon="2.1151790">
        <ele>355.5</ele>
        <time>2020-07-09T11:59:17Z</time>
      </trkpt>
      <trkpt lat="41.6373740" lon="2.1151910">
        <ele>355.5</ele>
        <time>2020-07-09T11:59:18Z</time>
      </trkpt>
      <trkpt lat="41.6373760" lon="2.1152040">
        <ele>355.4</ele>
        <time>2020-07-09T11:59:19Z</time>
      </trkpt>
      <trkpt lat="41.6373780" lon="2.1152160">
        <ele>355.4</ele>
        <time>2020-07-09T11:59:20Z</time>
      </trkpt>
      <trkpt lat="41.6373790" lon="2.1152290">
        <ele>355.4</ele>
        <time>2020-07-09T11:59:21Z</time>
      </trkpt>
      <trkpt lat="41.6373800" lon="2.1152420">
        <ele>355.3</ele>
        <time>2020-07-09T11:59:22Z</time>
      </trkpt>
      <trkpt lat="41.6373810" lon="2.1152550">
        <ele>355.3</ele>
        <time>2020-07-09T11:59:23Z</time>
      </trkpt>
      <trkpt lat="41.6373820" lon="2.1152690">
        <ele>355.2</ele>
        <time>2020-07-09T11:59:24Z</time>
      </trkpt>
      <trkpt lat="41.6373820" lon="2.1152820">
        <ele>355.3</ele>
        <time>2020-07-09T11:59:25Z</time>
      </trkpt>
      <trkpt lat="41.6373820" lon="2.1152950">
        <ele>355.3</ele>
        <time>2020-07-09T11:59:26Z</time>
      </trkpt>
      <trkpt lat="41.6373820" lon="2.1153090">
        <ele>355.4</ele>
        <time>2020-07-09T11:59:27Z</time>
      </trkpt>
      <trkpt lat="41.6373820" lon="2.1153220">
        <ele>355.4</ele>
        <time>2020-07-09T11:59:28Z</time>
      </trkpt>
      <trkpt lat="41.6373810" lon="2.1153360">
        <ele>355.5</ele>
        <time>2020-07-09T11:59:29Z</time>
      </trkpt>
      <trkpt lat="41.6373800" lon="2.1153490">
        <ele>355.5</ele>
        <time>2020-07-09T11:59:30Z</time>
      </trkpt>
      <trkpt lat="41.6373790" lon="2.1153630">
        <ele>355.6</ele>
        <time>2020-07-09T11:59:31Z</time>
      </trkpt>
      <trkpt lat="41.6373780" lon="2.1153770">
        <ele>355.6</ele>
        <time>2020-07-09T11:59:32Z</time>
      </trkpt>
      <trkpt lat="41.6373760" lon="2.1153900">
        <ele>355.8</ele>
        <time>2020-07-09T11:59:33Z</time>
      </trkpt>
      <trkpt lat="41.6373740" lon="2.1154040">
        <ele>355.9</ele>
        <time>2020-07-09T11:59:34Z</time>
      </trkpt>
      <trkpt lat="41.6373730" lon="2.1154170">
        <ele>356.1</ele>
        <time>2020-07-09T11:59:35Z</time>
      </trkpt>
      <trkpt lat="41.6373700" lon="2.1154310">
        <ele>356.2</ele>
        <time>2020-07-09T11:59:36Z</time>
      </trkpt>
      <trkpt lat="41.6373680" lon="2.1154440">
        <ele>356.3</ele>
        <time>2020-07-09T11:59:37Z</time>
      </trkpt>
      <trkpt lat="41.6373660" lon="2.1154580">
        <ele>356.5</ele>
        <time>2020-07-09T11:59:38Z</time>
      </trkpt>
      <trkpt lat="41.6373640" lon="2.1154710">
        <ele>356.6</ele>
        <time>2020-07-09T11:59:39Z</time>
      </trkpt>
      <trkpt lat="41.6373610" lon="2.1154840">
        <ele>356.8</ele>
        <time>2020-07-09T11:59:40Z</time>
      </trkpt>
      <trkpt lat="41.6373580" lon="2.1154970">
        <ele>357.0</ele>
        <time>2020-07-09T11:59:41Z</time>
      </trkpt>
      <trkpt lat="41.6373560" lon="2.1155100">
        <ele>357.2</ele>
        <time>2020-07-09T11:59:42Z</time>
      </trkpt>
      <trkpt lat="41.6373530" lon="2.1155230">
        <ele>357.4</ele>
        <time>2020-07-09T11:59:43Z</time>
      </trkpt>
      <trkpt lat="41.6373500" lon="2.1155360">
        <ele>357.6</ele>
        <time>2020-07-09T11:59:44Z</time>
      </trkpt>
      <trkpt lat="41.6373480" lon="2.1155490">
        <ele>357.8</ele>
        <time>2020-07-09T11:59:45Z</time>
      </trkpt>
      <trkpt lat="41.6373450" lon="2.1155630">
        <ele>358.0</ele>
        <time>2020-07-09T11:59:46Z</time>
      </trkpt>
      <trkpt lat="41.6373430" lon="2.1155760">
        <ele>358.2</ele>
        <time>2020-07-09T11:59:47Z</time>
      </trkpt>
      <trkpt lat="41.6373410" lon="2.1155890">
        <ele>358.5</ele>
        <time>2020-07-09T11:59:48Z</time>
      </trkpt>
      <trkpt lat="41.6373390" lon="2.1156020">
        <ele>358.7</ele>
        <time>2020-07-09T11:59:49Z</time>
      </trkpt>
      <trkpt lat="41.6373380" lon="2.1156160">
        <ele>359.0</ele>
        <time>2020-07-09T11:59:50Z</time>
      </trkpt>
      <trkpt lat="41.6373370" lon="2.1156290">
        <ele>359.2</ele>
        <time>2020-07-09T11:59:51Z</time>
      </trkpt>
      <trkpt lat="41.6373360" lon="2.1156430">
        <ele>359.5</ele>
        <time>2020-07-09T11:59:52Z</time>
      </trkpt>
      <trkpt lat="41.6373350" lon="2.1156570">
        <ele>359.7</ele>
        <time>2020-07-09T11:59:53Z</time>
      </trkpt>
      <trkpt lat="41.6373350" lon="2.1156700">
        <ele>360.0</ele>
        <time>2020-07-09T11:59:54Z</time>
      </trkpt>
      <trkpt lat="41.6373340" lon="2.1156840">
        <ele>360.3</ele>
        <time>2020-07-09T11:59:55Z</time>
      </trkpt>
      <trkpt lat="41.6373340" lon="2.1156980">
        <ele>360.5</ele>
        <time>2020-07-09T11:59:56Z</time>
      </trkpt>
      <trkpt lat="41.6373340" lon="2.1157120">
        <ele>360.8</ele>
        <time>2020-07-09T11:59:57Z</time>
      </trkpt>
      <trkpt lat="41.6373340" lon="2.1157260">
        <ele>361.1</ele>
        <time>2020-07-09T11:59:58Z</time>
      </trkpt>
      <trkpt lat="41.6373340" lon="2.1157400">
        <ele>361.4</ele>
        <time>2020-07-09T11:59:59Z</time>
      </trkpt>
      <trkpt lat="41.6373330" lon="2.1157530">
        <ele>361.6</ele>
        <time>2020-07-09T12:00:00Z</time>
      </trkpt>
      <trkpt lat="41.6373330" lon="2.1157650">
        <ele>361.9</ele>
        <time>2020-07-09T12:00:01Z</time>
      </trkpt>
      <trkpt lat="41.6373310" lon="2.1157760">
        <ele>362.1</ele>
        <time>2020-07-09T12:00:02Z</time>
      </trkpt>
      <trkpt lat="41.6373290" lon="2.1157860">
        <ele>362.3</ele>
        <time>2020-07-09T12:00:03Z</time>
      </trkpt>
      <trkpt lat="41.6373270" lon="2.1157940">
        <ele>362.5</ele>
        <time>2020-07-09T12:00:04Z</time>
      </trkpt>
      <trkpt lat="41.6373230" lon="2.1158000">
        <ele>362.7</ele>
        <time>2020-07-09T12:00:05Z</time>
      </trkpt>
      <trkpt lat="41.6373190" lon="2.1158040">
        <ele>362.8</ele>
        <time>2020-07-09T12:00:06Z</time>
      </trkpt>
      <trkpt lat="41.6373130" lon="2.1158050">
        <ele>363.0</ele>
        <time>2020-07-09T12:00:07Z</time>
      </trkpt>
      <trkpt lat="41.6373060" lon="2.1158040">
        <ele>363.2</ele>
        <time>2020-07-09T12:00:08Z</time>
      </trkpt>
      <trkpt lat="41.6372990" lon="2.1158010">
        <ele>363.4</ele>
        <time>2020-07-09T12:00:09Z</time>
      </trkpt>
      <trkpt lat="41.6372910" lon="2.1157970">
        <ele>363.7</ele>
        <time>2020-07-09T12:00:10Z</time>
      </trkpt>
      <trkpt lat="41.6372820" lon="2.1157910">
        <ele>364.0</ele>
        <time>2020-07-09T12:00:11Z</time>
      </trkpt>
      <trkpt lat="41.6372740" lon="2.1157830">
        <ele>364.3</ele>
        <time>2020-07-09T12:00:12Z</time>
      </trkpt>
      <trkpt lat="41.6372650" lon="2.1157750">
        <ele>364.6</ele>
        <time>2020-07-09T12:00:13Z</time>
      </trkpt>
      <trkpt lat="41.6372560" lon="2.1157660">
        <ele>364.9</ele>
        <time>2020-07-09T12:00:14Z</time>
      </trkpt>
      <trkpt lat="41.6372480" lon="2.1157570">
        <ele>365.2</ele>
        <time>2020-07-09T12:00:15Z</time>
      </trkpt>
      <trkpt lat="41.6372390" lon="2.1157480">
        <ele>365.5</ele>
        <time>2020-07-09T12:00:16Z</time>
      </trkpt>
      <trkpt lat="41.6372320" lon="2.1157390">
        <ele>365.8</ele>
        <time>2020-07-09T12:00:17Z</time>
      </trkpt>
      <trkpt lat="41.6372250" lon="2.1157290">
        <ele>366.1</ele>
        <time>2020-07-09T12:00:18Z</time>
      </trkpt>
      <trkpt lat="41.6372180" lon="2.1157190">
        <ele>366.4</ele>
        <time>2020-07-09T12:00:19Z</time>
      </trkpt>
      <trkpt lat="41.6372110" lon="2.1157090">
        <ele>366.7</ele>
        <time>2020-07-09T12:00:20Z</time>
      </trkpt>
      <trkpt lat="41.6372050" lon="2.1156980">
        <ele>367.0</ele>
        <time>2020-07-09T12:00:21Z</time>
      </trkpt>
      <trkpt lat="41.6371990" lon="2.1156870">
        <ele>367.3</ele>
        <time>2020-07-09T12:00:22Z</time>
      </trkpt>
      <trkpt lat="41.6371930" lon="2.1156750">
        <ele>367.6</ele>
        <time>2020-07-09T12:00:23Z</time>
      </trkpt>
      <trkpt lat="41.6371870" lon="2.1156630">
        <ele>367.9</ele>
        <time>2020-07-09T12:00:24Z</time>
      </trkpt>
      <trkpt lat="41.6371820" lon="2.1156490">
        <ele>368.2</ele>
        <time>2020-07-09T12:00:25Z</time>
      </trkpt>
      <trkpt lat="41.6371760" lon="2.1156350">
        <ele>368.6</ele>
        <time>2020-07-09T12:00:26Z</time>
      </trkpt>
      <trkpt lat="41.6371710" lon="2.1156210">
        <ele>368.9</ele>
        <time>2020-07-09T12:00:27Z</time>
      </trkpt>
      <trkpt lat="41.6371660" lon="2.1156060">
        <ele>369.3</ele>
        <time>2020-07-09T12:00:28Z</time>
      </trkpt>
      <trkpt lat="41.6371610" lon="2.1155910">
        <ele>369.6</ele>
        <time>2020-07-09T12:00:29Z</time>
      </trkpt>
      <trkpt lat="41.6371560" lon="2.1155760">
        <ele>369.9</ele>
        <time>2020-07-09T12:00:30Z</time>
      </trkpt>
      <trkpt lat="41.6371510" lon="2.1155610">
        <ele>370.3</ele>
        <time>2020-07-09T12:00:31Z</time>
      </trkpt>
      <trkpt lat="41.6371460" lon="2.1155460">
        <ele>370.6</ele>
        <time>2020-07-09T12:00:32Z</time>
      </trkpt>
      <trkpt lat="41.6371420" lon="2.1155310">
        <ele>371.0</ele>
        <time>2020-07-09T12:00:33Z</time>
      </trkpt>
      <trkpt lat="41.6371370" lon="2.1155170">
        <ele>371.3</ele>
        <time>2020-07-09T12:00:34Z</time>
      </trkpt>
      <trkpt lat="41.6371330" lon="2.1155030">
        <ele>371.6</ele>
        <time>2020-07-09T12:00:35Z</time>
      </trkpt>
      <trkpt lat="41.6371280" lon="2.1154900">
        <ele>371.9</ele>
        <time>2020-07-09T12:00:36Z</time>
      </trkpt>
      <trkpt lat="41.6371230" lon="2.1154770">
        <ele>372.2</ele>
        <time>2020-07-09T12:00:37Z</time>
      </trkpt>
      <trkpt lat="41.6371180" lon="2.1154650">
        <ele>372.5</ele>
        <time>2020-07-09T12:00:38Z</time>
      </trkpt>
      <trkpt lat="41.6371130" lon="2.1154540">
        <ele>372.8</ele>
        <time>2020-07-09T12:00:39Z</time>
      </trkpt>
      <trkpt lat="41.6371070" lon="2.1154440">
        <ele>373.0</ele>
        <time>2020-07-09T12:00:40Z</time>
      </trkpt>
      <trkpt lat="41.6371010" lon="2.1154340">
        <ele>373.3</ele>
        <time>2020-07-09T12:00:41Z</time>
      </trkpt>
      <trkpt lat="41.6370940" lon="2.1154250">
        <ele>373.6</ele>
        <time>2020-07-09T12:00:42Z</time>
      </trkpt>
      <trkpt lat="41.6370870" lon="2.1154170">
        <ele>373.8</ele>
        <time>2020-07-09T12:00:43Z</time>
      </trkpt>
      <trkpt lat="41.6370800" lon="2.1154100">
        <ele>374.1</ele>
        <time>2020-07-09T12:00:44Z</time>
      </trkpt>
      <trkpt lat="41.6370720" lon="2.1154030">
        <ele>374.3</ele>
        <time>2020-07-09T12:00:45Z</time>
      </trkpt>
      <trkpt lat="41.6370640" lon="2.1153970">
        <ele>374.6</ele>
        <time>2020-07-09T12:00:46Z</time>
      </trkpt>
      <trkpt lat="41.6370560" lon="2.1153900">
        <ele>374.9</ele>
        <time>2020-07-09T12:00:47Z</time>
      </trkpt>
      <trkpt lat="41.6370480" lon="2.1153840">
        <ele>375.1</ele>
        <time>2020-07-09T12:00:48Z</time>
      </trkpt>
      <trkpt lat="41.6370400" lon="2.1153770">
        <ele>375.4</ele>
        <time>2020-07-09T12:00:49Z</time>
      </trkpt>
      <trkpt lat="41.6370330" lon="2.1153700">
        <ele>375.6</ele>
        <time>2020-07-09T12:00:50Z</time>
      </trkpt>
      <trkpt lat="41.6370250" lon="2.1153620">
        <ele>375.9</ele>
        <time>2020-07-09T12:00:51Z</time>
      </trkpt>
      <trkpt lat="41.6370180" lon="2.1153530">
        <ele>376.2</ele>
        <time>2020-07-09T12:00:52Z</time>
      </trkpt>
      <trkpt lat="41.6370110" lon="2.1153430">
        <ele>376.5</ele>
        <time>2020-07-09T12:00:53Z</time>
      </trkpt>
      <trkpt lat="41.6370050" lon="2.1153330">
        <ele>376.7</ele>
        <time>2020-07-09T12:00:54Z</time>
      </trkpt>
      <trkpt lat="41.6369990" lon="2.1153210">
        <ele>377.0</ele>
        <time>2020-07-09T12:00:55Z</time>
      </trkpt>
      <trkpt lat="41.6369930" lon="2.1153100">
        <ele>377.3</ele>
        <time>2020-07-09T12:00:56Z</time>
      </trkpt>
      <trkpt lat="41.6369870" lon="2.1152970">
        <ele>377.6</ele>
        <time>2020-07-09T12:00:57Z</time>
      </trkpt>
      <trkpt lat="41.6369810" lon="2.1152850">
        <ele>377.9</ele>
        <time>2020-07-09T12:00:58Z</time>
      </trkpt>
      <trkpt lat="41.6369750" lon="2.1152720">
        <ele>378.2</ele>
        <time>2020-07-09T12:00:59Z</time>
      </trkpt>
      <trkpt lat="41.6369700" lon="2.1152580">
        <ele>378.6</ele>
        <time>2020-07-09T12:01:00Z</time>
      </trkpt>
      <trkpt lat="41.6369640" lon="2.1152450">
        <ele>378.9</ele>
        <time>2020-07-09T12:01:01Z</time>
      </trkpt>
      <trkpt lat="41.6369590" lon="2.1152310">
        <ele>379.2</ele>
        <time>2020-07-09T12:01:02Z</time>
      </trkpt>
      <trkpt lat="41.6369530" lon="2.1152180">
        <ele>379.5</ele>
        <time>2020-07-09T12:01:03Z</time>
      </trkpt>
      <trkpt lat="41.6369470" lon="2.1152050">
        <ele>379.8</ele>
        <time>2020-07-09T12:01:04Z</time>
      </trkpt>
      <trkpt lat="41.6369410" lon="2.1151910">
        <ele>380.1</ele>
        <time>2020-07-09T12:01:05Z</time>
      </trkpt>
      <trkpt lat="41.6369340" lon="2.1151790">
        <ele>380.4</ele>
        <time>2020-07-09T12:01:06Z</time>
      </trkpt>
      <trkpt lat="41.6369280" lon="2.1151660">
        <ele>380.7</ele>
        <time>2020-07-09T12:01:07Z</time>
      </trkpt>
      <trkpt lat="41.6369200" lon="2.1151540">
        <ele>381.1</ele>
        <time>2020-07-09T12:01:08Z</time>
      </trkpt>
      <trkpt lat="41.6369130" lon="2.1151420">
        <ele>381.4</ele>
        <time>2020-07-09T12:01:09Z</time>
      </trkpt>
      <trkpt lat="41.6369050" lon="2.1151310">
        <ele>381.7</ele>
        <time>2020-07-09T12:01:10Z</time>
      </trkpt>
      <trkpt lat="41.6368980" lon="2.1151210">
        <ele>382.0</ele>
        <time>2020-07-09T12:01:11Z</time>
      </trkpt>
      <trkpt lat="41.6368890" lon="2.1151060">
        <ele>382.3</ele>
        <time>2020-07-09T12:01:12Z</time>
      </trkpt>
      <trkpt lat="41.6368870" lon="2.1151010">
        <ele>382.5</ele>
        <time>2020-07-09T12:01:13Z</time>
      </trkpt>
      <trkpt lat="41.6368860" lon="2.1150960">
        <ele>382.6</ele>
        <time>2020-07-09T12:01:14Z</time>
      </trkpt>
      <trkpt lat="41.6368850" lon="2.1150910">
        <ele>382.7</ele>
        <time>2020-07-09T12:01:15Z</time>
      </trkpt>
      <trkpt lat="41.6368830" lon="2.1150860">
        <ele>382.8</ele>
        <time>2020-07-09T12:01:16Z</time>
      </trkpt>
      <trkpt lat="41.6368820" lon="2.1150810">
        <ele>382.9</ele>
        <time>2020-07-09T12:01:17Z</time>
      </trkpt>
      <trkpt lat="41.6368800" lon="2.1150760">
        <ele>383.0</ele>
        <time>2020-07-09T12:01:18Z</time>
      </trkpt>
      <trkpt lat="41.6368790" lon="2.1150710">
        <ele>383.1</ele>
        <time>2020-07-09T12:01:19Z</time>
      </trkpt>
      <trkpt lat="41.6368780" lon="2.1150670">
        <ele>383.2</ele>
        <time>2020-07-09T12:01:20Z</time>
      </trkpt>
      <trkpt lat="41.6368760" lon="2.1150620">
        <ele>383.3</ele>
        <time>2020-07-09T12:01:21Z</time>
      </trkpt>
      <trkpt lat="41.6368750" lon="2.1150570">
        <ele>383.4</ele>
        <time>2020-07-09T12:01:22Z</time>
      </trkpt>
      <trkpt lat="41.6368740" lon="2.1150520">
        <ele>383.5</ele>
        <time>2020-07-09T12:01:23Z</time>
      </trkpt>
      <trkpt lat="41.6368720" lon="2.1150470">
        <ele>383.6</ele>
        <time>2020-07-09T12:01:24Z</time>
      </trkpt>
      <trkpt lat="41.6368710" lon="2.1150420">
        <ele>383.7</ele>
        <time>2020-07-09T12:01:25Z</time>
      </trkpt>
      <trkpt lat="41.6368690" lon="2.1150370">
        <ele>383.9</ele>
        <time>2020-07-09T12:01:26Z</time>
      </trkpt>
      <trkpt lat="41.6368680" lon="2.1150320">
        <ele>384.0</ele>
        <time>2020-07-09T12:01:27Z</time>
      </trkpt>
      <trkpt lat="41.6368670" lon="2.1150270">
        <ele>384.1</ele>
        <time>2020-07-09T12:01:28Z</time>
      </trkpt>
      <trkpt lat="41.6368650" lon="2.1150220">
        <ele>384.2</ele>
        <time>2020-07-09T12:01:29Z</time>
      </trkpt>
      <trkpt lat="41.6368640" lon="2.1150170">
        <ele>384.3</ele>
        <time>2020-07-09T12:01:30Z</time>
      </trkpt>
      <trkpt lat="41.6368630" lon="2.1150120">
        <ele>384.4</ele>
        <time>2020-07-09T12:01:31Z</time>
      </trkpt>
      <trkpt lat="41.6368610" lon="2.1150070">
        <ele>384.5</ele>
        <time>2020-07-09T12:01:32Z</time>
      </trkpt>
      <trkpt lat="41.6368600" lon="2.1150020">
        <ele>384.6</ele>
        <time>2020-07-09T12:01:33Z</time>
      </trkpt>
      <trkpt lat="41.6368580" lon="2.1149970">
        <ele>384.7</ele>
        <time>2020-07-09T12:01:34Z</time>
      </trkpt>
      <trkpt lat="41.6368570" lon="2.1149920">
        <ele>384.8</ele>
        <time>2020-07-09T12:01:35Z</time>
      </trkpt>
      <trkpt lat="41.6368560" lon="2.1149870">
        <ele>384.9</ele>
        <time>2020-07-09T12:01:36Z</time>
      </trkpt>
      <trkpt lat="41.6368540" lon="2.1149820">
        <ele>385.0</ele>
        <time>2020-07-09T12:01:37Z</time>
      </trkpt>
      <trkpt lat="41.6368530" lon="2.1149780">
        <ele>385.1</ele>
        <time>2020-07-09T12:01:38Z</time>
      </trkpt>
      <trkpt lat="41.6368520" lon="2.1149730">
        <ele>385.2</ele>
        <time>2020-07-09T12:01:39Z</time>
      </trkpt>
      <trkpt lat="41.6368500" lon="2.1149680">
        <ele>385.3</ele>
        <time>2020-07-09T12:01:40Z</time>
      </trkpt>
      <trkpt lat="41.6368490" lon="2.1149630">
        <ele>385.5</ele>
        <time>2020-07-09T12:01:41Z</time>
      </trkpt>
      <trkpt lat="41.6368470" lon="2.1149580">
        <ele>385.6</ele>
        <time>2020-07-09T12:01:42Z</time>
      </trkpt>
      <trkpt lat="41.6368460" lon="2.1149530">
        <ele>385.7</ele>
        <time>2020-07-09T12:01:43Z</time>
      </trkpt>
      <trkpt lat="41.6368450" lon="2.1149480">
        <ele>385.8</ele>
        <time>2020-07-09T12:01:44Z</time>
      </trkpt>
      <trkpt lat="41.6368430" lon="2.1149430">
        <ele>385.9</ele>
        <time>2020-07-09T12:01:45Z</time>
      </trkpt>
      <trkpt lat="41.6368420" lon="2.1149380">
        <ele>386.0</ele>
        <time>2020-07-09T12:01:46Z</time>
      </trkpt>
      <trkpt lat="41.6368410" lon="2.1149330">
        <ele>386.1</ele>
        <time>2020-07-09T12:01:47Z</time>
      </trkpt>
      <trkpt lat="41.6368390" lon="2.1149280">
        <ele>386.2</ele>
        <time>2020-07-09T12:01:48Z</time>
      </trkpt>
      <trkpt lat="41.6368380" lon="2.1149230">
        <ele>386.3</ele>
        <time>2020-07-09T12:01:49Z</time>
      </trkpt>
      <trkpt lat="41.6368370" lon="2.1149180">
        <ele>390.4</ele>
        <time>2020-07-09T12:01:50Z</time>
      </trkpt>
      <trkpt lat="41.6368350" lon="2.1149130">
        <ele>390.4</ele>
        <time>2020-07-09T12:01:51Z</time>
      </trkpt>
      <trkpt lat="41.6368340" lon="2.1149080">
        <ele>390.5</ele>
        <time>2020-07-09T12:01:52Z</time>
      </trkpt>
      <trkpt lat="41.6368320" lon="2.1149030">
        <ele>390.5</ele>
        <time>2020-07-09T12:01:53Z</time>
      </trkpt>
      <trkpt lat="41.6368310" lon="2.1148980">
        <ele>390.6</ele>
        <time>2020-07-09T12:01:54Z</time>
      </trkpt>
      <trkpt lat="41.6368300" lon="2.1148940">
        <ele>390.6</ele>
        <time>2020-07-09T12:01:55Z</time>
      </trkpt>
      <trkpt lat="41.6368280" lon="2.1148890">
        <ele>390.6</ele>
        <time>2020-07-09T12:01:56Z</time>
      </trkpt>
      <trkpt lat="41.6368270" lon="2.1148840">
        <ele>390.7</ele>
        <time>2020-07-09T12:01:57Z</time>
      </trkpt>
      <trkpt lat="41.6368260" lon="2.1148790">
        <ele>390.7</ele>
        <time>2020-07-09T12:01:58Z</time>
      </trkpt>
      <trkpt lat="41.6368240" lon="2.1148740">
        <ele>390.7</ele>
        <time>2020-07-09T12:01:59Z</time>
      </trkpt>
      <trkpt lat="41.6368230" lon="2.1148690">
        <ele>390.8</ele>
        <time>2020-07-09T12:02:00Z</time>
      </trkpt>
      <trkpt lat="41.6368210" lon="2.1148640">
        <ele>390.8</ele>
        <time>2020-07-09T12:02:01Z</time>
      </trkpt>
      <trkpt lat="41.6368200" lon="2.1148590">
        <ele>390.8</ele>
        <time>2020-07-09T12:02:02Z</time>
      </trkpt>
      <trkpt lat="41.6368190" lon="2.1148540">
        <ele>390.9</ele>
        <time>2020-07-09T12:02:03Z</time>
      </trkpt>
      <trkpt lat="41.6368170" lon="2.1148490">
        <ele>390.9</ele>
        <time>2020-07-09T12:02:04Z</time>
      </trkpt>
      <trkpt lat="41.6368160" lon="2.1148440">
        <ele>391.0</ele>
        <time>2020-07-09T12:02:05Z</time>
      </trkpt>
      <trkpt lat="41.6368150" lon="2.1148390">
        <ele>391.0</ele>
        <time>2020-07-09T12:02:06Z</time>
      </trkpt>
      <trkpt lat="41.6368130" lon="2.1148340">
        <ele>391.0</ele>
        <time>2020-07-09T12:02:07Z</time>
      </trkpt>
      <trkpt lat="41.6368120" lon="2.1148290">
        <ele>391.1</ele>
        <time>2020-07-09T12:02:08Z</time>
      </trkpt>
      <trkpt lat="41.6368100" lon="2.1148240">
        <ele>391.1</ele>
        <time>2020-07-09T12:02:09Z</time>
      </trkpt>
      <trkpt lat="41.6368090" lon="2.1148190">
        <ele>391.1</ele>
        <time>2020-07-09T12:02:10Z</time>
      </trkpt>
      <trkpt lat="41.6368080" lon="2.1148140">
        <ele>391.2</ele>
        <time>2020-07-09T12:02:11Z</time>
      </trkpt>
      <trkpt lat="41.6368060" lon="2.1148090">
        <ele>391.2</ele>
        <time>2020-07-09T12:02:12Z</time>
      </trkpt>
      <trkpt lat="41.6368050" lon="2.1148050">
        <ele>391.3</ele>
        <time>2020-07-09T12:02:13Z</time>
      </trkpt>
      <trkpt lat="41.6368040" lon="2.1148000">
        <ele>391.3</ele>
        <time>2020-07-09T12:02:14Z</time>
      </trkpt>
      <trkpt lat="41.6368020" lon="2.1147950">
        <ele>391.3</ele>
        <time>2020-07-09T12:02:15Z</time>
      </trkpt>
      <trkpt lat="41.6368010" lon="2.1147900">
        <ele>391.4</ele>
        <time>2020-07-09T12:02:16Z</time>
      </trkpt>
      <trkpt lat="41.6367990" lon="2.1147850">
        <ele>391.4</ele>
        <time>2020-07-09T12:02:17Z</time>
      </trkpt>
      <trkpt lat="41.6367980" lon="2.1147800">
        <ele>391.4</ele>
        <time>2020-07-09T12:02:18Z</time>
      </trkpt>
      <trkpt lat="41.6367970" lon="2.1147750">
        <ele>391.5</ele>
        <time>2020-07-09T12:02:19Z</time>
      </trkpt>
      <trkpt lat="41.6367950" lon="2.1147700">
        <ele>391.5</ele>
        <time>2020-07-09T12:02:20Z</time>
      </trkpt>
      <trkpt lat="41.6367940" lon="2.1147650">
        <ele>391.5</ele>
        <time>2020-07-09T12:02:21Z</time>
      </trkpt>
      <trkpt lat="41.6368010" lon="2.1147520">
        <ele>391.6</ele>
        <time>2020-07-09T12:02:22Z</time>
      </trkpt>
      <trkpt lat="41.6368090" lon="2.1147400">
        <ele>391.7</ele>
        <time>2020-07-09T12:02:23Z</time>
      </trkpt>
      <trkpt lat="41.6368160" lon="2.1147270">
        <ele>391.8</ele>
        <time>2020-07-09T12:02:24Z</time>
      </trkpt>
      <trkpt lat="41.6368240" lon="2.1147150">
        <ele>391.9</ele>
        <time>2020-07-09T12:02:25Z</time>
      </trkpt>
      <trkpt lat="41.6368320" lon="2.1147020">
        <ele>392.0</ele>
        <time>2020-07-09T12:02:26Z</time>
      </trkpt>
      <trkpt lat="41.6368390" lon="2.1146900">
        <ele>392.1</ele>
        <time>2020-07-09T12:02:27Z</time>
      </trkpt>
      <trkpt lat="41.6368470" lon="2.1146770">
        <ele>392.2</ele>
        <time>2020-07-09T12:02:28Z</time>
      </trkpt>
      <trkpt lat="41.6368550" lon="2.1146650">
        <ele>392.4</ele>
        <time>2020-07-09T12:02:29Z</time>
      </trkpt>
      <trkpt lat="41.6368630" lon="2.1146520">
        <ele>392.5</ele>
        <time>2020-07-09T12:02:30Z</time>
      </trkpt>
      <trkpt lat="41.6368710" lon="2.1146390">
        <ele>392.6</ele>
        <time>2020-07-09T12:02:31Z</time>
      </trkpt>
      <trkpt lat="41.6368790" lon="2.1146260">
        <ele>392.7</ele>
        <time>2020-07-09T12:02:32Z</time>
      </trkpt>
      <trkpt lat="41.6368860" lon="2.1146130">
        <ele>392.8</ele>
        <time>2020-07-09T12:02:33Z</time>
      </trkpt>
      <trkpt lat="41.6368940" lon="2.1146000">
        <ele>392.9</ele>
        <time>2020-07-09T12:02:34Z</time>
      </trkpt>
      <trkpt lat="41.6369020" lon="2.1145870">
        <ele>393.0</ele>
        <time>2020-07-09T12:02:35Z</time>
      </trkpt>
      <trkpt lat="41.6369100" lon="2.1145730">
        <ele>393.1</ele>
        <time>2020-07-09T12:02:36Z</time>
      </trkpt>
      <trkpt lat="41.6369180" lon="2.1145590">
        <ele>393.2</ele>
        <time>2020-07-09T12:02:37Z</time>
      </trkpt>
      <trkpt lat="41.6369260" lon="2.1145450">
        <ele>393.3</ele>
        <time>2020-07-09T12:02:38Z</time>
      </trkpt>
      <trkpt lat="41.6369340" lon="2.1145310">
        <ele>393.4</ele>
        <time>2020-07-09T12:02:39Z</time>
      </trkpt>
      <trkpt lat="41.6369410" lon="2.1145170">
        <ele>393.6</ele>
        <time>2020-07-09T12:02:40Z</time>
      </trkpt>
      <trkpt lat="41.6369490" lon="2.1145020">
        <ele>393.7</ele>
        <time>2020-07-09T12:02:41Z</time>
      </trkpt>
      <trkpt lat="41.6369570" lon="2.1144870">
        <ele>393.8</ele>
        <time>2020-07-09T12:02:42Z</time>
      </trkpt>
      <trkpt lat="41.6369650" lon="2.1144720">
        <ele>393.9</ele>
        <time>2020-07-09T12:02:43Z</time>
      </trkpt>
      <trkpt lat="41.6369730" lon="2.1144570">
        <ele>394.0</ele>
        <time>2020-07-09T12:02:44Z</time>
      </trkpt>
      <trkpt lat="41.6369810" lon="2.1144420">
        <ele>394.2</ele>
        <time>2020-07-09T12:02:45Z</time>
      </trkpt>
      <trkpt lat="41.6369890" lon="2.1144280">
        <ele>394.3</ele>
        <time>2020-07-09T12:02:46Z</time>
      </trkpt>
      <trkpt lat="41.6369970" lon="2.1144130">
        <ele>394.4</ele>
        <time>2020-07-09T12:02:47Z</time>
      </trkpt>
      <trkpt lat="41.6370050" lon="2.1143980">
        <ele>394.5</ele>
        <time>2020-07-09T12:02:48Z</time>
      </trkpt>
      <trkpt lat="41.6370130" lon="2.1143840">
        <ele>394.6</ele>
        <time>2020-07-09T12:02:49Z</time>
      </trkpt>
      <trkpt lat="41.6370210" lon="2.1143690">
        <ele>394.7</ele>
        <time>2020-07-09T12:02:50Z</time>
      </trkpt>
      <trkpt lat="41.6370300" lon="2.1143550">
        <ele>394.9</ele>
        <time>2020-07-09T12:02:51Z</time>
      </trkpt>
      <trkpt lat="41.6370380" lon="2.1143410">
        <ele>395.0</ele>
        <time>2020-07-09T12:02:52Z</time>
      </trkpt>
      <trkpt lat="41.6370470" lon="2.1143280">
        <ele>395.1</ele>
        <time>2020-07-09T12:02:53Z</time>
      </trkpt>
      <trkpt lat="41.6370560" lon="2.1143150">
        <ele>395.2</ele>
        <time>2020-07-09T12:02:54Z</time>
      </trkpt>
      <trkpt lat="41.6370640" lon="2.1143020">
        <ele>395.3</ele>
        <time>2020-07-09T12:02:55Z</time>
      </trkpt>
      <trkpt lat="41.6370740" lon="2.1142890">
        <ele>395.4</ele>
        <time>2020-07-09T12:02:56Z</time>
      </trkpt>
      <trkpt lat="41.6370830" lon="2.1142770">
        <ele>395.6</ele>
        <time>2020-07-09T12:02:57Z</time>
      </trkpt>
      <trkpt lat="41.6370920" lon="2.1142650">
        <ele>395.7</ele>
        <time>2020-07-09T12:02:58Z</time>
      </trkpt>
      <trkpt lat="41.6371020" lon="2.1142540">
        <ele>395.8</ele>
        <time>2020-07-09T12:02:59Z</time>
      </trkpt>
      <trkpt lat="41.6371110" lon="2.1142430">
        <ele>395.9</ele>
        <time>2020-07-09T12:03:00Z</time>
      </trkpt>
      <trkpt lat="41.6371210" lon="2.1142320">
        <ele>396.0</ele>
        <time>2020-07-09T12:03:01Z</time>
      </trkpt>
      <trkpt lat="41.6371310" lon="2.1142220">
        <ele>396.2</ele>
        <time>2020-07-09T12:03:02Z</time>
      </trkpt>
      <trkpt lat="41.6371420" lon="2.1142120">
        <ele>396.3</ele>
        <time>2020-07-09T12:03:03Z</time>
      </trkpt>
      <trkpt lat="41.6371520" lon="2.1142020">
        <ele>396.4</ele>
        <time>2020-07-09T12:03:04Z</time>
      </trkpt>
      <trkpt lat="41.6371620" lon="2.1141920">
        <ele>396.5</ele>
        <time>2020-07-09T12:03:05Z</time>
      </trkpt>
      <trkpt lat="41.6371730" lon="2.1141830">
        <ele>396.6</ele>
        <time>2020-07-09T12:03:06Z</time>
      </trkpt>
      <trkpt lat="41.6371840" lon="2.1141740">
        <ele>396.8</ele>
        <time>2020-07-09T12:03:07Z</time>
      </trkpt>
      <trkpt lat="41.6371950" lon="2.1141650">
        <ele>396.9</ele>
        <time>2020-07-09T12:03:08Z</time>
      </trkpt>
      <trkpt lat="41.6372060" lon="2.1141560">
        <ele>397.0</ele>
        <time>2020-07-09T12:03:09Z</time>
      </trkpt>
      <trkpt lat="41.6372170" lon="2.1141480">
        <ele>397.1</ele>
        <time>2020-07-09T12:03:10Z</time>
      </trkpt>
      <trkpt lat="41.6372290" lon="2.1141390">
        <ele>397.3</ele>
        <time>2020-07-09T12:03:11Z</time>
      </trkpt>
      <trkpt lat="41.6372410" lon="2.1141310">
        <ele>397.4</ele>
        <time>2020-07-09T12:03:12Z</time>
      </trkpt>
      <trkpt lat="41.6372520" lon="2.1141230">
        <ele>397.5</ele>
        <time>2020-07-09T12:03:13Z</time>
      </trkpt>
      <trkpt lat="41.6372640" lon="2.1141150">
        <ele>397.6</ele>
        <time>2020-07-09T12:03:14Z</time>
      </trkpt>
      <trkpt lat="41.6372760" lon="2.1141070">
        <ele>397.7</ele>
        <time>2020-07-09T12:03:15Z</time>
      </trkpt>
      <trkpt lat="41.6372890" lon="2.1140990">
        <ele>397.9</ele>
        <time>2020-07-09T12:03:16Z</time>
      </trkpt>
      <trkpt lat="41.6373010" lon="2.1140920">
        <ele>398.0</ele>
        <time>2020-07-09T12:03:17Z</time>
      </trkpt>
      <trkpt lat="41.6373140" lon="2.1140840">
        <ele>398.1</ele>
        <time>2020-07-09T12:03:18Z</time>
      </trkpt>
      <trkpt lat="41.6373260" lon="2.1140770">
        <ele>398.3</ele>
        <time>2020-07-09T12:03:19Z</time>
      </trkpt>
      <trkpt lat="41.6373390" lon="2.1140700">
        <ele>398.4</ele>
        <time>2020-07-09T12:03:20Z</time>
      </trkpt>
      <trkpt lat="41.6373520" lon="2.1140630">
        <ele>398.5</ele>
        <time>2020-07-09T12:03:21Z</time>
      </trkpt>
      <trkpt lat="41.6373640" lon="2.1140570">
        <ele>398.6</ele>
        <time>2020-07-09T12:03:22Z</time>
      </trkpt>
      <trkpt lat="41.6373770" lon="2.1140500">
        <ele>398.8</ele>
        <time>2020-07-09T12:03:23Z</time>
      </trkpt>
      <trkpt lat="41.6373900" lon="2.1140440">
        <ele>398.9</ele>
        <time>2020-07-09T12:03:24Z</time>
      </trkpt>
      <trkpt lat="41.6374030" lon="2.1140390">
        <ele>399.0</ele>
        <time>2020-07-09T12:03:25Z</time>
      </trkpt>
      <trkpt lat="41.6374150" lon="2.1140330">
        <ele>399.2</ele>
        <time>2020-07-09T12:03:26Z</time>
      </trkpt>
      <trkpt lat="41.6374280" lon="2.1140280">
        <ele>399.3</ele>
        <time>2020-07-09T12:03:27Z</time>
      </trkpt>
      <trkpt lat="41.6374410" lon="2.1140230">
        <ele>399.4</ele>
        <time>2020-07-09T12:03:28Z</time>
      </trkpt>
      <trkpt lat="41.6374540" lon="2.1140190">
        <ele>399.4</ele>
        <time>2020-07-09T12:03:29Z</time>
      </trkpt>
      <trkpt lat="41.6374660" lon="2.1140150">
        <ele>399.5</ele>
        <time>2020-07-09T12:03:30Z</time>
      </trkpt>
      <trkpt lat="41.6374790" lon="2.1140110">
        <ele>399.6</ele>
        <time>2020-07-09T12:03:31Z</time>
      </trkpt>
      <trkpt lat="41.6374910" lon="2.1140080">
        <ele>399.7</ele>
        <time>2020-07-09T12:03:32Z</time>
      </trkpt>
      <trkpt lat="41.6375030" lon="2.1140050">
        <ele>399.8</ele>
        <time>2020-07-09T12:03:33Z</time>
      </trkpt>
      <trkpt lat="41.6375160" lon="2.1140020">
        <ele>399.8</ele>
        <time>2020-07-09T12:03:34Z</time>
      </trkpt>
      <trkpt lat="41.6375280" lon="2.1139990">
        <ele>399.9</ele>
        <time>2020-07-09T12:03:35Z</time>
      </trkpt>
      <trkpt lat="41.6375390" lon="2.1139970">
        <ele>400.0</ele>
        <time>2020-07-09T12:03:36Z</time>
      </trkpt>
      <trkpt lat="41.6375510" lon="2.1139940">
        <ele>400.1</ele>
        <time>2020-07-09T12:03:37Z</time>
      </trkpt>
      <trkpt lat="41.6375630" lon="2.1139920">
        <ele>400.2</ele>
        <time>2020-07-09T12:03:38Z</time>
      </trkpt>
      <trkpt lat="41.6375740" lon="2.1139890">
        <ele>400.2</ele>
        <time>2020-07-09T12:03:39Z</time>
      </trkpt>
      <trkpt lat="41.6375850" lon="2.1139860">
        <ele>400.3</ele>
        <time>2020-07-09T12:03:40Z</time>
      </trkpt>
      <trkpt lat="41.6375960" lon="2.1139830">
        <ele>400.4</ele>
        <time>2020-07-09T12:03:41Z</time>
      </trkpt>
      <trkpt lat="41.6376070" lon="2.1139790">
        <ele>400.5</ele>
        <time>2020-07-09T12:03:42Z</time>
      </trkpt>
      <trkpt lat="41.6376170" lon="2.1139760">
        <ele>400.6</ele>
        <time>2020-07-09T12:03:43Z</time>
      </trkpt>
      <trkpt lat="41.6376270" lon="2.1139710">
        <ele>400.6</ele>
        <time>2020-07-09T12:03:44Z</time>
      </trkpt>
      <trkpt lat="41.6376370" lon="2.1139670">
        <ele>400.7</ele>
        <time>2020-07-09T12:03:45Z</time>
      </trkpt>
      <trkpt lat="41.6376470" lon="2.1139610">
        <ele>400.8</ele>
        <time>2020-07-09T12:03:46Z</time>
      </trkpt>
      <trkpt lat="41.6376560" lon="2.1139560">
        <ele>400.9</ele>
        <time>2020-07-09T12:03:47Z</time>
      </trkpt>
      <trkpt lat="41.6376650" lon="2.1139490">
        <ele>401.0</ele>
        <time>2020-07-09T12:03:48Z</time>
      </trkpt>
      <trkpt lat="41.6376740" lon="2.1139420">
        <ele>401.0</ele>
        <time>2020-07-09T12:03:49Z</time>
      </trkpt>
      <trkpt lat="41.6376820" lon="2.1139340">
        <ele>401.1</ele>
        <time>2020-07-09T12:03:50Z</time>
      </trkpt>
      <trkpt lat="41.6376900" lon="2.1139260">
        <ele>401.2</ele>
        <time>2020-07-09T12:03:51Z</time>
      </trkpt>
      <trkpt lat="41.6376980" lon="2.1139160">
        <ele>401.3</ele>
        <time>2020-07-09T12:03:52Z</time>
      </trkpt>
      <trkpt lat="41.6377050" lon="2.1139070">
        <ele>401.4</ele>
        <time>2020-07-09T12:03:53Z</time>
      </trkpt>
      <trkpt lat="41.6377120" lon="2.1138960">
        <ele>401.4</ele>
        <time>2020-07-09T12:03:54Z</time>
      </trkpt>
      <trkpt lat="41.6377190" lon="2.1138860">
        <ele>401.5</ele>
        <time>2020-07-09T12:03:55Z</time>
      </trkpt>
      <trkpt lat="41.6377250" lon="2.1138740">
        <ele>401.6</ele>
        <time>2020-07-09T12:03:56Z</time>
      </trkpt>
      <trkpt lat="41.6377310" lon="2.1138630">
        <ele>401.7</ele>
        <time>2020-07-09T12:03:57Z</time>
      </trkpt>
      <trkpt lat="41.6377370" lon="2.1138510">
        <ele>401.8</ele>
        <time>2020-07-09T12:03:58Z</time>
      </trkpt>
      <trkpt lat="41.6377430" lon="2.1138380">
        <ele>401.9</ele>
        <time>2020-07-09T12:03:59Z</time>
      </trkpt>
      <trkpt lat="41.6377480" lon="2.1138250">
        <ele>402.0</ele>
        <time>2020-07-09T12:04:00Z</time>
      </trkpt>
      <trkpt lat="41.6377530" lon="2.1138120">
        <ele>402.1</ele>
        <time>2020-07-09T12:04:01Z</time>
      </trkpt>
      <trkpt lat="41.6377580" lon="2.1137990">
        <ele>402.2</ele>
        <time>2020-07-09T12:04:02Z</time>
      </trkpt>
      <trkpt lat="41.6377620" lon="2.1137850">
        <ele>402.3</ele>
        <time>2020-07-09T12:04:03Z</time>
      </trkpt>
      <trkpt lat="41.6377660" lon="2.1137720">
        <ele>402.4</ele>
        <time>2020-07-09T12:04:04Z</time>
      </trkpt>
      <trkpt lat="41.6377700" lon="2.1137580">
        <ele>402.5</ele>
        <time>2020-07-09T12:04:05Z</time>
      </trkpt>
      <trkpt lat="41.6377730" lon="2.1137440">
        <ele>402.6</ele>
        <time>2020-07-09T12:04:06Z</time>
      </trkpt>
      <trkpt lat="41.6377760" lon="2.1137300">
        <ele>402.7</ele>
        <time>2020-07-09T12:04:07Z</time>
      </trkpt>
      <trkpt lat="41.6377790" lon="2.1137160">
        <ele>402.8</ele>
        <time>2020-07-09T12:04:08Z</time>
      </trkpt>
      <trkpt lat="41.6377820" lon="2.1137020">
        <ele>402.9</ele>
        <time>2020-07-09T12:04:09Z</time>
      </trkpt>
      <trkpt lat="41.6377850" lon="2.1136870">
        <ele>403.0</ele>
        <time>2020-07-09T12:04:10Z</time>
      </trkpt>
      <trkpt lat="41.6377870" lon="2.1136730">
        <ele>403.1</ele>
        <time>2020-07-09T12:04:11Z</time>
      </trkpt>
      <trkpt lat="41.6377900" lon="2.1136590">
        <ele>403.2</ele>
        <time>2020-07-09T12:04:12Z</time>
      </trkpt>
      <trkpt lat="41.6377920" lon="2.1136440">
        <ele>403.3</ele>
        <time>2020-07-09T12:04:13Z</time>
      </trkpt>
      <trkpt lat="41.6377950" lon="2.1136300">
        <ele>403.5</ele>
        <time>2020-07-09T12:04:14Z</time>
      </trkpt>
      <trkpt lat="41.6377980" lon="2.1136160">
        <ele>403.6</ele>
        <time>2020-07-09T12:04:15Z</time>
      </trkpt>
      <trkpt lat="41.6378000" lon="2.1136020">
        <ele>403.7</ele>
        <time>2020-07-09T12:04:16Z</time>
      </trkpt>
      <trkpt lat="41.6378040" lon="2.1135870">
        <ele>403.8</ele>
        <time>2020-07-09T12:04:17Z</time>
      </trkpt>
      <trkpt lat="41.6378070" lon="2.1135730">
        <ele>403.9</ele>
        <time>2020-07-09T12:04:18Z</time>
      </trkpt>
      <trkpt lat="41.6378100" lon="2.1135590">
        <ele>404.1</ele>
        <time>2020-07-09T12:04:19Z</time>
      </trkpt>
      <trkpt lat="41.6378140" lon="2.1135450">
        <ele>404.2</ele>
        <time>2020-07-09T12:04:20Z</time>
      </trkpt>
      <trkpt lat="41.6378180" lon="2.1135310">
        <ele>404.3</ele>
        <time>2020-07-09T12:04:21Z</time>
      </trkpt>
      <trkpt lat="41.6378230" lon="2.1135170">
        <ele>404.4</ele>
        <time>2020-07-09T12:04:22Z</time>
      </trkpt>
      <trkpt lat="41.6378280" lon="2.1135030">
        <ele>404.5</ele>
        <time>2020-07-09T12:04:23Z</time>
      </trkpt>
      <trkpt lat="41.6378330" lon="2.1134890">
        <ele>404.7</ele>
        <time>2020-07-09T12:04:24Z</time>
      </trkpt>
      <trkpt lat="41.6378390" lon="2.1134760">
        <ele>404.8</ele>
        <time>2020-07-09T12:04:25Z</time>
      </trkpt>
      <trkpt lat="41.6378450" lon="2.1134620">
        <ele>404.9</ele>
        <time>2020-07-09T12:04:26Z</time>
      </trkpt>
      <trkpt lat="41.6378520" lon="2.1134490">
        <ele>405.0</ele>
        <time>2020-07-09T12:04:27Z</time>
      </trkpt>
      <trkpt lat="41.6378590" lon="2.1134360">
        <ele>405.2</ele>
        <time>2020-07-09T12:04:28Z</time>
      </trkpt>
      <trkpt lat="41.6378660" lon="2.1134220">
        <ele>405.3</ele>
        <time>2020-07-09T12:04:29Z</time>
      </trkpt>
      <trkpt lat="41.6378740" lon="2.1134090">
        <ele>405.4</ele>
        <time>2020-07-09T12:04:30Z</time>
      </trkpt>
      <trkpt lat="41.6378820" lon="2.1133970">
        <ele>405.5</ele>
        <time>2020-07-09T12:04:31Z</time>
      </trkpt>
      <trkpt lat="41.6378900" lon="2.1133840">
        <ele>405.7</ele>
        <time>2020-07-09T12:04:32Z</time>
      </trkpt>
      <trkpt lat="41.6378990" lon="2.1133710">
        <ele>405.8</ele>
        <time>2020-07-09T12:04:33Z</time>
      </trkpt>
      <trkpt lat="41.6379080" lon="2.1133590">
        <ele>405.9</ele>
        <time>2020-07-09T12:04:34Z</time>
      </trkpt>
      <trkpt lat="41.6379170" lon="2.1133470">
        <ele>406.1</ele>
        <time>2020-07-09T12:04:35Z</time>
      </trkpt>
      <trkpt lat="41.6379260" lon="2.1133350">
        <ele>406.2</ele>
        <time>2020-07-09T12:04:36Z</time>
      </trkpt>
      <trkpt lat="41.6379350" lon="2.1133230">
        <ele>406.3</ele>
        <time>2020-07-09T12:04:37Z</time>
      </trkpt>
      <trkpt lat="41.6379450" lon="2.1133110">
        <ele>406.4</ele>
        <time>2020-07-09T12:04:38Z</time>
      </trkpt>
      <trkpt lat="41.6379540" lon="2.1133000">
        <ele>406.5</ele>
        <time>2020-07-09T12:04:39Z</time>
      </trkpt>
      <trkpt lat="41.6379640" lon="2.1132880">
        <ele>406.6</ele>
        <time>2020-07-09T12:04:40Z</time>
      </trkpt>
      <trkpt lat="41.6379740" lon="2.1132770">
        <ele>406.8</ele>
        <time>2020-07-09T12:04:41Z</time>
      </trkpt>
      <trkpt lat="41.6379840" lon="2.1132660">
        <ele>406.9</ele>
        <time>2020-07-09T12:04:42Z</time>
      </trkpt>
      <trkpt lat="41.6379940" lon="2.1132550">
        <ele>407.0</ele>
        <time>2020-07-09T12:04:43Z</time>
      </trkpt>
      <trkpt lat="41.6380040" lon="2.1132440">
        <ele>407.1</ele>
        <time>2020-07-09T12:04:44Z</time>
      </trkpt>
      <trkpt lat="41.6380140" lon="2.1132340">
        <ele>407.2</ele>
        <time>2020-07-09T12:04:45Z</time>
      </trkpt>
      <trkpt lat="41.6380240" lon="2.1132230">
        <ele>407.3</ele>
        <time>2020-07-09T12:04:46Z</time>
      </trkpt>
      <trkpt lat="41.6380340" lon="2.1132130">
        <ele>407.4</ele>
        <time>2020-07-09T12:04:47Z</time>
      </trkpt>
      <trkpt lat="41.6380440" lon="2.1132020">
        <ele>407.5</ele>
        <time>2020-07-09T12:04:48Z</time>
      </trkpt>
      <trkpt lat="41.6380550" lon="2.1131920">
        <ele>407.6</ele>
        <time>2020-07-09T12:04:49Z</time>
      </trkpt>
      <trkpt lat="41.6380650" lon="2.1131820">
        <ele>407.7</ele>
        <time>2020-07-09T12:04:50Z</time>
      </trkpt>
      <trkpt lat="41.6380760" lon="2.1131720">
        <ele>407.8</ele>
        <time>2020-07-09T12:04:51Z</time>
      </trkpt>
      <trkpt lat="41.6380870" lon="2.1131620">
        <ele>407.9</ele>
        <time>2020-07-09T12:04:52Z</time>
      </trkpt>
      <trkpt lat="41.6380980" lon="2.1131520">
        <ele>408.0</ele>
        <time>2020-07-09T12:04:53Z</time>
      </trkpt>
      <trkpt lat="41.6381090" lon="2.1131430">
        <ele>408.1</ele>
        <time>2020-07-09T12:04:54Z</time>
      </trkpt>
      <trkpt lat="41.6381200" lon="2.1131350">
        <ele>408.1</ele>
        <time>2020-07-09T12:04:55Z</time>
      </trkpt>
      <trkpt lat="41.6381320" lon="2.1131270">
        <ele>408.2</ele>
        <time>2020-07-09T12:04:56Z</time>
      </trkpt>
      <trkpt lat="41.6381440" lon="2.1131190">
        <ele>408.3</ele>
        <time>2020-07-09T12:04:57Z</time>
      </trkpt>
      <trkpt lat="41.6381570" lon="2.1131130">
        <ele>408.4</ele>
        <time>2020-07-09T12:04:58Z</time>
      </trkpt>
      <trkpt lat="41.6381700" lon="2.1131070">
        <ele>408.5</ele>
        <time>2020-07-09T12:04:59Z</time>
      </trkpt>
      <trkpt lat="41.6381830" lon="2.1131020">
        <ele>408.5</ele>
        <time>2020-07-09T12:05:00Z</time>
      </trkpt>
      <trkpt lat="41.6381970" lon="2.1130980">
        <ele>408.6</ele>
        <time>2020-07-09T12:05:01Z</time>
      </trkpt>
      <trkpt lat="41.6382110" lon="2.1130940">
        <ele>408.7</ele>
        <time>2020-07-09T12:05:02Z</time>
      </trkpt>
      <trkpt lat="41.6382250" lon="2.1130910">
        <ele>408.8</ele>
        <time>2020-07-09T12:05:03Z</time>
      </trkpt>
      <trkpt lat="41.6382390" lon="2.1130890">
        <ele>408.8</ele>
        <time>2020-07-09T12:05:04Z</time>
      </trkpt>
      <trkpt lat="41.6382540" lon="2.1130870">
        <ele>408.9</ele>
        <time>2020-07-09T12:05:05Z</time>
      </trkpt>
      <trkpt lat="41.6382690" lon="2.1130850">
        <ele>409.0</ele>
        <time>2020-07-09T12:05:06Z</time>
      </trkpt>
      <trkpt lat="41.6382840" lon="2.1130840">
        <ele>409.1</ele>
        <time>2020-07-09T12:05:07Z</time>
      </trkpt>
      <trkpt lat="41.6382990" lon="2.1130830">
        <ele>409.1</ele>
        <time>2020-07-09T12:05:08Z</time>
      </trkpt>
      <trkpt lat="41.6383140" lon="2.1130820">
        <ele>409.2</ele>
        <time>2020-07-09T12:05:09Z</time>
      </trkpt>
      <trkpt lat="41.6383290" lon="2.1130810">
        <ele>409.3</ele>
        <time>2020-07-09T12:05:10Z</time>
      </trkpt>
      <trkpt lat="41.6383440" lon="2.1130800">
        <ele>409.4</ele>
        <time>2020-07-09T12:05:11Z</time>
      </trkpt>
      <trkpt lat="41.6383590" lon="2.1130790">
        <ele>409.5</ele>
        <time>2020-07-09T12:05:12Z</time>
      </trkpt>
      <trkpt lat="41.6383740" lon="2.1130780">
        <ele>409.5</ele>
        <time>2020-07-09T12:05:13Z</time>
      </trkpt>
      <trkpt lat="41.6384020" lon="2.1130750">
        <ele>409.7</ele>
        <time>2020-07-09T12:05:14Z</time>
      </trkpt>
      <trkpt lat="41.6384160" lon="2.1130740">
        <ele>409.7</ele>
        <time>2020-07-09T12:05:15Z</time>
      </trkpt>
      <trkpt lat="41.6384290" lon="2.1130740">
        <ele>409.8</ele>
        <time>2020-07-09T12:05:16Z</time>
      </trkpt>
      <trkpt lat="41.6384430" lon="2.1130730">
        <ele>409.8</ele>
        <time>2020-07-09T12:05:17Z</time>
      </trkpt>
      <trkpt lat="41.6384560" lon="2.1130720">
        <ele>409.9</ele>
        <time>2020-07-09T12:05:18Z</time>
      </trkpt>
      <trkpt lat="41.6384690" lon="2.1130710">
        <ele>409.9</ele>
        <time>2020-07-09T12:05:19Z</time>
      </trkpt>
      <trkpt lat="41.6384830" lon="2.1130700">
        <ele>410.0</ele>
        <time>2020-07-09T12:05:20Z</time>
      </trkpt>
      <trkpt lat="41.6384960" lon="2.1130700">
        <ele>410.0</ele>
        <time>2020-07-09T12:05:21Z</time>
      </trkpt>
      <trkpt lat="41.6385100" lon="2.1130690">
        <ele>410.1</ele>
        <time>2020-07-09T12:05:22Z</time>
      </trkpt>
      <trkpt lat="41.6385230" lon="2.1130680">
        <ele>410.1</ele>
        <time>2020-07-09T12:05:23Z</time>
      </trkpt>
      <trkpt lat="41.6385360" lon="2.1130670">
        <ele>410.2</ele>
        <time>2020-07-09T12:05:24Z</time>
      </trkpt>
      <trkpt lat="41.6385500" lon="2.1130660">
        <ele>410.2</ele>
        <time>2020-07-09T12:05:25Z</time>
      </trkpt>
      <trkpt lat="41.6385630" lon="2.1130660">
        <ele>410.2</ele>
        <time>2020-07-09T12:05:26Z</time>
      </trkpt>
      <trkpt lat="41.6385770" lon="2.1130650">
        <ele>410.2</ele>
        <time>2020-07-09T12:05:27Z</time>
      </trkpt>
      <trkpt lat="41.6385900" lon="2.1130640">
        <ele>410.3</ele>
        <time>2020-07-09T12:05:28Z</time>
      </trkpt>
      <trkpt lat="41.6386050" lon="2.1130670">
        <ele>410.3</ele>
        <time>2020-07-09T12:05:29Z</time>
      </trkpt>
      <trkpt lat="41.6386200" lon="2.1130690">
        <ele>410.3</ele>
        <time>2020-07-09T12:05:30Z</time>
      </trkpt>
      <trkpt lat="41.6386350" lon="2.1130720">
        <ele>410.3</ele>
        <time>2020-07-09T12:05:31Z</time>
      </trkpt>
      <trkpt lat="41.6386500" lon="2.1130730">
        <ele>410.3</ele>
        <time>2020-07-09T12:05:32Z</time>
      </trkpt>
      <trkpt lat="41.6386640" lon="2.1130740">
        <ele>410.3</ele>
        <time>2020-07-09T12:05:33Z</time>
      </trkpt>
      <trkpt lat="41.6386790" lon="2.1130730">
        <ele>410.3</ele>
        <time>2020-07-09T12:05:34Z</time>
      </trkpt>
      <trkpt lat="41.6386920" lon="2.1130710">
        <ele>410.3</ele>
        <time>2020-07-09T12:05:35Z</time>
      </trkpt>
      <trkpt lat="41.6387060" lon="2.1130670">
        <ele>410.2</ele>
        <time>2020-07-09T12:05:36Z</time>
      </trkpt>
      <trkpt lat="41.6387190" lon="2.1130630">
        <ele>410.2</ele>
        <time>2020-07-09T12:05:37Z</time>
      </trkpt>
      <trkpt lat="41.6387320" lon="2.1130580">
        <ele>410.2</ele>
        <time>2020-07-09T12:05:38Z</time>
      </trkpt>
      <trkpt lat="41.6387440" lon="2.1130530">
        <ele>410.2</ele>
        <time>2020-07-09T12:05:39Z</time>
      </trkpt>
      <trkpt lat="41.6387570" lon="2.1130480">
        <ele>410.1</ele>
        <time>2020-07-09T12:05:40Z</time>
      </trkpt>
      <trkpt lat="41.6387700" lon="2.1130440">
        <ele>410.1</ele>
        <time>2020-07-09T12:05:41Z</time>
      </trkpt>
      <trkpt lat="41.6387820" lon="2.1130410">
        <ele>410.1</ele>
        <time>2020-07-09T12:05:42Z</time>
      </trkpt>
      <trkpt lat="41.6387950" lon="2.1130390">
        <ele>410.0</ele>
        <time>2020-07-09T12:05:43Z</time>
      </trkpt>
      <trkpt lat="41.6388070" lon="2.1130390">
        <ele>410.0</ele>
        <time>2020-07-09T12:05:44Z</time>
      </trkpt>
      <trkpt lat="41.6388200" lon="2.1130400">
        <ele>409.9</ele>
        <time>2020-07-09T12:05:45Z</time>
      </trkpt>
      <trkpt lat="41.6388330" lon="2.1130420">
        <ele>409.9</ele>
        <time>2020-07-09T12:05:46Z</time>
      </trkpt>
      <trkpt lat="41.6388460" lon="2.1130440">
        <ele>409.9</ele>
        <time>2020-07-09T12:05:47Z</time>
      </trkpt>
      <trkpt lat="41.6388590" lon="2.1130460">
        <ele>409.8</ele>
        <time>2020-07-09T12:05:48Z</time>
      </trkpt>
      <trkpt lat="41.6388720" lon="2.1130470">
        <ele>409.8</ele>
        <time>2020-07-09T12:05:49Z</time>
      </trkpt>
      <trkpt lat="41.6388860" lon="2.1130470">
        <ele>409.7</ele>
        <time>2020-07-09T12:05:50Z</time>
      </trkpt>
      <trkpt lat="41.6388990" lon="2.1130450">
        <ele>409.7</ele>
        <time>2020-07-09T12:05:51Z</time>
      </trkpt>
      <trkpt lat="41.6389120" lon="2.1130420">
        <ele>409.6</ele>
        <time>2020-07-09T12:05:52Z</time>
      </trkpt>
      <trkpt lat="41.6389250" lon="2.1130360">
        <ele>409.6</ele>
        <time>2020-07-09T12:05:53Z</time>
      </trkpt>
      <trkpt lat="41.6389380" lon="2.1130290">
        <ele>409.5</ele>
        <time>2020-07-09T12:05:54Z</time>
      </trkpt>
      <trkpt lat="41.6389520" lon="2.1130210">
        <ele>409.5</ele>
        <time>2020-07-09T12:05:55Z</time>
      </trkpt>
      <trkpt lat="41.6389650" lon="2.1130130">
        <ele>409.4</ele>
        <time>2020-07-09T12:05:56Z</time>
      </trkpt>
      <trkpt lat="41.6389780" lon="2.1130050">
        <ele>409.4</ele>
        <time>2020-07-09T12:05:57Z</time>
      </trkpt>
      <trkpt lat="41.6389910" lon="2.1129970">
        <ele>409.3</ele>
        <time>2020-07-09T12:05:58Z</time>
      </trkpt>
      <trkpt lat="41.6390040" lon="2.1129910">
        <ele>409.3</ele>
        <time>2020-07-09T12:05:59Z</time>
      </trkpt>
      <trkpt lat="41.6390170" lon="2.1129860">
        <ele>409.3</ele>
        <time>2020-07-09T12:06:00Z</time>
      </trkpt>
      <trkpt lat="41.6390300" lon="2.1129820">
        <ele>409.2</ele>
        <time>2020-07-09T12:06:01Z</time>
      </trkpt>
      <trkpt lat="41.6390430" lon="2.1129810">
        <ele>409.2</ele>
        <time>2020-07-09T12:06:02Z</time>
      </trkpt>
      <trkpt lat="41.6390550" lon="2.1129800">
        <ele>409.2</ele>
        <time>2020-07-09T12:06:03Z</time>
      </trkpt>
      <trkpt lat="41.6390680" lon="2.1129810">
        <ele>409.1</ele>
        <time>2020-07-09T12:06:04Z</time>
      </trkpt>
      <trkpt lat="41.6390810" lon="2.1129820">
        <ele>409.1</ele>
        <time>2020-07-09T12:06:05Z</time>
      </trkpt>
      <trkpt lat="41.6390940" lon="2.1129830">
        <ele>409.1</ele>
        <time>2020-07-09T12:06:06Z</time>
      </trkpt>
      <trkpt lat="41.6391070" lon="2.1129840">
        <ele>409.1</ele>
        <time>2020-07-09T12:06:07Z</time>
      </trkpt>
      <trkpt lat="41.6391200" lon="2.1129850">
        <ele>409.0</ele>
        <time>2020-07-09T12:06:08Z</time>
      </trkpt>
      <trkpt lat="41.6391330" lon="2.1129840">
        <ele>409.0</ele>
        <time>2020-07-09T12:06:09Z</time>
      </trkpt>
      <trkpt lat="41.6391470" lon="2.1129820">
        <ele>409.0</ele>
        <time>2020-07-09T12:06:10Z</time>
      </trkpt>
      <trkpt lat="41.6391720" lon="2.1129760">
        <ele>409.0</ele>
        <time>2020-07-09T12:06:11Z</time>
      </trkpt>
      <trkpt lat="41.6391850" lon="2.1129730">
        <ele>408.9</ele>
        <time>2020-07-09T12:06:12Z</time>
      </trkpt>
      <trkpt lat="41.6391970" lon="2.1129710">
        <ele>408.9</ele>
        <time>2020-07-09T12:06:13Z</time>
      </trkpt>
      <trkpt lat="41.6392090" lon="2.1129680">
        <ele>408.9</ele>
        <time>2020-07-09T12:06:14Z</time>
      </trkpt>
      <trkpt lat="41.6392220" lon="2.1129650">
        <ele>408.9</ele>
        <time>2020-07-09T12:06:15Z</time>
      </trkpt>
      <trkpt lat="41.6392340" lon="2.1129620">
        <ele>408.9</ele>
        <time>2020-07-09T12:06:16Z</time>
      </trkpt>
      <trkpt lat="41.6392460" lon="2.1129590">
        <ele>408.9</ele>
        <time>2020-07-09T12:06:17Z</time>
      </trkpt>
      <trkpt lat="41.6392590" lon="2.1129560">
        <ele>408.9</ele>
        <time>2020-07-09T12:06:18Z</time>
      </trkpt>
      <trkpt lat="41.6392710" lon="2.1129540">
        <ele>408.9</ele>
        <time>2020-07-09T12:06:19Z</time>
      </trkpt>
      <trkpt lat="41.6392830" lon="2.1129510">
        <ele>408.9</ele>
        <time>2020-07-09T12:06:20Z</time>
      </trkpt>
      <trkpt lat="41.6392960" lon="2.1129480">
        <ele>408.9</ele>
        <time>2020-07-09T12:06:21Z</time>
      </trkpt>
      <trkpt lat="41.6393080" lon="2.1129450">
        <ele>408.9</ele>
        <time>2020-07-09T12:06:22Z</time>
      </trkpt>
      <trkpt lat="41.6393200" lon="2.1129420">
        <ele>408.9</ele>
        <time>2020-07-09T12:06:23Z</time>
      </trkpt>
      <trkpt lat="41.6393330" lon="2.1129400">
        <ele>408.9</ele>
        <time>2020-07-09T12:06:24Z</time>
      </trkpt>
      <trkpt lat="41.6393450" lon="2.1129370">
        <ele>408.9</ele>
        <time>2020-07-09T12:06:25Z</time>
      </trkpt>
      <trkpt lat="41.6393570" lon="2.1129340">
        <ele>408.9</ele>
        <time>2020-07-09T12:06:26Z</time>
      </trkpt>
      <trkpt lat="41.6393700" lon="2.1129310">
        <ele>408.9</ele>
        <time>2020-07-09T12:06:27Z</time>
      </trkpt>
      <trkpt lat="41.6393820" lon="2.1129280">
        <ele>408.9</ele>
        <time>2020-07-09T12:06:28Z</time>
      </trkpt>
      <trkpt lat="41.6393940" lon="2.1129260">
        <ele>408.9</ele>
        <time>2020-07-09T12:06:29Z</time>
      </trkpt>
      <trkpt lat="41.6394070" lon="2.1129230">
        <ele>408.9</ele>
        <time>2020-07-09T12:06:30Z</time>
      </trkpt>
      <trkpt lat="41.6394190" lon="2.1129200">
        <ele>408.9</ele>
        <time>2020-07-09T12:06:31Z</time>
      </trkpt>
      <trkpt lat="41.6394310" lon="2.1129170">
        <ele>408.9</ele>
        <time>2020-07-09T12:06:32Z</time>
      </trkpt>
      <trkpt lat="41.6394440" lon="2.1129140">
        <ele>408.9</ele>
        <time>2020-07-09T12:06:33Z</time>
      </trkpt>
      <trkpt lat="41.6394560" lon="2.1129110">
        <ele>408.9</ele>
        <time>2020-07-09T12:06:34Z</time>
      </trkpt>
      <trkpt lat="41.6394680" lon="2.1129090">
        <ele>409.0</ele>
        <time>2020-07-09T12:06:35Z</time>
      </trkpt>
      <trkpt lat="41.6394810" lon="2.1129060">
        <ele>409.0</ele>
        <time>2020-07-09T12:06:36Z</time>
      </trkpt>
      <trkpt lat="41.6394930" lon="2.1129030">
        <ele>409.0</ele>
        <time>2020-07-09T12:06:37Z</time>
      </trkpt>
      <trkpt lat="41.6395080" lon="2.1129060">
        <ele>409.0</ele>
        <time>2020-07-09T12:06:38Z</time>
      </trkpt>
      <trkpt lat="41.6395230" lon="2.1129110">
        <ele>409.0</ele>
        <time>2020-07-09T12:06:39Z</time>
      </trkpt>
      <trkpt lat="41.6395380" lon="2.1129140">
        <ele>409.0</ele>
        <time>2020-07-09T12:06:40Z</time>
      </trkpt>
      <trkpt lat="41.6395520" lon="2.1129170">
        <ele>408.9</ele>
        <time>2020-07-09T12:06:41Z</time>
      </trkpt>
      <trkpt lat="41.6395660" lon="2.1129180">
        <ele>408.9</ele>
        <time>2020-07-09T12:06:42Z</time>
      </trkpt>
      <trkpt lat="41.6395780" lon="2.1129180">
        <ele>408.9</ele>
        <time>2020-07-09T12:06:43Z</time>
      </trkpt>
      <trkpt lat="41.6395910" lon="2.1129170">
        <ele>408.9</ele>
        <time>2020-07-09T12:06:44Z</time>
      </trkpt>
      <trkpt lat="41.6396040" lon="2.1129160">
        <ele>408.9</ele>
        <time>2020-07-09T12:06:45Z</time>
      </trkpt>
      <trkpt lat="41.6396160" lon="2.1129140">
        <ele>408.9</ele>
        <time>2020-07-09T12:06:46Z</time>
      </trkpt>
      <trkpt lat="41.6396290" lon="2.1129120">
        <ele>408.9</ele>
        <time>2020-07-09T12:06:47Z</time>
      </trkpt>
      <trkpt lat="41.6396420" lon="2.1129110">
        <ele>408.9</ele>
        <time>2020-07-09T12:06:48Z</time>
      </trkpt>
      <trkpt lat="41.6396550" lon="2.1129090">
        <ele>408.9</ele>
        <time>2020-07-09T12:06:49Z</time>
      </trkpt>
      <trkpt lat="41.6396680" lon="2.1129070">
        <ele>408.9</ele>
        <time>2020-07-09T12:06:50Z</time>
      </trkpt>
      <trkpt lat="41.6396810" lon="2.1129050">
        <ele>408.9</ele>
        <time>2020-07-09T12:06:51Z</time>
      </trkpt>
      <trkpt lat="41.6396930" lon="2.1129020">
        <ele>408.8</ele>
        <time>2020-07-09T12:06:52Z</time>
      </trkpt>
      <trkpt lat="41.6397060" lon="2.1129000">
        <ele>408.8</ele>
        <time>2020-07-09T12:06:53Z</time>
      </trkpt>
      <trkpt lat="41.6397190" lon="2.1128970">
        <ele>408.8</ele>
        <time>2020-07-09T12:06:54Z</time>
      </trkpt>
      <trkpt lat="41.6397310" lon="2.1128940">
        <ele>408.8</ele>
        <time>2020-07-09T12:06:55Z</time>
      </trkpt>
      <trkpt lat="41.6397440" lon="2.1128910">
        <ele>408.8</ele>
        <time>2020-07-09T12:06:56Z</time>
      </trkpt>
      <trkpt lat="41.6397560" lon="2.1128870">
        <ele>408.8</ele>
        <time>2020-07-09T12:06:57Z</time>
      </trkpt>
      <trkpt lat="41.6397670" lon="2.1128830">
        <ele>408.8</ele>
        <time>2020-07-09T12:06:58Z</time>
      </trkpt>
      <trkpt lat="41.6397790" lon="2.1128790">
        <ele>408.7</ele>
        <time>2020-07-09T12:06:59Z</time>
      </trkpt>
      <trkpt lat="41.6397900" lon="2.1128740">
        <ele>408.7</ele>
        <time>2020-07-09T12:07:00Z</time>
      </trkpt>
      <trkpt lat="41.6398010" lon="2.1128690">
        <ele>408.7</ele>
        <time>2020-07-09T12:07:01Z</time>
      </trkpt>
      <trkpt lat="41.6398120" lon="2.1128630">
        <ele>408.7</ele>
        <time>2020-07-09T12:07:02Z</time>
      </trkpt>
      <trkpt lat="41.6398220" lon="2.1128580">
        <ele>408.7</ele>
        <time>2020-07-09T12:07:03Z</time>
      </trkpt>
      <trkpt lat="41.6398320" lon="2.1128510">
        <ele>408.7</ele>
        <time>2020-07-09T12:07:04Z</time>
      </trkpt>
      <trkpt lat="41.6398410" lon="2.1128450">
        <ele>408.7</ele>
        <time>2020-07-09T12:07:05Z</time>
      </trkpt>
      <trkpt lat="41.6398520" lon="2.1128380">
        <ele>408.7</ele>
        <time>2020-07-09T12:07:06Z</time>
      </trkpt>
      <trkpt lat="41.6398620" lon="2.1128320">
        <ele>408.7</ele>
        <time>2020-07-09T12:07:07Z</time>
      </trkpt>
      <trkpt lat="41.6398730" lon="2.1128250">
        <ele>408.6</ele>
        <time>2020-07-09T12:07:08Z</time>
      </trkpt>
      <trkpt lat="41.6398850" lon="2.1128190">
        <ele>408.6</ele>
        <time>2020-07-09T12:07:09Z</time>
      </trkpt>
      <trkpt lat="41.6398980" lon="2.1128140">
        <ele>408.6</ele>
        <time>2020-07-09T12:07:10Z</time>
      </trkpt>
      <trkpt lat="41.6399120" lon="2.1128080">
        <ele>408.6</ele>
        <time>2020-07-09T12:07:11Z</time>
      </trkpt>
      <trkpt lat="41.6399270" lon="2.1128040">
        <ele>408.6</ele>
        <time>2020-07-09T12:07:12Z</time>
      </trkpt>
      <trkpt lat="41.6399430" lon="2.1128000">
        <ele>408.6</ele>
        <time>2020-07-09T12:07:13Z</time>
      </trkpt>
      <trkpt lat="41.6399590" lon="2.1127960">
        <ele>408.6</ele>
        <time>2020-07-09T12:07:14Z</time>
      </trkpt>
      <trkpt lat="41.6399730" lon="2.1127920">
        <ele>408.6</ele>
        <time>2020-07-09T12:07:15Z</time>
      </trkpt>
      <trkpt lat="41.6399860" lon="2.1127890">
        <ele>408.6</ele>
        <time>2020-07-09T12:07:16Z</time>
      </trkpt>
      <trkpt lat="41.6399970" lon="2.1127850">
        <ele>408.6</ele>
        <time>2020-07-09T12:07:17Z</time>
      </trkpt>
      <trkpt lat="41.6400060" lon="2.1127820">
        <ele>408.6</ele>
        <time>2020-07-09T12:07:18Z</time>
      </trkpt>
      <trkpt lat="41.6400140" lon="2.1127780">
        <ele>408.5</ele>
        <time>2020-07-09T12:07:19Z</time>
      </trkpt>
      <trkpt lat="41.6400230" lon="2.1127750">
        <ele>408.5</ele>
        <time>2020-07-09T12:07:20Z</time>
      </trkpt>
      <trkpt lat="41.6400320" lon="2.1127710">
        <ele>408.5</ele>
        <time>2020-07-09T12:07:21Z</time>
      </trkpt>
      <trkpt lat="41.6400420" lon="2.1127670">
        <ele>408.5</ele>
        <time>2020-07-09T12:07:22Z</time>
      </trkpt>
      <trkpt lat="41.6400530" lon="2.1127630">
        <ele>408.5</ele>
        <time>2020-07-09T12:07:23Z</time>
      </trkpt>
      <trkpt lat="41.6400650" lon="2.1127600">
        <ele>408.5</ele>
        <time>2020-07-09T12:07:24Z</time>
      </trkpt>
      <trkpt lat="41.6400770" lon="2.1127560">
        <ele>408.5</ele>
        <time>2020-07-09T12:07:25Z</time>
      </trkpt>
      <trkpt lat="41.6400900" lon="2.1127530">
        <ele>408.5</ele>
        <time>2020-07-09T12:07:26Z</time>
      </trkpt>
      <trkpt lat="41.6401040" lon="2.1127500">
        <ele>408.5</ele>
        <time>2020-07-09T12:07:27Z</time>
      </trkpt>
      <trkpt lat="41.6401180" lon="2.1127480">
        <ele>408.5</ele>
        <time>2020-07-09T12:07:28Z</time>
      </trkpt>
      <trkpt lat="41.6401320" lon="2.1127460">
        <ele>408.5</ele>
        <time>2020-07-09T12:07:29Z</time>
      </trkpt>
      <trkpt lat="41.6401470" lon="2.1127440">
        <ele>408.5</ele>
        <time>2020-07-09T12:07:30Z</time>
      </trkpt>
      <trkpt lat="41.6401620" lon="2.1127430">
        <ele>408.5</ele>
        <time>2020-07-09T12:07:31Z</time>
      </trkpt>
      <trkpt lat="41.6401770" lon="2.1127430">
        <ele>408.5</ele>
        <time>2020-07-09T12:07:32Z</time>
      </trkpt>
      <trkpt lat="41.6401920" lon="2.1127430">
        <ele>408.5</ele>
        <time>2020-07-09T12:07:33Z</time>
      </trkpt>
      <trkpt lat="41.6402080" lon="2.1127440">
        <ele>408.5</ele>
        <time>2020-07-09T12:07:34Z</time>
      </trkpt>
      <trkpt lat="41.6402230" lon="2.1127460">
        <ele>408.5</ele>
        <time>2020-07-09T12:07:35Z</time>
      </trkpt>
      <trkpt lat="41.6402380" lon="2.1127490">
        <ele>408.5</ele>
        <time>2020-07-09T12:07:36Z</time>
      </trkpt>
      <trkpt lat="41.6402530" lon="2.1127530">
        <ele>408.5</ele>
        <time>2020-07-09T12:07:37Z</time>
      </trkpt>
      <trkpt lat="41.6402680" lon="2.1127580">
        <ele>408.5</ele>
        <time>2020-07-09T12:07:38Z</time>
      </trkpt>
      <trkpt lat="41.6402830" lon="2.1127640">
        <ele>408.5</ele>
        <time>2020-07-09T12:07:39Z</time>
      </trkpt>
      <trkpt lat="41.6402970" lon="2.1127710">
        <ele>408.5</ele>
        <time>2020-07-09T12:07:40Z</time>
      </trkpt>
      <trkpt lat="41.6403110" lon="2.1127790">
        <ele>408.5</ele>
        <time>2020-07-09T12:07:41Z</time>
      </trkpt>
      <trkpt lat="41.6403240" lon="2.1127880">
        <ele>408.5</ele>
        <time>2020-07-09T12:07:42Z</time>
      </trkpt>
      <trkpt lat="41.6403370" lon="2.1127980">
        <ele>408.5</ele>
        <time>2020-07-09T12:07:43Z</time>
      </trkpt>
      <trkpt lat="41.6403490" lon="2.1128090">
        <ele>408.6</ele>
        <time>2020-07-09T12:07:44Z</time>
      </trkpt>
      <trkpt lat="41.6403610" lon="2.1128200">
        <ele>408.6</ele>
        <time>2020-07-09T12:07:45Z</time>
      </trkpt>
      <trkpt lat="41.6403730" lon="2.1128320">
        <ele>408.6</ele>
        <time>2020-07-09T12:07:46Z</time>
      </trkpt>
      <trkpt lat="41.6403830" lon="2.1128450">
        <ele>408.6</ele>
        <time>2020-07-09T12:07:47Z</time>
      </trkpt>
      <trkpt lat="41.6403930" lon="2.1128590">
        <ele>408.7</ele>
        <time>2020-07-09T12:07:48Z</time>
      </trkpt>
      <trkpt lat="41.6404030" lon="2.1128730">
        <ele>408.7</ele>
        <time>2020-07-09T12:07:49Z</time>
      </trkpt>
      <trkpt lat="41.6404110" lon="2.1128880">
        <ele>408.7</ele>
        <time>2020-07-09T12:07:50Z</time>
      </trkpt>
      <trkpt lat="41.6404190" lon="2.1129030">
        <ele>408.8</ele>
        <time>2020-07-09T12:07:51Z</time>
      </trkpt>
      <trkpt lat="41.6404260" lon="2.1129190">
        <ele>408.8</ele>
        <time>2020-07-09T12:07:52Z</time>
      </trkpt>
      <trkpt lat="41.6404330" lon="2.1129350">
        <ele>408.8</ele>
        <time>2020-07-09T12:07:53Z</time>
      </trkpt>
      <trkpt lat="41.6404380" lon="2.1129520">
        <ele>408.9</ele>
        <time>2020-07-09T12:07:54Z</time>
      </trkpt>
      <trkpt lat="41.6404420" lon="2.1129690">
        <ele>408.9</ele>
        <time>2020-07-09T12:07:55Z</time>
      </trkpt>
      <trkpt lat="41.6404460" lon="2.1129860">
        <ele>409.0</ele>
        <time>2020-07-09T12:07:56Z</time>
      </trkpt>
      <trkpt lat="41.6404490" lon="2.1130030">
        <ele>409.0</ele>
        <time>2020-07-09T12:07:57Z</time>
      </trkpt>
      <trkpt lat="41.6404500" lon="2.1130210">
        <ele>409.1</ele>
        <time>2020-07-09T12:07:58Z</time>
      </trkpt>
      <trkpt lat="41.6404510" lon="2.1130390">
        <ele>409.1</ele>
        <time>2020-07-09T12:07:59Z</time>
      </trkpt>
      <trkpt lat="41.6404510" lon="2.1130560">
        <ele>409.2</ele>
        <time>2020-07-09T12:08:00Z</time>
      </trkpt>
      <trkpt lat="41.6404510" lon="2.1130740">
        <ele>409.3</ele>
        <time>2020-07-09T12:08:01Z</time>
      </trkpt>
      <trkpt lat="41.6404490" lon="2.1130920">
        <ele>409.3</ele>
        <time>2020-07-09T12:08:02Z</time>
      </trkpt>
      <trkpt lat="41.6404480" lon="2.1131100">
        <ele>409.4</ele>
        <time>2020-07-09T12:08:03Z</time>
      </trkpt>
      <trkpt lat="41.6404450" lon="2.1131280">
        <ele>409.5</ele>
        <time>2020-07-09T12:08:04Z</time>
      </trkpt>
      <trkpt lat="41.6404430" lon="2.1131460">
        <ele>409.5</ele>
        <time>2020-07-09T12:08:05Z</time>
      </trkpt>
      <trkpt lat="41.6404400" lon="2.1131640">
        <ele>409.6</ele>
        <time>2020-07-09T12:08:06Z</time>
      </trkpt>
      <trkpt lat="41.6404370" lon="2.1131810">
        <ele>409.7</ele>
        <time>2020-07-09T12:08:07Z</time>
      </trkpt>
      <trkpt lat="41.6404330" lon="2.1131990">
        <ele>409.7</ele>
        <time>2020-07-09T12:08:08Z</time>
      </trkpt>
      <trkpt lat="41.6404300" lon="2.1132160">
        <ele>409.8</ele>
        <time>2020-07-09T12:08:09Z</time>
      </trkpt>
      <trkpt lat="41.6404260" lon="2.1132330">
        <ele>409.9</ele>
        <time>2020-07-09T12:08:10Z</time>
      </trkpt>
      <trkpt lat="41.6404230" lon="2.1132500">
        <ele>410.0</ele>
        <time>2020-07-09T12:08:11Z</time>
      </trkpt>
      <trkpt lat="41.6404200" lon="2.1132670">
        <ele>410.0</ele>
        <time>2020-07-09T12:08:12Z</time>
      </trkpt>
      <trkpt lat="41.6404170" lon="2.1132830">
        <ele>410.1</ele>
        <time>2020-07-09T12:08:13Z</time>
      </trkpt>
      <trkpt lat="41.6404140" lon="2.1132990">
        <ele>410.2</ele>
        <time>2020-07-09T12:08:14Z</time>
      </trkpt>
      <trkpt lat="41.6404110" lon="2.1133140">
        <ele>410.3</ele>
        <time>2020-07-09T12:08:15Z</time>
      </trkpt>
      <trkpt lat="41.6404090" lon="2.1133300">
        <ele>410.3</ele>
        <time>2020-07-09T12:08:16Z</time>
      </trkpt>
      <trkpt lat="41.6404070" lon="2.1133450">
        <ele>410.4</ele>
        <time>2020-07-09T12:08:17Z</time>
      </trkpt>
      <trkpt lat="41.6404050" lon="2.1133600">
        <ele>410.5</ele>
        <time>2020-07-09T12:08:18Z</time>
      </trkpt>
      <trkpt lat="41.6404030" lon="2.1133740">
        <ele>410.5</ele>
        <time>2020-07-09T12:08:19Z</time>
      </trkpt>
      <trkpt lat="41.6404020" lon="2.1133890">
        <ele>410.6</ele>
        <time>2020-07-09T12:08:20Z</time>
      </trkpt>
      <trkpt lat="41.6404010" lon="2.1134030">
        <ele>410.7</ele>
        <time>2020-07-09T12:08:21Z</time>
      </trkpt>
      <trkpt lat="41.6404000" lon="2.1134180">
        <ele>410.7</ele>
        <time>2020-07-09T12:08:22Z</time>
      </trkpt>
      <trkpt lat="41.6403990" lon="2.1134320">
        <ele>410.8</ele>
        <time>2020-07-09T12:08:23Z</time>
      </trkpt>
      <trkpt lat="41.6403990" lon="2.1134470">
        <ele>410.9</ele>
        <time>2020-07-09T12:08:24Z</time>
      </trkpt>
      <trkpt lat="41.6403980" lon="2.1134610">
        <ele>410.9</ele>
        <time>2020-07-09T12:08:25Z</time>
      </trkpt>
      <trkpt lat="41.6403980" lon="2.1134760">
        <ele>411.0</ele>
        <time>2020-07-09T12:08:26Z</time>
      </trkpt>
      <trkpt lat="41.6403980" lon="2.1134900">
        <ele>411.0</ele>
        <time>2020-07-09T12:08:27Z</time>
      </trkpt>
      <trkpt lat="41.6403980" lon="2.1135050">
        <ele>411.1</ele>
        <time>2020-07-09T12:08:28Z</time>
      </trkpt>
      <trkpt lat="41.6403990" lon="2.1135200">
        <ele>411.1</ele>
        <time>2020-07-09T12:08:29Z</time>
      </trkpt>
      <trkpt lat="41.6403990" lon="2.1135350">
        <ele>411.2</ele>
        <time>2020-07-09T12:08:30Z</time>
      </trkpt>
      <trkpt lat="41.6404000" lon="2.1135510">
        <ele>411.2</ele>
        <time>2020-07-09T12:08:31Z</time>
      </trkpt>
      <trkpt lat="41.6404010" lon="2.1135670">
        <ele>411.3</ele>
        <time>2020-07-09T12:08:32Z</time>
      </trkpt>
      <trkpt lat="41.6404020" lon="2.1135830">
        <ele>411.3</ele>
        <time>2020-07-09T12:08:33Z</time>
      </trkpt>
      <trkpt lat="41.6404030" lon="2.1135990">
        <ele>411.4</ele>
        <time>2020-07-09T12:08:34Z</time>
      </trkpt>
      <trkpt lat="41.6404040" lon="2.1136150">
        <ele>411.4</ele>
        <time>2020-07-09T12:08:35Z</time>
      </trkpt>
      <trkpt lat="41.6404060" lon="2.1136320">
        <ele>411.5</ele>
        <time>2020-07-09T12:08:36Z</time>
      </trkpt>
      <trkpt lat="41.6404080" lon="2.1136480">
        <ele>411.5</ele>
        <time>2020-07-09T12:08:37Z</time>
      </trkpt>
      <trkpt lat="41.6404110" lon="2.1136640">
        <ele>411.7</ele>
        <time>2020-07-09T12:08:38Z</time>
      </trkpt>
      <trkpt lat="41.6404140" lon="2.1136810">
        <ele>411.7</ele>
        <time>2020-07-09T12:08:39Z</time>
      </trkpt>
      <trkpt lat="41.6404170" lon="2.1136970">
        <ele>411.8</ele>
        <time>2020-07-09T12:08:40Z</time>
      </trkpt>
      <trkpt lat="41.6404210" lon="2.1137120">
        <ele>411.8</ele>
        <time>2020-07-09T12:08:41Z</time>
      </trkpt>
      <trkpt lat="41.6404260" lon="2.1137280">
        <ele>411.9</ele>
        <time>2020-07-09T12:08:42Z</time>
      </trkpt>
      <trkpt lat="41.6404320" lon="2.1137430">
        <ele>412.0</ele>
        <time>2020-07-09T12:08:43Z</time>
      </trkpt>
      <trkpt lat="41.6404470" lon="2.1137670">
        <ele>412.1</ele>
        <time>2020-07-09T12:08:44Z</time>
      </trkpt>
      <trkpt lat="41.6404560" lon="2.1137780">
        <ele>412.1</ele>
        <time>2020-07-09T12:08:45Z</time>
      </trkpt>
      <trkpt lat="41.6404650" lon="2.1137880">
        <ele>412.2</ele>
        <time>2020-07-09T12:08:46Z</time>
      </trkpt>
      <trkpt lat="41.6404740" lon="2.1137990">
        <ele>412.2</ele>
        <time>2020-07-09T12:08:47Z</time>
      </trkpt>
      <trkpt lat="41.6404830" lon="2.1138090">
        <ele>412.3</ele>
        <time>2020-07-09T12:08:48Z</time>
      </trkpt>
      <trkpt lat="41.6404910" lon="2.1138200">
        <ele>412.3</ele>
        <time>2020-07-09T12:08:49Z</time>
      </trkpt>
      <trkpt lat="41.6405000" lon="2.1138300">
        <ele>412.4</ele>
        <time>2020-07-09T12:08:50Z</time>
      </trkpt>
      <trkpt lat="41.6405090" lon="2.1138410">
        <ele>412.5</ele>
        <time>2020-07-09T12:08:51Z</time>
      </trkpt>
      <trkpt lat="41.6405180" lon="2.1138510">
        <ele>412.5</ele>
        <time>2020-07-09T12:08:52Z</time>
      </trkpt>
      <trkpt lat="41.6405270" lon="2.1138620">
        <ele>412.6</ele>
        <time>2020-07-09T12:08:53Z</time>
      </trkpt>
      <trkpt lat="41.6405390" lon="2.1138710">
        <ele>412.6</ele>
        <time>2020-07-09T12:08:54Z</time>
      </trkpt>
      <trkpt lat="41.6405510" lon="2.1138800">
        <ele>412.7</ele>
        <time>2020-07-09T12:08:55Z</time>
      </trkpt>
      <trkpt lat="41.6405620" lon="2.1138890">
        <ele>412.7</ele>
        <time>2020-07-09T12:08:56Z</time>
      </trkpt>
      <trkpt lat="41.6405740" lon="2.1138980">
        <ele>412.8</ele>
        <time>2020-07-09T12:08:57Z</time>
      </trkpt>
      <trkpt lat="41.6405840" lon="2.1139080">
        <ele>412.9</ele>
        <time>2020-07-09T12:08:58Z</time>
      </trkpt>
      <trkpt lat="41.6405940" lon="2.1139170">
        <ele>412.9</ele>
        <time>2020-07-09T12:08:59Z</time>
      </trkpt>
      <trkpt lat="41.6406040" lon="2.1139260">
        <ele>413.0</ele>
        <time>2020-07-09T12:09:00Z</time>
      </trkpt>
      <trkpt lat="41.6406130" lon="2.1139350">
        <ele>413.0</ele>
        <time>2020-07-09T12:09:01Z</time>
      </trkpt>
      <trkpt lat="41.6406230" lon="2.1139440">
        <ele>413.1</ele>
        <time>2020-07-09T12:09:02Z</time>
      </trkpt>
      <trkpt lat="41.6406320" lon="2.1139530">
        <ele>413.1</ele>
        <time>2020-07-09T12:09:03Z</time>
      </trkpt>
      <trkpt lat="41.6406420" lon="2.1139610">
        <ele>413.2</ele>
        <time>2020-07-09T12:09:04Z</time>
      </trkpt>
      <trkpt lat="41.6406520" lon="2.1139690">
        <ele>413.2</ele>
        <time>2020-07-09T12:09:05Z</time>
      </trkpt>
      <trkpt lat="41.6406620" lon="2.1139760">
        <ele>413.3</ele>
        <time>2020-07-09T12:09:06Z</time>
      </trkpt>
      <trkpt lat="41.6406740" lon="2.1139830">
        <ele>413.3</ele>
        <time>2020-07-09T12:09:07Z</time>
      </trkpt>
      <trkpt lat="41.6406850" lon="2.1139860">
        <ele>413.4</ele>
        <time>2020-07-09T12:09:08Z</time>
      </trkpt>
      <trkpt lat="41.6406960" lon="2.1139850">
        <ele>413.4</ele>
        <time>2020-07-09T12:09:09Z</time>
      </trkpt>
      <trkpt lat="41.6407070" lon="2.1139790">
        <ele>413.5</ele>
        <time>2020-07-09T12:09:10Z</time>
      </trkpt>
      <trkpt lat="41.6407150" lon="2.1139710">
        <ele>413.5</ele>
        <time>2020-07-09T12:09:11Z</time>
      </trkpt>
      <trkpt lat="41.6407200" lon="2.1139660">
        <ele>413.6</ele>
        <time>2020-07-09T12:09:12Z</time>
      </trkpt>
      <trkpt lat="41.6407220" lon="2.1139630">
        <ele>413.6</ele>
        <time>2020-07-09T12:09:13Z</time>
      </trkpt>
      <trkpt lat="41.6407230" lon="2.1139620">
        <ele>413.6</ele>
        <time>2020-07-09T12:09:14Z</time>
      </trkpt>
      <trkpt lat="41.6407220" lon="2.1139620">
        <ele>413.6</ele>
        <time>2020-07-09T12:09:15Z</time>
      </trkpt>
      <trkpt lat="41.6407210" lon="2.1139620">
        <ele>413.6</ele>
        <time>2020-07-09T12:09:16Z</time>
      </trkpt>
      <trkpt lat="41.6407210" lon="2.1139620">
        <ele>413.6</ele>
        <time>2020-07-09T12:09:17Z</time>
      </trkpt>
      <trkpt lat="41.6407200" lon="2.1139620">
        <ele>413.6</ele>
        <time>2020-07-09T12:09:18Z</time>
      </trkpt>
      <trkpt lat="41.6407200" lon="2.1139620">
        <ele>413.6</ele>
        <time>2020-07-09T12:09:19Z</time>
      </trkpt>
      <trkpt lat="41.6407200" lon="2.1139620">
        <ele>413.6</ele>
        <time>2020-07-09T12:09:20Z</time>
      </trkpt>
      <trkpt lat="41.6407200" lon="2.1139620">
        <ele>413.6</ele>
        <time>2020-07-09T12:09:21Z</time>
      </trkpt>
      <trkpt lat="41.6407200" lon="2.1139630">
        <ele>413.6</ele>
        <time>2020-07-09T12:09:22Z</time>
      </trkpt>
      <trkpt lat="41.6407210" lon="2.1139630">
        <ele>413.6</ele>
        <time>2020-07-09T12:09:23Z</time>
      </trkpt>
      <trkpt lat="41.6407220" lon="2.1139650">
        <ele>413.6</ele>
        <time>2020-07-09T12:09:24Z</time>
      </trkpt>
      <trkpt lat="41.6407230" lon="2.1139670">
        <ele>413.6</ele>
        <time>2020-07-09T12:09:25Z</time>
      </trkpt>
      <trkpt lat="41.6407250" lon="2.1139690">
        <ele>413.6</ele>
        <time>2020-07-09T12:09:26Z</time>
      </trkpt>
      <trkpt lat="41.6407270" lon="2.1139720">
        <ele>413.6</ele>
        <time>2020-07-09T12:09:27Z</time>
      </trkpt>
      <trkpt lat="41.6407300" lon="2.1139750">
        <ele>413.6</ele>
        <time>2020-07-09T12:09:28Z</time>
      </trkpt>
      <trkpt lat="41.6407320" lon="2.1139780">
        <ele>413.7</ele>
        <time>2020-07-09T12:09:29Z</time>
      </trkpt>
      <trkpt lat="41.6407360" lon="2.1139820">
        <ele>413.7</ele>
        <time>2020-07-09T12:09:30Z</time>
      </trkpt>
      <trkpt lat="41.6407390" lon="2.1139860">
        <ele>413.7</ele>
        <time>2020-07-09T12:09:31Z</time>
      </trkpt>
      <trkpt lat="41.6407440" lon="2.1139900">
        <ele>413.7</ele>
        <time>2020-07-09T12:09:32Z</time>
      </trkpt>
      <trkpt lat="41.6407480" lon="2.1139950">
        <ele>413.8</ele>
        <time>2020-07-09T12:09:33Z</time>
      </trkpt>
      <trkpt lat="41.6407530" lon="2.1140000">
        <ele>413.8</ele>
        <time>2020-07-09T12:09:34Z</time>
      </trkpt>
      <trkpt lat="41.6407590" lon="2.1140050">
        <ele>413.8</ele>
        <time>2020-07-09T12:09:35Z</time>
      </trkpt>
      <trkpt lat="41.6407650" lon="2.1140100">
        <ele>413.8</ele>
        <time>2020-07-09T12:09:36Z</time>
      </trkpt>
      <trkpt lat="41.6407710" lon="2.1140160">
        <ele>413.9</ele>
        <time>2020-07-09T12:09:37Z</time>
      </trkpt>
      <trkpt lat="41.6407780" lon="2.1140210">
        <ele>413.9</ele>
        <time>2020-07-09T12:09:38Z</time>
      </trkpt>
      <trkpt lat="41.6407860" lon="2.1140270">
        <ele>413.9</ele>
        <time>2020-07-09T12:09:39Z</time>
      </trkpt>
      <trkpt lat="41.6407940" lon="2.1140330">
        <ele>414.0</ele>
        <time>2020-07-09T12:09:40Z</time>
      </trkpt>
      <trkpt lat="41.6408030" lon="2.1140390">
        <ele>414.0</ele>
        <time>2020-07-09T12:09:41Z</time>
      </trkpt>
      <trkpt lat="41.6408120" lon="2.1140450">
        <ele>414.1</ele>
        <time>2020-07-09T12:09:42Z</time>
      </trkpt>
      <trkpt lat="41.6408210" lon="2.1140510">
        <ele>414.1</ele>
        <time>2020-07-09T12:09:43Z</time>
      </trkpt>
      <trkpt lat="41.6408320" lon="2.1140570">
        <ele>414.2</ele>
        <time>2020-07-09T12:09:44Z</time>
      </trkpt>
      <trkpt lat="41.6408420" lon="2.1140630">
        <ele>414.2</ele>
        <time>2020-07-09T12:09:45Z</time>
      </trkpt>
      <trkpt lat="41.6408530" lon="2.1140680">
        <ele>414.2</ele>
        <time>2020-07-09T12:09:46Z</time>
      </trkpt>
      <trkpt lat="41.6408640" lon="2.1140740">
        <ele>414.3</ele>
        <time>2020-07-09T12:09:47Z</time>
      </trkpt>
      <trkpt lat="41.6408750" lon="2.1140790">
        <ele>414.3</ele>
        <time>2020-07-09T12:09:48Z</time>
      </trkpt>
      <trkpt lat="41.6408860" lon="2.1140830">
        <ele>414.4</ele>
        <time>2020-07-09T12:09:49Z</time>
      </trkpt>
      <trkpt lat="41.6408970" lon="2.1140870">
        <ele>414.4</ele>
        <time>2020-07-09T12:09:50Z</time>
      </trkpt>
      <trkpt lat="41.6409080" lon="2.1140910">
        <ele>414.5</ele>
        <time>2020-07-09T12:09:51Z</time>
      </trkpt>
      <trkpt lat="41.6409180" lon="2.1140950">
        <ele>414.5</ele>
        <time>2020-07-09T12:09:52Z</time>
      </trkpt>
      <trkpt lat="41.6409290" lon="2.1140980">
        <ele>414.6</ele>
        <time>2020-07-09T12:09:53Z</time>
      </trkpt>
      <trkpt lat="41.6409400" lon="2.1141000">
        <ele>414.6</ele>
        <time>2020-07-09T12:09:54Z</time>
      </trkpt>
      <trkpt lat="41.6409510" lon="2.1141020">
        <ele>414.6</ele>
        <time>2020-07-09T12:09:55Z</time>
      </trkpt>
      <trkpt lat="41.6409620" lon="2.1141050">
        <ele>414.7</ele>
        <time>2020-07-09T12:09:56Z</time>
      </trkpt>
      <trkpt lat="41.6409730" lon="2.1141070">
        <ele>414.7</ele>
        <time>2020-07-09T12:09:57Z</time>
      </trkpt>
      <trkpt lat="41.6409840" lon="2.1141080">
        <ele>414.8</ele>
        <time>2020-07-09T12:09:58Z</time>
      </trkpt>
      <trkpt lat="41.6409960" lon="2.1141100">
        <ele>414.8</ele>
        <time>2020-07-09T12:09:59Z</time>
      </trkpt>
      <trkpt lat="41.6410070" lon="2.1141120">
        <ele>414.8</ele>
        <time>2020-07-09T12:10:00Z</time>
      </trkpt>
      <trkpt lat="41.6410190" lon="2.1141130">
        <ele>414.9</ele>
        <time>2020-07-09T12:10:01Z</time>
      </trkpt>
      <trkpt lat="41.6410310" lon="2.1141150">
        <ele>414.9</ele>
        <time>2020-07-09T12:10:02Z</time>
      </trkpt>
      <trkpt lat="41.6410440" lon="2.1141170">
        <ele>415.0</ele>
        <time>2020-07-09T12:10:03Z</time>
      </trkpt>
      <trkpt lat="41.6410560" lon="2.1141180">
        <ele>415.0</ele>
        <time>2020-07-09T12:10:04Z</time>
      </trkpt>
      <trkpt lat="41.6410690" lon="2.1141200">
        <ele>415.1</ele>
        <time>2020-07-09T12:10:05Z</time>
      </trkpt>
      <trkpt lat="41.6410810" lon="2.1141210">
        <ele>415.1</ele>
        <time>2020-07-09T12:10:06Z</time>
      </trkpt>
      <trkpt lat="41.6410940" lon="2.1141230">
        <ele>415.2</ele>
        <time>2020-07-09T12:10:07Z</time>
      </trkpt>
      <trkpt lat="41.6411070" lon="2.1141240">
        <ele>415.3</ele>
        <time>2020-07-09T12:10:08Z</time>
      </trkpt>
      <trkpt lat="41.6411200" lon="2.1141260">
        <ele>415.3</ele>
        <time>2020-07-09T12:10:09Z</time>
      </trkpt>
      <trkpt lat="41.6411330" lon="2.1141270">
        <ele>415.4</ele>
        <time>2020-07-09T12:10:10Z</time>
      </trkpt>
      <trkpt lat="41.6411460" lon="2.1141280">
        <ele>415.5</ele>
        <time>2020-07-09T12:10:11Z</time>
      </trkpt>
      <trkpt lat="41.6411590" lon="2.1141290">
        <ele>415.5</ele>
        <time>2020-07-09T12:10:12Z</time>
      </trkpt>
      <trkpt lat="41.6411710" lon="2.1141310">
        <ele>415.6</ele>
        <time>2020-07-09T12:10:13Z</time>
      </trkpt>
      <trkpt lat="41.6411840" lon="2.1141320">
        <ele>415.7</ele>
        <time>2020-07-09T12:10:14Z</time>
      </trkpt>
      <trkpt lat="41.6411970" lon="2.1141330">
        <ele>415.7</ele>
        <time>2020-07-09T12:10:15Z</time>
      </trkpt>
      <trkpt lat="41.6412100" lon="2.1141340">
        <ele>415.8</ele>
        <time>2020-07-09T12:10:16Z</time>
      </trkpt>
      <trkpt lat="41.6412220" lon="2.1141350">
        <ele>415.9</ele>
        <time>2020-07-09T12:10:17Z</time>
      </trkpt>
      <trkpt lat="41.6412350" lon="2.1141360">
        <ele>415.9</ele>
        <time>2020-07-09T12:10:18Z</time>
      </trkpt>
      <trkpt lat="41.6412470" lon="2.1141370">
        <ele>416.0</ele>
        <time>2020-07-09T12:10:19Z</time>
      </trkpt>
      <trkpt lat="41.6412590" lon="2.1141380">
        <ele>416.1</ele>
        <time>2020-07-09T12:10:20Z</time>
      </trkpt>
      <trkpt lat="41.6412710" lon="2.1141390">
        <ele>416.1</ele>
        <time>2020-07-09T12:10:21Z</time>
      </trkpt>
      <trkpt lat="41.6412830" lon="2.1141410">
        <ele>416.2</ele>
        <time>2020-07-09T12:10:22Z</time>
      </trkpt>
      <trkpt lat="41.6412950" lon="2.1141440">
        <ele>416.3</ele>
        <time>2020-07-09T12:10:23Z</time>
      </trkpt>
      <trkpt lat="41.6413060" lon="2.1141480">
        <ele>416.3</ele>
        <time>2020-07-09T12:10:24Z</time>
      </trkpt>
      <trkpt lat="41.6413170" lon="2.1141520">
        <ele>416.4</ele>
        <time>2020-07-09T12:10:25Z</time>
      </trkpt>
      <trkpt lat="41.6413280" lon="2.1141580">
        <ele>416.4</ele>
        <time>2020-07-09T12:10:26Z</time>
      </trkpt>
      <trkpt lat="41.6413390" lon="2.1141640">
        <ele>416.5</ele>
        <time>2020-07-09T12:10:27Z</time>
      </trkpt>
      <trkpt lat="41.6413500" lon="2.1141720">
        <ele>416.6</ele>
        <time>2020-07-09T12:10:28Z</time>
      </trkpt>
      <trkpt lat="41.6413610" lon="2.1141810">
        <ele>416.6</ele>
        <time>2020-07-09T12:10:29Z</time>
      </trkpt>
      <trkpt lat="41.6413710" lon="2.1141900">
        <ele>416.6</ele>
        <time>2020-07-09T12:10:30Z</time>
      </trkpt>
      <trkpt lat="41.6413820" lon="2.1142010">
        <ele>416.6</ele>
        <time>2020-07-09T12:10:31Z</time>
      </trkpt>
      <trkpt lat="41.6413920" lon="2.1142120">
        <ele>416.6</ele>
        <time>2020-07-09T12:10:32Z</time>
      </trkpt>
      <trkpt lat="41.6414020" lon="2.1142230">
        <ele>416.6</ele>
        <time>2020-07-09T12:10:33Z</time>
      </trkpt>
      <trkpt lat="41.6414120" lon="2.1142350">
        <ele>416.7</ele>
        <time>2020-07-09T12:10:34Z</time>
      </trkpt>
      <trkpt lat="41.6414210" lon="2.1142470">
        <ele>416.7</ele>
        <time>2020-07-09T12:10:35Z</time>
      </trkpt>
      <trkpt lat="41.6414310" lon="2.1142600">
        <ele>416.9</ele>
        <time>2020-07-09T12:10:36Z</time>
      </trkpt>
      <trkpt lat="41.6414410" lon="2.1142720">
        <ele>417.0</ele>
        <time>2020-07-09T12:10:37Z</time>
      </trkpt>
      <trkpt lat="41.6414500" lon="2.1142830">
        <ele>417.1</ele>
        <time>2020-07-09T12:10:38Z</time>
      </trkpt>
      <trkpt lat="41.6414600" lon="2.1142940">
        <ele>417.1</ele>
        <time>2020-07-09T12:10:39Z</time>
      </trkpt>
      <trkpt lat="41.6414690" lon="2.1143040">
        <ele>417.2</ele>
        <time>2020-07-09T12:10:40Z</time>
      </trkpt>
      <trkpt lat="41.6414790" lon="2.1143120">
        <ele>417.3</ele>
        <time>2020-07-09T12:10:41Z</time>
      </trkpt>
      <trkpt lat="41.6414890" lon="2.1143190">
        <ele>417.4</ele>
        <time>2020-07-09T12:10:42Z</time>
      </trkpt>
      <trkpt lat="41.6414990" lon="2.1143230">
        <ele>417.5</ele>
        <time>2020-07-09T12:10:43Z</time>
      </trkpt>
      <trkpt lat="41.6415100" lon="2.1143260">
        <ele>417.6</ele>
        <time>2020-07-09T12:10:44Z</time>
      </trkpt>
      <trkpt lat="41.6415200" lon="2.1143270">
        <ele>417.6</ele>
        <time>2020-07-09T12:10:45Z</time>
      </trkpt>
      <trkpt lat="41.6415310" lon="2.1143260">
        <ele>417.7</ele>
        <time>2020-07-09T12:10:46Z</time>
      </trkpt>
      <trkpt lat="41.6415420" lon="2.1143230">
        <ele>417.8</ele>
        <time>2020-07-09T12:10:47Z</time>
      </trkpt>
      <trkpt lat="41.6415530" lon="2.1143190">
        <ele>417.9</ele>
        <time>2020-07-09T12:10:48Z</time>
      </trkpt>
      <trkpt lat="41.6415640" lon="2.1143140">
        <ele>418.0</ele>
        <time>2020-07-09T12:10:49Z</time>
      </trkpt>
      <trkpt lat="41.6415750" lon="2.1143090">
        <ele>418.1</ele>
        <time>2020-07-09T12:10:50Z</time>
      </trkpt>
      <trkpt lat="41.6415860" lon="2.1143020">
        <ele>418.2</ele>
        <time>2020-07-09T12:10:51Z</time>
      </trkpt>
      <trkpt lat="41.6415960" lon="2.1142960">
        <ele>418.3</ele>
        <time>2020-07-09T12:10:52Z</time>
      </trkpt>
      <trkpt lat="41.6416070" lon="2.1142890">
        <ele>418.5</ele>
        <time>2020-07-09T12:10:53Z</time>
      </trkpt>
      <trkpt lat="41.6416170" lon="2.1142820">
        <ele>418.6</ele>
        <time>2020-07-09T12:10:54Z</time>
      </trkpt>
      <trkpt lat="41.6416270" lon="2.1142740">
        <ele>418.7</ele>
        <time>2020-07-09T12:10:55Z</time>
      </trkpt>
      <trkpt lat="41.6416370" lon="2.1142670">
        <ele>418.8</ele>
        <time>2020-07-09T12:10:56Z</time>
      </trkpt>
      <trkpt lat="41.6416470" lon="2.1142590">
        <ele>418.9</ele>
        <time>2020-07-09T12:10:57Z</time>
      </trkpt>
      <trkpt lat="41.6416560" lon="2.1142520">
        <ele>419.0</ele>
        <time>2020-07-09T12:10:58Z</time>
      </trkpt>
      <trkpt lat="41.6416660" lon="2.1142440">
        <ele>419.2</ele>
        <time>2020-07-09T12:10:59Z</time>
      </trkpt>
      <trkpt lat="41.6416750" lon="2.1142360">
        <ele>419.3</ele>
        <time>2020-07-09T12:11:00Z</time>
      </trkpt>
      <trkpt lat="41.6416840" lon="2.1142290">
        <ele>419.4</ele>
        <time>2020-07-09T12:11:01Z</time>
      </trkpt>
      <trkpt lat="41.6416940" lon="2.1142210">
        <ele>419.6</ele>
        <time>2020-07-09T12:11:02Z</time>
      </trkpt>
      <trkpt lat="41.6417030" lon="2.1142130">
        <ele>419.7</ele>
        <time>2020-07-09T12:11:03Z</time>
      </trkpt>
      <trkpt lat="41.6417120" lon="2.1142050">
        <ele>419.8</ele>
        <time>2020-07-09T12:11:04Z</time>
      </trkpt>
      <trkpt lat="41.6417210" lon="2.1141970">
        <ele>419.9</ele>
        <time>2020-07-09T12:11:05Z</time>
      </trkpt>
      <trkpt lat="41.6417300" lon="2.1141890">
        <ele>420.1</ele>
        <time>2020-07-09T12:11:06Z</time>
      </trkpt>
      <trkpt lat="41.6417390" lon="2.1141810">
        <ele>420.2</ele>
        <time>2020-07-09T12:11:07Z</time>
      </trkpt>
      <trkpt lat="41.6417480" lon="2.1141730">
        <ele>420.3</ele>
        <time>2020-07-09T12:11:08Z</time>
      </trkpt>
      <trkpt lat="41.6417570" lon="2.1141650">
        <ele>420.5</ele>
        <time>2020-07-09T12:11:09Z</time>
      </trkpt>
      <trkpt lat="41.6417660" lon="2.1141570">
        <ele>420.6</ele>
        <time>2020-07-09T12:11:10Z</time>
      </trkpt>
      <trkpt lat="41.6417750" lon="2.1141490">
        <ele>420.7</ele>
        <time>2020-07-09T12:11:11Z</time>
      </trkpt>
      <trkpt lat="41.6417840" lon="2.1141410">
        <ele>420.8</ele>
        <time>2020-07-09T12:11:12Z</time>
      </trkpt>
      <trkpt lat="41.6417930" lon="2.1141330">
        <ele>421.0</ele>
        <time>2020-07-09T12:11:13Z</time>
      </trkpt>
      <trkpt lat="41.6418030" lon="2.1141250">
        <ele>421.1</ele>
        <time>2020-07-09T12:11:14Z</time>
      </trkpt>
      <trkpt lat="41.6418120" lon="2.1141170">
        <ele>421.2</ele>
        <time>2020-07-09T12:11:15Z</time>
      </trkpt>
      <trkpt lat="41.6418210" lon="2.1141090">
        <ele>421.4</ele>
        <time>2020-07-09T12:11:16Z</time>
      </trkpt>
      <trkpt lat="41.6418300" lon="2.1141010">
        <ele>421.5</ele>
        <time>2020-07-09T12:11:17Z</time>
      </trkpt>
      <trkpt lat="41.6418400" lon="2.1140930">
        <ele>421.6</ele>
        <time>2020-07-09T12:11:18Z</time>
      </trkpt>
      <trkpt lat="41.6418490" lon="2.1140850">
        <ele>421.8</ele>
        <time>2020-07-09T12:11:19Z</time>
      </trkpt>
      <trkpt lat="41.6418590" lon="2.1140770">
        <ele>421.9</ele>
        <time>2020-07-09T12:11:20Z</time>
      </trkpt>
      <trkpt lat="41.6418680" lon="2.1140690">
        <ele>422.0</ele>
        <time>2020-07-09T12:11:21Z</time>
      </trkpt>
      <trkpt lat="41.6418770" lon="2.1140620">
        <ele>422.2</ele>
        <time>2020-07-09T12:11:22Z</time>
      </trkpt>
      <trkpt lat="41.6418870" lon="2.1140540">
        <ele>422.3</ele>
        <time>2020-07-09T12:11:23Z</time>
      </trkpt>
      <trkpt lat="41.6418960" lon="2.1140450">
        <ele>422.5</ele>
        <time>2020-07-09T12:11:24Z</time>
      </trkpt>
      <trkpt lat="41.6419060" lon="2.1140370">
        <ele>422.6</ele>
        <time>2020-07-09T12:11:25Z</time>
      </trkpt>
      <trkpt lat="41.6419150" lon="2.1140290">
        <ele>422.7</ele>
        <time>2020-07-09T12:11:26Z</time>
      </trkpt>
      <trkpt lat="41.6419250" lon="2.1140210">
        <ele>422.9</ele>
        <time>2020-07-09T12:11:27Z</time>
      </trkpt>
      <trkpt lat="41.6419350" lon="2.1140130">
        <ele>423.0</ele>
        <time>2020-07-09T12:11:28Z</time>
      </trkpt>
      <trkpt lat="41.6419440" lon="2.1140050">
        <ele>423.2</ele>
        <time>2020-07-09T12:11:29Z</time>
      </trkpt>
      <trkpt lat="41.6419540" lon="2.1139960">
        <ele>423.3</ele>
        <time>2020-07-09T12:11:30Z</time>
      </trkpt>
      <trkpt lat="41.6419630" lon="2.1139880">
        <ele>423.4</ele>
        <time>2020-07-09T12:11:31Z</time>
      </trkpt>
      <trkpt lat="41.6419730" lon="2.1139790">
        <ele>423.6</ele>
        <time>2020-07-09T12:11:32Z</time>
      </trkpt>
      <trkpt lat="41.6419830" lon="2.1139710">
        <ele>423.7</ele>
        <time>2020-07-09T12:11:33Z</time>
      </trkpt>
      <trkpt lat="41.6419930" lon="2.1139620">
        <ele>423.9</ele>
        <time>2020-07-09T12:11:34Z</time>
      </trkpt>
      <trkpt lat="41.6420020" lon="2.1139540">
        <ele>424.0</ele>
        <time>2020-07-09T12:11:35Z</time>
      </trkpt>
      <trkpt lat="41.6420120" lon="2.1139460">
        <ele>424.2</ele>
        <time>2020-07-09T12:11:36Z</time>
      </trkpt>
      <trkpt lat="41.6420220" lon="2.1139370">
        <ele>424.3</ele>
        <time>2020-07-09T12:11:37Z</time>
      </trkpt>
      <trkpt lat="41.6420320" lon="2.1139290">
        <ele>424.5</ele>
        <time>2020-07-09T12:11:38Z</time>
      </trkpt>
      <trkpt lat="41.6420420" lon="2.1139200">
        <ele>424.6</ele>
        <time>2020-07-09T12:11:39Z</time>
      </trkpt>
      <trkpt lat="41.6420520" lon="2.1139120">
        <ele>424.8</ele>
        <time>2020-07-09T12:11:40Z</time>
      </trkpt>
      <trkpt lat="41.6420620" lon="2.1139040">
        <ele>424.9</ele>
        <time>2020-07-09T12:11:41Z</time>
      </trkpt>
      <trkpt lat="41.6420720" lon="2.1138960">
        <ele>425.0</ele>
        <time>2020-07-09T12:11:42Z</time>
      </trkpt>
      <trkpt lat="41.6420820" lon="2.1138880">
        <ele>425.2</ele>
        <time>2020-07-09T12:11:43Z</time>
      </trkpt>
      <trkpt lat="41.6420930" lon="2.1138800">
        <ele>425.3</ele>
        <time>2020-07-09T12:11:44Z</time>
      </trkpt>
      <trkpt lat="41.6421030" lon="2.1138730">
        <ele>425.5</ele>
        <time>2020-07-09T12:11:45Z</time>
      </trkpt>
      <trkpt lat="41.6421140" lon="2.1138650">
        <ele>425.6</ele>
        <time>2020-07-09T12:11:46Z</time>
      </trkpt>
      <trkpt lat="41.6421240" lon="2.1138580">
        <ele>425.7</ele>
        <time>2020-07-09T12:11:47Z</time>
      </trkpt>
      <trkpt lat="41.6421350" lon="2.1138500">
        <ele>425.9</ele>
        <time>2020-07-09T12:11:48Z</time>
      </trkpt>
      <trkpt lat="41.6421450" lon="2.1138430">
        <ele>426.0</ele>
        <time>2020-07-09T12:11:49Z</time>
      </trkpt>
      <trkpt lat="41.6421560" lon="2.1138360">
        <ele>426.2</ele>
        <time>2020-07-09T12:11:50Z</time>
      </trkpt>
      <trkpt lat="41.6421670" lon="2.1138290">
        <ele>426.3</ele>
        <time>2020-07-09T12:11:51Z</time>
      </trkpt>
      <trkpt lat="41.6421780" lon="2.1138220">
        <ele>426.5</ele>
        <time>2020-07-09T12:11:52Z</time>
      </trkpt>
      <trkpt lat="41.6421890" lon="2.1138150">
        <ele>426.6</ele>
        <time>2020-07-09T12:11:53Z</time>
      </trkpt>
      <trkpt lat="41.6421990" lon="2.1138080">
        <ele>426.7</ele>
        <time>2020-07-09T12:11:54Z</time>
      </trkpt>
      <trkpt lat="41.6422100" lon="2.1138000">
        <ele>426.9</ele>
        <time>2020-07-09T12:11:55Z</time>
      </trkpt>
      <trkpt lat="41.6422210" lon="2.1137930">
        <ele>427.0</ele>
        <time>2020-07-09T12:11:56Z</time>
      </trkpt>
      <trkpt lat="41.6422320" lon="2.1137860">
        <ele>427.2</ele>
        <time>2020-07-09T12:11:57Z</time>
      </trkpt>
      <trkpt lat="41.6422430" lon="2.1137790">
        <ele>427.3</ele>
        <time>2020-07-09T12:11:58Z</time>
      </trkpt>
      <trkpt lat="41.6422540" lon="2.1137710">
        <ele>427.4</ele>
        <time>2020-07-09T12:11:59Z</time>
      </trkpt>
      <trkpt lat="41.6422650" lon="2.1137640">
        <ele>427.6</ele>
        <time>2020-07-09T12:12:00Z</time>
      </trkpt>
      <trkpt lat="41.6422760" lon="2.1137560">
        <ele>427.7</ele>
        <time>2020-07-09T12:12:01Z</time>
      </trkpt>
      <trkpt lat="41.6422870" lon="2.1137480">
        <ele>427.8</ele>
        <time>2020-07-09T12:12:02Z</time>
      </trkpt>
      <trkpt lat="41.6422970" lon="2.1137400">
        <ele>428.0</ele>
        <time>2020-07-09T12:12:03Z</time>
      </trkpt>
      <trkpt lat="41.6423080" lon="2.1137320">
        <ele>428.1</ele>
        <time>2020-07-09T12:12:04Z</time>
      </trkpt>
      <trkpt lat="41.6423190" lon="2.1137230">
        <ele>428.2</ele>
        <time>2020-07-09T12:12:05Z</time>
      </trkpt>
      <trkpt lat="41.6423300" lon="2.1137140">
        <ele>428.4</ele>
        <time>2020-07-09T12:12:06Z</time>
      </trkpt>
      <trkpt lat="41.6423410" lon="2.1137060">
        <ele>428.5</ele>
        <time>2020-07-09T12:12:07Z</time>
      </trkpt>
      <trkpt lat="41.6423510" lon="2.1136970">
        <ele>428.6</ele>
        <time>2020-07-09T12:12:08Z</time>
      </trkpt>
      <trkpt lat="41.6423620" lon="2.1136880">
        <ele>428.8</ele>
        <time>2020-07-09T12:12:09Z</time>
      </trkpt>
      <trkpt lat="41.6423730" lon="2.1136790">
        <ele>428.9</ele>
        <time>2020-07-09T12:12:10Z</time>
      </trkpt>
      <trkpt lat="41.6423830" lon="2.1136700">
        <ele>429.0</ele>
        <time>2020-07-09T12:12:11Z</time>
      </trkpt>
      <trkpt lat="41.6423940" lon="2.1136610">
        <ele>429.1</ele>
        <time>2020-07-09T12:12:12Z</time>
      </trkpt>
      <trkpt lat="41.6424040" lon="2.1136520">
        <ele>429.3</ele>
        <time>2020-07-09T12:12:13Z</time>
      </trkpt>
      <trkpt lat="41.6424150" lon="2.1136440">
        <ele>429.4</ele>
        <time>2020-07-09T12:12:14Z</time>
      </trkpt>
      <trkpt lat="41.6424260" lon="2.1136350">
        <ele>429.5</ele>
        <time>2020-07-09T12:12:15Z</time>
      </trkpt>
      <trkpt lat="41.6424360" lon="2.1136270">
        <ele>429.6</ele>
        <time>2020-07-09T12:12:16Z</time>
      </trkpt>
      <trkpt lat="41.6424470" lon="2.1136180">
        <ele>429.8</ele>
        <time>2020-07-09T12:12:17Z</time>
      </trkpt>
      <trkpt lat="41.6424570" lon="2.1136110">
        <ele>429.9</ele>
        <time>2020-07-09T12:12:18Z</time>
      </trkpt>
      <trkpt lat="41.6424680" lon="2.1136030">
        <ele>430.0</ele>
        <time>2020-07-09T12:12:19Z</time>
      </trkpt>
      <trkpt lat="41.6424780" lon="2.1135950">
        <ele>430.1</ele>
        <time>2020-07-09T12:12:20Z</time>
      </trkpt>
      <trkpt lat="41.6424890" lon="2.1135880">
        <ele>430.2</ele>
        <time>2020-07-09T12:12:21Z</time>
      </trkpt>
      <trkpt lat="41.6425000" lon="2.1135810">
        <ele>430.3</ele>
        <time>2020-07-09T12:12:22Z</time>
      </trkpt>
      <trkpt lat="41.6425100" lon="2.1135750">
        <ele>430.4</ele>
        <time>2020-07-09T12:12:23Z</time>
      </trkpt>
      <trkpt lat="41.6425210" lon="2.1135680">
        <ele>430.6</ele>
        <time>2020-07-09T12:12:24Z</time>
      </trkpt>
      <trkpt lat="41.6425320" lon="2.1135620">
        <ele>430.7</ele>
        <time>2020-07-09T12:12:25Z</time>
      </trkpt>
      <trkpt lat="41.6425430" lon="2.1135570">
        <ele>430.8</ele>
        <time>2020-07-09T12:12:26Z</time>
      </trkpt>
      <trkpt lat="41.6425530" lon="2.1135510">
        <ele>430.9</ele>
        <time>2020-07-09T12:12:27Z</time>
      </trkpt>
      <trkpt lat="41.6425640" lon="2.1135460">
        <ele>431.0</ele>
        <time>2020-07-09T12:12:28Z</time>
      </trkpt>
      <trkpt lat="41.6425750" lon="2.1135400">
        <ele>431.1</ele>
        <time>2020-07-09T12:12:29Z</time>
      </trkpt>
      <trkpt lat="41.6425860" lon="2.1135350">
        <ele>431.2</ele>
        <time>2020-07-09T12:12:30Z</time>
      </trkpt>
      <trkpt lat="41.6425970" lon="2.1135310">
        <ele>431.3</ele>
        <time>2020-07-09T12:12:31Z</time>
      </trkpt>
      <trkpt lat="41.6426080" lon="2.1135260">
        <ele>431.5</ele>
        <time>2020-07-09T12:12:32Z</time>
      </trkpt>
      <trkpt lat="41.6426200" lon="2.1135210">
        <ele>431.6</ele>
        <time>2020-07-09T12:12:33Z</time>
      </trkpt>
      <trkpt lat="41.6426310" lon="2.1135170">
        <ele>431.7</ele>
        <time>2020-07-09T12:12:34Z</time>
      </trkpt>
      <trkpt lat="41.6426420" lon="2.1135130">
        <ele>431.8</ele>
        <time>2020-07-09T12:12:35Z</time>
      </trkpt>
      <trkpt lat="41.6426530" lon="2.1135090">
        <ele>431.9</ele>
        <time>2020-07-09T12:12:36Z</time>
      </trkpt>
      <trkpt lat="41.6426650" lon="2.1135040">
        <ele>432.0</ele>
        <time>2020-07-09T12:12:37Z</time>
      </trkpt>
      <trkpt lat="41.6426760" lon="2.1135000">
        <ele>432.1</ele>
        <time>2020-07-09T12:12:38Z</time>
      </trkpt>
      <trkpt lat="41.6426870" lon="2.1134960">
        <ele>432.3</ele>
        <time>2020-07-09T12:12:39Z</time>
      </trkpt>
      <trkpt lat="41.6426990" lon="2.1134920">
        <ele>432.4</ele>
        <time>2020-07-09T12:12:40Z</time>
      </trkpt>
      <trkpt lat="41.6427100" lon="2.1134880">
        <ele>432.5</ele>
        <time>2020-07-09T12:12:41Z</time>
      </trkpt>
      <trkpt lat="41.6427220" lon="2.1134840">
        <ele>432.6</ele>
        <time>2020-07-09T12:12:42Z</time>
      </trkpt>
      <trkpt lat="41.6427340" lon="2.1134800">
        <ele>432.7</ele>
        <time>2020-07-09T12:12:43Z</time>
      </trkpt>
      <trkpt lat="41.6427450" lon="2.1134770">
        <ele>432.8</ele>
        <time>2020-07-09T12:12:44Z</time>
      </trkpt>
      <trkpt lat="41.6427570" lon="2.1134730">
        <ele>433.0</ele>
        <time>2020-07-09T12:12:45Z</time>
      </trkpt>
      <trkpt lat="41.6427680" lon="2.1134690">
        <ele>433.1</ele>
        <time>2020-07-09T12:12:46Z</time>
      </trkpt>
      <trkpt lat="41.6427800" lon="2.1134660">
        <ele>433.2</ele>
        <time>2020-07-09T12:12:47Z</time>
      </trkpt>
      <trkpt lat="41.6427920" lon="2.1134620">
        <ele>433.3</ele>
        <time>2020-07-09T12:12:48Z</time>
      </trkpt>
      <trkpt lat="41.6428030" lon="2.1134590">
        <ele>433.4</ele>
        <time>2020-07-09T12:12:49Z</time>
      </trkpt>
      <trkpt lat="41.6428150" lon="2.1134560">
        <ele>433.5</ele>
        <time>2020-07-09T12:12:50Z</time>
      </trkpt>
      <trkpt lat="41.6428260" lon="2.1134530">
        <ele>433.7</ele>
        <time>2020-07-09T12:12:51Z</time>
      </trkpt>
      <trkpt lat="41.6428380" lon="2.1134500">
        <ele>433.8</ele>
        <time>2020-07-09T12:12:52Z</time>
      </trkpt>
      <trkpt lat="41.6428490" lon="2.1134480">
        <ele>433.9</ele>
        <time>2020-07-09T12:12:53Z</time>
      </trkpt>
      <trkpt lat="41.6428600" lon="2.1134450">
        <ele>434.0</ele>
        <time>2020-07-09T12:12:54Z</time>
      </trkpt>
      <trkpt lat="41.6428710" lon="2.1134430">
        <ele>434.1</ele>
        <time>2020-07-09T12:12:55Z</time>
      </trkpt>
      <trkpt lat="41.6428830" lon="2.1134410">
        <ele>434.3</ele>
        <time>2020-07-09T12:12:56Z</time>
      </trkpt>
      <trkpt lat="41.6428940" lon="2.1134400">
        <ele>434.4</ele>
        <time>2020-07-09T12:12:57Z</time>
      </trkpt>
      <trkpt lat="41.6429050" lon="2.1134380">
        <ele>434.5</ele>
        <time>2020-07-09T12:12:58Z</time>
      </trkpt>
      <trkpt lat="41.6429160" lon="2.1134370">
        <ele>434.6</ele>
        <time>2020-07-09T12:12:59Z</time>
      </trkpt>
      <trkpt lat="41.6429280" lon="2.1134360">
        <ele>434.7</ele>
        <time>2020-07-09T12:13:00Z</time>
      </trkpt>
      <trkpt lat="41.6429400" lon="2.1134340">
        <ele>434.9</ele>
        <time>2020-07-09T12:13:01Z</time>
      </trkpt>
      <trkpt lat="41.6429520" lon="2.1134330">
        <ele>435.0</ele>
        <time>2020-07-09T12:13:02Z</time>
      </trkpt>
      <trkpt lat="41.6429650" lon="2.1134310">
        <ele>435.2</ele>
        <time>2020-07-09T12:13:03Z</time>
      </trkpt>
      <trkpt lat="41.6429790" lon="2.1134300">
        <ele>435.3</ele>
        <time>2020-07-09T12:13:04Z</time>
      </trkpt>
      <trkpt lat="41.6429930" lon="2.1134290">
        <ele>435.5</ele>
        <time>2020-07-09T12:13:05Z</time>
      </trkpt>
      <trkpt lat="41.6430060" lon="2.1134280">
        <ele>435.7</ele>
        <time>2020-07-09T12:13:06Z</time>
      </trkpt>
      <trkpt lat="41.6430200" lon="2.1134270">
        <ele>435.8</ele>
        <time>2020-07-09T12:13:07Z</time>
      </trkpt>
      <trkpt lat="41.6430340" lon="2.1134260">
        <ele>436.0</ele>
        <time>2020-07-09T12:13:08Z</time>
      </trkpt>
      <trkpt lat="41.6430480" lon="2.1134260">
        <ele>436.2</ele>
        <time>2020-07-09T12:13:09Z</time>
      </trkpt>
      <trkpt lat="41.6430630" lon="2.1134250">
        <ele>436.4</ele>
        <time>2020-07-09T12:13:10Z</time>
      </trkpt>
      <trkpt lat="41.6430770" lon="2.1134250">
        <ele>436.6</ele>
        <time>2020-07-09T12:13:11Z</time>
      </trkpt>
      <trkpt lat="41.6430910" lon="2.1134240">
        <ele>436.8</ele>
        <time>2020-07-09T12:13:12Z</time>
      </trkpt>
      <trkpt lat="41.6431060" lon="2.1134230">
        <ele>437.0</ele>
        <time>2020-07-09T12:13:13Z</time>
      </trkpt>
      <trkpt lat="41.6431190" lon="2.1134210">
        <ele>437.2</ele>
        <time>2020-07-09T12:13:14Z</time>
      </trkpt>
      <trkpt lat="41.6431320" lon="2.1134190">
        <ele>437.3</ele>
        <time>2020-07-09T12:13:15Z</time>
      </trkpt>
      <trkpt lat="41.6431430" lon="2.1134160">
        <ele>437.5</ele>
        <time>2020-07-09T12:13:16Z</time>
      </trkpt>
      <trkpt lat="41.6431540" lon="2.1134140">
        <ele>437.6</ele>
        <time>2020-07-09T12:13:17Z</time>
      </trkpt>
      <trkpt lat="41.6431650" lon="2.1134100">
        <ele>437.8</ele>
        <time>2020-07-09T12:13:18Z</time>
      </trkpt>
      <trkpt lat="41.6431740" lon="2.1134070">
        <ele>437.9</ele>
        <time>2020-07-09T12:13:19Z</time>
      </trkpt>
      <trkpt lat="41.6431840" lon="2.1134030">
        <ele>438.1</ele>
        <time>2020-07-09T12:13:20Z</time>
      </trkpt>
      <trkpt lat="41.6431920" lon="2.1133990">
        <ele>438.2</ele>
        <time>2020-07-09T12:13:21Z</time>
      </trkpt>
      <trkpt lat="41.6432010" lon="2.1133950">
        <ele>438.3</ele>
        <time>2020-07-09T12:13:22Z</time>
      </trkpt>
      <trkpt lat="41.6432090" lon="2.1133910">
        <ele>438.4</ele>
        <time>2020-07-09T12:13:23Z</time>
      </trkpt>
      <trkpt lat="41.6432170" lon="2.1133860">
        <ele>438.6</ele>
        <time>2020-07-09T12:13:24Z</time>
      </trkpt>
      <trkpt lat="41.6432250" lon="2.1133820">
        <ele>438.7</ele>
        <time>2020-07-09T12:13:25Z</time>
      </trkpt>
      <trkpt lat="41.6432330" lon="2.1133780">
        <ele>438.8</ele>
        <time>2020-07-09T12:13:26Z</time>
      </trkpt>
      <trkpt lat="41.6432410" lon="2.1133740">
        <ele>438.9</ele>
        <time>2020-07-09T12:13:27Z</time>
      </trkpt>
      <trkpt lat="41.6432490" lon="2.1133690">
        <ele>439.0</ele>
        <time>2020-07-09T12:13:28Z</time>
      </trkpt>
      <trkpt lat="41.6432570" lon="2.1133650">
        <ele>439.2</ele>
        <time>2020-07-09T12:13:29Z</time>
      </trkpt>
      <trkpt lat="41.6432660" lon="2.1133620">
        <ele>439.3</ele>
        <time>2020-07-09T12:13:30Z</time>
      </trkpt>
      <trkpt lat="41.6432750" lon="2.1133580">
        <ele>439.4</ele>
        <time>2020-07-09T12:13:31Z</time>
      </trkpt>
      <trkpt lat="41.6432840" lon="2.1133550">
        <ele>439.5</ele>
        <time>2020-07-09T12:13:32Z</time>
      </trkpt>
      <trkpt lat="41.6432940" lon="2.1133520">
        <ele>439.7</ele>
        <time>2020-07-09T12:13:33Z</time>
      </trkpt>
      <trkpt lat="41.6433050" lon="2.1133490">
        <ele>439.8</ele>
        <time>2020-07-09T12:13:34Z</time>
      </trkpt>
      <trkpt lat="41.6433150" lon="2.1133470">
        <ele>440.0</ele>
        <time>2020-07-09T12:13:35Z</time>
      </trkpt>
      <trkpt lat="41.6433260" lon="2.1133450">
        <ele>440.1</ele>
        <time>2020-07-09T12:13:36Z</time>
      </trkpt>
      <trkpt lat="41.6433380" lon="2.1133420">
        <ele>440.3</ele>
        <time>2020-07-09T12:13:37Z</time>
      </trkpt>
      <trkpt lat="41.6433490" lon="2.1133400">
        <ele>440.5</ele>
        <time>2020-07-09T12:13:38Z</time>
      </trkpt>
      <trkpt lat="41.6433610" lon="2.1133390">
        <ele>440.6</ele>
        <time>2020-07-09T12:13:39Z</time>
      </trkpt>
      <trkpt lat="41.6433730" lon="2.1133370">
        <ele>440.8</ele>
        <time>2020-07-09T12:13:40Z</time>
      </trkpt>
      <trkpt lat="41.6433850" lon="2.1133350">
        <ele>441.0</ele>
        <time>2020-07-09T12:13:41Z</time>
      </trkpt>
      <trkpt lat="41.6433970" lon="2.1133340">
        <ele>441.1</ele>
        <time>2020-07-09T12:13:42Z</time>
      </trkpt>
      <trkpt lat="41.6434100" lon="2.1133320">
        <ele>441.3</ele>
        <time>2020-07-09T12:13:43Z</time>
      </trkpt>
      <trkpt lat="41.6434220" lon="2.1133310">
        <ele>441.5</ele>
        <time>2020-07-09T12:13:44Z</time>
      </trkpt>
      <trkpt lat="41.6434350" lon="2.1133290">
        <ele>441.7</ele>
        <time>2020-07-09T12:13:45Z</time>
      </trkpt>
      <trkpt lat="41.6434470" lon="2.1133270">
        <ele>441.8</ele>
        <time>2020-07-09T12:13:46Z</time>
      </trkpt>
      <trkpt lat="41.6434600" lon="2.1133260">
        <ele>442.0</ele>
        <time>2020-07-09T12:13:47Z</time>
      </trkpt>
      <trkpt lat="41.6434720" lon="2.1133240">
        <ele>442.2</ele>
        <time>2020-07-09T12:13:48Z</time>
      </trkpt>
      <trkpt lat="41.6434840" lon="2.1133220">
        <ele>442.4</ele>
        <time>2020-07-09T12:13:49Z</time>
      </trkpt>
      <trkpt lat="41.6434960" lon="2.1133200">
        <ele>442.5</ele>
        <time>2020-07-09T12:13:50Z</time>
      </trkpt>
      <trkpt lat="41.6435080" lon="2.1133180">
        <ele>442.7</ele>
        <time>2020-07-09T12:13:51Z</time>
      </trkpt>
      <trkpt lat="41.6435200" lon="2.1133160">
        <ele>442.9</ele>
        <time>2020-07-09T12:13:52Z</time>
      </trkpt>
      <trkpt lat="41.6435320" lon="2.1133130">
        <ele>443.0</ele>
        <time>2020-07-09T12:13:53Z</time>
      </trkpt>
      <trkpt lat="41.6435430" lon="2.1133110">
        <ele>443.2</ele>
        <time>2020-07-09T12:13:54Z</time>
      </trkpt>
      <trkpt lat="41.6435540" lon="2.1133080">
        <ele>443.3</ele>
        <time>2020-07-09T12:13:55Z</time>
      </trkpt>
      <trkpt lat="41.6435650" lon="2.1133060">
        <ele>443.5</ele>
        <time>2020-07-09T12:13:56Z</time>
      </trkpt>
      <trkpt lat="41.6435760" lon="2.1133030">
        <ele>443.6</ele>
        <time>2020-07-09T12:13:57Z</time>
      </trkpt>
      <trkpt lat="41.6435870" lon="2.1133010">
        <ele>443.8</ele>
        <time>2020-07-09T12:13:58Z</time>
      </trkpt>
      <trkpt lat="41.6435970" lon="2.1132980">
        <ele>443.9</ele>
        <time>2020-07-09T12:13:59Z</time>
      </trkpt>
      <trkpt lat="41.6436070" lon="2.1132950">
        <ele>444.1</ele>
        <time>2020-07-09T12:14:00Z</time>
      </trkpt>
      <trkpt lat="41.6436170" lon="2.1132920">
        <ele>444.2</ele>
        <time>2020-07-09T12:14:01Z</time>
      </trkpt>
      <trkpt lat="41.6436260" lon="2.1132900">
        <ele>444.3</ele>
        <time>2020-07-09T12:14:02Z</time>
      </trkpt>
      <trkpt lat="41.6436350" lon="2.1132870">
        <ele>444.4</ele>
        <time>2020-07-09T12:14:03Z</time>
      </trkpt>
      <trkpt lat="41.6436440" lon="2.1132840">
        <ele>444.5</ele>
        <time>2020-07-09T12:14:04Z</time>
      </trkpt>
      <trkpt lat="41.6436530" lon="2.1132820">
        <ele>444.7</ele>
        <time>2020-07-09T12:14:05Z</time>
      </trkpt>
      <trkpt lat="41.6436610" lon="2.1132790">
        <ele>444.8</ele>
        <time>2020-07-09T12:14:06Z</time>
      </trkpt>
      <trkpt lat="41.6436680" lon="2.1132770">
        <ele>444.9</ele>
        <time>2020-07-09T12:14:07Z</time>
      </trkpt>
      <trkpt lat="41.6436760" lon="2.1132740">
        <ele>445.0</ele>
        <time>2020-07-09T12:14:08Z</time>
      </trkpt>
      <trkpt lat="41.6436830" lon="2.1132720">
        <ele>445.1</ele>
        <time>2020-07-09T12:14:09Z</time>
      </trkpt>
      <trkpt lat="41.6436890" lon="2.1132700">
        <ele>445.1</ele>
        <time>2020-07-09T12:14:10Z</time>
      </trkpt>
      <trkpt lat="41.6436940" lon="2.1132680">
        <ele>445.2</ele>
        <time>2020-07-09T12:14:11Z</time>
      </trkpt>
      <trkpt lat="41.6436990" lon="2.1132670">
        <ele>445.3</ele>
        <time>2020-07-09T12:14:12Z</time>
      </trkpt>
      <trkpt lat="41.6437030" lon="2.1132660">
        <ele>445.3</ele>
        <time>2020-07-09T12:14:13Z</time>
      </trkpt>
      <trkpt lat="41.6437060" lon="2.1132650">
        <ele>445.4</ele>
        <time>2020-07-09T12:14:14Z</time>
      </trkpt>
      <trkpt lat="41.6437090" lon="2.1132650">
        <ele>445.4</ele>
        <time>2020-07-09T12:14:15Z</time>
      </trkpt>
      <trkpt lat="41.6437100" lon="2.1132650">
        <ele>445.4</ele>
        <time>2020-07-09T12:14:16Z</time>
      </trkpt>
      <trkpt lat="41.6437100" lon="2.1132650">
        <ele>445.4</ele>
        <time>2020-07-09T12:14:17Z</time>
      </trkpt>
      <trkpt lat="41.6437100" lon="2.1132650">
        <ele>445.4</ele>
        <time>2020-07-09T12:14:18Z</time>
      </trkpt>
      <trkpt lat="41.6437100" lon="2.1132650">
        <ele>445.4</ele>
        <time>2020-07-09T12:14:19Z</time>
      </trkpt>
      <trkpt lat="41.6437090" lon="2.1132640">
        <ele>445.4</ele>
        <time>2020-07-09T12:14:20Z</time>
      </trkpt>
      <trkpt lat="41.6437080" lon="2.1132630">
        <ele>445.4</ele>
        <time>2020-07-09T12:14:21Z</time>
      </trkpt>
      <trkpt lat="41.6437080" lon="2.1132600">
        <ele>445.5</ele>
        <time>2020-07-09T12:14:22Z</time>
      </trkpt>
      <trkpt lat="41.6437080" lon="2.1132560">
        <ele>445.5</ele>
        <time>2020-07-09T12:14:23Z</time>
      </trkpt>
      <trkpt lat="41.6437090" lon="2.1132500">
        <ele>445.6</ele>
        <time>2020-07-09T12:14:24Z</time>
      </trkpt>
      <trkpt lat="41.6437100" lon="2.1132430">
        <ele>445.6</ele>
        <time>2020-07-09T12:14:25Z</time>
      </trkpt>
      <trkpt lat="41.6437130" lon="2.1132340">
        <ele>445.7</ele>
        <time>2020-07-09T12:14:26Z</time>
      </trkpt>
      <trkpt lat="41.6437150" lon="2.1132260">
        <ele>445.8</ele>
        <time>2020-07-09T12:14:27Z</time>
      </trkpt>
      <trkpt lat="41.6437170" lon="2.1132190">
        <ele>445.9</ele>
        <time>2020-07-09T12:14:28Z</time>
      </trkpt>
      <trkpt lat="41.6437190" lon="2.1132130">
        <ele>445.9</ele>
        <time>2020-07-09T12:14:29Z</time>
      </trkpt>
      <trkpt lat="41.6437190" lon="2.1132100">
        <ele>446.0</ele>
        <time>2020-07-09T12:14:30Z</time>
      </trkpt>
      <trkpt lat="41.6437200" lon="2.1132090">
        <ele>446.0</ele>
        <time>2020-07-09T12:14:31Z</time>
      </trkpt>
      <trkpt lat="41.6437190" lon="2.1132100">
        <ele>446.0</ele>
        <time>2020-07-09T12:14:32Z</time>
      </trkpt>
      <trkpt lat="41.6437190" lon="2.1132110">
        <ele>446.0</ele>
        <time>2020-07-09T12:14:33Z</time>
      </trkpt>
      <trkpt lat="41.6437180" lon="2.1132120">
        <ele>446.0</ele>
        <time>2020-07-09T12:14:34Z</time>
      </trkpt>
      <trkpt lat="41.6437180" lon="2.1132120">
        <ele>446.0</ele>
        <time>2020-07-09T12:14:35Z</time>
      </trkpt>
      <trkpt lat="41.6437180" lon="2.1132130">
        <ele>446.0</ele>
        <time>2020-07-09T12:14:36Z</time>
      </trkpt>
      <trkpt lat="41.6437180" lon="2.1132130">
        <ele>446.0</ele>
        <time>2020-07-09T12:14:37Z</time>
      </trkpt>
      <trkpt lat="41.6437180" lon="2.1132130">
        <ele>446.0</ele>
        <time>2020-07-09T12:14:38Z</time>
      </trkpt>
      <trkpt lat="41.6437180" lon="2.1132140">
        <ele>446.1</ele>
        <time>2020-07-09T12:14:39Z</time>
      </trkpt>
      <trkpt lat="41.6437180" lon="2.1132140">
        <ele>446.1</ele>
        <time>2020-07-09T12:14:40Z</time>
      </trkpt>
      <trkpt lat="41.6437180" lon="2.1132140">
        <ele>446.1</ele>
        <time>2020-07-09T12:14:41Z</time>
      </trkpt>
      <trkpt lat="41.6437180" lon="2.1132140">
        <ele>446.1</ele>
        <time>2020-07-09T12:14:42Z</time>
      </trkpt>
      <trkpt lat="41.6437180" lon="2.1132140">
        <ele>446.1</ele>
        <time>2020-07-09T12:14:43Z</time>
      </trkpt>
      <trkpt lat="41.6437180" lon="2.1132140">
        <ele>446.1</ele>
        <time>2020-07-09T12:14:44Z</time>
      </trkpt>
      <trkpt lat="41.6437180" lon="2.1132140">
        <ele>446.1</ele>
        <time>2020-07-09T12:14:45Z</time>
      </trkpt>
      <trkpt lat="41.6437180" lon="2.1132140">
        <ele>446.1</ele>
        <time>2020-07-09T12:14:46Z</time>
      </trkpt>
      <trkpt lat="41.6437180" lon="2.1132140">
        <ele>446.1</ele>
        <time>2020-07-09T12:14:47Z</time>
      </trkpt>
      <trkpt lat="41.6437180" lon="2.1132140">
        <ele>446.1</ele>
        <time>2020-07-09T12:14:48Z</time>
      </trkpt>
      <trkpt lat="41.6437180" lon="2.1132140">
        <ele>446.1</ele>
        <time>2020-07-09T12:14:49Z</time>
      </trkpt>
      <trkpt lat="41.6437180" lon="2.1132140">
        <ele>446.1</ele>
        <time>2020-07-09T12:14:50Z</time>
      </trkpt>
      <trkpt lat="41.6437180" lon="2.1132140">
        <ele>446.1</ele>
        <time>2020-07-09T12:14:51Z</time>
      </trkpt>
      <trkpt lat="41.6437180" lon="2.1132140">
        <ele>446.1</ele>
        <time>2020-07-09T12:14:52Z</time>
      </trkpt>
      <trkpt lat="41.6437180" lon="2.1132140">
        <ele>446.1</ele>
        <time>2020-07-09T12:14:53Z</time>
      </trkpt>
      <trkpt lat="41.6437180" lon="2.1132140">
        <ele>446.1</ele>
        <time>2020-07-09T12:14:54Z</time>
      </trkpt>
      <trkpt lat="41.6437180" lon="2.1132140">
        <ele>446.1</ele>
        <time>2020-07-09T12:14:55Z</time>
      </trkpt>
      <trkpt lat="41.6437180" lon="2.1132140">
        <ele>446.1</ele>
        <time>2020-07-09T12:14:56Z</time>
      </trkpt>
      <trkpt lat="41.6437180" lon="2.1132140">
        <ele>446.1</ele>
        <time>2020-07-09T12:14:57Z</time>
      </trkpt>
      <trkpt lat="41.6437180" lon="2.1132140">
        <ele>446.1</ele>
        <time>2020-07-09T12:14:58Z</time>
      </trkpt>
      <trkpt lat="41.6437180" lon="2.1132140">
        <ele>446.1</ele>
        <time>2020-07-09T12:14:59Z</time>
      </trkpt>
      <trkpt lat="41.6437180" lon="2.1132140">
        <ele>446.1</ele>
        <time>2020-07-09T12:15:00Z</time>
      </trkpt>
      <trkpt lat="41.6437180" lon="2.1132140">
        <ele>446.1</ele>
        <time>2020-07-09T12:15:01Z</time>
      </trkpt>
      <trkpt lat="41.6437180" lon="2.1132140">
        <ele>446.1</ele>
        <time>2020-07-09T12:15:02Z</time>
      </trkpt>
      <trkpt lat="41.6437180" lon="2.1132140">
        <ele>446.1</ele>
        <time>2020-07-09T12:15:03Z</time>
      </trkpt>
      <trkpt lat="41.6437180" lon="2.1132140">
        <ele>446.1</ele>
        <time>2020-07-09T12:15:04Z</time>
      </trkpt>
      <trkpt lat="41.6437180" lon="2.1132140">
        <ele>446.1</ele>
        <time>2020-07-09T12:15:05Z</time>
      </trkpt>
      <trkpt lat="41.6437180" lon="2.1132140">
        <ele>446.1</ele>
        <time>2020-07-09T12:15:06Z</time>
      </trkpt>
      <trkpt lat="41.6437180" lon="2.1132140">
        <ele>446.1</ele>
        <time>2020-07-09T12:15:07Z</time>
      </trkpt>
      <trkpt lat="41.6437180" lon="2.1132140">
        <ele>446.1</ele>
        <time>2020-07-09T12:15:08Z</time>
      </trkpt>
      <trkpt lat="41.6437180" lon="2.1132140">
        <ele>446.1</ele>
        <time>2020-07-09T12:15:09Z</time>
      </trkpt>
      <trkpt lat="41.6437180" lon="2.1132140">
        <ele>446.1</ele>
        <time>2020-07-09T12:15:10Z</time>
      </trkpt>
      <trkpt lat="41.6437180" lon="2.1132140">
        <ele>446.1</ele>
        <time>2020-07-09T12:15:11Z</time>
      </trkpt>
      <trkpt lat="41.6437180" lon="2.1132140">
        <ele>446.1</ele>
        <time>2020-07-09T12:15:12Z</time>
      </trkpt>
      <trkpt lat="41.6437180" lon="2.1132140">
        <ele>446.1</ele>
        <time>2020-07-09T12:15:13Z</time>
      </trkpt>
      <trkpt lat="41.6437180" lon="2.1132140">
        <ele>446.1</ele>
        <time>2020-07-09T12:15:14Z</time>
      </trkpt>
      <trkpt lat="41.6437180" lon="2.1132140">
        <ele>446.1</ele>
        <time>2020-07-09T12:15:15Z</time>
      </trkpt>
      <trkpt lat="41.6437180" lon="2.1132140">
        <ele>446.1</ele>
        <time>2020-07-09T12:15:16Z</time>
      </trkpt>
      <trkpt lat="41.6437180" lon="2.1132140">
        <ele>446.1</ele>
        <time>2020-07-09T12:15:17Z</time>
      </trkpt>
      <trkpt lat="41.6437180" lon="2.1132140">
        <ele>446.1</ele>
        <time>2020-07-09T12:15:18Z</time>
      </trkpt>
      <trkpt lat="41.6437180" lon="2.1132140">
        <ele>446.1</ele>
        <time>2020-07-09T12:15:19Z</time>
      </trkpt>
      <trkpt lat="41.6437180" lon="2.1132140">
        <ele>446.1</ele>
        <time>2020-07-09T12:15:20Z</time>
      </trkpt>
      <trkpt lat="41.6437180" lon="2.1132140">
        <ele>446.1</ele>
        <time>2020-07-09T12:15:21Z</time>
      </trkpt>
      <trkpt lat="41.6437180" lon="2.1132140">
        <ele>446.1</ele>
        <time>2020-07-09T12:15:22Z</time>
      </trkpt>
      <trkpt lat="41.6437180" lon="2.1132140">
        <ele>446.1</ele>
        <time>2020-07-09T12:15:23Z</time>
      </trkpt>
      <trkpt lat="41.6437180" lon="2.1132140">
        <ele>446.1</ele>
        <time>2020-07-09T12:15:24Z</time>
      </trkpt>
      <trkpt lat="41.6437180" lon="2.1132140">
        <ele>446.1</ele>
        <time>2020-07-09T12:15:25Z</time>
      </trkpt>
      <trkpt lat="41.6437180" lon="2.1132140">
        <ele>446.1</ele>
        <time>2020-07-09T12:15:26Z</time>
      </trkpt>
      <trkpt lat="41.6437180" lon="2.1132140">
        <ele>446.1</ele>
        <time>2020-07-09T12:15:27Z</time>
      </trkpt>
      <trkpt lat="41.6437180" lon="2.1132140">
        <ele>446.1</ele>
        <time>2020-07-09T12:15:28Z</time>
      </trkpt>
      <trkpt lat="41.6437180" lon="2.1132140">
        <ele>446.1</ele>
        <time>2020-07-09T12:15:29Z</time>
      </trkpt>
      <trkpt lat="41.6437180" lon="2.1132140">
        <ele>446.1</ele>
        <time>2020-07-09T12:15:30Z</time>
      </trkpt>
      <trkpt lat="41.6437180" lon="2.1132140">
        <ele>446.1</ele>
        <time>2020-07-09T12:15:31Z</time>
      </trkpt>
      <trkpt lat="41.6437180" lon="2.1132140">
        <ele>446.1</ele>
        <time>2020-07-09T12:15:32Z</time>
      </trkpt>
      <trkpt lat="41.6437180" lon="2.1132140">
        <ele>446.1</ele>
        <time>2020-07-09T12:15:33Z</time>
      </trkpt>
      <trkpt lat="41.6437180" lon="2.1132140">
        <ele>446.1</ele>
        <time>2020-07-09T12:15:34Z</time>
      </trkpt>
      <trkpt lat="41.6437180" lon="2.1132140">
        <ele>446.1</ele>
        <time>2020-07-09T12:15:35Z</time>
      </trkpt>
      <trkpt lat="41.6437180" lon="2.1132140">
        <ele>446.1</ele>
        <time>2020-07-09T12:15:36Z</time>
      </trkpt>
      <trkpt lat="41.6437180" lon="2.1132140">
        <ele>446.1</ele>
        <time>2020-07-09T12:15:37Z</time>
      </trkpt>
      <trkpt lat="41.6437180" lon="2.1132140">
        <ele>446.1</ele>
        <time>2020-07-09T12:15:38Z</time>
      </trkpt>
      <trkpt lat="41.6437180" lon="2.1132140">
        <ele>446.1</ele>
        <time>2020-07-09T12:15:39Z</time>
      </trkpt>
      <trkpt lat="41.6437180" lon="2.1132140">
        <ele>446.1</ele>
        <time>2020-07-09T12:15:40Z</time>
      </trkpt>
      <trkpt lat="41.6437180" lon="2.1132140">
        <ele>446.1</ele>
        <time>2020-07-09T12:15:41Z</time>
      </trkpt>
      <trkpt lat="41.6437180" lon="2.1132140">
        <ele>446.1</ele>
        <time>2020-07-09T12:15:42Z</time>
      </trkpt>
      <trkpt lat="41.6437180" lon="2.1132140">
        <ele>446.1</ele>
        <time>2020-07-09T12:15:43Z</time>
      </trkpt>
      <trkpt lat="41.6437180" lon="2.1132140">
        <ele>446.1</ele>
        <time>2020-07-09T12:15:44Z</time>
      </trkpt>
      <trkpt lat="41.6437180" lon="2.1132140">
        <ele>446.1</ele>
        <time>2020-07-09T12:15:45Z</time>
      </trkpt>
      <trkpt lat="41.6437180" lon="2.1132140">
        <ele>446.1</ele>
        <time>2020-07-09T12:15:46Z</time>
      </trkpt>
      <trkpt lat="41.6437180" lon="2.1132140">
        <ele>446.1</ele>
        <time>2020-07-09T12:15:47Z</time>
      </trkpt>
      <trkpt lat="41.6437180" lon="2.1132140">
        <ele>446.1</ele>
        <time>2020-07-09T12:15:48Z</time>
      </trkpt>
      <trkpt lat="41.6437180" lon="2.1132140">
        <ele>446.1</ele>
        <time>2020-07-09T12:15:49Z</time>
      </trkpt>
      <trkpt lat="41.6437180" lon="2.1132140">
        <ele>446.1</ele>
        <time>2020-07-09T12:15:50Z</time>
      </trkpt>
      <trkpt lat="41.6437180" lon="2.1132140">
        <ele>446.1</ele>
        <time>2020-07-09T12:15:51Z</time>
      </trkpt>
      <trkpt lat="41.6437180" lon="2.1132140">
        <ele>446.1</ele>
        <time>2020-07-09T12:15:52Z</time>
      </trkpt>
      <trkpt lat="41.6437180" lon="2.1132140">
        <ele>446.1</ele>
        <time>2020-07-09T12:15:53Z</time>
      </trkpt>
      <trkpt lat="41.6437180" lon="2.1132140">
        <ele>446.1</ele>
        <time>2020-07-09T12:15:54Z</time>
      </trkpt>
      <trkpt lat="41.6437180" lon="2.1132140">
        <ele>446.1</ele>
        <time>2020-07-09T12:15:55Z</time>
      </trkpt>
      <trkpt lat="41.6437170" lon="2.1132150">
        <ele>446.1</ele>
        <time>2020-07-09T12:15:56Z</time>
      </trkpt>
      <trkpt lat="41.6437170" lon="2.1132160">
        <ele>446.1</ele>
        <time>2020-07-09T12:15:57Z</time>
      </trkpt>
      <trkpt lat="41.6437160" lon="2.1132180">
        <ele>446.1</ele>
        <time>2020-07-09T12:15:58Z</time>
      </trkpt>
      <trkpt lat="41.6437150" lon="2.1132200">
        <ele>446.1</ele>
        <time>2020-07-09T12:15:59Z</time>
      </trkpt>
      <trkpt lat="41.6437140" lon="2.1132240">
        <ele>446.2</ele>
        <time>2020-07-09T12:16:00Z</time>
      </trkpt>
      <trkpt lat="41.6437120" lon="2.1132290">
        <ele>446.2</ele>
        <time>2020-07-09T12:16:01Z</time>
      </trkpt>
      <trkpt lat="41.6437090" lon="2.1132360">
        <ele>446.3</ele>
        <time>2020-07-09T12:16:02Z</time>
      </trkpt>
      <trkpt lat="41.6437060" lon="2.1132440">
        <ele>446.4</ele>
        <time>2020-07-09T12:16:03Z</time>
      </trkpt>
      <trkpt lat="41.6437030" lon="2.1132530">
        <ele>446.5</ele>
        <time>2020-07-09T12:16:04Z</time>
      </trkpt>
      <trkpt lat="41.6437010" lon="2.1132630">
        <ele>446.6</ele>
        <time>2020-07-09T12:16:05Z</time>
      </trkpt>
      <trkpt lat="41.6437010" lon="2.1132730">
        <ele>446.7</ele>
        <time>2020-07-09T12:16:06Z</time>
      </trkpt>
      <trkpt lat="41.6437030" lon="2.1132830">
        <ele>446.8</ele>
        <time>2020-07-09T12:16:07Z</time>
      </trkpt>
      <trkpt lat="41.6437080" lon="2.1132930">
        <ele>446.9</ele>
        <time>2020-07-09T12:16:08Z</time>
      </trkpt>
      <trkpt lat="41.6437160" lon="2.1133020">
        <ele>447.3</ele>
        <time>2020-07-09T12:16:09Z</time>
      </trkpt>
      <trkpt lat="41.6437250" lon="2.1133100">
        <ele>447.4</ele>
        <time>2020-07-09T12:16:10Z</time>
      </trkpt>
      <trkpt lat="41.6437350" lon="2.1133190">
        <ele>447.5</ele>
        <time>2020-07-09T12:16:11Z</time>
      </trkpt>
      <trkpt lat="41.6437450" lon="2.1133270">
        <ele>447.6</ele>
        <time>2020-07-09T12:16:12Z</time>
      </trkpt>
      <trkpt lat="41.6437550" lon="2.1133350">
        <ele>447.7</ele>
        <time>2020-07-09T12:16:13Z</time>
      </trkpt>
      <trkpt lat="41.6437650" lon="2.1133420">
        <ele>447.7</ele>
        <time>2020-07-09T12:16:14Z</time>
      </trkpt>
      <trkpt lat="41.6437740" lon="2.1133500">
        <ele>447.8</ele>
        <time>2020-07-09T12:16:15Z</time>
      </trkpt>
      <trkpt lat="41.6437820" lon="2.1133570">
        <ele>447.9</ele>
        <time>2020-07-09T12:16:16Z</time>
      </trkpt>
      <trkpt lat="41.6437900" lon="2.1133640">
        <ele>447.9</ele>
        <time>2020-07-09T12:16:17Z</time>
      </trkpt>
      <trkpt lat="41.6437970" lon="2.1133720">
        <ele>448.0</ele>
        <time>2020-07-09T12:16:18Z</time>
      </trkpt>
      <trkpt lat="41.6438030" lon="2.1133790">
        <ele>448.1</ele>
        <time>2020-07-09T12:16:19Z</time>
      </trkpt>
      <trkpt lat="41.6438080" lon="2.1133860">
        <ele>448.1</ele>
        <time>2020-07-09T12:16:20Z</time>
      </trkpt>
      <trkpt lat="41.6438120" lon="2.1133920">
        <ele>448.2</ele>
        <time>2020-07-09T12:16:21Z</time>
      </trkpt>
      <trkpt lat="41.6438140" lon="2.1133990">
        <ele>448.2</ele>
        <time>2020-07-09T12:16:22Z</time>
      </trkpt>
      <trkpt lat="41.6438170" lon="2.1134060">
        <ele>448.2</ele>
        <time>2020-07-09T12:16:23Z</time>
      </trkpt>
      <trkpt lat="41.6438190" lon="2.1134130">
        <ele>448.3</ele>
        <time>2020-07-09T12:16:24Z</time>
      </trkpt>
      <trkpt lat="41.6438200" lon="2.1134190">
        <ele>448.3</ele>
        <time>2020-07-09T12:16:25Z</time>
      </trkpt>
      <trkpt lat="41.6438220" lon="2.1134260">
        <ele>448.4</ele>
        <time>2020-07-09T12:16:26Z</time>
      </trkpt>
      <trkpt lat="41.6438240" lon="2.1134320">
        <ele>448.4</ele>
        <time>2020-07-09T12:16:27Z</time>
      </trkpt>
      <trkpt lat="41.6438270" lon="2.1134390">
        <ele>448.4</ele>
        <time>2020-07-09T12:16:28Z</time>
      </trkpt>
      <trkpt lat="41.6438300" lon="2.1134460">
        <ele>448.5</ele>
        <time>2020-07-09T12:16:29Z</time>
      </trkpt>
      <trkpt lat="41.6438340" lon="2.1134520">
        <ele>448.5</ele>
        <time>2020-07-09T12:16:30Z</time>
      </trkpt>
      <trkpt lat="41.6438380" lon="2.1134590">
        <ele>448.6</ele>
        <time>2020-07-09T12:16:31Z</time>
      </trkpt>
      <trkpt lat="41.6438430" lon="2.1134670">
        <ele>448.6</ele>
        <time>2020-07-09T12:16:32Z</time>
      </trkpt>
      <trkpt lat="41.6438480" lon="2.1134740">
        <ele>448.7</ele>
        <time>2020-07-09T12:16:33Z</time>
      </trkpt>
      <trkpt lat="41.6438530" lon="2.1134830">
        <ele>448.7</ele>
        <time>2020-07-09T12:16:34Z</time>
      </trkpt>
      <trkpt lat="41.6438590" lon="2.1134910">
        <ele>448.8</ele>
        <time>2020-07-09T12:16:35Z</time>
      </trkpt>
      <trkpt lat="41.6438640" lon="2.1135010">
        <ele>448.8</ele>
        <time>2020-07-09T12:16:36Z</time>
      </trkpt>
      <trkpt lat="41.6438680" lon="2.1135110">
        <ele>448.9</ele>
        <time>2020-07-09T12:16:37Z</time>
      </trkpt>
      <trkpt lat="41.6438720" lon="2.1135220">
        <ele>449.0</ele>
        <time>2020-07-09T12:16:38Z</time>
      </trkpt>
      <trkpt lat="41.6438760" lon="2.1135330">
        <ele>449.0</ele>
        <time>2020-07-09T12:16:39Z</time>
      </trkpt>
      <trkpt lat="41.6438790" lon="2.1135430">
        <ele>449.1</ele>
        <time>2020-07-09T12:16:40Z</time>
      </trkpt>
      <trkpt lat="41.6438800" lon="2.1135520">
        <ele>449.1</ele>
        <time>2020-07-09T12:16:41Z</time>
      </trkpt>
      <trkpt lat="41.6438810" lon="2.1135590">
        <ele>449.2</ele>
        <time>2020-07-09T12:16:42Z</time>
      </trkpt>
      <trkpt lat="41.6438810" lon="2.1135630">
        <ele>449.2</ele>
        <time>2020-07-09T12:16:43Z</time>
      </trkpt>
      <trkpt lat="41.6438790" lon="2.1135640">
        <ele>449.2</ele>
        <time>2020-07-09T12:16:44Z</time>
      </trkpt>
      <trkpt lat="41.6438770" lon="2.1135620">
        <ele>449.2</ele>
        <time>2020-07-09T12:16:45Z</time>
      </trkpt>
      <trkpt lat="41.6438730" lon="2.1135580">
        <ele>449.3</ele>
        <time>2020-07-09T12:16:46Z</time>
      </trkpt>
      <trkpt lat="41.6438680" lon="2.1135510">
        <ele>449.3</ele>
        <time>2020-07-09T12:16:47Z</time>
      </trkpt>
      <trkpt lat="41.6438630" lon="2.1135420">
        <ele>449.4</ele>
        <time>2020-07-09T12:16:48Z</time>
      </trkpt>
      <trkpt lat="41.6438560" lon="2.1135320">
        <ele>449.5</ele>
        <time>2020-07-09T12:16:49Z</time>
      </trkpt>
      <trkpt lat="41.6438490" lon="2.1135190">
        <ele>449.5</ele>
        <time>2020-07-09T12:16:50Z</time>
      </trkpt>
      <trkpt lat="41.6438410" lon="2.1135060">
        <ele>449.6</ele>
        <time>2020-07-09T12:16:51Z</time>
      </trkpt>
      <trkpt lat="41.6438330" lon="2.1134910">
        <ele>449.7</ele>
        <time>2020-07-09T12:16:52Z</time>
      </trkpt>
      <trkpt lat="41.6438250" lon="2.1134750">
        <ele>449.6</ele>
        <time>2020-07-09T12:16:53Z</time>
      </trkpt>
      <trkpt lat="41.6438160" lon="2.1134590">
        <ele>449.5</ele>
        <time>2020-07-09T12:16:54Z</time>
      </trkpt>
      <trkpt lat="41.6438080" lon="2.1134420">
        <ele>449.3</ele>
        <time>2020-07-09T12:16:55Z</time>
      </trkpt>
      <trkpt lat="41.6438000" lon="2.1134250">
        <ele>449.1</ele>
        <time>2020-07-09T12:16:56Z</time>
      </trkpt>
      <trkpt lat="41.6437910" lon="2.1134080">
        <ele>448.9</ele>
        <time>2020-07-09T12:16:57Z</time>
      </trkpt>
      <trkpt lat="41.6437830" lon="2.1133920">
        <ele>448.8</ele>
        <time>2020-07-09T12:16:58Z</time>
      </trkpt>
      <trkpt lat="41.6437740" lon="2.1133760">
        <ele>448.6</ele>
        <time>2020-07-09T12:16:59Z</time>
      </trkpt>
      <trkpt lat="41.6437650" lon="2.1133620">
        <ele>448.4</ele>
        <time>2020-07-09T12:17:00Z</time>
      </trkpt>
      <trkpt lat="41.6437560" lon="2.1133480">
        <ele>448.3</ele>
        <time>2020-07-09T12:17:01Z</time>
      </trkpt>
      <trkpt lat="41.6437460" lon="2.1133350">
        <ele>448.1</ele>
        <time>2020-07-09T12:17:02Z</time>
      </trkpt>
      <trkpt lat="41.6437360" lon="2.1133230">
        <ele>447.9</ele>
        <time>2020-07-09T12:17:03Z</time>
      </trkpt>
      <trkpt lat="41.6437250" lon="2.1133110">
        <ele>447.8</ele>
        <time>2020-07-09T12:17:04Z</time>
      </trkpt>
      <trkpt lat="41.6437140" lon="2.1133000">
        <ele>447.6</ele>
        <time>2020-07-09T12:17:05Z</time>
      </trkpt>
      <trkpt lat="41.6437020" lon="2.1132880">
        <ele>447.4</ele>
        <time>2020-07-09T12:17:06Z</time>
      </trkpt>
      <trkpt lat="41.6436920" lon="2.1132770">
        <ele>447.3</ele>
        <time>2020-07-09T12:17:07Z</time>
      </trkpt>
      <trkpt lat="41.6436840" lon="2.1132650">
        <ele>447.5</ele>
        <time>2020-07-09T12:17:08Z</time>
      </trkpt>
      <trkpt lat="41.6436800" lon="2.1132540">
        <ele>447.5</ele>
        <time>2020-07-09T12:17:09Z</time>
      </trkpt>
      <trkpt lat="41.6436790" lon="2.1132420">
        <ele>447.6</ele>
        <time>2020-07-09T12:17:10Z</time>
      </trkpt>
      <trkpt lat="41.6436810" lon="2.1132310">
        <ele>447.7</ele>
        <time>2020-07-09T12:17:11Z</time>
      </trkpt>
      <trkpt lat="41.6436850" lon="2.1132200">
        <ele>447.8</ele>
        <time>2020-07-09T12:17:12Z</time>
      </trkpt>
      <trkpt lat="41.6436900" lon="2.1132110">
        <ele>447.9</ele>
        <time>2020-07-09T12:17:13Z</time>
      </trkpt>
      <trkpt lat="41.6436940" lon="2.1132040">
        <ele>448.0</ele>
        <time>2020-07-09T12:17:14Z</time>
      </trkpt>
      <trkpt lat="41.6436980" lon="2.1131980">
        <ele>448.0</ele>
        <time>2020-07-09T12:17:15Z</time>
      </trkpt>
      <trkpt lat="41.6437030" lon="2.1131920">
        <ele>448.1</ele>
        <time>2020-07-09T12:17:16Z</time>
      </trkpt>
      <trkpt lat="41.6437070" lon="2.1131860">
        <ele>448.1</ele>
        <time>2020-07-09T12:17:17Z</time>
      </trkpt>
      <trkpt lat="41.6437110" lon="2.1131800">
        <ele>448.2</ele>
        <time>2020-07-09T12:17:18Z</time>
      </trkpt>
      <trkpt lat="41.6437150" lon="2.1131720">
        <ele>448.2</ele>
        <time>2020-07-09T12:17:19Z</time>
      </trkpt>
      <trkpt lat="41.6437190" lon="2.1131620">
        <ele>448.3</ele>
        <time>2020-07-09T12:17:20Z</time>
      </trkpt>
      <trkpt lat="41.6437240" lon="2.1131490">
        <ele>448.4</ele>
        <time>2020-07-09T12:17:21Z</time>
      </trkpt>
      <trkpt lat="41.6437290" lon="2.1131320">
        <ele>448.5</ele>
        <time>2020-07-09T12:17:22Z</time>
      </trkpt>
      <trkpt lat="41.6437340" lon="2.1131120">
        <ele>448.6</ele>
        <time>2020-07-09T12:17:23Z</time>
      </trkpt>
      <trkpt lat="41.6437400" lon="2.1130890">
        <ele>448.8</ele>
        <time>2020-07-09T12:17:24Z</time>
      </trkpt>
      <trkpt lat="41.6437450" lon="2.1130650">
        <ele>448.9</ele>
        <time>2020-07-09T12:17:25Z</time>
      </trkpt>
      <trkpt lat="41.6437510" lon="2.1130430">
        <ele>449.0</ele>
        <time>2020-07-09T12:17:26Z</time>
      </trkpt>
      <trkpt lat="41.6437570" lon="2.1130240">
        <ele>449.1</ele>
        <time>2020-07-09T12:17:27Z</time>
      </trkpt>
      <trkpt lat="41.6437620" lon="2.1130090">
        <ele>449.2</ele>
        <time>2020-07-09T12:17:28Z</time>
      </trkpt>
      <trkpt lat="41.6437670" lon="2.1129980">
        <ele>449.3</ele>
        <time>2020-07-09T12:17:29Z</time>
      </trkpt>
      <trkpt lat="41.6437710" lon="2.1129880">
        <ele>449.3</ele>
        <time>2020-07-09T12:17:30Z</time>
      </trkpt>
      <trkpt lat="41.6437760" lon="2.1129790">
        <ele>449.4</ele>
        <time>2020-07-09T12:17:31Z</time>
      </trkpt>
      <trkpt lat="41.6437800" lon="2.1129680">
        <ele>449.4</ele>
        <time>2020-07-09T12:17:32Z</time>
      </trkpt>
      <trkpt lat="41.6437840" lon="2.1129570">
        <ele>449.5</ele>
        <time>2020-07-09T12:17:33Z</time>
      </trkpt>
      <trkpt lat="41.6437880" lon="2.1129440">
        <ele>449.5</ele>
        <time>2020-07-09T12:17:34Z</time>
      </trkpt>
      <trkpt lat="41.6437920" lon="2.1129310">
        <ele>449.6</ele>
        <time>2020-07-09T12:17:35Z</time>
      </trkpt>
      <trkpt lat="41.6437960" lon="2.1129170">
        <ele>449.7</ele>
        <time>2020-07-09T12:17:36Z</time>
      </trkpt>
      <trkpt lat="41.6438010" lon="2.1129020">
        <ele>449.7</ele>
        <time>2020-07-09T12:17:37Z</time>
      </trkpt>
      <trkpt lat="41.6438060" lon="2.1128880">
        <ele>449.8</ele>
        <time>2020-07-09T12:17:38Z</time>
      </trkpt>
      <trkpt lat="41.6438110" lon="2.1128730">
        <ele>449.8</ele>
        <time>2020-07-09T12:17:39Z</time>
      </trkpt>
      <trkpt lat="41.6438170" lon="2.1128580">
        <ele>449.9</ele>
        <time>2020-07-09T12:17:40Z</time>
      </trkpt>
      <trkpt lat="41.6438240" lon="2.1128440">
        <ele>450.0</ele>
        <time>2020-07-09T12:17:41Z</time>
      </trkpt>
      <trkpt lat="41.6438310" lon="2.1128300">
        <ele>450.0</ele>
        <time>2020-07-09T12:17:42Z</time>
      </trkpt>
      <trkpt lat="41.6438380" lon="2.1128160">
        <ele>450.1</ele>
        <time>2020-07-09T12:17:43Z</time>
      </trkpt>
      <trkpt lat="41.6438450" lon="2.1128020">
        <ele>450.1</ele>
        <time>2020-07-09T12:17:44Z</time>
      </trkpt>
      <trkpt lat="41.6438520" lon="2.1127880">
        <ele>450.2</ele>
        <time>2020-07-09T12:17:45Z</time>
      </trkpt>
      <trkpt lat="41.6438590" lon="2.1127740">
        <ele>450.2</ele>
        <time>2020-07-09T12:17:46Z</time>
      </trkpt>
      <trkpt lat="41.6438660" lon="2.1127600">
        <ele>450.3</ele>
        <time>2020-07-09T12:17:47Z</time>
      </trkpt>
      <trkpt lat="41.6438720" lon="2.1127470">
        <ele>450.3</ele>
        <time>2020-07-09T12:17:48Z</time>
      </trkpt>
      <trkpt lat="41.6438780" lon="2.1127330">
        <ele>450.4</ele>
        <time>2020-07-09T12:17:49Z</time>
      </trkpt>
      <trkpt lat="41.6438830" lon="2.1127200">
        <ele>450.4</ele>
        <time>2020-07-09T12:17:50Z</time>
      </trkpt>
      <trkpt lat="41.6438880" lon="2.1127070">
        <ele>450.5</ele>
        <time>2020-07-09T12:17:51Z</time>
      </trkpt>
      <trkpt lat="41.6438920" lon="2.1126940">
        <ele>450.5</ele>
        <time>2020-07-09T12:17:52Z</time>
      </trkpt>
      <trkpt lat="41.6438960" lon="2.1126810">
        <ele>450.5</ele>
        <time>2020-07-09T12:17:53Z</time>
      </trkpt>
      <trkpt lat="41.6439000" lon="2.1126680">
        <ele>450.6</ele>
        <time>2020-07-09T12:17:54Z</time>
      </trkpt>
      <trkpt lat="41.6439030" lon="2.1126560">
        <ele>450.6</ele>
        <time>2020-07-09T12:17:55Z</time>
      </trkpt>
      <trkpt lat="41.6439060" lon="2.1126430">
        <ele>450.6</ele>
        <time>2020-07-09T12:17:56Z</time>
      </trkpt>
      <trkpt lat="41.6439090" lon="2.1126310">
        <ele>450.7</ele>
        <time>2020-07-09T12:17:57Z</time>
      </trkpt>
      <trkpt lat="41.6439110" lon="2.1126190">
        <ele>450.7</ele>
        <time>2020-07-09T12:17:58Z</time>
      </trkpt>
      <trkpt lat="41.6439140" lon="2.1126060">
        <ele>450.7</ele>
        <time>2020-07-09T12:17:59Z</time>
      </trkpt>
      <trkpt lat="41.6439170" lon="2.1125930">
        <ele>450.8</ele>
        <time>2020-07-09T12:18:00Z</time>
      </trkpt>
      <trkpt lat="41.6439200" lon="2.1125790">
        <ele>450.8</ele>
        <time>2020-07-09T12:18:01Z</time>
      </trkpt>
      <trkpt lat="41.6439250" lon="2.1125640">
        <ele>450.9</ele>
        <time>2020-07-09T12:18:02Z</time>
      </trkpt>
      <trkpt lat="41.6439320" lon="2.1125470">
        <ele>450.9</ele>
        <time>2020-07-09T12:18:03Z</time>
      </trkpt>
      <trkpt lat="41.6439390" lon="2.1125280">
        <ele>451.0</ele>
        <time>2020-07-09T12:18:04Z</time>
      </trkpt>
      <trkpt lat="41.6439460" lon="2.1125090">
        <ele>451.0</ele>
        <time>2020-07-09T12:18:05Z</time>
      </trkpt>
      <trkpt lat="41.6439540" lon="2.1124900">
        <ele>451.1</ele>
        <time>2020-07-09T12:18:06Z</time>
      </trkpt>
      <trkpt lat="41.6439600" lon="2.1124710">
        <ele>451.1</ele>
        <time>2020-07-09T12:18:07Z</time>
      </trkpt>
      <trkpt lat="41.6439660" lon="2.1124530">
        <ele>451.2</ele>
        <time>2020-07-09T12:18:08Z</time>
      </trkpt>
      <trkpt lat="41.6439720" lon="2.1124360">
        <ele>451.3</ele>
        <time>2020-07-09T12:18:09Z</time>
      </trkpt>
      <trkpt lat="41.6439770" lon="2.1124190">
        <ele>451.4</ele>
        <time>2020-07-09T12:18:10Z</time>
      </trkpt>
      <trkpt lat="41.6439830" lon="2.1124040">
        <ele>451.4</ele>
        <time>2020-07-09T12:18:11Z</time>
      </trkpt>
      <trkpt lat="41.6439880" lon="2.1123910">
        <ele>451.5</ele>
        <time>2020-07-09T12:18:12Z</time>
      </trkpt>
      <trkpt lat="41.6439930" lon="2.1123790">
        <ele>451.6</ele>
        <time>2020-07-09T12:18:13Z</time>
      </trkpt>
      <trkpt lat="41.6439990" lon="2.1123690">
        <ele>451.6</ele>
        <time>2020-07-09T12:18:14Z</time>
      </trkpt>
      <trkpt lat="41.6440050" lon="2.1123610">
        <ele>451.7</ele>
        <time>2020-07-09T12:18:15Z</time>
      </trkpt>
      <trkpt lat="41.6440110" lon="2.1123540">
        <ele>451.7</ele>
        <time>2020-07-09T12:18:16Z</time>
      </trkpt>
      <trkpt lat="41.6440180" lon="2.1123480">
        <ele>451.8</ele>
        <time>2020-07-09T12:18:17Z</time>
      </trkpt>
      <trkpt lat="41.6440240" lon="2.1123410">
        <ele>451.9</ele>
        <time>2020-07-09T12:18:18Z</time>
      </trkpt>
      <trkpt lat="41.6440310" lon="2.1123330">
        <ele>452.0</ele>
        <time>2020-07-09T12:18:19Z</time>
      </trkpt>
      <trkpt lat="41.6440360" lon="2.1123240">
        <ele>452.0</ele>
        <time>2020-07-09T12:18:20Z</time>
      </trkpt>
      <trkpt lat="41.6440420" lon="2.1123130">
        <ele>452.1</ele>
        <time>2020-07-09T12:18:21Z</time>
      </trkpt>
      <trkpt lat="41.6440470" lon="2.1123020">
        <ele>452.2</ele>
        <time>2020-07-09T12:18:22Z</time>
      </trkpt>
      <trkpt lat="41.6440510" lon="2.1122910">
        <ele>452.3</ele>
        <time>2020-07-09T12:18:23Z</time>
      </trkpt>
      <trkpt lat="41.6440550" lon="2.1122800">
        <ele>452.4</ele>
        <time>2020-07-09T12:18:24Z</time>
      </trkpt>
      <trkpt lat="41.6440590" lon="2.1122700">
        <ele>452.5</ele>
        <time>2020-07-09T12:18:25Z</time>
      </trkpt>
      <trkpt lat="41.6440630" lon="2.1122610">
        <ele>452.6</ele>
        <time>2020-07-09T12:18:26Z</time>
      </trkpt>
      <trkpt lat="41.6440670" lon="2.1122530">
        <ele>452.7</ele>
        <time>2020-07-09T12:18:27Z</time>
      </trkpt>
      <trkpt lat="41.6440700" lon="2.1122450">
        <ele>452.8</ele>
        <time>2020-07-09T12:18:28Z</time>
      </trkpt>
      <trkpt lat="41.6440740" lon="2.1122380">
        <ele>452.9</ele>
        <time>2020-07-09T12:18:29Z</time>
      </trkpt>
      <trkpt lat="41.6440780" lon="2.1122310">
        <ele>453.0</ele>
        <time>2020-07-09T12:18:30Z</time>
      </trkpt>
      <trkpt lat="41.6440820" lon="2.1122250">
        <ele>453.1</ele>
        <time>2020-07-09T12:18:31Z</time>
      </trkpt>
      <trkpt lat="41.6440870" lon="2.1122190">
        <ele>453.2</ele>
        <time>2020-07-09T12:18:32Z</time>
      </trkpt>
      <trkpt lat="41.6440920" lon="2.1122140">
        <ele>453.2</ele>
        <time>2020-07-09T12:18:33Z</time>
      </trkpt>
      <trkpt lat="41.6440970" lon="2.1122090">
        <ele>453.3</ele>
        <time>2020-07-09T12:18:34Z</time>
      </trkpt>
      <trkpt lat="41.6441030" lon="2.1122040">
        <ele>453.4</ele>
        <time>2020-07-09T12:18:35Z</time>
      </trkpt>
      <trkpt lat="41.6441090" lon="2.1122000">
        <ele>453.5</ele>
        <time>2020-07-09T12:18:36Z</time>
      </trkpt>
      <trkpt lat="41.6441160" lon="2.1121950">
        <ele>453.6</ele>
        <time>2020-07-09T12:18:37Z</time>
      </trkpt>
      <trkpt lat="41.6441230" lon="2.1121910">
        <ele>453.8</ele>
        <time>2020-07-09T12:18:38Z</time>
      </trkpt>
      <trkpt lat="41.6441300" lon="2.1121870">
        <ele>453.9</ele>
        <time>2020-07-09T12:18:39Z</time>
      </trkpt>
      <trkpt lat="41.6441380" lon="2.1121830">
        <ele>454.0</ele>
        <time>2020-07-09T12:18:40Z</time>
      </trkpt>
      <trkpt lat="41.6441460" lon="2.1121790">
        <ele>454.2</ele>
        <time>2020-07-09T12:18:41Z</time>
      </trkpt>
      <trkpt lat="41.6441540" lon="2.1121750">
        <ele>454.3</ele>
        <time>2020-07-09T12:18:42Z</time>
      </trkpt>
      <trkpt lat="41.6441620" lon="2.1121710">
        <ele>454.4</ele>
        <time>2020-07-09T12:18:43Z</time>
      </trkpt>
      <trkpt lat="41.6441700" lon="2.1121670">
        <ele>454.6</ele>
        <time>2020-07-09T12:18:44Z</time>
      </trkpt>
      <trkpt lat="41.6441780" lon="2.1121640">
        <ele>454.7</ele>
        <time>2020-07-09T12:18:45Z</time>
      </trkpt>
      <trkpt lat="41.6441860" lon="2.1121600">
        <ele>454.8</ele>
        <time>2020-07-09T12:18:46Z</time>
      </trkpt>
      <trkpt lat="41.6441920" lon="2.1121570">
        <ele>454.9</ele>
        <time>2020-07-09T12:18:47Z</time>
      </trkpt>
      <trkpt lat="41.6441980" lon="2.1121550">
        <ele>455.0</ele>
        <time>2020-07-09T12:18:48Z</time>
      </trkpt>
      <trkpt lat="41.6442020" lon="2.1121520">
        <ele>455.1</ele>
        <time>2020-07-09T12:18:49Z</time>
      </trkpt>
      <trkpt lat="41.6442050" lon="2.1121500">
        <ele>455.2</ele>
        <time>2020-07-09T12:18:50Z</time>
      </trkpt>
      <trkpt lat="41.6442060" lon="2.1121490">
        <ele>455.2</ele>
        <time>2020-07-09T12:18:51Z</time>
      </trkpt>
      <trkpt lat="41.6442070" lon="2.1121480">
        <ele>455.2</ele>
        <time>2020-07-09T12:18:52Z</time>
      </trkpt>
      <trkpt lat="41.6442070" lon="2.1121470">
        <ele>455.2</ele>
        <time>2020-07-09T12:18:53Z</time>
      </trkpt>
      <trkpt lat="41.6442070" lon="2.1121470">
        <ele>455.2</ele>
        <time>2020-07-09T12:18:54Z</time>
      </trkpt>
      <trkpt lat="41.6442070" lon="2.1121470">
        <ele>455.2</ele>
        <time>2020-07-09T12:18:55Z</time>
      </trkpt>
      <trkpt lat="41.6442070" lon="2.1121470">
        <ele>455.2</ele>
        <time>2020-07-09T12:18:56Z</time>
      </trkpt>
      <trkpt lat="41.6442070" lon="2.1121470">
        <ele>455.2</ele>
        <time>2020-07-09T12:18:57Z</time>
      </trkpt>
      <trkpt lat="41.6442070" lon="2.1121460">
        <ele>455.2</ele>
        <time>2020-07-09T12:18:58Z</time>
      </trkpt>
      <trkpt lat="41.6442070" lon="2.1121460">
        <ele>455.2</ele>
        <time>2020-07-09T12:18:59Z</time>
      </trkpt>
      <trkpt lat="41.6442080" lon="2.1121450">
        <ele>455.2</ele>
        <time>2020-07-09T12:19:00Z</time>
      </trkpt>
      <trkpt lat="41.6442080" lon="2.1121430">
        <ele>455.3</ele>
        <time>2020-07-09T12:19:01Z</time>
      </trkpt>
      <trkpt lat="41.6442100" lon="2.1121370">
        <ele>455.4</ele>
        <time>2020-07-09T12:19:02Z</time>
      </trkpt>
      <trkpt lat="41.6442180" lon="2.1121170">
        <ele>455.6</ele>
        <time>2020-07-09T12:19:03Z</time>
      </trkpt>
      <trkpt lat="41.6442270" lon="2.1120990">
        <ele>455.9</ele>
        <time>2020-07-09T12:19:04Z</time>
      </trkpt>
      <trkpt lat="41.6442340" lon="2.1120880">
        <ele>456.1</ele>
        <time>2020-07-09T12:19:05Z</time>
      </trkpt>
      <trkpt lat="41.6442420" lon="2.1120770">
        <ele>456.3</ele>
        <time>2020-07-09T12:19:06Z</time>
      </trkpt>
      <trkpt lat="41.6442460" lon="2.1120730">
        <ele>456.3</ele>
        <time>2020-07-09T12:19:07Z</time>
      </trkpt>
      <trkpt lat="41.6442490" lon="2.1120700">
        <ele>456.4</ele>
        <time>2020-07-09T12:19:08Z</time>
      </trkpt>
      <trkpt lat="41.6442530" lon="2.1120650">
        <ele>456.5</ele>
        <time>2020-07-09T12:19:09Z</time>
      </trkpt>
      <trkpt lat="41.6442570" lon="2.1120610">
        <ele>456.6</ele>
        <time>2020-07-09T12:19:10Z</time>
      </trkpt>
      <trkpt lat="41.6442610" lon="2.1120570">
        <ele>456.7</ele>
        <time>2020-07-09T12:19:11Z</time>
      </trkpt>
      <trkpt lat="41.6442640" lon="2.1120540">
        <ele>456.7</ele>
        <time>2020-07-09T12:19:12Z</time>
      </trkpt>
      <trkpt lat="41.6442670" lon="2.1120500">
        <ele>456.8</ele>
        <time>2020-07-09T12:19:13Z</time>
      </trkpt>
      <trkpt lat="41.6442700" lon="2.1120470">
        <ele>456.8</ele>
        <time>2020-07-09T12:19:14Z</time>
      </trkpt>
      <trkpt lat="41.6442720" lon="2.1120440">
        <ele>456.9</ele>
        <time>2020-07-09T12:19:15Z</time>
      </trkpt>
      <trkpt lat="41.6442750" lon="2.1120420">
        <ele>456.9</ele>
        <time>2020-07-09T12:19:16Z</time>
      </trkpt>
      <trkpt lat="41.6442770" lon="2.1120400">
        <ele>457.0</ele>
        <time>2020-07-09T12:19:17Z</time>
      </trkpt>
      <trkpt lat="41.6442790" lon="2.1120370">
        <ele>457.0</ele>
        <time>2020-07-09T12:19:18Z</time>
      </trkpt>
      <trkpt lat="41.6442800" lon="2.1120360">
        <ele>457.1</ele>
        <time>2020-07-09T12:19:19Z</time>
      </trkpt>
      <trkpt lat="41.6442820" lon="2.1120340">
        <ele>457.1</ele>
        <time>2020-07-09T12:19:20Z</time>
      </trkpt>
      <trkpt lat="41.6442830" lon="2.1120320">
        <ele>457.1</ele>
        <time>2020-07-09T12:19:21Z</time>
      </trkpt>
      <trkpt lat="41.6442840" lon="2.1120310">
        <ele>457.2</ele>
        <time>2020-07-09T12:19:22Z</time>
      </trkpt>
      <trkpt lat="41.6442850" lon="2.1120300">
        <ele>457.2</ele>
        <time>2020-07-09T12:19:23Z</time>
      </trkpt>
      <trkpt lat="41.6442850" lon="2.1120290">
        <ele>457.2</ele>
        <time>2020-07-09T12:19:24Z</time>
      </trkpt>
      <trkpt lat="41.6442860" lon="2.1120280">
        <ele>457.2</ele>
        <time>2020-07-09T12:19:25Z</time>
      </trkpt>
      <trkpt lat="41.6442860" lon="2.1120280">
        <ele>457.2</ele>
        <time>2020-07-09T12:19:26Z</time>
      </trkpt>
      <trkpt lat="41.6442870" lon="2.1120270">
        <ele>457.2</ele>
        <time>2020-07-09T12:19:27Z</time>
      </trkpt>
      <trkpt lat="41.6442870" lon="2.1120270">
        <ele>457.2</ele>
        <time>2020-07-09T12:19:28Z</time>
      </trkpt>
      <trkpt lat="41.6442870" lon="2.1120270">
        <ele>457.2</ele>
        <time>2020-07-09T12:19:29Z</time>
      </trkpt>
      <trkpt lat="41.6442870" lon="2.1120270">
        <ele>457.2</ele>
        <time>2020-07-09T12:19:30Z</time>
      </trkpt>
      <trkpt lat="41.6442870" lon="2.1120270">
        <ele>457.2</ele>
        <time>2020-07-09T12:19:31Z</time>
      </trkpt>
      <trkpt lat="41.6442870" lon="2.1120270">
        <ele>457.2</ele>
        <time>2020-07-09T12:19:32Z</time>
      </trkpt>
      <trkpt lat="41.6442870" lon="2.1120270">
        <ele>457.2</ele>
        <time>2020-07-09T12:19:33Z</time>
      </trkpt>
      <trkpt lat="41.6442870" lon="2.1120270">
        <ele>457.2</ele>
        <time>2020-07-09T12:19:34Z</time>
      </trkpt>
      <trkpt lat="41.6442870" lon="2.1120270">
        <ele>457.2</ele>
        <time>2020-07-09T12:19:35Z</time>
      </trkpt>
      <trkpt lat="41.6442870" lon="2.1120270">
        <ele>457.2</ele>
        <time>2020-07-09T12:19:36Z</time>
      </trkpt>
      <trkpt lat="41.6442870" lon="2.1120270">
        <ele>457.2</ele>
        <time>2020-07-09T12:19:37Z</time>
      </trkpt>
      <trkpt lat="41.6442870" lon="2.1120270">
        <ele>457.2</ele>
        <time>2020-07-09T12:19:38Z</time>
      </trkpt>
      <trkpt lat="41.6442870" lon="2.1120270">
        <ele>457.2</ele>
        <time>2020-07-09T12:19:39Z</time>
      </trkpt>
      <trkpt lat="41.6442870" lon="2.1120270">
        <ele>457.2</ele>
        <time>2020-07-09T12:19:40Z</time>
      </trkpt>
      <trkpt lat="41.6442870" lon="2.1120270">
        <ele>457.2</ele>
        <time>2020-07-09T12:19:41Z</time>
      </trkpt>
      <trkpt lat="41.6442870" lon="2.1120270">
        <ele>457.2</ele>
        <time>2020-07-09T12:19:42Z</time>
      </trkpt>
      <trkpt lat="41.6442870" lon="2.1120270">
        <ele>457.2</ele>
        <time>2020-07-09T12:19:43Z</time>
      </trkpt>
      <trkpt lat="41.6442870" lon="2.1120270">
        <ele>457.2</ele>
        <time>2020-07-09T12:19:44Z</time>
      </trkpt>
      <trkpt lat="41.6442870" lon="2.1120270">
        <ele>457.2</ele>
        <time>2020-07-09T12:19:45Z</time>
      </trkpt>
      <trkpt lat="41.6442870" lon="2.1120270">
        <ele>457.2</ele>
        <time>2020-07-09T12:19:46Z</time>
      </trkpt>
      <trkpt lat="41.6442870" lon="2.1120270">
        <ele>457.2</ele>
        <time>2020-07-09T12:19:47Z</time>
      </trkpt>
      <trkpt lat="41.6442870" lon="2.1120270">
        <ele>457.2</ele>
        <time>2020-07-09T12:19:48Z</time>
      </trkpt>
      <trkpt lat="41.6442870" lon="2.1120270">
        <ele>457.2</ele>
        <time>2020-07-09T12:19:49Z</time>
      </trkpt>
      <trkpt lat="41.6442870" lon="2.1120270">
        <ele>457.2</ele>
        <time>2020-07-09T12:19:50Z</time>
      </trkpt>
      <trkpt lat="41.6442870" lon="2.1120260">
        <ele>457.2</ele>
        <time>2020-07-09T12:19:51Z</time>
      </trkpt>
      <trkpt lat="41.6442870" lon="2.1120260">
        <ele>457.2</ele>
        <time>2020-07-09T12:19:52Z</time>
      </trkpt>
      <trkpt lat="41.6442870" lon="2.1120260">
        <ele>457.2</ele>
        <time>2020-07-09T12:19:53Z</time>
      </trkpt>
      <trkpt lat="41.6442870" lon="2.1120270">
        <ele>457.2</ele>
        <time>2020-07-09T12:19:54Z</time>
      </trkpt>
      <trkpt lat="41.6442880" lon="2.1120270">
        <ele>457.3</ele>
        <time>2020-07-09T12:19:55Z</time>
      </trkpt>
      <trkpt lat="41.6442890" lon="2.1120280">
        <ele>457.3</ele>
        <time>2020-07-09T12:19:56Z</time>
      </trkpt>
      <trkpt lat="41.6442910" lon="2.1120300">
        <ele>457.3</ele>
        <time>2020-07-09T12:19:57Z</time>
      </trkpt>
      <trkpt lat="41.6442930" lon="2.1120330">
        <ele>457.4</ele>
        <time>2020-07-09T12:19:58Z</time>
      </trkpt>
      <trkpt lat="41.6442940" lon="2.1120350">
        <ele>457.4</ele>
        <time>2020-07-09T12:19:59Z</time>
      </trkpt>
      <trkpt lat="41.6442940" lon="2.1120370">
        <ele>457.4</ele>
        <time>2020-07-09T12:20:00Z</time>
      </trkpt>
      <trkpt lat="41.6442940" lon="2.1120390">
        <ele>457.5</ele>
        <time>2020-07-09T12:20:01Z</time>
      </trkpt>
      <trkpt lat="41.6442920" lon="2.1120410">
        <ele>457.5</ele>
        <time>2020-07-09T12:20:02Z</time>
      </trkpt>
      <trkpt lat="41.6442900" lon="2.1120430">
        <ele>457.5</ele>
        <time>2020-07-09T12:20:03Z</time>
      </trkpt>
      <trkpt lat="41.6442880" lon="2.1120450">
        <ele>457.6</ele>
        <time>2020-07-09T12:20:04Z</time>
      </trkpt>
      <trkpt lat="41.6442850" lon="2.1120470">
        <ele>457.6</ele>
        <time>2020-07-09T12:20:05Z</time>
      </trkpt>
      <trkpt lat="41.6442820" lon="2.1120510">
        <ele>457.7</ele>
        <time>2020-07-09T12:20:06Z</time>
      </trkpt>
      <trkpt lat="41.6442790" lon="2.1120560">
        <ele>457.8</ele>
        <time>2020-07-09T12:20:07Z</time>
      </trkpt>
      <trkpt lat="41.6442770" lon="2.1120620">
        <ele>457.9</ele>
        <time>2020-07-09T12:20:08Z</time>
      </trkpt>
      <trkpt lat="41.6442750" lon="2.1120700">
        <ele>458.0</ele>
        <time>2020-07-09T12:20:09Z</time>
      </trkpt>
      <trkpt lat="41.6442730" lon="2.1120800">
        <ele>458.1</ele>
        <time>2020-07-09T12:20:10Z</time>
      </trkpt>
      <trkpt lat="41.6442720" lon="2.1120910">
        <ele>458.2</ele>
        <time>2020-07-09T12:20:11Z</time>
      </trkpt>
      <trkpt lat="41.6442730" lon="2.1121020">
        <ele>458.4</ele>
        <time>2020-07-09T12:20:12Z</time>
      </trkpt>
      <trkpt lat="41.6442740" lon="2.1121130">
        <ele>458.5</ele>
        <time>2020-07-09T12:20:13Z</time>
      </trkpt>
      <trkpt lat="41.6442760" lon="2.1121210">
        <ele>458.6</ele>
        <time>2020-07-09T12:20:14Z</time>
      </trkpt>
      <trkpt lat="41.6442790" lon="2.1121280">
        <ele>458.7</ele>
        <time>2020-07-09T12:20:15Z</time>
      </trkpt>
      <trkpt lat="41.6442840" lon="2.1121310">
        <ele>458.8</ele>
        <time>2020-07-09T12:20:16Z</time>
      </trkpt>
      <trkpt lat="41.6442890" lon="2.1121340">
        <ele>458.9</ele>
        <time>2020-07-09T12:20:17Z</time>
      </trkpt>
      <trkpt lat="41.6442950" lon="2.1121350">
        <ele>459.0</ele>
        <time>2020-07-09T12:20:18Z</time>
      </trkpt>
      <trkpt lat="41.6443020" lon="2.1121350">
        <ele>459.1</ele>
        <time>2020-07-09T12:20:19Z</time>
      </trkpt>
      <trkpt lat="41.6443100" lon="2.1121350">
        <ele>459.2</ele>
        <time>2020-07-09T12:20:20Z</time>
      </trkpt>
      <trkpt lat="41.6443180" lon="2.1121340">
        <ele>459.3</ele>
        <time>2020-07-09T12:20:21Z</time>
      </trkpt>
      <trkpt lat="41.6443260" lon="2.1121330">
        <ele>459.4</ele>
        <time>2020-07-09T12:20:22Z</time>
      </trkpt>
      <trkpt lat="41.6443340" lon="2.1121330">
        <ele>459.6</ele>
        <time>2020-07-09T12:20:23Z</time>
      </trkpt>
      <trkpt lat="41.6443430" lon="2.1121320">
        <ele>459.7</ele>
        <time>2020-07-09T12:20:24Z</time>
      </trkpt>
      <trkpt lat="41.6443520" lon="2.1121320">
        <ele>459.9</ele>
        <time>2020-07-09T12:20:25Z</time>
      </trkpt>
      <trkpt lat="41.6443610" lon="2.1121320">
        <ele>460.0</ele>
        <time>2020-07-09T12:20:26Z</time>
      </trkpt>
      <trkpt lat="41.6443700" lon="2.1121320">
        <ele>460.1</ele>
        <time>2020-07-09T12:20:27Z</time>
      </trkpt>
      <trkpt lat="41.6443790" lon="2.1121340">
        <ele>460.3</ele>
        <time>2020-07-09T12:20:28Z</time>
      </trkpt>
      <trkpt lat="41.6443880" lon="2.1121360">
        <ele>460.4</ele>
        <time>2020-07-09T12:20:29Z</time>
      </trkpt>
      <trkpt lat="41.6443970" lon="2.1121380">
        <ele>460.5</ele>
        <time>2020-07-09T12:20:30Z</time>
      </trkpt>
      <trkpt lat="41.6444050" lon="2.1121410">
        <ele>460.7</ele>
        <time>2020-07-09T12:20:31Z</time>
      </trkpt>
      <trkpt lat="41.6444120" lon="2.1121440">
        <ele>460.8</ele>
        <time>2020-07-09T12:20:32Z</time>
      </trkpt>
      <trkpt lat="41.6444190" lon="2.1121460">
        <ele>460.9</ele>
        <time>2020-07-09T12:20:33Z</time>
      </trkpt>
      <trkpt lat="41.6444250" lon="2.1121490">
        <ele>460.9</ele>
        <time>2020-07-09T12:20:34Z</time>
      </trkpt>
      <trkpt lat="41.6444300" lon="2.1121510">
        <ele>461.0</ele>
        <time>2020-07-09T12:20:35Z</time>
      </trkpt>
      <trkpt lat="41.6444340" lon="2.1121530">
        <ele>461.1</ele>
        <time>2020-07-09T12:20:36Z</time>
      </trkpt>
      <trkpt lat="41.6444360" lon="2.1121540">
        <ele>461.1</ele>
        <time>2020-07-09T12:20:37Z</time>
      </trkpt>
      <trkpt lat="41.6444380" lon="2.1121550">
        <ele>461.1</ele>
        <time>2020-07-09T12:20:38Z</time>
      </trkpt>
      <trkpt lat="41.6444390" lon="2.1121550">
        <ele>461.1</ele>
        <time>2020-07-09T12:20:39Z</time>
      </trkpt>
      <trkpt lat="41.6444390" lon="2.1121550">
        <ele>461.1</ele>
        <time>2020-07-09T12:20:40Z</time>
      </trkpt>
      <trkpt lat="41.6444390" lon="2.1121550">
        <ele>461.1</ele>
        <time>2020-07-09T12:20:41Z</time>
      </trkpt>
      <trkpt lat="41.6444390" lon="2.1121550">
        <ele>461.1</ele>
        <time>2020-07-09T12:20:42Z</time>
      </trkpt>
      <trkpt lat="41.6444390" lon="2.1121550">
        <ele>461.1</ele>
        <time>2020-07-09T12:20:43Z</time>
      </trkpt>
      <trkpt lat="41.6444400" lon="2.1121560">
        <ele>461.2</ele>
        <time>2020-07-09T12:20:44Z</time>
      </trkpt>
      <trkpt lat="41.6444410" lon="2.1121570">
        <ele>461.2</ele>
        <time>2020-07-09T12:20:45Z</time>
      </trkpt>
      <trkpt lat="41.6444430" lon="2.1121590">
        <ele>461.2</ele>
        <time>2020-07-09T12:20:46Z</time>
      </trkpt>
      <trkpt lat="41.6444460" lon="2.1121610">
        <ele>461.2</ele>
        <time>2020-07-09T12:20:47Z</time>
      </trkpt>
      <trkpt lat="41.6444490" lon="2.1121640">
        <ele>461.3</ele>
        <time>2020-07-09T12:20:48Z</time>
      </trkpt>
      <trkpt lat="41.6444530" lon="2.1121670">
        <ele>461.4</ele>
        <time>2020-07-09T12:20:49Z</time>
      </trkpt>
      <trkpt lat="41.6444580" lon="2.1121710">
        <ele>461.4</ele>
        <time>2020-07-09T12:20:50Z</time>
      </trkpt>
      <trkpt lat="41.6444630" lon="2.1121760">
        <ele>461.5</ele>
        <time>2020-07-09T12:20:51Z</time>
      </trkpt>
      <trkpt lat="41.6444680" lon="2.1121800">
        <ele>461.6</ele>
        <time>2020-07-09T12:20:52Z</time>
      </trkpt>
      <trkpt lat="41.6444730" lon="2.1121850">
        <ele>461.7</ele>
        <time>2020-07-09T12:20:53Z</time>
      </trkpt>
      <trkpt lat="41.6444780" lon="2.1121890">
        <ele>461.7</ele>
        <time>2020-07-09T12:20:54Z</time>
      </trkpt>
      <trkpt lat="41.6444830" lon="2.1121940">
        <ele>461.8</ele>
        <time>2020-07-09T12:20:55Z</time>
      </trkpt>
      <trkpt lat="41.6444880" lon="2.1121990">
        <ele>461.9</ele>
        <time>2020-07-09T12:20:56Z</time>
      </trkpt>
      <trkpt lat="41.6444940" lon="2.1122030">
        <ele>462.0</ele>
        <time>2020-07-09T12:20:57Z</time>
      </trkpt>
      <trkpt lat="41.6444980" lon="2.1122080">
        <ele>463.0</ele>
        <time>2020-07-09T12:20:58Z</time>
      </trkpt>
      <trkpt lat="41.6445030" lon="2.1122130">
        <ele>463.0</ele>
        <time>2020-07-09T12:20:59Z</time>
      </trkpt>
      <trkpt lat="41.6445080" lon="2.1122170">
        <ele>463.0</ele>
        <time>2020-07-09T12:21:00Z</time>
      </trkpt>
      <trkpt lat="41.6445120" lon="2.1122220">
        <ele>463.0</ele>
        <time>2020-07-09T12:21:01Z</time>
      </trkpt>
      <trkpt lat="41.6445170" lon="2.1122270">
        <ele>463.0</ele>
        <time>2020-07-09T12:21:02Z</time>
      </trkpt>
      <trkpt lat="41.6445210" lon="2.1122320">
        <ele>463.0</ele>
        <time>2020-07-09T12:21:03Z</time>
      </trkpt>
      <trkpt lat="41.6445250" lon="2.1122370">
        <ele>463.0</ele>
        <time>2020-07-09T12:21:04Z</time>
      </trkpt>
      <trkpt lat="41.6445280" lon="2.1122410">
        <ele>463.0</ele>
        <time>2020-07-09T12:21:05Z</time>
      </trkpt>
      <trkpt lat="41.6445320" lon="2.1122460">
        <ele>463.0</ele>
        <time>2020-07-09T12:21:06Z</time>
      </trkpt>
      <trkpt lat="41.6445350" lon="2.1122500">
        <ele>463.0</ele>
        <time>2020-07-09T12:21:07Z</time>
      </trkpt>
      <trkpt lat="41.6445370" lon="2.1122540">
        <ele>463.0</ele>
        <time>2020-07-09T12:21:08Z</time>
      </trkpt>
      <trkpt lat="41.6445400" lon="2.1122580">
        <ele>463.0</ele>
        <time>2020-07-09T12:21:09Z</time>
      </trkpt>
      <trkpt lat="41.6445420" lon="2.1122610">
        <ele>463.0</ele>
        <time>2020-07-09T12:21:10Z</time>
      </trkpt>
      <trkpt lat="41.6445440" lon="2.1122630">
        <ele>463.0</ele>
        <time>2020-07-09T12:21:11Z</time>
      </trkpt>
      <trkpt lat="41.6445450" lon="2.1122640">
        <ele>463.0</ele>
        <time>2020-07-09T12:21:12Z</time>
      </trkpt>
      <trkpt lat="41.6445460" lon="2.1122650">
        <ele>463.0</ele>
        <time>2020-07-09T12:21:13Z</time>
      </trkpt>
      <trkpt lat="41.6445460" lon="2.1122660">
        <ele>463.0</ele>
        <time>2020-07-09T12:21:14Z</time>
      </trkpt>
      <trkpt lat="41.6445470" lon="2.1122660">
        <ele>463.0</ele>
        <time>2020-07-09T12:21:15Z</time>
      </trkpt>
      <trkpt lat="41.6445470" lon="2.1122660">
        <ele>463.0</ele>
        <time>2020-07-09T12:21:16Z</time>
      </trkpt>
      <trkpt lat="41.6445470" lon="2.1122650">
        <ele>463.0</ele>
        <time>2020-07-09T12:21:17Z</time>
      </trkpt>
      <trkpt lat="41.6445470" lon="2.1122650">
        <ele>463.0</ele>
        <time>2020-07-09T12:21:18Z</time>
      </trkpt>
      <trkpt lat="41.6445480" lon="2.1122650">
        <ele>463.0</ele>
        <time>2020-07-09T12:21:19Z</time>
      </trkpt>
      <trkpt lat="41.6445480" lon="2.1122650">
        <ele>463.0</ele>
        <time>2020-07-09T12:21:20Z</time>
      </trkpt>
      <trkpt lat="41.6445480" lon="2.1122650">
        <ele>463.0</ele>
        <time>2020-07-09T12:21:21Z</time>
      </trkpt>
      <trkpt lat="41.6445490" lon="2.1122650">
        <ele>463.0</ele>
        <time>2020-07-09T12:21:22Z</time>
      </trkpt>
      <trkpt lat="41.6445510" lon="2.1122650">
        <ele>463.0</ele>
        <time>2020-07-09T12:21:23Z</time>
      </trkpt>
      <trkpt lat="41.6445540" lon="2.1122630">
        <ele>463.0</ele>
        <time>2020-07-09T12:21:24Z</time>
      </trkpt>
      <trkpt lat="41.6445590" lon="2.1122600">
        <ele>463.0</ele>
        <time>2020-07-09T12:21:25Z</time>
      </trkpt>
      <trkpt lat="41.6445700" lon="2.1122570">
        <ele>463.0</ele>
        <time>2020-07-09T12:21:26Z</time>
      </trkpt>
      <trkpt lat="41.6445940" lon="2.1122560">
        <ele>463.8</ele>
        <time>2020-07-09T12:21:27Z</time>
      </trkpt>
      <trkpt lat="41.6446090" lon="2.1122570">
        <ele>464.0</ele>
        <time>2020-07-09T12:21:28Z</time>
      </trkpt>
      <trkpt lat="41.6446160" lon="2.1122580">
        <ele>464.1</ele>
        <time>2020-07-09T12:21:29Z</time>
      </trkpt>
      <trkpt lat="41.6446220" lon="2.1122600">
        <ele>464.1</ele>
        <time>2020-07-09T12:21:30Z</time>
      </trkpt>
      <trkpt lat="41.6446280" lon="2.1122620">
        <ele>464.2</ele>
        <time>2020-07-09T12:21:31Z</time>
      </trkpt>
      <trkpt lat="41.6446330" lon="2.1122640">
        <ele>464.3</ele>
        <time>2020-07-09T12:21:32Z</time>
      </trkpt>
      <trkpt lat="41.6446390" lon="2.1122650">
        <ele>464.4</ele>
        <time>2020-07-09T12:21:33Z</time>
      </trkpt>
      <trkpt lat="41.6446450" lon="2.1122670">
        <ele>464.5</ele>
        <time>2020-07-09T12:21:34Z</time>
      </trkpt>
      <trkpt lat="41.6446510" lon="2.1122690">
        <ele>464.6</ele>
        <time>2020-07-09T12:21:35Z</time>
      </trkpt>
      <trkpt lat="41.6446560" lon="2.1122720">
        <ele>464.6</ele>
        <time>2020-07-09T12:21:36Z</time>
      </trkpt>
      <trkpt lat="41.6446620" lon="2.1122740">
        <ele>464.7</ele>
        <time>2020-07-09T12:21:37Z</time>
      </trkpt>
      <trkpt lat="41.6446680" lon="2.1122760">
        <ele>464.8</ele>
        <time>2020-07-09T12:21:38Z</time>
      </trkpt>
      <trkpt lat="41.6446740" lon="2.1122780">
        <ele>464.9</ele>
        <time>2020-07-09T12:21:39Z</time>
      </trkpt>
      <trkpt lat="41.6446800" lon="2.1122810">
        <ele>465.0</ele>
        <time>2020-07-09T12:21:40Z</time>
      </trkpt>
      <trkpt lat="41.6446910" lon="2.1122850">
        <ele>465.1</ele>
        <time>2020-07-09T12:21:41Z</time>
      </trkpt>
      <trkpt lat="41.6446960" lon="2.1122870">
        <ele>465.2</ele>
        <time>2020-07-09T12:21:42Z</time>
      </trkpt>
      <trkpt lat="41.6447000" lon="2.1122880">
        <ele>465.3</ele>
        <time>2020-07-09T12:21:43Z</time>
      </trkpt>
      <trkpt lat="41.6447050" lon="2.1122900">
        <ele>465.3</ele>
        <time>2020-07-09T12:21:44Z</time>
      </trkpt>
      <trkpt lat="41.6447100" lon="2.1122920">
        <ele>465.4</ele>
        <time>2020-07-09T12:21:45Z</time>
      </trkpt>
      <trkpt lat="41.6447160" lon="2.1122940">
        <ele>465.5</ele>
        <time>2020-07-09T12:21:46Z</time>
      </trkpt>
      <trkpt lat="41.6447230" lon="2.1122960">
        <ele>465.6</ele>
        <time>2020-07-09T12:21:47Z</time>
      </trkpt>
      <trkpt lat="41.6447290" lon="2.1122980">
        <ele>465.7</ele>
        <time>2020-07-09T12:21:48Z</time>
      </trkpt>
      <trkpt lat="41.6447350" lon="2.1123010">
        <ele>465.8</ele>
        <time>2020-07-09T12:21:49Z</time>
      </trkpt>
      <trkpt lat="41.6447420" lon="2.1123020">
        <ele>465.9</ele>
        <time>2020-07-09T12:21:50Z</time>
      </trkpt>
      <trkpt lat="41.6447480" lon="2.1123040">
        <ele>466.0</ele>
        <time>2020-07-09T12:21:51Z</time>
      </trkpt>
      <trkpt lat="41.6447550" lon="2.1123060">
        <ele>466.1</ele>
        <time>2020-07-09T12:21:52Z</time>
      </trkpt>
      <trkpt lat="41.6447610" lon="2.1123080">
        <ele>466.2</ele>
        <time>2020-07-09T12:21:53Z</time>
      </trkpt>
      <trkpt lat="41.6447680" lon="2.1123090">
        <ele>466.3</ele>
        <time>2020-07-09T12:21:54Z</time>
      </trkpt>
      <trkpt lat="41.6447750" lon="2.1123110">
        <ele>466.5</ele>
        <time>2020-07-09T12:21:55Z</time>
      </trkpt>
      <trkpt lat="41.6447820" lon="2.1123120">
        <ele>466.6</ele>
        <time>2020-07-09T12:21:56Z</time>
      </trkpt>
      <trkpt lat="41.6447890" lon="2.1123130">
        <ele>466.7</ele>
        <time>2020-07-09T12:21:57Z</time>
      </trkpt>
      <trkpt lat="41.6447960" lon="2.1123140">
        <ele>466.8</ele>
        <time>2020-07-09T12:21:58Z</time>
      </trkpt>
      <trkpt lat="41.6448040" lon="2.1123140">
        <ele>466.9</ele>
        <time>2020-07-09T12:21:59Z</time>
      </trkpt>
      <trkpt lat="41.6448110" lon="2.1123140">
        <ele>467.0</ele>
        <time>2020-07-09T12:22:00Z</time>
      </trkpt>
      <trkpt lat="41.6448180" lon="2.1123140">
        <ele>467.1</ele>
        <time>2020-07-09T12:22:01Z</time>
      </trkpt>
      <trkpt lat="41.6448240" lon="2.1123130">
        <ele>467.2</ele>
        <time>2020-07-09T12:22:02Z</time>
      </trkpt>
      <trkpt lat="41.6448310" lon="2.1123120">
        <ele>467.3</ele>
        <time>2020-07-09T12:22:03Z</time>
      </trkpt>
      <trkpt lat="41.6448370" lon="2.1123100">
        <ele>467.4</ele>
        <time>2020-07-09T12:22:04Z</time>
      </trkpt>
      <trkpt lat="41.6448420" lon="2.1123080">
        <ele>467.5</ele>
        <time>2020-07-09T12:22:05Z</time>
      </trkpt>
      <trkpt lat="41.6448470" lon="2.1123050">
        <ele>467.6</ele>
        <time>2020-07-09T12:22:06Z</time>
      </trkpt>
      <trkpt lat="41.6448520" lon="2.1123020">
        <ele>467.7</ele>
        <time>2020-07-09T12:22:07Z</time>
      </trkpt>
      <trkpt lat="41.6448560" lon="2.1122980">
        <ele>467.8</ele>
        <time>2020-07-09T12:22:08Z</time>
      </trkpt>
      <trkpt lat="41.6448590" lon="2.1122940">
        <ele>467.9</ele>
        <time>2020-07-09T12:22:09Z</time>
      </trkpt>
      <trkpt lat="41.6448620" lon="2.1122910">
        <ele>467.9</ele>
        <time>2020-07-09T12:22:10Z</time>
      </trkpt>
      <trkpt lat="41.6448640" lon="2.1122870">
        <ele>468.0</ele>
        <time>2020-07-09T12:22:11Z</time>
      </trkpt>
      <trkpt lat="41.6448660" lon="2.1122840">
        <ele>468.0</ele>
        <time>2020-07-09T12:22:12Z</time>
      </trkpt>
      <trkpt lat="41.6448700" lon="2.1122790">
        <ele>468.1</ele>
        <time>2020-07-09T12:22:13Z</time>
      </trkpt>
      <trkpt lat="41.6448720" lon="2.1122770">
        <ele>468.2</ele>
        <time>2020-07-09T12:22:14Z</time>
      </trkpt>
      <trkpt lat="41.6448750" lon="2.1122740">
        <ele>468.2</ele>
        <time>2020-07-09T12:22:15Z</time>
      </trkpt>
      <trkpt lat="41.6448770" lon="2.1122720">
        <ele>468.3</ele>
        <time>2020-07-09T12:22:16Z</time>
      </trkpt>
      <trkpt lat="41.6448790" lon="2.1122690">
        <ele>468.3</ele>
        <time>2020-07-09T12:22:17Z</time>
      </trkpt>
      <trkpt lat="41.6448810" lon="2.1122670">
        <ele>468.4</ele>
        <time>2020-07-09T12:22:18Z</time>
      </trkpt>
      <trkpt lat="41.6448840" lon="2.1122640">
        <ele>468.4</ele>
        <time>2020-07-09T12:22:19Z</time>
      </trkpt>
      <trkpt lat="41.6448860" lon="2.1122620">
        <ele>468.5</ele>
        <time>2020-07-09T12:22:20Z</time>
      </trkpt>
      <trkpt lat="41.6448880" lon="2.1122590">
        <ele>468.5</ele>
        <time>2020-07-09T12:22:21Z</time>
      </trkpt>
      <trkpt lat="41.6448900" lon="2.1122560">
        <ele>468.6</ele>
        <time>2020-07-09T12:22:22Z</time>
      </trkpt>
      <trkpt lat="41.6448920" lon="2.1122540">
        <ele>468.6</ele>
        <time>2020-07-09T12:22:23Z</time>
      </trkpt>
      <trkpt lat="41.6448950" lon="2.1122510">
        <ele>468.7</ele>
        <time>2020-07-09T12:22:24Z</time>
      </trkpt>
      <trkpt lat="41.6448970" lon="2.1122490">
        <ele>468.7</ele>
        <time>2020-07-09T12:22:25Z</time>
      </trkpt>
      <trkpt lat="41.6448990" lon="2.1122460">
        <ele>468.8</ele>
        <time>2020-07-09T12:22:26Z</time>
      </trkpt>
      <trkpt lat="41.6449010" lon="2.1122440">
        <ele>468.8</ele>
        <time>2020-07-09T12:22:27Z</time>
      </trkpt>
      <trkpt lat="41.6449040" lon="2.1122410">
        <ele>468.9</ele>
        <time>2020-07-09T12:22:28Z</time>
      </trkpt>
      <trkpt lat="41.6449060" lon="2.1122380">
        <ele>469.0</ele>
        <time>2020-07-09T12:22:29Z</time>
      </trkpt>
      <trkpt lat="41.6449080" lon="2.1122360">
        <ele>469.0</ele>
        <time>2020-07-09T12:22:30Z</time>
      </trkpt>
      <trkpt lat="41.6449100" lon="2.1122330">
        <ele>469.1</ele>
        <time>2020-07-09T12:22:31Z</time>
      </trkpt>
      <trkpt lat="41.6449120" lon="2.1122310">
        <ele>469.1</ele>
        <time>2020-07-09T12:22:32Z</time>
      </trkpt>
      <trkpt lat="41.6449150" lon="2.1122280">
        <ele>469.2</ele>
        <time>2020-07-09T12:22:33Z</time>
      </trkpt>
      <trkpt lat="41.6449170" lon="2.1122260">
        <ele>469.2</ele>
        <time>2020-07-09T12:22:34Z</time>
      </trkpt>
      <trkpt lat="41.6449190" lon="2.1122230">
        <ele>469.3</ele>
        <time>2020-07-09T12:22:35Z</time>
      </trkpt>
      <trkpt lat="41.6449210" lon="2.1122210">
        <ele>469.3</ele>
        <time>2020-07-09T12:22:36Z</time>
      </trkpt>
      <trkpt lat="41.6449230" lon="2.1122180">
        <ele>469.4</ele>
        <time>2020-07-09T12:22:37Z</time>
      </trkpt>
      <trkpt lat="41.6449260" lon="2.1122150">
        <ele>469.4</ele>
        <time>2020-07-09T12:22:38Z</time>
      </trkpt>
      <trkpt lat="41.6449280" lon="2.1122130">
        <ele>469.5</ele>
        <time>2020-07-09T12:22:39Z</time>
      </trkpt>
      <trkpt lat="41.6449300" lon="2.1122100">
        <ele>469.5</ele>
        <time>2020-07-09T12:22:40Z</time>
      </trkpt>
      <trkpt lat="41.6449320" lon="2.1122080">
        <ele>469.6</ele>
        <time>2020-07-09T12:22:41Z</time>
      </trkpt>
      <trkpt lat="41.6449350" lon="2.1122050">
        <ele>469.7</ele>
        <time>2020-07-09T12:22:42Z</time>
      </trkpt>
      <trkpt lat="41.6449370" lon="2.1122030">
        <ele>469.7</ele>
        <time>2020-07-09T12:22:43Z</time>
      </trkpt>
      <trkpt lat="41.6449390" lon="2.1122000">
        <ele>469.8</ele>
        <time>2020-07-09T12:22:44Z</time>
      </trkpt>
      <trkpt lat="41.6449410" lon="2.1121970">
        <ele>469.8</ele>
        <time>2020-07-09T12:22:45Z</time>
      </trkpt>
      <trkpt lat="41.6449430" lon="2.1121950">
        <ele>469.9</ele>
        <time>2020-07-09T12:22:46Z</time>
      </trkpt>
      <trkpt lat="41.6449460" lon="2.1121920">
        <ele>469.9</ele>
        <time>2020-07-09T12:22:47Z</time>
      </trkpt>
      <trkpt lat="41.6449480" lon="2.1121900">
        <ele>470.0</ele>
        <time>2020-07-09T12:22:48Z</time>
      </trkpt>
      <trkpt lat="41.6449500" lon="2.1121870">
        <ele>470.0</ele>
        <time>2020-07-09T12:22:49Z</time>
      </trkpt>
      <trkpt lat="41.6449520" lon="2.1121850">
        <ele>470.1</ele>
        <time>2020-07-09T12:22:50Z</time>
      </trkpt>
      <trkpt lat="41.6449550" lon="2.1121820">
        <ele>470.1</ele>
        <time>2020-07-09T12:22:51Z</time>
      </trkpt>
      <trkpt lat="41.6449570" lon="2.1121800">
        <ele>470.2</ele>
        <time>2020-07-09T12:22:52Z</time>
      </trkpt>
      <trkpt lat="41.6449590" lon="2.1121770">
        <ele>470.3</ele>
        <time>2020-07-09T12:22:53Z</time>
      </trkpt>
      <trkpt lat="41.6449630" lon="2.1121790">
        <ele>470.3</ele>
        <time>2020-07-09T12:22:54Z</time>
      </trkpt>
      <trkpt lat="41.6449670" lon="2.1121810">
        <ele>470.4</ele>
        <time>2020-07-09T12:22:55Z</time>
      </trkpt>
      <trkpt lat="41.6449710" lon="2.1121840">
        <ele>470.5</ele>
        <time>2020-07-09T12:22:56Z</time>
      </trkpt>
      <trkpt lat="41.6449750" lon="2.1121860">
        <ele>470.6</ele>
        <time>2020-07-09T12:22:57Z</time>
      </trkpt>
      <trkpt lat="41.6449780" lon="2.1121880">
        <ele>470.7</ele>
        <time>2020-07-09T12:22:58Z</time>
      </trkpt>
      <trkpt lat="41.6449800" lon="2.1121890">
        <ele>470.7</ele>
        <time>2020-07-09T12:22:59Z</time>
      </trkpt>
      <trkpt lat="41.6449820" lon="2.1121910">
        <ele>470.7</ele>
        <time>2020-07-09T12:23:00Z</time>
      </trkpt>
      <trkpt lat="41.6449830" lon="2.1121910">
        <ele>470.8</ele>
        <time>2020-07-09T12:23:01Z</time>
      </trkpt>
      <trkpt lat="41.6449850" lon="2.1121920">
        <ele>470.8</ele>
        <time>2020-07-09T12:23:02Z</time>
      </trkpt>
      <trkpt lat="41.6449860" lon="2.1121930">
        <ele>470.8</ele>
        <time>2020-07-09T12:23:03Z</time>
      </trkpt>
      <trkpt lat="41.6449860" lon="2.1121930">
        <ele>470.8</ele>
        <time>2020-07-09T12:23:04Z</time>
      </trkpt>
      <trkpt lat="41.6449870" lon="2.1121930">
        <ele>470.8</ele>
        <time>2020-07-09T12:23:05Z</time>
      </trkpt>
      <trkpt lat="41.6449870" lon="2.1121930">
        <ele>470.8</ele>
        <time>2020-07-09T12:23:06Z</time>
      </trkpt>
      <trkpt lat="41.6449870" lon="2.1121930">
        <ele>470.8</ele>
        <time>2020-07-09T12:23:07Z</time>
      </trkpt>
      <trkpt lat="41.6449870" lon="2.1121930">
        <ele>470.8</ele>
        <time>2020-07-09T12:23:08Z</time>
      </trkpt>
      <trkpt lat="41.6449870" lon="2.1121930">
        <ele>470.8</ele>
        <time>2020-07-09T12:23:09Z</time>
      </trkpt>
      <trkpt lat="41.6449870" lon="2.1121930">
        <ele>470.8</ele>
        <time>2020-07-09T12:23:10Z</time>
      </trkpt>
      <trkpt lat="41.6449870" lon="2.1121930">
        <ele>470.8</ele>
        <time>2020-07-09T12:23:11Z</time>
      </trkpt>
      <trkpt lat="41.6449870" lon="2.1121930">
        <ele>470.8</ele>
        <time>2020-07-09T12:23:12Z</time>
      </trkpt>
      <trkpt lat="41.6449870" lon="2.1121940">
        <ele>470.9</ele>
        <time>2020-07-09T12:23:13Z</time>
      </trkpt>
      <trkpt lat="41.6449880" lon="2.1121940">
        <ele>470.9</ele>
        <time>2020-07-09T12:23:14Z</time>
      </trkpt>
      <trkpt lat="41.6449880" lon="2.1121950">
        <ele>470.9</ele>
        <time>2020-07-09T12:23:15Z</time>
      </trkpt>
      <trkpt lat="41.6449890" lon="2.1121960">
        <ele>470.9</ele>
        <time>2020-07-09T12:23:16Z</time>
      </trkpt>
      <trkpt lat="41.6449910" lon="2.1121990">
        <ele>471.0</ele>
        <time>2020-07-09T12:23:17Z</time>
      </trkpt>
      <trkpt lat="41.6449960" lon="2.1122030">
        <ele>471.1</ele>
        <time>2020-07-09T12:23:18Z</time>
      </trkpt>
      <trkpt lat="41.6450030" lon="2.1122110">
        <ele>471.3</ele>
        <time>2020-07-09T12:23:19Z</time>
      </trkpt>
      <trkpt lat="41.6450100" lon="2.1122180">
        <ele>471.4</ele>
        <time>2020-07-09T12:23:20Z</time>
      </trkpt>
      <trkpt lat="41.6450150" lon="2.1122230">
        <ele>471.6</ele>
        <time>2020-07-09T12:23:21Z</time>
      </trkpt>
      <trkpt lat="41.6450170" lon="2.1122260">
        <ele>471.6</ele>
        <time>2020-07-09T12:23:22Z</time>
      </trkpt>
      <trkpt lat="41.6450180" lon="2.1122260">
        <ele>471.7</ele>
        <time>2020-07-09T12:23:23Z</time>
      </trkpt>
      <trkpt lat="41.6450180" lon="2.1122260">
        <ele>471.7</ele>
        <time>2020-07-09T12:23:24Z</time>
      </trkpt>
      <trkpt lat="41.6450180" lon="2.1122260">
        <ele>471.7</ele>
        <time>2020-07-09T12:23:25Z</time>
      </trkpt>
      <trkpt lat="41.6450180" lon="2.1122270">
        <ele>471.7</ele>
        <time>2020-07-09T12:23:26Z</time>
      </trkpt>
      <trkpt lat="41.6450180" lon="2.1122270">
        <ele>471.7</ele>
        <time>2020-07-09T12:23:27Z</time>
      </trkpt>
      <trkpt lat="41.6450180" lon="2.1122270">
        <ele>471.7</ele>
        <time>2020-07-09T12:23:28Z</time>
      </trkpt>
      <trkpt lat="41.6450180" lon="2.1122270">
        <ele>471.7</ele>
        <time>2020-07-09T12:23:29Z</time>
      </trkpt>
      <trkpt lat="41.6450180" lon="2.1122270">
        <ele>471.7</ele>
        <time>2020-07-09T12:23:30Z</time>
      </trkpt>
      <trkpt lat="41.6450180" lon="2.1122270">
        <ele>471.7</ele>
        <time>2020-07-09T12:23:31Z</time>
      </trkpt>
      <trkpt lat="41.6450180" lon="2.1122270">
        <ele>471.7</ele>
        <time>2020-07-09T12:23:32Z</time>
      </trkpt>
      <trkpt lat="41.6450180" lon="2.1122270">
        <ele>471.7</ele>
        <time>2020-07-09T12:23:33Z</time>
      </trkpt>
      <trkpt lat="41.6450180" lon="2.1122270">
        <ele>471.7</ele>
        <time>2020-07-09T12:23:34Z</time>
      </trkpt>
      <trkpt lat="41.6450180" lon="2.1122270">
        <ele>471.7</ele>
        <time>2020-07-09T12:23:35Z</time>
      </trkpt>
      <trkpt lat="41.6450180" lon="2.1122270">
        <ele>471.7</ele>
        <time>2020-07-09T12:23:36Z</time>
      </trkpt>
      <trkpt lat="41.6450180" lon="2.1122270">
        <ele>471.7</ele>
        <time>2020-07-09T12:23:37Z</time>
      </trkpt>
      <trkpt lat="41.6450190" lon="2.1122280">
        <ele>471.7</ele>
        <time>2020-07-09T12:23:38Z</time>
      </trkpt>
      <trkpt lat="41.6450220" lon="2.1122340">
        <ele>471.8</ele>
        <time>2020-07-09T12:23:39Z</time>
      </trkpt>
      <trkpt lat="41.6450290" lon="2.1122480">
        <ele>472.1</ele>
        <time>2020-07-09T12:23:40Z</time>
      </trkpt>
      <trkpt lat="41.6450370" lon="2.1122650">
        <ele>472.4</ele>
        <time>2020-07-09T12:23:41Z</time>
      </trkpt>
      <trkpt lat="41.6450430" lon="2.1122770">
        <ele>472.6</ele>
        <time>2020-07-09T12:23:42Z</time>
      </trkpt>
      <trkpt lat="41.6450470" lon="2.1122840">
        <ele>472.7</ele>
        <time>2020-07-09T12:23:43Z</time>
      </trkpt>
      <trkpt lat="41.6450490" lon="2.1122880">
        <ele>472.8</ele>
        <time>2020-07-09T12:23:44Z</time>
      </trkpt>
      <trkpt lat="41.6450500" lon="2.1122890">
        <ele>472.8</ele>
        <time>2020-07-09T12:23:45Z</time>
      </trkpt>
      <trkpt lat="41.6450500" lon="2.1122890">
        <ele>472.8</ele>
        <time>2020-07-09T12:23:46Z</time>
      </trkpt>
      <trkpt lat="41.6450500" lon="2.1122890">
        <ele>472.8</ele>
        <time>2020-07-09T12:23:47Z</time>
      </trkpt>
      <trkpt lat="41.6450500" lon="2.1122890">
        <ele>472.8</ele>
        <time>2020-07-09T12:23:48Z</time>
      </trkpt>
      <trkpt lat="41.6450500" lon="2.1122890">
        <ele>472.8</ele>
        <time>2020-07-09T12:23:49Z</time>
      </trkpt>
      <trkpt lat="41.6450500" lon="2.1122890">
        <ele>472.8</ele>
        <time>2020-07-09T12:23:50Z</time>
      </trkpt>
      <trkpt lat="41.6450500" lon="2.1122890">
        <ele>472.8</ele>
        <time>2020-07-09T12:23:51Z</time>
      </trkpt>
      <trkpt lat="41.6450500" lon="2.1122890">
        <ele>472.8</ele>
        <time>2020-07-09T12:23:52Z</time>
      </trkpt>
      <trkpt lat="41.6450500" lon="2.1122890">
        <ele>472.8</ele>
        <time>2020-07-09T12:23:53Z</time>
      </trkpt>
      <trkpt lat="41.6450500" lon="2.1122900">
        <ele>472.9</ele>
        <time>2020-07-09T12:23:54Z</time>
      </trkpt>
      <trkpt lat="41.6450500" lon="2.1122900">
        <ele>472.9</ele>
        <time>2020-07-09T12:23:55Z</time>
      </trkpt>
      <trkpt lat="41.6450500" lon="2.1122900">
        <ele>472.9</ele>
        <time>2020-07-09T12:23:56Z</time>
      </trkpt>
      <trkpt lat="41.6450500" lon="2.1122900">
        <ele>472.9</ele>
        <time>2020-07-09T12:23:57Z</time>
      </trkpt>
      <trkpt lat="41.6450500" lon="2.1122900">
        <ele>472.9</ele>
        <time>2020-07-09T12:23:58Z</time>
      </trkpt>
      <trkpt lat="41.6450500" lon="2.1122900">
        <ele>472.9</ele>
        <time>2020-07-09T12:23:59Z</time>
      </trkpt>
      <trkpt lat="41.6450500" lon="2.1122900">
        <ele>472.9</ele>
        <time>2020-07-09T12:24:00Z</time>
      </trkpt>
      <trkpt lat="41.6450500" lon="2.1122900">
        <ele>472.9</ele>
        <time>2020-07-09T12:24:01Z</time>
      </trkpt>
      <trkpt lat="41.6450500" lon="2.1122900">
        <ele>472.9</ele>
        <time>2020-07-09T12:24:02Z</time>
      </trkpt>
      <trkpt lat="41.6450500" lon="2.1122900">
        <ele>472.9</ele>
        <time>2020-07-09T12:24:03Z</time>
      </trkpt>
      <trkpt lat="41.6450500" lon="2.1122900">
        <ele>472.9</ele>
        <time>2020-07-09T12:24:04Z</time>
      </trkpt>
      <trkpt lat="41.6450500" lon="2.1122900">
        <ele>472.9</ele>
        <time>2020-07-09T12:24:05Z</time>
      </trkpt>
      <trkpt lat="41.6450500" lon="2.1122900">
        <ele>472.9</ele>
        <time>2020-07-09T12:24:06Z</time>
      </trkpt>
      <trkpt lat="41.6450500" lon="2.1122900">
        <ele>472.9</ele>
        <time>2020-07-09T12:24:07Z</time>
      </trkpt>
      <trkpt lat="41.6450500" lon="2.1122900">
        <ele>472.9</ele>
        <time>2020-07-09T12:24:08Z</time>
      </trkpt>
      <trkpt lat="41.6450500" lon="2.1122900">
        <ele>472.9</ele>
        <time>2020-07-09T12:24:09Z</time>
      </trkpt>
      <trkpt lat="41.6450500" lon="2.1122900">
        <ele>472.9</ele>
        <time>2020-07-09T12:24:10Z</time>
      </trkpt>
      <trkpt lat="41.6450500" lon="2.1122900">
        <ele>472.9</ele>
        <time>2020-07-09T12:24:11Z</time>
      </trkpt>
      <trkpt lat="41.6450500" lon="2.1122900">
        <ele>472.9</ele>
        <time>2020-07-09T12:24:12Z</time>
      </trkpt>
      <trkpt lat="41.6450500" lon="2.1122900">
        <ele>472.9</ele>
        <time>2020-07-09T12:24:13Z</time>
      </trkpt>
      <trkpt lat="41.6450500" lon="2.1122900">
        <ele>472.9</ele>
        <time>2020-07-09T12:24:14Z</time>
      </trkpt>
      <trkpt lat="41.6450500" lon="2.1122900">
        <ele>472.9</ele>
        <time>2020-07-09T12:24:15Z</time>
      </trkpt>
      <trkpt lat="41.6450500" lon="2.1122900">
        <ele>472.9</ele>
        <time>2020-07-09T12:24:16Z</time>
      </trkpt>
      <trkpt lat="41.6450500" lon="2.1122900">
        <ele>472.9</ele>
        <time>2020-07-09T12:24:17Z</time>
      </trkpt>
      <trkpt lat="41.6450500" lon="2.1122900">
        <ele>472.9</ele>
        <time>2020-07-09T12:24:18Z</time>
      </trkpt>
      <trkpt lat="41.6450500" lon="2.1122900">
        <ele>472.9</ele>
        <time>2020-07-09T12:24:19Z</time>
      </trkpt>
      <trkpt lat="41.6450500" lon="2.1122900">
        <ele>472.9</ele>
        <time>2020-07-09T12:24:20Z</time>
      </trkpt>
      <trkpt lat="41.6450500" lon="2.1122900">
        <ele>472.9</ele>
        <time>2020-07-09T12:24:21Z</time>
      </trkpt>
      <trkpt lat="41.6450500" lon="2.1122900">
        <ele>472.9</ele>
        <time>2020-07-09T12:24:22Z</time>
      </trkpt>
      <trkpt lat="41.6450500" lon="2.1122900">
        <ele>472.9</ele>
        <time>2020-07-09T12:24:23Z</time>
      </trkpt>
      <trkpt lat="41.6450500" lon="2.1122900">
        <ele>472.9</ele>
        <time>2020-07-09T12:24:24Z</time>
      </trkpt>
      <trkpt lat="41.6450500" lon="2.1122900">
        <ele>472.9</ele>
        <time>2020-07-09T12:24:25Z</time>
      </trkpt>
      <trkpt lat="41.6450500" lon="2.1122900">
        <ele>472.9</ele>
        <time>2020-07-09T12:24:26Z</time>
      </trkpt>
      <trkpt lat="41.6450500" lon="2.1122900">
        <ele>472.9</ele>
        <time>2020-07-09T12:24:27Z</time>
      </trkpt>
      <trkpt lat="41.6450500" lon="2.1122900">
        <ele>472.9</ele>
        <time>2020-07-09T12:24:28Z</time>
      </trkpt>
      <trkpt lat="41.6450500" lon="2.1122900">
        <ele>472.9</ele>
        <time>2020-07-09T12:24:29Z</time>
      </trkpt>
      <trkpt lat="41.6450500" lon="2.1122900">
        <ele>472.9</ele>
        <time>2020-07-09T12:24:30Z</time>
      </trkpt>
      <trkpt lat="41.6450500" lon="2.1122900">
        <ele>472.9</ele>
        <time>2020-07-09T12:24:31Z</time>
      </trkpt>
      <trkpt lat="41.6450500" lon="2.1122900">
        <ele>472.9</ele>
        <time>2020-07-09T12:24:32Z</time>
      </trkpt>
      <trkpt lat="41.6450500" lon="2.1122900">
        <ele>472.9</ele>
        <time>2020-07-09T12:24:33Z</time>
      </trkpt>
      <trkpt lat="41.6450500" lon="2.1122900">
        <ele>472.9</ele>
        <time>2020-07-09T12:24:34Z</time>
      </trkpt>
      <trkpt lat="41.6450500" lon="2.1122900">
        <ele>472.9</ele>
        <time>2020-07-09T12:24:35Z</time>
      </trkpt>
      <trkpt lat="41.6450500" lon="2.1122900">
        <ele>472.9</ele>
        <time>2020-07-09T12:24:36Z</time>
      </trkpt>
      <trkpt lat="41.6450500" lon="2.1122900">
        <ele>472.9</ele>
        <time>2020-07-09T12:24:37Z</time>
      </trkpt>
      <trkpt lat="41.6450500" lon="2.1122900">
        <ele>472.9</ele>
        <time>2020-07-09T12:24:38Z</time>
      </trkpt>
      <trkpt lat="41.6450500" lon="2.1122900">
        <ele>472.9</ele>
        <time>2020-07-09T12:24:39Z</time>
      </trkpt>
      <trkpt lat="41.6450500" lon="2.1122900">
        <ele>472.9</ele>
        <time>2020-07-09T12:24:40Z</time>
      </trkpt>
      <trkpt lat="41.6450500" lon="2.1122900">
        <ele>472.9</ele>
        <time>2020-07-09T12:24:41Z</time>
      </trkpt>
      <trkpt lat="41.6450500" lon="2.1122900">
        <ele>472.9</ele>
        <time>2020-07-09T12:24:42Z</time>
      </trkpt>
      <trkpt lat="41.6450500" lon="2.1122900">
        <ele>472.9</ele>
        <time>2020-07-09T12:24:43Z</time>
      </trkpt>
      <trkpt lat="41.6450500" lon="2.1122900">
        <ele>472.9</ele>
        <time>2020-07-09T12:24:44Z</time>
      </trkpt>
      <trkpt lat="41.6450500" lon="2.1122900">
        <ele>472.9</ele>
        <time>2020-07-09T12:24:45Z</time>
      </trkpt>
      <trkpt lat="41.6450500" lon="2.1122900">
        <ele>472.9</ele>
        <time>2020-07-09T12:24:46Z</time>
      </trkpt>
      <trkpt lat="41.6450500" lon="2.1122900">
        <ele>472.9</ele>
        <time>2020-07-09T12:24:47Z</time>
      </trkpt>
      <trkpt lat="41.6450500" lon="2.1122900">
        <ele>472.9</ele>
        <time>2020-07-09T12:24:48Z</time>
      </trkpt>
      <trkpt lat="41.6450500" lon="2.1122900">
        <ele>472.9</ele>
        <time>2020-07-09T12:24:49Z</time>
      </trkpt>
      <trkpt lat="41.6450500" lon="2.1122900">
        <ele>472.9</ele>
        <time>2020-07-09T12:24:50Z</time>
      </trkpt>
      <trkpt lat="41.6450500" lon="2.1122900">
        <ele>472.9</ele>
        <time>2020-07-09T12:24:51Z</time>
      </trkpt>
      <trkpt lat="41.6450500" lon="2.1122890">
        <ele>472.9</ele>
        <time>2020-07-09T12:24:52Z</time>
      </trkpt>
      <trkpt lat="41.6450500" lon="2.1122890">
        <ele>472.9</ele>
        <time>2020-07-09T12:24:53Z</time>
      </trkpt>
      <trkpt lat="41.6450500" lon="2.1122890">
        <ele>472.9</ele>
        <time>2020-07-09T12:24:54Z</time>
      </trkpt>
      <trkpt lat="41.6450500" lon="2.1122890">
        <ele>472.9</ele>
        <time>2020-07-09T12:24:55Z</time>
      </trkpt>
      <trkpt lat="41.6450500" lon="2.1122890">
        <ele>472.9</ele>
        <time>2020-07-09T12:24:56Z</time>
      </trkpt>
      <trkpt lat="41.6450500" lon="2.1122890">
        <ele>472.9</ele>
        <time>2020-07-09T12:24:57Z</time>
      </trkpt>
      <trkpt lat="41.6450500" lon="2.1122890">
        <ele>472.9</ele>
        <time>2020-07-09T12:24:58Z</time>
      </trkpt>
      <trkpt lat="41.6450500" lon="2.1122890">
        <ele>472.9</ele>
        <time>2020-07-09T12:24:59Z</time>
      </trkpt>
      <trkpt lat="41.6450500" lon="2.1122890">
        <ele>472.9</ele>
        <time>2020-07-09T12:25:00Z</time>
      </trkpt>
      <trkpt lat="41.6450500" lon="2.1122890">
        <ele>472.9</ele>
        <time>2020-07-09T12:25:01Z</time>
      </trkpt>
      <trkpt lat="41.6450500" lon="2.1122890">
        <ele>472.9</ele>
        <time>2020-07-09T12:25:02Z</time>
      </trkpt>
      <trkpt lat="41.6450500" lon="2.1122890">
        <ele>472.9</ele>
        <time>2020-07-09T12:25:03Z</time>
      </trkpt>
      <trkpt lat="41.6450500" lon="2.1122890">
        <ele>472.9</ele>
        <time>2020-07-09T12:25:04Z</time>
      </trkpt>
      <trkpt lat="41.6450500" lon="2.1122890">
        <ele>472.9</ele>
        <time>2020-07-09T12:25:05Z</time>
      </trkpt>
      <trkpt lat="41.6450500" lon="2.1122890">
        <ele>472.9</ele>
        <time>2020-07-09T12:25:06Z</time>
      </trkpt>
      <trkpt lat="41.6450500" lon="2.1122890">
        <ele>472.9</ele>
        <time>2020-07-09T12:25:07Z</time>
      </trkpt>
      <trkpt lat="41.6450500" lon="2.1122890">
        <ele>472.9</ele>
        <time>2020-07-09T12:25:08Z</time>
      </trkpt>
      <trkpt lat="41.6450500" lon="2.1122890">
        <ele>472.9</ele>
        <time>2020-07-09T12:25:09Z</time>
      </trkpt>
      <trkpt lat="41.6450500" lon="2.1122890">
        <ele>472.9</ele>
        <time>2020-07-09T12:25:10Z</time>
      </trkpt>
      <trkpt lat="41.6450500" lon="2.1122890">
        <ele>472.9</ele>
        <time>2020-07-09T12:25:11Z</time>
      </trkpt>
      <trkpt lat="41.6450500" lon="2.1122890">
        <ele>472.9</ele>
        <time>2020-07-09T12:25:12Z</time>
      </trkpt>
      <trkpt lat="41.6450500" lon="2.1122890">
        <ele>472.9</ele>
        <time>2020-07-09T12:25:13Z</time>
      </trkpt>
      <trkpt lat="41.6450500" lon="2.1122890">
        <ele>472.9</ele>
        <time>2020-07-09T12:25:14Z</time>
      </trkpt>
      <trkpt lat="41.6450500" lon="2.1122890">
        <ele>472.9</ele>
        <time>2020-07-09T12:25:15Z</time>
      </trkpt>
      <trkpt lat="41.6450500" lon="2.1122890">
        <ele>472.9</ele>
        <time>2020-07-09T12:25:16Z</time>
      </trkpt>
      <trkpt lat="41.6450500" lon="2.1122890">
        <ele>472.9</ele>
        <time>2020-07-09T12:25:17Z</time>
      </trkpt>
      <trkpt lat="41.6450500" lon="2.1122890">
        <ele>472.9</ele>
        <time>2020-07-09T12:25:18Z</time>
      </trkpt>
      <trkpt lat="41.6450500" lon="2.1122890">
        <ele>472.9</ele>
        <time>2020-07-09T12:25:19Z</time>
      </trkpt>
      <trkpt lat="41.6450500" lon="2.1122890">
        <ele>472.9</ele>
        <time>2020-07-09T12:25:20Z</time>
      </trkpt>
      <trkpt lat="41.6450500" lon="2.1122890">
        <ele>472.9</ele>
        <time>2020-07-09T12:25:21Z</time>
      </trkpt>
      <trkpt lat="41.6450500" lon="2.1122890">
        <ele>472.9</ele>
        <time>2020-07-09T12:25:22Z</time>
      </trkpt>
      <trkpt lat="41.6450500" lon="2.1122890">
        <ele>472.9</ele>
        <time>2020-07-09T12:25:23Z</time>
      </trkpt>
      <trkpt lat="41.6450500" lon="2.1122890">
        <ele>472.9</ele>
        <time>2020-07-09T12:25:24Z</time>
      </trkpt>
      <trkpt lat="41.6450500" lon="2.1122890">
        <ele>472.9</ele>
        <time>2020-07-09T12:25:25Z</time>
      </trkpt>
      <trkpt lat="41.6450500" lon="2.1122890">
        <ele>472.9</ele>
        <time>2020-07-09T12:25:26Z</time>
      </trkpt>
      <trkpt lat="41.6450500" lon="2.1122890">
        <ele>472.9</ele>
        <time>2020-07-09T12:25:27Z</time>
      </trkpt>
      <trkpt lat="41.6450500" lon="2.1122890">
        <ele>472.9</ele>
        <time>2020-07-09T12:25:28Z</time>
      </trkpt>
      <trkpt lat="41.6450500" lon="2.1122890">
        <ele>472.9</ele>
        <time>2020-07-09T12:25:29Z</time>
      </trkpt>
      <trkpt lat="41.6450500" lon="2.1122890">
        <ele>472.9</ele>
        <time>2020-07-09T12:25:30Z</time>
      </trkpt>
      <trkpt lat="41.6450500" lon="2.1122890">
        <ele>472.9</ele>
        <time>2020-07-09T12:25:31Z</time>
      </trkpt>
      <trkpt lat="41.6450500" lon="2.1122890">
        <ele>472.9</ele>
        <time>2020-07-09T12:25:32Z</time>
      </trkpt>
      <trkpt lat="41.6450500" lon="2.1122890">
        <ele>472.9</ele>
        <time>2020-07-09T12:25:33Z</time>
      </trkpt>
      <trkpt lat="41.6450500" lon="2.1122890">
        <ele>472.9</ele>
        <time>2020-07-09T12:25:34Z</time>
      </trkpt>
      <trkpt lat="41.6450500" lon="2.1122890">
        <ele>472.9</ele>
        <time>2020-07-09T12:25:35Z</time>
      </trkpt>
      <trkpt lat="41.6450500" lon="2.1122900">
        <ele>472.9</ele>
        <time>2020-07-09T12:25:36Z</time>
      </trkpt>
      <trkpt lat="41.6450500" lon="2.1122900">
        <ele>472.9</ele>
        <time>2020-07-09T12:25:37Z</time>
      </trkpt>
      <trkpt lat="41.6450500" lon="2.1122900">
        <ele>472.9</ele>
        <time>2020-07-09T12:25:38Z</time>
      </trkpt>
      <trkpt lat="41.6450500" lon="2.1122900">
        <ele>472.9</ele>
        <time>2020-07-09T12:25:39Z</time>
      </trkpt>
      <trkpt lat="41.6450500" lon="2.1122900">
        <ele>472.9</ele>
        <time>2020-07-09T12:25:40Z</time>
      </trkpt>
      <trkpt lat="41.6450500" lon="2.1122900">
        <ele>472.9</ele>
        <time>2020-07-09T12:25:41Z</time>
      </trkpt>
      <trkpt lat="41.6450500" lon="2.1122900">
        <ele>472.9</ele>
        <time>2020-07-09T12:25:42Z</time>
      </trkpt>
      <trkpt lat="41.6450500" lon="2.1122900">
        <ele>472.9</ele>
        <time>2020-07-09T12:25:43Z</time>
      </trkpt>
      <trkpt lat="41.6450500" lon="2.1122900">
        <ele>472.9</ele>
        <time>2020-07-09T12:25:44Z</time>
      </trkpt>
      <trkpt lat="41.6450500" lon="2.1122900">
        <ele>472.9</ele>
        <time>2020-07-09T12:25:45Z</time>
      </trkpt>
      <trkpt lat="41.6450500" lon="2.1122900">
        <ele>472.9</ele>
        <time>2020-07-09T12:25:46Z</time>
      </trkpt>
      <trkpt lat="41.6450500" lon="2.1122900">
        <ele>472.9</ele>
        <time>2020-07-09T12:25:47Z</time>
      </trkpt>
      <trkpt lat="41.6450500" lon="2.1122900">
        <ele>472.9</ele>
        <time>2020-07-09T12:25:48Z</time>
      </trkpt>
      <trkpt lat="41.6450500" lon="2.1122900">
        <ele>472.9</ele>
        <time>2020-07-09T12:25:49Z</time>
      </trkpt>
      <trkpt lat="41.6450500" lon="2.1122900">
        <ele>472.9</ele>
        <time>2020-07-09T12:25:50Z</time>
      </trkpt>
      <trkpt lat="41.6450500" lon="2.1122900">
        <ele>472.9</ele>
        <time>2020-07-09T12:25:51Z</time>
      </trkpt>
      <trkpt lat="41.6450500" lon="2.1122900">
        <ele>472.9</ele>
        <time>2020-07-09T12:25:52Z</time>
      </trkpt>
      <trkpt lat="41.6450500" lon="2.1122900">
        <ele>472.9</ele>
        <time>2020-07-09T12:25:53Z</time>
      </trkpt>
      <trkpt lat="41.6450500" lon="2.1122900">
        <ele>472.9</ele>
        <time>2020-07-09T12:25:54Z</time>
      </trkpt>
      <trkpt lat="41.6450500" lon="2.1122900">
        <ele>472.9</ele>
        <time>2020-07-09T12:25:55Z</time>
      </trkpt>
      <trkpt lat="41.6450500" lon="2.1122900">
        <ele>472.9</ele>
        <time>2020-07-09T12:25:56Z</time>
      </trkpt>
      <trkpt lat="41.6450500" lon="2.1122900">
        <ele>472.9</ele>
        <time>2020-07-09T12:25:57Z</time>
      </trkpt>
      <trkpt lat="41.6450500" lon="2.1122900">
        <ele>472.9</ele>
        <time>2020-07-09T12:25:58Z</time>
      </trkpt>
      <trkpt lat="41.6450500" lon="2.1122900">
        <ele>472.9</ele>
        <time>2020-07-09T12:25:59Z</time>
      </trkpt>
      <trkpt lat="41.6450500" lon="2.1122900">
        <ele>472.9</ele>
        <time>2020-07-09T12:26:00Z</time>
      </trkpt>
      <trkpt lat="41.6450500" lon="2.1122900">
        <ele>472.9</ele>
        <time>2020-07-09T12:26:01Z</time>
      </trkpt>
      <trkpt lat="41.6450500" lon="2.1122900">
        <ele>472.9</ele>
        <time>2020-07-09T12:26:02Z</time>
      </trkpt>
      <trkpt lat="41.6450500" lon="2.1122900">
        <ele>472.9</ele>
        <time>2020-07-09T12:26:03Z</time>
      </trkpt>
      <trkpt lat="41.6450500" lon="2.1122900">
        <ele>472.9</ele>
        <time>2020-07-09T12:26:04Z</time>
      </trkpt>
      <trkpt lat="41.6450500" lon="2.1122900">
        <ele>472.9</ele>
        <time>2020-07-09T12:26:05Z</time>
      </trkpt>
      <trkpt lat="41.6450500" lon="2.1122900">
        <ele>472.9</ele>
        <time>2020-07-09T12:26:06Z</time>
      </trkpt>
      <trkpt lat="41.6450500" lon="2.1122900">
        <ele>472.9</ele>
        <time>2020-07-09T12:26:07Z</time>
      </trkpt>
      <trkpt lat="41.6450500" lon="2.1122900">
        <ele>472.9</ele>
        <time>2020-07-09T12:26:08Z</time>
      </trkpt>
      <trkpt lat="41.6450500" lon="2.1122900">
        <ele>472.9</ele>
        <time>2020-07-09T12:26:09Z</time>
      </trkpt>
      <trkpt lat="41.6450500" lon="2.1122900">
        <ele>472.9</ele>
        <time>2020-07-09T12:26:10Z</time>
      </trkpt>
      <trkpt lat="41.6450500" lon="2.1122900">
        <ele>472.9</ele>
        <time>2020-07-09T12:26:11Z</time>
      </trkpt>
      <trkpt lat="41.6450500" lon="2.1122900">
        <ele>472.9</ele>
        <time>2020-07-09T12:26:12Z</time>
      </trkpt>
      <trkpt lat="41.6450500" lon="2.1122900">
        <ele>472.9</ele>
        <time>2020-07-09T12:26:13Z</time>
      </trkpt>
      <trkpt lat="41.6450500" lon="2.1122900">
        <ele>472.9</ele>
        <time>2020-07-09T12:26:14Z</time>
      </trkpt>
      <trkpt lat="41.6450500" lon="2.1122900">
        <ele>472.9</ele>
        <time>2020-07-09T12:26:15Z</time>
      </trkpt>
      <trkpt lat="41.6450500" lon="2.1122900">
        <ele>472.9</ele>
        <time>2020-07-09T12:26:16Z</time>
      </trkpt>
      <trkpt lat="41.6450500" lon="2.1122900">
        <ele>472.9</ele>
        <time>2020-07-09T12:26:17Z</time>
      </trkpt>
      <trkpt lat="41.6450500" lon="2.1122900">
        <ele>472.9</ele>
        <time>2020-07-09T12:26:18Z</time>
      </trkpt>
      <trkpt lat="41.6450500" lon="2.1122900">
        <ele>472.9</ele>
        <time>2020-07-09T12:26:19Z</time>
      </trkpt>
      <trkpt lat="41.6450500" lon="2.1122900">
        <ele>472.9</ele>
        <time>2020-07-09T12:26:20Z</time>
      </trkpt>
      <trkpt lat="41.6450500" lon="2.1122900">
        <ele>472.9</ele>
        <time>2020-07-09T12:26:21Z</time>
      </trkpt>
      <trkpt lat="41.6450500" lon="2.1122900">
        <ele>472.9</ele>
        <time>2020-07-09T12:26:22Z</time>
      </trkpt>
      <trkpt lat="41.6450500" lon="2.1122900">
        <ele>472.9</ele>
        <time>2020-07-09T12:26:23Z</time>
      </trkpt>
      <trkpt lat="41.6450500" lon="2.1122900">
        <ele>472.9</ele>
        <time>2020-07-09T12:26:24Z</time>
      </trkpt>
      <trkpt lat="41.6450500" lon="2.1122900">
        <ele>472.9</ele>
        <time>2020-07-09T12:26:25Z</time>
      </trkpt>
      <trkpt lat="41.6450500" lon="2.1122900">
        <ele>472.9</ele>
        <time>2020-07-09T12:26:26Z</time>
      </trkpt>
      <trkpt lat="41.6450500" lon="2.1122900">
        <ele>472.9</ele>
        <time>2020-07-09T12:26:27Z</time>
      </trkpt>
      <trkpt lat="41.6450500" lon="2.1122900">
        <ele>472.9</ele>
        <time>2020-07-09T12:26:28Z</time>
      </trkpt>
      <trkpt lat="41.6450500" lon="2.1122900">
        <ele>472.9</ele>
        <time>2020-07-09T12:26:29Z</time>
      </trkpt>
      <trkpt lat="41.6450500" lon="2.1122900">
        <ele>472.9</ele>
        <time>2020-07-09T12:26:30Z</time>
      </trkpt>
      <trkpt lat="41.6450500" lon="2.1122900">
        <ele>472.9</ele>
        <time>2020-07-09T12:26:31Z</time>
      </trkpt>
      <trkpt lat="41.6450500" lon="2.1122900">
        <ele>472.9</ele>
        <time>2020-07-09T12:26:32Z</time>
      </trkpt>
      <trkpt lat="41.6450500" lon="2.1122900">
        <ele>472.9</ele>
        <time>2020-07-09T12:26:33Z</time>
      </trkpt>
      <trkpt lat="41.6450500" lon="2.1122900">
        <ele>472.9</ele>
        <time>2020-07-09T12:26:34Z</time>
      </trkpt>
      <trkpt lat="41.6450500" lon="2.1122900">
        <ele>472.9</ele>
        <time>2020-07-09T12:26:35Z</time>
      </trkpt>
      <trkpt lat="41.6450500" lon="2.1122900">
        <ele>472.9</ele>
        <time>2020-07-09T12:26:36Z</time>
      </trkpt>
      <trkpt lat="41.6450500" lon="2.1122900">
        <ele>472.9</ele>
        <time>2020-07-09T12:26:37Z</time>
      </trkpt>
      <trkpt lat="41.6450500" lon="2.1122900">
        <ele>472.9</ele>
        <time>2020-07-09T12:26:38Z</time>
      </trkpt>
      <trkpt lat="41.6450500" lon="2.1122900">
        <ele>472.9</ele>
        <time>2020-07-09T12:26:39Z</time>
      </trkpt>
      <trkpt lat="41.6450500" lon="2.1122900">
        <ele>472.9</ele>
        <time>2020-07-09T12:26:40Z</time>
      </trkpt>
      <trkpt lat="41.6450500" lon="2.1122900">
        <ele>472.9</ele>
        <time>2020-07-09T12:26:41Z</time>
      </trkpt>
      <trkpt lat="41.6450500" lon="2.1122900">
        <ele>472.9</ele>
        <time>2020-07-09T12:26:42Z</time>
      </trkpt>
      <trkpt lat="41.6450500" lon="2.1122900">
        <ele>472.9</ele>
        <time>2020-07-09T12:26:43Z</time>
      </trkpt>
      <trkpt lat="41.6450500" lon="2.1122900">
        <ele>472.9</ele>
        <time>2020-07-09T12:26:44Z</time>
      </trkpt>
      <trkpt lat="41.6450500" lon="2.1122900">
        <ele>472.9</ele>
        <time>2020-07-09T12:26:45Z</time>
      </trkpt>
      <trkpt lat="41.6450500" lon="2.1122900">
        <ele>472.9</ele>
        <time>2020-07-09T12:26:46Z</time>
      </trkpt>
      <trkpt lat="41.6450500" lon="2.1122900">
        <ele>472.9</ele>
        <time>2020-07-09T12:26:47Z</time>
      </trkpt>
      <trkpt lat="41.6450500" lon="2.1122900">
        <ele>472.9</ele>
        <time>2020-07-09T12:26:48Z</time>
      </trkpt>
      <trkpt lat="41.6450500" lon="2.1122900">
        <ele>472.9</ele>
        <time>2020-07-09T12:26:49Z</time>
      </trkpt>
      <trkpt lat="41.6450500" lon="2.1122900">
        <ele>472.9</ele>
        <time>2020-07-09T12:26:50Z</time>
      </trkpt>
      <trkpt lat="41.6450500" lon="2.1122900">
        <ele>472.9</ele>
        <time>2020-07-09T12:26:51Z</time>
      </trkpt>
      <trkpt lat="41.6450500" lon="2.1122900">
        <ele>472.9</ele>
        <time>2020-07-09T12:26:52Z</time>
      </trkpt>
      <trkpt lat="41.6450500" lon="2.1122900">
        <ele>472.9</ele>
        <time>2020-07-09T12:26:53Z</time>
      </trkpt>
      <trkpt lat="41.6450500" lon="2.1122900">
        <ele>472.9</ele>
        <time>2020-07-09T12:26:54Z</time>
      </trkpt>
      <trkpt lat="41.6450500" lon="2.1122900">
        <ele>472.9</ele>
        <time>2020-07-09T12:26:55Z</time>
      </trkpt>
      <trkpt lat="41.6450500" lon="2.1122890">
        <ele>472.9</ele>
        <time>2020-07-09T12:26:56Z</time>
      </trkpt>
      <trkpt lat="41.6450500" lon="2.1122890">
        <ele>472.9</ele>
        <time>2020-07-09T12:26:57Z</time>
      </trkpt>
      <trkpt lat="41.6450480" lon="2.1122900">
        <ele>472.9</ele>
        <time>2020-07-09T12:26:58Z</time>
      </trkpt>
      <trkpt lat="41.6450400" lon="2.1122900">
        <ele>473.1</ele>
        <time>2020-07-09T12:26:59Z</time>
      </trkpt>
      <trkpt lat="41.6450320" lon="2.1122870">
        <ele>473.3</ele>
        <time>2020-07-09T12:27:00Z</time>
      </trkpt>
      <trkpt lat="41.6450240" lon="2.1122810">
        <ele>473.5</ele>
        <time>2020-07-09T12:27:01Z</time>
      </trkpt>
      <trkpt lat="41.6450140" lon="2.1122750">
        <ele>473.7</ele>
        <time>2020-07-09T12:27:02Z</time>
      </trkpt>
      <trkpt lat="41.6450020" lon="2.1122700">
        <ele>474.0</ele>
        <time>2020-07-09T12:27:03Z</time>
      </trkpt>
      <trkpt lat="41.6449910" lon="2.1122650">
        <ele>474.2</ele>
        <time>2020-07-09T12:27:04Z</time>
      </trkpt>
      <trkpt lat="41.6449810" lon="2.1122600">
        <ele>474.0</ele>
        <time>2020-07-09T12:27:05Z</time>
      </trkpt>
      <trkpt lat="41.6449730" lon="2.1122570">
        <ele>473.8</ele>
        <time>2020-07-09T12:27:06Z</time>
      </trkpt>
      <trkpt lat="41.6449680" lon="2.1122540">
        <ele>473.7</ele>
        <time>2020-07-09T12:27:07Z</time>
      </trkpt>
      <trkpt lat="41.6449640" lon="2.1122510">
        <ele>473.6</ele>
        <time>2020-07-09T12:27:08Z</time>
      </trkpt>
      <trkpt lat="41.6449610" lon="2.1122490">
        <ele>473.5</ele>
        <time>2020-07-09T12:27:09Z</time>
      </trkpt>
      <trkpt lat="41.6449600" lon="2.1122480">
        <ele>473.5</ele>
        <time>2020-07-09T12:27:10Z</time>
      </trkpt>
      <trkpt lat="41.6449590" lon="2.1122470">
        <ele>473.4</ele>
        <time>2020-07-09T12:27:11Z</time>
      </trkpt>
      <trkpt lat="41.6449580" lon="2.1122460">
        <ele>473.4</ele>
        <time>2020-07-09T12:27:12Z</time>
      </trkpt>
      <trkpt lat="41.6449560" lon="2.1122450">
        <ele>473.4</ele>
        <time>2020-07-09T12:27:13Z</time>
      </trkpt>
      <trkpt lat="41.6449540" lon="2.1122450">
        <ele>473.3</ele>
        <time>2020-07-09T12:27:14Z</time>
      </trkpt>
      <trkpt lat="41.6449510" lon="2.1122450">
        <ele>473.2</ele>
        <time>2020-07-09T12:27:15Z</time>
      </trkpt>
      <trkpt lat="41.6449470" lon="2.1122440">
        <ele>473.2</ele>
        <time>2020-07-09T12:27:16Z</time>
      </trkpt>
      <trkpt lat="41.6449430" lon="2.1122440">
        <ele>473.1</ele>
        <time>2020-07-09T12:27:17Z</time>
      </trkpt>
      <trkpt lat="41.6449390" lon="2.1122450">
        <ele>473.0</ele>
        <time>2020-07-09T12:27:18Z</time>
      </trkpt>
      <trkpt lat="41.6449360" lon="2.1122460">
        <ele>472.9</ele>
        <time>2020-07-09T12:27:19Z</time>
      </trkpt>
      <trkpt lat="41.6449340" lon="2.1122470">
        <ele>472.9</ele>
        <time>2020-07-09T12:27:20Z</time>
      </trkpt>
      <trkpt lat="41.6449340" lon="2.1122480">
        <ele>472.8</ele>
        <time>2020-07-09T12:27:21Z</time>
      </trkpt>
      <trkpt lat="41.6449330" lon="2.1122490">
        <ele>472.8</ele>
        <time>2020-07-09T12:27:22Z</time>
      </trkpt>
      <trkpt lat="41.6449330" lon="2.1122490">
        <ele>472.8</ele>
        <time>2020-07-09T12:27:23Z</time>
      </trkpt>
      <trkpt lat="41.6449320" lon="2.1122470">
        <ele>472.8</ele>
        <time>2020-07-09T12:27:24Z</time>
      </trkpt>
      <trkpt lat="41.6449310" lon="2.1122440">
        <ele>472.7</ele>
        <time>2020-07-09T12:27:25Z</time>
      </trkpt>
      <trkpt lat="41.6449300" lon="2.1122390">
        <ele>472.6</ele>
        <time>2020-07-09T12:27:26Z</time>
      </trkpt>
      <trkpt lat="41.6449290" lon="2.1122340">
        <ele>472.6</ele>
        <time>2020-07-09T12:27:27Z</time>
      </trkpt>
      <trkpt lat="41.6449280" lon="2.1122280">
        <ele>472.5</ele>
        <time>2020-07-09T12:27:28Z</time>
      </trkpt>
      <trkpt lat="41.6449270" lon="2.1122220">
        <ele>472.4</ele>
        <time>2020-07-09T12:27:29Z</time>
      </trkpt>
      <trkpt lat="41.6449260" lon="2.1122160">
        <ele>472.3</ele>
        <time>2020-07-09T12:27:30Z</time>
      </trkpt>
      <trkpt lat="41.6449250" lon="2.1122100">
        <ele>472.2</ele>
        <time>2020-07-09T12:27:31Z</time>
      </trkpt>
      <trkpt lat="41.6449240" lon="2.1122050">
        <ele>472.1</ele>
        <time>2020-07-09T12:27:32Z</time>
      </trkpt>
      <trkpt lat="41.6449240" lon="2.1122000">
        <ele>472.0</ele>
        <time>2020-07-09T12:27:33Z</time>
      </trkpt>
      <trkpt lat="41.6449240" lon="2.1121970">
        <ele>471.9</ele>
        <time>2020-07-09T12:27:34Z</time>
      </trkpt>
      <trkpt lat="41.6449240" lon="2.1121930">
        <ele>471.9</ele>
        <time>2020-07-09T12:27:35Z</time>
      </trkpt>
      <trkpt lat="41.6449240" lon="2.1121910">
        <ele>471.8</ele>
        <time>2020-07-09T12:27:36Z</time>
      </trkpt>
      <trkpt lat="41.6449250" lon="2.1121890">
        <ele>471.8</ele>
        <time>2020-07-09T12:27:37Z</time>
      </trkpt>
      <trkpt lat="41.6449250" lon="2.1121880">
        <ele>471.8</ele>
        <time>2020-07-09T12:27:38Z</time>
      </trkpt>
      <trkpt lat="41.6449250" lon="2.1121860">
        <ele>471.8</ele>
        <time>2020-07-09T12:27:39Z</time>
      </trkpt>
      <trkpt lat="41.6449260" lon="2.1121860">
        <ele>471.7</ele>
        <time>2020-07-09T12:27:40Z</time>
      </trkpt>
      <trkpt lat="41.6449260" lon="2.1121850">
        <ele>471.7</ele>
        <time>2020-07-09T12:27:41Z</time>
      </trkpt>
      <trkpt lat="41.6449260" lon="2.1121840">
        <ele>471.7</ele>
        <time>2020-07-09T12:27:42Z</time>
      </trkpt>
      <trkpt lat="41.6449260" lon="2.1121840">
        <ele>471.7</ele>
        <time>2020-07-09T12:27:43Z</time>
      </trkpt>
      <trkpt lat="41.6449260" lon="2.1121840">
        <ele>471.7</ele>
        <time>2020-07-09T12:27:44Z</time>
      </trkpt>
      <trkpt lat="41.6449260" lon="2.1121840">
        <ele>471.7</ele>
        <time>2020-07-09T12:27:45Z</time>
      </trkpt>
      <trkpt lat="41.6449260" lon="2.1121840">
        <ele>471.7</ele>
        <time>2020-07-09T12:27:46Z</time>
      </trkpt>
      <trkpt lat="41.6449260" lon="2.1121840">
        <ele>471.7</ele>
        <time>2020-07-09T12:27:47Z</time>
      </trkpt>
      <trkpt lat="41.6449260" lon="2.1121840">
        <ele>471.7</ele>
        <time>2020-07-09T12:27:48Z</time>
      </trkpt>
      <trkpt lat="41.6449260" lon="2.1121840">
        <ele>471.7</ele>
        <time>2020-07-09T12:27:49Z</time>
      </trkpt>
      <trkpt lat="41.6449260" lon="2.1121840">
        <ele>471.7</ele>
        <time>2020-07-09T12:27:50Z</time>
      </trkpt>
      <trkpt lat="41.6449270" lon="2.1121840">
        <ele>471.7</ele>
        <time>2020-07-09T12:27:51Z</time>
      </trkpt>
      <trkpt lat="41.6449270" lon="2.1121840">
        <ele>471.7</ele>
        <time>2020-07-09T12:27:52Z</time>
      </trkpt>
      <trkpt lat="41.6449270" lon="2.1121840">
        <ele>471.7</ele>
        <time>2020-07-09T12:27:53Z</time>
      </trkpt>
      <trkpt lat="41.6449280" lon="2.1121830">
        <ele>471.7</ele>
        <time>2020-07-09T12:27:54Z</time>
      </trkpt>
      <trkpt lat="41.6449280" lon="2.1121830">
        <ele>471.7</ele>
        <time>2020-07-09T12:27:55Z</time>
      </trkpt>
      <trkpt lat="41.6449290" lon="2.1121820">
        <ele>471.6</ele>
        <time>2020-07-09T12:27:56Z</time>
      </trkpt>
      <trkpt lat="41.6449300" lon="2.1121820">
        <ele>471.6</ele>
        <time>2020-07-09T12:27:57Z</time>
      </trkpt>
      <trkpt lat="41.6449310" lon="2.1121810">
        <ele>471.6</ele>
        <time>2020-07-09T12:27:58Z</time>
      </trkpt>
      <trkpt lat="41.6449330" lon="2.1121790">
        <ele>471.5</ele>
        <time>2020-07-09T12:27:59Z</time>
      </trkpt>
      <trkpt lat="41.6449340" lon="2.1121780">
        <ele>471.5</ele>
        <time>2020-07-09T12:28:00Z</time>
      </trkpt>
      <trkpt lat="41.6449360" lon="2.1121770">
        <ele>471.4</ele>
        <time>2020-07-09T12:28:01Z</time>
      </trkpt>
      <trkpt lat="41.6449380" lon="2.1121750">
        <ele>471.4</ele>
        <time>2020-07-09T12:28:02Z</time>
      </trkpt>
      <trkpt lat="41.6449410" lon="2.1121730">
        <ele>471.3</ele>
        <time>2020-07-09T12:28:03Z</time>
      </trkpt>
      <trkpt lat="41.6449440" lon="2.1121720">
        <ele>471.3</ele>
        <time>2020-07-09T12:28:04Z</time>
      </trkpt>
      <trkpt lat="41.6449460" lon="2.1121700">
        <ele>471.2</ele>
        <time>2020-07-09T12:28:05Z</time>
      </trkpt>
      <trkpt lat="41.6449490" lon="2.1121690">
        <ele>471.1</ele>
        <time>2020-07-09T12:28:06Z</time>
      </trkpt>
      <trkpt lat="41.6449520" lon="2.1121670">
        <ele>471.1</ele>
        <time>2020-07-09T12:28:07Z</time>
      </trkpt>
      <trkpt lat="41.6449540" lon="2.1121660">
        <ele>471.0</ele>
        <time>2020-07-09T12:28:08Z</time>
      </trkpt>
      <trkpt lat="41.6449550" lon="2.1121660">
        <ele>471.0</ele>
        <time>2020-07-09T12:28:09Z</time>
      </trkpt>
      <trkpt lat="41.6449560" lon="2.1121650">
        <ele>471.0</ele>
        <time>2020-07-09T12:28:10Z</time>
      </trkpt>
      <trkpt lat="41.6449570" lon="2.1121650">
        <ele>471.0</ele>
        <time>2020-07-09T12:28:11Z</time>
      </trkpt>
      <trkpt lat="41.6449570" lon="2.1121650">
        <ele>471.0</ele>
        <time>2020-07-09T12:28:12Z</time>
      </trkpt>
      <trkpt lat="41.6449570" lon="2.1121650">
        <ele>471.0</ele>
        <time>2020-07-09T12:28:13Z</time>
      </trkpt>
      <trkpt lat="41.6449570" lon="2.1121650">
        <ele>471.0</ele>
        <time>2020-07-09T12:28:14Z</time>
      </trkpt>
      <trkpt lat="41.6449570" lon="2.1121650">
        <ele>471.0</ele>
        <time>2020-07-09T12:28:15Z</time>
      </trkpt>
      <trkpt lat="41.6449570" lon="2.1121650">
        <ele>471.0</ele>
        <time>2020-07-09T12:28:16Z</time>
      </trkpt>
      <trkpt lat="41.6449570" lon="2.1121650">
        <ele>471.0</ele>
        <time>2020-07-09T12:28:17Z</time>
      </trkpt>
      <trkpt lat="41.6449570" lon="2.1121650">
        <ele>471.0</ele>
        <time>2020-07-09T12:28:18Z</time>
      </trkpt>
      <trkpt lat="41.6449570" lon="2.1121650">
        <ele>471.0</ele>
        <time>2020-07-09T12:28:19Z</time>
      </trkpt>
      <trkpt lat="41.6449570" lon="2.1121650">
        <ele>471.0</ele>
        <time>2020-07-09T12:28:20Z</time>
      </trkpt>
      <trkpt lat="41.6449570" lon="2.1121650">
        <ele>471.0</ele>
        <time>2020-07-09T12:28:21Z</time>
      </trkpt>
      <trkpt lat="41.6449570" lon="2.1121650">
        <ele>471.0</ele>
        <time>2020-07-09T12:28:22Z</time>
      </trkpt>
      <trkpt lat="41.6449570" lon="2.1121650">
        <ele>471.0</ele>
        <time>2020-07-09T12:28:23Z</time>
      </trkpt>
      <trkpt lat="41.6449570" lon="2.1121650">
        <ele>471.0</ele>
        <time>2020-07-09T12:28:24Z</time>
      </trkpt>
      <trkpt lat="41.6449570" lon="2.1121650">
        <ele>471.0</ele>
        <time>2020-07-09T12:28:25Z</time>
      </trkpt>
      <trkpt lat="41.6449570" lon="2.1121650">
        <ele>471.0</ele>
        <time>2020-07-09T12:28:26Z</time>
      </trkpt>
      <trkpt lat="41.6449580" lon="2.1121650">
        <ele>470.9</ele>
        <time>2020-07-09T12:28:27Z</time>
      </trkpt>
      <trkpt lat="41.6449580" lon="2.1121660">
        <ele>470.9</ele>
        <time>2020-07-09T12:28:28Z</time>
      </trkpt>
      <trkpt lat="41.6449580" lon="2.1121660">
        <ele>470.9</ele>
        <time>2020-07-09T12:28:29Z</time>
      </trkpt>
      <trkpt lat="41.6449580" lon="2.1121670">
        <ele>470.9</ele>
        <time>2020-07-09T12:28:30Z</time>
      </trkpt>
      <trkpt lat="41.6449550" lon="2.1121680">
        <ele>470.9</ele>
        <time>2020-07-09T12:28:31Z</time>
      </trkpt>
      <trkpt lat="41.6449520" lon="2.1121780">
        <ele>470.7</ele>
        <time>2020-07-09T12:28:32Z</time>
      </trkpt>
      <trkpt lat="41.6449500" lon="2.1121920">
        <ele>470.5</ele>
        <time>2020-07-09T12:28:33Z</time>
      </trkpt>
      <trkpt lat="41.6449490" lon="2.1122030">
        <ele>470.3</ele>
        <time>2020-07-09T12:28:34Z</time>
      </trkpt>
      <trkpt lat="41.6449490" lon="2.1122110">
        <ele>470.2</ele>
        <time>2020-07-09T12:28:35Z</time>
      </trkpt>
      <trkpt lat="41.6449490" lon="2.1122160">
        <ele>470.1</ele>
        <time>2020-07-09T12:28:36Z</time>
      </trkpt>
      <trkpt lat="41.6449490" lon="2.1122200">
        <ele>470.0</ele>
        <time>2020-07-09T12:28:37Z</time>
      </trkpt>
      <trkpt lat="41.6449500" lon="2.1122220">
        <ele>470.0</ele>
        <time>2020-07-09T12:28:38Z</time>
      </trkpt>
      <trkpt lat="41.6449500" lon="2.1122240">
        <ele>470.0</ele>
        <time>2020-07-09T12:28:39Z</time>
      </trkpt>
      <trkpt lat="41.6449500" lon="2.1122260">
        <ele>469.9</ele>
        <time>2020-07-09T12:28:40Z</time>
      </trkpt>
      <trkpt lat="41.6449490" lon="2.1122290">
        <ele>469.9</ele>
        <time>2020-07-09T12:28:41Z</time>
      </trkpt>
      <trkpt lat="41.6449470" lon="2.1122330">
        <ele>469.8</ele>
        <time>2020-07-09T12:28:42Z</time>
      </trkpt>
      <trkpt lat="41.6449450" lon="2.1122380">
        <ele>469.7</ele>
        <time>2020-07-09T12:28:43Z</time>
      </trkpt>
      <trkpt lat="41.6449420" lon="2.1122460">
        <ele>469.6</ele>
        <time>2020-07-09T12:28:44Z</time>
      </trkpt>
      <trkpt lat="41.6449380" lon="2.1122540">
        <ele>469.5</ele>
        <time>2020-07-09T12:28:45Z</time>
      </trkpt>
      <trkpt lat="41.6449340" lon="2.1122620">
        <ele>469.3</ele>
        <time>2020-07-09T12:28:46Z</time>
      </trkpt>
      <trkpt lat="41.6449310" lon="2.1122710">
        <ele>469.2</ele>
        <time>2020-07-09T12:28:47Z</time>
      </trkpt>
      <trkpt lat="41.6449270" lon="2.1122790">
        <ele>469.1</ele>
        <time>2020-07-09T12:28:48Z</time>
      </trkpt>
      <trkpt lat="41.6449240" lon="2.1122860">
        <ele>469.0</ele>
        <time>2020-07-09T12:28:49Z</time>
      </trkpt>
      <trkpt lat="41.6449210" lon="2.1122930">
        <ele>468.8</ele>
        <time>2020-07-09T12:28:50Z</time>
      </trkpt>
      <trkpt lat="41.6449170" lon="2.1122990">
        <ele>468.7</ele>
        <time>2020-07-09T12:28:51Z</time>
      </trkpt>
      <trkpt lat="41.6449130" lon="2.1123040">
        <ele>468.6</ele>
        <time>2020-07-09T12:28:52Z</time>
      </trkpt>
      <trkpt lat="41.6449080" lon="2.1123090">
        <ele>468.5</ele>
        <time>2020-07-09T12:28:53Z</time>
      </trkpt>
      <trkpt lat="41.6449030" lon="2.1123140">
        <ele>468.4</ele>
        <time>2020-07-09T12:28:54Z</time>
      </trkpt>
      <trkpt lat="41.6448980" lon="2.1123180">
        <ele>468.3</ele>
        <time>2020-07-09T12:28:55Z</time>
      </trkpt>
      <trkpt lat="41.6448920" lon="2.1123210">
        <ele>468.2</ele>
        <time>2020-07-09T12:28:56Z</time>
      </trkpt>
      <trkpt lat="41.6448870" lon="2.1123240">
        <ele>468.1</ele>
        <time>2020-07-09T12:28:57Z</time>
      </trkpt>
      <trkpt lat="41.6448810" lon="2.1123260">
        <ele>468.0</ele>
        <time>2020-07-09T12:28:58Z</time>
      </trkpt>
      <trkpt lat="41.6448760" lon="2.1123280">
        <ele>467.9</ele>
        <time>2020-07-09T12:28:59Z</time>
      </trkpt>
      <trkpt lat="41.6448710" lon="2.1123290">
        <ele>467.8</ele>
        <time>2020-07-09T12:29:00Z</time>
      </trkpt>
      <trkpt lat="41.6448670" lon="2.1123300">
        <ele>467.7</ele>
        <time>2020-07-09T12:29:01Z</time>
      </trkpt>
      <trkpt lat="41.6448640" lon="2.1123300">
        <ele>467.6</ele>
        <time>2020-07-09T12:29:02Z</time>
      </trkpt>
      <trkpt lat="41.6448600" lon="2.1123300">
        <ele>467.6</ele>
        <time>2020-07-09T12:29:03Z</time>
      </trkpt>
      <trkpt lat="41.6448570" lon="2.1123300">
        <ele>467.5</ele>
        <time>2020-07-09T12:29:04Z</time>
      </trkpt>
      <trkpt lat="41.6448540" lon="2.1123300">
        <ele>467.5</ele>
        <time>2020-07-09T12:29:05Z</time>
      </trkpt>
      <trkpt lat="41.6448510" lon="2.1123300">
        <ele>467.4</ele>
        <time>2020-07-09T12:29:06Z</time>
      </trkpt>
      <trkpt lat="41.6448480" lon="2.1123290">
        <ele>467.4</ele>
        <time>2020-07-09T12:29:07Z</time>
      </trkpt>
      <trkpt lat="41.6448450" lon="2.1123290">
        <ele>467.3</ele>
        <time>2020-07-09T12:29:08Z</time>
      </trkpt>
      <trkpt lat="41.6448410" lon="2.1123290">
        <ele>467.2</ele>
        <time>2020-07-09T12:29:09Z</time>
      </trkpt>
      <trkpt lat="41.6448370" lon="2.1123290">
        <ele>467.2</ele>
        <time>2020-07-09T12:29:10Z</time>
      </trkpt>
      <trkpt lat="41.6448320" lon="2.1123300">
        <ele>467.1</ele>
        <time>2020-07-09T12:29:11Z</time>
      </trkpt>
      <trkpt lat="41.6448270" lon="2.1123310">
        <ele>467.0</ele>
        <time>2020-07-09T12:29:12Z</time>
      </trkpt>
      <trkpt lat="41.6448220" lon="2.1123310">
        <ele>466.9</ele>
        <time>2020-07-09T12:29:13Z</time>
      </trkpt>
      <trkpt lat="41.6448160" lon="2.1123330">
        <ele>466.8</ele>
        <time>2020-07-09T12:29:14Z</time>
      </trkpt>
      <trkpt lat="41.6448100" lon="2.1123340">
        <ele>466.7</ele>
        <time>2020-07-09T12:29:15Z</time>
      </trkpt>
      <trkpt lat="41.6448050" lon="2.1123350">
        <ele>466.6</ele>
        <time>2020-07-09T12:29:16Z</time>
      </trkpt>
      <trkpt lat="41.6447990" lon="2.1123370">
        <ele>466.5</ele>
        <time>2020-07-09T12:29:17Z</time>
      </trkpt>
      <trkpt lat="41.6447940" lon="2.1123380">
        <ele>466.5</ele>
        <time>2020-07-09T12:29:18Z</time>
      </trkpt>
      <trkpt lat="41.6447880" lon="2.1123400">
        <ele>466.4</ele>
        <time>2020-07-09T12:29:19Z</time>
      </trkpt>
      <trkpt lat="41.6447830" lon="2.1123410">
        <ele>466.3</ele>
        <time>2020-07-09T12:29:20Z</time>
      </trkpt>
      <trkpt lat="41.6447780" lon="2.1123430">
        <ele>466.2</ele>
        <time>2020-07-09T12:29:21Z</time>
      </trkpt>
      <trkpt lat="41.6447730" lon="2.1123440">
        <ele>466.1</ele>
        <time>2020-07-09T12:29:22Z</time>
      </trkpt>
      <trkpt lat="41.6447690" lon="2.1123450">
        <ele>466.1</ele>
        <time>2020-07-09T12:29:23Z</time>
      </trkpt>
      <trkpt lat="41.6447640" lon="2.1123470">
        <ele>466.0</ele>
        <time>2020-07-09T12:29:24Z</time>
      </trkpt>
      <trkpt lat="41.6447590" lon="2.1123470">
        <ele>465.9</ele>
        <time>2020-07-09T12:29:25Z</time>
      </trkpt>
      <trkpt lat="41.6447550" lon="2.1123480">
        <ele>465.8</ele>
        <time>2020-07-09T12:29:26Z</time>
      </trkpt>
      <trkpt lat="41.6447500" lon="2.1123480">
        <ele>465.7</ele>
        <time>2020-07-09T12:29:27Z</time>
      </trkpt>
      <trkpt lat="41.6447460" lon="2.1123480">
        <ele>465.7</ele>
        <time>2020-07-09T12:29:28Z</time>
      </trkpt>
      <trkpt lat="41.6447410" lon="2.1123480">
        <ele>465.6</ele>
        <time>2020-07-09T12:29:29Z</time>
      </trkpt>
      <trkpt lat="41.6447370" lon="2.1123480">
        <ele>465.5</ele>
        <time>2020-07-09T12:29:30Z</time>
      </trkpt>
      <trkpt lat="41.6447330" lon="2.1123470">
        <ele>465.5</ele>
        <time>2020-07-09T12:29:31Z</time>
      </trkpt>
      <trkpt lat="41.6447280" lon="2.1123470">
        <ele>465.4</ele>
        <time>2020-07-09T12:29:32Z</time>
      </trkpt>
      <trkpt lat="41.6447240" lon="2.1123460">
        <ele>465.3</ele>
        <time>2020-07-09T12:29:33Z</time>
      </trkpt>
      <trkpt lat="41.6447200" lon="2.1123460">
        <ele>465.2</ele>
        <time>2020-07-09T12:29:34Z</time>
      </trkpt>
      <trkpt lat="41.6447160" lon="2.1123460">
        <ele>465.2</ele>
        <time>2020-07-09T12:29:35Z</time>
      </trkpt>
      <trkpt lat="41.6447120" lon="2.1123460">
        <ele>465.1</ele>
        <time>2020-07-09T12:29:36Z</time>
      </trkpt>
      <trkpt lat="41.6447080" lon="2.1123460">
        <ele>465.1</ele>
        <time>2020-07-09T12:29:37Z</time>
      </trkpt>
      <trkpt lat="41.6447040" lon="2.1123450">
        <ele>465.0</ele>
        <time>2020-07-09T12:29:38Z</time>
      </trkpt>
      <trkpt lat="41.6446980" lon="2.1123440">
        <ele>464.9</ele>
        <time>2020-07-09T12:29:39Z</time>
      </trkpt>
      <trkpt lat="41.6446920" lon="2.1123430">
        <ele>464.8</ele>
        <time>2020-07-09T12:29:40Z</time>
      </trkpt>
      <trkpt lat="41.6446830" lon="2.1123400">
        <ele>464.7</ele>
        <time>2020-07-09T12:29:41Z</time>
      </trkpt>
      <trkpt lat="41.6446740" lon="2.1123370">
        <ele>464.6</ele>
        <time>2020-07-09T12:29:42Z</time>
      </trkpt>
      <trkpt lat="41.6446660" lon="2.1123330">
        <ele>463.0</ele>
        <time>2020-07-09T12:29:43Z</time>
      </trkpt>
      <trkpt lat="41.6446580" lon="2.1123310">
        <ele>463.0</ele>
        <time>2020-07-09T12:29:44Z</time>
      </trkpt>
      <trkpt lat="41.6446520" lon="2.1123290">
        <ele>463.0</ele>
        <time>2020-07-09T12:29:45Z</time>
      </trkpt>
      <trkpt lat="41.6446480" lon="2.1123280">
        <ele>463.0</ele>
        <time>2020-07-09T12:29:46Z</time>
      </trkpt>
      <trkpt lat="41.6446440" lon="2.1123280">
        <ele>463.0</ele>
        <time>2020-07-09T12:29:47Z</time>
      </trkpt>
      <trkpt lat="41.6446410" lon="2.1123280">
        <ele>463.0</ele>
        <time>2020-07-09T12:29:48Z</time>
      </trkpt>
      <trkpt lat="41.6446380" lon="2.1123280">
        <ele>463.0</ele>
        <time>2020-07-09T12:29:49Z</time>
      </trkpt>
      <trkpt lat="41.6446350" lon="2.1123280">
        <ele>463.0</ele>
        <time>2020-07-09T12:29:50Z</time>
      </trkpt>
      <trkpt lat="41.6446320" lon="2.1123270">
        <ele>463.0</ele>
        <time>2020-07-09T12:29:51Z</time>
      </trkpt>
      <trkpt lat="41.6446270" lon="2.1123270">
        <ele>463.0</ele>
        <time>2020-07-09T12:29:52Z</time>
      </trkpt>
      <trkpt lat="41.6446220" lon="2.1123250">
        <ele>463.0</ele>
        <time>2020-07-09T12:29:53Z</time>
      </trkpt>
      <trkpt lat="41.6446170" lon="2.1123240">
        <ele>463.0</ele>
        <time>2020-07-09T12:29:54Z</time>
      </trkpt>
      <trkpt lat="41.6446100" lon="2.1123220">
        <ele>463.0</ele>
        <time>2020-07-09T12:29:55Z</time>
      </trkpt>
      <trkpt lat="41.6446030" lon="2.1123200">
        <ele>463.0</ele>
        <time>2020-07-09T12:29:56Z</time>
      </trkpt>
      <trkpt lat="41.6445960" lon="2.1123180">
        <ele>463.0</ele>
        <time>2020-07-09T12:29:57Z</time>
      </trkpt>
      <trkpt lat="41.6445890" lon="2.1123140">
        <ele>463.0</ele>
        <time>2020-07-09T12:29:58Z</time>
      </trkpt>
      <trkpt lat="41.6445810" lon="2.1123110">
        <ele>461.8</ele>
        <time>2020-07-09T12:29:59Z</time>
      </trkpt>
      <trkpt lat="41.6445740" lon="2.1123070">
        <ele>461.8</ele>
        <time>2020-07-09T12:30:00Z</time>
      </trkpt>
      <trkpt lat="41.6445670" lon="2.1123030">
        <ele>461.7</ele>
        <time>2020-07-09T12:30:01Z</time>
      </trkpt>
      <trkpt lat="41.6445600" lon="2.1122980">
        <ele>461.7</ele>
        <time>2020-07-09T12:30:02Z</time>
      </trkpt>
      <trkpt lat="41.6445530" lon="2.1122920">
        <ele>461.6</ele>
        <time>2020-07-09T12:30:03Z</time>
      </trkpt>
      <trkpt lat="41.6445470" lon="2.1122870">
        <ele>461.6</ele>
        <time>2020-07-09T12:30:04Z</time>
      </trkpt>
      <trkpt lat="41.6445420" lon="2.1122810">
        <ele>461.5</ele>
        <time>2020-07-09T12:30:05Z</time>
      </trkpt>
      <trkpt lat="41.6445370" lon="2.1122750">
        <ele>461.5</ele>
        <time>2020-07-09T12:30:06Z</time>
      </trkpt>
      <trkpt lat="41.6445330" lon="2.1122700">
        <ele>461.5</ele>
        <time>2020-07-09T12:30:07Z</time>
      </trkpt>
      <trkpt lat="41.6445300" lon="2.1122650">
        <ele>461.5</ele>
        <time>2020-07-09T12:30:08Z</time>
      </trkpt>
      <trkpt lat="41.6445270" lon="2.1122610">
        <ele>461.4</ele>
        <time>2020-07-09T12:30:09Z</time>
      </trkpt>
      <trkpt lat="41.6445250" lon="2.1122570">
        <ele>461.4</ele>
        <time>2020-07-09T12:30:10Z</time>
      </trkpt>
      <trkpt lat="41.6445180" lon="2.1122530">
        <ele>461.4</ele>
        <time>2020-07-09T12:30:11Z</time>
      </trkpt>
      <trkpt lat="41.6445120" lon="2.1122510">
        <ele>461.3</ele>
        <time>2020-07-09T12:30:12Z</time>
      </trkpt>
      <trkpt lat="41.6445060" lon="2.1122490">
        <ele>461.3</ele>
        <time>2020-07-09T12:30:13Z</time>
      </trkpt>
      <trkpt lat="41.6445000" lon="2.1122470">
        <ele>461.3</ele>
        <time>2020-07-09T12:30:14Z</time>
      </trkpt>
      <trkpt lat="41.6444940" lon="2.1122450">
        <ele>461.2</ele>
        <time>2020-07-09T12:30:15Z</time>
      </trkpt>
      <trkpt lat="41.6444880" lon="2.1122430">
        <ele>461.2</ele>
        <time>2020-07-09T12:30:16Z</time>
      </trkpt>
      <trkpt lat="41.6444820" lon="2.1122410">
        <ele>461.2</ele>
        <time>2020-07-09T12:30:17Z</time>
      </trkpt>
      <trkpt lat="41.6444760" lon="2.1122390">
        <ele>461.1</ele>
        <time>2020-07-09T12:30:18Z</time>
      </trkpt>
      <trkpt lat="41.6444700" lon="2.1122370">
        <ele>461.1</ele>
        <time>2020-07-09T12:30:19Z</time>
      </trkpt>
      <trkpt lat="41.6444640" lon="2.1122350">
        <ele>461.1</ele>
        <time>2020-07-09T12:30:20Z</time>
      </trkpt>
      <trkpt lat="41.6444580" lon="2.1122330">
        <ele>461.0</ele>
        <time>2020-07-09T12:30:21Z</time>
      </trkpt>
      <trkpt lat="41.6444510" lon="2.1122320">
        <ele>461.0</ele>
        <time>2020-07-09T12:30:22Z</time>
      </trkpt>
      <trkpt lat="41.6444450" lon="2.1122300">
        <ele>460.9</ele>
        <time>2020-07-09T12:30:23Z</time>
      </trkpt>
      <trkpt lat="41.6444390" lon="2.1122280">
        <ele>460.9</ele>
        <time>2020-07-09T12:30:24Z</time>
      </trkpt>
      <trkpt lat="41.6444330" lon="2.1122260">
        <ele>460.9</ele>
        <time>2020-07-09T12:30:25Z</time>
      </trkpt>
      <trkpt lat="41.6444270" lon="2.1122240">
        <ele>460.8</ele>
        <time>2020-07-09T12:30:26Z</time>
      </trkpt>
      <trkpt lat="41.6444210" lon="2.1122220">
        <ele>460.8</ele>
        <time>2020-07-09T12:30:27Z</time>
      </trkpt>
      <trkpt lat="41.6444150" lon="2.1122200">
        <ele>460.8</ele>
        <time>2020-07-09T12:30:28Z</time>
      </trkpt>
      <trkpt lat="41.6444090" lon="2.1122180">
        <ele>460.7</ele>
        <time>2020-07-09T12:30:29Z</time>
      </trkpt>
      <trkpt lat="41.6444030" lon="2.1122160">
        <ele>460.7</ele>
        <time>2020-07-09T12:30:30Z</time>
      </trkpt>
      <trkpt lat="41.6443970" lon="2.1122140">
        <ele>460.6</ele>
        <time>2020-07-09T12:30:31Z</time>
      </trkpt>
      <trkpt lat="41.6443910" lon="2.1122120">
        <ele>460.6</ele>
        <time>2020-07-09T12:30:32Z</time>
      </trkpt>
      <trkpt lat="41.6443850" lon="2.1122100">
        <ele>460.6</ele>
        <time>2020-07-09T12:30:33Z</time>
      </trkpt>
      <trkpt lat="41.6443800" lon="2.1122100">
        <ele>460.5</ele>
        <time>2020-07-09T12:30:34Z</time>
      </trkpt>
      <trkpt lat="41.6443740" lon="2.1122100">
        <ele>460.5</ele>
        <time>2020-07-09T12:30:35Z</time>
      </trkpt>
      <trkpt lat="41.6443670" lon="2.1122090">
        <ele>460.5</ele>
        <time>2020-07-09T12:30:36Z</time>
      </trkpt>
      <trkpt lat="41.6443590" lon="2.1122080">
        <ele>460.4</ele>
        <time>2020-07-09T12:30:37Z</time>
      </trkpt>
      <trkpt lat="41.6443510" lon="2.1122070">
        <ele>460.4</ele>
        <time>2020-07-09T12:30:38Z</time>
      </trkpt>
      <trkpt lat="41.6443410" lon="2.1122050">
        <ele>460.3</ele>
        <time>2020-07-09T12:30:39Z</time>
      </trkpt>
      <trkpt lat="41.6443310" lon="2.1122030">
        <ele>460.2</ele>
        <time>2020-07-09T12:30:40Z</time>
      </trkpt>
      <trkpt lat="41.6443210" lon="2.1122000">
        <ele>460.2</ele>
        <time>2020-07-09T12:30:41Z</time>
      </trkpt>
      <trkpt lat="41.6443100" lon="2.1121980">
        <ele>460.1</ele>
        <time>2020-07-09T12:30:42Z</time>
      </trkpt>
      <trkpt lat="41.6443000" lon="2.1121950">
        <ele>460.0</ele>
        <time>2020-07-09T12:30:43Z</time>
      </trkpt>
      <trkpt lat="41.6442900" lon="2.1121930">
        <ele>459.9</ele>
        <time>2020-07-09T12:30:44Z</time>
      </trkpt>
      <trkpt lat="41.6442820" lon="2.1121910">
        <ele>459.9</ele>
        <time>2020-07-09T12:30:45Z</time>
      </trkpt>
      <trkpt lat="41.6442740" lon="2.1121890">
        <ele>459.8</ele>
        <time>2020-07-09T12:30:46Z</time>
      </trkpt>
      <trkpt lat="41.6442670" lon="2.1121870">
        <ele>459.8</ele>
        <time>2020-07-09T12:30:47Z</time>
      </trkpt>
      <trkpt lat="41.6442620" lon="2.1121860">
        <ele>459.7</ele>
        <time>2020-07-09T12:30:48Z</time>
      </trkpt>
      <trkpt lat="41.6442580" lon="2.1121850">
        <ele>459.7</ele>
        <time>2020-07-09T12:30:49Z</time>
      </trkpt>
      <trkpt lat="41.6442550" lon="2.1121840">
        <ele>459.7</ele>
        <time>2020-07-09T12:30:50Z</time>
      </trkpt>
      <trkpt lat="41.6442520" lon="2.1121830">
        <ele>459.7</ele>
        <time>2020-07-09T12:30:51Z</time>
      </trkpt>
      <trkpt lat="41.6442500" lon="2.1121820">
        <ele>459.7</ele>
        <time>2020-07-09T12:30:52Z</time>
      </trkpt>
      <trkpt lat="41.6442490" lon="2.1121800">
        <ele>459.7</ele>
        <time>2020-07-09T12:30:53Z</time>
      </trkpt>
      <trkpt lat="41.6442470" lon="2.1121790">
        <ele>459.6</ele>
        <time>2020-07-09T12:30:54Z</time>
      </trkpt>
      <trkpt lat="41.6442460" lon="2.1121770">
        <ele>459.6</ele>
        <time>2020-07-09T12:30:55Z</time>
      </trkpt>
      <trkpt lat="41.6442440" lon="2.1121750">
        <ele>459.6</ele>
        <time>2020-07-09T12:30:56Z</time>
      </trkpt>
      <trkpt lat="41.6442430" lon="2.1121730">
        <ele>459.6</ele>
        <time>2020-07-09T12:30:57Z</time>
      </trkpt>
      <trkpt lat="41.6442420" lon="2.1121700">
        <ele>459.6</ele>
        <time>2020-07-09T12:30:58Z</time>
      </trkpt>
      <trkpt lat="41.6442400" lon="2.1121670">
        <ele>459.6</ele>
        <time>2020-07-09T12:30:59Z</time>
      </trkpt>
      <trkpt lat="41.6442390" lon="2.1121640">
        <ele>459.5</ele>
        <time>2020-07-09T12:31:00Z</time>
      </trkpt>
      <trkpt lat="41.6442370" lon="2.1121600">
        <ele>459.5</ele>
        <time>2020-07-09T12:31:01Z</time>
      </trkpt>
      <trkpt lat="41.6442360" lon="2.1121570">
        <ele>459.5</ele>
        <time>2020-07-09T12:31:02Z</time>
      </trkpt>
      <trkpt lat="41.6442340" lon="2.1121540">
        <ele>459.5</ele>
        <time>2020-07-09T12:31:03Z</time>
      </trkpt>
      <trkpt lat="41.6442330" lon="2.1121510">
        <ele>459.5</ele>
        <time>2020-07-09T12:31:04Z</time>
      </trkpt>
      <trkpt lat="41.6442320" lon="2.1121480">
        <ele>459.4</ele>
        <time>2020-07-09T12:31:05Z</time>
      </trkpt>
      <trkpt lat="41.6442310" lon="2.1121450">
        <ele>459.4</ele>
        <time>2020-07-09T12:31:06Z</time>
      </trkpt>
      <trkpt lat="41.6442300" lon="2.1121420">
        <ele>459.4</ele>
        <time>2020-07-09T12:31:07Z</time>
      </trkpt>
      <trkpt lat="41.6442290" lon="2.1121400">
        <ele>459.4</ele>
        <time>2020-07-09T12:31:08Z</time>
      </trkpt>
      <trkpt lat="41.6442290" lon="2.1121380">
        <ele>459.4</ele>
        <time>2020-07-09T12:31:09Z</time>
      </trkpt>
      <trkpt lat="41.6442290" lon="2.1121370">
        <ele>459.4</ele>
        <time>2020-07-09T12:31:10Z</time>
      </trkpt>
      <trkpt lat="41.6442290" lon="2.1121360">
        <ele>459.4</ele>
        <time>2020-07-09T12:31:11Z</time>
      </trkpt>
      <trkpt lat="41.6442290" lon="2.1121360">
        <ele>459.4</ele>
        <time>2020-07-09T12:31:12Z</time>
      </trkpt>
      <trkpt lat="41.6442290" lon="2.1121360">
        <ele>459.4</ele>
        <time>2020-07-09T12:31:13Z</time>
      </trkpt>
      <trkpt lat="41.6442330" lon="2.1121280">
        <ele>459.3</ele>
        <time>2020-07-09T12:31:14Z</time>
      </trkpt>
      <trkpt lat="41.6442430" lon="2.1120930">
        <ele>459.1</ele>
        <time>2020-07-09T12:31:15Z</time>
      </trkpt>
      <trkpt lat="41.6442450" lon="2.1120850">
        <ele>459.1</ele>
        <time>2020-07-09T12:31:16Z</time>
      </trkpt>
      <trkpt lat="41.6442470" lon="2.1120810">
        <ele>459.1</ele>
        <time>2020-07-09T12:31:17Z</time>
      </trkpt>
      <trkpt lat="41.6442510" lon="2.1120750">
        <ele>459.0</ele>
        <time>2020-07-09T12:31:18Z</time>
      </trkpt>
      <trkpt lat="41.6442560" lon="2.1120700">
        <ele>459.0</ele>
        <time>2020-07-09T12:31:19Z</time>
      </trkpt>
      <trkpt lat="41.6442590" lon="2.1120670">
        <ele>459.0</ele>
        <time>2020-07-09T12:31:20Z</time>
      </trkpt>
      <trkpt lat="41.6442620" lon="2.1120660">
        <ele>458.9</ele>
        <time>2020-07-09T12:31:21Z</time>
      </trkpt>
      <trkpt lat="41.6442650" lon="2.1120640">
        <ele>458.9</ele>
        <time>2020-07-09T12:31:22Z</time>
      </trkpt>
      <trkpt lat="41.6442670" lon="2.1120640">
        <ele>458.9</ele>
        <time>2020-07-09T12:31:23Z</time>
      </trkpt>
      <trkpt lat="41.6442680" lon="2.1120630">
        <ele>458.9</ele>
        <time>2020-07-09T12:31:24Z</time>
      </trkpt>
      <trkpt lat="41.6442690" lon="2.1120620">
        <ele>458.9</ele>
        <time>2020-07-09T12:31:25Z</time>
      </trkpt>
      <trkpt lat="41.6442700" lon="2.1120620">
        <ele>458.9</ele>
        <time>2020-07-09T12:31:26Z</time>
      </trkpt>
      <trkpt lat="41.6442700" lon="2.1120620">
        <ele>458.9</ele>
        <time>2020-07-09T12:31:27Z</time>
      </trkpt>
      <trkpt lat="41.6442700" lon="2.1120620">
        <ele>458.9</ele>
        <time>2020-07-09T12:31:28Z</time>
      </trkpt>
      <trkpt lat="41.6442700" lon="2.1120610">
        <ele>458.9</ele>
        <time>2020-07-09T12:31:29Z</time>
      </trkpt>
      <trkpt lat="41.6442700" lon="2.1120610">
        <ele>458.9</ele>
        <time>2020-07-09T12:31:30Z</time>
      </trkpt>
      <trkpt lat="41.6442700" lon="2.1120610">
        <ele>458.9</ele>
        <time>2020-07-09T12:31:31Z</time>
      </trkpt>
      <trkpt lat="41.6442700" lon="2.1120620">
        <ele>458.9</ele>
        <time>2020-07-09T12:31:32Z</time>
      </trkpt>
      <trkpt lat="41.6442700" lon="2.1120620">
        <ele>458.9</ele>
        <time>2020-07-09T12:31:33Z</time>
      </trkpt>
      <trkpt lat="41.6442700" lon="2.1120620">
        <ele>458.9</ele>
        <time>2020-07-09T12:31:34Z</time>
      </trkpt>
      <trkpt lat="41.6442700" lon="2.1120620">
        <ele>458.9</ele>
        <time>2020-07-09T12:31:35Z</time>
      </trkpt>
      <trkpt lat="41.6442700" lon="2.1120620">
        <ele>458.9</ele>
        <time>2020-07-09T12:31:36Z</time>
      </trkpt>
      <trkpt lat="41.6442700" lon="2.1120620">
        <ele>458.9</ele>
        <time>2020-07-09T12:31:37Z</time>
      </trkpt>
      <trkpt lat="41.6442700" lon="2.1120620">
        <ele>458.9</ele>
        <time>2020-07-09T12:31:38Z</time>
      </trkpt>
      <trkpt lat="41.6442700" lon="2.1120610">
        <ele>458.9</ele>
        <time>2020-07-09T12:31:39Z</time>
      </trkpt>
      <trkpt lat="41.6442710" lon="2.1120610">
        <ele>458.9</ele>
        <time>2020-07-09T12:31:40Z</time>
      </trkpt>
      <trkpt lat="41.6442710" lon="2.1120600">
        <ele>458.9</ele>
        <time>2020-07-09T12:31:41Z</time>
      </trkpt>
      <trkpt lat="41.6442710" lon="2.1120600">
        <ele>458.9</ele>
        <time>2020-07-09T12:31:42Z</time>
      </trkpt>
      <trkpt lat="41.6442720" lon="2.1120590">
        <ele>458.8</ele>
        <time>2020-07-09T12:31:43Z</time>
      </trkpt>
      <trkpt lat="41.6442720" lon="2.1120590">
        <ele>458.8</ele>
        <time>2020-07-09T12:31:44Z</time>
      </trkpt>
      <trkpt lat="41.6442730" lon="2.1120580">
        <ele>458.8</ele>
        <time>2020-07-09T12:31:45Z</time>
      </trkpt>
      <trkpt lat="41.6442730" lon="2.1120580">
        <ele>458.8</ele>
        <time>2020-07-09T12:31:46Z</time>
      </trkpt>
      <trkpt lat="41.6442730" lon="2.1120580">
        <ele>458.8</ele>
        <time>2020-07-09T12:31:47Z</time>
      </trkpt>
      <trkpt lat="41.6442730" lon="2.1120580">
        <ele>458.8</ele>
        <time>2020-07-09T12:31:48Z</time>
      </trkpt>
      <trkpt lat="41.6442730" lon="2.1120580">
        <ele>458.8</ele>
        <time>2020-07-09T12:31:49Z</time>
      </trkpt>
      <trkpt lat="41.6442740" lon="2.1120600">
        <ele>458.8</ele>
        <time>2020-07-09T12:31:50Z</time>
      </trkpt>
      <trkpt lat="41.6442770" lon="2.1120640">
        <ele>458.8</ele>
        <time>2020-07-09T12:31:51Z</time>
      </trkpt>
      <trkpt lat="41.6442840" lon="2.1120700">
        <ele>458.7</ele>
        <time>2020-07-09T12:31:52Z</time>
      </trkpt>
      <trkpt lat="41.6442910" lon="2.1120770">
        <ele>458.7</ele>
        <time>2020-07-09T12:31:53Z</time>
      </trkpt>
      <trkpt lat="41.6442960" lon="2.1120820">
        <ele>458.6</ele>
        <time>2020-07-09T12:31:54Z</time>
      </trkpt>
      <trkpt lat="41.6443000" lon="2.1120850">
        <ele>458.6</ele>
        <time>2020-07-09T12:31:55Z</time>
      </trkpt>
      <trkpt lat="41.6443020" lon="2.1120880">
        <ele>458.6</ele>
        <time>2020-07-09T12:31:56Z</time>
      </trkpt>
      <trkpt lat="41.6443040" lon="2.1120890">
        <ele>458.6</ele>
        <time>2020-07-09T12:31:57Z</time>
      </trkpt>
      <trkpt lat="41.6443050" lon="2.1120900">
        <ele>458.6</ele>
        <time>2020-07-09T12:31:58Z</time>
      </trkpt>
      <trkpt lat="41.6443050" lon="2.1120910">
        <ele>458.5</ele>
        <time>2020-07-09T12:31:59Z</time>
      </trkpt>
      <trkpt lat="41.6443060" lon="2.1120920">
        <ele>458.5</ele>
        <time>2020-07-09T12:32:00Z</time>
      </trkpt>
      <trkpt lat="41.6443060" lon="2.1120920">
        <ele>458.5</ele>
        <time>2020-07-09T12:32:01Z</time>
      </trkpt>
      <trkpt lat="41.6443070" lon="2.1120920">
        <ele>458.5</ele>
        <time>2020-07-09T12:32:02Z</time>
      </trkpt>
      <trkpt lat="41.6443070" lon="2.1120930">
        <ele>458.5</ele>
        <time>2020-07-09T12:32:03Z</time>
      </trkpt>
      <trkpt lat="41.6443070" lon="2.1120930">
        <ele>458.5</ele>
        <time>2020-07-09T12:32:04Z</time>
      </trkpt>
      <trkpt lat="41.6443070" lon="2.1120930">
        <ele>458.5</ele>
        <time>2020-07-09T12:32:05Z</time>
      </trkpt>
      <trkpt lat="41.6443070" lon="2.1120930">
        <ele>458.5</ele>
        <time>2020-07-09T12:32:06Z</time>
      </trkpt>
      <trkpt lat="41.6443070" lon="2.1120930">
        <ele>458.5</ele>
        <time>2020-07-09T12:32:07Z</time>
      </trkpt>
      <trkpt lat="41.6443070" lon="2.1120930">
        <ele>458.5</ele>
        <time>2020-07-09T12:32:08Z</time>
      </trkpt>
      <trkpt lat="41.6443070" lon="2.1120930">
        <ele>458.5</ele>
        <time>2020-07-09T12:32:09Z</time>
      </trkpt>
      <trkpt lat="41.6443070" lon="2.1120930">
        <ele>458.5</ele>
        <time>2020-07-09T12:32:10Z</time>
      </trkpt>
      <trkpt lat="41.6443070" lon="2.1120930">
        <ele>458.5</ele>
        <time>2020-07-09T12:32:11Z</time>
      </trkpt>
      <trkpt lat="41.6443070" lon="2.1120930">
        <ele>458.5</ele>
        <time>2020-07-09T12:32:12Z</time>
      </trkpt>
      <trkpt lat="41.6443070" lon="2.1120930">
        <ele>458.5</ele>
        <time>2020-07-09T12:32:13Z</time>
      </trkpt>
      <trkpt lat="41.6443070" lon="2.1120930">
        <ele>458.5</ele>
        <time>2020-07-09T12:32:14Z</time>
      </trkpt>
      <trkpt lat="41.6443070" lon="2.1120930">
        <ele>458.5</ele>
        <time>2020-07-09T12:32:15Z</time>
      </trkpt>
      <trkpt lat="41.6443070" lon="2.1120930">
        <ele>458.5</ele>
        <time>2020-07-09T12:32:16Z</time>
      </trkpt>
      <trkpt lat="41.6443070" lon="2.1120930">
        <ele>458.5</ele>
        <time>2020-07-09T12:32:17Z</time>
      </trkpt>
      <trkpt lat="41.6443070" lon="2.1120930">
        <ele>458.5</ele>
        <time>2020-07-09T12:32:18Z</time>
      </trkpt>
      <trkpt lat="41.6443070" lon="2.1120930">
        <ele>458.5</ele>
        <time>2020-07-09T12:32:19Z</time>
      </trkpt>
      <trkpt lat="41.6443070" lon="2.1120930">
        <ele>458.5</ele>
        <time>2020-07-09T12:32:20Z</time>
      </trkpt>
      <trkpt lat="41.6443070" lon="2.1120930">
        <ele>458.5</ele>
        <time>2020-07-09T12:32:21Z</time>
      </trkpt>
      <trkpt lat="41.6443070" lon="2.1120930">
        <ele>458.5</ele>
        <time>2020-07-09T12:32:22Z</time>
      </trkpt>
      <trkpt lat="41.6443070" lon="2.1120930">
        <ele>458.5</ele>
        <time>2020-07-09T12:32:23Z</time>
      </trkpt>
      <trkpt lat="41.6443070" lon="2.1120930">
        <ele>458.5</ele>
        <time>2020-07-09T12:32:24Z</time>
      </trkpt>
      <trkpt lat="41.6443070" lon="2.1120930">
        <ele>458.5</ele>
        <time>2020-07-09T12:32:25Z</time>
      </trkpt>
      <trkpt lat="41.6443070" lon="2.1120930">
        <ele>458.5</ele>
        <time>2020-07-09T12:32:26Z</time>
      </trkpt>
      <trkpt lat="41.6443070" lon="2.1120930">
        <ele>458.5</ele>
        <time>2020-07-09T12:32:27Z</time>
      </trkpt>
      <trkpt lat="41.6443070" lon="2.1120930">
        <ele>458.5</ele>
        <time>2020-07-09T12:32:28Z</time>
      </trkpt>
      <trkpt lat="41.6443070" lon="2.1120930">
        <ele>458.5</ele>
        <time>2020-07-09T12:32:29Z</time>
      </trkpt>
      <trkpt lat="41.6443070" lon="2.1120930">
        <ele>458.5</ele>
        <time>2020-07-09T12:32:30Z</time>
      </trkpt>
      <trkpt lat="41.6443070" lon="2.1120930">
        <ele>458.5</ele>
        <time>2020-07-09T12:32:31Z</time>
      </trkpt>
      <trkpt lat="41.6443070" lon="2.1120930">
        <ele>458.5</ele>
        <time>2020-07-09T12:32:32Z</time>
      </trkpt>
      <trkpt lat="41.6443070" lon="2.1120930">
        <ele>458.5</ele>
        <time>2020-07-09T12:32:33Z</time>
      </trkpt>
      <trkpt lat="41.6443070" lon="2.1120930">
        <ele>458.5</ele>
        <time>2020-07-09T12:32:34Z</time>
      </trkpt>
      <trkpt lat="41.6443070" lon="2.1120930">
        <ele>458.5</ele>
        <time>2020-07-09T12:32:35Z</time>
      </trkpt>
      <trkpt lat="41.6443070" lon="2.1120930">
        <ele>458.5</ele>
        <time>2020-07-09T12:32:36Z</time>
      </trkpt>
      <trkpt lat="41.6443070" lon="2.1120930">
        <ele>458.5</ele>
        <time>2020-07-09T12:32:37Z</time>
      </trkpt>
      <trkpt lat="41.6443070" lon="2.1120930">
        <ele>458.5</ele>
        <time>2020-07-09T12:32:38Z</time>
      </trkpt>
      <trkpt lat="41.6443070" lon="2.1120930">
        <ele>458.5</ele>
        <time>2020-07-09T12:32:39Z</time>
      </trkpt>
      <trkpt lat="41.6443070" lon="2.1120930">
        <ele>458.5</ele>
        <time>2020-07-09T12:32:40Z</time>
      </trkpt>
      <trkpt lat="41.6443070" lon="2.1120930">
        <ele>458.5</ele>
        <time>2020-07-09T12:32:41Z</time>
      </trkpt>
      <trkpt lat="41.6443070" lon="2.1120930">
        <ele>458.5</ele>
        <time>2020-07-09T12:32:42Z</time>
      </trkpt>
      <trkpt lat="41.6443070" lon="2.1120930">
        <ele>458.5</ele>
        <time>2020-07-09T12:32:43Z</time>
      </trkpt>
      <trkpt lat="41.6443070" lon="2.1120930">
        <ele>458.5</ele>
        <time>2020-07-09T12:32:44Z</time>
      </trkpt>
      <trkpt lat="41.6443070" lon="2.1120930">
        <ele>458.5</ele>
        <time>2020-07-09T12:32:45Z</time>
      </trkpt>
      <trkpt lat="41.6443070" lon="2.1120930">
        <ele>458.5</ele>
        <time>2020-07-09T12:32:46Z</time>
      </trkpt>
      <trkpt lat="41.6443070" lon="2.1120930">
        <ele>458.5</ele>
        <time>2020-07-09T12:32:47Z</time>
      </trkpt>
      <trkpt lat="41.6443070" lon="2.1120930">
        <ele>458.5</ele>
        <time>2020-07-09T12:32:48Z</time>
      </trkpt>
      <trkpt lat="41.6443070" lon="2.1120930">
        <ele>458.5</ele>
        <time>2020-07-09T12:32:49Z</time>
      </trkpt>
      <trkpt lat="41.6443070" lon="2.1120930">
        <ele>458.5</ele>
        <time>2020-07-09T12:32:50Z</time>
      </trkpt>
      <trkpt lat="41.6443070" lon="2.1120930">
        <ele>458.5</ele>
        <time>2020-07-09T12:32:51Z</time>
      </trkpt>
      <trkpt lat="41.6443070" lon="2.1120930">
        <ele>458.5</ele>
        <time>2020-07-09T12:32:52Z</time>
      </trkpt>
      <trkpt lat="41.6443070" lon="2.1120930">
        <ele>458.5</ele>
        <time>2020-07-09T12:32:53Z</time>
      </trkpt>
      <trkpt lat="41.6443070" lon="2.1120930">
        <ele>458.5</ele>
        <time>2020-07-09T12:32:54Z</time>
      </trkpt>
      <trkpt lat="41.6443070" lon="2.1120930">
        <ele>458.5</ele>
        <time>2020-07-09T12:32:55Z</time>
      </trkpt>
      <trkpt lat="41.6443070" lon="2.1120930">
        <ele>458.5</ele>
        <time>2020-07-09T12:32:56Z</time>
      </trkpt>
      <trkpt lat="41.6443070" lon="2.1120930">
        <ele>458.5</ele>
        <time>2020-07-09T12:32:57Z</time>
      </trkpt>
      <trkpt lat="41.6443070" lon="2.1120930">
        <ele>458.5</ele>
        <time>2020-07-09T12:32:58Z</time>
      </trkpt>
      <trkpt lat="41.6443420" lon="2.1121820">
        <ele>459.5</ele>
        <time>2020-07-09T13:41:24Z</time>
      </trkpt>
      <trkpt lat="41.6443420" lon="2.1121820">
        <ele>459.5</ele>
        <time>2020-07-09T13:41:25Z</time>
      </trkpt>
      <trkpt lat="41.6443420" lon="2.1121820">
        <ele>459.5</ele>
        <time>2020-07-09T13:41:26Z</time>
      </trkpt>
      <trkpt lat="41.6443420" lon="2.1121820">
        <ele>459.5</ele>
        <time>2020-07-09T13:41:27Z</time>
      </trkpt>
      <trkpt lat="41.6443420" lon="2.1121820">
        <ele>459.5</ele>
        <time>2020-07-09T13:41:28Z</time>
      </trkpt>
      <trkpt lat="41.6443420" lon="2.1121820">
        <ele>459.5</ele>
        <time>2020-07-09T13:41:29Z</time>
      </trkpt>
      <trkpt lat="41.6443420" lon="2.1121820">
        <ele>459.5</ele>
        <time>2020-07-09T13:41:30Z</time>
      </trkpt>
      <trkpt lat="41.6443420" lon="2.1121820">
        <ele>459.5</ele>
        <time>2020-07-09T13:41:31Z</time>
      </trkpt>
      <trkpt lat="41.6443420" lon="2.1121820">
        <ele>459.5</ele>
        <time>2020-07-09T13:41:32Z</time>
      </trkpt>
      <trkpt lat="41.6443420" lon="2.1121820">
        <ele>459.5</ele>
        <time>2020-07-09T13:41:33Z</time>
      </trkpt>
      <trkpt lat="41.6443420" lon="2.1121820">
        <ele>459.5</ele>
        <time>2020-07-09T13:41:34Z</time>
      </trkpt>
      <trkpt lat="41.6443420" lon="2.1121820">
        <ele>459.5</ele>
        <time>2020-07-09T13:41:35Z</time>
      </trkpt>
      <trkpt lat="41.6443420" lon="2.1121820">
        <ele>459.5</ele>
        <time>2020-07-09T13:41:36Z</time>
      </trkpt>
      <trkpt lat="41.6443420" lon="2.1121820">
        <ele>459.5</ele>
        <time>2020-07-09T13:41:37Z</time>
      </trkpt>
      <trkpt lat="41.6443420" lon="2.1121820">
        <ele>459.5</ele>
        <time>2020-07-09T13:41:38Z</time>
      </trkpt>
      <trkpt lat="41.6443420" lon="2.1121820">
        <ele>459.5</ele>
        <time>2020-07-09T13:41:39Z</time>
      </trkpt>
      <trkpt lat="41.6443420" lon="2.1121820">
        <ele>459.5</ele>
        <time>2020-07-09T13:41:40Z</time>
      </trkpt>
      <trkpt lat="41.6443420" lon="2.1121820">
        <ele>459.5</ele>
        <time>2020-07-09T13:41:41Z</time>
      </trkpt>
      <trkpt lat="41.6443420" lon="2.1121820">
        <ele>459.5</ele>
        <time>2020-07-09T13:41:42Z</time>
      </trkpt>
      <trkpt lat="41.6443420" lon="2.1121820">
        <ele>459.5</ele>
        <time>2020-07-09T13:41:43Z</time>
      </trkpt>
      <trkpt lat="41.6443420" lon="2.1121820">
        <ele>459.5</ele>
        <time>2020-07-09T13:41:44Z</time>
      </trkpt>
      <trkpt lat="41.6443420" lon="2.1121820">
        <ele>459.5</ele>
        <time>2020-07-09T13:41:45Z</time>
      </trkpt>
      <trkpt lat="41.6443420" lon="2.1121820">
        <ele>459.5</ele>
        <time>2020-07-09T13:41:46Z</time>
      </trkpt>
      <trkpt lat="41.6443420" lon="2.1121820">
        <ele>459.5</ele>
        <time>2020-07-09T13:41:47Z</time>
      </trkpt>
      <trkpt lat="41.6443420" lon="2.1121820">
        <ele>459.5</ele>
        <time>2020-07-09T13:41:48Z</time>
      </trkpt>
      <trkpt lat="41.6443420" lon="2.1121820">
        <ele>459.5</ele>
        <time>2020-07-09T13:41:49Z</time>
      </trkpt>
      <trkpt lat="41.6443420" lon="2.1121820">
        <ele>459.5</ele>
        <time>2020-07-09T13:41:50Z</time>
      </trkpt>
      <trkpt lat="41.6443420" lon="2.1121820">
        <ele>459.5</ele>
        <time>2020-07-09T13:41:51Z</time>
      </trkpt>
      <trkpt lat="41.6443420" lon="2.1121820">
        <ele>459.5</ele>
        <time>2020-07-09T13:41:52Z</time>
      </trkpt>
      <trkpt lat="41.6443420" lon="2.1121820">
        <ele>459.5</ele>
        <time>2020-07-09T13:41:53Z</time>
      </trkpt>
      <trkpt lat="41.6443420" lon="2.1121820">
        <ele>459.5</ele>
        <time>2020-07-09T13:41:54Z</time>
      </trkpt>
      <trkpt lat="41.6443420" lon="2.1121820">
        <ele>459.5</ele>
        <time>2020-07-09T13:41:55Z</time>
      </trkpt>
      <trkpt lat="41.6443410" lon="2.1121810">
        <ele>459.5</ele>
        <time>2020-07-09T13:41:56Z</time>
      </trkpt>
      <trkpt lat="41.6443410" lon="2.1121810">
        <ele>459.5</ele>
        <time>2020-07-09T13:41:57Z</time>
      </trkpt>
      <trkpt lat="41.6443410" lon="2.1121810">
        <ele>459.5</ele>
        <time>2020-07-09T13:41:58Z</time>
      </trkpt>
      <trkpt lat="41.6443400" lon="2.1121810">
        <ele>459.5</ele>
        <time>2020-07-09T13:41:59Z</time>
      </trkpt>
      <trkpt lat="41.6443400" lon="2.1121810">
        <ele>459.5</ele>
        <time>2020-07-09T13:42:00Z</time>
      </trkpt>
      <trkpt lat="41.6443390" lon="2.1121810">
        <ele>459.5</ele>
        <time>2020-07-09T13:42:01Z</time>
      </trkpt>
      <trkpt lat="41.6443370" lon="2.1121800">
        <ele>459.4</ele>
        <time>2020-07-09T13:42:02Z</time>
      </trkpt>
      <trkpt lat="41.6443360" lon="2.1121800">
        <ele>459.4</ele>
        <time>2020-07-09T13:42:03Z</time>
      </trkpt>
      <trkpt lat="41.6443340" lon="2.1121790">
        <ele>459.4</ele>
        <time>2020-07-09T13:42:04Z</time>
      </trkpt>
      <trkpt lat="41.6443320" lon="2.1121790">
        <ele>459.3</ele>
        <time>2020-07-09T13:42:05Z</time>
      </trkpt>
      <trkpt lat="41.6443290" lon="2.1121780">
        <ele>459.3</ele>
        <time>2020-07-09T13:42:06Z</time>
      </trkpt>
      <trkpt lat="41.6443260" lon="2.1121780">
        <ele>459.2</ele>
        <time>2020-07-09T13:42:07Z</time>
      </trkpt>
      <trkpt lat="41.6443230" lon="2.1121770">
        <ele>459.2</ele>
        <time>2020-07-09T13:42:08Z</time>
      </trkpt>
      <trkpt lat="41.6443190" lon="2.1121770">
        <ele>459.1</ele>
        <time>2020-07-09T13:42:09Z</time>
      </trkpt>
      <trkpt lat="41.6443150" lon="2.1121760">
        <ele>459.0</ele>
        <time>2020-07-09T13:42:10Z</time>
      </trkpt>
      <trkpt lat="41.6443100" lon="2.1121760">
        <ele>458.9</ele>
        <time>2020-07-09T13:42:11Z</time>
      </trkpt>
      <trkpt lat="41.6443050" lon="2.1121760">
        <ele>458.8</ele>
        <time>2020-07-09T13:42:12Z</time>
      </trkpt>
      <trkpt lat="41.6442990" lon="2.1121760">
        <ele>458.7</ele>
        <time>2020-07-09T13:42:13Z</time>
      </trkpt>
      <trkpt lat="41.6442930" lon="2.1121770">
        <ele>458.6</ele>
        <time>2020-07-09T13:42:14Z</time>
      </trkpt>
      <trkpt lat="41.6442870" lon="2.1121780">
        <ele>458.5</ele>
        <time>2020-07-09T13:42:15Z</time>
      </trkpt>
      <trkpt lat="41.6442810" lon="2.1121790">
        <ele>458.4</ele>
        <time>2020-07-09T13:42:16Z</time>
      </trkpt>
      <trkpt lat="41.6442740" lon="2.1121810">
        <ele>458.2</ele>
        <time>2020-07-09T13:42:17Z</time>
      </trkpt>
      <trkpt lat="41.6442680" lon="2.1121830">
        <ele>458.1</ele>
        <time>2020-07-09T13:42:18Z</time>
      </trkpt>
      <trkpt lat="41.6442610" lon="2.1121870">
        <ele>458.0</ele>
        <time>2020-07-09T13:42:19Z</time>
      </trkpt>
      <trkpt lat="41.6442550" lon="2.1121910">
        <ele>457.9</ele>
        <time>2020-07-09T13:42:20Z</time>
      </trkpt>
      <trkpt lat="41.6442490" lon="2.1121960">
        <ele>457.7</ele>
        <time>2020-07-09T13:42:21Z</time>
      </trkpt>
      <trkpt lat="41.6442430" lon="2.1122030">
        <ele>457.6</ele>
        <time>2020-07-09T13:42:22Z</time>
      </trkpt>
      <trkpt lat="41.6442380" lon="2.1122100">
        <ele>457.4</ele>
        <time>2020-07-09T13:42:23Z</time>
      </trkpt>
      <trkpt lat="41.6442320" lon="2.1122170">
        <ele>457.3</ele>
        <time>2020-07-09T13:42:24Z</time>
      </trkpt>
      <trkpt lat="41.6442260" lon="2.1122240">
        <ele>457.1</ele>
        <time>2020-07-09T13:42:25Z</time>
      </trkpt>
      <trkpt lat="41.6442200" lon="2.1122300">
        <ele>457.0</ele>
        <time>2020-07-09T13:42:26Z</time>
      </trkpt>
      <trkpt lat="41.6442130" lon="2.1122360">
        <ele>456.9</ele>
        <time>2020-07-09T13:42:27Z</time>
      </trkpt>
      <trkpt lat="41.6442050" lon="2.1122400">
        <ele>456.7</ele>
        <time>2020-07-09T13:42:28Z</time>
      </trkpt>
      <trkpt lat="41.6441980" lon="2.1122440">
        <ele>456.5</ele>
        <time>2020-07-09T13:42:29Z</time>
      </trkpt>
      <trkpt lat="41.6441900" lon="2.1122470">
        <ele>456.4</ele>
        <time>2020-07-09T13:42:30Z</time>
      </trkpt>
      <trkpt lat="41.6441830" lon="2.1122500">
        <ele>456.3</ele>
        <time>2020-07-09T13:42:31Z</time>
      </trkpt>
      <trkpt lat="41.6441760" lon="2.1122530">
        <ele>456.1</ele>
        <time>2020-07-09T13:42:32Z</time>
      </trkpt>
      <trkpt lat="41.6441700" lon="2.1122560">
        <ele>456.0</ele>
        <time>2020-07-09T13:42:33Z</time>
      </trkpt>
      <trkpt lat="41.6441640" lon="2.1122580">
        <ele>455.9</ele>
        <time>2020-07-09T13:42:34Z</time>
      </trkpt>
      <trkpt lat="41.6441580" lon="2.1122610">
        <ele>455.8</ele>
        <time>2020-07-09T13:42:35Z</time>
      </trkpt>
      <trkpt lat="41.6441520" lon="2.1122630">
        <ele>455.6</ele>
        <time>2020-07-09T13:42:36Z</time>
      </trkpt>
      <trkpt lat="41.6441460" lon="2.1122640">
        <ele>455.5</ele>
        <time>2020-07-09T13:42:37Z</time>
      </trkpt>
      <trkpt lat="41.6441400" lon="2.1122650">
        <ele>455.4</ele>
        <time>2020-07-09T13:42:38Z</time>
      </trkpt>
      <trkpt lat="41.6441350" lon="2.1122660">
        <ele>455.3</ele>
        <time>2020-07-09T13:42:39Z</time>
      </trkpt>
      <trkpt lat="41.6441290" lon="2.1122660">
        <ele>455.2</ele>
        <time>2020-07-09T13:42:40Z</time>
      </trkpt>
      <trkpt lat="41.6441230" lon="2.1122660">
        <ele>455.1</ele>
        <time>2020-07-09T13:42:41Z</time>
      </trkpt>
      <trkpt lat="41.6441170" lon="2.1122660">
        <ele>455.0</ele>
        <time>2020-07-09T13:42:42Z</time>
      </trkpt>
      <trkpt lat="41.6441110" lon="2.1122660">
        <ele>454.9</ele>
        <time>2020-07-09T13:42:43Z</time>
      </trkpt>
      <trkpt lat="41.6441050" lon="2.1122660">
        <ele>454.8</ele>
        <time>2020-07-09T13:42:44Z</time>
      </trkpt>
      <trkpt lat="41.6440990" lon="2.1122670">
        <ele>454.7</ele>
        <time>2020-07-09T13:42:45Z</time>
      </trkpt>
      <trkpt lat="41.6440930" lon="2.1122680">
        <ele>454.6</ele>
        <time>2020-07-09T13:42:46Z</time>
      </trkpt>
      <trkpt lat="41.6440870" lon="2.1122700">
        <ele>454.4</ele>
        <time>2020-07-09T13:42:47Z</time>
      </trkpt>
      <trkpt lat="41.6440810" lon="2.1122730">
        <ele>454.3</ele>
        <time>2020-07-09T13:42:48Z</time>
      </trkpt>
      <trkpt lat="41.6440750" lon="2.1122770">
        <ele>454.2</ele>
        <time>2020-07-09T13:42:49Z</time>
      </trkpt>
      <trkpt lat="41.6440690" lon="2.1122820">
        <ele>454.1</ele>
        <time>2020-07-09T13:42:50Z</time>
      </trkpt>
      <trkpt lat="41.6440630" lon="2.1122880">
        <ele>453.9</ele>
        <time>2020-07-09T13:42:51Z</time>
      </trkpt>
      <trkpt lat="41.6440570" lon="2.1122950">
        <ele>453.8</ele>
        <time>2020-07-09T13:42:52Z</time>
      </trkpt>
      <trkpt lat="41.6440520" lon="2.1123020">
        <ele>453.7</ele>
        <time>2020-07-09T13:42:53Z</time>
      </trkpt>
      <trkpt lat="41.6440460" lon="2.1123100">
        <ele>453.5</ele>
        <time>2020-07-09T13:42:54Z</time>
      </trkpt>
      <trkpt lat="41.6440410" lon="2.1123170">
        <ele>453.4</ele>
        <time>2020-07-09T13:42:55Z</time>
      </trkpt>
      <trkpt lat="41.6440360" lon="2.1123240">
        <ele>453.3</ele>
        <time>2020-07-09T13:42:56Z</time>
      </trkpt>
      <trkpt lat="41.6440320" lon="2.1123290">
        <ele>453.2</ele>
        <time>2020-07-09T13:42:57Z</time>
      </trkpt>
      <trkpt lat="41.6440280" lon="2.1123340">
        <ele>453.1</ele>
        <time>2020-07-09T13:42:58Z</time>
      </trkpt>
      <trkpt lat="41.6440250" lon="2.1123370">
        <ele>453.0</ele>
        <time>2020-07-09T13:42:59Z</time>
      </trkpt>
      <trkpt lat="41.6440210" lon="2.1123390">
        <ele>453.0</ele>
        <time>2020-07-09T13:43:00Z</time>
      </trkpt>
      <trkpt lat="41.6440180" lon="2.1123410">
        <ele>452.9</ele>
        <time>2020-07-09T13:43:01Z</time>
      </trkpt>
      <trkpt lat="41.6440160" lon="2.1123420">
        <ele>452.9</ele>
        <time>2020-07-09T13:43:02Z</time>
      </trkpt>
      <trkpt lat="41.6440130" lon="2.1123440">
        <ele>452.8</ele>
        <time>2020-07-09T13:43:03Z</time>
      </trkpt>
      <trkpt lat="41.6440090" lon="2.1123460">
        <ele>452.8</ele>
        <time>2020-07-09T13:43:04Z</time>
      </trkpt>
      <trkpt lat="41.6440060" lon="2.1123490">
        <ele>452.7</ele>
        <time>2020-07-09T13:43:05Z</time>
      </trkpt>
      <trkpt lat="41.6440020" lon="2.1123530">
        <ele>452.6</ele>
        <time>2020-07-09T13:43:06Z</time>
      </trkpt>
      <trkpt lat="41.6439970" lon="2.1123600">
        <ele>452.6</ele>
        <time>2020-07-09T13:43:07Z</time>
      </trkpt>
      <trkpt lat="41.6439920" lon="2.1123680">
        <ele>452.4</ele>
        <time>2020-07-09T13:43:08Z</time>
      </trkpt>
      <trkpt lat="41.6439860" lon="2.1123780">
        <ele>452.3</ele>
        <time>2020-07-09T13:43:09Z</time>
      </trkpt>
      <trkpt lat="41.6439810" lon="2.1123890">
        <ele>452.2</ele>
        <time>2020-07-09T13:43:10Z</time>
      </trkpt>
      <trkpt lat="41.6439750" lon="2.1124010">
        <ele>452.1</ele>
        <time>2020-07-09T13:43:11Z</time>
      </trkpt>
      <trkpt lat="41.6439710" lon="2.1124140">
        <ele>452.0</ele>
        <time>2020-07-09T13:43:12Z</time>
      </trkpt>
      <trkpt lat="41.6439670" lon="2.1124260">
        <ele>451.9</ele>
        <time>2020-07-09T13:43:13Z</time>
      </trkpt>
      <trkpt lat="41.6439640" lon="2.1124370">
        <ele>451.8</ele>
        <time>2020-07-09T13:43:14Z</time>
      </trkpt>
      <trkpt lat="41.6439610" lon="2.1124490">
        <ele>451.7</ele>
        <time>2020-07-09T13:43:15Z</time>
      </trkpt>
      <trkpt lat="41.6439590" lon="2.1124600">
        <ele>451.6</ele>
        <time>2020-07-09T13:43:16Z</time>
      </trkpt>
      <trkpt lat="41.6439570" lon="2.1124700">
        <ele>451.6</ele>
        <time>2020-07-09T13:43:17Z</time>
      </trkpt>
      <trkpt lat="41.6439540" lon="2.1124810">
        <ele>451.5</ele>
        <time>2020-07-09T13:43:18Z</time>
      </trkpt>
      <trkpt lat="41.6439520" lon="2.1124920">
        <ele>451.5</ele>
        <time>2020-07-09T13:43:19Z</time>
      </trkpt>
      <trkpt lat="41.6439470" lon="2.1125190">
        <ele>451.3</ele>
        <time>2020-07-09T13:43:20Z</time>
      </trkpt>
      <trkpt lat="41.6439440" lon="2.1125330">
        <ele>451.3</ele>
        <time>2020-07-09T13:43:21Z</time>
      </trkpt>
      <trkpt lat="41.6439410" lon="2.1125470">
        <ele>451.2</ele>
        <time>2020-07-09T13:43:22Z</time>
      </trkpt>
      <trkpt lat="41.6439380" lon="2.1125610">
        <ele>451.1</ele>
        <time>2020-07-09T13:43:23Z</time>
      </trkpt>
      <trkpt lat="41.6439350" lon="2.1125750">
        <ele>451.1</ele>
        <time>2020-07-09T13:43:24Z</time>
      </trkpt>
      <trkpt lat="41.6439330" lon="2.1125900">
        <ele>451.0</ele>
        <time>2020-07-09T13:43:25Z</time>
      </trkpt>
      <trkpt lat="41.6439300" lon="2.1126040">
        <ele>451.0</ele>
        <time>2020-07-09T13:43:26Z</time>
      </trkpt>
      <trkpt lat="41.6439270" lon="2.1126180">
        <ele>450.9</ele>
        <time>2020-07-09T13:43:27Z</time>
      </trkpt>
      <trkpt lat="41.6439240" lon="2.1126320">
        <ele>450.9</ele>
        <time>2020-07-09T13:43:28Z</time>
      </trkpt>
      <trkpt lat="41.6439210" lon="2.1126460">
        <ele>450.9</ele>
        <time>2020-07-09T13:43:29Z</time>
      </trkpt>
      <trkpt lat="41.6439180" lon="2.1126600">
        <ele>450.8</ele>
        <time>2020-07-09T13:43:30Z</time>
      </trkpt>
      <trkpt lat="41.6439120" lon="2.1126720">
        <ele>450.8</ele>
        <time>2020-07-09T13:43:31Z</time>
      </trkpt>
      <trkpt lat="41.6439050" lon="2.1126840">
        <ele>450.7</ele>
        <time>2020-07-09T13:43:32Z</time>
      </trkpt>
      <trkpt lat="41.6438990" lon="2.1126950">
        <ele>450.7</ele>
        <time>2020-07-09T13:43:33Z</time>
      </trkpt>
      <trkpt lat="41.6438920" lon="2.1127060">
        <ele>450.6</ele>
        <time>2020-07-09T13:43:34Z</time>
      </trkpt>
      <trkpt lat="41.6438860" lon="2.1127180">
        <ele>450.6</ele>
        <time>2020-07-09T13:43:35Z</time>
      </trkpt>
      <trkpt lat="41.6438800" lon="2.1127300">
        <ele>450.6</ele>
        <time>2020-07-09T13:43:36Z</time>
      </trkpt>
      <trkpt lat="41.6438750" lon="2.1127430">
        <ele>450.5</ele>
        <time>2020-07-09T13:43:37Z</time>
      </trkpt>
      <trkpt lat="41.6438690" lon="2.1127560">
        <ele>450.5</ele>
        <time>2020-07-09T13:43:38Z</time>
      </trkpt>
      <trkpt lat="41.6438640" lon="2.1127690">
        <ele>450.4</ele>
        <time>2020-07-09T13:43:39Z</time>
      </trkpt>
      <trkpt lat="41.6438590" lon="2.1127830">
        <ele>450.4</ele>
        <time>2020-07-09T13:43:40Z</time>
      </trkpt>
      <trkpt lat="41.6438550" lon="2.1127970">
        <ele>450.3</ele>
        <time>2020-07-09T13:43:41Z</time>
      </trkpt>
      <trkpt lat="41.6438500" lon="2.1128120">
        <ele>450.3</ele>
        <time>2020-07-09T13:43:42Z</time>
      </trkpt>
      <trkpt lat="41.6438450" lon="2.1128280">
        <ele>450.2</ele>
        <time>2020-07-09T13:43:43Z</time>
      </trkpt>
      <trkpt lat="41.6438400" lon="2.1128430">
        <ele>450.1</ele>
        <time>2020-07-09T13:43:44Z</time>
      </trkpt>
      <trkpt lat="41.6438350" lon="2.1128600">
        <ele>450.1</ele>
        <time>2020-07-09T13:43:45Z</time>
      </trkpt>
      <trkpt lat="41.6438300" lon="2.1128760">
        <ele>450.0</ele>
        <time>2020-07-09T13:43:46Z</time>
      </trkpt>
      <trkpt lat="41.6438250" lon="2.1128930">
        <ele>449.9</ele>
        <time>2020-07-09T13:43:47Z</time>
      </trkpt>
      <trkpt lat="41.6438200" lon="2.1129110">
        <ele>449.8</ele>
        <time>2020-07-09T13:43:48Z</time>
      </trkpt>
      <trkpt lat="41.6438140" lon="2.1129290">
        <ele>449.8</ele>
        <time>2020-07-09T13:43:49Z</time>
      </trkpt>
      <trkpt lat="41.6438080" lon="2.1129470">
        <ele>449.7</ele>
        <time>2020-07-09T13:43:50Z</time>
      </trkpt>
      <trkpt lat="41.6438020" lon="2.1129660">
        <ele>449.6</ele>
        <time>2020-07-09T13:43:51Z</time>
      </trkpt>
      <trkpt lat="41.6437950" lon="2.1129850">
        <ele>449.5</ele>
        <time>2020-07-09T13:43:52Z</time>
      </trkpt>
      <trkpt lat="41.6437870" lon="2.1130040">
        <ele>449.4</ele>
        <time>2020-07-09T13:43:53Z</time>
      </trkpt>
      <trkpt lat="41.6437790" lon="2.1130240">
        <ele>449.3</ele>
        <time>2020-07-09T13:43:54Z</time>
      </trkpt>
      <trkpt lat="41.6437710" lon="2.1130440">
        <ele>449.1</ele>
        <time>2020-07-09T13:43:55Z</time>
      </trkpt>
      <trkpt lat="41.6437640" lon="2.1130640">
        <ele>449.0</ele>
        <time>2020-07-09T13:43:56Z</time>
      </trkpt>
      <trkpt lat="41.6437570" lon="2.1130830">
        <ele>448.9</ele>
        <time>2020-07-09T13:43:57Z</time>
      </trkpt>
      <trkpt lat="41.6437520" lon="2.1131010">
        <ele>448.8</ele>
        <time>2020-07-09T13:43:58Z</time>
      </trkpt>
      <trkpt lat="41.6437490" lon="2.1131180">
        <ele>448.7</ele>
        <time>2020-07-09T13:43:59Z</time>
      </trkpt>
      <trkpt lat="41.6437470" lon="2.1131340">
        <ele>448.5</ele>
        <time>2020-07-09T13:44:00Z</time>
      </trkpt>
      <trkpt lat="41.6437460" lon="2.1131490">
        <ele>448.4</ele>
        <time>2020-07-09T13:44:01Z</time>
      </trkpt>
      <trkpt lat="41.6437440" lon="2.1131620">
        <ele>448.4</ele>
        <time>2020-07-09T13:44:02Z</time>
      </trkpt>
      <trkpt lat="41.6437420" lon="2.1131760">
        <ele>448.2</ele>
        <time>2020-07-09T13:44:03Z</time>
      </trkpt>
      <trkpt lat="41.6437380" lon="2.1131880">
        <ele>448.1</ele>
        <time>2020-07-09T13:44:04Z</time>
      </trkpt>
      <trkpt lat="41.6437330" lon="2.1132000">
        <ele>448.0</ele>
        <time>2020-07-09T13:44:05Z</time>
      </trkpt>
      <trkpt lat="41.6437270" lon="2.1132110">
        <ele>447.9</ele>
        <time>2020-07-09T13:44:06Z</time>
      </trkpt>
      <trkpt lat="41.6437200" lon="2.1132210">
        <ele>447.8</ele>
        <time>2020-07-09T13:44:07Z</time>
      </trkpt>
      <trkpt lat="41.6437120" lon="2.1132310">
        <ele>447.7</ele>
        <time>2020-07-09T13:44:08Z</time>
      </trkpt>
      <trkpt lat="41.6437030" lon="2.1132400">
        <ele>446.9</ele>
        <time>2020-07-09T13:44:09Z</time>
      </trkpt>
      <trkpt lat="41.6436940" lon="2.1132490">
        <ele>446.7</ele>
        <time>2020-07-09T13:44:10Z</time>
      </trkpt>
      <trkpt lat="41.6436840" lon="2.1132570">
        <ele>446.6</ele>
        <time>2020-07-09T13:44:11Z</time>
      </trkpt>
      <trkpt lat="41.6436730" lon="2.1132640">
        <ele>446.4</ele>
        <time>2020-07-09T13:44:12Z</time>
      </trkpt>
      <trkpt lat="41.6436620" lon="2.1132720">
        <ele>446.2</ele>
        <time>2020-07-09T13:44:13Z</time>
      </trkpt>
      <trkpt lat="41.6436510" lon="2.1132790">
        <ele>446.1</ele>
        <time>2020-07-09T13:44:14Z</time>
      </trkpt>
      <trkpt lat="41.6436380" lon="2.1132860">
        <ele>445.9</ele>
        <time>2020-07-09T13:44:15Z</time>
      </trkpt>
      <trkpt lat="41.6436260" lon="2.1132940">
        <ele>445.7</ele>
        <time>2020-07-09T13:44:16Z</time>
      </trkpt>
      <trkpt lat="41.6436120" lon="2.1133040">
        <ele>445.5</ele>
        <time>2020-07-09T13:44:17Z</time>
      </trkpt>
      <trkpt lat="41.6435970" lon="2.1133150">
        <ele>445.3</ele>
        <time>2020-07-09T13:44:18Z</time>
      </trkpt>
      <trkpt lat="41.6435820" lon="2.1133270">
        <ele>445.1</ele>
        <time>2020-07-09T13:44:19Z</time>
      </trkpt>
      <trkpt lat="41.6435650" lon="2.1133400">
        <ele>444.8</ele>
        <time>2020-07-09T13:44:20Z</time>
      </trkpt>
      <trkpt lat="41.6435480" lon="2.1133550">
        <ele>444.6</ele>
        <time>2020-07-09T13:44:21Z</time>
      </trkpt>
      <trkpt lat="41.6435310" lon="2.1133700">
        <ele>444.3</ele>
        <time>2020-07-09T13:44:22Z</time>
      </trkpt>
      <trkpt lat="41.6435130" lon="2.1133860">
        <ele>444.0</ele>
        <time>2020-07-09T13:44:23Z</time>
      </trkpt>
      <trkpt lat="41.6434960" lon="2.1133990">
        <ele>443.8</ele>
        <time>2020-07-09T13:44:24Z</time>
      </trkpt>
      <trkpt lat="41.6434790" lon="2.1134080">
        <ele>443.5</ele>
        <time>2020-07-09T13:44:25Z</time>
      </trkpt>
      <trkpt lat="41.6434630" lon="2.1134130">
        <ele>443.3</ele>
        <time>2020-07-09T13:44:26Z</time>
      </trkpt>
      <trkpt lat="41.6434490" lon="2.1134120">
        <ele>443.1</ele>
        <time>2020-07-09T13:44:27Z</time>
      </trkpt>
      <trkpt lat="41.6434350" lon="2.1134070">
        <ele>442.9</ele>
        <time>2020-07-09T13:44:28Z</time>
      </trkpt>
      <trkpt lat="41.6434230" lon="2.1134000">
        <ele>442.7</ele>
        <time>2020-07-09T13:44:29Z</time>
      </trkpt>
      <trkpt lat="41.6434100" lon="2.1133930">
        <ele>442.5</ele>
        <time>2020-07-09T13:44:30Z</time>
      </trkpt>
      <trkpt lat="41.6433980" lon="2.1133890">
        <ele>442.3</ele>
        <time>2020-07-09T13:44:31Z</time>
      </trkpt>
      <trkpt lat="41.6433850" lon="2.1133870">
        <ele>442.1</ele>
        <time>2020-07-09T13:44:32Z</time>
      </trkpt>
      <trkpt lat="41.6433710" lon="2.1133880">
        <ele>441.9</ele>
        <time>2020-07-09T13:44:33Z</time>
      </trkpt>
      <trkpt lat="41.6433580" lon="2.1133900">
        <ele>441.8</ele>
        <time>2020-07-09T13:44:34Z</time>
      </trkpt>
      <trkpt lat="41.6433440" lon="2.1133940">
        <ele>441.6</ele>
        <time>2020-07-09T13:44:35Z</time>
      </trkpt>
      <trkpt lat="41.6433300" lon="2.1133980">
        <ele>441.4</ele>
        <time>2020-07-09T13:44:36Z</time>
      </trkpt>
      <trkpt lat="41.6433160" lon="2.1134030">
        <ele>441.1</ele>
        <time>2020-07-09T13:44:37Z</time>
      </trkpt>
      <trkpt lat="41.6433020" lon="2.1134080">
        <ele>440.9</ele>
        <time>2020-07-09T13:44:38Z</time>
      </trkpt>
      <trkpt lat="41.6432870" lon="2.1134130">
        <ele>440.7</ele>
        <time>2020-07-09T13:44:39Z</time>
      </trkpt>
      <trkpt lat="41.6432720" lon="2.1134160">
        <ele>440.5</ele>
        <time>2020-07-09T13:44:40Z</time>
      </trkpt>
      <trkpt lat="41.6432570" lon="2.1134190">
        <ele>440.3</ele>
        <time>2020-07-09T13:44:41Z</time>
      </trkpt>
      <trkpt lat="41.6432410" lon="2.1134210">
        <ele>440.1</ele>
        <time>2020-07-09T13:44:42Z</time>
      </trkpt>
      <trkpt lat="41.6432260" lon="2.1134220">
        <ele>439.9</ele>
        <time>2020-07-09T13:44:43Z</time>
      </trkpt>
      <trkpt lat="41.6432100" lon="2.1134230">
        <ele>439.6</ele>
        <time>2020-07-09T13:44:44Z</time>
      </trkpt>
      <trkpt lat="41.6431950" lon="2.1134240">
        <ele>439.4</ele>
        <time>2020-07-09T13:44:45Z</time>
      </trkpt>
      <trkpt lat="41.6431790" lon="2.1134250">
        <ele>439.2</ele>
        <time>2020-07-09T13:44:46Z</time>
      </trkpt>
      <trkpt lat="41.6431640" lon="2.1134270">
        <ele>439.0</ele>
        <time>2020-07-09T13:44:47Z</time>
      </trkpt>
      <trkpt lat="41.6431490" lon="2.1134290">
        <ele>438.8</ele>
        <time>2020-07-09T13:44:48Z</time>
      </trkpt>
      <trkpt lat="41.6431330" lon="2.1134320">
        <ele>438.6</ele>
        <time>2020-07-09T13:44:49Z</time>
      </trkpt>
      <trkpt lat="41.6431190" lon="2.1134370">
        <ele>438.4</ele>
        <time>2020-07-09T13:44:50Z</time>
      </trkpt>
      <trkpt lat="41.6431040" lon="2.1134420">
        <ele>438.1</ele>
        <time>2020-07-09T13:44:51Z</time>
      </trkpt>
      <trkpt lat="41.6430890" lon="2.1134490">
        <ele>437.9</ele>
        <time>2020-07-09T13:44:52Z</time>
      </trkpt>
      <trkpt lat="41.6430750" lon="2.1134580">
        <ele>437.7</ele>
        <time>2020-07-09T13:44:53Z</time>
      </trkpt>
      <trkpt lat="41.6430620" lon="2.1134670">
        <ele>437.5</ele>
        <time>2020-07-09T13:44:54Z</time>
      </trkpt>
      <trkpt lat="41.6430480" lon="2.1134780">
        <ele>437.3</ele>
        <time>2020-07-09T13:44:55Z</time>
      </trkpt>
      <trkpt lat="41.6430350" lon="2.1134890">
        <ele>437.1</ele>
        <time>2020-07-09T13:44:56Z</time>
      </trkpt>
      <trkpt lat="41.6430210" lon="2.1134990">
        <ele>436.8</ele>
        <time>2020-07-09T13:44:57Z</time>
      </trkpt>
      <trkpt lat="41.6430070" lon="2.1135090">
        <ele>436.6</ele>
        <time>2020-07-09T13:44:58Z</time>
      </trkpt>
      <trkpt lat="41.6429930" lon="2.1135160">
        <ele>436.4</ele>
        <time>2020-07-09T13:44:59Z</time>
      </trkpt>
      <trkpt lat="41.6429780" lon="2.1135220">
        <ele>436.2</ele>
        <time>2020-07-09T13:45:00Z</time>
      </trkpt>
      <trkpt lat="41.6429620" lon="2.1135260">
        <ele>436.0</ele>
        <time>2020-07-09T13:45:01Z</time>
      </trkpt>
      <trkpt lat="41.6429470" lon="2.1135280">
        <ele>435.8</ele>
        <time>2020-07-09T13:45:02Z</time>
      </trkpt>
      <trkpt lat="41.6429310" lon="2.1135290">
        <ele>435.6</ele>
        <time>2020-07-09T13:45:03Z</time>
      </trkpt>
      <trkpt lat="41.6429150" lon="2.1135290">
        <ele>435.4</ele>
        <time>2020-07-09T13:45:04Z</time>
      </trkpt>
      <trkpt lat="41.6428990" lon="2.1135280">
        <ele>435.2</ele>
        <time>2020-07-09T13:45:05Z</time>
      </trkpt>
      <trkpt lat="41.6428820" lon="2.1135260">
        <ele>435.0</ele>
        <time>2020-07-09T13:45:06Z</time>
      </trkpt>
      <trkpt lat="41.6428660" lon="2.1135230">
        <ele>434.8</ele>
        <time>2020-07-09T13:45:07Z</time>
      </trkpt>
      <trkpt lat="41.6428500" lon="2.1135190">
        <ele>434.7</ele>
        <time>2020-07-09T13:45:08Z</time>
      </trkpt>
      <trkpt lat="41.6428350" lon="2.1135150">
        <ele>434.5</ele>
        <time>2020-07-09T13:45:09Z</time>
      </trkpt>
      <trkpt lat="41.6428190" lon="2.1135110">
        <ele>434.3</ele>
        <time>2020-07-09T13:45:10Z</time>
      </trkpt>
      <trkpt lat="41.6428040" lon="2.1135070">
        <ele>434.1</ele>
        <time>2020-07-09T13:45:11Z</time>
      </trkpt>
      <trkpt lat="41.6427890" lon="2.1135030">
        <ele>434.0</ele>
        <time>2020-07-09T13:45:12Z</time>
      </trkpt>
      <trkpt lat="41.6427740" lon="2.1134990">
        <ele>433.8</ele>
        <time>2020-07-09T13:45:13Z</time>
      </trkpt>
      <trkpt lat="41.6427600" lon="2.1134960">
        <ele>433.7</ele>
        <time>2020-07-09T13:45:14Z</time>
      </trkpt>
      <trkpt lat="41.6427460" lon="2.1134940">
        <ele>433.5</ele>
        <time>2020-07-09T13:45:15Z</time>
      </trkpt>
      <trkpt lat="41.6427330" lon="2.1134930">
        <ele>433.4</ele>
        <time>2020-07-09T13:45:16Z</time>
      </trkpt>
      <trkpt lat="41.6427200" lon="2.1134930">
        <ele>433.3</ele>
        <time>2020-07-09T13:45:17Z</time>
      </trkpt>
      <trkpt lat="41.6427070" lon="2.1134950">
        <ele>433.1</ele>
        <time>2020-07-09T13:45:18Z</time>
      </trkpt>
      <trkpt lat="41.6426950" lon="2.1134980">
        <ele>433.0</ele>
        <time>2020-07-09T13:45:19Z</time>
      </trkpt>
      <trkpt lat="41.6426830" lon="2.1135020">
        <ele>432.9</ele>
        <time>2020-07-09T13:45:20Z</time>
      </trkpt>
      <trkpt lat="41.6426720" lon="2.1135070">
        <ele>432.8</ele>
        <time>2020-07-09T13:45:21Z</time>
      </trkpt>
      <trkpt lat="41.6426610" lon="2.1135130">
        <ele>432.7</ele>
        <time>2020-07-09T13:45:22Z</time>
      </trkpt>
      <trkpt lat="41.6426500" lon="2.1135190">
        <ele>432.6</ele>
        <time>2020-07-09T13:45:23Z</time>
      </trkpt>
      <trkpt lat="41.6426390" lon="2.1135270">
        <ele>432.4</ele>
        <time>2020-07-09T13:45:24Z</time>
      </trkpt>
      <trkpt lat="41.6426280" lon="2.1135350">
        <ele>432.3</ele>
        <time>2020-07-09T13:45:25Z</time>
      </trkpt>
      <trkpt lat="41.6426170" lon="2.1135440">
        <ele>432.2</ele>
        <time>2020-07-09T13:45:26Z</time>
      </trkpt>
      <trkpt lat="41.6426060" lon="2.1135530">
        <ele>432.1</ele>
        <time>2020-07-09T13:45:27Z</time>
      </trkpt>
      <trkpt lat="41.6425950" lon="2.1135620">
        <ele>431.9</ele>
        <time>2020-07-09T13:45:28Z</time>
      </trkpt>
      <trkpt lat="41.6425840" lon="2.1135720">
        <ele>431.8</ele>
        <time>2020-07-09T13:45:29Z</time>
      </trkpt>
      <trkpt lat="41.6425720" lon="2.1135820">
        <ele>431.7</ele>
        <time>2020-07-09T13:45:30Z</time>
      </trkpt>
      <trkpt lat="41.6425610" lon="2.1135920">
        <ele>431.5</ele>
        <time>2020-07-09T13:45:31Z</time>
      </trkpt>
      <trkpt lat="41.6425500" lon="2.1136020">
        <ele>431.4</ele>
        <time>2020-07-09T13:45:32Z</time>
      </trkpt>
      <trkpt lat="41.6425380" lon="2.1136120">
        <ele>431.3</ele>
        <time>2020-07-09T13:45:33Z</time>
      </trkpt>
      <trkpt lat="41.6425270" lon="2.1136220">
        <ele>431.1</ele>
        <time>2020-07-09T13:45:34Z</time>
      </trkpt>
      <trkpt lat="41.6425160" lon="2.1136320">
        <ele>431.0</ele>
        <time>2020-07-09T13:45:35Z</time>
      </trkpt>
      <trkpt lat="41.6425050" lon="2.1136420">
        <ele>430.9</ele>
        <time>2020-07-09T13:45:36Z</time>
      </trkpt>
      <trkpt lat="41.6424930" lon="2.1136520">
        <ele>430.7</ele>
        <time>2020-07-09T13:45:37Z</time>
      </trkpt>
      <trkpt lat="41.6424820" lon="2.1136610">
        <ele>430.6</ele>
        <time>2020-07-09T13:45:38Z</time>
      </trkpt>
      <trkpt lat="41.6424700" lon="2.1136700">
        <ele>430.5</ele>
        <time>2020-07-09T13:45:39Z</time>
      </trkpt>
      <trkpt lat="41.6424580" lon="2.1136790">
        <ele>430.3</ele>
        <time>2020-07-09T13:45:40Z</time>
      </trkpt>
      <trkpt lat="41.6424460" lon="2.1136880">
        <ele>430.2</ele>
        <time>2020-07-09T13:45:41Z</time>
      </trkpt>
      <trkpt lat="41.6424340" lon="2.1136960">
        <ele>430.1</ele>
        <time>2020-07-09T13:45:42Z</time>
      </trkpt>
      <trkpt lat="41.6424210" lon="2.1137040">
        <ele>429.9</ele>
        <time>2020-07-09T13:45:43Z</time>
      </trkpt>
      <trkpt lat="41.6424070" lon="2.1137110">
        <ele>429.8</ele>
        <time>2020-07-09T13:45:44Z</time>
      </trkpt>
      <trkpt lat="41.6423930" lon="2.1137180">
        <ele>429.6</ele>
        <time>2020-07-09T13:45:45Z</time>
      </trkpt>
      <trkpt lat="41.6423780" lon="2.1137250">
        <ele>429.5</ele>
        <time>2020-07-09T13:45:46Z</time>
      </trkpt>
      <trkpt lat="41.6423630" lon="2.1137320">
        <ele>429.3</ele>
        <time>2020-07-09T13:45:47Z</time>
      </trkpt>
      <trkpt lat="41.6423470" lon="2.1137380">
        <ele>429.2</ele>
        <time>2020-07-09T13:45:48Z</time>
      </trkpt>
      <trkpt lat="41.6423310" lon="2.1137450">
        <ele>429.0</ele>
        <time>2020-07-09T13:45:49Z</time>
      </trkpt>
      <trkpt lat="41.6423150" lon="2.1137510">
        <ele>428.8</ele>
        <time>2020-07-09T13:45:50Z</time>
      </trkpt>
      <trkpt lat="41.6423000" lon="2.1137580">
        <ele>428.6</ele>
        <time>2020-07-09T13:45:51Z</time>
      </trkpt>
      <trkpt lat="41.6422840" lon="2.1137660">
        <ele>428.5</ele>
        <time>2020-07-09T13:45:52Z</time>
      </trkpt>
      <trkpt lat="41.6422690" lon="2.1137740">
        <ele>428.3</ele>
        <time>2020-07-09T13:45:53Z</time>
      </trkpt>
      <trkpt lat="41.6422540" lon="2.1137830">
        <ele>428.1</ele>
        <time>2020-07-09T13:45:54Z</time>
      </trkpt>
      <trkpt lat="41.6422390" lon="2.1137920">
        <ele>428.0</ele>
        <time>2020-07-09T13:45:55Z</time>
      </trkpt>
      <trkpt lat="41.6422250" lon="2.1138030">
        <ele>427.8</ele>
        <time>2020-07-09T13:45:56Z</time>
      </trkpt>
      <trkpt lat="41.6422120" lon="2.1138130">
        <ele>427.6</ele>
        <time>2020-07-09T13:45:57Z</time>
      </trkpt>
      <trkpt lat="41.6421990" lon="2.1138250">
        <ele>427.4</ele>
        <time>2020-07-09T13:45:58Z</time>
      </trkpt>
      <trkpt lat="41.6421860" lon="2.1138360">
        <ele>427.3</ele>
        <time>2020-07-09T13:45:59Z</time>
      </trkpt>
      <trkpt lat="41.6421740" lon="2.1138480">
        <ele>427.1</ele>
        <time>2020-07-09T13:46:00Z</time>
      </trkpt>
      <trkpt lat="41.6421620" lon="2.1138600">
        <ele>426.9</ele>
        <time>2020-07-09T13:46:01Z</time>
      </trkpt>
      <trkpt lat="41.6421510" lon="2.1138720">
        <ele>426.8</ele>
        <time>2020-07-09T13:46:02Z</time>
      </trkpt>
      <trkpt lat="41.6421400" lon="2.1138840">
        <ele>426.6</ele>
        <time>2020-07-09T13:46:03Z</time>
      </trkpt>
      <trkpt lat="41.6421290" lon="2.1138960">
        <ele>426.4</ele>
        <time>2020-07-09T13:46:04Z</time>
      </trkpt>
      <trkpt lat="41.6421190" lon="2.1139070">
        <ele>426.3</ele>
        <time>2020-07-09T13:46:05Z</time>
      </trkpt>
      <trkpt lat="41.6421080" lon="2.1139180">
        <ele>426.1</ele>
        <time>2020-07-09T13:46:06Z</time>
      </trkpt>
      <trkpt lat="41.6420960" lon="2.1139290">
        <ele>425.9</ele>
        <time>2020-07-09T13:46:07Z</time>
      </trkpt>
      <trkpt lat="41.6420830" lon="2.1139400">
        <ele>425.7</ele>
        <time>2020-07-09T13:46:08Z</time>
      </trkpt>
      <trkpt lat="41.6420690" lon="2.1139510">
        <ele>425.5</ele>
        <time>2020-07-09T13:46:09Z</time>
      </trkpt>
      <trkpt lat="41.6420540" lon="2.1139620">
        <ele>425.3</ele>
        <time>2020-07-09T13:46:10Z</time>
      </trkpt>
      <trkpt lat="41.6420380" lon="2.1139720">
        <ele>425.1</ele>
        <time>2020-07-09T13:46:11Z</time>
      </trkpt>
      <trkpt lat="41.6420220" lon="2.1139810">
        <ele>424.9</ele>
        <time>2020-07-09T13:46:12Z</time>
      </trkpt>
      <trkpt lat="41.6420060" lon="2.1139890">
        <ele>424.7</ele>
        <time>2020-07-09T13:46:13Z</time>
      </trkpt>
      <trkpt lat="41.6419910" lon="2.1139960">
        <ele>424.5</ele>
        <time>2020-07-09T13:46:14Z</time>
      </trkpt>
      <trkpt lat="41.6419760" lon="2.1140020">
        <ele>424.3</ele>
        <time>2020-07-09T13:46:15Z</time>
      </trkpt>
      <trkpt lat="41.6419610" lon="2.1140080">
        <ele>424.1</ele>
        <time>2020-07-09T13:46:16Z</time>
      </trkpt>
      <trkpt lat="41.6419470" lon="2.1140140">
        <ele>423.9</ele>
        <time>2020-07-09T13:46:17Z</time>
      </trkpt>
      <trkpt lat="41.6419330" lon="2.1140200">
        <ele>423.7</ele>
        <time>2020-07-09T13:46:18Z</time>
      </trkpt>
      <trkpt lat="41.6419200" lon="2.1140260">
        <ele>423.6</ele>
        <time>2020-07-09T13:46:19Z</time>
      </trkpt>
      <trkpt lat="41.6419070" lon="2.1140320">
        <ele>423.4</ele>
        <time>2020-07-09T13:46:20Z</time>
      </trkpt>
      <trkpt lat="41.6418940" lon="2.1140400">
        <ele>423.2</ele>
        <time>2020-07-09T13:46:21Z</time>
      </trkpt>
      <trkpt lat="41.6418820" lon="2.1140480">
        <ele>423.0</ele>
        <time>2020-07-09T13:46:22Z</time>
      </trkpt>
      <trkpt lat="41.6418710" lon="2.1140570">
        <ele>422.9</ele>
        <time>2020-07-09T13:46:23Z</time>
      </trkpt>
      <trkpt lat="41.6418590" lon="2.1140660">
        <ele>422.7</ele>
        <time>2020-07-09T13:46:24Z</time>
      </trkpt>
      <trkpt lat="41.6418480" lon="2.1140760">
        <ele>422.5</ele>
        <time>2020-07-09T13:46:25Z</time>
      </trkpt>
      <trkpt lat="41.6418370" lon="2.1140860">
        <ele>422.4</ele>
        <time>2020-07-09T13:46:26Z</time>
      </trkpt>
      <trkpt lat="41.6418270" lon="2.1140970">
        <ele>422.2</ele>
        <time>2020-07-09T13:46:27Z</time>
      </trkpt>
      <trkpt lat="41.6418160" lon="2.1141070">
        <ele>422.1</ele>
        <time>2020-07-09T13:46:28Z</time>
      </trkpt>
      <trkpt lat="41.6418050" lon="2.1141180">
        <ele>421.9</ele>
        <time>2020-07-09T13:46:29Z</time>
      </trkpt>
      <trkpt lat="41.6417940" lon="2.1141280">
        <ele>421.7</ele>
        <time>2020-07-09T13:46:30Z</time>
      </trkpt>
      <trkpt lat="41.6417830" lon="2.1141380">
        <ele>421.6</ele>
        <time>2020-07-09T13:46:31Z</time>
      </trkpt>
      <trkpt lat="41.6417720" lon="2.1141480">
        <ele>421.4</ele>
        <time>2020-07-09T13:46:32Z</time>
      </trkpt>
      <trkpt lat="41.6417600" lon="2.1141570">
        <ele>421.2</ele>
        <time>2020-07-09T13:46:33Z</time>
      </trkpt>
      <trkpt lat="41.6417490" lon="2.1141660">
        <ele>421.1</ele>
        <time>2020-07-09T13:46:34Z</time>
      </trkpt>
      <trkpt lat="41.6417370" lon="2.1141740">
        <ele>420.9</ele>
        <time>2020-07-09T13:46:35Z</time>
      </trkpt>
      <trkpt lat="41.6417250" lon="2.1141830">
        <ele>420.8</ele>
        <time>2020-07-09T13:46:36Z</time>
      </trkpt>
      <trkpt lat="41.6417130" lon="2.1141910">
        <ele>420.6</ele>
        <time>2020-07-09T13:46:37Z</time>
      </trkpt>
      <trkpt lat="41.6417010" lon="2.1141980">
        <ele>420.4</ele>
        <time>2020-07-09T13:46:38Z</time>
      </trkpt>
      <trkpt lat="41.6416890" lon="2.1142060">
        <ele>420.3</ele>
        <time>2020-07-09T13:46:39Z</time>
      </trkpt>
      <trkpt lat="41.6416770" lon="2.1142140">
        <ele>420.1</ele>
        <time>2020-07-09T13:46:40Z</time>
      </trkpt>
      <trkpt lat="41.6416660" lon="2.1142210">
        <ele>420.0</ele>
        <time>2020-07-09T13:46:41Z</time>
      </trkpt>
      <trkpt lat="41.6416540" lon="2.1142290">
        <ele>419.8</ele>
        <time>2020-07-09T13:46:42Z</time>
      </trkpt>
      <trkpt lat="41.6416430" lon="2.1142370">
        <ele>419.7</ele>
        <time>2020-07-09T13:46:43Z</time>
      </trkpt>
      <trkpt lat="41.6416320" lon="2.1142440">
        <ele>419.5</ele>
        <time>2020-07-09T13:46:44Z</time>
      </trkpt>
      <trkpt lat="41.6416200" lon="2.1142520">
        <ele>419.4</ele>
        <time>2020-07-09T13:46:45Z</time>
      </trkpt>
      <trkpt lat="41.6416090" lon="2.1142600">
        <ele>419.2</ele>
        <time>2020-07-09T13:46:46Z</time>
      </trkpt>
      <trkpt lat="41.6415970" lon="2.1142680">
        <ele>419.0</ele>
        <time>2020-07-09T13:46:47Z</time>
      </trkpt>
      <trkpt lat="41.6415850" lon="2.1142760">
        <ele>418.9</ele>
        <time>2020-07-09T13:46:48Z</time>
      </trkpt>
      <trkpt lat="41.6415730" lon="2.1142840">
        <ele>418.8</ele>
        <time>2020-07-09T13:46:49Z</time>
      </trkpt>
      <trkpt lat="41.6415600" lon="2.1142920">
        <ele>418.6</ele>
        <time>2020-07-09T13:46:50Z</time>
      </trkpt>
      <trkpt lat="41.6415480" lon="2.1143000">
        <ele>418.5</ele>
        <time>2020-07-09T13:46:51Z</time>
      </trkpt>
      <trkpt lat="41.6415350" lon="2.1143080">
        <ele>418.3</ele>
        <time>2020-07-09T13:46:52Z</time>
      </trkpt>
      <trkpt lat="41.6415210" lon="2.1143160">
        <ele>418.2</ele>
        <time>2020-07-09T13:46:53Z</time>
      </trkpt>
      <trkpt lat="41.6415080" lon="2.1143230">
        <ele>418.1</ele>
        <time>2020-07-09T13:46:54Z</time>
      </trkpt>
      <trkpt lat="41.6414950" lon="2.1143290">
        <ele>417.9</ele>
        <time>2020-07-09T13:46:55Z</time>
      </trkpt>
      <trkpt lat="41.6414830" lon="2.1143350">
        <ele>417.8</ele>
        <time>2020-07-09T13:46:56Z</time>
      </trkpt>
      <trkpt lat="41.6414700" lon="2.1143390">
        <ele>417.7</ele>
        <time>2020-07-09T13:46:57Z</time>
      </trkpt>
      <trkpt lat="41.6414580" lon="2.1143420">
        <ele>417.6</ele>
        <time>2020-07-09T13:46:58Z</time>
      </trkpt>
      <trkpt lat="41.6414460" lon="2.1143440">
        <ele>417.5</ele>
        <time>2020-07-09T13:46:59Z</time>
      </trkpt>
      <trkpt lat="41.6414350" lon="2.1143450">
        <ele>417.4</ele>
        <time>2020-07-09T13:47:00Z</time>
      </trkpt>
      <trkpt lat="41.6414240" lon="2.1143440">
        <ele>417.4</ele>
        <time>2020-07-09T13:47:01Z</time>
      </trkpt>
      <trkpt lat="41.6414140" lon="2.1143410">
        <ele>417.3</ele>
        <time>2020-07-09T13:47:02Z</time>
      </trkpt>
      <trkpt lat="41.6414040" lon="2.1143360">
        <ele>417.2</ele>
        <time>2020-07-09T13:47:03Z</time>
      </trkpt>
      <trkpt lat="41.6413950" lon="2.1143300">
        <ele>417.1</ele>
        <time>2020-07-09T13:47:04Z</time>
      </trkpt>
      <trkpt lat="41.6413870" lon="2.1143230">
        <ele>417.1</ele>
        <time>2020-07-09T13:47:05Z</time>
      </trkpt>
      <trkpt lat="41.6413790" lon="2.1143150">
        <ele>417.0</ele>
        <time>2020-07-09T13:47:06Z</time>
      </trkpt>
      <trkpt lat="41.6413720" lon="2.1143070">
        <ele>416.9</ele>
        <time>2020-07-09T13:47:07Z</time>
      </trkpt>
      <trkpt lat="41.6413640" lon="2.1142990">
        <ele>416.9</ele>
        <time>2020-07-09T13:47:08Z</time>
      </trkpt>
      <trkpt lat="41.6413570" lon="2.1142920">
        <ele>416.8</ele>
        <time>2020-07-09T13:47:09Z</time>
      </trkpt>
      <trkpt lat="41.6413500" lon="2.1142850">
        <ele>416.7</ele>
        <time>2020-07-09T13:47:10Z</time>
      </trkpt>
      <trkpt lat="41.6413420" lon="2.1142780">
        <ele>416.7</ele>
        <time>2020-07-09T13:47:11Z</time>
      </trkpt>
      <trkpt lat="41.6413330" lon="2.1142710">
        <ele>416.6</ele>
        <time>2020-07-09T13:47:12Z</time>
      </trkpt>
      <trkpt lat="41.6413220" lon="2.1142630">
        <ele>416.5</ele>
        <time>2020-07-09T13:47:13Z</time>
      </trkpt>
      <trkpt lat="41.6413090" lon="2.1142540">
        <ele>416.5</ele>
        <time>2020-07-09T13:47:14Z</time>
      </trkpt>
      <trkpt lat="41.6412950" lon="2.1142440">
        <ele>416.4</ele>
        <time>2020-07-09T13:47:15Z</time>
      </trkpt>
      <trkpt lat="41.6412800" lon="2.1142340">
        <ele>416.3</ele>
        <time>2020-07-09T13:47:16Z</time>
      </trkpt>
      <trkpt lat="41.6412640" lon="2.1142240">
        <ele>416.2</ele>
        <time>2020-07-09T13:47:17Z</time>
      </trkpt>
      <trkpt lat="41.6412480" lon="2.1142150">
        <ele>416.2</ele>
        <time>2020-07-09T13:47:18Z</time>
      </trkpt>
      <trkpt lat="41.6412320" lon="2.1142060">
        <ele>416.1</ele>
        <time>2020-07-09T13:47:19Z</time>
      </trkpt>
      <trkpt lat="41.6412170" lon="2.1141990">
        <ele>416.0</ele>
        <time>2020-07-09T13:47:20Z</time>
      </trkpt>
      <trkpt lat="41.6412010" lon="2.1141920">
        <ele>415.9</ele>
        <time>2020-07-09T13:47:21Z</time>
      </trkpt>
      <trkpt lat="41.6411860" lon="2.1141860">
        <ele>415.8</ele>
        <time>2020-07-09T13:47:22Z</time>
      </trkpt>
      <trkpt lat="41.6411710" lon="2.1141810">
        <ele>415.7</ele>
        <time>2020-07-09T13:47:23Z</time>
      </trkpt>
      <trkpt lat="41.6411560" lon="2.1141760">
        <ele>415.6</ele>
        <time>2020-07-09T13:47:24Z</time>
      </trkpt>
      <trkpt lat="41.6411420" lon="2.1141720">
        <ele>415.6</ele>
        <time>2020-07-09T13:47:25Z</time>
      </trkpt>
      <trkpt lat="41.6411280" lon="2.1141680">
        <ele>415.5</ele>
        <time>2020-07-09T13:47:26Z</time>
      </trkpt>
      <trkpt lat="41.6411150" lon="2.1141650">
        <ele>415.4</ele>
        <time>2020-07-09T13:47:27Z</time>
      </trkpt>
      <trkpt lat="41.6411020" lon="2.1141620">
        <ele>415.4</ele>
        <time>2020-07-09T13:47:28Z</time>
      </trkpt>
      <trkpt lat="41.6410890" lon="2.1141600">
        <ele>415.3</ele>
        <time>2020-07-09T13:47:29Z</time>
      </trkpt>
      <trkpt lat="41.6410760" lon="2.1141570">
        <ele>415.3</ele>
        <time>2020-07-09T13:47:30Z</time>
      </trkpt>
      <trkpt lat="41.6410640" lon="2.1141550">
        <ele>415.2</ele>
        <time>2020-07-09T13:47:31Z</time>
      </trkpt>
      <trkpt lat="41.6410520" lon="2.1141540">
        <ele>415.1</ele>
        <time>2020-07-09T13:47:32Z</time>
      </trkpt>
      <trkpt lat="41.6410400" lon="2.1141520">
        <ele>415.0</ele>
        <time>2020-07-09T13:47:33Z</time>
      </trkpt>
      <trkpt lat="41.6410280" lon="2.1141500">
        <ele>414.9</ele>
        <time>2020-07-09T13:47:34Z</time>
      </trkpt>
      <trkpt lat="41.6410160" lon="2.1141480">
        <ele>414.9</ele>
        <time>2020-07-09T13:47:35Z</time>
      </trkpt>
      <trkpt lat="41.6410040" lon="2.1141460">
        <ele>414.9</ele>
        <time>2020-07-09T13:47:36Z</time>
      </trkpt>
      <trkpt lat="41.6409910" lon="2.1141440">
        <ele>414.8</ele>
        <time>2020-07-09T13:47:37Z</time>
      </trkpt>
      <trkpt lat="41.6409790" lon="2.1141420">
        <ele>414.8</ele>
        <time>2020-07-09T13:47:38Z</time>
      </trkpt>
      <trkpt lat="41.6409670" lon="2.1141400">
        <ele>414.7</ele>
        <time>2020-07-09T13:47:39Z</time>
      </trkpt>
      <trkpt lat="41.6409550" lon="2.1141370">
        <ele>414.7</ele>
        <time>2020-07-09T13:47:40Z</time>
      </trkpt>
      <trkpt lat="41.6409420" lon="2.1141340">
        <ele>414.6</ele>
        <time>2020-07-09T13:47:41Z</time>
      </trkpt>
      <trkpt lat="41.6409300" lon="2.1141310">
        <ele>414.6</ele>
        <time>2020-07-09T13:47:42Z</time>
      </trkpt>
      <trkpt lat="41.6409180" lon="2.1141280">
        <ele>414.5</ele>
        <time>2020-07-09T13:47:43Z</time>
      </trkpt>
      <trkpt lat="41.6409050" lon="2.1141240">
        <ele>414.5</ele>
        <time>2020-07-09T13:47:44Z</time>
      </trkpt>
      <trkpt lat="41.6408930" lon="2.1141200">
        <ele>414.5</ele>
        <time>2020-07-09T13:47:45Z</time>
      </trkpt>
      <trkpt lat="41.6408810" lon="2.1141160">
        <ele>414.4</ele>
        <time>2020-07-09T13:47:46Z</time>
      </trkpt>
      <trkpt lat="41.6408680" lon="2.1141110">
        <ele>414.4</ele>
        <time>2020-07-09T13:47:47Z</time>
      </trkpt>
      <trkpt lat="41.6408560" lon="2.1141060">
        <ele>414.3</ele>
        <time>2020-07-09T13:47:48Z</time>
      </trkpt>
      <trkpt lat="41.6408430" lon="2.1141010">
        <ele>414.2</ele>
        <time>2020-07-09T13:47:49Z</time>
      </trkpt>
      <trkpt lat="41.6408310" lon="2.1140950">
        <ele>414.2</ele>
        <time>2020-07-09T13:47:50Z</time>
      </trkpt>
      <trkpt lat="41.6408190" lon="2.1140890">
        <ele>414.1</ele>
        <time>2020-07-09T13:47:51Z</time>
      </trkpt>
      <trkpt lat="41.6408060" lon="2.1140820">
        <ele>414.1</ele>
        <time>2020-07-09T13:47:52Z</time>
      </trkpt>
      <trkpt lat="41.6407940" lon="2.1140750">
        <ele>414.0</ele>
        <time>2020-07-09T13:47:53Z</time>
      </trkpt>
      <trkpt lat="41.6407820" lon="2.1140680">
        <ele>414.0</ele>
        <time>2020-07-09T13:47:54Z</time>
      </trkpt>
      <trkpt lat="41.6407700" lon="2.1140600">
        <ele>413.9</ele>
        <time>2020-07-09T13:47:55Z</time>
      </trkpt>
      <trkpt lat="41.6407580" lon="2.1140510">
        <ele>413.9</ele>
        <time>2020-07-09T13:47:56Z</time>
      </trkpt>
      <trkpt lat="41.6407460" lon="2.1140430">
        <ele>413.8</ele>
        <time>2020-07-09T13:47:57Z</time>
      </trkpt>
      <trkpt lat="41.6407350" lon="2.1140340">
        <ele>413.8</ele>
        <time>2020-07-09T13:47:58Z</time>
      </trkpt>
      <trkpt lat="41.6407250" lon="2.1140260">
        <ele>413.7</ele>
        <time>2020-07-09T13:47:59Z</time>
      </trkpt>
      <trkpt lat="41.6407150" lon="2.1140180">
        <ele>413.7</ele>
        <time>2020-07-09T13:48:00Z</time>
      </trkpt>
      <trkpt lat="41.6407070" lon="2.1140100">
        <ele>413.6</ele>
        <time>2020-07-09T13:48:01Z</time>
      </trkpt>
      <trkpt lat="41.6407000" lon="2.1140040">
        <ele>413.6</ele>
        <time>2020-07-09T13:48:02Z</time>
      </trkpt>
      <trkpt lat="41.6406940" lon="2.1139980">
        <ele>413.5</ele>
        <time>2020-07-09T13:48:03Z</time>
      </trkpt>
      <trkpt lat="41.6406890" lon="2.1139940">
        <ele>413.5</ele>
        <time>2020-07-09T13:48:04Z</time>
      </trkpt>
      <trkpt lat="41.6406860" lon="2.1139900">
        <ele>413.5</ele>
        <time>2020-07-09T13:48:05Z</time>
      </trkpt>
      <trkpt lat="41.6406840" lon="2.1139870">
        <ele>413.5</ele>
        <time>2020-07-09T13:48:06Z</time>
      </trkpt>
      <trkpt lat="41.6406830" lon="2.1139850">
        <ele>413.5</ele>
        <time>2020-07-09T13:48:07Z</time>
      </trkpt>
      <trkpt lat="41.6406820" lon="2.1139840">
        <ele>413.5</ele>
        <time>2020-07-09T13:48:08Z</time>
      </trkpt>
      <trkpt lat="41.6406820" lon="2.1139830">
        <ele>413.5</ele>
        <time>2020-07-09T13:48:09Z</time>
      </trkpt>
      <trkpt lat="41.6406830" lon="2.1139820">
        <ele>413.5</ele>
        <time>2020-07-09T13:48:10Z</time>
      </trkpt>
      <trkpt lat="41.6406840" lon="2.1139820">
        <ele>413.5</ele>
        <time>2020-07-09T13:48:11Z</time>
      </trkpt>
      <trkpt lat="41.6406840" lon="2.1139820">
        <ele>413.5</ele>
        <time>2020-07-09T13:48:12Z</time>
      </trkpt>
      <trkpt lat="41.6406850" lon="2.1139810">
        <ele>413.5</ele>
        <time>2020-07-09T13:48:13Z</time>
      </trkpt>
      <trkpt lat="41.6406850" lon="2.1139810">
        <ele>413.5</ele>
        <time>2020-07-09T13:48:14Z</time>
      </trkpt>
      <trkpt lat="41.6406860" lon="2.1139810">
        <ele>413.4</ele>
        <time>2020-07-09T13:48:15Z</time>
      </trkpt>
      <trkpt lat="41.6406860" lon="2.1139810">
        <ele>413.4</ele>
        <time>2020-07-09T13:48:16Z</time>
      </trkpt>
      <trkpt lat="41.6406860" lon="2.1139810">
        <ele>413.4</ele>
        <time>2020-07-09T13:48:17Z</time>
      </trkpt>
      <trkpt lat="41.6406860" lon="2.1139810">
        <ele>413.4</ele>
        <time>2020-07-09T13:48:18Z</time>
      </trkpt>
      <trkpt lat="41.6406860" lon="2.1139810">
        <ele>413.4</ele>
        <time>2020-07-09T13:48:19Z</time>
      </trkpt>
      <trkpt lat="41.6406860" lon="2.1139810">
        <ele>413.4</ele>
        <time>2020-07-09T13:48:20Z</time>
      </trkpt>
      <trkpt lat="41.6406860" lon="2.1139810">
        <ele>413.4</ele>
        <time>2020-07-09T13:48:21Z</time>
      </trkpt>
      <trkpt lat="41.6406850" lon="2.1139810">
        <ele>413.4</ele>
        <time>2020-07-09T13:48:22Z</time>
      </trkpt>
      <trkpt lat="41.6406850" lon="2.1139810">
        <ele>413.4</ele>
        <time>2020-07-09T13:48:23Z</time>
      </trkpt>
      <trkpt lat="41.6406850" lon="2.1139810">
        <ele>413.4</ele>
        <time>2020-07-09T13:48:24Z</time>
      </trkpt>
      <trkpt lat="41.6406850" lon="2.1139810">
        <ele>413.4</ele>
        <time>2020-07-09T13:48:25Z</time>
      </trkpt>
      <trkpt lat="41.6406850" lon="2.1139810">
        <ele>413.4</ele>
        <time>2020-07-09T13:48:26Z</time>
      </trkpt>
      <trkpt lat="41.6406850" lon="2.1139810">
        <ele>413.4</ele>
        <time>2020-07-09T13:48:27Z</time>
      </trkpt>
      <trkpt lat="41.6406850" lon="2.1139810">
        <ele>413.4</ele>
        <time>2020-07-09T13:48:28Z</time>
      </trkpt>
      <trkpt lat="41.6406860" lon="2.1139810">
        <ele>413.4</ele>
        <time>2020-07-09T13:48:29Z</time>
      </trkpt>
      <trkpt lat="41.6406860" lon="2.1139810">
        <ele>413.4</ele>
        <time>2020-07-09T13:48:30Z</time>
      </trkpt>
      <trkpt lat="41.6406860" lon="2.1139810">
        <ele>413.4</ele>
        <time>2020-07-09T13:48:31Z</time>
      </trkpt>
      <trkpt lat="41.6406860" lon="2.1139810">
        <ele>413.4</ele>
        <time>2020-07-09T13:48:32Z</time>
      </trkpt>
      <trkpt lat="41.6406850" lon="2.1139820">
        <ele>413.4</ele>
        <time>2020-07-09T13:48:33Z</time>
      </trkpt>
      <trkpt lat="41.6406830" lon="2.1139820">
        <ele>413.4</ele>
        <time>2020-07-09T13:48:34Z</time>
      </trkpt>
      <trkpt lat="41.6406800" lon="2.1139830">
        <ele>413.4</ele>
        <time>2020-07-09T13:48:35Z</time>
      </trkpt>
      <trkpt lat="41.6406740" lon="2.1139830">
        <ele>413.4</ele>
        <time>2020-07-09T13:48:36Z</time>
      </trkpt>
      <trkpt lat="41.6406650" lon="2.1139840">
        <ele>413.3</ele>
        <time>2020-07-09T13:48:37Z</time>
      </trkpt>
      <trkpt lat="41.6406550" lon="2.1139850">
        <ele>413.3</ele>
        <time>2020-07-09T13:48:38Z</time>
      </trkpt>
      <trkpt lat="41.6406440" lon="2.1139860">
        <ele>413.3</ele>
        <time>2020-07-09T13:48:39Z</time>
      </trkpt>
      <trkpt lat="41.6406360" lon="2.1139860">
        <ele>413.2</ele>
        <time>2020-07-09T13:48:40Z</time>
      </trkpt>
      <trkpt lat="41.6406310" lon="2.1139850">
        <ele>413.2</ele>
        <time>2020-07-09T13:48:41Z</time>
      </trkpt>
      <trkpt lat="41.6406280" lon="2.1139840">
        <ele>413.2</ele>
        <time>2020-07-09T13:48:42Z</time>
      </trkpt>
      <trkpt lat="41.6406250" lon="2.1139820">
        <ele>413.2</ele>
        <time>2020-07-09T13:48:43Z</time>
      </trkpt>
      <trkpt lat="41.6406230" lon="2.1139790">
        <ele>413.2</ele>
        <time>2020-07-09T13:48:44Z</time>
      </trkpt>
      <trkpt lat="41.6406180" lon="2.1139770">
        <ele>413.1</ele>
        <time>2020-07-09T13:48:45Z</time>
      </trkpt>
      <trkpt lat="41.6406110" lon="2.1139740">
        <ele>413.1</ele>
        <time>2020-07-09T13:48:46Z</time>
      </trkpt>
      <trkpt lat="41.6406020" lon="2.1139710">
        <ele>413.1</ele>
        <time>2020-07-09T13:48:47Z</time>
      </trkpt>
      <trkpt lat="41.6405910" lon="2.1139660">
        <ele>413.0</ele>
        <time>2020-07-09T13:48:48Z</time>
      </trkpt>
      <trkpt lat="41.6405800" lon="2.1139600">
        <ele>413.0</ele>
        <time>2020-07-09T13:48:49Z</time>
      </trkpt>
      <trkpt lat="41.6405700" lon="2.1139520">
        <ele>412.9</ele>
        <time>2020-07-09T13:48:50Z</time>
      </trkpt>
      <trkpt lat="41.6405600" lon="2.1139420">
        <ele>412.9</ele>
        <time>2020-07-09T13:48:51Z</time>
      </trkpt>
      <trkpt lat="41.6405500" lon="2.1139310">
        <ele>412.8</ele>
        <time>2020-07-09T13:48:52Z</time>
      </trkpt>
      <trkpt lat="41.6405400" lon="2.1139180">
        <ele>412.7</ele>
        <time>2020-07-09T13:48:53Z</time>
      </trkpt>
      <trkpt lat="41.6405310" lon="2.1139050">
        <ele>412.7</ele>
        <time>2020-07-09T13:48:54Z</time>
      </trkpt>
      <trkpt lat="41.6405210" lon="2.1138900">
        <ele>412.6</ele>
        <time>2020-07-09T13:48:55Z</time>
      </trkpt>
      <trkpt lat="41.6405120" lon="2.1138760">
        <ele>412.6</ele>
        <time>2020-07-09T13:48:56Z</time>
      </trkpt>
      <trkpt lat="41.6405020" lon="2.1138610">
        <ele>412.5</ele>
        <time>2020-07-09T13:48:57Z</time>
      </trkpt>
      <trkpt lat="41.6404920" lon="2.1138460">
        <ele>412.4</ele>
        <time>2020-07-09T13:48:58Z</time>
      </trkpt>
      <trkpt lat="41.6404820" lon="2.1138320">
        <ele>412.3</ele>
        <time>2020-07-09T13:48:59Z</time>
      </trkpt>
      <trkpt lat="41.6404720" lon="2.1138190">
        <ele>412.3</ele>
        <time>2020-07-09T13:49:00Z</time>
      </trkpt>
      <trkpt lat="41.6404610" lon="2.1138060">
        <ele>412.2</ele>
        <time>2020-07-09T13:49:01Z</time>
      </trkpt>
      <trkpt lat="41.6404500" lon="2.1137930">
        <ele>412.1</ele>
        <time>2020-07-09T13:49:02Z</time>
      </trkpt>
      <trkpt lat="41.6404390" lon="2.1137810">
        <ele>412.1</ele>
        <time>2020-07-09T13:49:03Z</time>
      </trkpt>
      <trkpt lat="41.6404290" lon="2.1137690">
        <ele>412.0</ele>
        <time>2020-07-09T13:49:04Z</time>
      </trkpt>
      <trkpt lat="41.6404190" lon="2.1137560">
        <ele>412.0</ele>
        <time>2020-07-09T13:49:05Z</time>
      </trkpt>
      <trkpt lat="41.6404090" lon="2.1137420">
        <ele>411.9</ele>
        <time>2020-07-09T13:49:06Z</time>
      </trkpt>
      <trkpt lat="41.6404010" lon="2.1137280">
        <ele>411.8</ele>
        <time>2020-07-09T13:49:07Z</time>
      </trkpt>
      <trkpt lat="41.6403930" lon="2.1137130">
        <ele>411.8</ele>
        <time>2020-07-09T13:49:08Z</time>
      </trkpt>
      <trkpt lat="41.6403870" lon="2.1136970">
        <ele>411.7</ele>
        <time>2020-07-09T13:49:09Z</time>
      </trkpt>
      <trkpt lat="41.6403810" lon="2.1136800">
        <ele>411.6</ele>
        <time>2020-07-09T13:49:10Z</time>
      </trkpt>
      <trkpt lat="41.6403770" lon="2.1136620">
        <ele>411.6</ele>
        <time>2020-07-09T13:49:11Z</time>
      </trkpt>
      <trkpt lat="41.6403730" lon="2.1136430">
        <ele>411.5</ele>
        <time>2020-07-09T13:49:12Z</time>
      </trkpt>
      <trkpt lat="41.6403710" lon="2.1136230">
        <ele>411.4</ele>
        <time>2020-07-09T13:49:13Z</time>
      </trkpt>
      <trkpt lat="41.6403690" lon="2.1136030">
        <ele>411.4</ele>
        <time>2020-07-09T13:49:14Z</time>
      </trkpt>
      <trkpt lat="41.6403680" lon="2.1135820">
        <ele>411.3</ele>
        <time>2020-07-09T13:49:15Z</time>
      </trkpt>
      <trkpt lat="41.6403670" lon="2.1135610">
        <ele>411.3</ele>
        <time>2020-07-09T13:49:16Z</time>
      </trkpt>
      <trkpt lat="41.6403680" lon="2.1135390">
        <ele>411.2</ele>
        <time>2020-07-09T13:49:17Z</time>
      </trkpt>
      <trkpt lat="41.6403680" lon="2.1135170">
        <ele>411.1</ele>
        <time>2020-07-09T13:49:18Z</time>
      </trkpt>
      <trkpt lat="41.6403690" lon="2.1134960">
        <ele>411.0</ele>
        <time>2020-07-09T13:49:19Z</time>
      </trkpt>
      <trkpt lat="41.6403710" lon="2.1134740">
        <ele>410.9</ele>
        <time>2020-07-09T13:49:20Z</time>
      </trkpt>
      <trkpt lat="41.6403730" lon="2.1134530">
        <ele>410.9</ele>
        <time>2020-07-09T13:49:21Z</time>
      </trkpt>
      <trkpt lat="41.6403750" lon="2.1134320">
        <ele>410.8</ele>
        <time>2020-07-09T13:49:22Z</time>
      </trkpt>
      <trkpt lat="41.6403770" lon="2.1134120">
        <ele>410.7</ele>
        <time>2020-07-09T13:49:23Z</time>
      </trkpt>
      <trkpt lat="41.6403790" lon="2.1133920">
        <ele>410.6</ele>
        <time>2020-07-09T13:49:24Z</time>
      </trkpt>
      <trkpt lat="41.6403820" lon="2.1133720">
        <ele>410.5</ele>
        <time>2020-07-09T13:49:25Z</time>
      </trkpt>
      <trkpt lat="41.6403840" lon="2.1133540">
        <ele>410.4</ele>
        <time>2020-07-09T13:49:26Z</time>
      </trkpt>
      <trkpt lat="41.6403860" lon="2.1133360">
        <ele>410.3</ele>
        <time>2020-07-09T13:49:27Z</time>
      </trkpt>
      <trkpt lat="41.6403880" lon="2.1133190">
        <ele>410.2</ele>
        <time>2020-07-09T13:49:28Z</time>
      </trkpt>
      <trkpt lat="41.6403900" lon="2.1133010">
        <ele>410.2</ele>
        <time>2020-07-09T13:49:29Z</time>
      </trkpt>
      <trkpt lat="41.6403920" lon="2.1132830">
        <ele>410.1</ele>
        <time>2020-07-09T13:49:30Z</time>
      </trkpt>
      <trkpt lat="41.6403940" lon="2.1132640">
        <ele>410.0</ele>
        <time>2020-07-09T13:49:31Z</time>
      </trkpt>
      <trkpt lat="41.6403960" lon="2.1132420">
        <ele>409.9</ele>
        <time>2020-07-09T13:49:32Z</time>
      </trkpt>
      <trkpt lat="41.6403980" lon="2.1132200">
        <ele>409.8</ele>
        <time>2020-07-09T13:49:33Z</time>
      </trkpt>
      <trkpt lat="41.6404010" lon="2.1131980">
        <ele>409.7</ele>
        <time>2020-07-09T13:49:34Z</time>
      </trkpt>
      <trkpt lat="41.6404040" lon="2.1131770">
        <ele>409.6</ele>
        <time>2020-07-09T13:49:35Z</time>
      </trkpt>
      <trkpt lat="41.6404070" lon="2.1131570">
        <ele>409.5</ele>
        <time>2020-07-09T13:49:36Z</time>
      </trkpt>
      <trkpt lat="41.6404120" lon="2.1131400">
        <ele>409.5</ele>
        <time>2020-07-09T13:49:37Z</time>
      </trkpt>
      <trkpt lat="41.6404170" lon="2.1131240">
        <ele>409.4</ele>
        <time>2020-07-09T13:49:38Z</time>
      </trkpt>
      <trkpt lat="41.6404220" lon="2.1131100">
        <ele>409.3</ele>
        <time>2020-07-09T13:49:39Z</time>
      </trkpt>
      <trkpt lat="41.6404280" lon="2.1130970">
        <ele>409.3</ele>
        <time>2020-07-09T13:49:40Z</time>
      </trkpt>
      <trkpt lat="41.6404330" lon="2.1130850">
        <ele>409.2</ele>
        <time>2020-07-09T13:49:41Z</time>
      </trkpt>
      <trkpt lat="41.6404370" lon="2.1130720">
        <ele>409.2</ele>
        <time>2020-07-09T13:49:42Z</time>
      </trkpt>
      <trkpt lat="41.6404400" lon="2.1130590">
        <ele>409.1</ele>
        <time>2020-07-09T13:49:43Z</time>
      </trkpt>
      <trkpt lat="41.6404420" lon="2.1130450">
        <ele>409.1</ele>
        <time>2020-07-09T13:49:44Z</time>
      </trkpt>
      <trkpt lat="41.6404430" lon="2.1130300">
        <ele>409.0</ele>
        <time>2020-07-09T13:49:45Z</time>
      </trkpt>
      <trkpt lat="41.6404420" lon="2.1130130">
        <ele>409.0</ele>
        <time>2020-07-09T13:49:46Z</time>
      </trkpt>
      <trkpt lat="41.6404390" lon="2.1129940">
        <ele>408.9</ele>
        <time>2020-07-09T13:49:47Z</time>
      </trkpt>
      <trkpt lat="41.6404350" lon="2.1129740">
        <ele>408.9</ele>
        <time>2020-07-09T13:49:48Z</time>
      </trkpt>
      <trkpt lat="41.6404290" lon="2.1129540">
        <ele>408.8</ele>
        <time>2020-07-09T13:49:49Z</time>
      </trkpt>
      <trkpt lat="41.6404220" lon="2.1129340">
        <ele>408.8</ele>
        <time>2020-07-09T13:49:50Z</time>
      </trkpt>
      <trkpt lat="41.6404130" lon="2.1129140">
        <ele>408.7</ele>
        <time>2020-07-09T13:49:51Z</time>
      </trkpt>
      <trkpt lat="41.6404040" lon="2.1128960">
        <ele>408.7</ele>
        <time>2020-07-09T13:49:52Z</time>
      </trkpt>
      <trkpt lat="41.6403930" lon="2.1128780">
        <ele>408.6</ele>
        <time>2020-07-09T13:49:53Z</time>
      </trkpt>
      <trkpt lat="41.6403820" lon="2.1128630">
        <ele>408.6</ele>
        <time>2020-07-09T13:49:54Z</time>
      </trkpt>
      <trkpt lat="41.6403700" lon="2.1128500">
        <ele>408.6</ele>
        <time>2020-07-09T13:49:55Z</time>
      </trkpt>
      <trkpt lat="41.6403580" lon="2.1128390">
        <ele>408.6</ele>
        <time>2020-07-09T13:49:56Z</time>
      </trkpt>
      <trkpt lat="41.6403450" lon="2.1128300">
        <ele>408.5</ele>
        <time>2020-07-09T13:49:57Z</time>
      </trkpt>
      <trkpt lat="41.6403310" lon="2.1128230">
        <ele>408.5</ele>
        <time>2020-07-09T13:49:58Z</time>
      </trkpt>
      <trkpt lat="41.6403170" lon="2.1128170">
        <ele>408.5</ele>
        <time>2020-07-09T13:49:59Z</time>
      </trkpt>
      <trkpt lat="41.6403030" lon="2.1128120">
        <ele>408.5</ele>
        <time>2020-07-09T13:50:00Z</time>
      </trkpt>
      <trkpt lat="41.6402890" lon="2.1128090">
        <ele>408.5</ele>
        <time>2020-07-09T13:50:01Z</time>
      </trkpt>
      <trkpt lat="41.6402750" lon="2.1128060">
        <ele>408.5</ele>
        <time>2020-07-09T13:50:02Z</time>
      </trkpt>
      <trkpt lat="41.6402610" lon="2.1128040">
        <ele>408.5</ele>
        <time>2020-07-09T13:50:03Z</time>
      </trkpt>
      <trkpt lat="41.6402470" lon="2.1128020">
        <ele>408.5</ele>
        <time>2020-07-09T13:50:04Z</time>
      </trkpt>
      <trkpt lat="41.6402330" lon="2.1128010">
        <ele>408.5</ele>
        <time>2020-07-09T13:50:05Z</time>
      </trkpt>
      <trkpt lat="41.6402190" lon="2.1128000">
        <ele>408.5</ele>
        <time>2020-07-09T13:50:06Z</time>
      </trkpt>
      <trkpt lat="41.6402050" lon="2.1127990">
        <ele>408.5</ele>
        <time>2020-07-09T13:50:07Z</time>
      </trkpt>
      <trkpt lat="41.6401900" lon="2.1127990">
        <ele>408.5</ele>
        <time>2020-07-09T13:50:08Z</time>
      </trkpt>
      <trkpt lat="41.6401750" lon="2.1127990">
        <ele>408.5</ele>
        <time>2020-07-09T13:50:09Z</time>
      </trkpt>
      <trkpt lat="41.6401600" lon="2.1127990">
        <ele>408.5</ele>
        <time>2020-07-09T13:50:10Z</time>
      </trkpt>
      <trkpt lat="41.6401440" lon="2.1128000">
        <ele>408.5</ele>
        <time>2020-07-09T13:50:11Z</time>
      </trkpt>
      <trkpt lat="41.6401280" lon="2.1128010">
        <ele>408.5</ele>
        <time>2020-07-09T13:50:12Z</time>
      </trkpt>
      <trkpt lat="41.6401130" lon="2.1128030">
        <ele>408.5</ele>
        <time>2020-07-09T13:50:13Z</time>
      </trkpt>
      <trkpt lat="41.6400980" lon="2.1128060">
        <ele>408.5</ele>
        <time>2020-07-09T13:50:14Z</time>
      </trkpt>
      <trkpt lat="41.6400830" lon="2.1128090">
        <ele>408.5</ele>
        <time>2020-07-09T13:50:15Z</time>
      </trkpt>
      <trkpt lat="41.6400690" lon="2.1128130">
        <ele>408.5</ele>
        <time>2020-07-09T13:50:16Z</time>
      </trkpt>
      <trkpt lat="41.6400550" lon="2.1128180">
        <ele>408.5</ele>
        <time>2020-07-09T13:50:17Z</time>
      </trkpt>
      <trkpt lat="41.6400420" lon="2.1128230">
        <ele>408.5</ele>
        <time>2020-07-09T13:50:18Z</time>
      </trkpt>
      <trkpt lat="41.6400290" lon="2.1128280">
        <ele>408.5</ele>
        <time>2020-07-09T13:50:19Z</time>
      </trkpt>
      <trkpt lat="41.6400160" lon="2.1128340">
        <ele>408.6</ele>
        <time>2020-07-09T13:50:20Z</time>
      </trkpt>
      <trkpt lat="41.6400030" lon="2.1128400">
        <ele>408.6</ele>
        <time>2020-07-09T13:50:21Z</time>
      </trkpt>
      <trkpt lat="41.6399900" lon="2.1128450">
        <ele>408.6</ele>
        <time>2020-07-09T13:50:22Z</time>
      </trkpt>
      <trkpt lat="41.6399770" lon="2.1128510">
        <ele>408.6</ele>
        <time>2020-07-09T13:50:23Z</time>
      </trkpt>
      <trkpt lat="41.6399640" lon="2.1128570">
        <ele>408.6</ele>
        <time>2020-07-09T13:50:24Z</time>
      </trkpt>
      <trkpt lat="41.6399510" lon="2.1128630">
        <ele>408.6</ele>
        <time>2020-07-09T13:50:25Z</time>
      </trkpt>
      <trkpt lat="41.6399380" lon="2.1128680">
        <ele>408.6</ele>
        <time>2020-07-09T13:50:26Z</time>
      </trkpt>
      <trkpt lat="41.6399250" lon="2.1128740">
        <ele>408.6</ele>
        <time>2020-07-09T13:50:27Z</time>
      </trkpt>
      <trkpt lat="41.6399110" lon="2.1128790">
        <ele>408.6</ele>
        <time>2020-07-09T13:50:28Z</time>
      </trkpt>
      <trkpt lat="41.6398970" lon="2.1128850">
        <ele>408.6</ele>
        <time>2020-07-09T13:50:29Z</time>
      </trkpt>
      <trkpt lat="41.6398840" lon="2.1128900">
        <ele>408.6</ele>
        <time>2020-07-09T13:50:30Z</time>
      </trkpt>
      <trkpt lat="41.6398690" lon="2.1128950">
        <ele>408.7</ele>
        <time>2020-07-09T13:50:31Z</time>
      </trkpt>
      <trkpt lat="41.6398550" lon="2.1129010">
        <ele>408.7</ele>
        <time>2020-07-09T13:50:32Z</time>
      </trkpt>
      <trkpt lat="41.6398400" lon="2.1129060">
        <ele>408.7</ele>
        <time>2020-07-09T13:50:33Z</time>
      </trkpt>
      <trkpt lat="41.6398250" lon="2.1129110">
        <ele>408.7</ele>
        <time>2020-07-09T13:50:34Z</time>
      </trkpt>
      <trkpt lat="41.6398100" lon="2.1129150">
        <ele>408.7</ele>
        <time>2020-07-09T13:50:35Z</time>
      </trkpt>
      <trkpt lat="41.6397950" lon="2.1129200">
        <ele>408.7</ele>
        <time>2020-07-09T13:50:36Z</time>
      </trkpt>
      <trkpt lat="41.6397800" lon="2.1129250">
        <ele>408.8</ele>
        <time>2020-07-09T13:50:37Z</time>
      </trkpt>
      <trkpt lat="41.6397650" lon="2.1129290">
        <ele>408.8</ele>
        <time>2020-07-09T13:50:38Z</time>
      </trkpt>
      <trkpt lat="41.6397500" lon="2.1129340">
        <ele>408.8</ele>
        <time>2020-07-09T13:50:39Z</time>
      </trkpt>
      <trkpt lat="41.6397350" lon="2.1129380">
        <ele>408.8</ele>
        <time>2020-07-09T13:50:40Z</time>
      </trkpt>
      <trkpt lat="41.6397210" lon="2.1129420">
        <ele>408.8</ele>
        <time>2020-07-09T13:50:41Z</time>
      </trkpt>
      <trkpt lat="41.6397070" lon="2.1129460">
        <ele>408.8</ele>
        <time>2020-07-09T13:50:42Z</time>
      </trkpt>
      <trkpt lat="41.6396930" lon="2.1129490">
        <ele>408.9</ele>
        <time>2020-07-09T13:50:43Z</time>
      </trkpt>
      <trkpt lat="41.6396800" lon="2.1129520">
        <ele>408.9</ele>
        <time>2020-07-09T13:50:44Z</time>
      </trkpt>
      <trkpt lat="41.6396660" lon="2.1129550">
        <ele>408.9</ele>
        <time>2020-07-09T13:50:45Z</time>
      </trkpt>
      <trkpt lat="41.6396530" lon="2.1129580">
        <ele>408.9</ele>
        <time>2020-07-09T13:50:46Z</time>
      </trkpt>
      <trkpt lat="41.6396400" lon="2.1129600">
        <ele>408.9</ele>
        <time>2020-07-09T13:50:47Z</time>
      </trkpt>
      <trkpt lat="41.6396260" lon="2.1129610">
        <ele>408.9</ele>
        <time>2020-07-09T13:50:48Z</time>
      </trkpt>
      <trkpt lat="41.6396130" lon="2.1129620">
        <ele>408.9</ele>
        <time>2020-07-09T13:50:49Z</time>
      </trkpt>
      <trkpt lat="41.6395990" lon="2.1129620">
        <ele>408.9</ele>
        <time>2020-07-09T13:50:50Z</time>
      </trkpt>
      <trkpt lat="41.6395850" lon="2.1129620">
        <ele>408.9</ele>
        <time>2020-07-09T13:50:51Z</time>
      </trkpt>
      <trkpt lat="41.6395710" lon="2.1129620">
        <ele>409.0</ele>
        <time>2020-07-09T13:50:52Z</time>
      </trkpt>
      <trkpt lat="41.6395570" lon="2.1129600">
        <ele>409.0</ele>
        <time>2020-07-09T13:50:53Z</time>
      </trkpt>
      <trkpt lat="41.6395420" lon="2.1129590">
        <ele>409.0</ele>
        <time>2020-07-09T13:50:54Z</time>
      </trkpt>
      <trkpt lat="41.6395280" lon="2.1129580">
        <ele>409.0</ele>
        <time>2020-07-09T13:50:55Z</time>
      </trkpt>
      <trkpt lat="41.6395140" lon="2.1129570">
        <ele>409.0</ele>
        <time>2020-07-09T13:50:56Z</time>
      </trkpt>
      <trkpt lat="41.6394990" lon="2.1129560">
        <ele>409.0</ele>
        <time>2020-07-09T13:50:57Z</time>
      </trkpt>
      <trkpt lat="41.6394850" lon="2.1129560">
        <ele>409.0</ele>
        <time>2020-07-09T13:50:58Z</time>
      </trkpt>
      <trkpt lat="41.6394710" lon="2.1129560">
        <ele>409.0</ele>
        <time>2020-07-09T13:50:59Z</time>
      </trkpt>
      <trkpt lat="41.6394580" lon="2.1129570">
        <ele>408.9</ele>
        <time>2020-07-09T13:51:00Z</time>
      </trkpt>
      <trkpt lat="41.6394440" lon="2.1129580">
        <ele>408.9</ele>
        <time>2020-07-09T13:51:01Z</time>
      </trkpt>
      <trkpt lat="41.6394310" lon="2.1129600">
        <ele>408.9</ele>
        <time>2020-07-09T13:51:02Z</time>
      </trkpt>
      <trkpt lat="41.6394180" lon="2.1129630">
        <ele>408.9</ele>
        <time>2020-07-09T13:51:03Z</time>
      </trkpt>
      <trkpt lat="41.6394050" lon="2.1129660">
        <ele>408.9</ele>
        <time>2020-07-09T13:51:04Z</time>
      </trkpt>
      <trkpt lat="41.6393920" lon="2.1129690">
        <ele>408.9</ele>
        <time>2020-07-09T13:51:05Z</time>
      </trkpt>
      <trkpt lat="41.6393780" lon="2.1129730">
        <ele>408.9</ele>
        <time>2020-07-09T13:51:06Z</time>
      </trkpt>
      <trkpt lat="41.6393650" lon="2.1129770">
        <ele>408.9</ele>
        <time>2020-07-09T13:51:07Z</time>
      </trkpt>
      <trkpt lat="41.6393520" lon="2.1129810">
        <ele>408.9</ele>
        <time>2020-07-09T13:51:08Z</time>
      </trkpt>
      <trkpt lat="41.6393390" lon="2.1129850">
        <ele>408.9</ele>
        <time>2020-07-09T13:51:09Z</time>
      </trkpt>
      <trkpt lat="41.6393250" lon="2.1129890">
        <ele>408.9</ele>
        <time>2020-07-09T13:51:10Z</time>
      </trkpt>
      <trkpt lat="41.6393120" lon="2.1129930">
        <ele>408.9</ele>
        <time>2020-07-09T13:51:11Z</time>
      </trkpt>
      <trkpt lat="41.6392980" lon="2.1129970">
        <ele>408.9</ele>
        <time>2020-07-09T13:51:12Z</time>
      </trkpt>
      <trkpt lat="41.6392840" lon="2.1130010">
        <ele>408.9</ele>
        <time>2020-07-09T13:51:13Z</time>
      </trkpt>
      <trkpt lat="41.6392700" lon="2.1130050">
        <ele>408.9</ele>
        <time>2020-07-09T13:51:14Z</time>
      </trkpt>
      <trkpt lat="41.6392560" lon="2.1130080">
        <ele>408.9</ele>
        <time>2020-07-09T13:51:15Z</time>
      </trkpt>
      <trkpt lat="41.6392420" lon="2.1130110">
        <ele>408.9</ele>
        <time>2020-07-09T13:51:16Z</time>
      </trkpt>
      <trkpt lat="41.6392270" lon="2.1130140">
        <ele>408.9</ele>
        <time>2020-07-09T13:51:17Z</time>
      </trkpt>
      <trkpt lat="41.6392120" lon="2.1130170">
        <ele>408.9</ele>
        <time>2020-07-09T13:51:18Z</time>
      </trkpt>
      <trkpt lat="41.6391970" lon="2.1130190">
        <ele>408.9</ele>
        <time>2020-07-09T13:51:19Z</time>
      </trkpt>
      <trkpt lat="41.6391820" lon="2.1130210">
        <ele>409.0</ele>
        <time>2020-07-09T13:51:20Z</time>
      </trkpt>
      <trkpt lat="41.6391670" lon="2.1130230">
        <ele>409.0</ele>
        <time>2020-07-09T13:51:21Z</time>
      </trkpt>
      <trkpt lat="41.6391520" lon="2.1130250">
        <ele>409.0</ele>
        <time>2020-07-09T13:51:22Z</time>
      </trkpt>
      <trkpt lat="41.6391360" lon="2.1130270">
        <ele>409.0</ele>
        <time>2020-07-09T13:51:23Z</time>
      </trkpt>
      <trkpt lat="41.6391210" lon="2.1130290">
        <ele>409.1</ele>
        <time>2020-07-09T13:51:24Z</time>
      </trkpt>
      <trkpt lat="41.6391060" lon="2.1130320">
        <ele>409.1</ele>
        <time>2020-07-09T13:51:25Z</time>
      </trkpt>
      <trkpt lat="41.6390910" lon="2.1130340">
        <ele>409.1</ele>
        <time>2020-07-09T13:51:26Z</time>
      </trkpt>
      <trkpt lat="41.6390760" lon="2.1130370">
        <ele>409.1</ele>
        <time>2020-07-09T13:51:27Z</time>
      </trkpt>
      <trkpt lat="41.6390620" lon="2.1130400">
        <ele>409.2</ele>
        <time>2020-07-09T13:51:28Z</time>
      </trkpt>
      <trkpt lat="41.6390480" lon="2.1130430">
        <ele>409.2</ele>
        <time>2020-07-09T13:51:29Z</time>
      </trkpt>
      <trkpt lat="41.6390340" lon="2.1130470">
        <ele>409.2</ele>
        <time>2020-07-09T13:51:30Z</time>
      </trkpt>
      <trkpt lat="41.6390210" lon="2.1130510">
        <ele>409.3</ele>
        <time>2020-07-09T13:51:31Z</time>
      </trkpt>
      <trkpt lat="41.6390090" lon="2.1130540">
        <ele>409.3</ele>
        <time>2020-07-09T13:51:32Z</time>
      </trkpt>
      <trkpt lat="41.6389980" lon="2.1130580">
        <ele>409.3</ele>
        <time>2020-07-09T13:51:33Z</time>
      </trkpt>
      <trkpt lat="41.6389870" lon="2.1130620">
        <ele>409.4</ele>
        <time>2020-07-09T13:51:34Z</time>
      </trkpt>
      <trkpt lat="41.6389780" lon="2.1130650">
        <ele>409.4</ele>
        <time>2020-07-09T13:51:35Z</time>
      </trkpt>
      <trkpt lat="41.6389690" lon="2.1130680">
        <ele>409.4</ele>
        <time>2020-07-09T13:51:36Z</time>
      </trkpt>
      <trkpt lat="41.6389610" lon="2.1130710">
        <ele>409.4</ele>
        <time>2020-07-09T13:51:37Z</time>
      </trkpt>
      <trkpt lat="41.6389540" lon="2.1130730">
        <ele>409.5</ele>
        <time>2020-07-09T13:51:38Z</time>
      </trkpt>
      <trkpt lat="41.6389450" lon="2.1130750">
        <ele>409.5</ele>
        <time>2020-07-09T13:51:39Z</time>
      </trkpt>
      <trkpt lat="41.6389360" lon="2.1130780">
        <ele>409.5</ele>
        <time>2020-07-09T13:51:40Z</time>
      </trkpt>
      <trkpt lat="41.6389260" lon="2.1130810">
        <ele>409.6</ele>
        <time>2020-07-09T13:51:41Z</time>
      </trkpt>
      <trkpt lat="41.6389130" lon="2.1130840">
        <ele>409.6</ele>
        <time>2020-07-09T13:51:42Z</time>
      </trkpt>
      <trkpt lat="41.6388980" lon="2.1130890">
        <ele>409.7</ele>
        <time>2020-07-09T13:51:43Z</time>
      </trkpt>
      <trkpt lat="41.6388830" lon="2.1130940">
        <ele>409.7</ele>
        <time>2020-07-09T13:51:44Z</time>
      </trkpt>
      <trkpt lat="41.6388670" lon="2.1130980">
        <ele>409.8</ele>
        <time>2020-07-09T13:51:45Z</time>
      </trkpt>
      <trkpt lat="41.6388500" lon="2.1131020">
        <ele>409.9</ele>
        <time>2020-07-09T13:51:46Z</time>
      </trkpt>
      <trkpt lat="41.6388340" lon="2.1131050">
        <ele>409.9</ele>
        <time>2020-07-09T13:51:47Z</time>
      </trkpt>
      <trkpt lat="41.6388180" lon="2.1131080">
        <ele>410.0</ele>
        <time>2020-07-09T13:51:48Z</time>
      </trkpt>
      <trkpt lat="41.6388020" lon="2.1131100">
        <ele>410.0</ele>
        <time>2020-07-09T13:51:49Z</time>
      </trkpt>
      <trkpt lat="41.6387870" lon="2.1131110">
        <ele>410.1</ele>
        <time>2020-07-09T13:51:50Z</time>
      </trkpt>
      <trkpt lat="41.6387720" lon="2.1131120">
        <ele>410.1</ele>
        <time>2020-07-09T13:51:51Z</time>
      </trkpt>
      <trkpt lat="41.6387580" lon="2.1131130">
        <ele>410.1</ele>
        <time>2020-07-09T13:51:52Z</time>
      </trkpt>
      <trkpt lat="41.6387440" lon="2.1131130">
        <ele>410.2</ele>
        <time>2020-07-09T13:51:53Z</time>
      </trkpt>
      <trkpt lat="41.6387300" lon="2.1131130">
        <ele>410.2</ele>
        <time>2020-07-09T13:51:54Z</time>
      </trkpt>
      <trkpt lat="41.6387180" lon="2.1131130">
        <ele>410.2</ele>
        <time>2020-07-09T13:51:55Z</time>
      </trkpt>
      <trkpt lat="41.6387060" lon="2.1131140">
        <ele>410.3</ele>
        <time>2020-07-09T13:51:56Z</time>
      </trkpt>
      <trkpt lat="41.6386950" lon="2.1131140">
        <ele>410.3</ele>
        <time>2020-07-09T13:51:57Z</time>
      </trkpt>
      <trkpt lat="41.6386860" lon="2.1131140">
        <ele>410.3</ele>
        <time>2020-07-09T13:51:58Z</time>
      </trkpt>
      <trkpt lat="41.6386790" lon="2.1131140">
        <ele>410.3</ele>
        <time>2020-07-09T13:51:59Z</time>
      </trkpt>
      <trkpt lat="41.6386620" lon="2.1131140">
        <ele>410.3</ele>
        <time>2020-07-09T13:52:00Z</time>
      </trkpt>
      <trkpt lat="41.6386480" lon="2.1131140">
        <ele>410.3</ele>
        <time>2020-07-09T13:52:01Z</time>
      </trkpt>
      <trkpt lat="41.6386350" lon="2.1131140">
        <ele>410.3</ele>
        <time>2020-07-09T13:52:02Z</time>
      </trkpt>
      <trkpt lat="41.6386220" lon="2.1131150">
        <ele>410.3</ele>
        <time>2020-07-09T13:52:03Z</time>
      </trkpt>
      <trkpt lat="41.6386090" lon="2.1131150">
        <ele>410.3</ele>
        <time>2020-07-09T13:52:04Z</time>
      </trkpt>
      <trkpt lat="41.6385960" lon="2.1131150">
        <ele>410.3</ele>
        <time>2020-07-09T13:52:05Z</time>
      </trkpt>
      <trkpt lat="41.6385820" lon="2.1131150">
        <ele>410.2</ele>
        <time>2020-07-09T13:52:06Z</time>
      </trkpt>
      <trkpt lat="41.6385690" lon="2.1131150">
        <ele>410.2</ele>
        <time>2020-07-09T13:52:07Z</time>
      </trkpt>
      <trkpt lat="41.6385560" lon="2.1131150">
        <ele>410.2</ele>
        <time>2020-07-09T13:52:08Z</time>
      </trkpt>
      <trkpt lat="41.6385430" lon="2.1131160">
        <ele>410.2</ele>
        <time>2020-07-09T13:52:09Z</time>
      </trkpt>
      <trkpt lat="41.6385290" lon="2.1131160">
        <ele>410.1</ele>
        <time>2020-07-09T13:52:10Z</time>
      </trkpt>
      <trkpt lat="41.6385160" lon="2.1131160">
        <ele>410.1</ele>
        <time>2020-07-09T13:52:11Z</time>
      </trkpt>
      <trkpt lat="41.6385030" lon="2.1131160">
        <ele>410.1</ele>
        <time>2020-07-09T13:52:12Z</time>
      </trkpt>
      <trkpt lat="41.6384900" lon="2.1131160">
        <ele>410.0</ele>
        <time>2020-07-09T13:52:13Z</time>
      </trkpt>
      <trkpt lat="41.6384760" lon="2.1131160">
        <ele>410.0</ele>
        <time>2020-07-09T13:52:14Z</time>
      </trkpt>
      <trkpt lat="41.6384630" lon="2.1131160">
        <ele>409.9</ele>
        <time>2020-07-09T13:52:15Z</time>
      </trkpt>
      <trkpt lat="41.6384500" lon="2.1131170">
        <ele>409.9</ele>
        <time>2020-07-09T13:52:16Z</time>
      </trkpt>
      <trkpt lat="41.6384370" lon="2.1131170">
        <ele>409.8</ele>
        <time>2020-07-09T13:52:17Z</time>
      </trkpt>
      <trkpt lat="41.6384230" lon="2.1131170">
        <ele>409.8</ele>
        <time>2020-07-09T13:52:18Z</time>
      </trkpt>
      <trkpt lat="41.6384100" lon="2.1131170">
        <ele>409.7</ele>
        <time>2020-07-09T13:52:19Z</time>
      </trkpt>
      <trkpt lat="41.6383960" lon="2.1131200">
        <ele>409.6</ele>
        <time>2020-07-09T13:52:20Z</time>
      </trkpt>
      <trkpt lat="41.6383830" lon="2.1131230">
        <ele>409.6</ele>
        <time>2020-07-09T13:52:21Z</time>
      </trkpt>
      <trkpt lat="41.6383690" lon="2.1131260">
        <ele>409.5</ele>
        <time>2020-07-09T13:52:22Z</time>
      </trkpt>
      <trkpt lat="41.6383560" lon="2.1131290">
        <ele>409.4</ele>
        <time>2020-07-09T13:52:23Z</time>
      </trkpt>
      <trkpt lat="41.6383420" lon="2.1131320">
        <ele>409.4</ele>
        <time>2020-07-09T13:52:24Z</time>
      </trkpt>
      <trkpt lat="41.6383270" lon="2.1131350">
        <ele>409.3</ele>
        <time>2020-07-09T13:52:25Z</time>
      </trkpt>
      <trkpt lat="41.6383120" lon="2.1131380">
        <ele>409.2</ele>
        <time>2020-07-09T13:52:26Z</time>
      </trkpt>
      <trkpt lat="41.6382970" lon="2.1131420">
        <ele>409.1</ele>
        <time>2020-07-09T13:52:27Z</time>
      </trkpt>
      <trkpt lat="41.6382820" lon="2.1131450">
        <ele>409.1</ele>
        <time>2020-07-09T13:52:28Z</time>
      </trkpt>
      <trkpt lat="41.6382670" lon="2.1131500">
        <ele>409.0</ele>
        <time>2020-07-09T13:52:29Z</time>
      </trkpt>
      <trkpt lat="41.6382510" lon="2.1131540">
        <ele>408.9</ele>
        <time>2020-07-09T13:52:30Z</time>
      </trkpt>
      <trkpt lat="41.6382350" lon="2.1131590">
        <ele>408.8</ele>
        <time>2020-07-09T13:52:31Z</time>
      </trkpt>
      <trkpt lat="41.6382190" lon="2.1131650">
        <ele>408.7</ele>
        <time>2020-07-09T13:52:32Z</time>
      </trkpt>
      <trkpt lat="41.6382030" lon="2.1131720">
        <ele>408.6</ele>
        <time>2020-07-09T13:52:33Z</time>
      </trkpt>
      <trkpt lat="41.6381860" lon="2.1131800">
        <ele>408.5</ele>
        <time>2020-07-09T13:52:34Z</time>
      </trkpt>
      <trkpt lat="41.6381700" lon="2.1131880">
        <ele>408.4</ele>
        <time>2020-07-09T13:52:35Z</time>
      </trkpt>
      <trkpt lat="41.6381540" lon="2.1131980">
        <ele>408.3</ele>
        <time>2020-07-09T13:52:36Z</time>
      </trkpt>
      <trkpt lat="41.6381380" lon="2.1132070">
        <ele>408.2</ele>
        <time>2020-07-09T13:52:37Z</time>
      </trkpt>
      <trkpt lat="41.6381230" lon="2.1132180">
        <ele>408.1</ele>
        <time>2020-07-09T13:52:38Z</time>
      </trkpt>
      <trkpt lat="41.6381080" lon="2.1132280">
        <ele>408.0</ele>
        <time>2020-07-09T13:52:39Z</time>
      </trkpt>
      <trkpt lat="41.6380850" lon="2.1132530">
        <ele>407.8</ele>
        <time>2020-07-09T13:52:40Z</time>
      </trkpt>
      <trkpt lat="41.6380750" lon="2.1132660">
        <ele>407.7</ele>
        <time>2020-07-09T13:52:41Z</time>
      </trkpt>
      <trkpt lat="41.6380660" lon="2.1132790">
        <ele>407.6</ele>
        <time>2020-07-09T13:52:42Z</time>
      </trkpt>
      <trkpt lat="41.6380560" lon="2.1132920">
        <ele>407.5</ele>
        <time>2020-07-09T13:52:43Z</time>
      </trkpt>
      <trkpt lat="41.6380470" lon="2.1133050">
        <ele>407.4</ele>
        <time>2020-07-09T13:52:44Z</time>
      </trkpt>
      <trkpt lat="41.6380370" lon="2.1133180">
        <ele>407.3</ele>
        <time>2020-07-09T13:52:45Z</time>
      </trkpt>
      <trkpt lat="41.6380280" lon="2.1133310">
        <ele>407.2</ele>
        <time>2020-07-09T13:52:46Z</time>
      </trkpt>
      <trkpt lat="41.6380190" lon="2.1133440">
        <ele>407.1</ele>
        <time>2020-07-09T13:52:47Z</time>
      </trkpt>
      <trkpt lat="41.6380090" lon="2.1133560">
        <ele>407.0</ele>
        <time>2020-07-09T13:52:48Z</time>
      </trkpt>
      <trkpt lat="41.6380000" lon="2.1133690">
        <ele>406.9</ele>
        <time>2020-07-09T13:52:49Z</time>
      </trkpt>
      <trkpt lat="41.6379900" lon="2.1133820">
        <ele>406.8</ele>
        <time>2020-07-09T13:52:50Z</time>
      </trkpt>
      <trkpt lat="41.6379810" lon="2.1133950">
        <ele>406.6</ele>
        <time>2020-07-09T13:52:51Z</time>
      </trkpt>
      <trkpt lat="41.6379710" lon="2.1134080">
        <ele>406.5</ele>
        <time>2020-07-09T13:52:52Z</time>
      </trkpt>
      <trkpt lat="41.6379620" lon="2.1134210">
        <ele>406.4</ele>
        <time>2020-07-09T13:52:53Z</time>
      </trkpt>
      <trkpt lat="41.6379520" lon="2.1134340">
        <ele>406.3</ele>
        <time>2020-07-09T13:52:54Z</time>
      </trkpt>
      <trkpt lat="41.6379430" lon="2.1134470">
        <ele>406.2</ele>
        <time>2020-07-09T13:52:55Z</time>
      </trkpt>
      <trkpt lat="41.6379330" lon="2.1134630">
        <ele>406.0</ele>
        <time>2020-07-09T13:52:56Z</time>
      </trkpt>
      <trkpt lat="41.6379240" lon="2.1134790">
        <ele>405.9</ele>
        <time>2020-07-09T13:52:57Z</time>
      </trkpt>
      <trkpt lat="41.6379140" lon="2.1134950">
        <ele>405.7</ele>
        <time>2020-07-09T13:52:58Z</time>
      </trkpt>
      <trkpt lat="41.6379040" lon="2.1135120">
        <ele>405.5</ele>
        <time>2020-07-09T13:52:59Z</time>
      </trkpt>
      <trkpt lat="41.6378950" lon="2.1135280">
        <ele>405.4</ele>
        <time>2020-07-09T13:53:00Z</time>
      </trkpt>
      <trkpt lat="41.6378850" lon="2.1135450">
        <ele>405.2</ele>
        <time>2020-07-09T13:53:01Z</time>
      </trkpt>
      <trkpt lat="41.6378760" lon="2.1135610">
        <ele>405.1</ele>
        <time>2020-07-09T13:53:02Z</time>
      </trkpt>
      <trkpt lat="41.6378670" lon="2.1135780">
        <ele>404.9</ele>
        <time>2020-07-09T13:53:03Z</time>
      </trkpt>
      <trkpt lat="41.6378590" lon="2.1135940">
        <ele>404.8</ele>
        <time>2020-07-09T13:53:04Z</time>
      </trkpt>
      <trkpt lat="41.6378510" lon="2.1136110">
        <ele>404.6</ele>
        <time>2020-07-09T13:53:05Z</time>
      </trkpt>
      <trkpt lat="41.6378430" lon="2.1136270">
        <ele>404.4</ele>
        <time>2020-07-09T13:53:06Z</time>
      </trkpt>
      <trkpt lat="41.6378360" lon="2.1136430">
        <ele>404.3</ele>
        <time>2020-07-09T13:53:07Z</time>
      </trkpt>
      <trkpt lat="41.6378300" lon="2.1136590">
        <ele>404.1</ele>
        <time>2020-07-09T13:53:08Z</time>
      </trkpt>
      <trkpt lat="41.6378240" lon="2.1136750">
        <ele>404.0</ele>
        <time>2020-07-09T13:53:09Z</time>
      </trkpt>
      <trkpt lat="41.6378190" lon="2.1136900">
        <ele>403.9</ele>
        <time>2020-07-09T13:53:10Z</time>
      </trkpt>
      <trkpt lat="41.6378140" lon="2.1137050">
        <ele>403.7</ele>
        <time>2020-07-09T13:53:11Z</time>
      </trkpt>
      <trkpt lat="41.6378100" lon="2.1137200">
        <ele>403.6</ele>
        <time>2020-07-09T13:53:12Z</time>
      </trkpt>
      <trkpt lat="41.6378060" lon="2.1137350">
        <ele>403.5</ele>
        <time>2020-07-09T13:53:13Z</time>
      </trkpt>
      <trkpt lat="41.6378020" lon="2.1137500">
        <ele>403.4</ele>
        <time>2020-07-09T13:53:14Z</time>
      </trkpt>
      <trkpt lat="41.6377980" lon="2.1137650">
        <ele>403.2</ele>
        <time>2020-07-09T13:53:15Z</time>
      </trkpt>
      <trkpt lat="41.6377950" lon="2.1137810">
        <ele>403.1</ele>
        <time>2020-07-09T13:53:16Z</time>
      </trkpt>
      <trkpt lat="41.6377910" lon="2.1137960">
        <ele>403.0</ele>
        <time>2020-07-09T13:53:17Z</time>
      </trkpt>
      <trkpt lat="41.6377870" lon="2.1138120">
        <ele>402.9</ele>
        <time>2020-07-09T13:53:18Z</time>
      </trkpt>
      <trkpt lat="41.6377830" lon="2.1138280">
        <ele>402.8</ele>
        <time>2020-07-09T13:53:19Z</time>
      </trkpt>
      <trkpt lat="41.6377780" lon="2.1138440">
        <ele>402.6</ele>
        <time>2020-07-09T13:53:20Z</time>
      </trkpt>
      <trkpt lat="41.6377730" lon="2.1138610">
        <ele>402.5</ele>
        <time>2020-07-09T13:53:21Z</time>
      </trkpt>
      <trkpt lat="41.6377680" lon="2.1138780">
        <ele>402.4</ele>
        <time>2020-07-09T13:53:22Z</time>
      </trkpt>
      <trkpt lat="41.6377620" lon="2.1138950">
        <ele>402.2</ele>
        <time>2020-07-09T13:53:23Z</time>
      </trkpt>
      <trkpt lat="41.6377560" lon="2.1139120">
        <ele>402.1</ele>
        <time>2020-07-09T13:53:24Z</time>
      </trkpt>
      <trkpt lat="41.6377500" lon="2.1139300">
        <ele>402.0</ele>
        <time>2020-07-09T13:53:25Z</time>
      </trkpt>
      <trkpt lat="41.6377430" lon="2.1139460">
        <ele>401.9</ele>
        <time>2020-07-09T13:53:26Z</time>
      </trkpt>
      <trkpt lat="41.6377370" lon="2.1139630">
        <ele>401.8</ele>
        <time>2020-07-09T13:53:27Z</time>
      </trkpt>
      <trkpt lat="41.6377300" lon="2.1139790">
        <ele>401.6</ele>
        <time>2020-07-09T13:53:28Z</time>
      </trkpt>
      <trkpt lat="41.6377220" lon="2.1139950">
        <ele>401.5</ele>
        <time>2020-07-09T13:53:29Z</time>
      </trkpt>
      <trkpt lat="41.6377150" lon="2.1140100">
        <ele>401.4</ele>
        <time>2020-07-09T13:53:30Z</time>
      </trkpt>
      <trkpt lat="41.6377070" lon="2.1140240">
        <ele>401.3</ele>
        <time>2020-07-09T13:53:31Z</time>
      </trkpt>
      <trkpt lat="41.6376990" lon="2.1140380">
        <ele>401.2</ele>
        <time>2020-07-09T13:53:32Z</time>
      </trkpt>
      <trkpt lat="41.6376900" lon="2.1140500">
        <ele>401.1</ele>
        <time>2020-07-09T13:53:33Z</time>
      </trkpt>
      <trkpt lat="41.6376800" lon="2.1140610">
        <ele>401.0</ele>
        <time>2020-07-09T13:53:34Z</time>
      </trkpt>
      <trkpt lat="41.6376700" lon="2.1140710">
        <ele>400.9</ele>
        <time>2020-07-09T13:53:35Z</time>
      </trkpt>
      <trkpt lat="41.6376590" lon="2.1140800">
        <ele>400.8</ele>
        <time>2020-07-09T13:53:36Z</time>
      </trkpt>
      <trkpt lat="41.6376470" lon="2.1140870">
        <ele>400.7</ele>
        <time>2020-07-09T13:53:37Z</time>
      </trkpt>
      <trkpt lat="41.6376340" lon="2.1140920">
        <ele>400.6</ele>
        <time>2020-07-09T13:53:38Z</time>
      </trkpt>
      <trkpt lat="41.6376210" lon="2.1140960">
        <ele>400.5</ele>
        <time>2020-07-09T13:53:39Z</time>
      </trkpt>
      <trkpt lat="41.6376060" lon="2.1140990">
        <ele>400.4</ele>
        <time>2020-07-09T13:53:40Z</time>
      </trkpt>
      <trkpt lat="41.6375920" lon="2.1141000">
        <ele>400.3</ele>
        <time>2020-07-09T13:53:41Z</time>
      </trkpt>
      <trkpt lat="41.6375770" lon="2.1141010">
        <ele>400.2</ele>
        <time>2020-07-09T13:53:42Z</time>
      </trkpt>
      <trkpt lat="41.6375610" lon="2.1141010">
        <ele>400.1</ele>
        <time>2020-07-09T13:53:43Z</time>
      </trkpt>
      <trkpt lat="41.6375460" lon="2.1141010">
        <ele>400.0</ele>
        <time>2020-07-09T13:53:44Z</time>
      </trkpt>
      <trkpt lat="41.6375310" lon="2.1141010">
        <ele>399.9</ele>
        <time>2020-07-09T13:53:45Z</time>
      </trkpt>
      <trkpt lat="41.6375160" lon="2.1141000">
        <ele>399.8</ele>
        <time>2020-07-09T13:53:46Z</time>
      </trkpt>
      <trkpt lat="41.6375020" lon="2.1141000">
        <ele>399.7</ele>
        <time>2020-07-09T13:53:47Z</time>
      </trkpt>
      <trkpt lat="41.6374880" lon="2.1141010">
        <ele>399.6</ele>
        <time>2020-07-09T13:53:48Z</time>
      </trkpt>
      <trkpt lat="41.6374740" lon="2.1141020">
        <ele>399.5</ele>
        <time>2020-07-09T13:53:49Z</time>
      </trkpt>
      <trkpt lat="41.6374610" lon="2.1141030">
        <ele>399.5</ele>
        <time>2020-07-09T13:53:50Z</time>
      </trkpt>
      <trkpt lat="41.6374480" lon="2.1141050">
        <ele>399.3</ele>
        <time>2020-07-09T13:53:51Z</time>
      </trkpt>
      <trkpt lat="41.6374350" lon="2.1141080">
        <ele>399.2</ele>
        <time>2020-07-09T13:53:52Z</time>
      </trkpt>
      <trkpt lat="41.6374220" lon="2.1141110">
        <ele>399.1</ele>
        <time>2020-07-09T13:53:53Z</time>
      </trkpt>
      <trkpt lat="41.6374090" lon="2.1141150">
        <ele>398.9</ele>
        <time>2020-07-09T13:53:54Z</time>
      </trkpt>
      <trkpt lat="41.6373960" lon="2.1141200">
        <ele>398.8</ele>
        <time>2020-07-09T13:53:55Z</time>
      </trkpt>
      <trkpt lat="41.6373830" lon="2.1141260">
        <ele>398.6</ele>
        <time>2020-07-09T13:53:56Z</time>
      </trkpt>
      <trkpt lat="41.6373700" lon="2.1141330">
        <ele>398.5</ele>
        <time>2020-07-09T13:53:57Z</time>
      </trkpt>
      <trkpt lat="41.6373560" lon="2.1141410">
        <ele>398.3</ele>
        <time>2020-07-09T13:53:58Z</time>
      </trkpt>
      <trkpt lat="41.6373420" lon="2.1141490">
        <ele>398.2</ele>
        <time>2020-07-09T13:53:59Z</time>
      </trkpt>
      <trkpt lat="41.6373280" lon="2.1141580">
        <ele>398.0</ele>
        <time>2020-07-09T13:54:00Z</time>
      </trkpt>
      <trkpt lat="41.6373140" lon="2.1141670">
        <ele>397.9</ele>
        <time>2020-07-09T13:54:01Z</time>
      </trkpt>
      <trkpt lat="41.6373000" lon="2.1141770">
        <ele>397.7</ele>
        <time>2020-07-09T13:54:02Z</time>
      </trkpt>
      <trkpt lat="41.6372860" lon="2.1141860">
        <ele>397.5</ele>
        <time>2020-07-09T13:54:03Z</time>
      </trkpt>
      <trkpt lat="41.6372720" lon="2.1141960">
        <ele>397.4</ele>
        <time>2020-07-09T13:54:04Z</time>
      </trkpt>
      <trkpt lat="41.6372580" lon="2.1142050">
        <ele>397.2</ele>
        <time>2020-07-09T13:54:05Z</time>
      </trkpt>
      <trkpt lat="41.6372440" lon="2.1142130">
        <ele>397.1</ele>
        <time>2020-07-09T13:54:06Z</time>
      </trkpt>
      <trkpt lat="41.6372310" lon="2.1142220">
        <ele>396.9</ele>
        <time>2020-07-09T13:54:07Z</time>
      </trkpt>
      <trkpt lat="41.6372170" lon="2.1142300">
        <ele>396.8</ele>
        <time>2020-07-09T13:54:08Z</time>
      </trkpt>
      <trkpt lat="41.6372040" lon="2.1142380">
        <ele>396.6</ele>
        <time>2020-07-09T13:54:09Z</time>
      </trkpt>
      <trkpt lat="41.6371900" lon="2.1142460">
        <ele>396.5</ele>
        <time>2020-07-09T13:54:10Z</time>
      </trkpt>
      <trkpt lat="41.6371770" lon="2.1142550">
        <ele>396.3</ele>
        <time>2020-07-09T13:54:11Z</time>
      </trkpt>
      <trkpt lat="41.6371650" lon="2.1142640">
        <ele>396.2</ele>
        <time>2020-07-09T13:54:12Z</time>
      </trkpt>
      <trkpt lat="41.6371520" lon="2.1142730">
        <ele>396.0</ele>
        <time>2020-07-09T13:54:13Z</time>
      </trkpt>
      <trkpt lat="41.6371400" lon="2.1142830">
        <ele>395.9</ele>
        <time>2020-07-09T13:54:14Z</time>
      </trkpt>
      <trkpt lat="41.6371290" lon="2.1142950">
        <ele>395.7</ele>
        <time>2020-07-09T13:54:15Z</time>
      </trkpt>
      <trkpt lat="41.6371180" lon="2.1143060">
        <ele>395.6</ele>
        <time>2020-07-09T13:54:16Z</time>
      </trkpt>
      <trkpt lat="41.6371070" lon="2.1143190">
        <ele>395.4</ele>
        <time>2020-07-09T13:54:17Z</time>
      </trkpt>
      <trkpt lat="41.6370960" lon="2.1143320">
        <ele>395.3</ele>
        <time>2020-07-09T13:54:18Z</time>
      </trkpt>
      <trkpt lat="41.6370860" lon="2.1143450">
        <ele>395.2</ele>
        <time>2020-07-09T13:54:19Z</time>
      </trkpt>
      <trkpt lat="41.6370760" lon="2.1143590">
        <ele>395.0</ele>
        <time>2020-07-09T13:54:20Z</time>
      </trkpt>
      <trkpt lat="41.6370660" lon="2.1143730">
        <ele>394.9</ele>
        <time>2020-07-09T13:54:21Z</time>
      </trkpt>
      <trkpt lat="41.6370560" lon="2.1143880">
        <ele>394.7</ele>
        <time>2020-07-09T13:54:22Z</time>
      </trkpt>
      <trkpt lat="41.6370470" lon="2.1144020">
        <ele>394.6</ele>
        <time>2020-07-09T13:54:23Z</time>
      </trkpt>
      <trkpt lat="41.6370370" lon="2.1144160">
        <ele>394.5</ele>
        <time>2020-07-09T13:54:24Z</time>
      </trkpt>
      <trkpt lat="41.6370280" lon="2.1144310">
        <ele>394.3</ele>
        <time>2020-07-09T13:54:25Z</time>
      </trkpt>
      <trkpt lat="41.6370190" lon="2.1144450">
        <ele>394.2</ele>
        <time>2020-07-09T13:54:26Z</time>
      </trkpt>
      <trkpt lat="41.6370100" lon="2.1144590">
        <ele>394.1</ele>
        <time>2020-07-09T13:54:27Z</time>
      </trkpt>
      <trkpt lat="41.6370010" lon="2.1144730">
        <ele>393.9</ele>
        <time>2020-07-09T13:54:28Z</time>
      </trkpt>
      <trkpt lat="41.6369920" lon="2.1144880">
        <ele>393.8</ele>
        <time>2020-07-09T13:54:29Z</time>
      </trkpt>
      <trkpt lat="41.6369840" lon="2.1145020">
        <ele>393.7</ele>
        <time>2020-07-09T13:54:30Z</time>
      </trkpt>
      <trkpt lat="41.6369750" lon="2.1145160">
        <ele>393.5</ele>
        <time>2020-07-09T13:54:31Z</time>
      </trkpt>
      <trkpt lat="41.6369670" lon="2.1145310">
        <ele>393.4</ele>
        <time>2020-07-09T13:54:32Z</time>
      </trkpt>
      <trkpt lat="41.6369590" lon="2.1145450">
        <ele>393.3</ele>
        <time>2020-07-09T13:54:33Z</time>
      </trkpt>
      <trkpt lat="41.6369510" lon="2.1145600">
        <ele>393.1</ele>
        <time>2020-07-09T13:54:34Z</time>
      </trkpt>
      <trkpt lat="41.6369430" lon="2.1145740">
        <ele>393.0</ele>
        <time>2020-07-09T13:54:35Z</time>
      </trkpt>
      <trkpt lat="41.6369350" lon="2.1145890">
        <ele>392.9</ele>
        <time>2020-07-09T13:54:36Z</time>
      </trkpt>
      <trkpt lat="41.6369270" lon="2.1146040">
        <ele>392.8</ele>
        <time>2020-07-09T13:54:37Z</time>
      </trkpt>
      <trkpt lat="41.6369200" lon="2.1146190">
        <ele>392.6</ele>
        <time>2020-07-09T13:54:38Z</time>
      </trkpt>
      <trkpt lat="41.6369130" lon="2.1146340">
        <ele>392.5</ele>
        <time>2020-07-09T13:54:39Z</time>
      </trkpt>
      <trkpt lat="41.6369050" lon="2.1146500">
        <ele>392.4</ele>
        <time>2020-07-09T13:54:40Z</time>
      </trkpt>
      <trkpt lat="41.6368980" lon="2.1146650">
        <ele>392.3</ele>
        <time>2020-07-09T13:54:41Z</time>
      </trkpt>
      <trkpt lat="41.6368910" lon="2.1146810">
        <ele>392.1</ele>
        <time>2020-07-09T13:54:42Z</time>
      </trkpt>
      <trkpt lat="41.6368840" lon="2.1146970">
        <ele>392.0</ele>
        <time>2020-07-09T13:54:43Z</time>
      </trkpt>
      <trkpt lat="41.6368780" lon="2.1147130">
        <ele>391.9</ele>
        <time>2020-07-09T13:54:44Z</time>
      </trkpt>
      <trkpt lat="41.6368710" lon="2.1147290">
        <ele>391.7</ele>
        <time>2020-07-09T13:54:45Z</time>
      </trkpt>
      <trkpt lat="41.6368650" lon="2.1147460">
        <ele>391.6</ele>
        <time>2020-07-09T13:54:46Z</time>
      </trkpt>
      <trkpt lat="41.6368580" lon="2.1147620">
        <ele>391.5</ele>
        <time>2020-07-09T13:54:47Z</time>
      </trkpt>
      <trkpt lat="41.6368520" lon="2.1147790">
        <ele>391.4</ele>
        <time>2020-07-09T13:54:48Z</time>
      </trkpt>
      <trkpt lat="41.6368450" lon="2.1147960">
        <ele>391.2</ele>
        <time>2020-07-09T13:54:49Z</time>
      </trkpt>
      <trkpt lat="41.6368390" lon="2.1148130">
        <ele>391.1</ele>
        <time>2020-07-09T13:54:50Z</time>
      </trkpt>
      <trkpt lat="41.6368320" lon="2.1148300">
        <ele>390.9</ele>
        <time>2020-07-09T13:54:51Z</time>
      </trkpt>
      <trkpt lat="41.6368260" lon="2.1148460">
        <ele>390.8</ele>
        <time>2020-07-09T13:54:52Z</time>
      </trkpt>
      <trkpt lat="41.6368190" lon="2.1148630">
        <ele>390.6</ele>
        <time>2020-07-09T13:54:53Z</time>
      </trkpt>
      <trkpt lat="41.6368130" lon="2.1148800">
        <ele>390.5</ele>
        <time>2020-07-09T13:54:54Z</time>
      </trkpt>
      <trkpt lat="41.6368060" lon="2.1148970">
        <ele>390.3</ele>
        <time>2020-07-09T13:54:55Z</time>
      </trkpt>
      <trkpt lat="41.6367990" lon="2.1149140">
        <ele>390.2</ele>
        <time>2020-07-09T13:54:56Z</time>
      </trkpt>
      <trkpt lat="41.6367910" lon="2.1149310">
        <ele>390.0</ele>
        <time>2020-07-09T13:54:57Z</time>
      </trkpt>
      <trkpt lat="41.6367840" lon="2.1149470">
        <ele>389.9</ele>
        <time>2020-07-09T13:54:58Z</time>
      </trkpt>
      <trkpt lat="41.6367770" lon="2.1149640">
        <ele>389.7</ele>
        <time>2020-07-09T13:54:59Z</time>
      </trkpt>
      <trkpt lat="41.6367690" lon="2.1149800">
        <ele>389.6</ele>
        <time>2020-07-09T13:55:00Z</time>
      </trkpt>
      <trkpt lat="41.6367610" lon="2.1149960">
        <ele>389.5</ele>
        <time>2020-07-09T13:55:01Z</time>
      </trkpt>
      <trkpt lat="41.6367530" lon="2.1150120">
        <ele>389.4</ele>
        <time>2020-07-09T13:55:02Z</time>
      </trkpt>
      <trkpt lat="41.6367440" lon="2.1150280">
        <ele>389.3</ele>
        <time>2020-07-09T13:55:03Z</time>
      </trkpt>
      <trkpt lat="41.6367360" lon="2.1150430">
        <ele>389.1</ele>
        <time>2020-07-09T13:55:04Z</time>
      </trkpt>
      <trkpt lat="41.6367290" lon="2.1150580">
        <ele>389.0</ele>
        <time>2020-07-09T13:55:05Z</time>
      </trkpt>
      <trkpt lat="41.6367220" lon="2.1150730">
        <ele>388.9</ele>
        <time>2020-07-09T13:55:06Z</time>
      </trkpt>
      <trkpt lat="41.6367150" lon="2.1150870">
        <ele>388.8</ele>
        <time>2020-07-09T13:55:07Z</time>
      </trkpt>
      <trkpt lat="41.6367080" lon="2.1151000">
        <ele>388.7</ele>
        <time>2020-07-09T13:55:08Z</time>
      </trkpt>
      <trkpt lat="41.6367010" lon="2.1151130">
        <ele>388.6</ele>
        <time>2020-07-09T13:55:09Z</time>
      </trkpt>
      <trkpt lat="41.6366940" lon="2.1151240">
        <ele>388.5</ele>
        <time>2020-07-09T13:55:10Z</time>
      </trkpt>
      <trkpt lat="41.6366870" lon="2.1151340">
        <ele>388.4</ele>
        <time>2020-07-09T13:55:11Z</time>
      </trkpt>
      <trkpt lat="41.6366800" lon="2.1151430">
        <ele>388.3</ele>
        <time>2020-07-09T13:55:12Z</time>
      </trkpt>
      <trkpt lat="41.6366730" lon="2.1151500">
        <ele>388.2</ele>
        <time>2020-07-09T13:55:13Z</time>
      </trkpt>
      <trkpt lat="41.6366650" lon="2.1151570">
        <ele>388.2</ele>
        <time>2020-07-09T13:55:14Z</time>
      </trkpt>
      <trkpt lat="41.6366580" lon="2.1151640">
        <ele>388.1</ele>
        <time>2020-07-09T13:55:15Z</time>
      </trkpt>
      <trkpt lat="41.6366500" lon="2.1151710">
        <ele>388.0</ele>
        <time>2020-07-09T13:55:16Z</time>
      </trkpt>
      <trkpt lat="41.6366420" lon="2.1151770">
        <ele>387.9</ele>
        <time>2020-07-09T13:55:17Z</time>
      </trkpt>
      <trkpt lat="41.6366340" lon="2.1151840">
        <ele>387.8</ele>
        <time>2020-07-09T13:55:18Z</time>
      </trkpt>
      <trkpt lat="41.6366260" lon="2.1151910">
        <ele>387.8</ele>
        <time>2020-07-09T13:55:19Z</time>
      </trkpt>
      <trkpt lat="41.6366180" lon="2.1151990">
        <ele>387.7</ele>
        <time>2020-07-09T13:55:20Z</time>
      </trkpt>
      <trkpt lat="41.6366100" lon="2.1152070">
        <ele>387.6</ele>
        <time>2020-07-09T13:55:21Z</time>
      </trkpt>
      <trkpt lat="41.6366020" lon="2.1152170">
        <ele>387.5</ele>
        <time>2020-07-09T13:55:22Z</time>
      </trkpt>
      <trkpt lat="41.6365940" lon="2.1152260">
        <ele>387.4</ele>
        <time>2020-07-09T13:55:23Z</time>
      </trkpt>
      <trkpt lat="41.6365860" lon="2.1152370">
        <ele>387.3</ele>
        <time>2020-07-09T13:55:24Z</time>
      </trkpt>
      <trkpt lat="41.6365770" lon="2.1152480">
        <ele>387.2</ele>
        <time>2020-07-09T13:55:25Z</time>
      </trkpt>
      <trkpt lat="41.6365690" lon="2.1152590">
        <ele>387.1</ele>
        <time>2020-07-09T13:55:26Z</time>
      </trkpt>
      <trkpt lat="41.6365600" lon="2.1152710">
        <ele>387.0</ele>
        <time>2020-07-09T13:55:27Z</time>
      </trkpt>
      <trkpt lat="41.6365520" lon="2.1152830">
        <ele>386.9</ele>
        <time>2020-07-09T13:55:28Z</time>
      </trkpt>
      <trkpt lat="41.6365430" lon="2.1152960">
        <ele>386.8</ele>
        <time>2020-07-09T13:55:29Z</time>
      </trkpt>
      <trkpt lat="41.6365340" lon="2.1153090">
        <ele>386.7</ele>
        <time>2020-07-09T13:55:30Z</time>
      </trkpt>
      <trkpt lat="41.6365250" lon="2.1153220">
        <ele>386.6</ele>
        <time>2020-07-09T13:55:31Z</time>
      </trkpt>
      <trkpt lat="41.6365160" lon="2.1153350">
        <ele>386.5</ele>
        <time>2020-07-09T13:55:32Z</time>
      </trkpt>
      <trkpt lat="41.6365080" lon="2.1153490">
        <ele>386.4</ele>
        <time>2020-07-09T13:55:33Z</time>
      </trkpt>
      <trkpt lat="41.6364990" lon="2.1153630">
        <ele>386.3</ele>
        <time>2020-07-09T13:55:34Z</time>
      </trkpt>
      <trkpt lat="41.6364910" lon="2.1153780">
        <ele>386.2</ele>
        <time>2020-07-09T13:55:35Z</time>
      </trkpt>
      <trkpt lat="41.6364830" lon="2.1153920">
        <ele>386.1</ele>
        <time>2020-07-09T13:55:36Z</time>
      </trkpt>
      <trkpt lat="41.6364750" lon="2.1154070">
        <ele>386.0</ele>
        <time>2020-07-09T13:55:37Z</time>
      </trkpt>
      <trkpt lat="41.6364670" lon="2.1154220">
        <ele>385.9</ele>
        <time>2020-07-09T13:55:38Z</time>
      </trkpt>
      <trkpt lat="41.6364600" lon="2.1154370">
        <ele>385.8</ele>
        <time>2020-07-09T13:55:39Z</time>
      </trkpt>
      <trkpt lat="41.6364530" lon="2.1154530">
        <ele>385.7</ele>
        <time>2020-07-09T13:55:40Z</time>
      </trkpt>
      <trkpt lat="41.6364470" lon="2.1154680">
        <ele>385.6</ele>
        <time>2020-07-09T13:55:41Z</time>
      </trkpt>
      <trkpt lat="41.6364410" lon="2.1154840">
        <ele>385.5</ele>
        <time>2020-07-09T13:55:42Z</time>
      </trkpt>
      <trkpt lat="41.6364350" lon="2.1155000">
        <ele>385.4</ele>
        <time>2020-07-09T13:55:43Z</time>
      </trkpt>
      <trkpt lat="41.6364290" lon="2.1155150">
        <ele>385.4</ele>
        <time>2020-07-09T13:55:44Z</time>
      </trkpt>
      <trkpt lat="41.6364230" lon="2.1155310">
        <ele>385.3</ele>
        <time>2020-07-09T13:55:45Z</time>
      </trkpt>
      <trkpt lat="41.6364170" lon="2.1155470">
        <ele>385.2</ele>
        <time>2020-07-09T13:55:46Z</time>
      </trkpt>
      <trkpt lat="41.6364120" lon="2.1155630">
        <ele>385.1</ele>
        <time>2020-07-09T13:55:47Z</time>
      </trkpt>
      <trkpt lat="41.6364060" lon="2.1155790">
        <ele>385.0</ele>
        <time>2020-07-09T13:55:48Z</time>
      </trkpt>
      <trkpt lat="41.6364010" lon="2.1155940">
        <ele>385.0</ele>
        <time>2020-07-09T13:55:49Z</time>
      </trkpt>
      <trkpt lat="41.6363950" lon="2.1156100">
        <ele>384.9</ele>
        <time>2020-07-09T13:55:50Z</time>
      </trkpt>
      <trkpt lat="41.6363900" lon="2.1156250">
        <ele>384.8</ele>
        <time>2020-07-09T13:55:51Z</time>
      </trkpt>
      <trkpt lat="41.6363840" lon="2.1156400">
        <ele>384.7</ele>
        <time>2020-07-09T13:55:52Z</time>
      </trkpt>
      <trkpt lat="41.6363780" lon="2.1156550">
        <ele>384.7</ele>
        <time>2020-07-09T13:55:53Z</time>
      </trkpt>
      <trkpt lat="41.6363720" lon="2.1156700">
        <ele>384.6</ele>
        <time>2020-07-09T13:55:54Z</time>
      </trkpt>
      <trkpt lat="41.6363660" lon="2.1156850">
        <ele>384.5</ele>
        <time>2020-07-09T13:55:55Z</time>
      </trkpt>
      <trkpt lat="41.6363600" lon="2.1156990">
        <ele>384.5</ele>
        <time>2020-07-09T13:55:56Z</time>
      </trkpt>
      <trkpt lat="41.6363530" lon="2.1157130">
        <ele>384.4</ele>
        <time>2020-07-09T13:55:57Z</time>
      </trkpt>
      <trkpt lat="41.6363460" lon="2.1157270">
        <ele>384.3</ele>
        <time>2020-07-09T13:55:58Z</time>
      </trkpt>
      <trkpt lat="41.6363390" lon="2.1157410">
        <ele>384.3</ele>
        <time>2020-07-09T13:55:59Z</time>
      </trkpt>
      <trkpt lat="41.6363320" lon="2.1157550">
        <ele>384.2</ele>
        <time>2020-07-09T13:56:00Z</time>
      </trkpt>
      <trkpt lat="41.6363240" lon="2.1157690">
        <ele>384.1</ele>
        <time>2020-07-09T13:56:01Z</time>
      </trkpt>
      <trkpt lat="41.6363170" lon="2.1157830">
        <ele>384.0</ele>
        <time>2020-07-09T13:56:02Z</time>
      </trkpt>
      <trkpt lat="41.6363090" lon="2.1157980">
        <ele>383.9</ele>
        <time>2020-07-09T13:56:03Z</time>
      </trkpt>
      <trkpt lat="41.6363020" lon="2.1158130">
        <ele>383.9</ele>
        <time>2020-07-09T13:56:04Z</time>
      </trkpt>
      <trkpt lat="41.6362940" lon="2.1158290">
        <ele>383.8</ele>
        <time>2020-07-09T13:56:05Z</time>
      </trkpt>
      <trkpt lat="41.6362870" lon="2.1158450">
        <ele>383.7</ele>
        <time>2020-07-09T13:56:06Z</time>
      </trkpt>
      <trkpt lat="41.6362790" lon="2.1158620">
        <ele>383.6</ele>
        <time>2020-07-09T13:56:07Z</time>
      </trkpt>
      <trkpt lat="41.6362720" lon="2.1158790">
        <ele>383.5</ele>
        <time>2020-07-09T13:56:08Z</time>
      </trkpt>
      <trkpt lat="41.6362640" lon="2.1158960">
        <ele>383.4</ele>
        <time>2020-07-09T13:56:09Z</time>
      </trkpt>
      <trkpt lat="41.6362570" lon="2.1159140">
        <ele>383.3</ele>
        <time>2020-07-09T13:56:10Z</time>
      </trkpt>
      <trkpt lat="41.6362490" lon="2.1159310">
        <ele>383.2</ele>
        <time>2020-07-09T13:56:11Z</time>
      </trkpt>
      <trkpt lat="41.6362410" lon="2.1159480">
        <ele>383.1</ele>
        <time>2020-07-09T13:56:12Z</time>
      </trkpt>
      <trkpt lat="41.6362330" lon="2.1159640">
        <ele>383.0</ele>
        <time>2020-07-09T13:56:13Z</time>
      </trkpt>
      <trkpt lat="41.6362250" lon="2.1159790">
        <ele>382.9</ele>
        <time>2020-07-09T13:56:14Z</time>
      </trkpt>
      <trkpt lat="41.6362160" lon="2.1159940">
        <ele>382.8</ele>
        <time>2020-07-09T13:56:15Z</time>
      </trkpt>
      <trkpt lat="41.6362080" lon="2.1160080">
        <ele>382.7</ele>
        <time>2020-07-09T13:56:16Z</time>
      </trkpt>
      <trkpt lat="41.6361990" lon="2.1160210">
        <ele>382.6</ele>
        <time>2020-07-09T13:56:17Z</time>
      </trkpt>
      <trkpt lat="41.6361900" lon="2.1160330">
        <ele>382.5</ele>
        <time>2020-07-09T13:56:18Z</time>
      </trkpt>
      <trkpt lat="41.6361800" lon="2.1160450">
        <ele>382.4</ele>
        <time>2020-07-09T13:56:19Z</time>
      </trkpt>
      <trkpt lat="41.6361700" lon="2.1160560">
        <ele>382.3</ele>
        <time>2020-07-09T13:56:20Z</time>
      </trkpt>
      <trkpt lat="41.6361600" lon="2.1160670">
        <ele>382.2</ele>
        <time>2020-07-09T13:56:21Z</time>
      </trkpt>
      <trkpt lat="41.6361490" lon="2.1160770">
        <ele>382.1</ele>
        <time>2020-07-09T13:56:22Z</time>
      </trkpt>
      <trkpt lat="41.6361380" lon="2.1160870">
        <ele>382.0</ele>
        <time>2020-07-09T13:56:23Z</time>
      </trkpt>
      <trkpt lat="41.6361270" lon="2.1160970">
        <ele>381.9</ele>
        <time>2020-07-09T13:56:24Z</time>
      </trkpt>
      <trkpt lat="41.6361150" lon="2.1161060">
        <ele>381.8</ele>
        <time>2020-07-09T13:56:25Z</time>
      </trkpt>
      <trkpt lat="41.6361020" lon="2.1161160">
        <ele>381.7</ele>
        <time>2020-07-09T13:56:26Z</time>
      </trkpt>
      <trkpt lat="41.6360900" lon="2.1161250">
        <ele>381.6</ele>
        <time>2020-07-09T13:56:27Z</time>
      </trkpt>
      <trkpt lat="41.6360780" lon="2.1161340">
        <ele>381.5</ele>
        <time>2020-07-09T13:56:28Z</time>
      </trkpt>
      <trkpt lat="41.6360650" lon="2.1161430">
        <ele>381.4</ele>
        <time>2020-07-09T13:56:29Z</time>
      </trkpt>
      <trkpt lat="41.6360530" lon="2.1161520">
        <ele>381.3</ele>
        <time>2020-07-09T13:56:30Z</time>
      </trkpt>
      <trkpt lat="41.6360410" lon="2.1161600">
        <ele>381.2</ele>
        <time>2020-07-09T13:56:31Z</time>
      </trkpt>
      <trkpt lat="41.6360300" lon="2.1161690">
        <ele>381.1</ele>
        <time>2020-07-09T13:56:32Z</time>
      </trkpt>
      <trkpt lat="41.6360200" lon="2.1161780">
        <ele>381.0</ele>
        <time>2020-07-09T13:56:33Z</time>
      </trkpt>
      <trkpt lat="41.6360100" lon="2.1161870">
        <ele>380.9</ele>
        <time>2020-07-09T13:56:34Z</time>
      </trkpt>
      <trkpt lat="41.6360010" lon="2.1161970">
        <ele>380.8</ele>
        <time>2020-07-09T13:56:35Z</time>
      </trkpt>
      <trkpt lat="41.6359930" lon="2.1162060">
        <ele>380.8</ele>
        <time>2020-07-09T13:56:36Z</time>
      </trkpt>
      <trkpt lat="41.6359840" lon="2.1162150">
        <ele>380.7</ele>
        <time>2020-07-09T13:56:37Z</time>
      </trkpt>
      <trkpt lat="41.6359760" lon="2.1162250">
        <ele>380.6</ele>
        <time>2020-07-09T13:56:38Z</time>
      </trkpt>
      <trkpt lat="41.6359680" lon="2.1162340">
        <ele>380.5</ele>
        <time>2020-07-09T13:56:39Z</time>
      </trkpt>
      <trkpt lat="41.6359590" lon="2.1162440">
        <ele>380.4</ele>
        <time>2020-07-09T13:56:40Z</time>
      </trkpt>
      <trkpt lat="41.6359500" lon="2.1162530">
        <ele>380.3</ele>
        <time>2020-07-09T13:56:41Z</time>
      </trkpt>
      <trkpt lat="41.6359400" lon="2.1162630">
        <ele>380.2</ele>
        <time>2020-07-09T13:56:42Z</time>
      </trkpt>
      <trkpt lat="41.6359290" lon="2.1162720">
        <ele>380.1</ele>
        <time>2020-07-09T13:56:43Z</time>
      </trkpt>
      <trkpt lat="41.6359170" lon="2.1162820">
        <ele>380.0</ele>
        <time>2020-07-09T13:56:44Z</time>
      </trkpt>
      <trkpt lat="41.6359050" lon="2.1162920">
        <ele>379.9</ele>
        <time>2020-07-09T13:56:45Z</time>
      </trkpt>
      <trkpt lat="41.6358930" lon="2.1163010">
        <ele>379.8</ele>
        <time>2020-07-09T13:56:46Z</time>
      </trkpt>
      <trkpt lat="41.6358800" lon="2.1163110">
        <ele>379.7</ele>
        <time>2020-07-09T13:56:47Z</time>
      </trkpt>
      <trkpt lat="41.6358670" lon="2.1163200">
        <ele>379.6</ele>
        <time>2020-07-09T13:56:48Z</time>
      </trkpt>
      <trkpt lat="41.6358550" lon="2.1163300">
        <ele>379.4</ele>
        <time>2020-07-09T13:56:49Z</time>
      </trkpt>
      <trkpt lat="41.6358430" lon="2.1163390">
        <ele>379.3</ele>
        <time>2020-07-09T13:56:50Z</time>
      </trkpt>
      <trkpt lat="41.6358310" lon="2.1163480">
        <ele>379.2</ele>
        <time>2020-07-09T13:56:51Z</time>
      </trkpt>
      <trkpt lat="41.6358200" lon="2.1163570">
        <ele>379.1</ele>
        <time>2020-07-09T13:56:52Z</time>
      </trkpt>
      <trkpt lat="41.6358100" lon="2.1163660">
        <ele>378.9</ele>
        <time>2020-07-09T13:56:53Z</time>
      </trkpt>
      <trkpt lat="41.6357980" lon="2.1163730">
        <ele>378.8</ele>
        <time>2020-07-09T13:56:54Z</time>
      </trkpt>
      <trkpt lat="41.6357840" lon="2.1163780">
        <ele>378.7</ele>
        <time>2020-07-09T13:56:55Z</time>
      </trkpt>
      <trkpt lat="41.6357690" lon="2.1163820">
        <ele>378.5</ele>
        <time>2020-07-09T13:56:56Z</time>
      </trkpt>
      <trkpt lat="41.6357500" lon="2.1163830">
        <ele>378.3</ele>
        <time>2020-07-09T13:56:57Z</time>
      </trkpt>
      <trkpt lat="41.6357320" lon="2.1163820">
        <ele>378.1</ele>
        <time>2020-07-09T13:56:58Z</time>
      </trkpt>
      <trkpt lat="41.6357200" lon="2.1163810">
        <ele>378.0</ele>
        <time>2020-07-09T13:56:59Z</time>
      </trkpt>
      <trkpt lat="41.6357140" lon="2.1163780">
        <ele>377.9</ele>
        <time>2020-07-09T13:57:00Z</time>
      </trkpt>
      <trkpt lat="41.6357140" lon="2.1163760">
        <ele>377.9</ele>
        <time>2020-07-09T13:57:01Z</time>
      </trkpt>
      <trkpt lat="41.6357140" lon="2.1163750">
        <ele>377.9</ele>
        <time>2020-07-09T13:57:02Z</time>
      </trkpt>
      <trkpt lat="41.6357140" lon="2.1163730">
        <ele>377.9</ele>
        <time>2020-07-09T13:57:03Z</time>
      </trkpt>
      <trkpt lat="41.6357140" lon="2.1163720">
        <ele>377.9</ele>
        <time>2020-07-09T13:57:04Z</time>
      </trkpt>
      <trkpt lat="41.6357140" lon="2.1163710">
        <ele>377.8</ele>
        <time>2020-07-09T13:57:05Z</time>
      </trkpt>
      <trkpt lat="41.6357140" lon="2.1163710">
        <ele>377.8</ele>
        <time>2020-07-09T13:57:06Z</time>
      </trkpt>
      <trkpt lat="41.6357140" lon="2.1163700">
        <ele>377.8</ele>
        <time>2020-07-09T13:57:07Z</time>
      </trkpt>
      <trkpt lat="41.6357140" lon="2.1163700">
        <ele>377.8</ele>
        <time>2020-07-09T13:57:08Z</time>
      </trkpt>
      <trkpt lat="41.6357140" lon="2.1163700">
        <ele>377.8</ele>
        <time>2020-07-09T13:57:09Z</time>
      </trkpt>
      <trkpt lat="41.6357140" lon="2.1163700">
        <ele>377.8</ele>
        <time>2020-07-09T13:57:10Z</time>
      </trkpt>
      <trkpt lat="41.6357140" lon="2.1163700">
        <ele>377.8</ele>
        <time>2020-07-09T13:57:11Z</time>
      </trkpt>
      <trkpt lat="41.6357140" lon="2.1163700">
        <ele>377.8</ele>
        <time>2020-07-09T13:57:12Z</time>
      </trkpt>
      <trkpt lat="41.6357140" lon="2.1163700">
        <ele>377.8</ele>
        <time>2020-07-09T13:57:13Z</time>
      </trkpt>
      <trkpt lat="41.6357140" lon="2.1163700">
        <ele>377.8</ele>
        <time>2020-07-09T13:57:14Z</time>
      </trkpt>
      <trkpt lat="41.6357140" lon="2.1163700">
        <ele>377.8</ele>
        <time>2020-07-09T13:57:15Z</time>
      </trkpt>
      <trkpt lat="41.6357140" lon="2.1163700">
        <ele>377.8</ele>
        <time>2020-07-09T13:57:16Z</time>
      </trkpt>
      <trkpt lat="41.6357140" lon="2.1163700">
        <ele>377.8</ele>
        <time>2020-07-09T13:57:17Z</time>
      </trkpt>
      <trkpt lat="41.6357140" lon="2.1163700">
        <ele>377.8</ele>
        <time>2020-07-09T13:57:18Z</time>
      </trkpt>
      <trkpt lat="41.6357140" lon="2.1163700">
        <ele>377.8</ele>
        <time>2020-07-09T13:57:19Z</time>
      </trkpt>
      <trkpt lat="41.6357140" lon="2.1163700">
        <ele>377.8</ele>
        <time>2020-07-09T13:57:20Z</time>
      </trkpt>
      <trkpt lat="41.6357140" lon="2.1163700">
        <ele>377.8</ele>
        <time>2020-07-09T13:57:21Z</time>
      </trkpt>
      <trkpt lat="41.6357140" lon="2.1163700">
        <ele>377.8</ele>
        <time>2020-07-09T13:57:22Z</time>
      </trkpt>
      <trkpt lat="41.6357140" lon="2.1163700">
        <ele>377.8</ele>
        <time>2020-07-09T13:57:23Z</time>
      </trkpt>
      <trkpt lat="41.6357140" lon="2.1163700">
        <ele>377.8</ele>
        <time>2020-07-09T13:57:24Z</time>
      </trkpt>
      <trkpt lat="41.6357140" lon="2.1163700">
        <ele>377.8</ele>
        <time>2020-07-09T13:57:25Z</time>
      </trkpt>
      <trkpt lat="41.6357140" lon="2.1163700">
        <ele>377.8</ele>
        <time>2020-07-09T13:57:26Z</time>
      </trkpt>
      <trkpt lat="41.6357140" lon="2.1163700">
        <ele>377.8</ele>
        <time>2020-07-09T13:57:27Z</time>
      </trkpt>
      <trkpt lat="41.6357140" lon="2.1163700">
        <ele>377.8</ele>
        <time>2020-07-09T13:57:28Z</time>
      </trkpt>
      <trkpt lat="41.6357140" lon="2.1163700">
        <ele>377.8</ele>
        <time>2020-07-09T13:57:29Z</time>
      </trkpt>
      <trkpt lat="41.6357140" lon="2.1163700">
        <ele>377.8</ele>
        <time>2020-07-09T13:57:30Z</time>
      </trkpt>
      <trkpt lat="41.6357140" lon="2.1163690">
        <ele>377.8</ele>
        <time>2020-07-09T13:57:31Z</time>
      </trkpt>
      <trkpt lat="41.6357140" lon="2.1163690">
        <ele>377.8</ele>
        <time>2020-07-09T13:57:32Z</time>
      </trkpt>
      <trkpt lat="41.6357130" lon="2.1163690">
        <ele>377.8</ele>
        <time>2020-07-09T13:57:33Z</time>
      </trkpt>
      <trkpt lat="41.6357120" lon="2.1163680">
        <ele>377.8</ele>
        <time>2020-07-09T13:57:34Z</time>
      </trkpt>
      <trkpt lat="41.6357100" lon="2.1163670">
        <ele>377.8</ele>
        <time>2020-07-09T13:57:35Z</time>
      </trkpt>
      <trkpt lat="41.6357080" lon="2.1163660">
        <ele>377.8</ele>
        <time>2020-07-09T13:57:36Z</time>
      </trkpt>
      <trkpt lat="41.6357050" lon="2.1163650">
        <ele>377.7</ele>
        <time>2020-07-09T13:57:37Z</time>
      </trkpt>
      <trkpt lat="41.6357010" lon="2.1163630">
        <ele>377.7</ele>
        <time>2020-07-09T13:57:38Z</time>
      </trkpt>
      <trkpt lat="41.6356960" lon="2.1163610">
        <ele>377.6</ele>
        <time>2020-07-09T13:57:39Z</time>
      </trkpt>
      <trkpt lat="41.6356900" lon="2.1163580">
        <ele>377.5</ele>
        <time>2020-07-09T13:57:40Z</time>
      </trkpt>
      <trkpt lat="41.6356830" lon="2.1163550">
        <ele>377.5</ele>
        <time>2020-07-09T13:57:41Z</time>
      </trkpt>
      <trkpt lat="41.6356750" lon="2.1163530">
        <ele>377.4</ele>
        <time>2020-07-09T13:57:42Z</time>
      </trkpt>
      <trkpt lat="41.6356650" lon="2.1163500">
        <ele>377.2</ele>
        <time>2020-07-09T13:57:43Z</time>
      </trkpt>
      <trkpt lat="41.6356540" lon="2.1163470">
        <ele>377.1</ele>
        <time>2020-07-09T13:57:44Z</time>
      </trkpt>
      <trkpt lat="41.6356420" lon="2.1163440">
        <ele>377.0</ele>
        <time>2020-07-09T13:57:45Z</time>
      </trkpt>
      <trkpt lat="41.6356300" lon="2.1163410">
        <ele>376.8</ele>
        <time>2020-07-09T13:57:46Z</time>
      </trkpt>
      <trkpt lat="41.6356160" lon="2.1163370">
        <ele>376.7</ele>
        <time>2020-07-09T13:57:47Z</time>
      </trkpt>
      <trkpt lat="41.6356030" lon="2.1163320">
        <ele>376.5</ele>
        <time>2020-07-09T13:57:48Z</time>
      </trkpt>
      <trkpt lat="41.6355900" lon="2.1163270">
        <ele>376.4</ele>
        <time>2020-07-09T13:57:49Z</time>
      </trkpt>
      <trkpt lat="41.6355760" lon="2.1163210">
        <ele>376.2</ele>
        <time>2020-07-09T13:57:50Z</time>
      </trkpt>
      <trkpt lat="41.6355630" lon="2.1163140">
        <ele>376.1</ele>
        <time>2020-07-09T13:57:51Z</time>
      </trkpt>
      <trkpt lat="41.6355500" lon="2.1163060">
        <ele>375.9</ele>
        <time>2020-07-09T13:57:52Z</time>
      </trkpt>
      <trkpt lat="41.6355370" lon="2.1162980">
        <ele>375.7</ele>
        <time>2020-07-09T13:57:53Z</time>
      </trkpt>
      <trkpt lat="41.6355240" lon="2.1162890">
        <ele>375.6</ele>
        <time>2020-07-09T13:57:54Z</time>
      </trkpt>
      <trkpt lat="41.6355110" lon="2.1162790">
        <ele>375.4</ele>
        <time>2020-07-09T13:57:55Z</time>
      </trkpt>
      <trkpt lat="41.6354980" lon="2.1162690">
        <ele>375.2</ele>
        <time>2020-07-09T13:57:56Z</time>
      </trkpt>
      <trkpt lat="41.6354860" lon="2.1162590">
        <ele>375.1</ele>
        <time>2020-07-09T13:57:57Z</time>
      </trkpt>
      <trkpt lat="41.6354740" lon="2.1162470">
        <ele>374.9</ele>
        <time>2020-07-09T13:57:58Z</time>
      </trkpt>
      <trkpt lat="41.6354630" lon="2.1162360">
        <ele>374.7</ele>
        <time>2020-07-09T13:57:59Z</time>
      </trkpt>
      <trkpt lat="41.6354520" lon="2.1162230">
        <ele>374.6</ele>
        <time>2020-07-09T13:58:00Z</time>
      </trkpt>
      <trkpt lat="41.6354410" lon="2.1162110">
        <ele>374.4</ele>
        <time>2020-07-09T13:58:01Z</time>
      </trkpt>
      <trkpt lat="41.6354310" lon="2.1161980">
        <ele>374.3</ele>
        <time>2020-07-09T13:58:02Z</time>
      </trkpt>
      <trkpt lat="41.6354210" lon="2.1161840">
        <ele>374.1</ele>
        <time>2020-07-09T13:58:03Z</time>
      </trkpt>
      <trkpt lat="41.6354120" lon="2.1161700">
        <ele>373.9</ele>
        <time>2020-07-09T13:58:04Z</time>
      </trkpt>
      <trkpt lat="41.6354040" lon="2.1161560">
        <ele>373.8</ele>
        <time>2020-07-09T13:58:05Z</time>
      </trkpt>
      <trkpt lat="41.6353960" lon="2.1161420">
        <ele>373.6</ele>
        <time>2020-07-09T13:58:06Z</time>
      </trkpt>
      <trkpt lat="41.6353890" lon="2.1161270">
        <ele>373.5</ele>
        <time>2020-07-09T13:58:07Z</time>
      </trkpt>
      <trkpt lat="41.6353820" lon="2.1161120">
        <ele>373.3</ele>
        <time>2020-07-09T13:58:08Z</time>
      </trkpt>
      <trkpt lat="41.6353750" lon="2.1160960">
        <ele>373.2</ele>
        <time>2020-07-09T13:58:09Z</time>
      </trkpt>
      <trkpt lat="41.6353690" lon="2.1160810">
        <ele>373.0</ele>
        <time>2020-07-09T13:58:10Z</time>
      </trkpt>
      <trkpt lat="41.6353620" lon="2.1160650">
        <ele>372.9</ele>
        <time>2020-07-09T13:58:11Z</time>
      </trkpt>
      <trkpt lat="41.6353550" lon="2.1160490">
        <ele>372.7</ele>
        <time>2020-07-09T13:58:12Z</time>
      </trkpt>
      <trkpt lat="41.6353480" lon="2.1160330">
        <ele>372.6</ele>
        <time>2020-07-09T13:58:13Z</time>
      </trkpt>
      <trkpt lat="41.6353410" lon="2.1160170">
        <ele>372.4</ele>
        <time>2020-07-09T13:58:14Z</time>
      </trkpt>
      <trkpt lat="41.6353330" lon="2.1160010">
        <ele>372.3</ele>
        <time>2020-07-09T13:58:15Z</time>
      </trkpt>
      <trkpt lat="41.6353250" lon="2.1159850">
        <ele>372.1</ele>
        <time>2020-07-09T13:58:16Z</time>
      </trkpt>
      <trkpt lat="41.6353160" lon="2.1159690">
        <ele>372.0</ele>
        <time>2020-07-09T13:58:17Z</time>
      </trkpt>
      <trkpt lat="41.6353070" lon="2.1159520">
        <ele>371.9</ele>
        <time>2020-07-09T13:58:18Z</time>
      </trkpt>
      <trkpt lat="41.6352970" lon="2.1159370">
        <ele>371.7</ele>
        <time>2020-07-09T13:58:19Z</time>
      </trkpt>
      <trkpt lat="41.6352870" lon="2.1159210">
        <ele>371.6</ele>
        <time>2020-07-09T13:58:20Z</time>
      </trkpt>
      <trkpt lat="41.6352780" lon="2.1159060">
        <ele>371.5</ele>
        <time>2020-07-09T13:58:21Z</time>
      </trkpt>
      <trkpt lat="41.6352680" lon="2.1158910">
        <ele>371.4</ele>
        <time>2020-07-09T13:58:22Z</time>
      </trkpt>
      <trkpt lat="41.6352590" lon="2.1158760">
        <ele>371.3</ele>
        <time>2020-07-09T13:58:23Z</time>
      </trkpt>
      <trkpt lat="41.6352500" lon="2.1158620">
        <ele>371.2</ele>
        <time>2020-07-09T13:58:24Z</time>
      </trkpt>
      <trkpt lat="41.6352420" lon="2.1158480">
        <ele>371.1</ele>
        <time>2020-07-09T13:58:25Z</time>
      </trkpt>
      <trkpt lat="41.6352340" lon="2.1158350">
        <ele>371.1</ele>
        <time>2020-07-09T13:58:26Z</time>
      </trkpt>
      <trkpt lat="41.6352260" lon="2.1158220">
        <ele>371.0</ele>
        <time>2020-07-09T13:58:27Z</time>
      </trkpt>
      <trkpt lat="41.6352180" lon="2.1158110">
        <ele>370.9</ele>
        <time>2020-07-09T13:58:28Z</time>
      </trkpt>
      <trkpt lat="41.6352100" lon="2.1158000">
        <ele>370.9</ele>
        <time>2020-07-09T13:58:29Z</time>
      </trkpt>
      <trkpt lat="41.6352020" lon="2.1157890">
        <ele>370.8</ele>
        <time>2020-07-09T13:58:30Z</time>
      </trkpt>
      <trkpt lat="41.6351940" lon="2.1157800">
        <ele>370.8</ele>
        <time>2020-07-09T13:58:31Z</time>
      </trkpt>
      <trkpt lat="41.6351850" lon="2.1157710">
        <ele>370.7</ele>
        <time>2020-07-09T13:58:32Z</time>
      </trkpt>
      <trkpt lat="41.6351750" lon="2.1157640">
        <ele>370.7</ele>
        <time>2020-07-09T13:58:33Z</time>
      </trkpt>
      <trkpt lat="41.6351640" lon="2.1157570">
        <ele>370.6</ele>
        <time>2020-07-09T13:58:34Z</time>
      </trkpt>
      <trkpt lat="41.6351410" lon="2.1157470">
        <ele>370.5</ele>
        <time>2020-07-09T13:58:35Z</time>
      </trkpt>
      <trkpt lat="41.6351300" lon="2.1157440">
        <ele>370.5</ele>
        <time>2020-07-09T13:58:36Z</time>
      </trkpt>
      <trkpt lat="41.6351180" lon="2.1157400">
        <ele>370.4</ele>
        <time>2020-07-09T13:58:37Z</time>
      </trkpt>
      <trkpt lat="41.6351060" lon="2.1157360">
        <ele>370.4</ele>
        <time>2020-07-09T13:58:38Z</time>
      </trkpt>
      <trkpt lat="41.6350940" lon="2.1157320">
        <ele>370.3</ele>
        <time>2020-07-09T13:58:39Z</time>
      </trkpt>
      <trkpt lat="41.6350830" lon="2.1157290">
        <ele>370.3</ele>
        <time>2020-07-09T13:58:40Z</time>
      </trkpt>
      <trkpt lat="41.6350710" lon="2.1157250">
        <ele>370.2</ele>
        <time>2020-07-09T13:58:41Z</time>
      </trkpt>
      <trkpt lat="41.6350590" lon="2.1157210">
        <ele>370.2</ele>
        <time>2020-07-09T13:58:42Z</time>
      </trkpt>
      <trkpt lat="41.6350470" lon="2.1157170">
        <ele>370.1</ele>
        <time>2020-07-09T13:58:43Z</time>
      </trkpt>
      <trkpt lat="41.6350360" lon="2.1157140">
        <ele>370.1</ele>
        <time>2020-07-09T13:58:44Z</time>
      </trkpt>
      <trkpt lat="41.6350240" lon="2.1157100">
        <ele>370.0</ele>
        <time>2020-07-09T13:58:45Z</time>
      </trkpt>
      <trkpt lat="41.6350110" lon="2.1157050">
        <ele>370.0</ele>
        <time>2020-07-09T13:58:46Z</time>
      </trkpt>
      <trkpt lat="41.6349990" lon="2.1157000">
        <ele>369.9</ele>
        <time>2020-07-09T13:58:47Z</time>
      </trkpt>
      <trkpt lat="41.6349860" lon="2.1156950">
        <ele>369.9</ele>
        <time>2020-07-09T13:58:48Z</time>
      </trkpt>
      <trkpt lat="41.6349730" lon="2.1156890">
        <ele>369.8</ele>
        <time>2020-07-09T13:58:49Z</time>
      </trkpt>
      <trkpt lat="41.6349610" lon="2.1156840">
        <ele>369.7</ele>
        <time>2020-07-09T13:58:50Z</time>
      </trkpt>
      <trkpt lat="41.6349480" lon="2.1156780">
        <ele>369.7</ele>
        <time>2020-07-09T13:58:51Z</time>
      </trkpt>
      <trkpt lat="41.6349340" lon="2.1156720">
        <ele>369.6</ele>
        <time>2020-07-09T13:58:52Z</time>
      </trkpt>
      <trkpt lat="41.6349210" lon="2.1156660">
        <ele>369.6</ele>
        <time>2020-07-09T13:58:53Z</time>
      </trkpt>
      <trkpt lat="41.6349070" lon="2.1156590">
        <ele>369.5</ele>
        <time>2020-07-09T13:58:54Z</time>
      </trkpt>
      <trkpt lat="41.6348940" lon="2.1156530">
        <ele>369.5</ele>
        <time>2020-07-09T13:58:55Z</time>
      </trkpt>
      <trkpt lat="41.6348800" lon="2.1156460">
        <ele>369.4</ele>
        <time>2020-07-09T13:58:56Z</time>
      </trkpt>
      <trkpt lat="41.6348660" lon="2.1156380">
        <ele>369.4</ele>
        <time>2020-07-09T13:58:57Z</time>
      </trkpt>
      <trkpt lat="41.6348520" lon="2.1156300">
        <ele>369.3</ele>
        <time>2020-07-09T13:58:58Z</time>
      </trkpt>
      <trkpt lat="41.6348390" lon="2.1156220">
        <ele>369.3</ele>
        <time>2020-07-09T13:58:59Z</time>
      </trkpt>
      <trkpt lat="41.6348260" lon="2.1156120">
        <ele>369.2</ele>
        <time>2020-07-09T13:59:00Z</time>
      </trkpt>
      <trkpt lat="41.6348130" lon="2.1156020">
        <ele>369.1</ele>
        <time>2020-07-09T13:59:01Z</time>
      </trkpt>
      <trkpt lat="41.6348000" lon="2.1155910">
        <ele>369.1</ele>
        <time>2020-07-09T13:59:02Z</time>
      </trkpt>
      <trkpt lat="41.6347880" lon="2.1155800">
        <ele>369.0</ele>
        <time>2020-07-09T13:59:03Z</time>
      </trkpt>
      <trkpt lat="41.6347760" lon="2.1155680">
        <ele>369.0</ele>
        <time>2020-07-09T13:59:04Z</time>
      </trkpt>
      <trkpt lat="41.6347640" lon="2.1155550">
        <ele>368.9</ele>
        <time>2020-07-09T13:59:05Z</time>
      </trkpt>
      <trkpt lat="41.6347520" lon="2.1155420">
        <ele>368.8</ele>
        <time>2020-07-09T13:59:06Z</time>
      </trkpt>
      <trkpt lat="41.6347410" lon="2.1155280">
        <ele>368.8</ele>
        <time>2020-07-09T13:59:07Z</time>
      </trkpt>
      <trkpt lat="41.6347300" lon="2.1155150">
        <ele>368.7</ele>
        <time>2020-07-09T13:59:08Z</time>
      </trkpt>
      <trkpt lat="41.6347180" lon="2.1155010">
        <ele>368.6</ele>
        <time>2020-07-09T13:59:09Z</time>
      </trkpt>
      <trkpt lat="41.6347070" lon="2.1154870">
        <ele>368.6</ele>
        <time>2020-07-09T13:59:10Z</time>
      </trkpt>
      <trkpt lat="41.6346960" lon="2.1154730">
        <ele>368.5</ele>
        <time>2020-07-09T13:59:11Z</time>
      </trkpt>
      <trkpt lat="41.6346850" lon="2.1154600">
        <ele>368.4</ele>
        <time>2020-07-09T13:59:12Z</time>
      </trkpt>
      <trkpt lat="41.6346740" lon="2.1154460">
        <ele>368.4</ele>
        <time>2020-07-09T13:59:13Z</time>
      </trkpt>
      <trkpt lat="41.6346630" lon="2.1154340">
        <ele>368.3</ele>
        <time>2020-07-09T13:59:14Z</time>
      </trkpt>
      <trkpt lat="41.6346520" lon="2.1154210">
        <ele>368.3</ele>
        <time>2020-07-09T13:59:15Z</time>
      </trkpt>
      <trkpt lat="41.6346410" lon="2.1154100">
        <ele>368.2</ele>
        <time>2020-07-09T13:59:16Z</time>
      </trkpt>
      <trkpt lat="41.6346290" lon="2.1153990">
        <ele>368.1</ele>
        <time>2020-07-09T13:59:17Z</time>
      </trkpt>
      <trkpt lat="41.6346170" lon="2.1153890">
        <ele>368.1</ele>
        <time>2020-07-09T13:59:18Z</time>
      </trkpt>
      <trkpt lat="41.6346050" lon="2.1153790">
        <ele>368.0</ele>
        <time>2020-07-09T13:59:19Z</time>
      </trkpt>
      <trkpt lat="41.6345930" lon="2.1153710">
        <ele>367.9</ele>
        <time>2020-07-09T13:59:20Z</time>
      </trkpt>
      <trkpt lat="41.6345800" lon="2.1153640">
        <ele>367.9</ele>
        <time>2020-07-09T13:59:21Z</time>
      </trkpt>
      <trkpt lat="41.6345680" lon="2.1153580">
        <ele>367.8</ele>
        <time>2020-07-09T13:59:22Z</time>
      </trkpt>
      <trkpt lat="41.6345550" lon="2.1153540">
        <ele>367.7</ele>
        <time>2020-07-09T13:59:23Z</time>
      </trkpt>
      <trkpt lat="41.6345430" lon="2.1153520">
        <ele>367.7</ele>
        <time>2020-07-09T13:59:24Z</time>
      </trkpt>
      <trkpt lat="41.6345300" lon="2.1153510">
        <ele>367.6</ele>
        <time>2020-07-09T13:59:25Z</time>
      </trkpt>
      <trkpt lat="41.6345180" lon="2.1153520">
        <ele>367.5</ele>
        <time>2020-07-09T13:59:26Z</time>
      </trkpt>
      <trkpt lat="41.6345060" lon="2.1153550">
        <ele>367.5</ele>
        <time>2020-07-09T13:59:27Z</time>
      </trkpt>
      <trkpt lat="41.6344950" lon="2.1153610">
        <ele>367.4</ele>
        <time>2020-07-09T13:59:28Z</time>
      </trkpt>
      <trkpt lat="41.6344840" lon="2.1153680">
        <ele>367.3</ele>
        <time>2020-07-09T13:59:29Z</time>
      </trkpt>
      <trkpt lat="41.6344730" lon="2.1153790">
        <ele>367.2</ele>
        <time>2020-07-09T13:59:30Z</time>
      </trkpt>
      <trkpt lat="41.6344640" lon="2.1153910">
        <ele>367.1</ele>
        <time>2020-07-09T13:59:31Z</time>
      </trkpt>
      <trkpt lat="41.6344540" lon="2.1154050">
        <ele>367.0</ele>
        <time>2020-07-09T13:59:32Z</time>
      </trkpt>
      <trkpt lat="41.6344460" lon="2.1154210">
        <ele>367.0</ele>
        <time>2020-07-09T13:59:33Z</time>
      </trkpt>
      <trkpt lat="41.6344390" lon="2.1154380">
        <ele>366.9</ele>
        <time>2020-07-09T13:59:34Z</time>
      </trkpt>
      <trkpt lat="41.6344320" lon="2.1154570">
        <ele>366.8</ele>
        <time>2020-07-09T13:59:35Z</time>
      </trkpt>
      <trkpt lat="41.6344260" lon="2.1154750">
        <ele>366.7</ele>
        <time>2020-07-09T13:59:36Z</time>
      </trkpt>
      <trkpt lat="41.6344210" lon="2.1154940">
        <ele>366.6</ele>
        <time>2020-07-09T13:59:37Z</time>
      </trkpt>
      <trkpt lat="41.6344170" lon="2.1155130">
        <ele>366.5</ele>
        <time>2020-07-09T13:59:38Z</time>
      </trkpt>
      <trkpt lat="41.6344140" lon="2.1155320">
        <ele>366.4</ele>
        <time>2020-07-09T13:59:39Z</time>
      </trkpt>
      <trkpt lat="41.6344120" lon="2.1155510">
        <ele>366.3</ele>
        <time>2020-07-09T13:59:40Z</time>
      </trkpt>
      <trkpt lat="41.6344100" lon="2.1155690">
        <ele>366.2</ele>
        <time>2020-07-09T13:59:41Z</time>
      </trkpt>
      <trkpt lat="41.6344100" lon="2.1155870">
        <ele>366.1</ele>
        <time>2020-07-09T13:59:42Z</time>
      </trkpt>
      <trkpt lat="41.6344100" lon="2.1156050">
        <ele>366.0</ele>
        <time>2020-07-09T13:59:43Z</time>
      </trkpt>
      <trkpt lat="41.6344110" lon="2.1156230">
        <ele>366.0</ele>
        <time>2020-07-09T13:59:44Z</time>
      </trkpt>
      <trkpt lat="41.6344120" lon="2.1156400">
        <ele>365.9</ele>
        <time>2020-07-09T13:59:45Z</time>
      </trkpt>
      <trkpt lat="41.6344140" lon="2.1156580">
        <ele>365.8</ele>
        <time>2020-07-09T13:59:46Z</time>
      </trkpt>
      <trkpt lat="41.6344160" lon="2.1156760">
        <ele>365.7</ele>
        <time>2020-07-09T13:59:47Z</time>
      </trkpt>
      <trkpt lat="41.6344180" lon="2.1156930">
        <ele>365.6</ele>
        <time>2020-07-09T13:59:48Z</time>
      </trkpt>
      <trkpt lat="41.6344210" lon="2.1157110">
        <ele>365.5</ele>
        <time>2020-07-09T13:59:49Z</time>
      </trkpt>
      <trkpt lat="41.6344240" lon="2.1157280">
        <ele>365.5</ele>
        <time>2020-07-09T13:59:50Z</time>
      </trkpt>
      <trkpt lat="41.6344260" lon="2.1157460">
        <ele>365.4</ele>
        <time>2020-07-09T13:59:51Z</time>
      </trkpt>
      <trkpt lat="41.6344290" lon="2.1157640">
        <ele>365.3</ele>
        <time>2020-07-09T13:59:52Z</time>
      </trkpt>
      <trkpt lat="41.6344320" lon="2.1157830">
        <ele>365.2</ele>
        <time>2020-07-09T13:59:53Z</time>
      </trkpt>
      <trkpt lat="41.6344340" lon="2.1158010">
        <ele>365.1</ele>
        <time>2020-07-09T13:59:54Z</time>
      </trkpt>
      <trkpt lat="41.6344360" lon="2.1158200">
        <ele>365.0</ele>
        <time>2020-07-09T13:59:55Z</time>
      </trkpt>
      <trkpt lat="41.6344380" lon="2.1158390">
        <ele>364.9</ele>
        <time>2020-07-09T13:59:56Z</time>
      </trkpt>
      <trkpt lat="41.6344390" lon="2.1158580">
        <ele>364.9</ele>
        <time>2020-07-09T13:59:57Z</time>
      </trkpt>
      <trkpt lat="41.6344400" lon="2.1158770">
        <ele>364.8</ele>
        <time>2020-07-09T13:59:58Z</time>
      </trkpt>
      <trkpt lat="41.6344400" lon="2.1158970">
        <ele>364.7</ele>
        <time>2020-07-09T13:59:59Z</time>
      </trkpt>
      <trkpt lat="41.6344400" lon="2.1159170">
        <ele>364.6</ele>
        <time>2020-07-09T14:00:00Z</time>
      </trkpt>
      <trkpt lat="41.6344400" lon="2.1159370">
        <ele>364.5</ele>
        <time>2020-07-09T14:00:01Z</time>
      </trkpt>
      <trkpt lat="41.6344400" lon="2.1159570">
        <ele>364.5</ele>
        <time>2020-07-09T14:00:02Z</time>
      </trkpt>
      <trkpt lat="41.6344390" lon="2.1159760">
        <ele>364.4</ele>
        <time>2020-07-09T14:00:03Z</time>
      </trkpt>
      <trkpt lat="41.6344380" lon="2.1159960">
        <ele>364.3</ele>
        <time>2020-07-09T14:00:04Z</time>
      </trkpt>
      <trkpt lat="41.6344370" lon="2.1160150">
        <ele>364.2</ele>
        <time>2020-07-09T14:00:05Z</time>
      </trkpt>
      <trkpt lat="41.6344350" lon="2.1160340">
        <ele>364.1</ele>
        <time>2020-07-09T14:00:06Z</time>
      </trkpt>
      <trkpt lat="41.6344330" lon="2.1160520">
        <ele>364.1</ele>
        <time>2020-07-09T14:00:07Z</time>
      </trkpt>
      <trkpt lat="41.6344320" lon="2.1160700">
        <ele>364.0</ele>
        <time>2020-07-09T14:00:08Z</time>
      </trkpt>
      <trkpt lat="41.6344300" lon="2.1160880">
        <ele>363.9</ele>
        <time>2020-07-09T14:00:09Z</time>
      </trkpt>
      <trkpt lat="41.6344280" lon="2.1161050">
        <ele>363.8</ele>
        <time>2020-07-09T14:00:10Z</time>
      </trkpt>
      <trkpt lat="41.6344260" lon="2.1161230">
        <ele>363.8</ele>
        <time>2020-07-09T14:00:11Z</time>
      </trkpt>
      <trkpt lat="41.6344240" lon="2.1161410">
        <ele>363.7</ele>
        <time>2020-07-09T14:00:12Z</time>
      </trkpt>
      <trkpt lat="41.6344220" lon="2.1161590">
        <ele>363.6</ele>
        <time>2020-07-09T14:00:13Z</time>
      </trkpt>
      <trkpt lat="41.6344200" lon="2.1161780">
        <ele>363.5</ele>
        <time>2020-07-09T14:00:14Z</time>
      </trkpt>
      <trkpt lat="41.6344190" lon="2.1161980">
        <ele>363.4</ele>
        <time>2020-07-09T14:00:15Z</time>
      </trkpt>
      <trkpt lat="41.6344170" lon="2.1162180">
        <ele>363.3</ele>
        <time>2020-07-09T14:00:16Z</time>
      </trkpt>
      <trkpt lat="41.6344160" lon="2.1162390">
        <ele>363.2</ele>
        <time>2020-07-09T14:00:17Z</time>
      </trkpt>
      <trkpt lat="41.6344140" lon="2.1162600">
        <ele>363.1</ele>
        <time>2020-07-09T14:00:18Z</time>
      </trkpt>
      <trkpt lat="41.6344120" lon="2.1162810">
        <ele>363.0</ele>
        <time>2020-07-09T14:00:19Z</time>
      </trkpt>
      <trkpt lat="41.6344100" lon="2.1163030">
        <ele>362.9</ele>
        <time>2020-07-09T14:00:20Z</time>
      </trkpt>
      <trkpt lat="41.6344080" lon="2.1163240">
        <ele>362.8</ele>
        <time>2020-07-09T14:00:21Z</time>
      </trkpt>
      <trkpt lat="41.6344050" lon="2.1163440">
        <ele>362.7</ele>
        <time>2020-07-09T14:00:22Z</time>
      </trkpt>
      <trkpt lat="41.6344010" lon="2.1163640">
        <ele>362.6</ele>
        <time>2020-07-09T14:00:23Z</time>
      </trkpt>
      <trkpt lat="41.6343970" lon="2.1163830">
        <ele>362.5</ele>
        <time>2020-07-09T14:00:24Z</time>
      </trkpt>
      <trkpt lat="41.6343910" lon="2.1164020">
        <ele>362.4</ele>
        <time>2020-07-09T14:00:25Z</time>
      </trkpt>
      <trkpt lat="41.6343850" lon="2.1164190">
        <ele>362.3</ele>
        <time>2020-07-09T14:00:26Z</time>
      </trkpt>
      <trkpt lat="41.6343790" lon="2.1164350">
        <ele>362.2</ele>
        <time>2020-07-09T14:00:27Z</time>
      </trkpt>
      <trkpt lat="41.6343710" lon="2.1164500">
        <ele>362.1</ele>
        <time>2020-07-09T14:00:28Z</time>
      </trkpt>
      <trkpt lat="41.6343630" lon="2.1164650">
        <ele>362.1</ele>
        <time>2020-07-09T14:00:29Z</time>
      </trkpt>
      <trkpt lat="41.6343550" lon="2.1164800">
        <ele>362.0</ele>
        <time>2020-07-09T14:00:30Z</time>
      </trkpt>
      <trkpt lat="41.6343460" lon="2.1164940">
        <ele>361.9</ele>
        <time>2020-07-09T14:00:31Z</time>
      </trkpt>
      <trkpt lat="41.6343370" lon="2.1165070">
        <ele>361.8</ele>
        <time>2020-07-09T14:00:32Z</time>
      </trkpt>
      <trkpt lat="41.6343280" lon="2.1165210">
        <ele>361.7</ele>
        <time>2020-07-09T14:00:33Z</time>
      </trkpt>
      <trkpt lat="41.6343190" lon="2.1165340">
        <ele>361.6</ele>
        <time>2020-07-09T14:00:34Z</time>
      </trkpt>
      <trkpt lat="41.6343090" lon="2.1165480">
        <ele>361.5</ele>
        <time>2020-07-09T14:00:35Z</time>
      </trkpt>
      <trkpt lat="41.6342990" lon="2.1165610">
        <ele>361.4</ele>
        <time>2020-07-09T14:00:36Z</time>
      </trkpt>
      <trkpt lat="41.6342890" lon="2.1165740">
        <ele>361.3</ele>
        <time>2020-07-09T14:00:37Z</time>
      </trkpt>
      <trkpt lat="41.6342790" lon="2.1165870">
        <ele>361.2</ele>
        <time>2020-07-09T14:00:38Z</time>
      </trkpt>
      <trkpt lat="41.6342690" lon="2.1166000">
        <ele>361.1</ele>
        <time>2020-07-09T14:00:39Z</time>
      </trkpt>
      <trkpt lat="41.6342580" lon="2.1166120">
        <ele>361.0</ele>
        <time>2020-07-09T14:00:40Z</time>
      </trkpt>
      <trkpt lat="41.6342480" lon="2.1166250">
        <ele>360.9</ele>
        <time>2020-07-09T14:00:41Z</time>
      </trkpt>
      <trkpt lat="41.6342370" lon="2.1166370">
        <ele>360.8</ele>
        <time>2020-07-09T14:00:42Z</time>
      </trkpt>
      <trkpt lat="41.6342270" lon="2.1166490">
        <ele>360.7</ele>
        <time>2020-07-09T14:00:43Z</time>
      </trkpt>
      <trkpt lat="41.6342160" lon="2.1166610">
        <ele>360.6</ele>
        <time>2020-07-09T14:00:44Z</time>
      </trkpt>
      <trkpt lat="41.6342050" lon="2.1166730">
        <ele>360.6</ele>
        <time>2020-07-09T14:00:45Z</time>
      </trkpt>
      <trkpt lat="41.6341940" lon="2.1166850">
        <ele>360.5</ele>
        <time>2020-07-09T14:00:46Z</time>
      </trkpt>
      <trkpt lat="41.6341830" lon="2.1166960">
        <ele>360.4</ele>
        <time>2020-07-09T14:00:47Z</time>
      </trkpt>
      <trkpt lat="41.6341720" lon="2.1167080">
        <ele>360.3</ele>
        <time>2020-07-09T14:00:48Z</time>
      </trkpt>
      <trkpt lat="41.6341610" lon="2.1167190">
        <ele>360.2</ele>
        <time>2020-07-09T14:00:49Z</time>
      </trkpt>
      <trkpt lat="41.6341500" lon="2.1167310">
        <ele>360.1</ele>
        <time>2020-07-09T14:00:50Z</time>
      </trkpt>
      <trkpt lat="41.6341390" lon="2.1167420">
        <ele>360.0</ele>
        <time>2020-07-09T14:00:51Z</time>
      </trkpt>
      <trkpt lat="41.6341280" lon="2.1167540">
        <ele>359.9</ele>
        <time>2020-07-09T14:00:52Z</time>
      </trkpt>
      <trkpt lat="41.6341170" lon="2.1167650">
        <ele>359.8</ele>
        <time>2020-07-09T14:00:53Z</time>
      </trkpt>
      <trkpt lat="41.6341060" lon="2.1167770">
        <ele>359.7</ele>
        <time>2020-07-09T14:00:54Z</time>
      </trkpt>
      <trkpt lat="41.6340950" lon="2.1167890">
        <ele>359.6</ele>
        <time>2020-07-09T14:00:55Z</time>
      </trkpt>
      <trkpt lat="41.6340840" lon="2.1168000">
        <ele>359.6</ele>
        <time>2020-07-09T14:00:56Z</time>
      </trkpt>
      <trkpt lat="41.6340740" lon="2.1168120">
        <ele>359.5</ele>
        <time>2020-07-09T14:00:57Z</time>
      </trkpt>
      <trkpt lat="41.6340630" lon="2.1168240">
        <ele>359.4</ele>
        <time>2020-07-09T14:00:58Z</time>
      </trkpt>
      <trkpt lat="41.6340520" lon="2.1168350">
        <ele>359.3</ele>
        <time>2020-07-09T14:00:59Z</time>
      </trkpt>
      <trkpt lat="41.6340420" lon="2.1168470">
        <ele>359.2</ele>
        <time>2020-07-09T14:01:00Z</time>
      </trkpt>
      <trkpt lat="41.6340310" lon="2.1168580">
        <ele>359.1</ele>
        <time>2020-07-09T14:01:01Z</time>
      </trkpt>
      <trkpt lat="41.6340210" lon="2.1168690">
        <ele>359.0</ele>
        <time>2020-07-09T14:01:02Z</time>
      </trkpt>
      <trkpt lat="41.6340110" lon="2.1168800">
        <ele>358.9</ele>
        <time>2020-07-09T14:01:03Z</time>
      </trkpt>
      <trkpt lat="41.6340000" lon="2.1168910">
        <ele>358.8</ele>
        <time>2020-07-09T14:01:04Z</time>
      </trkpt>
      <trkpt lat="41.6339900" lon="2.1169020">
        <ele>358.7</ele>
        <time>2020-07-09T14:01:05Z</time>
      </trkpt>
      <trkpt lat="41.6339800" lon="2.1169120">
        <ele>358.6</ele>
        <time>2020-07-09T14:01:06Z</time>
      </trkpt>
      <trkpt lat="41.6339700" lon="2.1169220">
        <ele>358.5</ele>
        <time>2020-07-09T14:01:07Z</time>
      </trkpt>
      <trkpt lat="41.6339600" lon="2.1169320">
        <ele>358.4</ele>
        <time>2020-07-09T14:01:08Z</time>
      </trkpt>
      <trkpt lat="41.6339500" lon="2.1169410">
        <ele>358.3</ele>
        <time>2020-07-09T14:01:09Z</time>
      </trkpt>
      <trkpt lat="41.6339400" lon="2.1169510">
        <ele>358.1</ele>
        <time>2020-07-09T14:01:10Z</time>
      </trkpt>
      <trkpt lat="41.6339300" lon="2.1169590">
        <ele>358.1</ele>
        <time>2020-07-09T14:01:11Z</time>
      </trkpt>
      <trkpt lat="41.6339210" lon="2.1169680">
        <ele>358.0</ele>
        <time>2020-07-09T14:01:12Z</time>
      </trkpt>
      <trkpt lat="41.6339110" lon="2.1169760">
        <ele>357.9</ele>
        <time>2020-07-09T14:01:13Z</time>
      </trkpt>
      <trkpt lat="41.6339020" lon="2.1169840">
        <ele>357.9</ele>
        <time>2020-07-09T14:01:14Z</time>
      </trkpt>
      <trkpt lat="41.6338920" lon="2.1169920">
        <ele>357.8</ele>
        <time>2020-07-09T14:01:15Z</time>
      </trkpt>
      <trkpt lat="41.6338830" lon="2.1170000">
        <ele>357.8</ele>
        <time>2020-07-09T14:01:16Z</time>
      </trkpt>
      <trkpt lat="41.6338750" lon="2.1170080">
        <ele>357.7</ele>
        <time>2020-07-09T14:01:17Z</time>
      </trkpt>
      <trkpt lat="41.6338660" lon="2.1170170">
        <ele>357.7</ele>
        <time>2020-07-09T14:01:18Z</time>
      </trkpt>
      <trkpt lat="41.6338580" lon="2.1170260">
        <ele>357.6</ele>
        <time>2020-07-09T14:01:19Z</time>
      </trkpt>
      <trkpt lat="41.6338510" lon="2.1170350">
        <ele>357.6</ele>
        <time>2020-07-09T14:01:20Z</time>
      </trkpt>
      <trkpt lat="41.6338430" lon="2.1170450">
        <ele>357.5</ele>
        <time>2020-07-09T14:01:21Z</time>
      </trkpt>
      <trkpt lat="41.6338360" lon="2.1170550">
        <ele>357.5</ele>
        <time>2020-07-09T14:01:22Z</time>
      </trkpt>
      <trkpt lat="41.6338290" lon="2.1170660">
        <ele>357.4</ele>
        <time>2020-07-09T14:01:23Z</time>
      </trkpt>
      <trkpt lat="41.6338230" lon="2.1170770">
        <ele>357.3</ele>
        <time>2020-07-09T14:01:24Z</time>
      </trkpt>
      <trkpt lat="41.6338160" lon="2.1170890">
        <ele>357.3</ele>
        <time>2020-07-09T14:01:25Z</time>
      </trkpt>
      <trkpt lat="41.6338090" lon="2.1171010">
        <ele>357.2</ele>
        <time>2020-07-09T14:01:26Z</time>
      </trkpt>
      <trkpt lat="41.6338020" lon="2.1171140">
        <ele>357.2</ele>
        <time>2020-07-09T14:01:27Z</time>
      </trkpt>
      <trkpt lat="41.6337960" lon="2.1171270">
        <ele>357.1</ele>
        <time>2020-07-09T14:01:28Z</time>
      </trkpt>
      <trkpt lat="41.6337880" lon="2.1171410">
        <ele>357.0</ele>
        <time>2020-07-09T14:01:29Z</time>
      </trkpt>
      <trkpt lat="41.6337810" lon="2.1171550">
        <ele>357.0</ele>
        <time>2020-07-09T14:01:30Z</time>
      </trkpt>
      <trkpt lat="41.6337730" lon="2.1171690">
        <ele>356.9</ele>
        <time>2020-07-09T14:01:31Z</time>
      </trkpt>
      <trkpt lat="41.6337650" lon="2.1171840">
        <ele>356.8</ele>
        <time>2020-07-09T14:01:32Z</time>
      </trkpt>
      <trkpt lat="41.6337560" lon="2.1171990">
        <ele>356.8</ele>
        <time>2020-07-09T14:01:33Z</time>
      </trkpt>
      <trkpt lat="41.6337470" lon="2.1172140">
        <ele>356.7</ele>
        <time>2020-07-09T14:01:34Z</time>
      </trkpt>
      <trkpt lat="41.6337380" lon="2.1172290">
        <ele>356.6</ele>
        <time>2020-07-09T14:01:35Z</time>
      </trkpt>
      <trkpt lat="41.6337290" lon="2.1172440">
        <ele>356.6</ele>
        <time>2020-07-09T14:01:36Z</time>
      </trkpt>
      <trkpt lat="41.6337190" lon="2.1172590">
        <ele>356.5</ele>
        <time>2020-07-09T14:01:37Z</time>
      </trkpt>
      <trkpt lat="41.6337090" lon="2.1172740">
        <ele>356.4</ele>
        <time>2020-07-09T14:01:38Z</time>
      </trkpt>
      <trkpt lat="41.6336990" lon="2.1172890">
        <ele>356.3</ele>
        <time>2020-07-09T14:01:39Z</time>
      </trkpt>
      <trkpt lat="41.6336890" lon="2.1173040">
        <ele>356.3</ele>
        <time>2020-07-09T14:01:40Z</time>
      </trkpt>
      <trkpt lat="41.6336780" lon="2.1173180">
        <ele>356.2</ele>
        <time>2020-07-09T14:01:41Z</time>
      </trkpt>
      <trkpt lat="41.6336670" lon="2.1173320">
        <ele>355.9</ele>
        <time>2020-07-09T14:01:42Z</time>
      </trkpt>
      <trkpt lat="41.6336560" lon="2.1173460">
        <ele>355.8</ele>
        <time>2020-07-09T14:01:43Z</time>
      </trkpt>
      <trkpt lat="41.6336450" lon="2.1173590">
        <ele>355.7</ele>
        <time>2020-07-09T14:01:44Z</time>
      </trkpt>
      <trkpt lat="41.6336330" lon="2.1173710">
        <ele>355.6</ele>
        <time>2020-07-09T14:01:45Z</time>
      </trkpt>
      <trkpt lat="41.6336220" lon="2.1173830">
        <ele>355.6</ele>
        <time>2020-07-09T14:01:46Z</time>
      </trkpt>
      <trkpt lat="41.6336100" lon="2.1173950">
        <ele>355.5</ele>
        <time>2020-07-09T14:01:47Z</time>
      </trkpt>
      <trkpt lat="41.6335980" lon="2.1174050">
        <ele>355.4</ele>
        <time>2020-07-09T14:01:48Z</time>
      </trkpt>
      <trkpt lat="41.6335860" lon="2.1174150">
        <ele>355.3</ele>
        <time>2020-07-09T14:01:49Z</time>
      </trkpt>
      <trkpt lat="41.6335730" lon="2.1174240">
        <ele>355.2</ele>
        <time>2020-07-09T14:01:50Z</time>
      </trkpt>
      <trkpt lat="41.6335610" lon="2.1174330">
        <ele>355.1</ele>
        <time>2020-07-09T14:01:51Z</time>
      </trkpt>
      <trkpt lat="41.6335480" lon="2.1174400">
        <ele>355.0</ele>
        <time>2020-07-09T14:01:52Z</time>
      </trkpt>
      <trkpt lat="41.6335360" lon="2.1174480">
        <ele>354.9</ele>
        <time>2020-07-09T14:01:53Z</time>
      </trkpt>
      <trkpt lat="41.6335230" lon="2.1174550">
        <ele>354.8</ele>
        <time>2020-07-09T14:01:54Z</time>
      </trkpt>
      <trkpt lat="41.6335110" lon="2.1174610">
        <ele>354.7</ele>
        <time>2020-07-09T14:01:55Z</time>
      </trkpt>
      <trkpt lat="41.6334980" lon="2.1174680">
        <ele>354.6</ele>
        <time>2020-07-09T14:01:56Z</time>
      </trkpt>
      <trkpt lat="41.6334850" lon="2.1174740">
        <ele>354.5</ele>
        <time>2020-07-09T14:01:57Z</time>
      </trkpt>
      <trkpt lat="41.6334720" lon="2.1174800">
        <ele>354.4</ele>
        <time>2020-07-09T14:01:58Z</time>
      </trkpt>
      <trkpt lat="41.6334590" lon="2.1174860">
        <ele>354.3</ele>
        <time>2020-07-09T14:01:59Z</time>
      </trkpt>
      <trkpt lat="41.6334470" lon="2.1174920">
        <ele>354.2</ele>
        <time>2020-07-09T14:02:00Z</time>
      </trkpt>
      <trkpt lat="41.6334340" lon="2.1174990">
        <ele>354.1</ele>
        <time>2020-07-09T14:02:01Z</time>
      </trkpt>
      <trkpt lat="41.6334210" lon="2.1175050">
        <ele>354.0</ele>
        <time>2020-07-09T14:02:02Z</time>
      </trkpt>
      <trkpt lat="41.6334090" lon="2.1175120">
        <ele>353.9</ele>
        <time>2020-07-09T14:02:03Z</time>
      </trkpt>
      <trkpt lat="41.6333960" lon="2.1175190">
        <ele>353.8</ele>
        <time>2020-07-09T14:02:04Z</time>
      </trkpt>
      <trkpt lat="41.6333840" lon="2.1175260">
        <ele>353.7</ele>
        <time>2020-07-09T14:02:05Z</time>
      </trkpt>
      <trkpt lat="41.6333720" lon="2.1175340">
        <ele>353.6</ele>
        <time>2020-07-09T14:02:06Z</time>
      </trkpt>
      <trkpt lat="41.6333590" lon="2.1175430">
        <ele>353.5</ele>
        <time>2020-07-09T14:02:07Z</time>
      </trkpt>
      <trkpt lat="41.6333470" lon="2.1175520">
        <ele>353.4</ele>
        <time>2020-07-09T14:02:08Z</time>
      </trkpt>
      <trkpt lat="41.6333360" lon="2.1175620">
        <ele>353.3</ele>
        <time>2020-07-09T14:02:09Z</time>
      </trkpt>
      <trkpt lat="41.6333240" lon="2.1175730">
        <ele>353.2</ele>
        <time>2020-07-09T14:02:10Z</time>
      </trkpt>
      <trkpt lat="41.6333120" lon="2.1175840">
        <ele>353.1</ele>
        <time>2020-07-09T14:02:11Z</time>
      </trkpt>
      <trkpt lat="41.6333010" lon="2.1175960">
        <ele>353.0</ele>
        <time>2020-07-09T14:02:12Z</time>
      </trkpt>
      <trkpt lat="41.6332900" lon="2.1176080">
        <ele>352.9</ele>
        <time>2020-07-09T14:02:13Z</time>
      </trkpt>
      <trkpt lat="41.6332790" lon="2.1176210">
        <ele>352.9</ele>
        <time>2020-07-09T14:02:14Z</time>
      </trkpt>
      <trkpt lat="41.6332680" lon="2.1176340">
        <ele>352.8</ele>
        <time>2020-07-09T14:02:15Z</time>
      </trkpt>
      <trkpt lat="41.6332580" lon="2.1176480">
        <ele>352.7</ele>
        <time>2020-07-09T14:02:16Z</time>
      </trkpt>
      <trkpt lat="41.6332480" lon="2.1176620">
        <ele>352.6</ele>
        <time>2020-07-09T14:02:17Z</time>
      </trkpt>
      <trkpt lat="41.6332380" lon="2.1176770">
        <ele>352.5</ele>
        <time>2020-07-09T14:02:18Z</time>
      </trkpt>
      <trkpt lat="41.6332280" lon="2.1176920">
        <ele>352.5</ele>
        <time>2020-07-09T14:02:19Z</time>
      </trkpt>
      <trkpt lat="41.6332190" lon="2.1177080">
        <ele>352.4</ele>
        <time>2020-07-09T14:02:20Z</time>
      </trkpt>
      <trkpt lat="41.6332090" lon="2.1177240">
        <ele>352.3</ele>
        <time>2020-07-09T14:02:21Z</time>
      </trkpt>
      <trkpt lat="41.6332010" lon="2.1177400">
        <ele>352.3</ele>
        <time>2020-07-09T14:02:22Z</time>
      </trkpt>
      <trkpt lat="41.6331920" lon="2.1177570">
        <ele>352.2</ele>
        <time>2020-07-09T14:02:23Z</time>
      </trkpt>
      <trkpt lat="41.6331840" lon="2.1177740">
        <ele>352.1</ele>
        <time>2020-07-09T14:02:24Z</time>
      </trkpt>
      <trkpt lat="41.6331760" lon="2.1177910">
        <ele>352.1</ele>
        <time>2020-07-09T14:02:25Z</time>
      </trkpt>
      <trkpt lat="41.6331680" lon="2.1178090">
        <ele>352.0</ele>
        <time>2020-07-09T14:02:26Z</time>
      </trkpt>
      <trkpt lat="41.6331610" lon="2.1178260">
        <ele>352.0</ele>
        <time>2020-07-09T14:02:27Z</time>
      </trkpt>
      <trkpt lat="41.6331540" lon="2.1178450">
        <ele>351.9</ele>
        <time>2020-07-09T14:02:28Z</time>
      </trkpt>
      <trkpt lat="41.6331480" lon="2.1178630">
        <ele>351.8</ele>
        <time>2020-07-09T14:02:29Z</time>
      </trkpt>
      <trkpt lat="41.6331430" lon="2.1178820">
        <ele>351.8</ele>
        <time>2020-07-09T14:02:30Z</time>
      </trkpt>
      <trkpt lat="41.6331380" lon="2.1179010">
        <ele>351.7</ele>
        <time>2020-07-09T14:02:31Z</time>
      </trkpt>
      <trkpt lat="41.6331350" lon="2.1179200">
        <ele>351.7</ele>
        <time>2020-07-09T14:02:32Z</time>
      </trkpt>
      <trkpt lat="41.6331320" lon="2.1179390">
        <ele>351.6</ele>
        <time>2020-07-09T14:02:33Z</time>
      </trkpt>
      <trkpt lat="41.6331290" lon="2.1179570">
        <ele>351.6</ele>
        <time>2020-07-09T14:02:34Z</time>
      </trkpt>
      <trkpt lat="41.6331260" lon="2.1179750">
        <ele>351.5</ele>
        <time>2020-07-09T14:02:35Z</time>
      </trkpt>
      <trkpt lat="41.6331240" lon="2.1179930">
        <ele>351.4</ele>
        <time>2020-07-09T14:02:36Z</time>
      </trkpt>
      <trkpt lat="41.6331210" lon="2.1180100">
        <ele>351.4</ele>
        <time>2020-07-09T14:02:37Z</time>
      </trkpt>
      <trkpt lat="41.6331180" lon="2.1180270">
        <ele>351.3</ele>
        <time>2020-07-09T14:02:38Z</time>
      </trkpt>
      <trkpt lat="41.6331150" lon="2.1180430">
        <ele>351.3</ele>
        <time>2020-07-09T14:02:39Z</time>
      </trkpt>
      <trkpt lat="41.6331110" lon="2.1180580">
        <ele>351.3</ele>
        <time>2020-07-09T14:02:40Z</time>
      </trkpt>
      <trkpt lat="41.6331070" lon="2.1180730">
        <ele>351.2</ele>
        <time>2020-07-09T14:02:41Z</time>
      </trkpt>
      <trkpt lat="41.6331020" lon="2.1180880">
        <ele>351.2</ele>
        <time>2020-07-09T14:02:42Z</time>
      </trkpt>
      <trkpt lat="41.6330970" lon="2.1181030">
        <ele>351.1</ele>
        <time>2020-07-09T14:02:43Z</time>
      </trkpt>
      <trkpt lat="41.6330910" lon="2.1181170">
        <ele>351.1</ele>
        <time>2020-07-09T14:02:44Z</time>
      </trkpt>
      <trkpt lat="41.6330840" lon="2.1181310">
        <ele>351.0</ele>
        <time>2020-07-09T14:02:45Z</time>
      </trkpt>
      <trkpt lat="41.6330770" lon="2.1181450">
        <ele>351.0</ele>
        <time>2020-07-09T14:02:46Z</time>
      </trkpt>
      <trkpt lat="41.6330710" lon="2.1181600">
        <ele>350.9</ele>
        <time>2020-07-09T14:02:47Z</time>
      </trkpt>
      <trkpt lat="41.6330650" lon="2.1181750">
        <ele>350.9</ele>
        <time>2020-07-09T14:02:48Z</time>
      </trkpt>
      <trkpt lat="41.6330600" lon="2.1181920">
        <ele>350.8</ele>
        <time>2020-07-09T14:02:49Z</time>
      </trkpt>
      <trkpt lat="41.6330570" lon="2.1182100">
        <ele>350.7</ele>
        <time>2020-07-09T14:02:50Z</time>
      </trkpt>
      <trkpt lat="41.6330550" lon="2.1182290">
        <ele>350.7</ele>
        <time>2020-07-09T14:02:51Z</time>
      </trkpt>
      <trkpt lat="41.6330540" lon="2.1182500">
        <ele>350.6</ele>
        <time>2020-07-09T14:02:52Z</time>
      </trkpt>
      <trkpt lat="41.6330530" lon="2.1182720">
        <ele>350.5</ele>
        <time>2020-07-09T14:02:53Z</time>
      </trkpt>
      <trkpt lat="41.6330520" lon="2.1182950">
        <ele>350.5</ele>
        <time>2020-07-09T14:02:54Z</time>
      </trkpt>
      <trkpt lat="41.6330510" lon="2.1183180">
        <ele>350.4</ele>
        <time>2020-07-09T14:02:55Z</time>
      </trkpt>
      <trkpt lat="41.6330500" lon="2.1183420">
        <ele>350.3</ele>
        <time>2020-07-09T14:02:56Z</time>
      </trkpt>
      <trkpt lat="41.6330480" lon="2.1183650">
        <ele>350.2</ele>
        <time>2020-07-09T14:02:57Z</time>
      </trkpt>
      <trkpt lat="41.6330460" lon="2.1183860">
        <ele>350.1</ele>
        <time>2020-07-09T14:02:58Z</time>
      </trkpt>
      <trkpt lat="41.6330420" lon="2.1184070">
        <ele>350.0</ele>
        <time>2020-07-09T14:02:59Z</time>
      </trkpt>
      <trkpt lat="41.6330380" lon="2.1184250">
        <ele>350.0</ele>
        <time>2020-07-09T14:03:00Z</time>
      </trkpt>
      <trkpt lat="41.6330340" lon="2.1184430">
        <ele>349.9</ele>
        <time>2020-07-09T14:03:01Z</time>
      </trkpt>
      <trkpt lat="41.6330310" lon="2.1184590">
        <ele>349.8</ele>
        <time>2020-07-09T14:03:02Z</time>
      </trkpt>
      <trkpt lat="41.6330290" lon="2.1184750">
        <ele>349.7</ele>
        <time>2020-07-09T14:03:03Z</time>
      </trkpt>
      <trkpt lat="41.6330270" lon="2.1184900">
        <ele>349.7</ele>
        <time>2020-07-09T14:03:04Z</time>
      </trkpt>
      <trkpt lat="41.6330260" lon="2.1185060">
        <ele>349.6</ele>
        <time>2020-07-09T14:03:05Z</time>
      </trkpt>
      <trkpt lat="41.6330240" lon="2.1185210">
        <ele>349.6</ele>
        <time>2020-07-09T14:03:06Z</time>
      </trkpt>
      <trkpt lat="41.6330220" lon="2.1185360">
        <ele>349.5</ele>
        <time>2020-07-09T14:03:07Z</time>
      </trkpt>
      <trkpt lat="41.6330180" lon="2.1185530">
        <ele>349.4</ele>
        <time>2020-07-09T14:03:08Z</time>
      </trkpt>
      <trkpt lat="41.6330120" lon="2.1185690">
        <ele>349.3</ele>
        <time>2020-07-09T14:03:09Z</time>
      </trkpt>
      <trkpt lat="41.6330060" lon="2.1185870">
        <ele>349.3</ele>
        <time>2020-07-09T14:03:10Z</time>
      </trkpt>
      <trkpt lat="41.6330000" lon="2.1186050">
        <ele>349.2</ele>
        <time>2020-07-09T14:03:11Z</time>
      </trkpt>
      <trkpt lat="41.6329930" lon="2.1186230">
        <ele>349.1</ele>
        <time>2020-07-09T14:03:12Z</time>
      </trkpt>
      <trkpt lat="41.6329860" lon="2.1186420">
        <ele>349.0</ele>
        <time>2020-07-09T14:03:13Z</time>
      </trkpt>
      <trkpt lat="41.6329800" lon="2.1186610">
        <ele>348.9</ele>
        <time>2020-07-09T14:03:14Z</time>
      </trkpt>
      <trkpt lat="41.6329740" lon="2.1186800">
        <ele>348.9</ele>
        <time>2020-07-09T14:03:15Z</time>
      </trkpt>
      <trkpt lat="41.6329680" lon="2.1186990">
        <ele>348.8</ele>
        <time>2020-07-09T14:03:16Z</time>
      </trkpt>
      <trkpt lat="41.6329620" lon="2.1187180">
        <ele>348.7</ele>
        <time>2020-07-09T14:03:17Z</time>
      </trkpt>
      <trkpt lat="41.6329570" lon="2.1187370">
        <ele>348.7</ele>
        <time>2020-07-09T14:03:18Z</time>
      </trkpt>
      <trkpt lat="41.6329530" lon="2.1187550">
        <ele>348.6</ele>
        <time>2020-07-09T14:03:19Z</time>
      </trkpt>
      <trkpt lat="41.6329490" lon="2.1187730">
        <ele>348.5</ele>
        <time>2020-07-09T14:03:20Z</time>
      </trkpt>
      <trkpt lat="41.6329460" lon="2.1187910">
        <ele>348.4</ele>
        <time>2020-07-09T14:03:21Z</time>
      </trkpt>
      <trkpt lat="41.6329430" lon="2.1188090">
        <ele>348.4</ele>
        <time>2020-07-09T14:03:22Z</time>
      </trkpt>
      <trkpt lat="41.6329410" lon="2.1188250">
        <ele>348.3</ele>
        <time>2020-07-09T14:03:23Z</time>
      </trkpt>
      <trkpt lat="41.6329390" lon="2.1188420">
        <ele>348.3</ele>
        <time>2020-07-09T14:03:24Z</time>
      </trkpt>
      <trkpt lat="41.6329370" lon="2.1188580">
        <ele>348.2</ele>
        <time>2020-07-09T14:03:25Z</time>
      </trkpt>
      <trkpt lat="41.6329350" lon="2.1188750">
        <ele>348.1</ele>
        <time>2020-07-09T14:03:26Z</time>
      </trkpt>
      <trkpt lat="41.6329330" lon="2.1188910">
        <ele>348.1</ele>
        <time>2020-07-09T14:03:27Z</time>
      </trkpt>
      <trkpt lat="41.6329300" lon="2.1189080">
        <ele>348.0</ele>
        <time>2020-07-09T14:03:28Z</time>
      </trkpt>
      <trkpt lat="41.6329270" lon="2.1189250">
        <ele>348.0</ele>
        <time>2020-07-09T14:03:29Z</time>
      </trkpt>
      <trkpt lat="41.6329230" lon="2.1189420">
        <ele>347.9</ele>
        <time>2020-07-09T14:03:30Z</time>
      </trkpt>
      <trkpt lat="41.6329180" lon="2.1189600">
        <ele>347.8</ele>
        <time>2020-07-09T14:03:31Z</time>
      </trkpt>
      <trkpt lat="41.6329120" lon="2.1189790">
        <ele>347.8</ele>
        <time>2020-07-09T14:03:32Z</time>
      </trkpt>
      <trkpt lat="41.6329050" lon="2.1189980">
        <ele>347.7</ele>
        <time>2020-07-09T14:03:33Z</time>
      </trkpt>
      <trkpt lat="41.6328980" lon="2.1190160">
        <ele>347.6</ele>
        <time>2020-07-09T14:03:34Z</time>
      </trkpt>
      <trkpt lat="41.6328900" lon="2.1190340">
        <ele>347.6</ele>
        <time>2020-07-09T14:03:35Z</time>
      </trkpt>
      <trkpt lat="41.6328810" lon="2.1190520">
        <ele>347.5</ele>
        <time>2020-07-09T14:03:36Z</time>
      </trkpt>
      <trkpt lat="41.6328720" lon="2.1190690">
        <ele>347.4</ele>
        <time>2020-07-09T14:03:37Z</time>
      </trkpt>
      <trkpt lat="41.6328630" lon="2.1190840">
        <ele>347.4</ele>
        <time>2020-07-09T14:03:38Z</time>
      </trkpt>
      <trkpt lat="41.6328540" lon="2.1190990">
        <ele>347.3</ele>
        <time>2020-07-09T14:03:39Z</time>
      </trkpt>
      <trkpt lat="41.6328450" lon="2.1191120">
        <ele>347.2</ele>
        <time>2020-07-09T14:03:40Z</time>
      </trkpt>
      <trkpt lat="41.6328350" lon="2.1191230">
        <ele>347.2</ele>
        <time>2020-07-09T14:03:41Z</time>
      </trkpt>
      <trkpt lat="41.6328260" lon="2.1191330">
        <ele>347.1</ele>
        <time>2020-07-09T14:03:42Z</time>
      </trkpt>
      <trkpt lat="41.6328160" lon="2.1191420">
        <ele>347.1</ele>
        <time>2020-07-09T14:03:43Z</time>
      </trkpt>
      <trkpt lat="41.6328060" lon="2.1191500">
        <ele>347.0</ele>
        <time>2020-07-09T14:03:44Z</time>
      </trkpt>
      <trkpt lat="41.6327960" lon="2.1191580">
        <ele>347.0</ele>
        <time>2020-07-09T14:03:45Z</time>
      </trkpt>
      <trkpt lat="41.6327850" lon="2.1191640">
        <ele>346.9</ele>
        <time>2020-07-09T14:03:46Z</time>
      </trkpt>
      <trkpt lat="41.6327740" lon="2.1191710">
        <ele>346.9</ele>
        <time>2020-07-09T14:03:47Z</time>
      </trkpt>
      <trkpt lat="41.6327620" lon="2.1191770">
        <ele>346.8</ele>
        <time>2020-07-09T14:03:48Z</time>
      </trkpt>
      <trkpt lat="41.6327490" lon="2.1191830">
        <ele>346.7</ele>
        <time>2020-07-09T14:03:49Z</time>
      </trkpt>
      <trkpt lat="41.6327360" lon="2.1191880">
        <ele>346.7</ele>
        <time>2020-07-09T14:03:50Z</time>
      </trkpt>
      <trkpt lat="41.6327240" lon="2.1191920">
        <ele>346.6</ele>
        <time>2020-07-09T14:03:51Z</time>
      </trkpt>
      <trkpt lat="41.6327160" lon="2.1191930">
        <ele>346.6</ele>
        <time>2020-07-09T14:03:52Z</time>
      </trkpt>
      <trkpt lat="41.6327130" lon="2.1191900">
        <ele>346.5</ele>
        <time>2020-07-09T14:03:53Z</time>
      </trkpt>
      <trkpt lat="41.6327130" lon="2.1191850">
        <ele>346.5</ele>
        <time>2020-07-09T14:03:54Z</time>
      </trkpt>
      <trkpt lat="41.6327120" lon="2.1191810">
        <ele>346.5</ele>
        <time>2020-07-09T14:03:55Z</time>
      </trkpt>
      <trkpt lat="41.6327110" lon="2.1191780">
        <ele>346.5</ele>
        <time>2020-07-09T14:03:56Z</time>
      </trkpt>
      <trkpt lat="41.6327100" lon="2.1191750">
        <ele>346.5</ele>
        <time>2020-07-09T14:03:57Z</time>
      </trkpt>
      <trkpt lat="41.6327090" lon="2.1191730">
        <ele>346.5</ele>
        <time>2020-07-09T14:03:58Z</time>
      </trkpt>
      <trkpt lat="41.6327080" lon="2.1191710">
        <ele>346.5</ele>
        <time>2020-07-09T14:03:59Z</time>
      </trkpt>
      <trkpt lat="41.6327070" lon="2.1191690">
        <ele>346.4</ele>
        <time>2020-07-09T14:04:00Z</time>
      </trkpt>
      <trkpt lat="41.6327070" lon="2.1191680">
        <ele>346.4</ele>
        <time>2020-07-09T14:04:01Z</time>
      </trkpt>
      <trkpt lat="41.6327070" lon="2.1191670">
        <ele>346.4</ele>
        <time>2020-07-09T14:04:02Z</time>
      </trkpt>
      <trkpt lat="41.6327060" lon="2.1191660">
        <ele>346.4</ele>
        <time>2020-07-09T14:04:03Z</time>
      </trkpt>
      <trkpt lat="41.6327060" lon="2.1191650">
        <ele>346.4</ele>
        <time>2020-07-09T14:04:04Z</time>
      </trkpt>
      <trkpt lat="41.6327060" lon="2.1191640">
        <ele>346.4</ele>
        <time>2020-07-09T14:04:05Z</time>
      </trkpt>
      <trkpt lat="41.6327060" lon="2.1191640">
        <ele>346.4</ele>
        <time>2020-07-09T14:04:06Z</time>
      </trkpt>
      <trkpt lat="41.6327060" lon="2.1191630">
        <ele>346.4</ele>
        <time>2020-07-09T14:04:07Z</time>
      </trkpt>
      <trkpt lat="41.6327060" lon="2.1191630">
        <ele>346.4</ele>
        <time>2020-07-09T14:04:08Z</time>
      </trkpt>
      <trkpt lat="41.6327060" lon="2.1191630">
        <ele>346.4</ele>
        <time>2020-07-09T14:04:09Z</time>
      </trkpt>
      <trkpt lat="41.6327060" lon="2.1191630">
        <ele>346.4</ele>
        <time>2020-07-09T14:04:10Z</time>
      </trkpt>
      <trkpt lat="41.6327060" lon="2.1191630">
        <ele>346.4</ele>
        <time>2020-07-09T14:04:11Z</time>
      </trkpt>
      <trkpt lat="41.6327060" lon="2.1191630">
        <ele>346.4</ele>
        <time>2020-07-09T14:04:12Z</time>
      </trkpt>
      <trkpt lat="41.6327060" lon="2.1191630">
        <ele>346.4</ele>
        <time>2020-07-09T14:04:13Z</time>
      </trkpt>
      <trkpt lat="41.6327060" lon="2.1191630">
        <ele>346.4</ele>
        <time>2020-07-09T14:04:14Z</time>
      </trkpt>
      <trkpt lat="41.6327060" lon="2.1191630">
        <ele>346.4</ele>
        <time>2020-07-09T14:04:15Z</time>
      </trkpt>
      <trkpt lat="41.6327060" lon="2.1191630">
        <ele>346.4</ele>
        <time>2020-07-09T14:04:16Z</time>
      </trkpt>
      <trkpt lat="41.6327060" lon="2.1191620">
        <ele>346.4</ele>
        <time>2020-07-09T14:04:17Z</time>
      </trkpt>
      <trkpt lat="41.6327060" lon="2.1191620">
        <ele>346.4</ele>
        <time>2020-07-09T14:04:18Z</time>
      </trkpt>
      <trkpt lat="41.6327050" lon="2.1191620">
        <ele>346.4</ele>
        <time>2020-07-09T14:04:19Z</time>
      </trkpt>
      <trkpt lat="41.6327040" lon="2.1191630">
        <ele>346.4</ele>
        <time>2020-07-09T14:04:20Z</time>
      </trkpt>
      <trkpt lat="41.6327010" lon="2.1191650">
        <ele>346.4</ele>
        <time>2020-07-09T14:04:21Z</time>
      </trkpt>
      <trkpt lat="41.6326960" lon="2.1191680">
        <ele>346.4</ele>
        <time>2020-07-09T14:04:22Z</time>
      </trkpt>
      <trkpt lat="41.6326900" lon="2.1191710">
        <ele>346.3</ele>
        <time>2020-07-09T14:04:23Z</time>
      </trkpt>
      <trkpt lat="41.6326810" lon="2.1191750">
        <ele>346.3</ele>
        <time>2020-07-09T14:04:24Z</time>
      </trkpt>
      <trkpt lat="41.6326710" lon="2.1191780">
        <ele>346.2</ele>
        <time>2020-07-09T14:04:25Z</time>
      </trkpt>
      <trkpt lat="41.6326600" lon="2.1191800">
        <ele>346.2</ele>
        <time>2020-07-09T14:04:26Z</time>
      </trkpt>
      <trkpt lat="41.6326520" lon="2.1191810">
        <ele>346.1</ele>
        <time>2020-07-09T14:04:27Z</time>
      </trkpt>
      <trkpt lat="41.6326460" lon="2.1191820">
        <ele>346.1</ele>
        <time>2020-07-09T14:04:28Z</time>
      </trkpt>
      <trkpt lat="41.6326420" lon="2.1191820">
        <ele>346.0</ele>
        <time>2020-07-09T14:04:29Z</time>
      </trkpt>
      <trkpt lat="41.6326390" lon="2.1191820">
        <ele>346.0</ele>
        <time>2020-07-09T14:04:30Z</time>
      </trkpt>
      <trkpt lat="41.6326370" lon="2.1191830">
        <ele>346.0</ele>
        <time>2020-07-09T14:04:31Z</time>
      </trkpt>
      <trkpt lat="41.6326350" lon="2.1191840">
        <ele>346.0</ele>
        <time>2020-07-09T14:04:32Z</time>
      </trkpt>
      <trkpt lat="41.6326320" lon="2.1191850">
        <ele>346.0</ele>
        <time>2020-07-09T14:04:33Z</time>
      </trkpt>
      <trkpt lat="41.6326290" lon="2.1191860">
        <ele>346.0</ele>
        <time>2020-07-09T14:04:34Z</time>
      </trkpt>
      <trkpt lat="41.6326230" lon="2.1191880">
        <ele>345.9</ele>
        <time>2020-07-09T14:04:35Z</time>
      </trkpt>
      <trkpt lat="41.6326160" lon="2.1191900">
        <ele>345.9</ele>
        <time>2020-07-09T14:04:36Z</time>
      </trkpt>
      <trkpt lat="41.6326070" lon="2.1191930">
        <ele>345.8</ele>
        <time>2020-07-09T14:04:37Z</time>
      </trkpt>
      <trkpt lat="41.6325970" lon="2.1191960">
        <ele>345.8</ele>
        <time>2020-07-09T14:04:38Z</time>
      </trkpt>
      <trkpt lat="41.6325850" lon="2.1191990">
        <ele>345.7</ele>
        <time>2020-07-09T14:04:39Z</time>
      </trkpt>
      <trkpt lat="41.6325720" lon="2.1192020">
        <ele>345.6</ele>
        <time>2020-07-09T14:04:40Z</time>
      </trkpt>
      <trkpt lat="41.6325590" lon="2.1192040">
        <ele>345.5</ele>
        <time>2020-07-09T14:04:41Z</time>
      </trkpt>
      <trkpt lat="41.6325450" lon="2.1192050">
        <ele>345.5</ele>
        <time>2020-07-09T14:04:42Z</time>
      </trkpt>
      <trkpt lat="41.6325300" lon="2.1192050">
        <ele>345.4</ele>
        <time>2020-07-09T14:04:43Z</time>
      </trkpt>
      <trkpt lat="41.6325150" lon="2.1192040">
        <ele>345.3</ele>
        <time>2020-07-09T14:04:44Z</time>
      </trkpt>
      <trkpt lat="41.6325010" lon="2.1192020">
        <ele>345.2</ele>
        <time>2020-07-09T14:04:45Z</time>
      </trkpt>
      <trkpt lat="41.6324860" lon="2.1191980">
        <ele>345.1</ele>
        <time>2020-07-09T14:04:46Z</time>
      </trkpt>
      <trkpt lat="41.6324710" lon="2.1191940">
        <ele>345.0</ele>
        <time>2020-07-09T14:04:47Z</time>
      </trkpt>
      <trkpt lat="41.6324580" lon="2.1191890">
        <ele>344.9</ele>
        <time>2020-07-09T14:04:48Z</time>
      </trkpt>
      <trkpt lat="41.6324450" lon="2.1191840">
        <ele>344.8</ele>
        <time>2020-07-09T14:04:49Z</time>
      </trkpt>
      <trkpt lat="41.6324330" lon="2.1191790">
        <ele>344.7</ele>
        <time>2020-07-09T14:04:50Z</time>
      </trkpt>
      <trkpt lat="41.6324220" lon="2.1191740">
        <ele>344.6</ele>
        <time>2020-07-09T14:04:51Z</time>
      </trkpt>
      <trkpt lat="41.6324120" lon="2.1191700">
        <ele>344.6</ele>
        <time>2020-07-09T14:04:52Z</time>
      </trkpt>
      <trkpt lat="41.6324020" lon="2.1191650">
        <ele>344.5</ele>
        <time>2020-07-09T14:04:53Z</time>
      </trkpt>
      <trkpt lat="41.6323910" lon="2.1191590">
        <ele>344.4</ele>
        <time>2020-07-09T14:04:54Z</time>
      </trkpt>
      <trkpt lat="41.6323810" lon="2.1191540">
        <ele>344.3</ele>
        <time>2020-07-09T14:04:55Z</time>
      </trkpt>
      <trkpt lat="41.6323700" lon="2.1191480">
        <ele>344.3</ele>
        <time>2020-07-09T14:04:56Z</time>
      </trkpt>
      <trkpt lat="41.6323580" lon="2.1191430">
        <ele>344.2</ele>
        <time>2020-07-09T14:04:57Z</time>
      </trkpt>
      <trkpt lat="41.6323470" lon="2.1191370">
        <ele>344.1</ele>
        <time>2020-07-09T14:04:58Z</time>
      </trkpt>
      <trkpt lat="41.6323350" lon="2.1191310">
        <ele>344.0</ele>
        <time>2020-07-09T14:04:59Z</time>
      </trkpt>
      <trkpt lat="41.6323230" lon="2.1191250">
        <ele>343.9</ele>
        <time>2020-07-09T14:05:00Z</time>
      </trkpt>
      <trkpt lat="41.6323110" lon="2.1191190">
        <ele>343.8</ele>
        <time>2020-07-09T14:05:01Z</time>
      </trkpt>
      <trkpt lat="41.6322990" lon="2.1191130">
        <ele>343.7</ele>
        <time>2020-07-09T14:05:02Z</time>
      </trkpt>
      <trkpt lat="41.6322860" lon="2.1191070">
        <ele>343.7</ele>
        <time>2020-07-09T14:05:03Z</time>
      </trkpt>
      <trkpt lat="41.6322730" lon="2.1191000">
        <ele>343.6</ele>
        <time>2020-07-09T14:05:04Z</time>
      </trkpt>
      <trkpt lat="41.6322600" lon="2.1190940">
        <ele>343.5</ele>
        <time>2020-07-09T14:05:05Z</time>
      </trkpt>
      <trkpt lat="41.6322470" lon="2.1190880">
        <ele>343.4</ele>
        <time>2020-07-09T14:05:06Z</time>
      </trkpt>
      <trkpt lat="41.6322330" lon="2.1190820">
        <ele>343.3</ele>
        <time>2020-07-09T14:05:07Z</time>
      </trkpt>
      <trkpt lat="41.6322200" lon="2.1190760">
        <ele>343.2</ele>
        <time>2020-07-09T14:05:08Z</time>
      </trkpt>
      <trkpt lat="41.6322060" lon="2.1190700">
        <ele>343.1</ele>
        <time>2020-07-09T14:05:09Z</time>
      </trkpt>
      <trkpt lat="41.6321920" lon="2.1190640">
        <ele>343.0</ele>
        <time>2020-07-09T14:05:10Z</time>
      </trkpt>
      <trkpt lat="41.6321770" lon="2.1190580">
        <ele>343.0</ele>
        <time>2020-07-09T14:05:11Z</time>
      </trkpt>
      <trkpt lat="41.6321630" lon="2.1190520">
        <ele>342.9</ele>
        <time>2020-07-09T14:05:12Z</time>
      </trkpt>
      <trkpt lat="41.6321480" lon="2.1190460">
        <ele>342.8</ele>
        <time>2020-07-09T14:05:13Z</time>
      </trkpt>
      <trkpt lat="41.6321330" lon="2.1190410">
        <ele>342.7</ele>
        <time>2020-07-09T14:05:14Z</time>
      </trkpt>
      <trkpt lat="41.6321180" lon="2.1190360">
        <ele>342.6</ele>
        <time>2020-07-09T14:05:15Z</time>
      </trkpt>
      <trkpt lat="41.6321030" lon="2.1190320">
        <ele>342.6</ele>
        <time>2020-07-09T14:05:16Z</time>
      </trkpt>
      <trkpt lat="41.6320880" lon="2.1190280">
        <ele>342.5</ele>
        <time>2020-07-09T14:05:17Z</time>
      </trkpt>
      <trkpt lat="41.6320730" lon="2.1190250">
        <ele>342.4</ele>
        <time>2020-07-09T14:05:18Z</time>
      </trkpt>
      <trkpt lat="41.6320580" lon="2.1190240">
        <ele>342.4</ele>
        <time>2020-07-09T14:05:19Z</time>
      </trkpt>
      <trkpt lat="41.6320430" lon="2.1190230">
        <ele>342.3</ele>
        <time>2020-07-09T14:05:20Z</time>
      </trkpt>
      <trkpt lat="41.6320280" lon="2.1190240">
        <ele>342.3</ele>
        <time>2020-07-09T14:05:21Z</time>
      </trkpt>
      <trkpt lat="41.6320130" lon="2.1190260">
        <ele>342.2</ele>
        <time>2020-07-09T14:05:22Z</time>
      </trkpt>
      <trkpt lat="41.6319990" lon="2.1190290">
        <ele>342.1</ele>
        <time>2020-07-09T14:05:23Z</time>
      </trkpt>
      <trkpt lat="41.6319840" lon="2.1190330">
        <ele>342.1</ele>
        <time>2020-07-09T14:05:24Z</time>
      </trkpt>
      <trkpt lat="41.6319700" lon="2.1190380">
        <ele>342.0</ele>
        <time>2020-07-09T14:05:25Z</time>
      </trkpt>
      <trkpt lat="41.6319560" lon="2.1190430">
        <ele>342.0</ele>
        <time>2020-07-09T14:05:26Z</time>
      </trkpt>
      <trkpt lat="41.6319430" lon="2.1190490">
        <ele>341.9</ele>
        <time>2020-07-09T14:05:27Z</time>
      </trkpt>
      <trkpt lat="41.6319290" lon="2.1190540">
        <ele>341.9</ele>
        <time>2020-07-09T14:05:28Z</time>
      </trkpt>
      <trkpt lat="41.6319160" lon="2.1190590">
        <ele>341.8</ele>
        <time>2020-07-09T14:05:29Z</time>
      </trkpt>
      <trkpt lat="41.6319040" lon="2.1190640">
        <ele>341.8</ele>
        <time>2020-07-09T14:05:30Z</time>
      </trkpt>
      <trkpt lat="41.6318920" lon="2.1190680">
        <ele>341.8</ele>
        <time>2020-07-09T14:05:31Z</time>
      </trkpt>
      <trkpt lat="41.6318800" lon="2.1190710">
        <ele>341.7</ele>
        <time>2020-07-09T14:05:32Z</time>
      </trkpt>
      <trkpt lat="41.6318680" lon="2.1190730">
        <ele>341.7</ele>
        <time>2020-07-09T14:05:33Z</time>
      </trkpt>
      <trkpt lat="41.6318560" lon="2.1190760">
        <ele>341.6</ele>
        <time>2020-07-09T14:05:34Z</time>
      </trkpt>
      <trkpt lat="41.6318450" lon="2.1190770">
        <ele>341.6</ele>
        <time>2020-07-09T14:05:35Z</time>
      </trkpt>
      <trkpt lat="41.6318330" lon="2.1190790">
        <ele>341.6</ele>
        <time>2020-07-09T14:05:36Z</time>
      </trkpt>
      <trkpt lat="41.6318200" lon="2.1190810">
        <ele>341.5</ele>
        <time>2020-07-09T14:05:37Z</time>
      </trkpt>
      <trkpt lat="41.6318080" lon="2.1190830">
        <ele>341.5</ele>
        <time>2020-07-09T14:05:38Z</time>
      </trkpt>
      <trkpt lat="41.6317940" lon="2.1190860">
        <ele>341.4</ele>
        <time>2020-07-09T14:05:39Z</time>
      </trkpt>
      <trkpt lat="41.6317800" lon="2.1190880">
        <ele>341.4</ele>
        <time>2020-07-09T14:05:40Z</time>
      </trkpt>
      <trkpt lat="41.6317650" lon="2.1190920">
        <ele>341.3</ele>
        <time>2020-07-09T14:05:41Z</time>
      </trkpt>
      <trkpt lat="41.6317490" lon="2.1190950">
        <ele>341.3</ele>
        <time>2020-07-09T14:05:42Z</time>
      </trkpt>
      <trkpt lat="41.6317330" lon="2.1190990">
        <ele>341.2</ele>
        <time>2020-07-09T14:05:43Z</time>
      </trkpt>
      <trkpt lat="41.6317160" lon="2.1191030">
        <ele>341.1</ele>
        <time>2020-07-09T14:05:44Z</time>
      </trkpt>
      <trkpt lat="41.6317000" lon="2.1191050">
        <ele>341.0</ele>
        <time>2020-07-09T14:05:45Z</time>
      </trkpt>
      <trkpt lat="41.6316830" lon="2.1191070">
        <ele>340.9</ele>
        <time>2020-07-09T14:05:46Z</time>
      </trkpt>
      <trkpt lat="41.6316670" lon="2.1191080">
        <ele>340.9</ele>
        <time>2020-07-09T14:05:47Z</time>
      </trkpt>
      <trkpt lat="41.6316520" lon="2.1191070">
        <ele>340.8</ele>
        <time>2020-07-09T14:05:48Z</time>
      </trkpt>
      <trkpt lat="41.6316380" lon="2.1191050">
        <ele>340.7</ele>
        <time>2020-07-09T14:05:49Z</time>
      </trkpt>
      <trkpt lat="41.6316250" lon="2.1191000">
        <ele>340.7</ele>
        <time>2020-07-09T14:05:50Z</time>
      </trkpt>
      <trkpt lat="41.6316130" lon="2.1190940">
        <ele>340.6</ele>
        <time>2020-07-09T14:05:51Z</time>
      </trkpt>
      <trkpt lat="41.6316010" lon="2.1190860">
        <ele>340.5</ele>
        <time>2020-07-09T14:05:52Z</time>
      </trkpt>
      <trkpt lat="41.6315900" lon="2.1190770">
        <ele>340.4</ele>
        <time>2020-07-09T14:05:53Z</time>
      </trkpt>
      <trkpt lat="41.6315790" lon="2.1190670">
        <ele>340.4</ele>
        <time>2020-07-09T14:05:54Z</time>
      </trkpt>
      <trkpt lat="41.6315680" lon="2.1190570">
        <ele>340.3</ele>
        <time>2020-07-09T14:05:55Z</time>
      </trkpt>
      <trkpt lat="41.6315580" lon="2.1190460">
        <ele>340.2</ele>
        <time>2020-07-09T14:05:56Z</time>
      </trkpt>
      <trkpt lat="41.6315460" lon="2.1190360">
        <ele>340.2</ele>
        <time>2020-07-09T14:05:57Z</time>
      </trkpt>
      <trkpt lat="41.6315340" lon="2.1190260">
        <ele>340.1</ele>
        <time>2020-07-09T14:05:58Z</time>
      </trkpt>
      <trkpt lat="41.6315220" lon="2.1190170">
        <ele>340.0</ele>
        <time>2020-07-09T14:05:59Z</time>
      </trkpt>
      <trkpt lat="41.6315080" lon="2.1190080">
        <ele>339.9</ele>
        <time>2020-07-09T14:06:00Z</time>
      </trkpt>
      <trkpt lat="41.6314940" lon="2.1190000">
        <ele>339.8</ele>
        <time>2020-07-09T14:06:01Z</time>
      </trkpt>
      <trkpt lat="41.6314800" lon="2.1189930">
        <ele>339.8</ele>
        <time>2020-07-09T14:06:02Z</time>
      </trkpt>
      <trkpt lat="41.6314660" lon="2.1189860">
        <ele>339.7</ele>
        <time>2020-07-09T14:06:03Z</time>
      </trkpt>
      <trkpt lat="41.6314510" lon="2.1189790">
        <ele>339.6</ele>
        <time>2020-07-09T14:06:04Z</time>
      </trkpt>
      <trkpt lat="41.6314370" lon="2.1189720">
        <ele>339.5</ele>
        <time>2020-07-09T14:06:05Z</time>
      </trkpt>
      <trkpt lat="41.6314230" lon="2.1189660">
        <ele>339.4</ele>
        <time>2020-07-09T14:06:06Z</time>
      </trkpt>
      <trkpt lat="41.6314100" lon="2.1189590">
        <ele>339.3</ele>
        <time>2020-07-09T14:06:07Z</time>
      </trkpt>
      <trkpt lat="41.6313970" lon="2.1189530">
        <ele>339.3</ele>
        <time>2020-07-09T14:06:08Z</time>
      </trkpt>
      <trkpt lat="41.6313850" lon="2.1189460">
        <ele>339.2</ele>
        <time>2020-07-09T14:06:09Z</time>
      </trkpt>
      <trkpt lat="41.6313730" lon="2.1189400">
        <ele>339.1</ele>
        <time>2020-07-09T14:06:10Z</time>
      </trkpt>
      <trkpt lat="41.6313620" lon="2.1189340">
        <ele>339.1</ele>
        <time>2020-07-09T14:06:11Z</time>
      </trkpt>
      <trkpt lat="41.6313500" lon="2.1189290">
        <ele>339.0</ele>
        <time>2020-07-09T14:06:12Z</time>
      </trkpt>
      <trkpt lat="41.6313390" lon="2.1189240">
        <ele>339.0</ele>
        <time>2020-07-09T14:06:13Z</time>
      </trkpt>
      <trkpt lat="41.6313290" lon="2.1189200">
        <ele>338.9</ele>
        <time>2020-07-09T14:06:14Z</time>
      </trkpt>
      <trkpt lat="41.6313180" lon="2.1189170">
        <ele>338.8</ele>
        <time>2020-07-09T14:06:15Z</time>
      </trkpt>
      <trkpt lat="41.6313070" lon="2.1189150">
        <ele>338.8</ele>
        <time>2020-07-09T14:06:16Z</time>
      </trkpt>
      <trkpt lat="41.6312960" lon="2.1189140">
        <ele>338.7</ele>
        <time>2020-07-09T14:06:17Z</time>
      </trkpt>
      <trkpt lat="41.6312850" lon="2.1189150">
        <ele>338.7</ele>
        <time>2020-07-09T14:06:18Z</time>
      </trkpt>
      <trkpt lat="41.6312730" lon="2.1189160">
        <ele>338.6</ele>
        <time>2020-07-09T14:06:19Z</time>
      </trkpt>
      <trkpt lat="41.6312610" lon="2.1189190">
        <ele>338.6</ele>
        <time>2020-07-09T14:06:20Z</time>
      </trkpt>
      <trkpt lat="41.6312490" lon="2.1189240">
        <ele>338.5</ele>
        <time>2020-07-09T14:06:21Z</time>
      </trkpt>
      <trkpt lat="41.6312370" lon="2.1189290">
        <ele>338.4</ele>
        <time>2020-07-09T14:06:22Z</time>
      </trkpt>
      <trkpt lat="41.6312240" lon="2.1189350">
        <ele>338.4</ele>
        <time>2020-07-09T14:06:23Z</time>
      </trkpt>
      <trkpt lat="41.6312120" lon="2.1189430">
        <ele>338.3</ele>
        <time>2020-07-09T14:06:24Z</time>
      </trkpt>
      <trkpt lat="41.6311990" lon="2.1189510">
        <ele>338.2</ele>
        <time>2020-07-09T14:06:25Z</time>
      </trkpt>
      <trkpt lat="41.6311850" lon="2.1189610">
        <ele>338.2</ele>
        <time>2020-07-09T14:06:26Z</time>
      </trkpt>
      <trkpt lat="41.6311650" lon="2.1189770">
        <ele>338.1</ele>
        <time>2020-07-09T14:06:27Z</time>
      </trkpt>
      <trkpt lat="41.6311580" lon="2.1189820">
        <ele>338.0</ele>
        <time>2020-07-09T14:06:28Z</time>
      </trkpt>
      <trkpt lat="41.6311450" lon="2.1189940">
        <ele>338.0</ele>
        <time>2020-07-09T14:06:29Z</time>
      </trkpt>
      <trkpt lat="41.6311310" lon="2.1190060">
        <ele>337.9</ele>
        <time>2020-07-09T14:06:30Z</time>
      </trkpt>
      <trkpt lat="41.6311180" lon="2.1190190">
        <ele>337.8</ele>
        <time>2020-07-09T14:06:31Z</time>
      </trkpt>
      <trkpt lat="41.6311040" lon="2.1190320">
        <ele>337.7</ele>
        <time>2020-07-09T14:06:32Z</time>
      </trkpt>
      <trkpt lat="41.6310920" lon="2.1190450">
        <ele>337.7</ele>
        <time>2020-07-09T14:06:33Z</time>
      </trkpt>
      <trkpt lat="41.6310790" lon="2.1190580">
        <ele>337.6</ele>
        <time>2020-07-09T14:06:34Z</time>
      </trkpt>
      <trkpt lat="41.6310670" lon="2.1190710">
        <ele>337.5</ele>
        <time>2020-07-09T14:06:35Z</time>
      </trkpt>
      <trkpt lat="41.6310560" lon="2.1190830">
        <ele>337.4</ele>
        <time>2020-07-09T14:06:36Z</time>
      </trkpt>
      <trkpt lat="41.6310450" lon="2.1190960">
        <ele>337.4</ele>
        <time>2020-07-09T14:06:37Z</time>
      </trkpt>
      <trkpt lat="41.6310350" lon="2.1191080">
        <ele>337.3</ele>
        <time>2020-07-09T14:06:38Z</time>
      </trkpt>
      <trkpt lat="41.6310240" lon="2.1191200">
        <ele>337.2</ele>
        <time>2020-07-09T14:06:39Z</time>
      </trkpt>
      <trkpt lat="41.6310140" lon="2.1191320">
        <ele>337.1</ele>
        <time>2020-07-09T14:06:40Z</time>
      </trkpt>
      <trkpt lat="41.6310040" lon="2.1191430">
        <ele>337.1</ele>
        <time>2020-07-09T14:06:41Z</time>
      </trkpt>
      <trkpt lat="41.6309940" lon="2.1191540">
        <ele>337.0</ele>
        <time>2020-07-09T14:06:42Z</time>
      </trkpt>
      <trkpt lat="41.6309840" lon="2.1191650">
        <ele>336.9</ele>
        <time>2020-07-09T14:06:43Z</time>
      </trkpt>
      <trkpt lat="41.6309730" lon="2.1191760">
        <ele>336.8</ele>
        <time>2020-07-09T14:06:44Z</time>
      </trkpt>
      <trkpt lat="41.6309620" lon="2.1191860">
        <ele>336.8</ele>
        <time>2020-07-09T14:06:45Z</time>
      </trkpt>
      <trkpt lat="41.6309500" lon="2.1191960">
        <ele>336.7</ele>
        <time>2020-07-09T14:06:46Z</time>
      </trkpt>
      <trkpt lat="41.6309380" lon="2.1192060">
        <ele>336.6</ele>
        <time>2020-07-09T14:06:47Z</time>
      </trkpt>
      <trkpt lat="41.6309250" lon="2.1192150">
        <ele>336.5</ele>
        <time>2020-07-09T14:06:48Z</time>
      </trkpt>
      <trkpt lat="41.6309120" lon="2.1192240">
        <ele>336.4</ele>
        <time>2020-07-09T14:06:49Z</time>
      </trkpt>
      <trkpt lat="41.6308990" lon="2.1192330">
        <ele>336.3</ele>
        <time>2020-07-09T14:06:50Z</time>
      </trkpt>
      <trkpt lat="41.6308860" lon="2.1192410">
        <ele>336.2</ele>
        <time>2020-07-09T14:06:51Z</time>
      </trkpt>
      <trkpt lat="41.6308720" lon="2.1192480">
        <ele>336.1</ele>
        <time>2020-07-09T14:06:52Z</time>
      </trkpt>
      <trkpt lat="41.6308580" lon="2.1192550">
        <ele>336.0</ele>
        <time>2020-07-09T14:06:53Z</time>
      </trkpt>
      <trkpt lat="41.6308440" lon="2.1192610">
        <ele>335.9</ele>
        <time>2020-07-09T14:06:54Z</time>
      </trkpt>
      <trkpt lat="41.6308300" lon="2.1192670">
        <ele>335.7</ele>
        <time>2020-07-09T14:06:55Z</time>
      </trkpt>
      <trkpt lat="41.6308150" lon="2.1192720">
        <ele>335.6</ele>
        <time>2020-07-09T14:06:56Z</time>
      </trkpt>
      <trkpt lat="41.6308000" lon="2.1192760">
        <ele>335.5</ele>
        <time>2020-07-09T14:06:57Z</time>
      </trkpt>
      <trkpt lat="41.6307850" lon="2.1192800">
        <ele>335.4</ele>
        <time>2020-07-09T14:06:58Z</time>
      </trkpt>
      <trkpt lat="41.6307700" lon="2.1192840">
        <ele>335.3</ele>
        <time>2020-07-09T14:06:59Z</time>
      </trkpt>
      <trkpt lat="41.6307550" lon="2.1192880">
        <ele>335.2</ele>
        <time>2020-07-09T14:07:00Z</time>
      </trkpt>
      <trkpt lat="41.6307390" lon="2.1192910">
        <ele>335.0</ele>
        <time>2020-07-09T14:07:01Z</time>
      </trkpt>
      <trkpt lat="41.6307240" lon="2.1192950">
        <ele>334.9</ele>
        <time>2020-07-09T14:07:02Z</time>
      </trkpt>
      <trkpt lat="41.6307100" lon="2.1192980">
        <ele>334.8</ele>
        <time>2020-07-09T14:07:03Z</time>
      </trkpt>
      <trkpt lat="41.6306960" lon="2.1193020">
        <ele>334.7</ele>
        <time>2020-07-09T14:07:04Z</time>
      </trkpt>
      <trkpt lat="41.6306840" lon="2.1193050">
        <ele>334.6</ele>
        <time>2020-07-09T14:07:05Z</time>
      </trkpt>
      <trkpt lat="41.6306710" lon="2.1193080">
        <ele>334.5</ele>
        <time>2020-07-09T14:07:06Z</time>
      </trkpt>
      <trkpt lat="41.6306600" lon="2.1193110">
        <ele>334.4</ele>
        <time>2020-07-09T14:07:07Z</time>
      </trkpt>
      <trkpt lat="41.6306490" lon="2.1193150">
        <ele>334.3</ele>
        <time>2020-07-09T14:07:08Z</time>
      </trkpt>
      <trkpt lat="41.6306380" lon="2.1193180">
        <ele>334.2</ele>
        <time>2020-07-09T14:07:09Z</time>
      </trkpt>
      <trkpt lat="41.6306280" lon="2.1193210">
        <ele>334.1</ele>
        <time>2020-07-09T14:07:10Z</time>
      </trkpt>
      <trkpt lat="41.6306180" lon="2.1193250">
        <ele>334.0</ele>
        <time>2020-07-09T14:07:11Z</time>
      </trkpt>
      <trkpt lat="41.6306070" lon="2.1193290">
        <ele>333.9</ele>
        <time>2020-07-09T14:07:12Z</time>
      </trkpt>
      <trkpt lat="41.6305970" lon="2.1193330">
        <ele>333.8</ele>
        <time>2020-07-09T14:07:13Z</time>
      </trkpt>
      <trkpt lat="41.6305870" lon="2.1193370">
        <ele>333.7</ele>
        <time>2020-07-09T14:07:14Z</time>
      </trkpt>
      <trkpt lat="41.6305760" lon="2.1193410">
        <ele>333.6</ele>
        <time>2020-07-09T14:07:15Z</time>
      </trkpt>
      <trkpt lat="41.6305650" lon="2.1193450">
        <ele>333.5</ele>
        <time>2020-07-09T14:07:16Z</time>
      </trkpt>
      <trkpt lat="41.6305540" lon="2.1193490">
        <ele>333.4</ele>
        <time>2020-07-09T14:07:17Z</time>
      </trkpt>
      <trkpt lat="41.6305420" lon="2.1193530">
        <ele>333.3</ele>
        <time>2020-07-09T14:07:18Z</time>
      </trkpt>
      <trkpt lat="41.6305290" lon="2.1193570">
        <ele>333.2</ele>
        <time>2020-07-09T14:07:19Z</time>
      </trkpt>
      <trkpt lat="41.6305160" lon="2.1193600">
        <ele>333.1</ele>
        <time>2020-07-09T14:07:20Z</time>
      </trkpt>
      <trkpt lat="41.6305020" lon="2.1193630">
        <ele>333.0</ele>
        <time>2020-07-09T14:07:21Z</time>
      </trkpt>
      <trkpt lat="41.6304880" lon="2.1193650">
        <ele>332.9</ele>
        <time>2020-07-09T14:07:22Z</time>
      </trkpt>
      <trkpt lat="41.6304720" lon="2.1193670">
        <ele>332.8</ele>
        <time>2020-07-09T14:07:23Z</time>
      </trkpt>
      <trkpt lat="41.6304560" lon="2.1193680">
        <ele>332.6</ele>
        <time>2020-07-09T14:07:24Z</time>
      </trkpt>
      <trkpt lat="41.6304400" lon="2.1193700">
        <ele>332.5</ele>
        <time>2020-07-09T14:07:25Z</time>
      </trkpt>
      <trkpt lat="41.6304230" lon="2.1193700">
        <ele>332.4</ele>
        <time>2020-07-09T14:07:26Z</time>
      </trkpt>
      <trkpt lat="41.6304060" lon="2.1193710">
        <ele>332.2</ele>
        <time>2020-07-09T14:07:27Z</time>
      </trkpt>
      <trkpt lat="41.6303890" lon="2.1193710">
        <ele>332.1</ele>
        <time>2020-07-09T14:07:28Z</time>
      </trkpt>
      <trkpt lat="41.6303720" lon="2.1193720">
        <ele>332.0</ele>
        <time>2020-07-09T14:07:29Z</time>
      </trkpt>
      <trkpt lat="41.6303560" lon="2.1193720">
        <ele>331.8</ele>
        <time>2020-07-09T14:07:30Z</time>
      </trkpt>
      <trkpt lat="41.6303390" lon="2.1193720">
        <ele>331.7</ele>
        <time>2020-07-09T14:07:31Z</time>
      </trkpt>
      <trkpt lat="41.6303240" lon="2.1193730">
        <ele>331.6</ele>
        <time>2020-07-09T14:07:32Z</time>
      </trkpt>
      <trkpt lat="41.6303080" lon="2.1193730">
        <ele>331.4</ele>
        <time>2020-07-09T14:07:33Z</time>
      </trkpt>
      <trkpt lat="41.6302930" lon="2.1193740">
        <ele>331.3</ele>
        <time>2020-07-09T14:07:34Z</time>
      </trkpt>
      <trkpt lat="41.6302790" lon="2.1193740">
        <ele>331.2</ele>
        <time>2020-07-09T14:07:35Z</time>
      </trkpt>
      <trkpt lat="41.6302640" lon="2.1193740">
        <ele>331.1</ele>
        <time>2020-07-09T14:07:36Z</time>
      </trkpt>
      <trkpt lat="41.6302500" lon="2.1193740">
        <ele>331.0</ele>
        <time>2020-07-09T14:07:37Z</time>
      </trkpt>
      <trkpt lat="41.6302360" lon="2.1193730">
        <ele>330.9</ele>
        <time>2020-07-09T14:07:38Z</time>
      </trkpt>
      <trkpt lat="41.6302220" lon="2.1193720">
        <ele>330.8</ele>
        <time>2020-07-09T14:07:39Z</time>
      </trkpt>
      <trkpt lat="41.6302080" lon="2.1193710">
        <ele>330.7</ele>
        <time>2020-07-09T14:07:40Z</time>
      </trkpt>
      <trkpt lat="41.6301940" lon="2.1193690">
        <ele>330.6</ele>
        <time>2020-07-09T14:07:41Z</time>
      </trkpt>
      <trkpt lat="41.6301800" lon="2.1193670">
        <ele>330.5</ele>
        <time>2020-07-09T14:07:42Z</time>
      </trkpt>
      <trkpt lat="41.6301650" lon="2.1193650">
        <ele>330.4</ele>
        <time>2020-07-09T14:07:43Z</time>
      </trkpt>
      <trkpt lat="41.6301510" lon="2.1193620">
        <ele>330.3</ele>
        <time>2020-07-09T14:07:44Z</time>
      </trkpt>
      <trkpt lat="41.6301370" lon="2.1193590">
        <ele>330.3</ele>
        <time>2020-07-09T14:07:45Z</time>
      </trkpt>
      <trkpt lat="41.6301220" lon="2.1193570">
        <ele>330.2</ele>
        <time>2020-07-09T14:07:46Z</time>
      </trkpt>
      <trkpt lat="41.6301080" lon="2.1193540">
        <ele>330.1</ele>
        <time>2020-07-09T14:07:47Z</time>
      </trkpt>
      <trkpt lat="41.6300940" lon="2.1193520">
        <ele>330.0</ele>
        <time>2020-07-09T14:07:48Z</time>
      </trkpt>
      <trkpt lat="41.6300800" lon="2.1193500">
        <ele>330.0</ele>
        <time>2020-07-09T14:07:49Z</time>
      </trkpt>
      <trkpt lat="41.6300660" lon="2.1193490">
        <ele>329.9</ele>
        <time>2020-07-09T14:07:50Z</time>
      </trkpt>
      <trkpt lat="41.6300520" lon="2.1193480">
        <ele>329.9</ele>
        <time>2020-07-09T14:07:51Z</time>
      </trkpt>
      <trkpt lat="41.6300390" lon="2.1193480">
        <ele>329.8</ele>
        <time>2020-07-09T14:07:52Z</time>
      </trkpt>
      <trkpt lat="41.6300250" lon="2.1193480">
        <ele>329.8</ele>
        <time>2020-07-09T14:07:53Z</time>
      </trkpt>
      <trkpt lat="41.6300120" lon="2.1193490">
        <ele>329.7</ele>
        <time>2020-07-09T14:07:54Z</time>
      </trkpt>
      <trkpt lat="41.6299990" lon="2.1193500">
        <ele>329.7</ele>
        <time>2020-07-09T14:07:55Z</time>
      </trkpt>
      <trkpt lat="41.6299860" lon="2.1193520">
        <ele>329.6</ele>
        <time>2020-07-09T14:07:56Z</time>
      </trkpt>
      <trkpt lat="41.6299730" lon="2.1193540">
        <ele>329.6</ele>
        <time>2020-07-09T14:07:57Z</time>
      </trkpt>
      <trkpt lat="41.6299610" lon="2.1193560">
        <ele>329.5</ele>
        <time>2020-07-09T14:07:58Z</time>
      </trkpt>
      <trkpt lat="41.6299490" lon="2.1193590">
        <ele>329.5</ele>
        <time>2020-07-09T14:07:59Z</time>
      </trkpt>
      <trkpt lat="41.6299370" lon="2.1193630">
        <ele>329.5</ele>
        <time>2020-07-09T14:08:00Z</time>
      </trkpt>
      <trkpt lat="41.6299250" lon="2.1193660">
        <ele>329.4</ele>
        <time>2020-07-09T14:08:01Z</time>
      </trkpt>
      <trkpt lat="41.6299140" lon="2.1193710">
        <ele>329.4</ele>
        <time>2020-07-09T14:08:02Z</time>
      </trkpt>
      <trkpt lat="41.6299020" lon="2.1193750">
        <ele>329.4</ele>
        <time>2020-07-09T14:08:03Z</time>
      </trkpt>
      <trkpt lat="41.6298910" lon="2.1193810">
        <ele>329.4</ele>
        <time>2020-07-09T14:08:04Z</time>
      </trkpt>
      <trkpt lat="41.6298800" lon="2.1193870">
        <ele>329.4</ele>
        <time>2020-07-09T14:08:05Z</time>
      </trkpt>
      <trkpt lat="41.6298690" lon="2.1193930">
        <ele>329.3</ele>
        <time>2020-07-09T14:08:06Z</time>
      </trkpt>
      <trkpt lat="41.6298580" lon="2.1194000">
        <ele>329.3</ele>
        <time>2020-07-09T14:08:07Z</time>
      </trkpt>
      <trkpt lat="41.6298470" lon="2.1194070">
        <ele>329.3</ele>
        <time>2020-07-09T14:08:08Z</time>
      </trkpt>
      <trkpt lat="41.6298360" lon="2.1194160">
        <ele>329.3</ele>
        <time>2020-07-09T14:08:09Z</time>
      </trkpt>
      <trkpt lat="41.6298250" lon="2.1194240">
        <ele>329.3</ele>
        <time>2020-07-09T14:08:10Z</time>
      </trkpt>
      <trkpt lat="41.6298140" lon="2.1194340">
        <ele>329.3</ele>
        <time>2020-07-09T14:08:11Z</time>
      </trkpt>
      <trkpt lat="41.6298030" lon="2.1194440">
        <ele>329.2</ele>
        <time>2020-07-09T14:08:12Z</time>
      </trkpt>
      <trkpt lat="41.6297920" lon="2.1194550">
        <ele>329.2</ele>
        <time>2020-07-09T14:08:13Z</time>
      </trkpt>
      <trkpt lat="41.6297810" lon="2.1194660">
        <ele>329.2</ele>
        <time>2020-07-09T14:08:14Z</time>
      </trkpt>
      <trkpt lat="41.6297700" lon="2.1194780">
        <ele>329.2</ele>
        <time>2020-07-09T14:08:15Z</time>
      </trkpt>
      <trkpt lat="41.6297580" lon="2.1194910">
        <ele>329.2</ele>
        <time>2020-07-09T14:08:16Z</time>
      </trkpt>
      <trkpt lat="41.6297470" lon="2.1195050">
        <ele>329.2</ele>
        <time>2020-07-09T14:08:17Z</time>
      </trkpt>
      <trkpt lat="41.6297350" lon="2.1195190">
        <ele>329.2</ele>
        <time>2020-07-09T14:08:18Z</time>
      </trkpt>
      <trkpt lat="41.6297230" lon="2.1195340">
        <ele>329.2</ele>
        <time>2020-07-09T14:08:19Z</time>
      </trkpt>
      <trkpt lat="41.6297120" lon="2.1195490">
        <ele>329.1</ele>
        <time>2020-07-09T14:08:20Z</time>
      </trkpt>
      <trkpt lat="41.6297010" lon="2.1195640">
        <ele>329.1</ele>
        <time>2020-07-09T14:08:21Z</time>
      </trkpt>
      <trkpt lat="41.6296900" lon="2.1195780">
        <ele>329.1</ele>
        <time>2020-07-09T14:08:22Z</time>
      </trkpt>
      <trkpt lat="41.6296800" lon="2.1195910">
        <ele>329.1</ele>
        <time>2020-07-09T14:08:23Z</time>
      </trkpt>
      <trkpt lat="41.6296710" lon="2.1196030">
        <ele>329.1</ele>
        <time>2020-07-09T14:08:24Z</time>
      </trkpt>
      <trkpt lat="41.6296640" lon="2.1196130">
        <ele>329.1</ele>
        <time>2020-07-09T14:08:25Z</time>
      </trkpt>
      <trkpt lat="41.6296580" lon="2.1196210">
        <ele>329.1</ele>
        <time>2020-07-09T14:08:26Z</time>
      </trkpt>
      <trkpt lat="41.6296530" lon="2.1196270">
        <ele>329.1</ele>
        <time>2020-07-09T14:08:27Z</time>
      </trkpt>
      <trkpt lat="41.6296500" lon="2.1196320">
        <ele>329.1</ele>
        <time>2020-07-09T14:08:28Z</time>
      </trkpt>
      <trkpt lat="41.6296470" lon="2.1196350">
        <ele>329.1</ele>
        <time>2020-07-09T14:08:29Z</time>
      </trkpt>
      <trkpt lat="41.6296450" lon="2.1196380">
        <ele>329.1</ele>
        <time>2020-07-09T14:08:30Z</time>
      </trkpt>
      <trkpt lat="41.6296420" lon="2.1196410">
        <ele>329.1</ele>
        <time>2020-07-09T14:08:31Z</time>
      </trkpt>
      <trkpt lat="41.6296390" lon="2.1196450">
        <ele>329.1</ele>
        <time>2020-07-09T14:08:32Z</time>
      </trkpt>
      <trkpt lat="41.6296350" lon="2.1196500">
        <ele>329.1</ele>
        <time>2020-07-09T14:08:33Z</time>
      </trkpt>
      <trkpt lat="41.6296300" lon="2.1196560">
        <ele>329.0</ele>
        <time>2020-07-09T14:08:34Z</time>
      </trkpt>
      <trkpt lat="41.6296240" lon="2.1196630">
        <ele>329.0</ele>
        <time>2020-07-09T14:08:35Z</time>
      </trkpt>
      <trkpt lat="41.6296170" lon="2.1196710">
        <ele>329.0</ele>
        <time>2020-07-09T14:08:36Z</time>
      </trkpt>
      <trkpt lat="41.6296090" lon="2.1196800">
        <ele>329.0</ele>
        <time>2020-07-09T14:08:37Z</time>
      </trkpt>
      <trkpt lat="41.6296000" lon="2.1196890">
        <ele>329.0</ele>
        <time>2020-07-09T14:08:38Z</time>
      </trkpt>
      <trkpt lat="41.6295900" lon="2.1196990">
        <ele>329.0</ele>
        <time>2020-07-09T14:08:39Z</time>
      </trkpt>
      <trkpt lat="41.6295790" lon="2.1197090">
        <ele>329.0</ele>
        <time>2020-07-09T14:08:40Z</time>
      </trkpt>
      <trkpt lat="41.6295680" lon="2.1197190">
        <ele>329.0</ele>
        <time>2020-07-09T14:08:41Z</time>
      </trkpt>
      <trkpt lat="41.6295560" lon="2.1197290">
        <ele>328.9</ele>
        <time>2020-07-09T14:08:42Z</time>
      </trkpt>
      <trkpt lat="41.6295430" lon="2.1197390">
        <ele>328.9</ele>
        <time>2020-07-09T14:08:43Z</time>
      </trkpt>
      <trkpt lat="41.6295310" lon="2.1197480">
        <ele>328.9</ele>
        <time>2020-07-09T14:08:44Z</time>
      </trkpt>
      <trkpt lat="41.6295190" lon="2.1197570">
        <ele>328.9</ele>
        <time>2020-07-09T14:08:45Z</time>
      </trkpt>
      <trkpt lat="41.6295060" lon="2.1197650">
        <ele>328.8</ele>
        <time>2020-07-09T14:08:46Z</time>
      </trkpt>
      <trkpt lat="41.6294940" lon="2.1197720">
        <ele>328.8</ele>
        <time>2020-07-09T14:08:47Z</time>
      </trkpt>
      <trkpt lat="41.6294810" lon="2.1197770">
        <ele>328.7</ele>
        <time>2020-07-09T14:08:48Z</time>
      </trkpt>
      <trkpt lat="41.6294690" lon="2.1197820">
        <ele>328.7</ele>
        <time>2020-07-09T14:08:49Z</time>
      </trkpt>
      <trkpt lat="41.6294570" lon="2.1197850">
        <ele>328.7</ele>
        <time>2020-07-09T14:08:50Z</time>
      </trkpt>
      <trkpt lat="41.6294440" lon="2.1197870">
        <ele>328.6</ele>
        <time>2020-07-09T14:08:51Z</time>
      </trkpt>
      <trkpt lat="41.6294310" lon="2.1197870">
        <ele>328.6</ele>
        <time>2020-07-09T14:08:52Z</time>
      </trkpt>
      <trkpt lat="41.6294180" lon="2.1197860">
        <ele>328.5</ele>
        <time>2020-07-09T14:08:53Z</time>
      </trkpt>
      <trkpt lat="41.6294050" lon="2.1197830">
        <ele>328.4</ele>
        <time>2020-07-09T14:08:54Z</time>
      </trkpt>
      <trkpt lat="41.6293920" lon="2.1197770">
        <ele>328.4</ele>
        <time>2020-07-09T14:08:55Z</time>
      </trkpt>
      <trkpt lat="41.6293790" lon="2.1197710">
        <ele>328.3</ele>
        <time>2020-07-09T14:08:56Z</time>
      </trkpt>
      <trkpt lat="41.6293650" lon="2.1197620">
        <ele>328.2</ele>
        <time>2020-07-09T14:08:57Z</time>
      </trkpt>
      <trkpt lat="41.6293520" lon="2.1197530">
        <ele>328.2</ele>
        <time>2020-07-09T14:08:58Z</time>
      </trkpt>
      <trkpt lat="41.6293390" lon="2.1197420">
        <ele>328.1</ele>
        <time>2020-07-09T14:08:59Z</time>
      </trkpt>
      <trkpt lat="41.6293160" lon="2.1197190">
        <ele>327.9</ele>
        <time>2020-07-09T14:09:00Z</time>
      </trkpt>
      <trkpt lat="41.6293070" lon="2.1197090">
        <ele>327.8</ele>
        <time>2020-07-09T14:09:01Z</time>
      </trkpt>
      <trkpt lat="41.6292970" lon="2.1196980">
        <ele>327.7</ele>
        <time>2020-07-09T14:09:02Z</time>
      </trkpt>
      <trkpt lat="41.6292870" lon="2.1196880">
        <ele>327.6</ele>
        <time>2020-07-09T14:09:03Z</time>
      </trkpt>
      <trkpt lat="41.6292770" lon="2.1196770">
        <ele>327.5</ele>
        <time>2020-07-09T14:09:04Z</time>
      </trkpt>
      <trkpt lat="41.6292680" lon="2.1196670">
        <ele>327.4</ele>
        <time>2020-07-09T14:09:05Z</time>
      </trkpt>
      <trkpt lat="41.6292580" lon="2.1196560">
        <ele>327.3</ele>
        <time>2020-07-09T14:09:06Z</time>
      </trkpt>
      <trkpt lat="41.6292480" lon="2.1196460">
        <ele>327.2</ele>
        <time>2020-07-09T14:09:07Z</time>
      </trkpt>
      <trkpt lat="41.6292390" lon="2.1196350">
        <ele>327.1</ele>
        <time>2020-07-09T14:09:08Z</time>
      </trkpt>
      <trkpt lat="41.6292290" lon="2.1196250">
        <ele>327.0</ele>
        <time>2020-07-09T14:09:09Z</time>
      </trkpt>
      <trkpt lat="41.6292190" lon="2.1196140">
        <ele>326.9</ele>
        <time>2020-07-09T14:09:10Z</time>
      </trkpt>
      <trkpt lat="41.6292100" lon="2.1196040">
        <ele>326.8</ele>
        <time>2020-07-09T14:09:11Z</time>
      </trkpt>
      <trkpt lat="41.6292000" lon="2.1195930">
        <ele>326.7</ele>
        <time>2020-07-09T14:09:12Z</time>
      </trkpt>
      <trkpt lat="41.6291900" lon="2.1195830">
        <ele>326.5</ele>
        <time>2020-07-09T14:09:13Z</time>
      </trkpt>
      <trkpt lat="41.6291800" lon="2.1195720">
        <ele>326.4</ele>
        <time>2020-07-09T14:09:14Z</time>
      </trkpt>
      <trkpt lat="41.6291710" lon="2.1195620">
        <ele>326.3</ele>
        <time>2020-07-09T14:09:15Z</time>
      </trkpt>
      <trkpt lat="41.6291610" lon="2.1195510">
        <ele>326.2</ele>
        <time>2020-07-09T14:09:16Z</time>
      </trkpt>
      <trkpt lat="41.6291500" lon="2.1195420">
        <ele>326.0</ele>
        <time>2020-07-09T14:09:17Z</time>
      </trkpt>
      <trkpt lat="41.6291390" lon="2.1195330">
        <ele>325.9</ele>
        <time>2020-07-09T14:09:18Z</time>
      </trkpt>
      <trkpt lat="41.6291280" lon="2.1195240">
        <ele>325.8</ele>
        <time>2020-07-09T14:09:19Z</time>
      </trkpt>
      <trkpt lat="41.6291160" lon="2.1195160">
        <ele>325.6</ele>
        <time>2020-07-09T14:09:20Z</time>
      </trkpt>
      <trkpt lat="41.6291030" lon="2.1195090">
        <ele>325.5</ele>
        <time>2020-07-09T14:09:21Z</time>
      </trkpt>
      <trkpt lat="41.6290900" lon="2.1195020">
        <ele>325.4</ele>
        <time>2020-07-09T14:09:22Z</time>
      </trkpt>
      <trkpt lat="41.6290760" lon="2.1194950">
        <ele>325.2</ele>
        <time>2020-07-09T14:09:23Z</time>
      </trkpt>
      <trkpt lat="41.6290610" lon="2.1194890">
        <ele>325.0</ele>
        <time>2020-07-09T14:09:24Z</time>
      </trkpt>
      <trkpt lat="41.6290460" lon="2.1194840">
        <ele>324.9</ele>
        <time>2020-07-09T14:09:25Z</time>
      </trkpt>
      <trkpt lat="41.6290310" lon="2.1194800">
        <ele>324.7</ele>
        <time>2020-07-09T14:09:26Z</time>
      </trkpt>
      <trkpt lat="41.6290160" lon="2.1194770">
        <ele>324.6</ele>
        <time>2020-07-09T14:09:27Z</time>
      </trkpt>
      <trkpt lat="41.6290000" lon="2.1194750">
        <ele>324.4</ele>
        <time>2020-07-09T14:09:28Z</time>
      </trkpt>
      <trkpt lat="41.6289850" lon="2.1194740">
        <ele>324.2</ele>
        <time>2020-07-09T14:09:29Z</time>
      </trkpt>
      <trkpt lat="41.6289700" lon="2.1194750">
        <ele>324.1</ele>
        <time>2020-07-09T14:09:30Z</time>
      </trkpt>
      <trkpt lat="41.6289550" lon="2.1194770">
        <ele>323.9</ele>
        <time>2020-07-09T14:09:31Z</time>
      </trkpt>
      <trkpt lat="41.6289410" lon="2.1194800">
        <ele>323.8</ele>
        <time>2020-07-09T14:09:32Z</time>
      </trkpt>
      <trkpt lat="41.6289280" lon="2.1194840">
        <ele>323.7</ele>
        <time>2020-07-09T14:09:33Z</time>
      </trkpt>
      <trkpt lat="41.6289150" lon="2.1194900">
        <ele>323.5</ele>
        <time>2020-07-09T14:09:34Z</time>
      </trkpt>
      <trkpt lat="41.6289020" lon="2.1194970">
        <ele>323.4</ele>
        <time>2020-07-09T14:09:35Z</time>
      </trkpt>
      <trkpt lat="41.6288900" lon="2.1195050">
        <ele>323.3</ele>
        <time>2020-07-09T14:09:36Z</time>
      </trkpt>
      <trkpt lat="41.6288780" lon="2.1195140">
        <ele>323.2</ele>
        <time>2020-07-09T14:09:37Z</time>
      </trkpt>
      <trkpt lat="41.6288670" lon="2.1195240">
        <ele>323.0</ele>
        <time>2020-07-09T14:09:38Z</time>
      </trkpt>
      <trkpt lat="41.6288560" lon="2.1195340">
        <ele>322.9</ele>
        <time>2020-07-09T14:09:39Z</time>
      </trkpt>
      <trkpt lat="41.6288450" lon="2.1195460">
        <ele>322.8</ele>
        <time>2020-07-09T14:09:40Z</time>
      </trkpt>
      <trkpt lat="41.6288340" lon="2.1195580">
        <ele>322.7</ele>
        <time>2020-07-09T14:09:41Z</time>
      </trkpt>
      <trkpt lat="41.6288240" lon="2.1195710">
        <ele>322.6</ele>
        <time>2020-07-09T14:09:42Z</time>
      </trkpt>
      <trkpt lat="41.6288140" lon="2.1195840">
        <ele>322.5</ele>
        <time>2020-07-09T14:09:43Z</time>
      </trkpt>
      <trkpt lat="41.6288030" lon="2.1195980">
        <ele>322.4</ele>
        <time>2020-07-09T14:09:44Z</time>
      </trkpt>
      <trkpt lat="41.6287930" lon="2.1196120">
        <ele>322.3</ele>
        <time>2020-07-09T14:09:45Z</time>
      </trkpt>
      <trkpt lat="41.6287830" lon="2.1196260">
        <ele>322.1</ele>
        <time>2020-07-09T14:09:46Z</time>
      </trkpt>
      <trkpt lat="41.6287730" lon="2.1196410">
        <ele>322.0</ele>
        <time>2020-07-09T14:09:47Z</time>
      </trkpt>
      <trkpt lat="41.6287630" lon="2.1196550">
        <ele>321.9</ele>
        <time>2020-07-09T14:09:48Z</time>
      </trkpt>
      <trkpt lat="41.6287530" lon="2.1196700">
        <ele>321.8</ele>
        <time>2020-07-09T14:09:49Z</time>
      </trkpt>
      <trkpt lat="41.6287420" lon="2.1196840">
        <ele>321.7</ele>
        <time>2020-07-09T14:09:50Z</time>
      </trkpt>
      <trkpt lat="41.6287320" lon="2.1196990">
        <ele>321.6</ele>
        <time>2020-07-09T14:09:51Z</time>
      </trkpt>
      <trkpt lat="41.6287210" lon="2.1197130">
        <ele>321.5</ele>
        <time>2020-07-09T14:09:52Z</time>
      </trkpt>
      <trkpt lat="41.6287110" lon="2.1197270">
        <ele>321.4</ele>
        <time>2020-07-09T14:09:53Z</time>
      </trkpt>
      <trkpt lat="41.6287000" lon="2.1197410">
        <ele>321.3</ele>
        <time>2020-07-09T14:09:54Z</time>
      </trkpt>
      <trkpt lat="41.6286890" lon="2.1197550">
        <ele>321.1</ele>
        <time>2020-07-09T14:09:55Z</time>
      </trkpt>
      <trkpt lat="41.6286780" lon="2.1197690">
        <ele>321.0</ele>
        <time>2020-07-09T14:09:56Z</time>
      </trkpt>
      <trkpt lat="41.6286670" lon="2.1197830">
        <ele>320.9</ele>
        <time>2020-07-09T14:09:57Z</time>
      </trkpt>
      <trkpt lat="41.6286560" lon="2.1197960">
        <ele>320.8</ele>
        <time>2020-07-09T14:09:58Z</time>
      </trkpt>
      <trkpt lat="41.6286450" lon="2.1198100">
        <ele>320.7</ele>
        <time>2020-07-09T14:09:59Z</time>
      </trkpt>
      <trkpt lat="41.6286340" lon="2.1198230">
        <ele>320.6</ele>
        <time>2020-07-09T14:10:00Z</time>
      </trkpt>
      <trkpt lat="41.6286230" lon="2.1198360">
        <ele>320.5</ele>
        <time>2020-07-09T14:10:01Z</time>
      </trkpt>
      <trkpt lat="41.6286110" lon="2.1198490">
        <ele>320.4</ele>
        <time>2020-07-09T14:10:02Z</time>
      </trkpt>
      <trkpt lat="41.6286000" lon="2.1198610">
        <ele>320.3</ele>
        <time>2020-07-09T14:10:03Z</time>
      </trkpt>
      <trkpt lat="41.6285890" lon="2.1198730">
        <ele>320.2</ele>
        <time>2020-07-09T14:10:04Z</time>
      </trkpt>
      <trkpt lat="41.6285780" lon="2.1198850">
        <ele>320.0</ele>
        <time>2020-07-09T14:10:05Z</time>
      </trkpt>
      <trkpt lat="41.6285660" lon="2.1198970">
        <ele>319.9</ele>
        <time>2020-07-09T14:10:06Z</time>
      </trkpt>
      <trkpt lat="41.6285550" lon="2.1199090">
        <ele>319.8</ele>
        <time>2020-07-09T14:10:07Z</time>
      </trkpt>
      <trkpt lat="41.6285440" lon="2.1199200">
        <ele>319.7</ele>
        <time>2020-07-09T14:10:08Z</time>
      </trkpt>
      <trkpt lat="41.6285330" lon="2.1199310">
        <ele>319.6</ele>
        <time>2020-07-09T14:10:09Z</time>
      </trkpt>
      <trkpt lat="41.6285210" lon="2.1199420">
        <ele>319.5</ele>
        <time>2020-07-09T14:10:10Z</time>
      </trkpt>
      <trkpt lat="41.6285100" lon="2.1199520">
        <ele>319.4</ele>
        <time>2020-07-09T14:10:11Z</time>
      </trkpt>
      <trkpt lat="41.6284990" lon="2.1199620">
        <ele>319.3</ele>
        <time>2020-07-09T14:10:12Z</time>
      </trkpt>
      <trkpt lat="41.6284880" lon="2.1199720">
        <ele>319.2</ele>
        <time>2020-07-09T14:10:13Z</time>
      </trkpt>
      <trkpt lat="41.6284760" lon="2.1199820">
        <ele>319.1</ele>
        <time>2020-07-09T14:10:14Z</time>
      </trkpt>
      <trkpt lat="41.6284650" lon="2.1199920">
        <ele>319.0</ele>
        <time>2020-07-09T14:10:15Z</time>
      </trkpt>
      <trkpt lat="41.6284540" lon="2.1200010">
        <ele>318.9</ele>
        <time>2020-07-09T14:10:16Z</time>
      </trkpt>
      <trkpt lat="41.6284420" lon="2.1200110">
        <ele>318.8</ele>
        <time>2020-07-09T14:10:17Z</time>
      </trkpt>
      <trkpt lat="41.6284310" lon="2.1200200">
        <ele>318.7</ele>
        <time>2020-07-09T14:10:18Z</time>
      </trkpt>
      <trkpt lat="41.6284190" lon="2.1200300">
        <ele>318.6</ele>
        <time>2020-07-09T14:10:19Z</time>
      </trkpt>
      <trkpt lat="41.6284070" lon="2.1200390">
        <ele>318.5</ele>
        <time>2020-07-09T14:10:20Z</time>
      </trkpt>
      <trkpt lat="41.6283960" lon="2.1200480">
        <ele>318.4</ele>
        <time>2020-07-09T14:10:21Z</time>
      </trkpt>
      <trkpt lat="41.6283840" lon="2.1200570">
        <ele>318.3</ele>
        <time>2020-07-09T14:10:22Z</time>
      </trkpt>
      <trkpt lat="41.6283720" lon="2.1200660">
        <ele>318.2</ele>
        <time>2020-07-09T14:10:23Z</time>
      </trkpt>
      <trkpt lat="41.6283600" lon="2.1200760">
        <ele>318.1</ele>
        <time>2020-07-09T14:10:24Z</time>
      </trkpt>
      <trkpt lat="41.6283470" lon="2.1200850">
        <ele>318.0</ele>
        <time>2020-07-09T14:10:25Z</time>
      </trkpt>
      <trkpt lat="41.6283350" lon="2.1200940">
        <ele>317.9</ele>
        <time>2020-07-09T14:10:26Z</time>
      </trkpt>
      <trkpt lat="41.6283220" lon="2.1201040">
        <ele>317.8</ele>
        <time>2020-07-09T14:10:27Z</time>
      </trkpt>
      <trkpt lat="41.6283100" lon="2.1201130">
        <ele>317.7</ele>
        <time>2020-07-09T14:10:28Z</time>
      </trkpt>
      <trkpt lat="41.6282970" lon="2.1201220">
        <ele>317.6</ele>
        <time>2020-07-09T14:10:29Z</time>
      </trkpt>
      <trkpt lat="41.6282830" lon="2.1201310">
        <ele>317.4</ele>
        <time>2020-07-09T14:10:30Z</time>
      </trkpt>
      <trkpt lat="41.6282700" lon="2.1201400">
        <ele>317.3</ele>
        <time>2020-07-09T14:10:31Z</time>
      </trkpt>
      <trkpt lat="41.6282560" lon="2.1201470">
        <ele>317.2</ele>
        <time>2020-07-09T14:10:32Z</time>
      </trkpt>
      <trkpt lat="41.6282420" lon="2.1201540">
        <ele>317.1</ele>
        <time>2020-07-09T14:10:33Z</time>
      </trkpt>
      <trkpt lat="41.6282280" lon="2.1201610">
        <ele>317.0</ele>
        <time>2020-07-09T14:10:34Z</time>
      </trkpt>
      <trkpt lat="41.6282140" lon="2.1201660">
        <ele>316.8</ele>
        <time>2020-07-09T14:10:35Z</time>
      </trkpt>
      <trkpt lat="41.6281990" lon="2.1201700">
        <ele>316.7</ele>
        <time>2020-07-09T14:10:36Z</time>
      </trkpt>
      <trkpt lat="41.6281830" lon="2.1201720">
        <ele>316.6</ele>
        <time>2020-07-09T14:10:37Z</time>
      </trkpt>
      <trkpt lat="41.6281680" lon="2.1201740">
        <ele>316.5</ele>
        <time>2020-07-09T14:10:38Z</time>
      </trkpt>
      <trkpt lat="41.6281520" lon="2.1201740">
        <ele>316.4</ele>
        <time>2020-07-09T14:10:39Z</time>
      </trkpt>
      <trkpt lat="41.6281370" lon="2.1201720">
        <ele>316.3</ele>
        <time>2020-07-09T14:10:40Z</time>
      </trkpt>
      <trkpt lat="41.6281220" lon="2.1201690">
        <ele>316.2</ele>
        <time>2020-07-09T14:10:41Z</time>
      </trkpt>
      <trkpt lat="41.6281080" lon="2.1201650">
        <ele>316.1</ele>
        <time>2020-07-09T14:10:42Z</time>
      </trkpt>
      <trkpt lat="41.6280930" lon="2.1201600">
        <ele>316.0</ele>
        <time>2020-07-09T14:10:43Z</time>
      </trkpt>
      <trkpt lat="41.6280790" lon="2.1201570">
        <ele>315.9</ele>
        <time>2020-07-09T14:10:44Z</time>
      </trkpt>
      <trkpt lat="41.6280640" lon="2.1201550">
        <ele>315.8</ele>
        <time>2020-07-09T14:10:45Z</time>
      </trkpt>
      <trkpt lat="41.6280480" lon="2.1201550">
        <ele>315.7</ele>
        <time>2020-07-09T14:10:46Z</time>
      </trkpt>
      <trkpt lat="41.6280320" lon="2.1201580">
        <ele>315.6</ele>
        <time>2020-07-09T14:10:47Z</time>
      </trkpt>
      <trkpt lat="41.6280150" lon="2.1201610">
        <ele>315.4</ele>
        <time>2020-07-09T14:10:48Z</time>
      </trkpt>
      <trkpt lat="41.6280000" lon="2.1201640">
        <ele>315.3</ele>
        <time>2020-07-09T14:10:49Z</time>
      </trkpt>
      <trkpt lat="41.6279850" lon="2.1201640">
        <ele>315.3</ele>
        <time>2020-07-09T14:10:50Z</time>
      </trkpt>
      <trkpt lat="41.6279710" lon="2.1201620">
        <ele>315.2</ele>
        <time>2020-07-09T14:10:51Z</time>
      </trkpt>
      <trkpt lat="41.6279590" lon="2.1201570">
        <ele>315.1</ele>
        <time>2020-07-09T14:10:52Z</time>
      </trkpt>
      <trkpt lat="41.6279470" lon="2.1201510">
        <ele>315.0</ele>
        <time>2020-07-09T14:10:53Z</time>
      </trkpt>
      <trkpt lat="41.6279360" lon="2.1201420">
        <ele>314.9</ele>
        <time>2020-07-09T14:10:54Z</time>
      </trkpt>
      <trkpt lat="41.6279240" lon="2.1201330">
        <ele>314.8</ele>
        <time>2020-07-09T14:10:55Z</time>
      </trkpt>
      <trkpt lat="41.6279130" lon="2.1201220">
        <ele>314.8</ele>
        <time>2020-07-09T14:10:56Z</time>
      </trkpt>
      <trkpt lat="41.6279020" lon="2.1201110">
        <ele>314.7</ele>
        <time>2020-07-09T14:10:57Z</time>
      </trkpt>
      <trkpt lat="41.6278900" lon="2.1200990">
        <ele>314.6</ele>
        <time>2020-07-09T14:10:58Z</time>
      </trkpt>
      <trkpt lat="41.6278790" lon="2.1200860">
        <ele>314.5</ele>
        <time>2020-07-09T14:10:59Z</time>
      </trkpt>
      <trkpt lat="41.6278680" lon="2.1200720">
        <ele>314.4</ele>
        <time>2020-07-09T14:11:00Z</time>
      </trkpt>
      <trkpt lat="41.6278580" lon="2.1200580">
        <ele>314.3</ele>
        <time>2020-07-09T14:11:01Z</time>
      </trkpt>
      <trkpt lat="41.6278470" lon="2.1200430">
        <ele>314.2</ele>
        <time>2020-07-09T14:11:02Z</time>
      </trkpt>
      <trkpt lat="41.6278370" lon="2.1200280">
        <ele>314.1</ele>
        <time>2020-07-09T14:11:03Z</time>
      </trkpt>
      <trkpt lat="41.6278270" lon="2.1200130">
        <ele>314.0</ele>
        <time>2020-07-09T14:11:04Z</time>
      </trkpt>
      <trkpt lat="41.6278170" lon="2.1199970">
        <ele>313.9</ele>
        <time>2020-07-09T14:11:05Z</time>
      </trkpt>
      <trkpt lat="41.6278080" lon="2.1199810">
        <ele>313.8</ele>
        <time>2020-07-09T14:11:06Z</time>
      </trkpt>
      <trkpt lat="41.6277990" lon="2.1199650">
        <ele>313.7</ele>
        <time>2020-07-09T14:11:07Z</time>
      </trkpt>
      <trkpt lat="41.6277910" lon="2.1199480">
        <ele>313.6</ele>
        <time>2020-07-09T14:11:08Z</time>
      </trkpt>
      <trkpt lat="41.6277820" lon="2.1199310">
        <ele>313.5</ele>
        <time>2020-07-09T14:11:09Z</time>
      </trkpt>
      <trkpt lat="41.6277750" lon="2.1199140">
        <ele>313.4</ele>
        <time>2020-07-09T14:11:10Z</time>
      </trkpt>
      <trkpt lat="41.6277670" lon="2.1198970">
        <ele>313.3</ele>
        <time>2020-07-09T14:11:11Z</time>
      </trkpt>
      <trkpt lat="41.6277600" lon="2.1198790">
        <ele>313.2</ele>
        <time>2020-07-09T14:11:12Z</time>
      </trkpt>
      <trkpt lat="41.6277530" lon="2.1198620">
        <ele>313.1</ele>
        <time>2020-07-09T14:11:13Z</time>
      </trkpt>
      <trkpt lat="41.6277470" lon="2.1198440">
        <ele>313.0</ele>
        <time>2020-07-09T14:11:14Z</time>
      </trkpt>
      <trkpt lat="41.6277420" lon="2.1198260">
        <ele>312.8</ele>
        <time>2020-07-09T14:11:15Z</time>
      </trkpt>
      <trkpt lat="41.6277360" lon="2.1198080">
        <ele>312.7</ele>
        <time>2020-07-09T14:11:16Z</time>
      </trkpt>
      <trkpt lat="41.6277320" lon="2.1197890">
        <ele>312.6</ele>
        <time>2020-07-09T14:11:17Z</time>
      </trkpt>
      <trkpt lat="41.6277270" lon="2.1197710">
        <ele>312.5</ele>
        <time>2020-07-09T14:11:18Z</time>
      </trkpt>
      <trkpt lat="41.6277240" lon="2.1197520">
        <ele>312.3</ele>
        <time>2020-07-09T14:11:19Z</time>
      </trkpt>
      <trkpt lat="41.6277200" lon="2.1197340">
        <ele>312.2</ele>
        <time>2020-07-09T14:11:20Z</time>
      </trkpt>
      <trkpt lat="41.6277180" lon="2.1197150">
        <ele>312.1</ele>
        <time>2020-07-09T14:11:21Z</time>
      </trkpt>
      <trkpt lat="41.6277160" lon="2.1196960">
        <ele>311.9</ele>
        <time>2020-07-09T14:11:22Z</time>
      </trkpt>
      <trkpt lat="41.6277140" lon="2.1196770">
        <ele>311.8</ele>
        <time>2020-07-09T14:11:23Z</time>
      </trkpt>
      <trkpt lat="41.6277130" lon="2.1196590">
        <ele>311.7</ele>
        <time>2020-07-09T14:11:24Z</time>
      </trkpt>
      <trkpt lat="41.6277120" lon="2.1196390">
        <ele>311.5</ele>
        <time>2020-07-09T14:11:25Z</time>
      </trkpt>
      <trkpt lat="41.6277120" lon="2.1196200">
        <ele>311.4</ele>
        <time>2020-07-09T14:11:26Z</time>
      </trkpt>
      <trkpt lat="41.6277110" lon="2.1196010">
        <ele>311.3</ele>
        <time>2020-07-09T14:11:27Z</time>
      </trkpt>
      <trkpt lat="41.6277110" lon="2.1195810">
        <ele>311.1</ele>
        <time>2020-07-09T14:11:28Z</time>
      </trkpt>
      <trkpt lat="41.6277110" lon="2.1195610">
        <ele>311.0</ele>
        <time>2020-07-09T14:11:29Z</time>
      </trkpt>
      <trkpt lat="41.6277110" lon="2.1195410">
        <ele>310.9</ele>
        <time>2020-07-09T14:11:30Z</time>
      </trkpt>
      <trkpt lat="41.6277100" lon="2.1195200">
        <ele>310.7</ele>
        <time>2020-07-09T14:11:31Z</time>
      </trkpt>
      <trkpt lat="41.6277090" lon="2.1195000">
        <ele>310.6</ele>
        <time>2020-07-09T14:11:32Z</time>
      </trkpt>
      <trkpt lat="41.6277080" lon="2.1194780">
        <ele>310.5</ele>
        <time>2020-07-09T14:11:33Z</time>
      </trkpt>
      <trkpt lat="41.6277060" lon="2.1194570">
        <ele>310.4</ele>
        <time>2020-07-09T14:11:34Z</time>
      </trkpt>
      <trkpt lat="41.6277040" lon="2.1194370">
        <ele>310.3</ele>
        <time>2020-07-09T14:11:35Z</time>
      </trkpt>
      <trkpt lat="41.6277010" lon="2.1194160">
        <ele>310.2</ele>
        <time>2020-07-09T14:11:36Z</time>
      </trkpt>
      <trkpt lat="41.6276970" lon="2.1193960">
        <ele>310.1</ele>
        <time>2020-07-09T14:11:37Z</time>
      </trkpt>
      <trkpt lat="41.6276920" lon="2.1193770">
        <ele>310.0</ele>
        <time>2020-07-09T14:11:38Z</time>
      </trkpt>
      <trkpt lat="41.6276860" lon="2.1193590">
        <ele>309.9</ele>
        <time>2020-07-09T14:11:39Z</time>
      </trkpt>
      <trkpt lat="41.6276800" lon="2.1193430">
        <ele>309.8</ele>
        <time>2020-07-09T14:11:40Z</time>
      </trkpt>
      <trkpt lat="41.6276720" lon="2.1193270">
        <ele>309.7</ele>
        <time>2020-07-09T14:11:41Z</time>
      </trkpt>
      <trkpt lat="41.6276630" lon="2.1193130">
        <ele>309.6</ele>
        <time>2020-07-09T14:11:42Z</time>
      </trkpt>
      <trkpt lat="41.6276530" lon="2.1193000">
        <ele>309.5</ele>
        <time>2020-07-09T14:11:43Z</time>
      </trkpt>
      <trkpt lat="41.6276430" lon="2.1192880">
        <ele>309.4</ele>
        <time>2020-07-09T14:11:44Z</time>
      </trkpt>
      <trkpt lat="41.6276320" lon="2.1192770">
        <ele>309.3</ele>
        <time>2020-07-09T14:11:45Z</time>
      </trkpt>
      <trkpt lat="41.6276210" lon="2.1192670">
        <ele>309.3</ele>
        <time>2020-07-09T14:11:46Z</time>
      </trkpt>
      <trkpt lat="41.6276100" lon="2.1192580">
        <ele>309.2</ele>
        <time>2020-07-09T14:11:47Z</time>
      </trkpt>
      <trkpt lat="41.6275980" lon="2.1192490">
        <ele>309.1</ele>
        <time>2020-07-09T14:11:48Z</time>
      </trkpt>
      <trkpt lat="41.6275870" lon="2.1192400">
        <ele>309.0</ele>
        <time>2020-07-09T14:11:49Z</time>
      </trkpt>
      <trkpt lat="41.6275760" lon="2.1192320">
        <ele>308.9</ele>
        <time>2020-07-09T14:11:50Z</time>
      </trkpt>
      <trkpt lat="41.6275650" lon="2.1192240">
        <ele>308.9</ele>
        <time>2020-07-09T14:11:51Z</time>
      </trkpt>
      <trkpt lat="41.6275550" lon="2.1192170">
        <ele>308.8</ele>
        <time>2020-07-09T14:11:52Z</time>
      </trkpt>
      <trkpt lat="41.6275450" lon="2.1192090">
        <ele>308.7</ele>
        <time>2020-07-09T14:11:53Z</time>
      </trkpt>
      <trkpt lat="41.6275340" lon="2.1192020">
        <ele>308.6</ele>
        <time>2020-07-09T14:11:54Z</time>
      </trkpt>
      <trkpt lat="41.6275240" lon="2.1191960">
        <ele>308.6</ele>
        <time>2020-07-09T14:11:55Z</time>
      </trkpt>
      <trkpt lat="41.6275130" lon="2.1191900">
        <ele>308.5</ele>
        <time>2020-07-09T14:11:56Z</time>
      </trkpt>
      <trkpt lat="41.6275020" lon="2.1191850">
        <ele>308.4</ele>
        <time>2020-07-09T14:11:57Z</time>
      </trkpt>
      <trkpt lat="41.6274900" lon="2.1191800">
        <ele>308.4</ele>
        <time>2020-07-09T14:11:58Z</time>
      </trkpt>
      <trkpt lat="41.6274770" lon="2.1191770">
        <ele>308.3</ele>
        <time>2020-07-09T14:11:59Z</time>
      </trkpt>
      <trkpt lat="41.6274640" lon="2.1191740">
        <ele>308.2</ele>
        <time>2020-07-09T14:12:00Z</time>
      </trkpt>
      <trkpt lat="41.6274500" lon="2.1191710">
        <ele>308.1</ele>
        <time>2020-07-09T14:12:01Z</time>
      </trkpt>
      <trkpt lat="41.6274350" lon="2.1191690">
        <ele>308.1</ele>
        <time>2020-07-09T14:12:02Z</time>
      </trkpt>
      <trkpt lat="41.6274200" lon="2.1191680">
        <ele>308.0</ele>
        <time>2020-07-09T14:12:03Z</time>
      </trkpt>
      <trkpt lat="41.6274050" lon="2.1191660">
        <ele>307.9</ele>
        <time>2020-07-09T14:12:04Z</time>
      </trkpt>
      <trkpt lat="41.6273890" lon="2.1191640">
        <ele>307.8</ele>
        <time>2020-07-09T14:12:05Z</time>
      </trkpt>
      <trkpt lat="41.6273730" lon="2.1191620">
        <ele>307.7</ele>
        <time>2020-07-09T14:12:06Z</time>
      </trkpt>
      <trkpt lat="41.6273570" lon="2.1191590">
        <ele>307.6</ele>
        <time>2020-07-09T14:12:07Z</time>
      </trkpt>
      <trkpt lat="41.6273410" lon="2.1191560">
        <ele>307.5</ele>
        <time>2020-07-09T14:12:08Z</time>
      </trkpt>
      <trkpt lat="41.6273250" lon="2.1191520">
        <ele>307.4</ele>
        <time>2020-07-09T14:12:09Z</time>
      </trkpt>
      <trkpt lat="41.6273100" lon="2.1191470">
        <ele>307.3</ele>
        <time>2020-07-09T14:12:10Z</time>
      </trkpt>
      <trkpt lat="41.6272950" lon="2.1191420">
        <ele>307.2</ele>
        <time>2020-07-09T14:12:11Z</time>
      </trkpt>
      <trkpt lat="41.6272810" lon="2.1191370">
        <ele>307.1</ele>
        <time>2020-07-09T14:12:12Z</time>
      </trkpt>
      <trkpt lat="41.6272680" lon="2.1191330">
        <ele>307.0</ele>
        <time>2020-07-09T14:12:13Z</time>
      </trkpt>
      <trkpt lat="41.6272560" lon="2.1191290">
        <ele>307.0</ele>
        <time>2020-07-09T14:12:14Z</time>
      </trkpt>
      <trkpt lat="41.6272450" lon="2.1191270">
        <ele>306.9</ele>
        <time>2020-07-09T14:12:15Z</time>
      </trkpt>
      <trkpt lat="41.6272340" lon="2.1191240">
        <ele>306.8</ele>
        <time>2020-07-09T14:12:16Z</time>
      </trkpt>
      <trkpt lat="41.6272240" lon="2.1191230">
        <ele>306.8</ele>
        <time>2020-07-09T14:12:17Z</time>
      </trkpt>
      <trkpt lat="41.6272130" lon="2.1191210">
        <ele>306.7</ele>
        <time>2020-07-09T14:12:18Z</time>
      </trkpt>
      <trkpt lat="41.6272020" lon="2.1191190">
        <ele>306.6</ele>
        <time>2020-07-09T14:12:19Z</time>
      </trkpt>
      <trkpt lat="41.6271910" lon="2.1191180">
        <ele>306.6</ele>
        <time>2020-07-09T14:12:20Z</time>
      </trkpt>
      <trkpt lat="41.6271790" lon="2.1191170">
        <ele>306.5</ele>
        <time>2020-07-09T14:12:21Z</time>
      </trkpt>
      <trkpt lat="41.6271670" lon="2.1191160">
        <ele>306.4</ele>
        <time>2020-07-09T14:12:22Z</time>
      </trkpt>
      <trkpt lat="41.6271550" lon="2.1191150">
        <ele>306.4</ele>
        <time>2020-07-09T14:12:23Z</time>
      </trkpt>
      <trkpt lat="41.6271430" lon="2.1191140">
        <ele>306.3</ele>
        <time>2020-07-09T14:12:24Z</time>
      </trkpt>
      <trkpt lat="41.6271310" lon="2.1191140">
        <ele>306.2</ele>
        <time>2020-07-09T14:12:25Z</time>
      </trkpt>
      <trkpt lat="41.6271180" lon="2.1191140">
        <ele>306.1</ele>
        <time>2020-07-09T14:12:26Z</time>
      </trkpt>
      <trkpt lat="41.6271050" lon="2.1191150">
        <ele>306.1</ele>
        <time>2020-07-09T14:12:27Z</time>
      </trkpt>
      <trkpt lat="41.6270920" lon="2.1191150">
        <ele>306.0</ele>
        <time>2020-07-09T14:12:28Z</time>
      </trkpt>
      <trkpt lat="41.6270790" lon="2.1191160">
        <ele>305.9</ele>
        <time>2020-07-09T14:12:29Z</time>
      </trkpt>
      <trkpt lat="41.6270660" lon="2.1191180">
        <ele>305.8</ele>
        <time>2020-07-09T14:12:30Z</time>
      </trkpt>
      <trkpt lat="41.6270530" lon="2.1191200">
        <ele>305.7</ele>
        <time>2020-07-09T14:12:31Z</time>
      </trkpt>
      <trkpt lat="41.6270400" lon="2.1191220">
        <ele>305.7</ele>
        <time>2020-07-09T14:12:32Z</time>
      </trkpt>
      <trkpt lat="41.6270270" lon="2.1191250">
        <ele>305.6</ele>
        <time>2020-07-09T14:12:33Z</time>
      </trkpt>
      <trkpt lat="41.6270130" lon="2.1191280">
        <ele>305.5</ele>
        <time>2020-07-09T14:12:34Z</time>
      </trkpt>
      <trkpt lat="41.6270000" lon="2.1191320">
        <ele>305.4</ele>
        <time>2020-07-09T14:12:35Z</time>
      </trkpt>
      <trkpt lat="41.6269860" lon="2.1191360">
        <ele>305.4</ele>
        <time>2020-07-09T14:12:36Z</time>
      </trkpt>
      <trkpt lat="41.6269730" lon="2.1191410">
        <ele>305.3</ele>
        <time>2020-07-09T14:12:37Z</time>
      </trkpt>
      <trkpt lat="41.6269600" lon="2.1191460">
        <ele>305.2</ele>
        <time>2020-07-09T14:12:38Z</time>
      </trkpt>
      <trkpt lat="41.6269460" lon="2.1191520">
        <ele>305.1</ele>
        <time>2020-07-09T14:12:39Z</time>
      </trkpt>
      <trkpt lat="41.6269330" lon="2.1191580">
        <ele>305.1</ele>
        <time>2020-07-09T14:12:40Z</time>
      </trkpt>
      <trkpt lat="41.6269190" lon="2.1191640">
        <ele>305.0</ele>
        <time>2020-07-09T14:12:41Z</time>
      </trkpt>
      <trkpt lat="41.6269060" lon="2.1191710">
        <ele>305.0</ele>
        <time>2020-07-09T14:12:42Z</time>
      </trkpt>
      <trkpt lat="41.6268920" lon="2.1191770">
        <ele>304.9</ele>
        <time>2020-07-09T14:12:43Z</time>
      </trkpt>
      <trkpt lat="41.6268790" lon="2.1191840">
        <ele>304.8</ele>
        <time>2020-07-09T14:12:44Z</time>
      </trkpt>
      <trkpt lat="41.6268650" lon="2.1191910">
        <ele>304.8</ele>
        <time>2020-07-09T14:12:45Z</time>
      </trkpt>
      <trkpt lat="41.6268520" lon="2.1191970">
        <ele>304.7</ele>
        <time>2020-07-09T14:12:46Z</time>
      </trkpt>
      <trkpt lat="41.6268380" lon="2.1192040">
        <ele>304.6</ele>
        <time>2020-07-09T14:12:47Z</time>
      </trkpt>
      <trkpt lat="41.6268240" lon="2.1192100">
        <ele>304.6</ele>
        <time>2020-07-09T14:12:48Z</time>
      </trkpt>
      <trkpt lat="41.6268100" lon="2.1192160">
        <ele>304.5</ele>
        <time>2020-07-09T14:12:49Z</time>
      </trkpt>
      <trkpt lat="41.6267970" lon="2.1192210">
        <ele>304.5</ele>
        <time>2020-07-09T14:12:50Z</time>
      </trkpt>
      <trkpt lat="41.6267830" lon="2.1192260">
        <ele>304.4</ele>
        <time>2020-07-09T14:12:51Z</time>
      </trkpt>
      <trkpt lat="41.6267690" lon="2.1192310">
        <ele>304.3</ele>
        <time>2020-07-09T14:12:52Z</time>
      </trkpt>
      <trkpt lat="41.6267550" lon="2.1192340">
        <ele>304.3</ele>
        <time>2020-07-09T14:12:53Z</time>
      </trkpt>
      <trkpt lat="41.6267410" lon="2.1192380">
        <ele>304.2</ele>
        <time>2020-07-09T14:12:54Z</time>
      </trkpt>
      <trkpt lat="41.6267260" lon="2.1192400">
        <ele>304.2</ele>
        <time>2020-07-09T14:12:55Z</time>
      </trkpt>
      <trkpt lat="41.6267120" lon="2.1192420">
        <ele>304.1</ele>
        <time>2020-07-09T14:12:56Z</time>
      </trkpt>
      <trkpt lat="41.6266980" lon="2.1192430">
        <ele>304.0</ele>
        <time>2020-07-09T14:12:57Z</time>
      </trkpt>
      <trkpt lat="41.6266840" lon="2.1192430">
        <ele>304.0</ele>
        <time>2020-07-09T14:12:58Z</time>
      </trkpt>
      <trkpt lat="41.6266690" lon="2.1192430">
        <ele>303.9</ele>
        <time>2020-07-09T14:12:59Z</time>
      </trkpt>
      <trkpt lat="41.6266550" lon="2.1192410">
        <ele>303.9</ele>
        <time>2020-07-09T14:13:00Z</time>
      </trkpt>
      <trkpt lat="41.6266400" lon="2.1192390">
        <ele>303.8</ele>
        <time>2020-07-09T14:13:01Z</time>
      </trkpt>
      <trkpt lat="41.6266260" lon="2.1192350">
        <ele>303.8</ele>
        <time>2020-07-09T14:13:02Z</time>
      </trkpt>
      <trkpt lat="41.6266120" lon="2.1192310">
        <ele>303.7</ele>
        <time>2020-07-09T14:13:03Z</time>
      </trkpt>
      <trkpt lat="41.6265970" lon="2.1192260">
        <ele>303.6</ele>
        <time>2020-07-09T14:13:04Z</time>
      </trkpt>
      <trkpt lat="41.6265830" lon="2.1192200">
        <ele>303.6</ele>
        <time>2020-07-09T14:13:05Z</time>
      </trkpt>
      <trkpt lat="41.6265690" lon="2.1192130">
        <ele>303.5</ele>
        <time>2020-07-09T14:13:06Z</time>
      </trkpt>
      <trkpt lat="41.6265550" lon="2.1192050">
        <ele>303.5</ele>
        <time>2020-07-09T14:13:07Z</time>
      </trkpt>
      <trkpt lat="41.6265410" lon="2.1191960">
        <ele>303.4</ele>
        <time>2020-07-09T14:13:08Z</time>
      </trkpt>
      <trkpt lat="41.6265280" lon="2.1191860">
        <ele>303.4</ele>
        <time>2020-07-09T14:13:09Z</time>
      </trkpt>
      <trkpt lat="41.6265150" lon="2.1191750">
        <ele>303.3</ele>
        <time>2020-07-09T14:13:10Z</time>
      </trkpt>
      <trkpt lat="41.6265030" lon="2.1191640">
        <ele>303.2</ele>
        <time>2020-07-09T14:13:11Z</time>
      </trkpt>
      <trkpt lat="41.6264910" lon="2.1191510">
        <ele>303.1</ele>
        <time>2020-07-09T14:13:12Z</time>
      </trkpt>
      <trkpt lat="41.6264800" lon="2.1191380">
        <ele>303.0</ele>
        <time>2020-07-09T14:13:13Z</time>
      </trkpt>
      <trkpt lat="41.6264700" lon="2.1191230">
        <ele>302.9</ele>
        <time>2020-07-09T14:13:14Z</time>
      </trkpt>
      <trkpt lat="41.6264600" lon="2.1191080">
        <ele>302.8</ele>
        <time>2020-07-09T14:13:15Z</time>
      </trkpt>
      <trkpt lat="41.6264510" lon="2.1190920">
        <ele>302.7</ele>
        <time>2020-07-09T14:13:16Z</time>
      </trkpt>
      <trkpt lat="41.6264430" lon="2.1190750">
        <ele>302.6</ele>
        <time>2020-07-09T14:13:17Z</time>
      </trkpt>
      <trkpt lat="41.6264350" lon="2.1190580">
        <ele>302.5</ele>
        <time>2020-07-09T14:13:18Z</time>
      </trkpt>
      <trkpt lat="41.6264280" lon="2.1190400">
        <ele>302.3</ele>
        <time>2020-07-09T14:13:19Z</time>
      </trkpt>
      <trkpt lat="41.6264220" lon="2.1190220">
        <ele>302.2</ele>
        <time>2020-07-09T14:13:20Z</time>
      </trkpt>
      <trkpt lat="41.6264160" lon="2.1190030">
        <ele>302.1</ele>
        <time>2020-07-09T14:13:21Z</time>
      </trkpt>
      <trkpt lat="41.6264100" lon="2.1189840">
        <ele>301.9</ele>
        <time>2020-07-09T14:13:22Z</time>
      </trkpt>
      <trkpt lat="41.6264040" lon="2.1189640">
        <ele>301.7</ele>
        <time>2020-07-09T14:13:23Z</time>
      </trkpt>
      <trkpt lat="41.6263990" lon="2.1189440">
        <ele>301.6</ele>
        <time>2020-07-09T14:13:24Z</time>
      </trkpt>
      <trkpt lat="41.6263940" lon="2.1189240">
        <ele>301.4</ele>
        <time>2020-07-09T14:13:25Z</time>
      </trkpt>
      <trkpt lat="41.6263890" lon="2.1189040">
        <ele>301.2</ele>
        <time>2020-07-09T14:13:26Z</time>
      </trkpt>
      <trkpt lat="41.6263840" lon="2.1188840">
        <ele>301.1</ele>
        <time>2020-07-09T14:13:27Z</time>
      </trkpt>
      <trkpt lat="41.6263790" lon="2.1188640">
        <ele>300.9</ele>
        <time>2020-07-09T14:13:28Z</time>
      </trkpt>
      <trkpt lat="41.6263740" lon="2.1188440">
        <ele>300.7</ele>
        <time>2020-07-09T14:13:29Z</time>
      </trkpt>
      <trkpt lat="41.6263680" lon="2.1188240">
        <ele>300.5</ele>
        <time>2020-07-09T14:13:30Z</time>
      </trkpt>
      <trkpt lat="41.6263620" lon="2.1188050">
        <ele>300.3</ele>
        <time>2020-07-09T14:13:31Z</time>
      </trkpt>
      <trkpt lat="41.6263550" lon="2.1187860">
        <ele>300.0</ele>
        <time>2020-07-09T14:13:32Z</time>
      </trkpt>
      <trkpt lat="41.6263480" lon="2.1187680">
        <ele>299.8</ele>
        <time>2020-07-09T14:13:33Z</time>
      </trkpt>
      <trkpt lat="41.6263400" lon="2.1187510">
        <ele>299.6</ele>
        <time>2020-07-09T14:13:34Z</time>
      </trkpt>
      <trkpt lat="41.6263320" lon="2.1187350">
        <ele>299.4</ele>
        <time>2020-07-09T14:13:35Z</time>
      </trkpt>
      <trkpt lat="41.6263220" lon="2.1187210">
        <ele>299.2</ele>
        <time>2020-07-09T14:13:36Z</time>
      </trkpt>
      <trkpt lat="41.6263120" lon="2.1187080">
        <ele>299.0</ele>
        <time>2020-07-09T14:13:37Z</time>
      </trkpt>
      <trkpt lat="41.6263010" lon="2.1186980">
        <ele>298.8</ele>
        <time>2020-07-09T14:13:38Z</time>
      </trkpt>
      <trkpt lat="41.6262890" lon="2.1186910">
        <ele>298.6</ele>
        <time>2020-07-09T14:13:39Z</time>
      </trkpt>
      <trkpt lat="41.6262760" lon="2.1186860">
        <ele>298.5</ele>
        <time>2020-07-09T14:13:40Z</time>
      </trkpt>
      <trkpt lat="41.6262610" lon="2.1186840">
        <ele>298.2</ele>
        <time>2020-07-09T14:13:41Z</time>
      </trkpt>
      <trkpt lat="41.6262460" lon="2.1186850">
        <ele>298.0</ele>
        <time>2020-07-09T14:13:42Z</time>
      </trkpt>
      <trkpt lat="41.6262310" lon="2.1186890">
        <ele>297.8</ele>
        <time>2020-07-09T14:13:43Z</time>
      </trkpt>
      <trkpt lat="41.6262160" lon="2.1186970">
        <ele>297.5</ele>
        <time>2020-07-09T14:13:44Z</time>
      </trkpt>
      <trkpt lat="41.6262030" lon="2.1187080">
        <ele>297.3</ele>
        <time>2020-07-09T14:13:45Z</time>
      </trkpt>
      <trkpt lat="41.6261930" lon="2.1187220">
        <ele>297.1</ele>
        <time>2020-07-09T14:13:46Z</time>
      </trkpt>
      <trkpt lat="41.6261850" lon="2.1187390">
        <ele>296.9</ele>
        <time>2020-07-09T14:13:47Z</time>
      </trkpt>
      <trkpt lat="41.6261810" lon="2.1187580">
        <ele>296.7</ele>
        <time>2020-07-09T14:13:48Z</time>
      </trkpt>
      <trkpt lat="41.6261770" lon="2.1187790">
        <ele>296.4</ele>
        <time>2020-07-09T14:13:49Z</time>
      </trkpt>
      <trkpt lat="41.6261740" lon="2.1188000">
        <ele>296.2</ele>
        <time>2020-07-09T14:13:50Z</time>
      </trkpt>
      <trkpt lat="41.6261710" lon="2.1188210">
        <ele>296.0</ele>
        <time>2020-07-09T14:13:51Z</time>
      </trkpt>
      <trkpt lat="41.6261670" lon="2.1188420">
        <ele>295.7</ele>
        <time>2020-07-09T14:13:52Z</time>
      </trkpt>
      <trkpt lat="41.6261630" lon="2.1188630">
        <ele>295.5</ele>
        <time>2020-07-09T14:13:53Z</time>
      </trkpt>
      <trkpt lat="41.6261580" lon="2.1188830">
        <ele>295.2</ele>
        <time>2020-07-09T14:13:54Z</time>
      </trkpt>
      <trkpt lat="41.6261540" lon="2.1189040">
        <ele>295.0</ele>
        <time>2020-07-09T14:13:55Z</time>
      </trkpt>
      <trkpt lat="41.6261490" lon="2.1189240">
        <ele>294.8</ele>
        <time>2020-07-09T14:13:56Z</time>
      </trkpt>
      <trkpt lat="41.6261450" lon="2.1189440">
        <ele>294.5</ele>
        <time>2020-07-09T14:13:57Z</time>
      </trkpt>
      <trkpt lat="41.6261410" lon="2.1189640">
        <ele>294.3</ele>
        <time>2020-07-09T14:13:58Z</time>
      </trkpt>
      <trkpt lat="41.6261380" lon="2.1189840">
        <ele>294.1</ele>
        <time>2020-07-09T14:13:59Z</time>
      </trkpt>
      <trkpt lat="41.6261360" lon="2.1190040">
        <ele>293.9</ele>
        <time>2020-07-09T14:14:00Z</time>
      </trkpt>
      <trkpt lat="41.6261340" lon="2.1190230">
        <ele>293.7</ele>
        <time>2020-07-09T14:14:01Z</time>
      </trkpt>
      <trkpt lat="41.6261330" lon="2.1190430">
        <ele>293.5</ele>
        <time>2020-07-09T14:14:02Z</time>
      </trkpt>
      <trkpt lat="41.6261320" lon="2.1190620">
        <ele>293.3</ele>
        <time>2020-07-09T14:14:03Z</time>
      </trkpt>
      <trkpt lat="41.6261310" lon="2.1190820">
        <ele>293.1</ele>
        <time>2020-07-09T14:14:04Z</time>
      </trkpt>
      <trkpt lat="41.6261310" lon="2.1191010">
        <ele>293.0</ele>
        <time>2020-07-09T14:14:05Z</time>
      </trkpt>
      <trkpt lat="41.6261310" lon="2.1191200">
        <ele>292.8</ele>
        <time>2020-07-09T14:14:06Z</time>
      </trkpt>
      <trkpt lat="41.6261300" lon="2.1191390">
        <ele>292.6</ele>
        <time>2020-07-09T14:14:07Z</time>
      </trkpt>
      <trkpt lat="41.6261300" lon="2.1191590">
        <ele>292.4</ele>
        <time>2020-07-09T14:14:08Z</time>
      </trkpt>
      <trkpt lat="41.6261290" lon="2.1191780">
        <ele>292.3</ele>
        <time>2020-07-09T14:14:09Z</time>
      </trkpt>
      <trkpt lat="41.6261280" lon="2.1191970">
        <ele>292.1</ele>
        <time>2020-07-09T14:14:10Z</time>
      </trkpt>
      <trkpt lat="41.6261270" lon="2.1192160">
        <ele>291.9</ele>
        <time>2020-07-09T14:14:11Z</time>
      </trkpt>
      <trkpt lat="41.6261260" lon="2.1192340">
        <ele>291.8</ele>
        <time>2020-07-09T14:14:12Z</time>
      </trkpt>
      <trkpt lat="41.6261250" lon="2.1192530">
        <ele>291.6</ele>
        <time>2020-07-09T14:14:13Z</time>
      </trkpt>
      <trkpt lat="41.6261240" lon="2.1192720">
        <ele>291.5</ele>
        <time>2020-07-09T14:14:14Z</time>
      </trkpt>
      <trkpt lat="41.6261230" lon="2.1192910">
        <ele>291.3</ele>
        <time>2020-07-09T14:14:15Z</time>
      </trkpt>
      <trkpt lat="41.6261220" lon="2.1193100">
        <ele>291.1</ele>
        <time>2020-07-09T14:14:16Z</time>
      </trkpt>
      <trkpt lat="41.6261220" lon="2.1193290">
        <ele>291.0</ele>
        <time>2020-07-09T14:14:17Z</time>
      </trkpt>
      <trkpt lat="41.6261210" lon="2.1193480">
        <ele>290.8</ele>
        <time>2020-07-09T14:14:18Z</time>
      </trkpt>
      <trkpt lat="41.6261210" lon="2.1193670">
        <ele>290.7</ele>
        <time>2020-07-09T14:14:19Z</time>
      </trkpt>
      <trkpt lat="41.6261210" lon="2.1193860">
        <ele>290.5</ele>
        <time>2020-07-09T14:14:20Z</time>
      </trkpt>
      <trkpt lat="41.6261220" lon="2.1194050">
        <ele>290.4</ele>
        <time>2020-07-09T14:14:21Z</time>
      </trkpt>
      <trkpt lat="41.6261230" lon="2.1194240">
        <ele>290.2</ele>
        <time>2020-07-09T14:14:22Z</time>
      </trkpt>
      <trkpt lat="41.6261250" lon="2.1194430">
        <ele>290.1</ele>
        <time>2020-07-09T14:14:23Z</time>
      </trkpt>
      <trkpt lat="41.6261270" lon="2.1194630">
        <ele>289.9</ele>
        <time>2020-07-09T14:14:24Z</time>
      </trkpt>
      <trkpt lat="41.6261290" lon="2.1194820">
        <ele>289.8</ele>
        <time>2020-07-09T14:14:25Z</time>
      </trkpt>
      <trkpt lat="41.6261330" lon="2.1195020">
        <ele>289.6</ele>
        <time>2020-07-09T14:14:26Z</time>
      </trkpt>
      <trkpt lat="41.6261370" lon="2.1195220">
        <ele>289.4</ele>
        <time>2020-07-09T14:14:27Z</time>
      </trkpt>
      <trkpt lat="41.6261420" lon="2.1195410">
        <ele>289.3</ele>
        <time>2020-07-09T14:14:28Z</time>
      </trkpt>
      <trkpt lat="41.6261470" lon="2.1195610">
        <ele>289.1</ele>
        <time>2020-07-09T14:14:29Z</time>
      </trkpt>
      <trkpt lat="41.6261530" lon="2.1195810">
        <ele>289.0</ele>
        <time>2020-07-09T14:14:30Z</time>
      </trkpt>
      <trkpt lat="41.6261600" lon="2.1196010">
        <ele>288.8</ele>
        <time>2020-07-09T14:14:31Z</time>
      </trkpt>
      <trkpt lat="41.6261670" lon="2.1196200">
        <ele>288.6</ele>
        <time>2020-07-09T14:14:32Z</time>
      </trkpt>
      <trkpt lat="41.6261750" lon="2.1196400">
        <ele>288.5</ele>
        <time>2020-07-09T14:14:33Z</time>
      </trkpt>
      <trkpt lat="41.6261830" lon="2.1196580">
        <ele>288.3</ele>
        <time>2020-07-09T14:14:34Z</time>
      </trkpt>
      <trkpt lat="41.6261910" lon="2.1196770">
        <ele>288.2</ele>
        <time>2020-07-09T14:14:35Z</time>
      </trkpt>
      <trkpt lat="41.6262000" lon="2.1196940">
        <ele>288.0</ele>
        <time>2020-07-09T14:14:36Z</time>
      </trkpt>
      <trkpt lat="41.6262090" lon="2.1197110">
        <ele>287.9</ele>
        <time>2020-07-09T14:14:37Z</time>
      </trkpt>
      <trkpt lat="41.6262180" lon="2.1197270">
        <ele>287.7</ele>
        <time>2020-07-09T14:14:38Z</time>
      </trkpt>
      <trkpt lat="41.6262270" lon="2.1197430">
        <ele>287.6</ele>
        <time>2020-07-09T14:14:39Z</time>
      </trkpt>
      <trkpt lat="41.6262370" lon="2.1197580">
        <ele>287.5</ele>
        <time>2020-07-09T14:14:40Z</time>
      </trkpt>
      <trkpt lat="41.6262460" lon="2.1197730">
        <ele>287.1</ele>
        <time>2020-07-09T14:14:41Z</time>
      </trkpt>
      <trkpt lat="41.6262550" lon="2.1197870">
        <ele>287.0</ele>
        <time>2020-07-09T14:14:42Z</time>
      </trkpt>
      <trkpt lat="41.6262650" lon="2.1198010">
        <ele>286.9</ele>
        <time>2020-07-09T14:14:43Z</time>
      </trkpt>
      <trkpt lat="41.6262740" lon="2.1198140">
        <ele>286.8</ele>
        <time>2020-07-09T14:14:44Z</time>
      </trkpt>
      <trkpt lat="41.6262840" lon="2.1198270">
        <ele>286.6</ele>
        <time>2020-07-09T14:14:45Z</time>
      </trkpt>
      <trkpt lat="41.6262930" lon="2.1198390">
        <ele>286.5</ele>
        <time>2020-07-09T14:14:46Z</time>
      </trkpt>
      <trkpt lat="41.6263020" lon="2.1198510">
        <ele>286.4</ele>
        <time>2020-07-09T14:14:47Z</time>
      </trkpt>
      <trkpt lat="41.6263110" lon="2.1198630">
        <ele>286.3</ele>
        <time>2020-07-09T14:14:48Z</time>
      </trkpt>
      <trkpt lat="41.6263200" lon="2.1198750">
        <ele>286.2</ele>
        <time>2020-07-09T14:14:49Z</time>
      </trkpt>
      <trkpt lat="41.6263290" lon="2.1198870">
        <ele>286.1</ele>
        <time>2020-07-09T14:14:50Z</time>
      </trkpt>
      <trkpt lat="41.6263380" lon="2.1198990">
        <ele>286.0</ele>
        <time>2020-07-09T14:14:51Z</time>
      </trkpt>
      <trkpt lat="41.6263470" lon="2.1199110">
        <ele>285.9</ele>
        <time>2020-07-09T14:14:52Z</time>
      </trkpt>
      <trkpt lat="41.6263560" lon="2.1199230">
        <ele>285.8</ele>
        <time>2020-07-09T14:14:53Z</time>
      </trkpt>
      <trkpt lat="41.6263650" lon="2.1199350">
        <ele>285.7</ele>
        <time>2020-07-09T14:14:54Z</time>
      </trkpt>
      <trkpt lat="41.6263740" lon="2.1199470">
        <ele>285.6</ele>
        <time>2020-07-09T14:14:55Z</time>
      </trkpt>
      <trkpt lat="41.6263830" lon="2.1199600">
        <ele>285.5</ele>
        <time>2020-07-09T14:14:56Z</time>
      </trkpt>
      <trkpt lat="41.6263930" lon="2.1199730">
        <ele>285.4</ele>
        <time>2020-07-09T14:14:57Z</time>
      </trkpt>
      <trkpt lat="41.6264020" lon="2.1199860">
        <ele>285.3</ele>
        <time>2020-07-09T14:14:58Z</time>
      </trkpt>
      <trkpt lat="41.6264120" lon="2.1200000">
        <ele>285.2</ele>
        <time>2020-07-09T14:14:59Z</time>
      </trkpt>
      <trkpt lat="41.6264210" lon="2.1200140">
        <ele>285.1</ele>
        <time>2020-07-09T14:15:00Z</time>
      </trkpt>
      <trkpt lat="41.6264300" lon="2.1200280">
        <ele>285.0</ele>
        <time>2020-07-09T14:15:01Z</time>
      </trkpt>
      <trkpt lat="41.6264390" lon="2.1200430">
        <ele>284.9</ele>
        <time>2020-07-09T14:15:02Z</time>
      </trkpt>
      <trkpt lat="41.6264480" lon="2.1200580">
        <ele>284.8</ele>
        <time>2020-07-09T14:15:03Z</time>
      </trkpt>
      <trkpt lat="41.6264560" lon="2.1200730">
        <ele>284.7</ele>
        <time>2020-07-09T14:15:04Z</time>
      </trkpt>
      <trkpt lat="41.6264640" lon="2.1200890">
        <ele>284.5</ele>
        <time>2020-07-09T14:15:05Z</time>
      </trkpt>
      <trkpt lat="41.6264720" lon="2.1201050">
        <ele>284.4</ele>
        <time>2020-07-09T14:15:06Z</time>
      </trkpt>
      <trkpt lat="41.6264790" lon="2.1201220">
        <ele>284.3</ele>
        <time>2020-07-09T14:15:07Z</time>
      </trkpt>
      <trkpt lat="41.6264850" lon="2.1201390">
        <ele>284.2</ele>
        <time>2020-07-09T14:15:08Z</time>
      </trkpt>
      <trkpt lat="41.6264910" lon="2.1201560">
        <ele>284.1</ele>
        <time>2020-07-09T14:15:09Z</time>
      </trkpt>
      <trkpt lat="41.6264970" lon="2.1201740">
        <ele>283.9</ele>
        <time>2020-07-09T14:15:10Z</time>
      </trkpt>
      <trkpt lat="41.6265020" lon="2.1201920">
        <ele>283.8</ele>
        <time>2020-07-09T14:15:11Z</time>
      </trkpt>
      <trkpt lat="41.6265060" lon="2.1202100">
        <ele>283.7</ele>
        <time>2020-07-09T14:15:12Z</time>
      </trkpt>
      <trkpt lat="41.6265100" lon="2.1202280">
        <ele>283.6</ele>
        <time>2020-07-09T14:15:13Z</time>
      </trkpt>
      <trkpt lat="41.6265140" lon="2.1202470">
        <ele>283.5</ele>
        <time>2020-07-09T14:15:14Z</time>
      </trkpt>
      <trkpt lat="41.6265170" lon="2.1202660">
        <ele>283.3</ele>
        <time>2020-07-09T14:15:15Z</time>
      </trkpt>
      <trkpt lat="41.6265190" lon="2.1202850">
        <ele>283.0</ele>
        <time>2020-07-09T14:15:16Z</time>
      </trkpt>
      <trkpt lat="41.6265210" lon="2.1203040">
        <ele>282.9</ele>
        <time>2020-07-09T14:15:17Z</time>
      </trkpt>
      <trkpt lat="41.6265220" lon="2.1203240">
        <ele>282.8</ele>
        <time>2020-07-09T14:15:18Z</time>
      </trkpt>
      <trkpt lat="41.6265230" lon="2.1203430">
        <ele>282.7</ele>
        <time>2020-07-09T14:15:19Z</time>
      </trkpt>
      <trkpt lat="41.6265230" lon="2.1203630">
        <ele>282.5</ele>
        <time>2020-07-09T14:15:20Z</time>
      </trkpt>
      <trkpt lat="41.6265220" lon="2.1203830">
        <ele>282.4</ele>
        <time>2020-07-09T14:15:21Z</time>
      </trkpt>
      <trkpt lat="41.6265210" lon="2.1204030">
        <ele>282.3</ele>
        <time>2020-07-09T14:15:22Z</time>
      </trkpt>
      <trkpt lat="41.6265190" lon="2.1204230">
        <ele>282.2</ele>
        <time>2020-07-09T14:15:23Z</time>
      </trkpt>
      <trkpt lat="41.6265170" lon="2.1204440">
        <ele>282.0</ele>
        <time>2020-07-09T14:15:24Z</time>
      </trkpt>
      <trkpt lat="41.6265140" lon="2.1204640">
        <ele>281.9</ele>
        <time>2020-07-09T14:15:25Z</time>
      </trkpt>
      <trkpt lat="41.6265100" lon="2.1204840">
        <ele>281.8</ele>
        <time>2020-07-09T14:15:26Z</time>
      </trkpt>
      <trkpt lat="41.6265060" lon="2.1205040">
        <ele>281.6</ele>
        <time>2020-07-09T14:15:27Z</time>
      </trkpt>
      <trkpt lat="41.6265010" lon="2.1205240">
        <ele>281.5</ele>
        <time>2020-07-09T14:15:28Z</time>
      </trkpt>
      <trkpt lat="41.6264960" lon="2.1205440">
        <ele>281.4</ele>
        <time>2020-07-09T14:15:29Z</time>
      </trkpt>
      <trkpt lat="41.6264900" lon="2.1205630">
        <ele>281.2</ele>
        <time>2020-07-09T14:15:30Z</time>
      </trkpt>
      <trkpt lat="41.6264830" lon="2.1205830">
        <ele>281.1</ele>
        <time>2020-07-09T14:15:31Z</time>
      </trkpt>
      <trkpt lat="41.6264730" lon="2.1206110">
        <ele>280.9</ele>
        <time>2020-07-09T14:15:32Z</time>
      </trkpt>
      <trkpt lat="41.6264690" lon="2.1206200">
        <ele>280.8</ele>
        <time>2020-07-09T14:15:33Z</time>
      </trkpt>
      <trkpt lat="41.6264610" lon="2.1206380">
        <ele>280.6</ele>
        <time>2020-07-09T14:15:34Z</time>
      </trkpt>
      <trkpt lat="41.6264520" lon="2.1206560">
        <ele>280.5</ele>
        <time>2020-07-09T14:15:35Z</time>
      </trkpt>
      <trkpt lat="41.6264430" lon="2.1206730">
        <ele>280.3</ele>
        <time>2020-07-09T14:15:36Z</time>
      </trkpt>
      <trkpt lat="41.6264330" lon="2.1206890">
        <ele>280.1</ele>
        <time>2020-07-09T14:15:37Z</time>
      </trkpt>
      <trkpt lat="41.6264230" lon="2.1207050">
        <ele>280.0</ele>
        <time>2020-07-09T14:15:38Z</time>
      </trkpt>
      <trkpt lat="41.6264130" lon="2.1207200">
        <ele>279.8</ele>
        <time>2020-07-09T14:15:39Z</time>
      </trkpt>
      <trkpt lat="41.6264020" lon="2.1207340">
        <ele>279.7</ele>
        <time>2020-07-09T14:15:40Z</time>
      </trkpt>
      <trkpt lat="41.6263910" lon="2.1207480">
        <ele>279.5</ele>
        <time>2020-07-09T14:15:41Z</time>
      </trkpt>
      <trkpt lat="41.6263790" lon="2.1207600">
        <ele>279.4</ele>
        <time>2020-07-09T14:15:42Z</time>
      </trkpt>
      <trkpt lat="41.6263670" lon="2.1207720">
        <ele>279.2</ele>
        <time>2020-07-09T14:15:43Z</time>
      </trkpt>
      <trkpt lat="41.6263550" lon="2.1207820">
        <ele>279.1</ele>
        <time>2020-07-09T14:15:44Z</time>
      </trkpt>
      <trkpt lat="41.6263420" lon="2.1207910">
        <ele>278.9</ele>
        <time>2020-07-09T14:15:45Z</time>
      </trkpt>
      <trkpt lat="41.6263280" lon="2.1207990">
        <ele>278.7</ele>
        <time>2020-07-09T14:15:46Z</time>
      </trkpt>
      <trkpt lat="41.6263140" lon="2.1208040">
        <ele>278.6</ele>
        <time>2020-07-09T14:15:47Z</time>
      </trkpt>
      <trkpt lat="41.6262990" lon="2.1208080">
        <ele>278.4</ele>
        <time>2020-07-09T14:15:48Z</time>
      </trkpt>
      <trkpt lat="41.6262840" lon="2.1208090">
        <ele>278.2</ele>
        <time>2020-07-09T14:15:49Z</time>
      </trkpt>
      <trkpt lat="41.6262680" lon="2.1208090">
        <ele>278.0</ele>
        <time>2020-07-09T14:15:50Z</time>
      </trkpt>
      <trkpt lat="41.6262510" lon="2.1208050">
        <ele>277.8</ele>
        <time>2020-07-09T14:15:51Z</time>
      </trkpt>
      <trkpt lat="41.6262340" lon="2.1208000">
        <ele>277.6</ele>
        <time>2020-07-09T14:15:52Z</time>
      </trkpt>
      <trkpt lat="41.6262170" lon="2.1207920">
        <ele>277.4</ele>
        <time>2020-07-09T14:15:53Z</time>
      </trkpt>
      <trkpt lat="41.6261990" lon="2.1207830">
        <ele>277.2</ele>
        <time>2020-07-09T14:15:54Z</time>
      </trkpt>
      <trkpt lat="41.6261820" lon="2.1207730">
        <ele>277.0</ele>
        <time>2020-07-09T14:15:55Z</time>
      </trkpt>
      <trkpt lat="41.6261650" lon="2.1207610">
        <ele>276.7</ele>
        <time>2020-07-09T14:15:56Z</time>
      </trkpt>
      <trkpt lat="41.6261480" lon="2.1207490">
        <ele>276.5</ele>
        <time>2020-07-09T14:15:57Z</time>
      </trkpt>
      <trkpt lat="41.6261320" lon="2.1207370">
        <ele>276.3</ele>
        <time>2020-07-09T14:15:58Z</time>
      </trkpt>
      <trkpt lat="41.6261170" lon="2.1207250">
        <ele>276.1</ele>
        <time>2020-07-09T14:15:59Z</time>
      </trkpt>
      <trkpt lat="41.6261040" lon="2.1207130">
        <ele>275.9</ele>
        <time>2020-07-09T14:16:00Z</time>
      </trkpt>
      <trkpt lat="41.6260910" lon="2.1207010">
        <ele>275.7</ele>
        <time>2020-07-09T14:16:01Z</time>
      </trkpt>
      <trkpt lat="41.6260790" lon="2.1206890">
        <ele>275.6</ele>
        <time>2020-07-09T14:16:02Z</time>
      </trkpt>
      <trkpt lat="41.6260670" lon="2.1206780">
        <ele>275.4</ele>
        <time>2020-07-09T14:16:03Z</time>
      </trkpt>
      <trkpt lat="41.6260560" lon="2.1206670">
        <ele>275.3</ele>
        <time>2020-07-09T14:16:04Z</time>
      </trkpt>
      <trkpt lat="41.6260460" lon="2.1206570">
        <ele>275.1</ele>
        <time>2020-07-09T14:16:05Z</time>
      </trkpt>
      <trkpt lat="41.6260360" lon="2.1206460">
        <ele>275.0</ele>
        <time>2020-07-09T14:16:06Z</time>
      </trkpt>
      <trkpt lat="41.6260250" lon="2.1206360">
        <ele>274.8</ele>
        <time>2020-07-09T14:16:07Z</time>
      </trkpt>
      <trkpt lat="41.6260150" lon="2.1206270">
        <ele>274.7</ele>
        <time>2020-07-09T14:16:08Z</time>
      </trkpt>
      <trkpt lat="41.6260050" lon="2.1206170">
        <ele>274.6</ele>
        <time>2020-07-09T14:16:09Z</time>
      </trkpt>
      <trkpt lat="41.6259940" lon="2.1206080">
        <ele>274.4</ele>
        <time>2020-07-09T14:16:10Z</time>
      </trkpt>
      <trkpt lat="41.6259830" lon="2.1206000">
        <ele>274.3</ele>
        <time>2020-07-09T14:16:11Z</time>
      </trkpt>
      <trkpt lat="41.6259720" lon="2.1205920">
        <ele>274.2</ele>
        <time>2020-07-09T14:16:12Z</time>
      </trkpt>
      <trkpt lat="41.6259600" lon="2.1205840">
        <ele>274.0</ele>
        <time>2020-07-09T14:16:13Z</time>
      </trkpt>
      <trkpt lat="41.6259480" lon="2.1205770">
        <ele>273.9</ele>
        <time>2020-07-09T14:16:14Z</time>
      </trkpt>
      <trkpt lat="41.6259350" lon="2.1205710">
        <ele>273.7</ele>
        <time>2020-07-09T14:16:15Z</time>
      </trkpt>
      <trkpt lat="41.6259230" lon="2.1205660">
        <ele>273.6</ele>
        <time>2020-07-09T14:16:16Z</time>
      </trkpt>
      <trkpt lat="41.6259090" lon="2.1205610">
        <ele>273.4</ele>
        <time>2020-07-09T14:16:17Z</time>
      </trkpt>
      <trkpt lat="41.6258950" lon="2.1205570">
        <ele>273.2</ele>
        <time>2020-07-09T14:16:18Z</time>
      </trkpt>
      <trkpt lat="41.6258810" lon="2.1205550">
        <ele>273.1</ele>
        <time>2020-07-09T14:16:19Z</time>
      </trkpt>
      <trkpt lat="41.6258670" lon="2.1205530">
        <ele>272.9</ele>
        <time>2020-07-09T14:16:20Z</time>
      </trkpt>
      <trkpt lat="41.6258520" lon="2.1205530">
        <ele>272.7</ele>
        <time>2020-07-09T14:16:21Z</time>
      </trkpt>
      <trkpt lat="41.6258380" lon="2.1205530">
        <ele>272.5</ele>
        <time>2020-07-09T14:16:22Z</time>
      </trkpt>
      <trkpt lat="41.6258240" lon="2.1205560">
        <ele>272.4</ele>
        <time>2020-07-09T14:16:23Z</time>
      </trkpt>
      <trkpt lat="41.6258100" lon="2.1205590">
        <ele>272.2</ele>
        <time>2020-07-09T14:16:24Z</time>
      </trkpt>
      <trkpt lat="41.6257960" lon="2.1205650">
        <ele>272.0</ele>
        <time>2020-07-09T14:16:25Z</time>
      </trkpt>
      <trkpt lat="41.6257840" lon="2.1205720">
        <ele>271.9</ele>
        <time>2020-07-09T14:16:26Z</time>
      </trkpt>
      <trkpt lat="41.6257720" lon="2.1205810">
        <ele>271.7</ele>
        <time>2020-07-09T14:16:27Z</time>
      </trkpt>
      <trkpt lat="41.6257610" lon="2.1205920">
        <ele>271.5</ele>
        <time>2020-07-09T14:16:28Z</time>
      </trkpt>
      <trkpt lat="41.6257510" lon="2.1206050">
        <ele>271.4</ele>
        <time>2020-07-09T14:16:29Z</time>
      </trkpt>
      <trkpt lat="41.6257420" lon="2.1206190">
        <ele>271.2</ele>
        <time>2020-07-09T14:16:30Z</time>
      </trkpt>
      <trkpt lat="41.6257340" lon="2.1206350">
        <ele>271.1</ele>
        <time>2020-07-09T14:16:31Z</time>
      </trkpt>
      <trkpt lat="41.6257270" lon="2.1206520">
        <ele>270.9</ele>
        <time>2020-07-09T14:16:32Z</time>
      </trkpt>
      <trkpt lat="41.6257210" lon="2.1206700">
        <ele>270.8</ele>
        <time>2020-07-09T14:16:33Z</time>
      </trkpt>
      <trkpt lat="41.6257170" lon="2.1206890">
        <ele>270.6</ele>
        <time>2020-07-09T14:16:34Z</time>
      </trkpt>
      <trkpt lat="41.6257140" lon="2.1207080">
        <ele>270.5</ele>
        <time>2020-07-09T14:16:35Z</time>
      </trkpt>
      <trkpt lat="41.6257120" lon="2.1207270">
        <ele>270.4</ele>
        <time>2020-07-09T14:16:36Z</time>
      </trkpt>
      <trkpt lat="41.6257110" lon="2.1207470">
        <ele>270.3</ele>
        <time>2020-07-09T14:16:37Z</time>
      </trkpt>
      <trkpt lat="41.6257110" lon="2.1207660">
        <ele>270.2</ele>
        <time>2020-07-09T14:16:38Z</time>
      </trkpt>
      <trkpt lat="41.6257120" lon="2.1207860">
        <ele>270.0</ele>
        <time>2020-07-09T14:16:39Z</time>
      </trkpt>
      <trkpt lat="41.6257140" lon="2.1208060">
        <ele>269.9</ele>
        <time>2020-07-09T14:16:40Z</time>
      </trkpt>
      <trkpt lat="41.6257150" lon="2.1208260">
        <ele>269.8</ele>
        <time>2020-07-09T14:16:41Z</time>
      </trkpt>
      <trkpt lat="41.6257170" lon="2.1208450">
        <ele>269.7</ele>
        <time>2020-07-09T14:16:42Z</time>
      </trkpt>
      <trkpt lat="41.6257180" lon="2.1208650">
        <ele>269.6</ele>
        <time>2020-07-09T14:16:43Z</time>
      </trkpt>
      <trkpt lat="41.6257190" lon="2.1208850">
        <ele>269.6</ele>
        <time>2020-07-09T14:16:44Z</time>
      </trkpt>
      <trkpt lat="41.6257190" lon="2.1209050">
        <ele>269.5</ele>
        <time>2020-07-09T14:16:45Z</time>
      </trkpt>
      <trkpt lat="41.6257180" lon="2.1209240">
        <ele>269.4</ele>
        <time>2020-07-09T14:16:46Z</time>
      </trkpt>
      <trkpt lat="41.6257160" lon="2.1209440">
        <ele>269.3</ele>
        <time>2020-07-09T14:16:47Z</time>
      </trkpt>
      <trkpt lat="41.6257130" lon="2.1209630">
        <ele>269.2</ele>
        <time>2020-07-09T14:16:48Z</time>
      </trkpt>
      <trkpt lat="41.6257080" lon="2.1209820">
        <ele>269.1</ele>
        <time>2020-07-09T14:16:49Z</time>
      </trkpt>
      <trkpt lat="41.6257030" lon="2.1210000">
        <ele>269.1</ele>
        <time>2020-07-09T14:16:50Z</time>
      </trkpt>
      <trkpt lat="41.6256960" lon="2.1210180">
        <ele>269.0</ele>
        <time>2020-07-09T14:16:51Z</time>
      </trkpt>
      <trkpt lat="41.6256890" lon="2.1210350">
        <ele>268.9</ele>
        <time>2020-07-09T14:16:52Z</time>
      </trkpt>
      <trkpt lat="41.6256810" lon="2.1210520">
        <ele>268.8</ele>
        <time>2020-07-09T14:16:53Z</time>
      </trkpt>
      <trkpt lat="41.6256720" lon="2.1210680">
        <ele>268.8</ele>
        <time>2020-07-09T14:16:54Z</time>
      </trkpt>
      <trkpt lat="41.6256510" lon="2.1210900">
        <ele>268.6</ele>
        <time>2020-07-09T14:16:55Z</time>
      </trkpt>
      <trkpt lat="41.6256390" lon="2.1210970">
        <ele>268.6</ele>
        <time>2020-07-09T14:16:56Z</time>
      </trkpt>
      <trkpt lat="41.6256280" lon="2.1211050">
        <ele>268.5</ele>
        <time>2020-07-09T14:16:57Z</time>
      </trkpt>
      <trkpt lat="41.6256170" lon="2.1211130">
        <ele>268.4</ele>
        <time>2020-07-09T14:16:58Z</time>
      </trkpt>
      <trkpt lat="41.6256050" lon="2.1211200">
        <ele>268.4</ele>
        <time>2020-07-09T14:16:59Z</time>
      </trkpt>
      <trkpt lat="41.6255940" lon="2.1211280">
        <ele>268.3</ele>
        <time>2020-07-09T14:17:00Z</time>
      </trkpt>
      <trkpt lat="41.6255830" lon="2.1211360">
        <ele>268.2</ele>
        <time>2020-07-09T14:17:01Z</time>
      </trkpt>
      <trkpt lat="41.6255710" lon="2.1211430">
        <ele>268.2</ele>
        <time>2020-07-09T14:17:02Z</time>
      </trkpt>
      <trkpt lat="41.6255600" lon="2.1211510">
        <ele>268.1</ele>
        <time>2020-07-09T14:17:03Z</time>
      </trkpt>
      <trkpt lat="41.6255490" lon="2.1211590">
        <ele>268.0</ele>
        <time>2020-07-09T14:17:04Z</time>
      </trkpt>
      <trkpt lat="41.6255370" lon="2.1211660">
        <ele>268.0</ele>
        <time>2020-07-09T14:17:05Z</time>
      </trkpt>
      <trkpt lat="41.6255260" lon="2.1211740">
        <ele>267.9</ele>
        <time>2020-07-09T14:17:06Z</time>
      </trkpt>
      <trkpt lat="41.6255110" lon="2.1211760">
        <ele>267.8</ele>
        <time>2020-07-09T14:17:07Z</time>
      </trkpt>
      <trkpt lat="41.6254970" lon="2.1211770">
        <ele>267.8</ele>
        <time>2020-07-09T14:17:08Z</time>
      </trkpt>
      <trkpt lat="41.6254820" lon="2.1211780">
        <ele>267.7</ele>
        <time>2020-07-09T14:17:09Z</time>
      </trkpt>
      <trkpt lat="41.6254660" lon="2.1211780">
        <ele>267.6</ele>
        <time>2020-07-09T14:17:10Z</time>
      </trkpt>
      <trkpt lat="41.6254510" lon="2.1211770">
        <ele>267.5</ele>
        <time>2020-07-09T14:17:11Z</time>
      </trkpt>
      <trkpt lat="41.6254360" lon="2.1211760">
        <ele>267.5</ele>
        <time>2020-07-09T14:17:12Z</time>
      </trkpt>
      <trkpt lat="41.6254200" lon="2.1211750">
        <ele>267.4</ele>
        <time>2020-07-09T14:17:13Z</time>
      </trkpt>
      <trkpt lat="41.6254050" lon="2.1211740">
        <ele>267.3</ele>
        <time>2020-07-09T14:17:14Z</time>
      </trkpt>
      <trkpt lat="41.6253890" lon="2.1211720">
        <ele>267.2</ele>
        <time>2020-07-09T14:17:15Z</time>
      </trkpt>
      <trkpt lat="41.6253730" lon="2.1211710">
        <ele>267.2</ele>
        <time>2020-07-09T14:17:16Z</time>
      </trkpt>
      <trkpt lat="41.6253580" lon="2.1211690">
        <ele>267.1</ele>
        <time>2020-07-09T14:17:17Z</time>
      </trkpt>
      <trkpt lat="41.6253420" lon="2.1211680">
        <ele>267.0</ele>
        <time>2020-07-09T14:17:18Z</time>
      </trkpt>
      <trkpt lat="41.6253270" lon="2.1211670">
        <ele>267.0</ele>
        <time>2020-07-09T14:17:19Z</time>
      </trkpt>
      <trkpt lat="41.6253120" lon="2.1211660">
        <ele>266.9</ele>
        <time>2020-07-09T14:17:20Z</time>
      </trkpt>
      <trkpt lat="41.6252960" lon="2.1211650">
        <ele>266.8</ele>
        <time>2020-07-09T14:17:21Z</time>
      </trkpt>
      <trkpt lat="41.6252810" lon="2.1211640">
        <ele>266.7</ele>
        <time>2020-07-09T14:17:22Z</time>
      </trkpt>
      <trkpt lat="41.6252670" lon="2.1211640">
        <ele>266.7</ele>
        <time>2020-07-09T14:17:23Z</time>
      </trkpt>
      <trkpt lat="41.6252520" lon="2.1211640">
        <ele>266.6</ele>
        <time>2020-07-09T14:17:24Z</time>
      </trkpt>
      <trkpt lat="41.6252370" lon="2.1211650">
        <ele>266.5</ele>
        <time>2020-07-09T14:17:25Z</time>
      </trkpt>
      <trkpt lat="41.6252230" lon="2.1211650">
        <ele>266.5</ele>
        <time>2020-07-09T14:17:26Z</time>
      </trkpt>
      <trkpt lat="41.6252090" lon="2.1211660">
        <ele>266.4</ele>
        <time>2020-07-09T14:17:27Z</time>
      </trkpt>
      <trkpt lat="41.6251940" lon="2.1211680">
        <ele>266.3</ele>
        <time>2020-07-09T14:17:28Z</time>
      </trkpt>
      <trkpt lat="41.6251800" lon="2.1211690">
        <ele>266.3</ele>
        <time>2020-07-09T14:17:29Z</time>
      </trkpt>
      <trkpt lat="41.6251660" lon="2.1211700">
        <ele>266.2</ele>
        <time>2020-07-09T14:17:30Z</time>
      </trkpt>
      <trkpt lat="41.6251520" lon="2.1211720">
        <ele>266.1</ele>
        <time>2020-07-09T14:17:31Z</time>
      </trkpt>
      <trkpt lat="41.6251370" lon="2.1211730">
        <ele>266.1</ele>
        <time>2020-07-09T14:17:32Z</time>
      </trkpt>
      <trkpt lat="41.6251230" lon="2.1211740">
        <ele>266.0</ele>
        <time>2020-07-09T14:17:33Z</time>
      </trkpt>
      <trkpt lat="41.6251080" lon="2.1211760">
        <ele>265.9</ele>
        <time>2020-07-09T14:17:34Z</time>
      </trkpt>
      <trkpt lat="41.6250940" lon="2.1211770">
        <ele>265.9</ele>
        <time>2020-07-09T14:17:35Z</time>
      </trkpt>
      <trkpt lat="41.6250790" lon="2.1211780">
        <ele>265.8</ele>
        <time>2020-07-09T14:17:36Z</time>
      </trkpt>
      <trkpt lat="41.6250640" lon="2.1211790">
        <ele>265.7</ele>
        <time>2020-07-09T14:17:37Z</time>
      </trkpt>
      <trkpt lat="41.6250490" lon="2.1211800">
        <ele>265.6</ele>
        <time>2020-07-09T14:17:38Z</time>
      </trkpt>
      <trkpt lat="41.6250340" lon="2.1211800">
        <ele>265.5</ele>
        <time>2020-07-09T14:17:39Z</time>
      </trkpt>
      <trkpt lat="41.6250190" lon="2.1211810">
        <ele>265.5</ele>
        <time>2020-07-09T14:17:40Z</time>
      </trkpt>
      <trkpt lat="41.6250040" lon="2.1211820">
        <ele>265.4</ele>
        <time>2020-07-09T14:17:41Z</time>
      </trkpt>
      <trkpt lat="41.6249890" lon="2.1211820">
        <ele>265.3</ele>
        <time>2020-07-09T14:17:42Z</time>
      </trkpt>
      <trkpt lat="41.6249740" lon="2.1211830">
        <ele>265.2</ele>
        <time>2020-07-09T14:17:43Z</time>
      </trkpt>
      <trkpt lat="41.6249590" lon="2.1211830">
        <ele>265.1</ele>
        <time>2020-07-09T14:17:44Z</time>
      </trkpt>
      <trkpt lat="41.6249440" lon="2.1211830">
        <ele>265.0</ele>
        <time>2020-07-09T14:17:45Z</time>
      </trkpt>
      <trkpt lat="41.6249290" lon="2.1211840">
        <ele>264.8</ele>
        <time>2020-07-09T14:17:46Z</time>
      </trkpt>
      <trkpt lat="41.6249130" lon="2.1211840">
        <ele>264.7</ele>
        <time>2020-07-09T14:17:47Z</time>
      </trkpt>
      <trkpt lat="41.6248980" lon="2.1211840">
        <ele>264.6</ele>
        <time>2020-07-09T14:17:48Z</time>
      </trkpt>
      <trkpt lat="41.6248830" lon="2.1211840">
        <ele>264.6</ele>
        <time>2020-07-09T14:17:49Z</time>
      </trkpt>
      <trkpt lat="41.6248680" lon="2.1211830">
        <ele>264.5</ele>
        <time>2020-07-09T14:17:50Z</time>
      </trkpt>
      <trkpt lat="41.6248530" lon="2.1211830">
        <ele>264.4</ele>
        <time>2020-07-09T14:17:51Z</time>
      </trkpt>
      <trkpt lat="41.6248380" lon="2.1211830">
        <ele>264.4</ele>
        <time>2020-07-09T14:17:52Z</time>
      </trkpt>
      <trkpt lat="41.6248240" lon="2.1211820">
        <ele>264.3</ele>
        <time>2020-07-09T14:17:53Z</time>
      </trkpt>
      <trkpt lat="41.6248090" lon="2.1211810">
        <ele>264.2</ele>
        <time>2020-07-09T14:17:54Z</time>
      </trkpt>
      <trkpt lat="41.6247940" lon="2.1211810">
        <ele>264.2</ele>
        <time>2020-07-09T14:17:55Z</time>
      </trkpt>
      <trkpt lat="41.6247790" lon="2.1211800">
        <ele>264.1</ele>
        <time>2020-07-09T14:17:56Z</time>
      </trkpt>
      <trkpt lat="41.6247640" lon="2.1211790">
        <ele>264.0</ele>
        <time>2020-07-09T14:17:57Z</time>
      </trkpt>
      <trkpt lat="41.6247500" lon="2.1211790">
        <ele>263.9</ele>
        <time>2020-07-09T14:17:58Z</time>
      </trkpt>
      <trkpt lat="41.6247350" lon="2.1211780">
        <ele>263.9</ele>
        <time>2020-07-09T14:17:59Z</time>
      </trkpt>
      <trkpt lat="41.6247210" lon="2.1211770">
        <ele>263.8</ele>
        <time>2020-07-09T14:18:00Z</time>
      </trkpt>
      <trkpt lat="41.6247060" lon="2.1211760">
        <ele>263.7</ele>
        <time>2020-07-09T14:18:01Z</time>
      </trkpt>
      <trkpt lat="41.6246910" lon="2.1211750">
        <ele>263.7</ele>
        <time>2020-07-09T14:18:02Z</time>
      </trkpt>
      <trkpt lat="41.6246770" lon="2.1211750">
        <ele>263.6</ele>
        <time>2020-07-09T14:18:03Z</time>
      </trkpt>
      <trkpt lat="41.6246620" lon="2.1211740">
        <ele>263.5</ele>
        <time>2020-07-09T14:18:04Z</time>
      </trkpt>
      <trkpt lat="41.6246480" lon="2.1211730">
        <ele>263.5</ele>
        <time>2020-07-09T14:18:05Z</time>
      </trkpt>
      <trkpt lat="41.6246330" lon="2.1211730">
        <ele>263.4</ele>
        <time>2020-07-09T14:18:06Z</time>
      </trkpt>
      <trkpt lat="41.6246190" lon="2.1211720">
        <ele>263.3</ele>
        <time>2020-07-09T14:18:07Z</time>
      </trkpt>
      <trkpt lat="41.6246040" lon="2.1211720">
        <ele>263.3</ele>
        <time>2020-07-09T14:18:08Z</time>
      </trkpt>
      <trkpt lat="41.6245900" lon="2.1211710">
        <ele>263.2</ele>
        <time>2020-07-09T14:18:09Z</time>
      </trkpt>
      <trkpt lat="41.6245750" lon="2.1211710">
        <ele>263.2</ele>
        <time>2020-07-09T14:18:10Z</time>
      </trkpt>
      <trkpt lat="41.6245610" lon="2.1211710">
        <ele>263.1</ele>
        <time>2020-07-09T14:18:11Z</time>
      </trkpt>
      <trkpt lat="41.6245470" lon="2.1211710">
        <ele>263.1</ele>
        <time>2020-07-09T14:18:12Z</time>
      </trkpt>
      <trkpt lat="41.6245320" lon="2.1211710">
        <ele>263.0</ele>
        <time>2020-07-09T14:18:13Z</time>
      </trkpt>
      <trkpt lat="41.6245180" lon="2.1211720">
        <ele>263.0</ele>
        <time>2020-07-09T14:18:14Z</time>
      </trkpt>
      <trkpt lat="41.6245030" lon="2.1211720">
        <ele>262.9</ele>
        <time>2020-07-09T14:18:15Z</time>
      </trkpt>
      <trkpt lat="41.6244890" lon="2.1211730">
        <ele>262.9</ele>
        <time>2020-07-09T14:18:16Z</time>
      </trkpt>
      <trkpt lat="41.6244740" lon="2.1211730">
        <ele>262.8</ele>
        <time>2020-07-09T14:18:17Z</time>
      </trkpt>
      <trkpt lat="41.6244600" lon="2.1211740">
        <ele>262.8</ele>
        <time>2020-07-09T14:18:18Z</time>
      </trkpt>
      <trkpt lat="41.6244460" lon="2.1211760">
        <ele>262.7</ele>
        <time>2020-07-09T14:18:19Z</time>
      </trkpt>
      <trkpt lat="41.6244310" lon="2.1211770">
        <ele>262.7</ele>
        <time>2020-07-09T14:18:20Z</time>
      </trkpt>
      <trkpt lat="41.6244170" lon="2.1211790">
        <ele>262.6</ele>
        <time>2020-07-09T14:18:21Z</time>
      </trkpt>
      <trkpt lat="41.6244020" lon="2.1211810">
        <ele>262.5</ele>
        <time>2020-07-09T14:18:22Z</time>
      </trkpt>
      <trkpt lat="41.6243870" lon="2.1211830">
        <ele>262.5</ele>
        <time>2020-07-09T14:18:23Z</time>
      </trkpt>
      <trkpt lat="41.6243730" lon="2.1211850">
        <ele>262.4</ele>
        <time>2020-07-09T14:18:24Z</time>
      </trkpt>
      <trkpt lat="41.6243580" lon="2.1211880">
        <ele>262.4</ele>
        <time>2020-07-09T14:18:25Z</time>
      </trkpt>
      <trkpt lat="41.6243440" lon="2.1211910">
        <ele>262.3</ele>
        <time>2020-07-09T14:18:26Z</time>
      </trkpt>
      <trkpt lat="41.6243290" lon="2.1211940">
        <ele>262.3</ele>
        <time>2020-07-09T14:18:27Z</time>
      </trkpt>
      <trkpt lat="41.6243140" lon="2.1211980">
        <ele>262.2</ele>
        <time>2020-07-09T14:18:28Z</time>
      </trkpt>
      <trkpt lat="41.6243000" lon="2.1212010">
        <ele>262.2</ele>
        <time>2020-07-09T14:18:29Z</time>
      </trkpt>
      <trkpt lat="41.6242850" lon="2.1212050">
        <ele>262.1</ele>
        <time>2020-07-09T14:18:30Z</time>
      </trkpt>
      <trkpt lat="41.6242710" lon="2.1212100">
        <ele>262.0</ele>
        <time>2020-07-09T14:18:31Z</time>
      </trkpt>
      <trkpt lat="41.6242560" lon="2.1212140">
        <ele>262.0</ele>
        <time>2020-07-09T14:18:32Z</time>
      </trkpt>
      <trkpt lat="41.6242410" lon="2.1212190">
        <ele>261.9</ele>
        <time>2020-07-09T14:18:33Z</time>
      </trkpt>
      <trkpt lat="41.6242270" lon="2.1212230">
        <ele>261.9</ele>
        <time>2020-07-09T14:18:34Z</time>
      </trkpt>
      <trkpt lat="41.6242130" lon="2.1212280">
        <ele>261.8</ele>
        <time>2020-07-09T14:18:35Z</time>
      </trkpt>
      <trkpt lat="41.6241990" lon="2.1212330">
        <ele>261.8</ele>
        <time>2020-07-09T14:18:36Z</time>
      </trkpt>
      <trkpt lat="41.6241850" lon="2.1212380">
        <ele>261.7</ele>
        <time>2020-07-09T14:18:37Z</time>
      </trkpt>
      <trkpt lat="41.6241710" lon="2.1212420">
        <ele>261.6</ele>
        <time>2020-07-09T14:18:38Z</time>
      </trkpt>
      <trkpt lat="41.6241570" lon="2.1212470">
        <ele>261.6</ele>
        <time>2020-07-09T14:18:39Z</time>
      </trkpt>
      <trkpt lat="41.6241440" lon="2.1212520">
        <ele>261.5</ele>
        <time>2020-07-09T14:18:40Z</time>
      </trkpt>
      <trkpt lat="41.6241310" lon="2.1212560">
        <ele>261.5</ele>
        <time>2020-07-09T14:18:41Z</time>
      </trkpt>
      <trkpt lat="41.6241180" lon="2.1212610">
        <ele>261.4</ele>
        <time>2020-07-09T14:18:42Z</time>
      </trkpt>
      <trkpt lat="41.6241050" lon="2.1212660">
        <ele>261.4</ele>
        <time>2020-07-09T14:18:43Z</time>
      </trkpt>
      <trkpt lat="41.6240920" lon="2.1212710">
        <ele>261.3</ele>
        <time>2020-07-09T14:18:44Z</time>
      </trkpt>
      <trkpt lat="41.6240790" lon="2.1212760">
        <ele>261.2</ele>
        <time>2020-07-09T14:18:45Z</time>
      </trkpt>
      <trkpt lat="41.6240660" lon="2.1212810">
        <ele>261.2</ele>
        <time>2020-07-09T14:18:46Z</time>
      </trkpt>
      <trkpt lat="41.6240540" lon="2.1212860">
        <ele>261.1</ele>
        <time>2020-07-09T14:18:47Z</time>
      </trkpt>
      <trkpt lat="41.6240410" lon="2.1212920">
        <ele>261.0</ele>
        <time>2020-07-09T14:18:48Z</time>
      </trkpt>
      <trkpt lat="41.6240290" lon="2.1212970">
        <ele>261.0</ele>
        <time>2020-07-09T14:18:49Z</time>
      </trkpt>
      <trkpt lat="41.6240160" lon="2.1213030">
        <ele>260.9</ele>
        <time>2020-07-09T14:18:50Z</time>
      </trkpt>
      <trkpt lat="41.6240040" lon="2.1213090">
        <ele>260.8</ele>
        <time>2020-07-09T14:18:51Z</time>
      </trkpt>
      <trkpt lat="41.6239910" lon="2.1213140">
        <ele>260.8</ele>
        <time>2020-07-09T14:18:52Z</time>
      </trkpt>
      <trkpt lat="41.6239790" lon="2.1213200">
        <ele>260.7</ele>
        <time>2020-07-09T14:18:53Z</time>
      </trkpt>
      <trkpt lat="41.6239660" lon="2.1213260">
        <ele>260.6</ele>
        <time>2020-07-09T14:18:54Z</time>
      </trkpt>
      <trkpt lat="41.6239540" lon="2.1213310">
        <ele>260.6</ele>
        <time>2020-07-09T14:18:55Z</time>
      </trkpt>
      <trkpt lat="41.6239410" lon="2.1213360">
        <ele>260.5</ele>
        <time>2020-07-09T14:18:56Z</time>
      </trkpt>
      <trkpt lat="41.6239290" lon="2.1213420">
        <ele>260.4</ele>
        <time>2020-07-09T14:18:57Z</time>
      </trkpt>
      <trkpt lat="41.6239160" lon="2.1213470">
        <ele>260.4</ele>
        <time>2020-07-09T14:18:58Z</time>
      </trkpt>
      <trkpt lat="41.6239040" lon="2.1213520">
        <ele>260.3</ele>
        <time>2020-07-09T14:18:59Z</time>
      </trkpt>
      <trkpt lat="41.6238910" lon="2.1213570">
        <ele>260.3</ele>
        <time>2020-07-09T14:19:00Z</time>
      </trkpt>
      <trkpt lat="41.6238780" lon="2.1213610">
        <ele>260.2</ele>
        <time>2020-07-09T14:19:01Z</time>
      </trkpt>
      <trkpt lat="41.6238650" lon="2.1213650">
        <ele>260.1</ele>
        <time>2020-07-09T14:19:02Z</time>
      </trkpt>
      <trkpt lat="41.6238520" lon="2.1213690">
        <ele>260.1</ele>
        <time>2020-07-09T14:19:03Z</time>
      </trkpt>
      <trkpt lat="41.6238390" lon="2.1213730">
        <ele>260.0</ele>
        <time>2020-07-09T14:19:04Z</time>
      </trkpt>
      <trkpt lat="41.6238250" lon="2.1213760">
        <ele>259.9</ele>
        <time>2020-07-09T14:19:05Z</time>
      </trkpt>
      <trkpt lat="41.6238120" lon="2.1213790">
        <ele>259.9</ele>
        <time>2020-07-09T14:19:06Z</time>
      </trkpt>
      <trkpt lat="41.6237980" lon="2.1213820">
        <ele>259.8</ele>
        <time>2020-07-09T14:19:07Z</time>
      </trkpt>
      <trkpt lat="41.6237850" lon="2.1213850">
        <ele>259.7</ele>
        <time>2020-07-09T14:19:08Z</time>
      </trkpt>
      <trkpt lat="41.6237710" lon="2.1213870">
        <ele>259.6</ele>
        <time>2020-07-09T14:19:09Z</time>
      </trkpt>
      <trkpt lat="41.6237570" lon="2.1213890">
        <ele>259.5</ele>
        <time>2020-07-09T14:19:10Z</time>
      </trkpt>
      <trkpt lat="41.6237440" lon="2.1213920">
        <ele>259.4</ele>
        <time>2020-07-09T14:19:11Z</time>
      </trkpt>
      <trkpt lat="41.6237300" lon="2.1213940">
        <ele>259.3</ele>
        <time>2020-07-09T14:19:12Z</time>
      </trkpt>
      <trkpt lat="41.6237170" lon="2.1213960">
        <ele>259.2</ele>
        <time>2020-07-09T14:19:13Z</time>
      </trkpt>
      <trkpt lat="41.6237040" lon="2.1213990">
        <ele>259.1</ele>
        <time>2020-07-09T14:19:14Z</time>
      </trkpt>
      <trkpt lat="41.6236900" lon="2.1214020">
        <ele>259.0</ele>
        <time>2020-07-09T14:19:15Z</time>
      </trkpt>
      <trkpt lat="41.6236770" lon="2.1214040">
        <ele>258.9</ele>
        <time>2020-07-09T14:19:16Z</time>
      </trkpt>
      <trkpt lat="41.6236640" lon="2.1214070">
        <ele>258.8</ele>
        <time>2020-07-09T14:19:17Z</time>
      </trkpt>
      <trkpt lat="41.6236520" lon="2.1214100">
        <ele>258.7</ele>
        <time>2020-07-09T14:19:18Z</time>
      </trkpt>
      <trkpt lat="41.6236390" lon="2.1214120">
        <ele>258.6</ele>
        <time>2020-07-09T14:19:19Z</time>
      </trkpt>
      <trkpt lat="41.6236260" lon="2.1214130">
        <ele>258.4</ele>
        <time>2020-07-09T14:19:20Z</time>
      </trkpt>
      <trkpt lat="41.6236140" lon="2.1214140">
        <ele>258.3</ele>
        <time>2020-07-09T14:19:21Z</time>
      </trkpt>
      <trkpt lat="41.6236010" lon="2.1214150">
        <ele>258.2</ele>
        <time>2020-07-09T14:19:22Z</time>
      </trkpt>
      <trkpt lat="41.6235880" lon="2.1214150">
        <ele>258.1</ele>
        <time>2020-07-09T14:19:23Z</time>
      </trkpt>
      <trkpt lat="41.6235750" lon="2.1214130">
        <ele>258.0</ele>
        <time>2020-07-09T14:19:24Z</time>
      </trkpt>
      <trkpt lat="41.6235630" lon="2.1214110">
        <ele>257.8</ele>
        <time>2020-07-09T14:19:25Z</time>
      </trkpt>
      <trkpt lat="41.6235500" lon="2.1214090">
        <ele>257.7</ele>
        <time>2020-07-09T14:19:26Z</time>
      </trkpt>
      <trkpt lat="41.6235360" lon="2.1214060">
        <ele>257.6</ele>
        <time>2020-07-09T14:19:27Z</time>
      </trkpt>
      <trkpt lat="41.6235230" lon="2.1214030">
        <ele>257.4</ele>
        <time>2020-07-09T14:19:28Z</time>
      </trkpt>
      <trkpt lat="41.6235100" lon="2.1214000">
        <ele>257.3</ele>
        <time>2020-07-09T14:19:29Z</time>
      </trkpt>
      <trkpt lat="41.6234960" lon="2.1213970">
        <ele>257.1</ele>
        <time>2020-07-09T14:19:30Z</time>
      </trkpt>
      <trkpt lat="41.6234820" lon="2.1213950">
        <ele>257.0</ele>
        <time>2020-07-09T14:19:31Z</time>
      </trkpt>
      <trkpt lat="41.6234680" lon="2.1213930">
        <ele>256.8</ele>
        <time>2020-07-09T14:19:32Z</time>
      </trkpt>
      <trkpt lat="41.6234530" lon="2.1213930">
        <ele>256.6</ele>
        <time>2020-07-09T14:19:33Z</time>
      </trkpt>
      <trkpt lat="41.6234380" lon="2.1213920">
        <ele>256.5</ele>
        <time>2020-07-09T14:19:34Z</time>
      </trkpt>
      <trkpt lat="41.6234230" lon="2.1213930">
        <ele>256.3</ele>
        <time>2020-07-09T14:19:35Z</time>
      </trkpt>
      <trkpt lat="41.6234080" lon="2.1213930">
        <ele>256.2</ele>
        <time>2020-07-09T14:19:36Z</time>
      </trkpt>
      <trkpt lat="41.6233930" lon="2.1213940">
        <ele>256.0</ele>
        <time>2020-07-09T14:19:37Z</time>
      </trkpt>
      <trkpt lat="41.6233790" lon="2.1213950">
        <ele>255.8</ele>
        <time>2020-07-09T14:19:38Z</time>
      </trkpt>
      <trkpt lat="41.6233640" lon="2.1213960">
        <ele>255.7</ele>
        <time>2020-07-09T14:19:39Z</time>
      </trkpt>
      <trkpt lat="41.6233500" lon="2.1213960">
        <ele>255.5</ele>
        <time>2020-07-09T14:19:40Z</time>
      </trkpt>
      <trkpt lat="41.6233360" lon="2.1213960">
        <ele>255.4</ele>
        <time>2020-07-09T14:19:41Z</time>
      </trkpt>
      <trkpt lat="41.6233230" lon="2.1213950">
        <ele>255.3</ele>
        <time>2020-07-09T14:19:42Z</time>
      </trkpt>
      <trkpt lat="41.6233100" lon="2.1213940">
        <ele>255.1</ele>
        <time>2020-07-09T14:19:43Z</time>
      </trkpt>
      <trkpt lat="41.6232980" lon="2.1213930">
        <ele>255.0</ele>
        <time>2020-07-09T14:19:44Z</time>
      </trkpt>
      <trkpt lat="41.6232850" lon="2.1213910">
        <ele>254.9</ele>
        <time>2020-07-09T14:19:45Z</time>
      </trkpt>
      <trkpt lat="41.6232720" lon="2.1213890">
        <ele>254.7</ele>
        <time>2020-07-09T14:19:46Z</time>
      </trkpt>
      <trkpt lat="41.6232600" lon="2.1213870">
        <ele>254.6</ele>
        <time>2020-07-09T14:19:47Z</time>
      </trkpt>
      <trkpt lat="41.6232460" lon="2.1213850">
        <ele>254.5</ele>
        <time>2020-07-09T14:19:48Z</time>
      </trkpt>
      <trkpt lat="41.6232320" lon="2.1213830">
        <ele>254.3</ele>
        <time>2020-07-09T14:19:49Z</time>
      </trkpt>
      <trkpt lat="41.6232170" lon="2.1213810">
        <ele>254.2</ele>
        <time>2020-07-09T14:19:50Z</time>
      </trkpt>
      <trkpt lat="41.6232020" lon="2.1213800">
        <ele>254.1</ele>
        <time>2020-07-09T14:19:51Z</time>
      </trkpt>
      <trkpt lat="41.6231850" lon="2.1213800">
        <ele>253.9</ele>
        <time>2020-07-09T14:19:52Z</time>
      </trkpt>
      <trkpt lat="41.6231680" lon="2.1213790">
        <ele>253.8</ele>
        <time>2020-07-09T14:19:53Z</time>
      </trkpt>
      <trkpt lat="41.6231490" lon="2.1213790">
        <ele>253.6</ele>
        <time>2020-07-09T14:19:54Z</time>
      </trkpt>
      <trkpt lat="41.6231310" lon="2.1213800">
        <ele>253.5</ele>
        <time>2020-07-09T14:19:55Z</time>
      </trkpt>
      <trkpt lat="41.6231120" lon="2.1213810">
        <ele>253.3</ele>
        <time>2020-07-09T14:19:56Z</time>
      </trkpt>
      <trkpt lat="41.6230940" lon="2.1213820">
        <ele>253.2</ele>
        <time>2020-07-09T14:19:57Z</time>
      </trkpt>
      <trkpt lat="41.6230760" lon="2.1213830">
        <ele>253.1</ele>
        <time>2020-07-09T14:19:58Z</time>
      </trkpt>
      <trkpt lat="41.6230590" lon="2.1213840">
        <ele>253.0</ele>
        <time>2020-07-09T14:19:59Z</time>
      </trkpt>
      <trkpt lat="41.6230420" lon="2.1213860">
        <ele>252.9</ele>
        <time>2020-07-09T14:20:00Z</time>
      </trkpt>
      <trkpt lat="41.6230270" lon="2.1213870">
        <ele>252.8</ele>
        <time>2020-07-09T14:20:01Z</time>
      </trkpt>
      <trkpt lat="41.6230130" lon="2.1213890">
        <ele>252.7</ele>
        <time>2020-07-09T14:20:02Z</time>
      </trkpt>
      <trkpt lat="41.6230000" lon="2.1213900">
        <ele>252.7</ele>
        <time>2020-07-09T14:20:03Z</time>
      </trkpt>
      <trkpt lat="41.6229870" lon="2.1213910">
        <ele>252.6</ele>
        <time>2020-07-09T14:20:04Z</time>
      </trkpt>
      <trkpt lat="41.6229750" lon="2.1213920">
        <ele>252.6</ele>
        <time>2020-07-09T14:20:05Z</time>
      </trkpt>
      <trkpt lat="41.6229630" lon="2.1213930">
        <ele>252.5</ele>
        <time>2020-07-09T14:20:06Z</time>
      </trkpt>
      <trkpt lat="41.6229520" lon="2.1213930">
        <ele>252.5</ele>
        <time>2020-07-09T14:20:07Z</time>
      </trkpt>
      <trkpt lat="41.6229410" lon="2.1213930">
        <ele>252.5</ele>
        <time>2020-07-09T14:20:08Z</time>
      </trkpt>
      <trkpt lat="41.6229300" lon="2.1213910">
        <ele>252.5</ele>
        <time>2020-07-09T14:20:09Z</time>
      </trkpt>
      <trkpt lat="41.6229190" lon="2.1213900">
        <ele>252.4</ele>
        <time>2020-07-09T14:20:10Z</time>
      </trkpt>
      <trkpt lat="41.6229080" lon="2.1213870">
        <ele>252.4</ele>
        <time>2020-07-09T14:20:11Z</time>
      </trkpt>
      <trkpt lat="41.6228970" lon="2.1213840">
        <ele>252.4</ele>
        <time>2020-07-09T14:20:12Z</time>
      </trkpt>
      <trkpt lat="41.6228850" lon="2.1213810">
        <ele>252.4</ele>
        <time>2020-07-09T14:20:13Z</time>
      </trkpt>
      <trkpt lat="41.6228740" lon="2.1213770">
        <ele>252.4</ele>
        <time>2020-07-09T14:20:14Z</time>
      </trkpt>
      <trkpt lat="41.6228620" lon="2.1213730">
        <ele>252.4</ele>
        <time>2020-07-09T14:20:15Z</time>
      </trkpt>
      <trkpt lat="41.6228510" lon="2.1213680">
        <ele>252.4</ele>
        <time>2020-07-09T14:20:16Z</time>
      </trkpt>
      <trkpt lat="41.6228400" lon="2.1213640">
        <ele>252.4</ele>
        <time>2020-07-09T14:20:17Z</time>
      </trkpt>
      <trkpt lat="41.6228280" lon="2.1213590">
        <ele>252.4</ele>
        <time>2020-07-09T14:20:18Z</time>
      </trkpt>
      <trkpt lat="41.6228170" lon="2.1213540">
        <ele>252.4</ele>
        <time>2020-07-09T14:20:19Z</time>
      </trkpt>
      <trkpt lat="41.6228050" lon="2.1213500">
        <ele>252.4</ele>
        <time>2020-07-09T14:20:20Z</time>
      </trkpt>
      <trkpt lat="41.6227940" lon="2.1213470">
        <ele>252.4</ele>
        <time>2020-07-09T14:20:21Z</time>
      </trkpt>
      <trkpt lat="41.6227810" lon="2.1213460">
        <ele>252.4</ele>
        <time>2020-07-09T14:20:22Z</time>
      </trkpt>
      <trkpt lat="41.6227670" lon="2.1213480">
        <ele>252.5</ele>
        <time>2020-07-09T14:20:23Z</time>
      </trkpt>
      <trkpt lat="41.6227530" lon="2.1213520">
        <ele>252.5</ele>
        <time>2020-07-09T14:20:24Z</time>
      </trkpt>
      <trkpt lat="41.6227380" lon="2.1213600">
        <ele>252.5</ele>
        <time>2020-07-09T14:20:25Z</time>
      </trkpt>
      <trkpt lat="41.6227220" lon="2.1213690">
        <ele>252.6</ele>
        <time>2020-07-09T14:20:26Z</time>
      </trkpt>
      <trkpt lat="41.6227070" lon="2.1213800">
        <ele>252.6</ele>
        <time>2020-07-09T14:20:27Z</time>
      </trkpt>
      <trkpt lat="41.6226920" lon="2.1213920">
        <ele>252.7</ele>
        <time>2020-07-09T14:20:28Z</time>
      </trkpt>
      <trkpt lat="41.6226780" lon="2.1214050">
        <ele>252.7</ele>
        <time>2020-07-09T14:20:29Z</time>
      </trkpt>
      <trkpt lat="41.6226640" lon="2.1214180">
        <ele>252.8</ele>
        <time>2020-07-09T14:20:30Z</time>
      </trkpt>
      <trkpt lat="41.6226510" lon="2.1214320">
        <ele>252.8</ele>
        <time>2020-07-09T14:20:31Z</time>
      </trkpt>
      <trkpt lat="41.6226390" lon="2.1214450">
        <ele>252.9</ele>
        <time>2020-07-09T14:20:32Z</time>
      </trkpt>
      <trkpt lat="41.6226220" lon="2.1214670">
        <ele>253.0</ele>
        <time>2020-07-09T14:20:33Z</time>
      </trkpt>
      <trkpt lat="41.6226160" lon="2.1214740">
        <ele>253.0</ele>
        <time>2020-07-09T14:20:34Z</time>
      </trkpt>
      <trkpt lat="41.6226050" lon="2.1214890">
        <ele>253.0</ele>
        <time>2020-07-09T14:20:35Z</time>
      </trkpt>
      <trkpt lat="41.6225950" lon="2.1215040">
        <ele>253.1</ele>
        <time>2020-07-09T14:20:36Z</time>
      </trkpt>
      <trkpt lat="41.6225850" lon="2.1215190">
        <ele>253.1</ele>
        <time>2020-07-09T14:20:37Z</time>
      </trkpt>
      <trkpt lat="41.6225740" lon="2.1215350">
        <ele>253.2</ele>
        <time>2020-07-09T14:20:38Z</time>
      </trkpt>
      <trkpt lat="41.6225640" lon="2.1215500">
        <ele>253.2</ele>
        <time>2020-07-09T14:20:39Z</time>
      </trkpt>
      <trkpt lat="41.6225550" lon="2.1215660">
        <ele>253.3</ele>
        <time>2020-07-09T14:20:40Z</time>
      </trkpt>
      <trkpt lat="41.6225450" lon="2.1215820">
        <ele>253.3</ele>
        <time>2020-07-09T14:20:41Z</time>
      </trkpt>
      <trkpt lat="41.6225360" lon="2.1215980">
        <ele>253.4</ele>
        <time>2020-07-09T14:20:42Z</time>
      </trkpt>
      <trkpt lat="41.6225280" lon="2.1216140">
        <ele>253.4</ele>
        <time>2020-07-09T14:20:43Z</time>
      </trkpt>
      <trkpt lat="41.6225200" lon="2.1216300">
        <ele>253.5</ele>
        <time>2020-07-09T14:20:44Z</time>
      </trkpt>
      <trkpt lat="41.6225130" lon="2.1216470">
        <ele>253.5</ele>
        <time>2020-07-09T14:20:45Z</time>
      </trkpt>
      <trkpt lat="41.6225060" lon="2.1216630">
        <ele>253.6</ele>
        <time>2020-07-09T14:20:46Z</time>
      </trkpt>
      <trkpt lat="41.6225000" lon="2.1216800">
        <ele>253.6</ele>
        <time>2020-07-09T14:20:47Z</time>
      </trkpt>
      <trkpt lat="41.6224950" lon="2.1216970">
        <ele>253.6</ele>
        <time>2020-07-09T14:20:48Z</time>
      </trkpt>
      <trkpt lat="41.6224910" lon="2.1217140">
        <ele>253.7</ele>
        <time>2020-07-09T14:20:49Z</time>
      </trkpt>
      <trkpt lat="41.6224880" lon="2.1217310">
        <ele>253.7</ele>
        <time>2020-07-09T14:20:50Z</time>
      </trkpt>
      <trkpt lat="41.6224870" lon="2.1217480">
        <ele>253.7</ele>
        <time>2020-07-09T14:20:51Z</time>
      </trkpt>
      <trkpt lat="41.6224860" lon="2.1217660">
        <ele>253.8</ele>
        <time>2020-07-09T14:20:52Z</time>
      </trkpt>
      <trkpt lat="41.6224860" lon="2.1217830">
        <ele>253.8</ele>
        <time>2020-07-09T14:20:53Z</time>
      </trkpt>
      <trkpt lat="41.6224880" lon="2.1218000">
        <ele>253.8</ele>
        <time>2020-07-09T14:20:54Z</time>
      </trkpt>
      <trkpt lat="41.6224910" lon="2.1218180">
        <ele>253.8</ele>
        <time>2020-07-09T14:20:55Z</time>
      </trkpt>
    </trkseg>
  </trk>
</gpx>
